<?xml version="1.0" encoding="UTF-8" standalone="no" ?>
<gpx xmlns="http://www.topografix.com/GPX/1/1" xmlns:xsi="http://www.w3.org/2001/XMLSchema-instance" xsi:schemaLocation="http://www.topografix.com/GPX/1/1 http://www.topografix.com/GPX/1/1/gpx.xsd" version="1.1" creator="VisuGPX - https://www.visugpx.com">
  <metadata>
    <name>Dimanche 29 mars 2026</name>
  </metadata>
  <trk>
    <name><![CDATA[Dimanche 29 mars 2026]]></name>
    <extensions>
      <line xmlns="http://www.topografix.com/GPX/gpx_style/0/2">
        <width>7</width>
      </line>
    </extensions>
    <trkseg>
      <trkpt lat="43.38678" lon="-1.66335">
        <ele>1</ele>
        <time>2026-03-06T17:25:30.000Z</time>
      </trkpt>
      <trkpt lat="43.38677" lon="-1.66335">
        <ele>1</ele>
        <time>2026-03-06T17:25:30.000Z</time>
      </trkpt>
      <trkpt lat="43.38675" lon="-1.66335">
        <ele>4</ele>
        <time>2026-03-06T17:25:31.000Z</time>
      </trkpt>
      <trkpt lat="43.38674" lon="-1.66334">
        <ele>4</ele>
        <time>2026-03-06T17:25:31.000Z</time>
      </trkpt>
      <trkpt lat="43.38673" lon="-1.66333">
        <ele>4</ele>
        <time>2026-03-06T17:25:31.000Z</time>
      </trkpt>
      <trkpt lat="43.38672" lon="-1.66333">
        <ele>4</ele>
        <time>2026-03-06T17:25:31.000Z</time>
      </trkpt>
      <trkpt lat="43.38671" lon="-1.66332">
        <ele>4</ele>
        <time>2026-03-06T17:25:31.000Z</time>
      </trkpt>
      <trkpt lat="43.38671" lon="-1.6633">
        <ele>4</ele>
        <time>2026-03-06T17:25:32.000Z</time>
      </trkpt>
      <trkpt lat="43.38669" lon="-1.66328">
        <ele>4</ele>
        <time>2026-03-06T17:25:32.000Z</time>
      </trkpt>
      <trkpt lat="43.38669" lon="-1.66327">
        <ele>4</ele>
        <time>2026-03-06T17:25:32.000Z</time>
      </trkpt>
      <trkpt lat="43.38669" lon="-1.66326">
        <ele>4</ele>
        <time>2026-03-06T17:25:32.000Z</time>
      </trkpt>
      <trkpt lat="43.38668" lon="-1.66325">
        <ele>4</ele>
        <time>2026-03-06T17:25:33.000Z</time>
      </trkpt>
      <trkpt lat="43.38668" lon="-1.66324">
        <ele>1</ele>
        <time>2026-03-06T17:25:33.000Z</time>
      </trkpt>
      <trkpt lat="43.38668" lon="-1.66323">
        <ele>1</ele>
        <time>2026-03-06T17:25:33.000Z</time>
      </trkpt>
      <trkpt lat="43.38668" lon="-1.66322">
        <ele>1</ele>
        <time>2026-03-06T17:25:33.000Z</time>
      </trkpt>
      <trkpt lat="43.38668" lon="-1.66321">
        <ele>1</ele>
        <time>2026-03-06T17:25:33.000Z</time>
      </trkpt>
      <trkpt lat="43.38668" lon="-1.6632">
        <ele>1</ele>
        <time>2026-03-06T17:25:33.000Z</time>
      </trkpt>
      <trkpt lat="43.38668" lon="-1.66319">
        <ele>1</ele>
        <time>2026-03-06T17:25:33.000Z</time>
      </trkpt>
      <trkpt lat="43.38668" lon="-1.66318">
        <ele>1</ele>
        <time>2026-03-06T17:25:33.000Z</time>
      </trkpt>
      <trkpt lat="43.38668" lon="-1.66317">
        <ele>1</ele>
        <time>2026-03-06T17:25:34.000Z</time>
      </trkpt>
      <trkpt lat="43.38668" lon="-1.66316">
        <ele>1</ele>
        <time>2026-03-06T17:25:34.000Z</time>
      </trkpt>
      <trkpt lat="43.38668" lon="-1.66315">
        <ele>1</ele>
        <time>2026-03-06T17:25:34.000Z</time>
      </trkpt>
      <trkpt lat="43.38668" lon="-1.66314">
        <ele>1</ele>
        <time>2026-03-06T17:25:34.000Z</time>
      </trkpt>
      <trkpt lat="43.38669" lon="-1.66313">
        <ele>1</ele>
        <time>2026-03-06T17:25:34.000Z</time>
      </trkpt>
      <trkpt lat="43.38669" lon="-1.66312">
        <ele>1</ele>
        <time>2026-03-06T17:25:34.000Z</time>
      </trkpt>
      <trkpt lat="43.38669" lon="-1.66312">
        <ele>1</ele>
        <time>2026-03-06T17:25:34.000Z</time>
      </trkpt>
      <trkpt lat="43.38664" lon="-1.66311">
        <ele>1</ele>
        <time>2026-03-06T17:25:35.000Z</time>
      </trkpt>
      <trkpt lat="43.38657" lon="-1.66307">
        <ele>1</ele>
        <time>2026-03-06T17:25:37.000Z</time>
      </trkpt>
      <trkpt lat="43.38656" lon="-1.66307">
        <ele>1</ele>
        <time>2026-03-06T17:25:37.000Z</time>
      </trkpt>
      <trkpt lat="43.38656" lon="-1.66306">
        <ele>1</ele>
        <time>2026-03-06T17:25:37.000Z</time>
      </trkpt>
      <trkpt lat="43.38652" lon="-1.66295">
        <ele>2</ele>
        <time>2026-03-06T17:25:38.000Z</time>
      </trkpt>
      <trkpt lat="43.38641" lon="-1.66264">
        <ele>3</ele>
        <time>2026-03-06T17:25:43.000Z</time>
      </trkpt>
      <trkpt lat="43.38636" lon="-1.66239">
        <ele>4</ele>
        <time>2026-03-06T17:25:46.000Z</time>
      </trkpt>
      <trkpt lat="43.38636" lon="-1.66239">
        <ele>4</ele>
        <time>2026-03-06T17:25:46.000Z</time>
      </trkpt>
      <trkpt lat="43.38624" lon="-1.66231">
        <ele>4</ele>
        <time>2026-03-06T17:25:49.000Z</time>
      </trkpt>
      <trkpt lat="43.38621" lon="-1.66229">
        <ele>4</ele>
        <time>2026-03-06T17:25:49.000Z</time>
      </trkpt>
      <trkpt lat="43.38618" lon="-1.66227">
        <ele>4</ele>
        <time>2026-03-06T17:25:50.000Z</time>
      </trkpt>
      <trkpt lat="43.38615" lon="-1.66226">
        <ele>4</ele>
        <time>2026-03-06T17:25:50.000Z</time>
      </trkpt>
      <trkpt lat="43.38612" lon="-1.66225">
        <ele>4</ele>
        <time>2026-03-06T17:25:51.000Z</time>
      </trkpt>
      <trkpt lat="43.38608" lon="-1.66224">
        <ele>4</ele>
        <time>2026-03-06T17:25:52.000Z</time>
      </trkpt>
      <trkpt lat="43.38604" lon="-1.66224">
        <ele>4</ele>
        <time>2026-03-06T17:25:52.000Z</time>
      </trkpt>
      <trkpt lat="43.386" lon="-1.66224">
        <ele>4</ele>
        <time>2026-03-06T17:25:53.000Z</time>
      </trkpt>
      <trkpt lat="43.38597" lon="-1.66224">
        <ele>4</ele>
        <time>2026-03-06T17:25:54.000Z</time>
      </trkpt>
      <trkpt lat="43.38594" lon="-1.66224">
        <ele>4</ele>
        <time>2026-03-06T17:25:54.000Z</time>
      </trkpt>
      <trkpt lat="43.38589" lon="-1.66225">
        <ele>3</ele>
        <time>2026-03-06T17:25:55.000Z</time>
      </trkpt>
      <trkpt lat="43.38578" lon="-1.66226">
        <ele>3</ele>
        <time>2026-03-06T17:25:57.000Z</time>
      </trkpt>
      <trkpt lat="43.38578" lon="-1.66226">
        <ele>3</ele>
        <time>2026-03-06T17:25:57.000Z</time>
      </trkpt>
      <trkpt lat="43.38574" lon="-1.66231">
        <ele>3</ele>
        <time>2026-03-06T17:25:58.000Z</time>
      </trkpt>
      <trkpt lat="43.38572" lon="-1.66234">
        <ele>3</ele>
        <time>2026-03-06T17:25:59.000Z</time>
      </trkpt>
      <trkpt lat="43.3857" lon="-1.66237">
        <ele>3</ele>
        <time>2026-03-06T17:25:59.000Z</time>
      </trkpt>
      <trkpt lat="43.38568" lon="-1.6624">
        <ele>3</ele>
        <time>2026-03-06T17:26:00.000Z</time>
      </trkpt>
      <trkpt lat="43.38564" lon="-1.66246">
        <ele>3</ele>
        <time>2026-03-06T17:26:01.000Z</time>
      </trkpt>
      <trkpt lat="43.3856" lon="-1.66253">
        <ele>3</ele>
        <time>2026-03-06T17:26:02.000Z</time>
      </trkpt>
      <trkpt lat="43.38556" lon="-1.66259">
        <ele>3</ele>
        <time>2026-03-06T17:26:03.000Z</time>
      </trkpt>
      <trkpt lat="43.38554" lon="-1.66263">
        <ele>3</ele>
        <time>2026-03-06T17:26:03.000Z</time>
      </trkpt>
      <trkpt lat="43.38553" lon="-1.66264">
        <ele>3</ele>
        <time>2026-03-06T17:26:04.000Z</time>
      </trkpt>
      <trkpt lat="43.38551" lon="-1.66269">
        <ele>3</ele>
        <time>2026-03-06T17:26:04.000Z</time>
      </trkpt>
      <trkpt lat="43.38549" lon="-1.66275">
        <ele>3</ele>
        <time>2026-03-06T17:26:05.000Z</time>
      </trkpt>
      <trkpt lat="43.38524" lon="-1.66336">
        <ele>2</ele>
        <time>2026-03-06T17:26:14.000Z</time>
      </trkpt>
      <trkpt lat="43.38522" lon="-1.6634">
        <ele>2</ele>
        <time>2026-03-06T17:26:15.000Z</time>
      </trkpt>
      <trkpt lat="43.38515" lon="-1.66356">
        <ele>3</ele>
        <time>2026-03-06T17:26:17.000Z</time>
      </trkpt>
      <trkpt lat="43.3851" lon="-1.6637">
        <ele>3</ele>
        <time>2026-03-06T17:26:19.000Z</time>
      </trkpt>
      <trkpt lat="43.38507" lon="-1.66376">
        <ele>4</ele>
        <time>2026-03-06T17:26:20.000Z</time>
      </trkpt>
      <trkpt lat="43.38504" lon="-1.66385">
        <ele>4</ele>
        <time>2026-03-06T17:26:22.000Z</time>
      </trkpt>
      <trkpt lat="43.38504" lon="-1.66385">
        <ele>4</ele>
        <time>2026-03-06T17:26:22.000Z</time>
      </trkpt>
      <trkpt lat="43.38499" lon="-1.66408">
        <ele>5</ele>
        <time>2026-03-06T17:26:25.000Z</time>
      </trkpt>
      <trkpt lat="43.38498" lon="-1.66412">
        <ele>5</ele>
        <time>2026-03-06T17:26:25.000Z</time>
      </trkpt>
      <trkpt lat="43.38497" lon="-1.66415">
        <ele>5</ele>
        <time>2026-03-06T17:26:26.000Z</time>
      </trkpt>
      <trkpt lat="43.38489" lon="-1.66433">
        <ele>5</ele>
        <time>2026-03-06T17:26:28.000Z</time>
      </trkpt>
      <trkpt lat="43.38486" lon="-1.6644">
        <ele>5</ele>
        <time>2026-03-06T17:26:29.000Z</time>
      </trkpt>
      <trkpt lat="43.38474" lon="-1.66468">
        <ele>6</ele>
        <time>2026-03-06T17:26:34.000Z</time>
      </trkpt>
      <trkpt lat="43.38456" lon="-1.6651">
        <ele>5</ele>
        <time>2026-03-06T17:26:40.000Z</time>
      </trkpt>
      <trkpt lat="43.38447" lon="-1.6653">
        <ele>5</ele>
        <time>2026-03-06T17:26:43.000Z</time>
      </trkpt>
      <trkpt lat="43.38439" lon="-1.66547">
        <ele>5</ele>
        <time>2026-03-06T17:26:46.000Z</time>
      </trkpt>
      <trkpt lat="43.38438" lon="-1.6655">
        <ele>5</ele>
        <time>2026-03-06T17:26:46.000Z</time>
      </trkpt>
      <trkpt lat="43.38438" lon="-1.66553">
        <ele>4</ele>
        <time>2026-03-06T17:26:46.000Z</time>
      </trkpt>
      <trkpt lat="43.38437" lon="-1.66556">
        <ele>4</ele>
        <time>2026-03-06T17:26:47.000Z</time>
      </trkpt>
      <trkpt lat="43.38437" lon="-1.66559">
        <ele>4</ele>
        <time>2026-03-06T17:26:47.000Z</time>
      </trkpt>
      <trkpt lat="43.38437" lon="-1.66562">
        <ele>4</ele>
        <time>2026-03-06T17:26:48.000Z</time>
      </trkpt>
      <trkpt lat="43.38437" lon="-1.66565">
        <ele>4</ele>
        <time>2026-03-06T17:26:48.000Z</time>
      </trkpt>
      <trkpt lat="43.38437" lon="-1.66569">
        <ele>4</ele>
        <time>2026-03-06T17:26:49.000Z</time>
      </trkpt>
      <trkpt lat="43.38438" lon="-1.66573">
        <ele>4</ele>
        <time>2026-03-06T17:26:49.000Z</time>
      </trkpt>
      <trkpt lat="43.38438" lon="-1.66577">
        <ele>4</ele>
        <time>2026-03-06T17:26:50.000Z</time>
      </trkpt>
      <trkpt lat="43.38439" lon="-1.66581">
        <ele>4</ele>
        <time>2026-03-06T17:26:50.000Z</time>
      </trkpt>
      <trkpt lat="43.3844" lon="-1.66585">
        <ele>4</ele>
        <time>2026-03-06T17:26:51.000Z</time>
      </trkpt>
      <trkpt lat="43.38442" lon="-1.66589">
        <ele>4</ele>
        <time>2026-03-06T17:26:51.000Z</time>
      </trkpt>
      <trkpt lat="43.38443" lon="-1.66592">
        <ele>4</ele>
        <time>2026-03-06T17:26:52.000Z</time>
      </trkpt>
      <trkpt lat="43.38445" lon="-1.66597">
        <ele>4</ele>
        <time>2026-03-06T17:26:53.000Z</time>
      </trkpt>
      <trkpt lat="43.38448" lon="-1.66603">
        <ele>4</ele>
        <time>2026-03-06T17:26:53.000Z</time>
      </trkpt>
      <trkpt lat="43.38451" lon="-1.66609">
        <ele>4</ele>
        <time>2026-03-06T17:26:54.000Z</time>
      </trkpt>
      <trkpt lat="43.38456" lon="-1.66619">
        <ele>4</ele>
        <time>2026-03-06T17:26:56.000Z</time>
      </trkpt>
      <trkpt lat="43.38456" lon="-1.66619">
        <ele>4</ele>
        <time>2026-03-06T17:26:56.000Z</time>
      </trkpt>
      <trkpt lat="43.38457" lon="-1.66619">
        <ele>4</ele>
        <time>2026-03-06T17:26:56.000Z</time>
      </trkpt>
      <trkpt lat="43.38458" lon="-1.66619">
        <ele>4</ele>
        <time>2026-03-06T17:26:56.000Z</time>
      </trkpt>
      <trkpt lat="43.38459" lon="-1.66619">
        <ele>4</ele>
        <time>2026-03-06T17:26:57.000Z</time>
      </trkpt>
      <trkpt lat="43.3846" lon="-1.66619">
        <ele>4</ele>
        <time>2026-03-06T17:26:57.000Z</time>
      </trkpt>
      <trkpt lat="43.38461" lon="-1.6662">
        <ele>4</ele>
        <time>2026-03-06T17:26:57.000Z</time>
      </trkpt>
      <trkpt lat="43.38462" lon="-1.6662">
        <ele>4</ele>
        <time>2026-03-06T17:26:57.000Z</time>
      </trkpt>
      <trkpt lat="43.38462" lon="-1.66621">
        <ele>4</ele>
        <time>2026-03-06T17:26:57.000Z</time>
      </trkpt>
      <trkpt lat="43.38463" lon="-1.66621">
        <ele>4</ele>
        <time>2026-03-06T17:26:57.000Z</time>
      </trkpt>
      <trkpt lat="43.38463" lon="-1.66622">
        <ele>4</ele>
        <time>2026-03-06T17:26:58.000Z</time>
      </trkpt>
      <trkpt lat="43.38464" lon="-1.66622">
        <ele>4</ele>
        <time>2026-03-06T17:26:58.000Z</time>
      </trkpt>
      <trkpt lat="43.38464" lon="-1.66623">
        <ele>4</ele>
        <time>2026-03-06T17:26:58.000Z</time>
      </trkpt>
      <trkpt lat="43.38465" lon="-1.66624">
        <ele>4</ele>
        <time>2026-03-06T17:26:58.000Z</time>
      </trkpt>
      <trkpt lat="43.38465" lon="-1.66625">
        <ele>4</ele>
        <time>2026-03-06T17:26:58.000Z</time>
      </trkpt>
      <trkpt lat="43.38465" lon="-1.66627">
        <ele>4</ele>
        <time>2026-03-06T17:26:58.000Z</time>
      </trkpt>
      <trkpt lat="43.38466" lon="-1.66629">
        <ele>4</ele>
        <time>2026-03-06T17:26:59.000Z</time>
      </trkpt>
      <trkpt lat="43.38466" lon="-1.66631">
        <ele>4</ele>
        <time>2026-03-06T17:26:59.000Z</time>
      </trkpt>
      <trkpt lat="43.38465" lon="-1.66634">
        <ele>4</ele>
        <time>2026-03-06T17:26:59.000Z</time>
      </trkpt>
      <trkpt lat="43.38465" lon="-1.66637">
        <ele>4</ele>
        <time>2026-03-06T17:27:00.000Z</time>
      </trkpt>
      <trkpt lat="43.38465" lon="-1.66638">
        <ele>4</ele>
        <time>2026-03-06T17:27:00.000Z</time>
      </trkpt>
      <trkpt lat="43.38464" lon="-1.6664">
        <ele>4</ele>
        <time>2026-03-06T17:27:00.000Z</time>
      </trkpt>
      <trkpt lat="43.38464" lon="-1.66641">
        <ele>4</ele>
        <time>2026-03-06T17:27:00.000Z</time>
      </trkpt>
      <trkpt lat="43.38463" lon="-1.66643">
        <ele>4</ele>
        <time>2026-03-06T17:27:01.000Z</time>
      </trkpt>
      <trkpt lat="43.38469" lon="-1.66661">
        <ele>4</ele>
        <time>2026-03-06T17:27:03.000Z</time>
      </trkpt>
      <trkpt lat="43.38472" lon="-1.66669">
        <ele>4</ele>
        <time>2026-03-06T17:27:04.000Z</time>
      </trkpt>
      <trkpt lat="43.38474" lon="-1.66674">
        <ele>4</ele>
        <time>2026-03-06T17:27:05.000Z</time>
      </trkpt>
      <trkpt lat="43.38477" lon="-1.66681">
        <ele>5</ele>
        <time>2026-03-06T17:27:06.000Z</time>
      </trkpt>
      <trkpt lat="43.38482" lon="-1.6669">
        <ele>5</ele>
        <time>2026-03-06T17:27:08.000Z</time>
      </trkpt>
      <trkpt lat="43.38487" lon="-1.66696">
        <ele>5</ele>
        <time>2026-03-06T17:27:09.000Z</time>
      </trkpt>
      <trkpt lat="43.38493" lon="-1.66703">
        <ele>5</ele>
        <time>2026-03-06T17:27:10.000Z</time>
      </trkpt>
      <trkpt lat="43.38509" lon="-1.66716">
        <ele>5</ele>
        <time>2026-03-06T17:27:14.000Z</time>
      </trkpt>
      <trkpt lat="43.38528" lon="-1.66727">
        <ele>5</ele>
        <time>2026-03-06T17:27:17.000Z</time>
      </trkpt>
      <trkpt lat="43.38536" lon="-1.66733">
        <ele>5</ele>
        <time>2026-03-06T17:27:19.000Z</time>
      </trkpt>
      <trkpt lat="43.38543" lon="-1.66739">
        <ele>5</ele>
        <time>2026-03-06T17:27:20.000Z</time>
      </trkpt>
      <trkpt lat="43.38549" lon="-1.66743">
        <ele>5</ele>
        <time>2026-03-06T17:27:22.000Z</time>
      </trkpt>
      <trkpt lat="43.38562" lon="-1.66753">
        <ele>5</ele>
        <time>2026-03-06T17:27:24.000Z</time>
      </trkpt>
      <trkpt lat="43.38574" lon="-1.66764">
        <ele>6</ele>
        <time>2026-03-06T17:27:27.000Z</time>
      </trkpt>
      <trkpt lat="43.38585" lon="-1.66775">
        <ele>6</ele>
        <time>2026-03-06T17:27:29.000Z</time>
      </trkpt>
      <trkpt lat="43.38587" lon="-1.66776">
        <ele>6</ele>
        <time>2026-03-06T17:27:30.000Z</time>
      </trkpt>
      <trkpt lat="43.38588" lon="-1.66777">
        <ele>6</ele>
        <time>2026-03-06T17:27:30.000Z</time>
      </trkpt>
      <trkpt lat="43.38591" lon="-1.66781">
        <ele>6</ele>
        <time>2026-03-06T17:27:30.000Z</time>
      </trkpt>
      <trkpt lat="43.38598" lon="-1.66789">
        <ele>6</ele>
        <time>2026-03-06T17:27:32.000Z</time>
      </trkpt>
      <trkpt lat="43.38615" lon="-1.6681">
        <ele>7</ele>
        <time>2026-03-06T17:27:36.000Z</time>
      </trkpt>
      <trkpt lat="43.38618" lon="-1.66814">
        <ele>7</ele>
        <time>2026-03-06T17:27:37.000Z</time>
      </trkpt>
      <trkpt lat="43.38637" lon="-1.66839">
        <ele>7</ele>
        <time>2026-03-06T17:27:42.000Z</time>
      </trkpt>
      <trkpt lat="43.38657" lon="-1.66864">
        <ele>7</ele>
        <time>2026-03-06T17:27:46.000Z</time>
      </trkpt>
      <trkpt lat="43.38668" lon="-1.66878">
        <ele>7</ele>
        <time>2026-03-06T17:27:49.000Z</time>
      </trkpt>
      <trkpt lat="43.38684" lon="-1.66898">
        <ele>7</ele>
        <time>2026-03-06T17:27:53.000Z</time>
      </trkpt>
      <trkpt lat="43.38696" lon="-1.66912">
        <ele>6</ele>
        <time>2026-03-06T17:27:56.000Z</time>
      </trkpt>
      <trkpt lat="43.38706" lon="-1.66923">
        <ele>6</ele>
        <time>2026-03-06T17:27:58.000Z</time>
      </trkpt>
      <trkpt lat="43.38725" lon="-1.66946">
        <ele>6</ele>
        <time>2026-03-06T17:28:02.000Z</time>
      </trkpt>
      <trkpt lat="43.38736" lon="-1.66963">
        <ele>6</ele>
        <time>2026-03-06T17:28:05.000Z</time>
      </trkpt>
      <trkpt lat="43.38744" lon="-1.6698">
        <ele>6</ele>
        <time>2026-03-06T17:28:08.000Z</time>
      </trkpt>
      <trkpt lat="43.3876" lon="-1.67015">
        <ele>6</ele>
        <time>2026-03-06T17:28:13.000Z</time>
      </trkpt>
      <trkpt lat="43.38762" lon="-1.6702">
        <ele>7</ele>
        <time>2026-03-06T17:28:14.000Z</time>
      </trkpt>
      <trkpt lat="43.38765" lon="-1.6703">
        <ele>7</ele>
        <time>2026-03-06T17:28:16.000Z</time>
      </trkpt>
      <trkpt lat="43.38769" lon="-1.67041">
        <ele>8</ele>
        <time>2026-03-06T17:28:17.000Z</time>
      </trkpt>
      <trkpt lat="43.3877" lon="-1.67044">
        <ele>8</ele>
        <time>2026-03-06T17:28:18.000Z</time>
      </trkpt>
      <trkpt lat="43.38776" lon="-1.67058">
        <ele>8</ele>
        <time>2026-03-06T17:28:20.000Z</time>
      </trkpt>
      <trkpt lat="43.38797" lon="-1.67087">
        <ele>8</ele>
        <time>2026-03-06T17:28:25.000Z</time>
      </trkpt>
      <trkpt lat="43.38798" lon="-1.67089">
        <ele>8</ele>
        <time>2026-03-06T17:28:25.000Z</time>
      </trkpt>
      <trkpt lat="43.3881" lon="-1.67108">
        <ele>8</ele>
        <time>2026-03-06T17:28:29.000Z</time>
      </trkpt>
      <trkpt lat="43.38815" lon="-1.67117">
        <ele>8</ele>
        <time>2026-03-06T17:28:30.000Z</time>
      </trkpt>
      <trkpt lat="43.38825" lon="-1.67144">
        <ele>9</ele>
        <time>2026-03-06T17:28:34.000Z</time>
      </trkpt>
      <trkpt lat="43.38829" lon="-1.67156">
        <ele>9</ele>
        <time>2026-03-06T17:28:36.000Z</time>
      </trkpt>
      <trkpt lat="43.38831" lon="-1.6716">
        <ele>9</ele>
        <time>2026-03-06T17:28:36.000Z</time>
      </trkpt>
      <trkpt lat="43.38831" lon="-1.67161">
        <ele>9</ele>
        <time>2026-03-06T17:28:36.000Z</time>
      </trkpt>
      <trkpt lat="43.38832" lon="-1.67164">
        <ele>9</ele>
        <time>2026-03-06T17:28:37.000Z</time>
      </trkpt>
      <trkpt lat="43.38834" lon="-1.67169">
        <ele>9</ele>
        <time>2026-03-06T17:28:38.000Z</time>
      </trkpt>
      <trkpt lat="43.38838" lon="-1.67181">
        <ele>9</ele>
        <time>2026-03-06T17:28:39.000Z</time>
      </trkpt>
      <trkpt lat="43.38844" lon="-1.67201">
        <ele>10</ele>
        <time>2026-03-06T17:28:42.000Z</time>
      </trkpt>
      <trkpt lat="43.38848" lon="-1.6722">
        <ele>10</ele>
        <time>2026-03-06T17:28:45.000Z</time>
      </trkpt>
      <trkpt lat="43.38849" lon="-1.67226">
        <ele>10</ele>
        <time>2026-03-06T17:28:45.000Z</time>
      </trkpt>
      <trkpt lat="43.3885" lon="-1.67234">
        <ele>10</ele>
        <time>2026-03-06T17:28:46.000Z</time>
      </trkpt>
      <trkpt lat="43.38849" lon="-1.67238">
        <ele>11</ele>
        <time>2026-03-06T17:28:47.000Z</time>
      </trkpt>
      <trkpt lat="43.38849" lon="-1.67247">
        <ele>11</ele>
        <time>2026-03-06T17:28:48.000Z</time>
      </trkpt>
      <trkpt lat="43.38848" lon="-1.67252">
        <ele>11</ele>
        <time>2026-03-06T17:28:49.000Z</time>
      </trkpt>
      <trkpt lat="43.38847" lon="-1.67255">
        <ele>12</ele>
        <time>2026-03-06T17:28:49.000Z</time>
      </trkpt>
      <trkpt lat="43.38847" lon="-1.67263">
        <ele>11</ele>
        <time>2026-03-06T17:28:50.000Z</time>
      </trkpt>
      <trkpt lat="43.38845" lon="-1.67268">
        <ele>12</ele>
        <time>2026-03-06T17:28:51.000Z</time>
      </trkpt>
      <trkpt lat="43.38845" lon="-1.67269">
        <ele>12</ele>
        <time>2026-03-06T17:28:51.000Z</time>
      </trkpt>
      <trkpt lat="43.38843" lon="-1.67273">
        <ele>12</ele>
        <time>2026-03-06T17:28:52.000Z</time>
      </trkpt>
      <trkpt lat="43.38842" lon="-1.67275">
        <ele>12</ele>
        <time>2026-03-06T17:28:52.000Z</time>
      </trkpt>
      <trkpt lat="43.3884" lon="-1.6728">
        <ele>12</ele>
        <time>2026-03-06T17:28:53.000Z</time>
      </trkpt>
      <trkpt lat="43.38825" lon="-1.6731">
        <ele>15</ele>
        <time>2026-03-06T17:28:58.000Z</time>
      </trkpt>
      <trkpt lat="43.38823" lon="-1.67315">
        <ele>15</ele>
        <time>2026-03-06T17:28:58.000Z</time>
      </trkpt>
      <trkpt lat="43.38818" lon="-1.67327">
        <ele>17</ele>
        <time>2026-03-06T17:29:00.000Z</time>
      </trkpt>
      <trkpt lat="43.38815" lon="-1.67335">
        <ele>18</ele>
        <time>2026-03-06T17:29:01.000Z</time>
      </trkpt>
      <trkpt lat="43.38813" lon="-1.67346">
        <ele>18</ele>
        <time>2026-03-06T17:29:03.000Z</time>
      </trkpt>
      <trkpt lat="43.38813" lon="-1.67357">
        <ele>18</ele>
        <time>2026-03-06T17:29:04.000Z</time>
      </trkpt>
      <trkpt lat="43.38813" lon="-1.67373">
        <ele>18</ele>
        <time>2026-03-06T17:29:06.000Z</time>
      </trkpt>
      <trkpt lat="43.38812" lon="-1.67423">
        <ele>18</ele>
        <time>2026-03-06T17:29:13.000Z</time>
      </trkpt>
      <trkpt lat="43.38812" lon="-1.67429">
        <ele>18</ele>
        <time>2026-03-06T17:29:13.000Z</time>
      </trkpt>
      <trkpt lat="43.38812" lon="-1.67505">
        <ele>16</ele>
        <time>2026-03-06T17:29:23.000Z</time>
      </trkpt>
      <trkpt lat="43.38815" lon="-1.67515">
        <ele>14</ele>
        <time>2026-03-06T17:29:25.000Z</time>
      </trkpt>
      <trkpt lat="43.38814" lon="-1.6756">
        <ele>14</ele>
        <time>2026-03-06T17:29:30.000Z</time>
      </trkpt>
      <trkpt lat="43.38814" lon="-1.67565">
        <ele>14</ele>
        <time>2026-03-06T17:29:31.000Z</time>
      </trkpt>
      <trkpt lat="43.38814" lon="-1.67586">
        <ele>14</ele>
        <time>2026-03-06T17:29:34.000Z</time>
      </trkpt>
      <trkpt lat="43.38813" lon="-1.67641">
        <ele>13</ele>
        <time>2026-03-06T17:29:41.000Z</time>
      </trkpt>
      <trkpt lat="43.38813" lon="-1.67643">
        <ele>13</ele>
        <time>2026-03-06T17:29:41.000Z</time>
      </trkpt>
      <trkpt lat="43.38813" lon="-1.67661">
        <ele>12</ele>
        <time>2026-03-06T17:29:44.000Z</time>
      </trkpt>
      <trkpt lat="43.38813" lon="-1.67664">
        <ele>12</ele>
        <time>2026-03-06T17:29:44.000Z</time>
      </trkpt>
      <trkpt lat="43.38812" lon="-1.67681">
        <ele>13</ele>
        <time>2026-03-06T17:29:46.000Z</time>
      </trkpt>
      <trkpt lat="43.3881" lon="-1.67734">
        <ele>15</ele>
        <time>2026-03-06T17:29:53.000Z</time>
      </trkpt>
      <trkpt lat="43.38812" lon="-1.67758">
        <ele>15</ele>
        <time>2026-03-06T17:29:56.000Z</time>
      </trkpt>
      <trkpt lat="43.38813" lon="-1.67778">
        <ele>16</ele>
        <time>2026-03-06T17:29:59.000Z</time>
      </trkpt>
      <trkpt lat="43.38817" lon="-1.67799">
        <ele>15</ele>
        <time>2026-03-06T17:30:02.000Z</time>
      </trkpt>
      <trkpt lat="43.38824" lon="-1.6783">
        <ele>14</ele>
        <time>2026-03-06T17:30:06.000Z</time>
      </trkpt>
      <trkpt lat="43.3883" lon="-1.67847">
        <ele>12</ele>
        <time>2026-03-06T17:30:08.000Z</time>
      </trkpt>
      <trkpt lat="43.38834" lon="-1.67859">
        <ele>11</ele>
        <time>2026-03-06T17:30:10.000Z</time>
      </trkpt>
      <trkpt lat="43.38841" lon="-1.6788">
        <ele>10</ele>
        <time>2026-03-06T17:30:13.000Z</time>
      </trkpt>
      <trkpt lat="43.38843" lon="-1.67888">
        <ele>9</ele>
        <time>2026-03-06T17:30:14.000Z</time>
      </trkpt>
      <trkpt lat="43.38848" lon="-1.6791">
        <ele>8</ele>
        <time>2026-03-06T17:30:17.000Z</time>
      </trkpt>
      <trkpt lat="43.3885" lon="-1.67929">
        <ele>8</ele>
        <time>2026-03-06T17:30:19.000Z</time>
      </trkpt>
      <trkpt lat="43.3885" lon="-1.67936">
        <ele>9</ele>
        <time>2026-03-06T17:30:20.000Z</time>
      </trkpt>
      <trkpt lat="43.38855" lon="-1.67953">
        <ele>8</ele>
        <time>2026-03-06T17:30:23.000Z</time>
      </trkpt>
      <trkpt lat="43.38858" lon="-1.67963">
        <ele>8</ele>
        <time>2026-03-06T17:30:24.000Z</time>
      </trkpt>
      <trkpt lat="43.38873" lon="-1.67988">
        <ele>7</ele>
        <time>2026-03-06T17:30:28.000Z</time>
      </trkpt>
      <trkpt lat="43.38881" lon="-1.68002">
        <ele>6</ele>
        <time>2026-03-06T17:30:31.000Z</time>
      </trkpt>
      <trkpt lat="43.38887" lon="-1.68014">
        <ele>5</ele>
        <time>2026-03-06T17:30:32.000Z</time>
      </trkpt>
      <trkpt lat="43.38892" lon="-1.6803">
        <ele>6</ele>
        <time>2026-03-06T17:30:35.000Z</time>
      </trkpt>
      <trkpt lat="43.38901" lon="-1.68061">
        <ele>6</ele>
        <time>2026-03-06T17:30:39.000Z</time>
      </trkpt>
      <trkpt lat="43.38917" lon="-1.6812">
        <ele>5</ele>
        <time>2026-03-06T17:30:47.000Z</time>
      </trkpt>
      <trkpt lat="43.38921" lon="-1.68135">
        <ele>6</ele>
        <time>2026-03-06T17:30:49.000Z</time>
      </trkpt>
      <trkpt lat="43.38936" lon="-1.68198">
        <ele>6</ele>
        <time>2026-03-06T17:30:58.000Z</time>
      </trkpt>
      <trkpt lat="43.38951" lon="-1.68256">
        <ele>6</ele>
        <time>2026-03-06T17:31:06.000Z</time>
      </trkpt>
      <trkpt lat="43.38958" lon="-1.6828">
        <ele>6</ele>
        <time>2026-03-06T17:31:09.000Z</time>
      </trkpt>
      <trkpt lat="43.38967" lon="-1.68315">
        <ele>7</ele>
        <time>2026-03-06T17:31:14.000Z</time>
      </trkpt>
      <trkpt lat="43.38978" lon="-1.68361">
        <ele>6</ele>
        <time>2026-03-06T17:31:20.000Z</time>
      </trkpt>
      <trkpt lat="43.38979" lon="-1.68368">
        <ele>6</ele>
        <time>2026-03-06T17:31:21.000Z</time>
      </trkpt>
      <trkpt lat="43.38984" lon="-1.68389">
        <ele>6</ele>
        <time>2026-03-06T17:31:24.000Z</time>
      </trkpt>
      <trkpt lat="43.38987" lon="-1.68412">
        <ele>6</ele>
        <time>2026-03-06T17:31:27.000Z</time>
      </trkpt>
      <trkpt lat="43.38987" lon="-1.68417">
        <ele>6</ele>
        <time>2026-03-06T17:31:28.000Z</time>
      </trkpt>
      <trkpt lat="43.3899" lon="-1.6845">
        <ele>5</ele>
        <time>2026-03-06T17:31:32.000Z</time>
      </trkpt>
      <trkpt lat="43.3899" lon="-1.68455">
        <ele>5</ele>
        <time>2026-03-06T17:31:33.000Z</time>
      </trkpt>
      <trkpt lat="43.38992" lon="-1.68471">
        <ele>5</ele>
        <time>2026-03-06T17:31:35.000Z</time>
      </trkpt>
      <trkpt lat="43.38994" lon="-1.68496">
        <ele>5</ele>
        <time>2026-03-06T17:31:38.000Z</time>
      </trkpt>
      <trkpt lat="43.38996" lon="-1.68509">
        <ele>5</ele>
        <time>2026-03-06T17:31:40.000Z</time>
      </trkpt>
      <trkpt lat="43.38997" lon="-1.68514">
        <ele>5</ele>
        <time>2026-03-06T17:31:40.000Z</time>
      </trkpt>
      <trkpt lat="43.38997" lon="-1.68518">
        <ele>5</ele>
        <time>2026-03-06T17:31:41.000Z</time>
      </trkpt>
      <trkpt lat="43.38999" lon="-1.68525">
        <ele>4</ele>
        <time>2026-03-06T17:31:42.000Z</time>
      </trkpt>
      <trkpt lat="43.39" lon="-1.6853">
        <ele>4</ele>
        <time>2026-03-06T17:31:42.000Z</time>
      </trkpt>
      <trkpt lat="43.39001" lon="-1.68536">
        <ele>4</ele>
        <time>2026-03-06T17:31:43.000Z</time>
      </trkpt>
      <trkpt lat="43.39003" lon="-1.6854">
        <ele>4</ele>
        <time>2026-03-06T17:31:44.000Z</time>
      </trkpt>
      <trkpt lat="43.39006" lon="-1.68545">
        <ele>4</ele>
        <time>2026-03-06T17:31:45.000Z</time>
      </trkpt>
      <trkpt lat="43.39008" lon="-1.68551">
        <ele>4</ele>
        <time>2026-03-06T17:31:46.000Z</time>
      </trkpt>
      <trkpt lat="43.39009" lon="-1.68551">
        <ele>4</ele>
        <time>2026-03-06T17:31:46.000Z</time>
      </trkpt>
      <trkpt lat="43.3901" lon="-1.68553">
        <ele>4</ele>
        <time>2026-03-06T17:31:46.000Z</time>
      </trkpt>
      <trkpt lat="43.39014" lon="-1.68558">
        <ele>4</ele>
        <time>2026-03-06T17:31:47.000Z</time>
      </trkpt>
      <trkpt lat="43.39022" lon="-1.68566">
        <ele>4</ele>
        <time>2026-03-06T17:31:49.000Z</time>
      </trkpt>
      <trkpt lat="43.39032" lon="-1.68574">
        <ele>4</ele>
        <time>2026-03-06T17:31:51.000Z</time>
      </trkpt>
      <trkpt lat="43.39047" lon="-1.68583">
        <ele>5</ele>
        <time>2026-03-06T17:31:54.000Z</time>
      </trkpt>
      <trkpt lat="43.39056" lon="-1.68587">
        <ele>5</ele>
        <time>2026-03-06T17:31:55.000Z</time>
      </trkpt>
      <trkpt lat="43.39065" lon="-1.6859">
        <ele>5</ele>
        <time>2026-03-06T17:31:57.000Z</time>
      </trkpt>
      <trkpt lat="43.39071" lon="-1.68593">
        <ele>5</ele>
        <time>2026-03-06T17:31:58.000Z</time>
      </trkpt>
      <trkpt lat="43.39075" lon="-1.68598">
        <ele>5</ele>
        <time>2026-03-06T17:31:59.000Z</time>
      </trkpt>
      <trkpt lat="43.391" lon="-1.68602">
        <ele>6</ele>
        <time>2026-03-06T17:32:04.000Z</time>
      </trkpt>
      <trkpt lat="43.39129" lon="-1.68606">
        <ele>6</ele>
        <time>2026-03-06T17:32:09.000Z</time>
      </trkpt>
      <trkpt lat="43.39133" lon="-1.68606">
        <ele>6</ele>
        <time>2026-03-06T17:32:10.000Z</time>
      </trkpt>
      <trkpt lat="43.39148" lon="-1.68608">
        <ele>7</ele>
        <time>2026-03-06T17:32:12.000Z</time>
      </trkpt>
      <trkpt lat="43.39159" lon="-1.68609">
        <ele>7</ele>
        <time>2026-03-06T17:32:14.000Z</time>
      </trkpt>
      <trkpt lat="43.39164" lon="-1.6861">
        <ele>7</ele>
        <time>2026-03-06T17:32:15.000Z</time>
      </trkpt>
      <trkpt lat="43.39177" lon="-1.68611">
        <ele>8</ele>
        <time>2026-03-06T17:32:17.000Z</time>
      </trkpt>
      <trkpt lat="43.39178" lon="-1.68612">
        <ele>8</ele>
        <time>2026-03-06T17:32:18.000Z</time>
      </trkpt>
      <trkpt lat="43.39189" lon="-1.68614">
        <ele>8</ele>
        <time>2026-03-06T17:32:20.000Z</time>
      </trkpt>
      <trkpt lat="43.39198" lon="-1.68617">
        <ele>9</ele>
        <time>2026-03-06T17:32:21.000Z</time>
      </trkpt>
      <trkpt lat="43.39207" lon="-1.68622">
        <ele>9</ele>
        <time>2026-03-06T17:32:23.000Z</time>
      </trkpt>
      <trkpt lat="43.39216" lon="-1.68628">
        <ele>10</ele>
        <time>2026-03-06T17:32:25.000Z</time>
      </trkpt>
      <trkpt lat="43.39224" lon="-1.68635">
        <ele>10</ele>
        <time>2026-03-06T17:32:26.000Z</time>
      </trkpt>
      <trkpt lat="43.39232" lon="-1.68643">
        <ele>10</ele>
        <time>2026-03-06T17:32:28.000Z</time>
      </trkpt>
      <trkpt lat="43.3924" lon="-1.68654">
        <ele>11</ele>
        <time>2026-03-06T17:32:30.000Z</time>
      </trkpt>
      <trkpt lat="43.39255" lon="-1.68677">
        <ele>12</ele>
        <time>2026-03-06T17:32:34.000Z</time>
      </trkpt>
      <trkpt lat="43.39264" lon="-1.68688">
        <ele>13</ele>
        <time>2026-03-06T17:32:36.000Z</time>
      </trkpt>
      <trkpt lat="43.39271" lon="-1.68695">
        <ele>13</ele>
        <time>2026-03-06T17:32:38.000Z</time>
      </trkpt>
      <trkpt lat="43.3928" lon="-1.68703">
        <ele>14</ele>
        <time>2026-03-06T17:32:40.000Z</time>
      </trkpt>
      <trkpt lat="43.39302" lon="-1.68717">
        <ele>14</ele>
        <time>2026-03-06T17:32:44.000Z</time>
      </trkpt>
      <trkpt lat="43.39329" lon="-1.68732">
        <ele>15</ele>
        <time>2026-03-06T17:32:49.000Z</time>
      </trkpt>
      <trkpt lat="43.3935" lon="-1.68744">
        <ele>15</ele>
        <time>2026-03-06T17:32:53.000Z</time>
      </trkpt>
      <trkpt lat="43.39364" lon="-1.68752">
        <ele>16</ele>
        <time>2026-03-06T17:32:56.000Z</time>
      </trkpt>
      <trkpt lat="43.39365" lon="-1.68753">
        <ele>16</ele>
        <time>2026-03-06T17:32:56.000Z</time>
      </trkpt>
      <trkpt lat="43.39374" lon="-1.68761">
        <ele>16</ele>
        <time>2026-03-06T17:32:58.000Z</time>
      </trkpt>
      <trkpt lat="43.39384" lon="-1.6877">
        <ele>16</ele>
        <time>2026-03-06T17:33:00.000Z</time>
      </trkpt>
      <trkpt lat="43.39393" lon="-1.6878">
        <ele>16</ele>
        <time>2026-03-06T17:33:02.000Z</time>
      </trkpt>
      <trkpt lat="43.394" lon="-1.6879">
        <ele>16</ele>
        <time>2026-03-06T17:33:04.000Z</time>
      </trkpt>
      <trkpt lat="43.39406" lon="-1.688">
        <ele>16</ele>
        <time>2026-03-06T17:33:06.000Z</time>
      </trkpt>
      <trkpt lat="43.39413" lon="-1.68812">
        <ele>15</ele>
        <time>2026-03-06T17:33:08.000Z</time>
      </trkpt>
      <trkpt lat="43.39419" lon="-1.68826">
        <ele>14</ele>
        <time>2026-03-06T17:33:10.000Z</time>
      </trkpt>
      <trkpt lat="43.39424" lon="-1.6884">
        <ele>13</ele>
        <time>2026-03-06T17:33:12.000Z</time>
      </trkpt>
      <trkpt lat="43.39425" lon="-1.68841">
        <ele>13</ele>
        <time>2026-03-06T17:33:12.000Z</time>
      </trkpt>
      <trkpt lat="43.39428" lon="-1.68852">
        <ele>12</ele>
        <time>2026-03-06T17:33:14.000Z</time>
      </trkpt>
      <trkpt lat="43.3943" lon="-1.68861">
        <ele>12</ele>
        <time>2026-03-06T17:33:15.000Z</time>
      </trkpt>
      <trkpt lat="43.39431" lon="-1.68866">
        <ele>11</ele>
        <time>2026-03-06T17:33:16.000Z</time>
      </trkpt>
      <trkpt lat="43.39433" lon="-1.68876">
        <ele>11</ele>
        <time>2026-03-06T17:33:17.000Z</time>
      </trkpt>
      <trkpt lat="43.39434" lon="-1.68884">
        <ele>11</ele>
        <time>2026-03-06T17:33:18.000Z</time>
      </trkpt>
      <trkpt lat="43.39434" lon="-1.6889">
        <ele>11</ele>
        <time>2026-03-06T17:33:19.000Z</time>
      </trkpt>
      <trkpt lat="43.39435" lon="-1.68898">
        <ele>10</ele>
        <time>2026-03-06T17:33:20.000Z</time>
      </trkpt>
      <trkpt lat="43.39435" lon="-1.6891">
        <ele>10</ele>
        <time>2026-03-06T17:33:21.000Z</time>
      </trkpt>
      <trkpt lat="43.39435" lon="-1.68919">
        <ele>10</ele>
        <time>2026-03-06T17:33:22.000Z</time>
      </trkpt>
      <trkpt lat="43.39435" lon="-1.68932">
        <ele>10</ele>
        <time>2026-03-06T17:33:24.000Z</time>
      </trkpt>
      <trkpt lat="43.39434" lon="-1.68944">
        <ele>11</ele>
        <time>2026-03-06T17:33:26.000Z</time>
      </trkpt>
      <trkpt lat="43.39431" lon="-1.68962">
        <ele>12</ele>
        <time>2026-03-06T17:33:28.000Z</time>
      </trkpt>
      <trkpt lat="43.39425" lon="-1.68994">
        <ele>13</ele>
        <time>2026-03-06T17:33:32.000Z</time>
      </trkpt>
      <trkpt lat="43.39421" lon="-1.69014">
        <ele>14</ele>
        <time>2026-03-06T17:33:35.000Z</time>
      </trkpt>
      <trkpt lat="43.39417" lon="-1.69033">
        <ele>15</ele>
        <time>2026-03-06T17:33:38.000Z</time>
      </trkpt>
      <trkpt lat="43.39413" lon="-1.69052">
        <ele>15</ele>
        <time>2026-03-06T17:33:40.000Z</time>
      </trkpt>
      <trkpt lat="43.39408" lon="-1.69077">
        <ele>14</ele>
        <time>2026-03-06T17:33:44.000Z</time>
      </trkpt>
      <trkpt lat="43.39404" lon="-1.69095">
        <ele>14</ele>
        <time>2026-03-06T17:33:46.000Z</time>
      </trkpt>
      <trkpt lat="43.39397" lon="-1.69133">
        <ele>14</ele>
        <time>2026-03-06T17:33:51.000Z</time>
      </trkpt>
      <trkpt lat="43.39391" lon="-1.69168">
        <ele>14</ele>
        <time>2026-03-06T17:33:56.000Z</time>
      </trkpt>
      <trkpt lat="43.39386" lon="-1.69208">
        <ele>14</ele>
        <time>2026-03-06T17:34:01.000Z</time>
      </trkpt>
      <trkpt lat="43.39379" lon="-1.6926">
        <ele>15</ele>
        <time>2026-03-06T17:34:08.000Z</time>
      </trkpt>
      <trkpt lat="43.39374" lon="-1.69295">
        <ele>17</ele>
        <time>2026-03-06T17:34:12.000Z</time>
      </trkpt>
      <trkpt lat="43.39371" lon="-1.69311">
        <ele>18</ele>
        <time>2026-03-06T17:34:15.000Z</time>
      </trkpt>
      <trkpt lat="43.39367" lon="-1.69324">
        <ele>19</ele>
        <time>2026-03-06T17:34:16.000Z</time>
      </trkpt>
      <trkpt lat="43.39363" lon="-1.69336">
        <ele>20</ele>
        <time>2026-03-06T17:34:18.000Z</time>
      </trkpt>
      <trkpt lat="43.39362" lon="-1.69339">
        <ele>20</ele>
        <time>2026-03-06T17:34:18.000Z</time>
      </trkpt>
      <trkpt lat="43.39357" lon="-1.6935">
        <ele>20</ele>
        <time>2026-03-06T17:34:20.000Z</time>
      </trkpt>
      <trkpt lat="43.39347" lon="-1.69368">
        <ele>22</ele>
        <time>2026-03-06T17:34:23.000Z</time>
      </trkpt>
      <trkpt lat="43.39333" lon="-1.69392">
        <ele>23</ele>
        <time>2026-03-06T17:34:27.000Z</time>
      </trkpt>
      <trkpt lat="43.39304" lon="-1.69445">
        <ele>20</ele>
        <time>2026-03-06T17:34:36.000Z</time>
      </trkpt>
      <trkpt lat="43.39268" lon="-1.6951">
        <ele>21</ele>
        <time>2026-03-06T17:34:46.000Z</time>
      </trkpt>
      <trkpt lat="43.39243" lon="-1.69556">
        <ele>22</ele>
        <time>2026-03-06T17:34:54.000Z</time>
      </trkpt>
      <trkpt lat="43.39236" lon="-1.6957">
        <ele>21</ele>
        <time>2026-03-06T17:34:56.000Z</time>
      </trkpt>
      <trkpt lat="43.39229" lon="-1.69585">
        <ele>21</ele>
        <time>2026-03-06T17:34:58.000Z</time>
      </trkpt>
      <trkpt lat="43.39214" lon="-1.69624">
        <ele>21</ele>
        <time>2026-03-06T17:35:04.000Z</time>
      </trkpt>
      <trkpt lat="43.39199" lon="-1.69667">
        <ele>24</ele>
        <time>2026-03-06T17:35:10.000Z</time>
      </trkpt>
      <trkpt lat="43.39188" lon="-1.69696">
        <ele>27</ele>
        <time>2026-03-06T17:35:14.000Z</time>
      </trkpt>
      <trkpt lat="43.39166" lon="-1.69755">
        <ele>36</ele>
        <time>2026-03-06T17:35:23.000Z</time>
      </trkpt>
      <trkpt lat="43.39158" lon="-1.69776">
        <ele>37</ele>
        <time>2026-03-06T17:35:26.000Z</time>
      </trkpt>
      <trkpt lat="43.39151" lon="-1.69798">
        <ele>38</ele>
        <time>2026-03-06T17:35:29.000Z</time>
      </trkpt>
      <trkpt lat="43.39148" lon="-1.69824">
        <ele>38</ele>
        <time>2026-03-06T17:35:32.000Z</time>
      </trkpt>
      <trkpt lat="43.39147" lon="-1.69835">
        <ele>39</ele>
        <time>2026-03-06T17:35:34.000Z</time>
      </trkpt>
      <trkpt lat="43.39146" lon="-1.69847">
        <ele>38</ele>
        <time>2026-03-06T17:35:35.000Z</time>
      </trkpt>
      <trkpt lat="43.39146" lon="-1.6986">
        <ele>38</ele>
        <time>2026-03-06T17:35:37.000Z</time>
      </trkpt>
      <trkpt lat="43.39146" lon="-1.69871">
        <ele>38</ele>
        <time>2026-03-06T17:35:39.000Z</time>
      </trkpt>
      <trkpt lat="43.39146" lon="-1.69884">
        <ele>38</ele>
        <time>2026-03-06T17:35:40.000Z</time>
      </trkpt>
      <trkpt lat="43.39147" lon="-1.69904">
        <ele>37</ele>
        <time>2026-03-06T17:35:43.000Z</time>
      </trkpt>
      <trkpt lat="43.39149" lon="-1.69926">
        <ele>36</ele>
        <time>2026-03-06T17:35:46.000Z</time>
      </trkpt>
      <trkpt lat="43.39149" lon="-1.69954">
        <ele>35</ele>
        <time>2026-03-06T17:35:49.000Z</time>
      </trkpt>
      <trkpt lat="43.39151" lon="-1.6999">
        <ele>33</ele>
        <time>2026-03-06T17:35:54.000Z</time>
      </trkpt>
      <trkpt lat="43.3915" lon="-1.70027">
        <ele>31</ele>
        <time>2026-03-06T17:35:59.000Z</time>
      </trkpt>
      <trkpt lat="43.3915" lon="-1.70034">
        <ele>30</ele>
        <time>2026-03-06T17:36:00.000Z</time>
      </trkpt>
      <trkpt lat="43.3915" lon="-1.7004">
        <ele>30</ele>
        <time>2026-03-06T17:36:00.000Z</time>
      </trkpt>
      <trkpt lat="43.39148" lon="-1.70048">
        <ele>29</ele>
        <time>2026-03-06T17:36:01.000Z</time>
      </trkpt>
      <trkpt lat="43.39145" lon="-1.70057">
        <ele>29</ele>
        <time>2026-03-06T17:36:03.000Z</time>
      </trkpt>
      <trkpt lat="43.3914" lon="-1.70066">
        <ele>30</ele>
        <time>2026-03-06T17:36:04.000Z</time>
      </trkpt>
      <trkpt lat="43.39137" lon="-1.70072">
        <ele>30</ele>
        <time>2026-03-06T17:36:05.000Z</time>
      </trkpt>
      <trkpt lat="43.39132" lon="-1.7008">
        <ele>31</ele>
        <time>2026-03-06T17:36:07.000Z</time>
      </trkpt>
      <trkpt lat="43.39127" lon="-1.70089">
        <ele>32</ele>
        <time>2026-03-06T17:36:08.000Z</time>
      </trkpt>
      <trkpt lat="43.3912" lon="-1.70098">
        <ele>32</ele>
        <time>2026-03-06T17:36:10.000Z</time>
      </trkpt>
      <trkpt lat="43.39113" lon="-1.70114">
        <ele>32</ele>
        <time>2026-03-06T17:36:12.000Z</time>
      </trkpt>
      <trkpt lat="43.39103" lon="-1.7014">
        <ele>31</ele>
        <time>2026-03-06T17:36:16.000Z</time>
      </trkpt>
      <trkpt lat="43.39098" lon="-1.70151">
        <ele>31</ele>
        <time>2026-03-06T17:36:18.000Z</time>
      </trkpt>
      <trkpt lat="43.39093" lon="-1.70162">
        <ele>32</ele>
        <time>2026-03-06T17:36:19.000Z</time>
      </trkpt>
      <trkpt lat="43.39091" lon="-1.70169">
        <ele>31</ele>
        <time>2026-03-06T17:36:20.000Z</time>
      </trkpt>
      <trkpt lat="43.39089" lon="-1.70174">
        <ele>31</ele>
        <time>2026-03-06T17:36:21.000Z</time>
      </trkpt>
      <trkpt lat="43.39085" lon="-1.70186">
        <ele>31</ele>
        <time>2026-03-06T17:36:23.000Z</time>
      </trkpt>
      <trkpt lat="43.39081" lon="-1.70197">
        <ele>30</ele>
        <time>2026-03-06T17:36:24.000Z</time>
      </trkpt>
      <trkpt lat="43.39068" lon="-1.70241">
        <ele>26</ele>
        <time>2026-03-06T17:36:30.000Z</time>
      </trkpt>
      <trkpt lat="43.39061" lon="-1.70262">
        <ele>26</ele>
        <time>2026-03-06T17:36:33.000Z</time>
      </trkpt>
      <trkpt lat="43.39043" lon="-1.70319">
        <ele>26</ele>
        <time>2026-03-06T17:36:41.000Z</time>
      </trkpt>
      <trkpt lat="43.39016" lon="-1.70389">
        <ele>30</ele>
        <time>2026-03-06T17:36:52.000Z</time>
      </trkpt>
      <trkpt lat="43.3899" lon="-1.70468">
        <ele>34</ele>
        <time>2026-03-06T17:37:03.000Z</time>
      </trkpt>
      <trkpt lat="43.38976" lon="-1.70513">
        <ele>35</ele>
        <time>2026-03-06T17:37:09.000Z</time>
      </trkpt>
      <trkpt lat="43.38966" lon="-1.70546">
        <ele>37</ele>
        <time>2026-03-06T17:37:14.000Z</time>
      </trkpt>
      <trkpt lat="43.38958" lon="-1.70573">
        <ele>39</ele>
        <time>2026-03-06T17:37:18.000Z</time>
      </trkpt>
      <trkpt lat="43.3895" lon="-1.70592">
        <ele>40</ele>
        <time>2026-03-06T17:37:20.000Z</time>
      </trkpt>
      <trkpt lat="43.38938" lon="-1.70613">
        <ele>41</ele>
        <time>2026-03-06T17:37:24.000Z</time>
      </trkpt>
      <trkpt lat="43.38929" lon="-1.70627">
        <ele>43</ele>
        <time>2026-03-06T17:37:26.000Z</time>
      </trkpt>
      <trkpt lat="43.38923" lon="-1.70639">
        <ele>43</ele>
        <time>2026-03-06T17:37:28.000Z</time>
      </trkpt>
      <trkpt lat="43.38914" lon="-1.70657">
        <ele>44</ele>
        <time>2026-03-06T17:37:31.000Z</time>
      </trkpt>
      <trkpt lat="43.3891" lon="-1.70668">
        <ele>43</ele>
        <time>2026-03-06T17:37:33.000Z</time>
      </trkpt>
      <trkpt lat="43.38906" lon="-1.70681">
        <ele>43</ele>
        <time>2026-03-06T17:37:34.000Z</time>
      </trkpt>
      <trkpt lat="43.38901" lon="-1.70698">
        <ele>41</ele>
        <time>2026-03-06T17:37:37.000Z</time>
      </trkpt>
      <trkpt lat="43.38896" lon="-1.70719">
        <ele>40</ele>
        <time>2026-03-06T17:37:40.000Z</time>
      </trkpt>
      <trkpt lat="43.38894" lon="-1.70733">
        <ele>39</ele>
        <time>2026-03-06T17:37:42.000Z</time>
      </trkpt>
      <trkpt lat="43.3889" lon="-1.70754">
        <ele>38</ele>
        <time>2026-03-06T17:37:44.000Z</time>
      </trkpt>
      <trkpt lat="43.38889" lon="-1.7077">
        <ele>37</ele>
        <time>2026-03-06T17:37:46.000Z</time>
      </trkpt>
      <trkpt lat="43.38886" lon="-1.70796">
        <ele>36</ele>
        <time>2026-03-06T17:37:50.000Z</time>
      </trkpt>
      <trkpt lat="43.38885" lon="-1.7081">
        <ele>35</ele>
        <time>2026-03-06T17:37:52.000Z</time>
      </trkpt>
      <trkpt lat="43.38883" lon="-1.70824">
        <ele>34</ele>
        <time>2026-03-06T17:37:54.000Z</time>
      </trkpt>
      <trkpt lat="43.38883" lon="-1.70826">
        <ele>34</ele>
        <time>2026-03-06T17:37:54.000Z</time>
      </trkpt>
      <trkpt lat="43.38877" lon="-1.70841">
        <ele>33</ele>
        <time>2026-03-06T17:37:56.000Z</time>
      </trkpt>
      <trkpt lat="43.38875" lon="-1.70847">
        <ele>32</ele>
        <time>2026-03-06T17:37:57.000Z</time>
      </trkpt>
      <trkpt lat="43.38871" lon="-1.70855">
        <ele>31</ele>
        <time>2026-03-06T17:37:58.000Z</time>
      </trkpt>
      <trkpt lat="43.38866" lon="-1.70863">
        <ele>31</ele>
        <time>2026-03-06T17:37:59.000Z</time>
      </trkpt>
      <trkpt lat="43.38862" lon="-1.70869">
        <ele>31</ele>
        <time>2026-03-06T17:38:01.000Z</time>
      </trkpt>
      <trkpt lat="43.38855" lon="-1.70876">
        <ele>31</ele>
        <time>2026-03-06T17:38:02.000Z</time>
      </trkpt>
      <trkpt lat="43.38846" lon="-1.70884">
        <ele>32</ele>
        <time>2026-03-06T17:38:04.000Z</time>
      </trkpt>
      <trkpt lat="43.38752" lon="-1.7092">
        <ele>33</ele>
        <time>2026-03-06T17:38:21.000Z</time>
      </trkpt>
      <trkpt lat="43.38726" lon="-1.70929">
        <ele>32</ele>
        <time>2026-03-06T17:38:26.000Z</time>
      </trkpt>
      <trkpt lat="43.38704" lon="-1.70937">
        <ele>31</ele>
        <time>2026-03-06T17:38:30.000Z</time>
      </trkpt>
      <trkpt lat="43.38692" lon="-1.70942">
        <ele>30</ele>
        <time>2026-03-06T17:38:32.000Z</time>
      </trkpt>
      <trkpt lat="43.38682" lon="-1.70949">
        <ele>30</ele>
        <time>2026-03-06T17:38:34.000Z</time>
      </trkpt>
      <trkpt lat="43.38674" lon="-1.70954">
        <ele>29</ele>
        <time>2026-03-06T17:38:36.000Z</time>
      </trkpt>
      <trkpt lat="43.38667" lon="-1.7096">
        <ele>29</ele>
        <time>2026-03-06T17:38:37.000Z</time>
      </trkpt>
      <trkpt lat="43.38659" lon="-1.70971">
        <ele>28</ele>
        <time>2026-03-06T17:38:39.000Z</time>
      </trkpt>
      <trkpt lat="43.38653" lon="-1.7098">
        <ele>28</ele>
        <time>2026-03-06T17:38:41.000Z</time>
      </trkpt>
      <trkpt lat="43.38648" lon="-1.7099">
        <ele>28</ele>
        <time>2026-03-06T17:38:43.000Z</time>
      </trkpt>
      <trkpt lat="43.38644" lon="-1.71">
        <ele>27</ele>
        <time>2026-03-06T17:38:44.000Z</time>
      </trkpt>
      <trkpt lat="43.38639" lon="-1.71011">
        <ele>27</ele>
        <time>2026-03-06T17:38:46.000Z</time>
      </trkpt>
      <trkpt lat="43.38637" lon="-1.7102">
        <ele>26</ele>
        <time>2026-03-06T17:38:47.000Z</time>
      </trkpt>
      <trkpt lat="43.38634" lon="-1.71033">
        <ele>26</ele>
        <time>2026-03-06T17:38:49.000Z</time>
      </trkpt>
      <trkpt lat="43.38633" lon="-1.71044">
        <ele>25</ele>
        <time>2026-03-06T17:38:50.000Z</time>
      </trkpt>
      <trkpt lat="43.38632" lon="-1.71055">
        <ele>24</ele>
        <time>2026-03-06T17:38:52.000Z</time>
      </trkpt>
      <trkpt lat="43.38632" lon="-1.71066">
        <ele>24</ele>
        <time>2026-03-06T17:38:53.000Z</time>
      </trkpt>
      <trkpt lat="43.38633" lon="-1.71081">
        <ele>23</ele>
        <time>2026-03-06T17:38:55.000Z</time>
      </trkpt>
      <trkpt lat="43.38635" lon="-1.71096">
        <ele>22</ele>
        <time>2026-03-06T17:38:57.000Z</time>
      </trkpt>
      <trkpt lat="43.38638" lon="-1.7111">
        <ele>21</ele>
        <time>2026-03-06T17:38:59.000Z</time>
      </trkpt>
      <trkpt lat="43.38644" lon="-1.71135">
        <ele>20</ele>
        <time>2026-03-06T17:39:02.000Z</time>
      </trkpt>
      <trkpt lat="43.38649" lon="-1.71156">
        <ele>19</ele>
        <time>2026-03-06T17:39:05.000Z</time>
      </trkpt>
      <trkpt lat="43.38655" lon="-1.7118">
        <ele>17</ele>
        <time>2026-03-06T17:39:08.000Z</time>
      </trkpt>
      <trkpt lat="43.38661" lon="-1.71205">
        <ele>16</ele>
        <time>2026-03-06T17:39:12.000Z</time>
      </trkpt>
      <trkpt lat="43.3867" lon="-1.7124">
        <ele>14</ele>
        <time>2026-03-06T17:39:17.000Z</time>
      </trkpt>
      <trkpt lat="43.38679" lon="-1.71277">
        <ele>13</ele>
        <time>2026-03-06T17:39:22.000Z</time>
      </trkpt>
      <trkpt lat="43.3868" lon="-1.71283">
        <ele>13</ele>
        <time>2026-03-06T17:39:22.000Z</time>
      </trkpt>
      <trkpt lat="43.38683" lon="-1.71299">
        <ele>13</ele>
        <time>2026-03-06T17:39:25.000Z</time>
      </trkpt>
      <trkpt lat="43.38685" lon="-1.71309">
        <ele>13</ele>
        <time>2026-03-06T17:39:26.000Z</time>
      </trkpt>
      <trkpt lat="43.38685" lon="-1.71319">
        <ele>13</ele>
        <time>2026-03-06T17:39:27.000Z</time>
      </trkpt>
      <trkpt lat="43.38685" lon="-1.71321">
        <ele>13</ele>
        <time>2026-03-06T17:39:27.000Z</time>
      </trkpt>
      <trkpt lat="43.38685" lon="-1.71327">
        <ele>13</ele>
        <time>2026-03-06T17:39:28.000Z</time>
      </trkpt>
      <trkpt lat="43.38685" lon="-1.71332">
        <ele>14</ele>
        <time>2026-03-06T17:39:29.000Z</time>
      </trkpt>
      <trkpt lat="43.38683" lon="-1.71346">
        <ele>14</ele>
        <time>2026-03-06T17:39:31.000Z</time>
      </trkpt>
      <trkpt lat="43.38682" lon="-1.71354">
        <ele>15</ele>
        <time>2026-03-06T17:39:32.000Z</time>
      </trkpt>
      <trkpt lat="43.38681" lon="-1.7136">
        <ele>15</ele>
        <time>2026-03-06T17:39:33.000Z</time>
      </trkpt>
      <trkpt lat="43.38676" lon="-1.7138">
        <ele>17</ele>
        <time>2026-03-06T17:39:35.000Z</time>
      </trkpt>
      <trkpt lat="43.38668" lon="-1.71408">
        <ele>19</ele>
        <time>2026-03-06T17:39:39.000Z</time>
      </trkpt>
      <trkpt lat="43.38653" lon="-1.71459">
        <ele>18</ele>
        <time>2026-03-06T17:39:46.000Z</time>
      </trkpt>
      <trkpt lat="43.38649" lon="-1.71475">
        <ele>18</ele>
        <time>2026-03-06T17:39:48.000Z</time>
      </trkpt>
      <trkpt lat="43.38643" lon="-1.71493">
        <ele>17</ele>
        <time>2026-03-06T17:39:51.000Z</time>
      </trkpt>
      <trkpt lat="43.38637" lon="-1.71516">
        <ele>17</ele>
        <time>2026-03-06T17:39:54.000Z</time>
      </trkpt>
      <trkpt lat="43.38627" lon="-1.71552">
        <ele>17</ele>
        <time>2026-03-06T17:39:59.000Z</time>
      </trkpt>
      <trkpt lat="43.38614" lon="-1.71598">
        <ele>18</ele>
        <time>2026-03-06T17:40:06.000Z</time>
      </trkpt>
      <trkpt lat="43.38602" lon="-1.71637">
        <ele>21</ele>
        <time>2026-03-06T17:40:11.000Z</time>
      </trkpt>
      <trkpt lat="43.38593" lon="-1.71671">
        <ele>23</ele>
        <time>2026-03-06T17:40:16.000Z</time>
      </trkpt>
      <trkpt lat="43.38584" lon="-1.71699">
        <ele>25</ele>
        <time>2026-03-06T17:40:20.000Z</time>
      </trkpt>
      <trkpt lat="43.38576" lon="-1.71723">
        <ele>26</ele>
        <time>2026-03-06T17:40:23.000Z</time>
      </trkpt>
      <trkpt lat="43.38568" lon="-1.71746">
        <ele>27</ele>
        <time>2026-03-06T17:40:26.000Z</time>
      </trkpt>
      <trkpt lat="43.3856" lon="-1.71768">
        <ele>26</ele>
        <time>2026-03-06T17:40:30.000Z</time>
      </trkpt>
      <trkpt lat="43.38543" lon="-1.71814">
        <ele>26</ele>
        <time>2026-03-06T17:40:36.000Z</time>
      </trkpt>
      <trkpt lat="43.38524" lon="-1.71861">
        <ele>27</ele>
        <time>2026-03-06T17:40:43.000Z</time>
      </trkpt>
      <trkpt lat="43.38505" lon="-1.71914">
        <ele>31</ele>
        <time>2026-03-06T17:40:51.000Z</time>
      </trkpt>
      <trkpt lat="43.38486" lon="-1.71968">
        <ele>31</ele>
        <time>2026-03-06T17:40:59.000Z</time>
      </trkpt>
      <trkpt lat="43.38465" lon="-1.72023">
        <ele>33</ele>
        <time>2026-03-06T17:41:07.000Z</time>
      </trkpt>
      <trkpt lat="43.38459" lon="-1.72042">
        <ele>33</ele>
        <time>2026-03-06T17:41:09.000Z</time>
      </trkpt>
      <trkpt lat="43.38447" lon="-1.72075">
        <ele>35</ele>
        <time>2026-03-06T17:41:14.000Z</time>
      </trkpt>
      <trkpt lat="43.38442" lon="-1.72087">
        <ele>36</ele>
        <time>2026-03-06T17:41:16.000Z</time>
      </trkpt>
      <trkpt lat="43.38437" lon="-1.721">
        <ele>37</ele>
        <time>2026-03-06T17:41:18.000Z</time>
      </trkpt>
      <trkpt lat="43.38426" lon="-1.72127">
        <ele>39</ele>
        <time>2026-03-06T17:41:22.000Z</time>
      </trkpt>
      <trkpt lat="43.38422" lon="-1.72137">
        <ele>40</ele>
        <time>2026-03-06T17:41:23.000Z</time>
      </trkpt>
      <trkpt lat="43.38418" lon="-1.72147">
        <ele>41</ele>
        <time>2026-03-06T17:41:25.000Z</time>
      </trkpt>
      <trkpt lat="43.38413" lon="-1.72163">
        <ele>41</ele>
        <time>2026-03-06T17:41:27.000Z</time>
      </trkpt>
      <trkpt lat="43.3841" lon="-1.72175">
        <ele>42</ele>
        <time>2026-03-06T17:41:29.000Z</time>
      </trkpt>
      <trkpt lat="43.38407" lon="-1.7219">
        <ele>42</ele>
        <time>2026-03-06T17:41:31.000Z</time>
      </trkpt>
      <trkpt lat="43.38406" lon="-1.72199">
        <ele>42</ele>
        <time>2026-03-06T17:41:32.000Z</time>
      </trkpt>
      <trkpt lat="43.38406" lon="-1.72209">
        <ele>42</ele>
        <time>2026-03-06T17:41:33.000Z</time>
      </trkpt>
      <trkpt lat="43.38406" lon="-1.72219">
        <ele>43</ele>
        <time>2026-03-06T17:41:34.000Z</time>
      </trkpt>
      <trkpt lat="43.38406" lon="-1.72229">
        <ele>43</ele>
        <time>2026-03-06T17:41:36.000Z</time>
      </trkpt>
      <trkpt lat="43.38407" lon="-1.72239">
        <ele>43</ele>
        <time>2026-03-06T17:41:37.000Z</time>
      </trkpt>
      <trkpt lat="43.38408" lon="-1.72247">
        <ele>43</ele>
        <time>2026-03-06T17:41:38.000Z</time>
      </trkpt>
      <trkpt lat="43.38411" lon="-1.72262">
        <ele>43</ele>
        <time>2026-03-06T17:41:40.000Z</time>
      </trkpt>
      <trkpt lat="43.38415" lon="-1.7228">
        <ele>42</ele>
        <time>2026-03-06T17:41:42.000Z</time>
      </trkpt>
      <trkpt lat="43.3842" lon="-1.723">
        <ele>40</ele>
        <time>2026-03-06T17:41:45.000Z</time>
      </trkpt>
      <trkpt lat="43.38422" lon="-1.7231">
        <ele>39</ele>
        <time>2026-03-06T17:41:47.000Z</time>
      </trkpt>
      <trkpt lat="43.38424" lon="-1.72317">
        <ele>38</ele>
        <time>2026-03-06T17:41:47.000Z</time>
      </trkpt>
      <trkpt lat="43.38431" lon="-1.72346">
        <ele>34</ele>
        <time>2026-03-06T17:41:51.000Z</time>
      </trkpt>
      <trkpt lat="43.38433" lon="-1.72354">
        <ele>33</ele>
        <time>2026-03-06T17:41:53.000Z</time>
      </trkpt>
      <trkpt lat="43.38434" lon="-1.72363">
        <ele>32</ele>
        <time>2026-03-06T17:41:54.000Z</time>
      </trkpt>
      <trkpt lat="43.38436" lon="-1.72374">
        <ele>31</ele>
        <time>2026-03-06T17:41:55.000Z</time>
      </trkpt>
      <trkpt lat="43.38437" lon="-1.72381">
        <ele>30</ele>
        <time>2026-03-06T17:41:56.000Z</time>
      </trkpt>
      <trkpt lat="43.38438" lon="-1.72389">
        <ele>29</ele>
        <time>2026-03-06T17:41:57.000Z</time>
      </trkpt>
      <trkpt lat="43.38439" lon="-1.724">
        <ele>28</ele>
        <time>2026-03-06T17:41:59.000Z</time>
      </trkpt>
      <trkpt lat="43.3844" lon="-1.72411">
        <ele>27</ele>
        <time>2026-03-06T17:42:00.000Z</time>
      </trkpt>
      <trkpt lat="43.3844" lon="-1.72428">
        <ele>26</ele>
        <time>2026-03-06T17:42:02.000Z</time>
      </trkpt>
      <trkpt lat="43.38439" lon="-1.7244">
        <ele>25</ele>
        <time>2026-03-06T17:42:04.000Z</time>
      </trkpt>
      <trkpt lat="43.38438" lon="-1.72452">
        <ele>24</ele>
        <time>2026-03-06T17:42:05.000Z</time>
      </trkpt>
      <trkpt lat="43.38436" lon="-1.72459">
        <ele>24</ele>
        <time>2026-03-06T17:42:06.000Z</time>
      </trkpt>
      <trkpt lat="43.38434" lon="-1.72469">
        <ele>24</ele>
        <time>2026-03-06T17:42:08.000Z</time>
      </trkpt>
      <trkpt lat="43.38431" lon="-1.72481">
        <ele>23</ele>
        <time>2026-03-06T17:42:09.000Z</time>
      </trkpt>
      <trkpt lat="43.38428" lon="-1.7249">
        <ele>23</ele>
        <time>2026-03-06T17:42:11.000Z</time>
      </trkpt>
      <trkpt lat="43.38426" lon="-1.72498">
        <ele>23</ele>
        <time>2026-03-06T17:42:12.000Z</time>
      </trkpt>
      <trkpt lat="43.38423" lon="-1.72506">
        <ele>22</ele>
        <time>2026-03-06T17:42:13.000Z</time>
      </trkpt>
      <trkpt lat="43.38415" lon="-1.72523">
        <ele>21</ele>
        <time>2026-03-06T17:42:15.000Z</time>
      </trkpt>
      <trkpt lat="43.38403" lon="-1.72543">
        <ele>19</ele>
        <time>2026-03-06T17:42:19.000Z</time>
      </trkpt>
      <trkpt lat="43.3839" lon="-1.72558">
        <ele>18</ele>
        <time>2026-03-06T17:42:22.000Z</time>
      </trkpt>
      <trkpt lat="43.38381" lon="-1.72568">
        <ele>18</ele>
        <time>2026-03-06T17:42:24.000Z</time>
      </trkpt>
      <trkpt lat="43.38365" lon="-1.72583">
        <ele>19</ele>
        <time>2026-03-06T17:42:27.000Z</time>
      </trkpt>
      <trkpt lat="43.38349" lon="-1.72596">
        <ele>20</ele>
        <time>2026-03-06T17:42:31.000Z</time>
      </trkpt>
      <trkpt lat="43.38327" lon="-1.72617">
        <ele>21</ele>
        <time>2026-03-06T17:42:35.000Z</time>
      </trkpt>
      <trkpt lat="43.38303" lon="-1.72639">
        <ele>20</ele>
        <time>2026-03-06T17:42:41.000Z</time>
      </trkpt>
      <trkpt lat="43.38293" lon="-1.72648">
        <ele>20</ele>
        <time>2026-03-06T17:42:43.000Z</time>
      </trkpt>
      <trkpt lat="43.38264" lon="-1.72674">
        <ele>20</ele>
        <time>2026-03-06T17:42:49.000Z</time>
      </trkpt>
      <trkpt lat="43.38243" lon="-1.72693">
        <ele>20</ele>
        <time>2026-03-06T17:42:53.000Z</time>
      </trkpt>
      <trkpt lat="43.38239" lon="-1.72697">
        <ele>20</ele>
        <time>2026-03-06T17:42:54.000Z</time>
      </trkpt>
      <trkpt lat="43.38228" lon="-1.7271">
        <ele>19</ele>
        <time>2026-03-06T17:42:57.000Z</time>
      </trkpt>
      <trkpt lat="43.38222" lon="-1.72718">
        <ele>18</ele>
        <time>2026-03-06T17:42:58.000Z</time>
      </trkpt>
      <trkpt lat="43.38217" lon="-1.72727">
        <ele>18</ele>
        <time>2026-03-06T17:43:00.000Z</time>
      </trkpt>
      <trkpt lat="43.38213" lon="-1.72735">
        <ele>17</ele>
        <time>2026-03-06T17:43:01.000Z</time>
      </trkpt>
      <trkpt lat="43.38209" lon="-1.72745">
        <ele>16</ele>
        <time>2026-03-06T17:43:02.000Z</time>
      </trkpt>
      <trkpt lat="43.38207" lon="-1.72753">
        <ele>16</ele>
        <time>2026-03-06T17:43:04.000Z</time>
      </trkpt>
      <trkpt lat="43.38206" lon="-1.72755">
        <ele>16</ele>
        <time>2026-03-06T17:43:04.000Z</time>
      </trkpt>
      <trkpt lat="43.38202" lon="-1.72771">
        <ele>15</ele>
        <time>2026-03-06T17:43:06.000Z</time>
      </trkpt>
      <trkpt lat="43.38196" lon="-1.72792">
        <ele>15</ele>
        <time>2026-03-06T17:43:09.000Z</time>
      </trkpt>
      <trkpt lat="43.38196" lon="-1.72794">
        <ele>15</ele>
        <time>2026-03-06T17:43:09.000Z</time>
      </trkpt>
      <trkpt lat="43.3819" lon="-1.72816">
        <ele>15</ele>
        <time>2026-03-06T17:43:12.000Z</time>
      </trkpt>
      <trkpt lat="43.38188" lon="-1.72824">
        <ele>14</ele>
        <time>2026-03-06T17:43:13.000Z</time>
      </trkpt>
      <trkpt lat="43.38183" lon="-1.72843">
        <ele>15</ele>
        <time>2026-03-06T17:43:16.000Z</time>
      </trkpt>
      <trkpt lat="43.38176" lon="-1.72873">
        <ele>15</ele>
        <time>2026-03-06T17:43:20.000Z</time>
      </trkpt>
      <trkpt lat="43.38174" lon="-1.72885">
        <ele>15</ele>
        <time>2026-03-06T17:43:22.000Z</time>
      </trkpt>
      <trkpt lat="43.38172" lon="-1.72894">
        <ele>15</ele>
        <time>2026-03-06T17:43:23.000Z</time>
      </trkpt>
      <trkpt lat="43.3817" lon="-1.72901">
        <ele>15</ele>
        <time>2026-03-06T17:43:24.000Z</time>
      </trkpt>
      <trkpt lat="43.38169" lon="-1.72909">
        <ele>15</ele>
        <time>2026-03-06T17:43:25.000Z</time>
      </trkpt>
      <trkpt lat="43.38168" lon="-1.7292">
        <ele>15</ele>
        <time>2026-03-06T17:43:26.000Z</time>
      </trkpt>
      <trkpt lat="43.38167" lon="-1.72934">
        <ele>15</ele>
        <time>2026-03-06T17:43:28.000Z</time>
      </trkpt>
      <trkpt lat="43.38167" lon="-1.72945">
        <ele>15</ele>
        <time>2026-03-06T17:43:30.000Z</time>
      </trkpt>
      <trkpt lat="43.38168" lon="-1.72956">
        <ele>15</ele>
        <time>2026-03-06T17:43:31.000Z</time>
      </trkpt>
      <trkpt lat="43.38169" lon="-1.7297">
        <ele>15</ele>
        <time>2026-03-06T17:43:33.000Z</time>
      </trkpt>
      <trkpt lat="43.38171" lon="-1.72993">
        <ele>14</ele>
        <time>2026-03-06T17:43:36.000Z</time>
      </trkpt>
      <trkpt lat="43.38174" lon="-1.73011">
        <ele>14</ele>
        <time>2026-03-06T17:43:38.000Z</time>
      </trkpt>
      <trkpt lat="43.38178" lon="-1.73037">
        <ele>14</ele>
        <time>2026-03-06T17:43:42.000Z</time>
      </trkpt>
      <trkpt lat="43.3818" lon="-1.73058">
        <ele>15</ele>
        <time>2026-03-06T17:43:44.000Z</time>
      </trkpt>
      <trkpt lat="43.38184" lon="-1.73087">
        <ele>15</ele>
        <time>2026-03-06T17:43:48.000Z</time>
      </trkpt>
      <trkpt lat="43.38186" lon="-1.73105">
        <ele>14</ele>
        <time>2026-03-06T17:43:51.000Z</time>
      </trkpt>
      <trkpt lat="43.38186" lon="-1.73115">
        <ele>14</ele>
        <time>2026-03-06T17:43:52.000Z</time>
      </trkpt>
      <trkpt lat="43.38186" lon="-1.73126">
        <ele>14</ele>
        <time>2026-03-06T17:43:53.000Z</time>
      </trkpt>
      <trkpt lat="43.38185" lon="-1.73136">
        <ele>14</ele>
        <time>2026-03-06T17:43:55.000Z</time>
      </trkpt>
      <trkpt lat="43.38182" lon="-1.73148">
        <ele>15</ele>
        <time>2026-03-06T17:43:56.000Z</time>
      </trkpt>
      <trkpt lat="43.3818" lon="-1.73158">
        <ele>15</ele>
        <time>2026-03-06T17:43:58.000Z</time>
      </trkpt>
      <trkpt lat="43.38177" lon="-1.73166">
        <ele>16</ele>
        <time>2026-03-06T17:43:59.000Z</time>
      </trkpt>
      <trkpt lat="43.38175" lon="-1.73172">
        <ele>16</ele>
        <time>2026-03-06T17:44:00.000Z</time>
      </trkpt>
      <trkpt lat="43.38172" lon="-1.73179">
        <ele>15</ele>
        <time>2026-03-06T17:44:01.000Z</time>
      </trkpt>
      <trkpt lat="43.38163" lon="-1.73192">
        <ele>15</ele>
        <time>2026-03-06T17:44:03.000Z</time>
      </trkpt>
      <trkpt lat="43.38158" lon="-1.732">
        <ele>14</ele>
        <time>2026-03-06T17:44:04.000Z</time>
      </trkpt>
      <trkpt lat="43.38155" lon="-1.73204">
        <ele>14</ele>
        <time>2026-03-06T17:44:05.000Z</time>
      </trkpt>
      <trkpt lat="43.38152" lon="-1.73207">
        <ele>13</ele>
        <time>2026-03-06T17:44:06.000Z</time>
      </trkpt>
      <trkpt lat="43.38144" lon="-1.73215">
        <ele>13</ele>
        <time>2026-03-06T17:44:07.000Z</time>
      </trkpt>
      <trkpt lat="43.38136" lon="-1.7322">
        <ele>12</ele>
        <time>2026-03-06T17:44:09.000Z</time>
      </trkpt>
      <trkpt lat="43.38124" lon="-1.73227">
        <ele>11</ele>
        <time>2026-03-06T17:44:11.000Z</time>
      </trkpt>
      <trkpt lat="43.38121" lon="-1.73228">
        <ele>11</ele>
        <time>2026-03-06T17:44:12.000Z</time>
      </trkpt>
      <trkpt lat="43.38114" lon="-1.7323">
        <ele>11</ele>
        <time>2026-03-06T17:44:13.000Z</time>
      </trkpt>
      <trkpt lat="43.38107" lon="-1.73231">
        <ele>11</ele>
        <time>2026-03-06T17:44:14.000Z</time>
      </trkpt>
      <trkpt lat="43.38098" lon="-1.73231">
        <ele>12</ele>
        <time>2026-03-06T17:44:16.000Z</time>
      </trkpt>
      <trkpt lat="43.38089" lon="-1.73231">
        <ele>12</ele>
        <time>2026-03-06T17:44:18.000Z</time>
      </trkpt>
      <trkpt lat="43.38083" lon="-1.7323">
        <ele>12</ele>
        <time>2026-03-06T17:44:19.000Z</time>
      </trkpt>
      <trkpt lat="43.38059" lon="-1.7323">
        <ele>13</ele>
        <time>2026-03-06T17:44:23.000Z</time>
      </trkpt>
      <trkpt lat="43.3805" lon="-1.7323">
        <ele>13</ele>
        <time>2026-03-06T17:44:25.000Z</time>
      </trkpt>
      <trkpt lat="43.38043" lon="-1.73231">
        <ele>12</ele>
        <time>2026-03-06T17:44:26.000Z</time>
      </trkpt>
      <trkpt lat="43.38039" lon="-1.73231">
        <ele>12</ele>
        <time>2026-03-06T17:44:27.000Z</time>
      </trkpt>
      <trkpt lat="43.38031" lon="-1.73237">
        <ele>12</ele>
        <time>2026-03-06T17:44:28.000Z</time>
      </trkpt>
      <trkpt lat="43.38021" lon="-1.73241">
        <ele>11</ele>
        <time>2026-03-06T17:44:30.000Z</time>
      </trkpt>
      <trkpt lat="43.38012" lon="-1.73248">
        <ele>10</ele>
        <time>2026-03-06T17:44:32.000Z</time>
      </trkpt>
      <trkpt lat="43.38001" lon="-1.73254">
        <ele>10</ele>
        <time>2026-03-06T17:44:34.000Z</time>
      </trkpt>
      <trkpt lat="43.37997" lon="-1.73257">
        <ele>10</ele>
        <time>2026-03-06T17:44:35.000Z</time>
      </trkpt>
      <trkpt lat="43.37987" lon="-1.73263">
        <ele>10</ele>
        <time>2026-03-06T17:44:37.000Z</time>
      </trkpt>
      <trkpt lat="43.37981" lon="-1.73266">
        <ele>11</ele>
        <time>2026-03-06T17:44:38.000Z</time>
      </trkpt>
      <trkpt lat="43.37979" lon="-1.73268">
        <ele>11</ele>
        <time>2026-03-06T17:44:38.000Z</time>
      </trkpt>
      <trkpt lat="43.3795" lon="-1.73288">
        <ele>12</ele>
        <time>2026-03-06T17:44:44.000Z</time>
      </trkpt>
      <trkpt lat="43.37932" lon="-1.73302">
        <ele>12</ele>
        <time>2026-03-06T17:44:48.000Z</time>
      </trkpt>
      <trkpt lat="43.37915" lon="-1.73318">
        <ele>12</ele>
        <time>2026-03-06T17:44:51.000Z</time>
      </trkpt>
      <trkpt lat="43.37904" lon="-1.7333">
        <ele>12</ele>
        <time>2026-03-06T17:44:54.000Z</time>
      </trkpt>
      <trkpt lat="43.37896" lon="-1.7334">
        <ele>12</ele>
        <time>2026-03-06T17:44:56.000Z</time>
      </trkpt>
      <trkpt lat="43.37889" lon="-1.73345">
        <ele>12</ele>
        <time>2026-03-06T17:44:57.000Z</time>
      </trkpt>
      <trkpt lat="43.3788" lon="-1.73358">
        <ele>13</ele>
        <time>2026-03-06T17:45:00.000Z</time>
      </trkpt>
      <trkpt lat="43.37873" lon="-1.73368">
        <ele>13</ele>
        <time>2026-03-06T17:45:01.000Z</time>
      </trkpt>
      <trkpt lat="43.37872" lon="-1.7337">
        <ele>13</ele>
        <time>2026-03-06T17:45:02.000Z</time>
      </trkpt>
      <trkpt lat="43.37855" lon="-1.73397">
        <ele>13</ele>
        <time>2026-03-06T17:45:06.000Z</time>
      </trkpt>
      <trkpt lat="43.37841" lon="-1.7342">
        <ele>14</ele>
        <time>2026-03-06T17:45:10.000Z</time>
      </trkpt>
      <trkpt lat="43.37837" lon="-1.73426">
        <ele>14</ele>
        <time>2026-03-06T17:45:11.000Z</time>
      </trkpt>
      <trkpt lat="43.37827" lon="-1.73442">
        <ele>15</ele>
        <time>2026-03-06T17:45:14.000Z</time>
      </trkpt>
      <trkpt lat="43.37824" lon="-1.73446">
        <ele>15</ele>
        <time>2026-03-06T17:45:15.000Z</time>
      </trkpt>
      <trkpt lat="43.37823" lon="-1.73448">
        <ele>15</ele>
        <time>2026-03-06T17:45:15.000Z</time>
      </trkpt>
      <trkpt lat="43.37803" lon="-1.7348">
        <ele>17</ele>
        <time>2026-03-06T17:45:20.000Z</time>
      </trkpt>
      <trkpt lat="43.37773" lon="-1.73527">
        <ele>20</ele>
        <time>2026-03-06T17:45:29.000Z</time>
      </trkpt>
      <trkpt lat="43.37768" lon="-1.73536">
        <ele>20</ele>
        <time>2026-03-06T17:45:30.000Z</time>
      </trkpt>
      <trkpt lat="43.37762" lon="-1.73544">
        <ele>21</ele>
        <time>2026-03-06T17:45:31.000Z</time>
      </trkpt>
      <trkpt lat="43.37756" lon="-1.73554">
        <ele>22</ele>
        <time>2026-03-06T17:45:33.000Z</time>
      </trkpt>
      <trkpt lat="43.37751" lon="-1.73562">
        <ele>23</ele>
        <time>2026-03-06T17:45:35.000Z</time>
      </trkpt>
      <trkpt lat="43.37746" lon="-1.73575">
        <ele>24</ele>
        <time>2026-03-06T17:45:36.000Z</time>
      </trkpt>
      <trkpt lat="43.37743" lon="-1.7358">
        <ele>25</ele>
        <time>2026-03-06T17:45:37.000Z</time>
      </trkpt>
      <trkpt lat="43.3774" lon="-1.73589">
        <ele>25</ele>
        <time>2026-03-06T17:45:39.000Z</time>
      </trkpt>
      <trkpt lat="43.37737" lon="-1.73599">
        <ele>25</ele>
        <time>2026-03-06T17:45:40.000Z</time>
      </trkpt>
      <trkpt lat="43.37736" lon="-1.73603">
        <ele>25</ele>
        <time>2026-03-06T17:45:40.000Z</time>
      </trkpt>
      <trkpt lat="43.37734" lon="-1.73614">
        <ele>25</ele>
        <time>2026-03-06T17:45:42.000Z</time>
      </trkpt>
      <trkpt lat="43.37734" lon="-1.73619">
        <ele>24</ele>
        <time>2026-03-06T17:45:43.000Z</time>
      </trkpt>
      <trkpt lat="43.37733" lon="-1.73625">
        <ele>24</ele>
        <time>2026-03-06T17:45:43.000Z</time>
      </trkpt>
      <trkpt lat="43.37733" lon="-1.73628">
        <ele>24</ele>
        <time>2026-03-06T17:45:44.000Z</time>
      </trkpt>
      <trkpt lat="43.37732" lon="-1.73639">
        <ele>24</ele>
        <time>2026-03-06T17:45:45.000Z</time>
      </trkpt>
      <trkpt lat="43.37732" lon="-1.7364">
        <ele>24</ele>
        <time>2026-03-06T17:45:45.000Z</time>
      </trkpt>
      <trkpt lat="43.37732" lon="-1.73654">
        <ele>24</ele>
        <time>2026-03-06T17:45:47.000Z</time>
      </trkpt>
      <trkpt lat="43.37733" lon="-1.73665">
        <ele>24</ele>
        <time>2026-03-06T17:45:49.000Z</time>
      </trkpt>
      <trkpt lat="43.37734" lon="-1.73672">
        <ele>24</ele>
        <time>2026-03-06T17:45:50.000Z</time>
      </trkpt>
      <trkpt lat="43.37737" lon="-1.73685">
        <ele>24</ele>
        <time>2026-03-06T17:45:51.000Z</time>
      </trkpt>
      <trkpt lat="43.37743" lon="-1.73712">
        <ele>25</ele>
        <time>2026-03-06T17:45:55.000Z</time>
      </trkpt>
      <trkpt lat="43.37745" lon="-1.73717">
        <ele>25</ele>
        <time>2026-03-06T17:45:56.000Z</time>
      </trkpt>
      <trkpt lat="43.37748" lon="-1.73732">
        <ele>26</ele>
        <time>2026-03-06T17:45:58.000Z</time>
      </trkpt>
      <trkpt lat="43.3775" lon="-1.73739">
        <ele>26</ele>
        <time>2026-03-06T17:45:59.000Z</time>
      </trkpt>
      <trkpt lat="43.37751" lon="-1.73744">
        <ele>26</ele>
        <time>2026-03-06T17:45:59.000Z</time>
      </trkpt>
      <trkpt lat="43.37756" lon="-1.73763">
        <ele>26</ele>
        <time>2026-03-06T17:46:02.000Z</time>
      </trkpt>
      <trkpt lat="43.37758" lon="-1.73777">
        <ele>27</ele>
        <time>2026-03-06T17:46:04.000Z</time>
      </trkpt>
      <trkpt lat="43.37759" lon="-1.73791">
        <ele>27</ele>
        <time>2026-03-06T17:46:06.000Z</time>
      </trkpt>
      <trkpt lat="43.3776" lon="-1.73801">
        <ele>28</ele>
        <time>2026-03-06T17:46:07.000Z</time>
      </trkpt>
      <trkpt lat="43.37759" lon="-1.73803">
        <ele>28</ele>
        <time>2026-03-06T17:46:07.000Z</time>
      </trkpt>
      <trkpt lat="43.37758" lon="-1.73813">
        <ele>29</ele>
        <time>2026-03-06T17:46:09.000Z</time>
      </trkpt>
      <trkpt lat="43.37758" lon="-1.73818">
        <ele>29</ele>
        <time>2026-03-06T17:46:09.000Z</time>
      </trkpt>
      <trkpt lat="43.37756" lon="-1.73827">
        <ele>29</ele>
        <time>2026-03-06T17:46:10.000Z</time>
      </trkpt>
      <trkpt lat="43.37752" lon="-1.73841">
        <ele>30</ele>
        <time>2026-03-06T17:46:12.000Z</time>
      </trkpt>
      <trkpt lat="43.37747" lon="-1.73854">
        <ele>31</ele>
        <time>2026-03-06T17:46:14.000Z</time>
      </trkpt>
      <trkpt lat="43.37742" lon="-1.73863">
        <ele>32</ele>
        <time>2026-03-06T17:46:16.000Z</time>
      </trkpt>
      <trkpt lat="43.37735" lon="-1.73874">
        <ele>33</ele>
        <time>2026-03-06T17:46:18.000Z</time>
      </trkpt>
      <trkpt lat="43.3773" lon="-1.73879">
        <ele>33</ele>
        <time>2026-03-06T17:46:19.000Z</time>
      </trkpt>
      <trkpt lat="43.37715" lon="-1.73896">
        <ele>34</ele>
        <time>2026-03-06T17:46:22.000Z</time>
      </trkpt>
      <trkpt lat="43.37704" lon="-1.73906">
        <ele>35</ele>
        <time>2026-03-06T17:46:24.000Z</time>
      </trkpt>
      <trkpt lat="43.37702" lon="-1.73908">
        <ele>35</ele>
        <time>2026-03-06T17:46:25.000Z</time>
      </trkpt>
      <trkpt lat="43.37696" lon="-1.73915">
        <ele>36</ele>
        <time>2026-03-06T17:46:26.000Z</time>
      </trkpt>
      <trkpt lat="43.37677" lon="-1.73934">
        <ele>37</ele>
        <time>2026-03-06T17:46:31.000Z</time>
      </trkpt>
      <trkpt lat="43.3767" lon="-1.73943">
        <ele>37</ele>
        <time>2026-03-06T17:46:32.000Z</time>
      </trkpt>
      <trkpt lat="43.37665" lon="-1.73951">
        <ele>38</ele>
        <time>2026-03-06T17:46:34.000Z</time>
      </trkpt>
      <trkpt lat="43.37657" lon="-1.73965">
        <ele>38</ele>
        <time>2026-03-06T17:46:36.000Z</time>
      </trkpt>
      <trkpt lat="43.37651" lon="-1.73982">
        <ele>39</ele>
        <time>2026-03-06T17:46:38.000Z</time>
      </trkpt>
      <trkpt lat="43.37648" lon="-1.73994">
        <ele>40</ele>
        <time>2026-03-06T17:46:40.000Z</time>
      </trkpt>
      <trkpt lat="43.37645" lon="-1.74005">
        <ele>40</ele>
        <time>2026-03-06T17:46:41.000Z</time>
      </trkpt>
      <trkpt lat="43.37644" lon="-1.74018">
        <ele>41</ele>
        <time>2026-03-06T17:46:43.000Z</time>
      </trkpt>
      <trkpt lat="43.37643" lon="-1.7403">
        <ele>42</ele>
        <time>2026-03-06T17:46:45.000Z</time>
      </trkpt>
      <trkpt lat="43.37643" lon="-1.74038">
        <ele>42</ele>
        <time>2026-03-06T17:46:46.000Z</time>
      </trkpt>
      <trkpt lat="43.37644" lon="-1.74047">
        <ele>42</ele>
        <time>2026-03-06T17:46:47.000Z</time>
      </trkpt>
      <trkpt lat="43.37645" lon="-1.74057">
        <ele>43</ele>
        <time>2026-03-06T17:46:48.000Z</time>
      </trkpt>
      <trkpt lat="43.37646" lon="-1.74067">
        <ele>43</ele>
        <time>2026-03-06T17:46:50.000Z</time>
      </trkpt>
      <trkpt lat="43.37647" lon="-1.74074">
        <ele>43</ele>
        <time>2026-03-06T17:46:50.000Z</time>
      </trkpt>
      <trkpt lat="43.37649" lon="-1.74081">
        <ele>44</ele>
        <time>2026-03-06T17:46:51.000Z</time>
      </trkpt>
      <trkpt lat="43.37656" lon="-1.74104">
        <ele>44</ele>
        <time>2026-03-06T17:46:55.000Z</time>
      </trkpt>
      <trkpt lat="43.37661" lon="-1.74119">
        <ele>44</ele>
        <time>2026-03-06T17:46:57.000Z</time>
      </trkpt>
      <trkpt lat="43.37669" lon="-1.7414">
        <ele>45</ele>
        <time>2026-03-06T17:47:00.000Z</time>
      </trkpt>
      <trkpt lat="43.37686" lon="-1.74187">
        <ele>44</ele>
        <time>2026-03-06T17:47:07.000Z</time>
      </trkpt>
      <trkpt lat="43.37699" lon="-1.74223">
        <ele>44</ele>
        <time>2026-03-06T17:47:12.000Z</time>
      </trkpt>
      <trkpt lat="43.37711" lon="-1.74259">
        <ele>45</ele>
        <time>2026-03-06T17:47:17.000Z</time>
      </trkpt>
      <trkpt lat="43.37719" lon="-1.74279">
        <ele>45</ele>
        <time>2026-03-06T17:47:20.000Z</time>
      </trkpt>
      <trkpt lat="43.37725" lon="-1.74296">
        <ele>46</ele>
        <time>2026-03-06T17:47:22.000Z</time>
      </trkpt>
      <trkpt lat="43.37727" lon="-1.74305">
        <ele>46</ele>
        <time>2026-03-06T17:47:24.000Z</time>
      </trkpt>
      <trkpt lat="43.37729" lon="-1.74315">
        <ele>46</ele>
        <time>2026-03-06T17:47:25.000Z</time>
      </trkpt>
      <trkpt lat="43.37732" lon="-1.74331">
        <ele>47</ele>
        <time>2026-03-06T17:47:27.000Z</time>
      </trkpt>
      <trkpt lat="43.37734" lon="-1.74339">
        <ele>47</ele>
        <time>2026-03-06T17:47:28.000Z</time>
      </trkpt>
      <trkpt lat="43.37734" lon="-1.74345">
        <ele>47</ele>
        <time>2026-03-06T17:47:29.000Z</time>
      </trkpt>
      <trkpt lat="43.37735" lon="-1.74356">
        <ele>48</ele>
        <time>2026-03-06T17:47:30.000Z</time>
      </trkpt>
      <trkpt lat="43.37736" lon="-1.7438">
        <ele>49</ele>
        <time>2026-03-06T17:47:33.000Z</time>
      </trkpt>
      <trkpt lat="43.37738" lon="-1.7443">
        <ele>50</ele>
        <time>2026-03-06T17:47:40.000Z</time>
      </trkpt>
      <trkpt lat="43.37738" lon="-1.74447">
        <ele>51</ele>
        <time>2026-03-06T17:47:42.000Z</time>
      </trkpt>
      <trkpt lat="43.37739" lon="-1.7448">
        <ele>52</ele>
        <time>2026-03-06T17:47:46.000Z</time>
      </trkpt>
      <trkpt lat="43.3774" lon="-1.74502">
        <ele>53</ele>
        <time>2026-03-06T17:47:49.000Z</time>
      </trkpt>
      <trkpt lat="43.37741" lon="-1.74508">
        <ele>53</ele>
        <time>2026-03-06T17:47:50.000Z</time>
      </trkpt>
      <trkpt lat="43.37741" lon="-1.74533">
        <ele>54</ele>
        <time>2026-03-06T17:47:53.000Z</time>
      </trkpt>
      <trkpt lat="43.37741" lon="-1.74539">
        <ele>55</ele>
        <time>2026-03-06T17:47:54.000Z</time>
      </trkpt>
      <trkpt lat="43.3774" lon="-1.7455">
        <ele>55</ele>
        <time>2026-03-06T17:47:56.000Z</time>
      </trkpt>
      <trkpt lat="43.37739" lon="-1.74564">
        <ele>56</ele>
        <time>2026-03-06T17:47:57.000Z</time>
      </trkpt>
      <trkpt lat="43.37737" lon="-1.74584">
        <ele>57</ele>
        <time>2026-03-06T17:48:00.000Z</time>
      </trkpt>
      <trkpt lat="43.37733" lon="-1.74608">
        <ele>57</ele>
        <time>2026-03-06T17:48:03.000Z</time>
      </trkpt>
      <trkpt lat="43.37732" lon="-1.74613">
        <ele>58</ele>
        <time>2026-03-06T17:48:04.000Z</time>
      </trkpt>
      <trkpt lat="43.37726" lon="-1.74639">
        <ele>58</ele>
        <time>2026-03-06T17:48:07.000Z</time>
      </trkpt>
      <trkpt lat="43.37719" lon="-1.74662">
        <ele>58</ele>
        <time>2026-03-06T17:48:11.000Z</time>
      </trkpt>
      <trkpt lat="43.3771" lon="-1.74689">
        <ele>58</ele>
        <time>2026-03-06T17:48:14.000Z</time>
      </trkpt>
      <trkpt lat="43.37697" lon="-1.74722">
        <ele>58</ele>
        <time>2026-03-06T17:48:19.000Z</time>
      </trkpt>
      <trkpt lat="43.37689" lon="-1.74739">
        <ele>58</ele>
        <time>2026-03-06T17:48:22.000Z</time>
      </trkpt>
      <trkpt lat="43.37687" lon="-1.74743">
        <ele>58</ele>
        <time>2026-03-06T17:48:23.000Z</time>
      </trkpt>
      <trkpt lat="43.37679" lon="-1.74759">
        <ele>58</ele>
        <time>2026-03-06T17:48:25.000Z</time>
      </trkpt>
      <trkpt lat="43.37668" lon="-1.74776">
        <ele>58</ele>
        <time>2026-03-06T17:48:28.000Z</time>
      </trkpt>
      <trkpt lat="43.3766" lon="-1.74786">
        <ele>58</ele>
        <time>2026-03-06T17:48:30.000Z</time>
      </trkpt>
      <trkpt lat="43.37652" lon="-1.74797">
        <ele>57</ele>
        <time>2026-03-06T17:48:32.000Z</time>
      </trkpt>
      <trkpt lat="43.37644" lon="-1.74808">
        <ele>57</ele>
        <time>2026-03-06T17:48:34.000Z</time>
      </trkpt>
      <trkpt lat="43.37638" lon="-1.74818">
        <ele>57</ele>
        <time>2026-03-06T17:48:36.000Z</time>
      </trkpt>
      <trkpt lat="43.37632" lon="-1.7483">
        <ele>57</ele>
        <time>2026-03-06T17:48:37.000Z</time>
      </trkpt>
      <trkpt lat="43.37629" lon="-1.74838">
        <ele>57</ele>
        <time>2026-03-06T17:48:39.000Z</time>
      </trkpt>
      <trkpt lat="43.37628" lon="-1.74843">
        <ele>58</ele>
        <time>2026-03-06T17:48:39.000Z</time>
      </trkpt>
      <trkpt lat="43.37625" lon="-1.7485">
        <ele>58</ele>
        <time>2026-03-06T17:48:40.000Z</time>
      </trkpt>
      <trkpt lat="43.37623" lon="-1.74858">
        <ele>59</ele>
        <time>2026-03-06T17:48:41.000Z</time>
      </trkpt>
      <trkpt lat="43.37621" lon="-1.7487">
        <ele>60</ele>
        <time>2026-03-06T17:48:43.000Z</time>
      </trkpt>
      <trkpt lat="43.37619" lon="-1.74881">
        <ele>61</ele>
        <time>2026-03-06T17:48:45.000Z</time>
      </trkpt>
      <trkpt lat="43.37619" lon="-1.74889">
        <ele>62</ele>
        <time>2026-03-06T17:48:46.000Z</time>
      </trkpt>
      <trkpt lat="43.37618" lon="-1.74905">
        <ele>63</ele>
        <time>2026-03-06T17:48:48.000Z</time>
      </trkpt>
      <trkpt lat="43.37617" lon="-1.74912">
        <ele>64</ele>
        <time>2026-03-06T17:48:49.000Z</time>
      </trkpt>
      <trkpt lat="43.37615" lon="-1.74943">
        <ele>65</ele>
        <time>2026-03-06T17:48:53.000Z</time>
      </trkpt>
      <trkpt lat="43.37613" lon="-1.74979">
        <ele>67</ele>
        <time>2026-03-06T17:48:57.000Z</time>
      </trkpt>
      <trkpt lat="43.3761" lon="-1.75">
        <ele>67</ele>
        <time>2026-03-06T17:49:00.000Z</time>
      </trkpt>
      <trkpt lat="43.37606" lon="-1.75025">
        <ele>67</ele>
        <time>2026-03-06T17:49:03.000Z</time>
      </trkpt>
      <trkpt lat="43.376" lon="-1.75059">
        <ele>66</ele>
        <time>2026-03-06T17:49:08.000Z</time>
      </trkpt>
      <trkpt lat="43.37595" lon="-1.75083">
        <ele>66</ele>
        <time>2026-03-06T17:49:11.000Z</time>
      </trkpt>
      <trkpt lat="43.37592" lon="-1.75096">
        <ele>66</ele>
        <time>2026-03-06T17:49:13.000Z</time>
      </trkpt>
      <trkpt lat="43.37591" lon="-1.751">
        <ele>66</ele>
        <time>2026-03-06T17:49:13.000Z</time>
      </trkpt>
      <trkpt lat="43.37589" lon="-1.75106">
        <ele>66</ele>
        <time>2026-03-06T17:49:14.000Z</time>
      </trkpt>
      <trkpt lat="43.37586" lon="-1.75114">
        <ele>66</ele>
        <time>2026-03-06T17:49:15.000Z</time>
      </trkpt>
      <trkpt lat="43.37582" lon="-1.75123">
        <ele>66</ele>
        <time>2026-03-06T17:49:17.000Z</time>
      </trkpt>
      <trkpt lat="43.37577" lon="-1.7513">
        <ele>66</ele>
        <time>2026-03-06T17:49:18.000Z</time>
      </trkpt>
      <trkpt lat="43.37571" lon="-1.75141">
        <ele>66</ele>
        <time>2026-03-06T17:49:20.000Z</time>
      </trkpt>
      <trkpt lat="43.37565" lon="-1.75147">
        <ele>65</ele>
        <time>2026-03-06T17:49:21.000Z</time>
      </trkpt>
      <trkpt lat="43.37559" lon="-1.75153">
        <ele>65</ele>
        <time>2026-03-06T17:49:22.000Z</time>
      </trkpt>
      <trkpt lat="43.37552" lon="-1.75158">
        <ele>64</ele>
        <time>2026-03-06T17:49:24.000Z</time>
      </trkpt>
      <trkpt lat="43.37547" lon="-1.75161">
        <ele>64</ele>
        <time>2026-03-06T17:49:25.000Z</time>
      </trkpt>
      <trkpt lat="43.37543" lon="-1.75164">
        <ele>64</ele>
        <time>2026-03-06T17:49:26.000Z</time>
      </trkpt>
      <trkpt lat="43.37532" lon="-1.75169">
        <ele>63</ele>
        <time>2026-03-06T17:49:28.000Z</time>
      </trkpt>
      <trkpt lat="43.37528" lon="-1.75171">
        <ele>63</ele>
        <time>2026-03-06T17:49:28.000Z</time>
      </trkpt>
      <trkpt lat="43.37511" lon="-1.75183">
        <ele>62</ele>
        <time>2026-03-06T17:49:32.000Z</time>
      </trkpt>
      <trkpt lat="43.37511" lon="-1.75184">
        <ele>62</ele>
        <time>2026-03-06T17:49:32.000Z</time>
      </trkpt>
      <trkpt lat="43.37511" lon="-1.75185">
        <ele>62</ele>
        <time>2026-03-06T17:49:32.000Z</time>
      </trkpt>
      <trkpt lat="43.37511" lon="-1.75187">
        <ele>62</ele>
        <time>2026-03-06T17:49:32.000Z</time>
      </trkpt>
      <trkpt lat="43.3751" lon="-1.75188">
        <ele>62</ele>
        <time>2026-03-06T17:49:33.000Z</time>
      </trkpt>
      <trkpt lat="43.3751" lon="-1.75189">
        <ele>62</ele>
        <time>2026-03-06T17:49:33.000Z</time>
      </trkpt>
      <trkpt lat="43.37509" lon="-1.75191">
        <ele>62</ele>
        <time>2026-03-06T17:49:33.000Z</time>
      </trkpt>
      <trkpt lat="43.37509" lon="-1.75192">
        <ele>61</ele>
        <time>2026-03-06T17:49:33.000Z</time>
      </trkpt>
      <trkpt lat="43.37508" lon="-1.75193">
        <ele>61</ele>
        <time>2026-03-06T17:49:33.000Z</time>
      </trkpt>
      <trkpt lat="43.37507" lon="-1.75194">
        <ele>61</ele>
        <time>2026-03-06T17:49:34.000Z</time>
      </trkpt>
      <trkpt lat="43.37507" lon="-1.75195">
        <ele>61</ele>
        <time>2026-03-06T17:49:34.000Z</time>
      </trkpt>
      <trkpt lat="43.37506" lon="-1.75196">
        <ele>61</ele>
        <time>2026-03-06T17:49:34.000Z</time>
      </trkpt>
      <trkpt lat="43.37505" lon="-1.75197">
        <ele>61</ele>
        <time>2026-03-06T17:49:34.000Z</time>
      </trkpt>
      <trkpt lat="43.37504" lon="-1.75198">
        <ele>61</ele>
        <time>2026-03-06T17:49:34.000Z</time>
      </trkpt>
      <trkpt lat="43.37503" lon="-1.75199">
        <ele>61</ele>
        <time>2026-03-06T17:49:35.000Z</time>
      </trkpt>
      <trkpt lat="43.37501" lon="-1.752">
        <ele>61</ele>
        <time>2026-03-06T17:49:35.000Z</time>
      </trkpt>
      <trkpt lat="43.375" lon="-1.752">
        <ele>61</ele>
        <time>2026-03-06T17:49:35.000Z</time>
      </trkpt>
      <trkpt lat="43.37499" lon="-1.752">
        <ele>61</ele>
        <time>2026-03-06T17:49:35.000Z</time>
      </trkpt>
      <trkpt lat="43.37498" lon="-1.75201">
        <ele>61</ele>
        <time>2026-03-06T17:49:36.000Z</time>
      </trkpt>
      <trkpt lat="43.37497" lon="-1.75201">
        <ele>61</ele>
        <time>2026-03-06T17:49:36.000Z</time>
      </trkpt>
      <trkpt lat="43.37496" lon="-1.75201">
        <ele>61</ele>
        <time>2026-03-06T17:49:36.000Z</time>
      </trkpt>
      <trkpt lat="43.37495" lon="-1.75201">
        <ele>60</ele>
        <time>2026-03-06T17:49:36.000Z</time>
      </trkpt>
      <trkpt lat="43.37494" lon="-1.75201">
        <ele>60</ele>
        <time>2026-03-06T17:49:36.000Z</time>
      </trkpt>
      <trkpt lat="43.37493" lon="-1.75201">
        <ele>60</ele>
        <time>2026-03-06T17:49:36.000Z</time>
      </trkpt>
      <trkpt lat="43.37492" lon="-1.75201">
        <ele>60</ele>
        <time>2026-03-06T17:49:37.000Z</time>
      </trkpt>
      <trkpt lat="43.37491" lon="-1.752">
        <ele>60</ele>
        <time>2026-03-06T17:49:37.000Z</time>
      </trkpt>
      <trkpt lat="43.3749" lon="-1.752">
        <ele>60</ele>
        <time>2026-03-06T17:49:37.000Z</time>
      </trkpt>
      <trkpt lat="43.37489" lon="-1.75199">
        <ele>60</ele>
        <time>2026-03-06T17:49:37.000Z</time>
      </trkpt>
      <trkpt lat="43.37488" lon="-1.75199">
        <ele>60</ele>
        <time>2026-03-06T17:49:37.000Z</time>
      </trkpt>
      <trkpt lat="43.37487" lon="-1.75198">
        <ele>60</ele>
        <time>2026-03-06T17:49:38.000Z</time>
      </trkpt>
      <trkpt lat="43.37486" lon="-1.75197">
        <ele>60</ele>
        <time>2026-03-06T17:49:38.000Z</time>
      </trkpt>
      <trkpt lat="43.37485" lon="-1.75196">
        <ele>60</ele>
        <time>2026-03-06T17:49:38.000Z</time>
      </trkpt>
      <trkpt lat="43.37485" lon="-1.75195">
        <ele>60</ele>
        <time>2026-03-06T17:49:38.000Z</time>
      </trkpt>
      <trkpt lat="43.37484" lon="-1.75194">
        <ele>60</ele>
        <time>2026-03-06T17:49:38.000Z</time>
      </trkpt>
      <trkpt lat="43.37483" lon="-1.75192">
        <ele>60</ele>
        <time>2026-03-06T17:49:39.000Z</time>
      </trkpt>
      <trkpt lat="43.3747" lon="-1.75187">
        <ele>59</ele>
        <time>2026-03-06T17:49:41.000Z</time>
      </trkpt>
      <trkpt lat="43.37466" lon="-1.75187">
        <ele>59</ele>
        <time>2026-03-06T17:49:42.000Z</time>
      </trkpt>
      <trkpt lat="43.37462" lon="-1.75189">
        <ele>58</ele>
        <time>2026-03-06T17:49:43.000Z</time>
      </trkpt>
      <trkpt lat="43.37458" lon="-1.75191">
        <ele>58</ele>
        <time>2026-03-06T17:49:43.000Z</time>
      </trkpt>
      <trkpt lat="43.37448" lon="-1.75196">
        <ele>57</ele>
        <time>2026-03-06T17:49:45.000Z</time>
      </trkpt>
      <trkpt lat="43.37436" lon="-1.75204">
        <ele>57</ele>
        <time>2026-03-06T17:49:48.000Z</time>
      </trkpt>
      <trkpt lat="43.37427" lon="-1.75213">
        <ele>56</ele>
        <time>2026-03-06T17:49:50.000Z</time>
      </trkpt>
      <trkpt lat="43.37415" lon="-1.75227">
        <ele>56</ele>
        <time>2026-03-06T17:49:52.000Z</time>
      </trkpt>
      <trkpt lat="43.37408" lon="-1.75236">
        <ele>55</ele>
        <time>2026-03-06T17:49:54.000Z</time>
      </trkpt>
      <trkpt lat="43.37402" lon="-1.75246">
        <ele>55</ele>
        <time>2026-03-06T17:49:56.000Z</time>
      </trkpt>
      <trkpt lat="43.37394" lon="-1.75261">
        <ele>54</ele>
        <time>2026-03-06T17:49:58.000Z</time>
      </trkpt>
      <trkpt lat="43.37387" lon="-1.75276">
        <ele>53</ele>
        <time>2026-03-06T17:50:01.000Z</time>
      </trkpt>
      <trkpt lat="43.37383" lon="-1.75291">
        <ele>53</ele>
        <time>2026-03-06T17:50:03.000Z</time>
      </trkpt>
      <trkpt lat="43.37379" lon="-1.75307">
        <ele>52</ele>
        <time>2026-03-06T17:50:05.000Z</time>
      </trkpt>
      <trkpt lat="43.37378" lon="-1.75308">
        <ele>52</ele>
        <time>2026-03-06T17:50:05.000Z</time>
      </trkpt>
      <trkpt lat="43.37371" lon="-1.75342">
        <ele>50</ele>
        <time>2026-03-06T17:50:10.000Z</time>
      </trkpt>
      <trkpt lat="43.37363" lon="-1.75387">
        <ele>49</ele>
        <time>2026-03-06T17:50:16.000Z</time>
      </trkpt>
      <trkpt lat="43.37349" lon="-1.75483">
        <ele>46</ele>
        <time>2026-03-06T17:50:28.000Z</time>
      </trkpt>
      <trkpt lat="43.37348" lon="-1.75493">
        <ele>46</ele>
        <time>2026-03-06T17:50:30.000Z</time>
      </trkpt>
      <trkpt lat="43.37347" lon="-1.755">
        <ele>45</ele>
        <time>2026-03-06T17:50:30.000Z</time>
      </trkpt>
      <trkpt lat="43.37347" lon="-1.75503">
        <ele>45</ele>
        <time>2026-03-06T17:50:31.000Z</time>
      </trkpt>
      <trkpt lat="43.37347" lon="-1.7551">
        <ele>45</ele>
        <time>2026-03-06T17:50:32.000Z</time>
      </trkpt>
      <trkpt lat="43.37347" lon="-1.75513">
        <ele>45</ele>
        <time>2026-03-06T17:50:32.000Z</time>
      </trkpt>
      <trkpt lat="43.37348" lon="-1.7552">
        <ele>45</ele>
        <time>2026-03-06T17:50:33.000Z</time>
      </trkpt>
      <trkpt lat="43.37349" lon="-1.75527">
        <ele>45</ele>
        <time>2026-03-06T17:50:34.000Z</time>
      </trkpt>
      <trkpt lat="43.3735" lon="-1.75533">
        <ele>44</ele>
        <time>2026-03-06T17:50:35.000Z</time>
      </trkpt>
      <trkpt lat="43.37352" lon="-1.7554">
        <ele>44</ele>
        <time>2026-03-06T17:50:36.000Z</time>
      </trkpt>
      <trkpt lat="43.37353" lon="-1.75546">
        <ele>44</ele>
        <time>2026-03-06T17:50:37.000Z</time>
      </trkpt>
      <trkpt lat="43.37358" lon="-1.7556">
        <ele>43</ele>
        <time>2026-03-06T17:50:39.000Z</time>
      </trkpt>
      <trkpt lat="43.37361" lon="-1.75568">
        <ele>43</ele>
        <time>2026-03-06T17:50:40.000Z</time>
      </trkpt>
      <trkpt lat="43.37361" lon="-1.75569">
        <ele>43</ele>
        <time>2026-03-06T17:50:40.000Z</time>
      </trkpt>
      <trkpt lat="43.37365" lon="-1.75577">
        <ele>43</ele>
        <time>2026-03-06T17:50:41.000Z</time>
      </trkpt>
      <trkpt lat="43.37368" lon="-1.75583">
        <ele>42</ele>
        <time>2026-03-06T17:50:42.000Z</time>
      </trkpt>
      <trkpt lat="43.37375" lon="-1.75591">
        <ele>42</ele>
        <time>2026-03-06T17:50:44.000Z</time>
      </trkpt>
      <trkpt lat="43.37382" lon="-1.756">
        <ele>42</ele>
        <time>2026-03-06T17:50:45.000Z</time>
      </trkpt>
      <trkpt lat="43.3739" lon="-1.75608">
        <ele>41</ele>
        <time>2026-03-06T17:50:47.000Z</time>
      </trkpt>
      <trkpt lat="43.37399" lon="-1.75615">
        <ele>41</ele>
        <time>2026-03-06T17:50:49.000Z</time>
      </trkpt>
      <trkpt lat="43.3741" lon="-1.75623">
        <ele>40</ele>
        <time>2026-03-06T17:50:51.000Z</time>
      </trkpt>
      <trkpt lat="43.37421" lon="-1.75629">
        <ele>40</ele>
        <time>2026-03-06T17:50:53.000Z</time>
      </trkpt>
      <trkpt lat="43.37431" lon="-1.75636">
        <ele>39</ele>
        <time>2026-03-06T17:50:55.000Z</time>
      </trkpt>
      <trkpt lat="43.37439" lon="-1.75643">
        <ele>38</ele>
        <time>2026-03-06T17:50:57.000Z</time>
      </trkpt>
      <trkpt lat="43.37446" lon="-1.7565">
        <ele>37</ele>
        <time>2026-03-06T17:50:59.000Z</time>
      </trkpt>
      <trkpt lat="43.3745" lon="-1.75655">
        <ele>36</ele>
        <time>2026-03-06T17:50:59.000Z</time>
      </trkpt>
      <trkpt lat="43.37453" lon="-1.7566">
        <ele>36</ele>
        <time>2026-03-06T17:51:00.000Z</time>
      </trkpt>
      <trkpt lat="43.37458" lon="-1.7567">
        <ele>35</ele>
        <time>2026-03-06T17:51:02.000Z</time>
      </trkpt>
      <trkpt lat="43.37461" lon="-1.75675">
        <ele>35</ele>
        <time>2026-03-06T17:51:03.000Z</time>
      </trkpt>
      <trkpt lat="43.37463" lon="-1.7568">
        <ele>34</ele>
        <time>2026-03-06T17:51:03.000Z</time>
      </trkpt>
      <trkpt lat="43.37465" lon="-1.7569">
        <ele>34</ele>
        <time>2026-03-06T17:51:05.000Z</time>
      </trkpt>
      <trkpt lat="43.37467" lon="-1.75702">
        <ele>33</ele>
        <time>2026-03-06T17:51:06.000Z</time>
      </trkpt>
      <trkpt lat="43.37467" lon="-1.75717">
        <ele>33</ele>
        <time>2026-03-06T17:51:08.000Z</time>
      </trkpt>
      <trkpt lat="43.37467" lon="-1.7573">
        <ele>33</ele>
        <time>2026-03-06T17:51:10.000Z</time>
      </trkpt>
      <trkpt lat="43.37464" lon="-1.75744">
        <ele>33</ele>
        <time>2026-03-06T17:51:12.000Z</time>
      </trkpt>
      <trkpt lat="43.37461" lon="-1.75757">
        <ele>32</ele>
        <time>2026-03-06T17:51:14.000Z</time>
      </trkpt>
      <trkpt lat="43.37455" lon="-1.7577">
        <ele>32</ele>
        <time>2026-03-06T17:51:16.000Z</time>
      </trkpt>
      <trkpt lat="43.37447" lon="-1.75784">
        <ele>32</ele>
        <time>2026-03-06T17:51:18.000Z</time>
      </trkpt>
      <trkpt lat="43.37396" lon="-1.7585">
        <ele>30</ele>
        <time>2026-03-06T17:51:30.000Z</time>
      </trkpt>
      <trkpt lat="43.37382" lon="-1.75868">
        <ele>28</ele>
        <time>2026-03-06T17:51:34.000Z</time>
      </trkpt>
      <trkpt lat="43.37376" lon="-1.75878">
        <ele>28</ele>
        <time>2026-03-06T17:51:36.000Z</time>
      </trkpt>
      <trkpt lat="43.37372" lon="-1.75887">
        <ele>27</ele>
        <time>2026-03-06T17:51:37.000Z</time>
      </trkpt>
      <trkpt lat="43.37368" lon="-1.75897">
        <ele>26</ele>
        <time>2026-03-06T17:51:38.000Z</time>
      </trkpt>
      <trkpt lat="43.37364" lon="-1.75913">
        <ele>25</ele>
        <time>2026-03-06T17:51:41.000Z</time>
      </trkpt>
      <trkpt lat="43.37363" lon="-1.75929">
        <ele>24</ele>
        <time>2026-03-06T17:51:43.000Z</time>
      </trkpt>
      <trkpt lat="43.37362" lon="-1.75941">
        <ele>23</ele>
        <time>2026-03-06T17:51:44.000Z</time>
      </trkpt>
      <trkpt lat="43.37363" lon="-1.75955">
        <ele>22</ele>
        <time>2026-03-06T17:51:46.000Z</time>
      </trkpt>
      <trkpt lat="43.37365" lon="-1.75965">
        <ele>22</ele>
        <time>2026-03-06T17:51:47.000Z</time>
      </trkpt>
      <trkpt lat="43.37366" lon="-1.75972">
        <ele>22</ele>
        <time>2026-03-06T17:51:48.000Z</time>
      </trkpt>
      <trkpt lat="43.37369" lon="-1.75981">
        <ele>21</ele>
        <time>2026-03-06T17:51:50.000Z</time>
      </trkpt>
      <trkpt lat="43.37373" lon="-1.75993">
        <ele>20</ele>
        <time>2026-03-06T17:51:51.000Z</time>
      </trkpt>
      <trkpt lat="43.37377" lon="-1.76">
        <ele>20</ele>
        <time>2026-03-06T17:51:52.000Z</time>
      </trkpt>
      <trkpt lat="43.37382" lon="-1.76008">
        <ele>20</ele>
        <time>2026-03-06T17:51:54.000Z</time>
      </trkpt>
      <trkpt lat="43.37388" lon="-1.76016">
        <ele>19</ele>
        <time>2026-03-06T17:51:55.000Z</time>
      </trkpt>
      <trkpt lat="43.37397" lon="-1.76025">
        <ele>19</ele>
        <time>2026-03-06T17:51:57.000Z</time>
      </trkpt>
      <trkpt lat="43.37405" lon="-1.76031">
        <ele>18</ele>
        <time>2026-03-06T17:51:59.000Z</time>
      </trkpt>
      <trkpt lat="43.37415" lon="-1.76036">
        <ele>18</ele>
        <time>2026-03-06T17:52:01.000Z</time>
      </trkpt>
      <trkpt lat="43.37425" lon="-1.76041">
        <ele>17</ele>
        <time>2026-03-06T17:52:03.000Z</time>
      </trkpt>
      <trkpt lat="43.37442" lon="-1.76047">
        <ele>16</ele>
        <time>2026-03-06T17:52:06.000Z</time>
      </trkpt>
      <trkpt lat="43.37453" lon="-1.76051">
        <ele>15</ele>
        <time>2026-03-06T17:52:08.000Z</time>
      </trkpt>
      <trkpt lat="43.37462" lon="-1.76056">
        <ele>15</ele>
        <time>2026-03-06T17:52:10.000Z</time>
      </trkpt>
      <trkpt lat="43.37474" lon="-1.76064">
        <ele>14</ele>
        <time>2026-03-06T17:52:12.000Z</time>
      </trkpt>
      <trkpt lat="43.37482" lon="-1.76071">
        <ele>13</ele>
        <time>2026-03-06T17:52:14.000Z</time>
      </trkpt>
      <trkpt lat="43.37492" lon="-1.7608">
        <ele>13</ele>
        <time>2026-03-06T17:52:16.000Z</time>
      </trkpt>
      <trkpt lat="43.37499" lon="-1.76086">
        <ele>12</ele>
        <time>2026-03-06T17:52:17.000Z</time>
      </trkpt>
      <trkpt lat="43.37512" lon="-1.76102">
        <ele>12</ele>
        <time>2026-03-06T17:52:20.000Z</time>
      </trkpt>
      <trkpt lat="43.37517" lon="-1.76109">
        <ele>11</ele>
        <time>2026-03-06T17:52:22.000Z</time>
      </trkpt>
      <trkpt lat="43.37525" lon="-1.76123">
        <ele>11</ele>
        <time>2026-03-06T17:52:24.000Z</time>
      </trkpt>
      <trkpt lat="43.37535" lon="-1.76141">
        <ele>10</ele>
        <time>2026-03-06T17:52:27.000Z</time>
      </trkpt>
      <trkpt lat="43.37541" lon="-1.76156">
        <ele>9</ele>
        <time>2026-03-06T17:52:29.000Z</time>
      </trkpt>
      <trkpt lat="43.37547" lon="-1.76175">
        <ele>8</ele>
        <time>2026-03-06T17:52:32.000Z</time>
      </trkpt>
      <trkpt lat="43.37555" lon="-1.76209">
        <ele>7</ele>
        <time>2026-03-06T17:52:36.000Z</time>
      </trkpt>
      <trkpt lat="43.37561" lon="-1.76243">
        <ele>6</ele>
        <time>2026-03-06T17:52:41.000Z</time>
      </trkpt>
      <trkpt lat="43.37563" lon="-1.7626">
        <ele>5</ele>
        <time>2026-03-06T17:52:43.000Z</time>
      </trkpt>
      <trkpt lat="43.37563" lon="-1.76276">
        <ele>5</ele>
        <time>2026-03-06T17:52:45.000Z</time>
      </trkpt>
      <trkpt lat="43.3756" lon="-1.76293">
        <ele>4</ele>
        <time>2026-03-06T17:52:47.000Z</time>
      </trkpt>
      <trkpt lat="43.37557" lon="-1.76308">
        <ele>4</ele>
        <time>2026-03-06T17:52:49.000Z</time>
      </trkpt>
      <trkpt lat="43.37526" lon="-1.76433">
        <ele>6</ele>
        <time>2026-03-06T17:53:06.000Z</time>
      </trkpt>
      <trkpt lat="43.37473" lon="-1.76656">
        <ele>3</ele>
        <time>2026-03-06T17:53:37.000Z</time>
      </trkpt>
      <trkpt lat="43.37444" lon="-1.76783">
        <ele>4</ele>
        <time>2026-03-06T17:53:54.000Z</time>
      </trkpt>
      <trkpt lat="43.37426" lon="-1.76879">
        <ele>3</ele>
        <time>2026-03-06T17:54:07.000Z</time>
      </trkpt>
      <trkpt lat="43.37399" lon="-1.76998">
        <ele>2</ele>
        <time>2026-03-06T17:54:23.000Z</time>
      </trkpt>
      <trkpt lat="43.37371" lon="-1.77124">
        <ele>4</ele>
        <time>2026-03-06T17:54:40.000Z</time>
      </trkpt>
      <trkpt lat="43.37346" lon="-1.77249">
        <ele>4</ele>
        <time>2026-03-06T17:54:57.000Z</time>
      </trkpt>
      <trkpt lat="43.37333" lon="-1.77314">
        <ele>4</ele>
        <time>2026-03-06T17:55:05.000Z</time>
      </trkpt>
      <trkpt lat="43.37333" lon="-1.77322">
        <ele>4</ele>
        <time>2026-03-06T17:55:07.000Z</time>
      </trkpt>
      <trkpt lat="43.37333" lon="-1.77331">
        <ele>4</ele>
        <time>2026-03-06T17:55:08.000Z</time>
      </trkpt>
      <trkpt lat="43.37332" lon="-1.77338">
        <ele>4</ele>
        <time>2026-03-06T17:55:09.000Z</time>
      </trkpt>
      <trkpt lat="43.37331" lon="-1.77347">
        <ele>5</ele>
        <time>2026-03-06T17:55:10.000Z</time>
      </trkpt>
      <trkpt lat="43.37329" lon="-1.77353">
        <ele>5</ele>
        <time>2026-03-06T17:55:11.000Z</time>
      </trkpt>
      <trkpt lat="43.37328" lon="-1.77356">
        <ele>5</ele>
        <time>2026-03-06T17:55:11.000Z</time>
      </trkpt>
      <trkpt lat="43.37322" lon="-1.7738">
        <ele>6</ele>
        <time>2026-03-06T17:55:14.000Z</time>
      </trkpt>
      <trkpt lat="43.3732" lon="-1.77393">
        <ele>7</ele>
        <time>2026-03-06T17:55:16.000Z</time>
      </trkpt>
      <trkpt lat="43.3732" lon="-1.77393">
        <ele>7</ele>
        <time>2026-03-06T17:55:16.000Z</time>
      </trkpt>
      <trkpt lat="43.37321" lon="-1.77396">
        <ele>7</ele>
        <time>2026-03-06T17:55:17.000Z</time>
      </trkpt>
      <trkpt lat="43.37322" lon="-1.77398">
        <ele>7</ele>
        <time>2026-03-06T17:55:17.000Z</time>
      </trkpt>
      <trkpt lat="43.37322" lon="-1.77401">
        <ele>7</ele>
        <time>2026-03-06T17:55:17.000Z</time>
      </trkpt>
      <trkpt lat="43.37321" lon="-1.77404">
        <ele>7</ele>
        <time>2026-03-06T17:55:18.000Z</time>
      </trkpt>
      <trkpt lat="43.3732" lon="-1.77407">
        <ele>8</ele>
        <time>2026-03-06T17:55:18.000Z</time>
      </trkpt>
      <trkpt lat="43.37318" lon="-1.77409">
        <ele>8</ele>
        <time>2026-03-06T17:55:18.000Z</time>
      </trkpt>
      <trkpt lat="43.37313" lon="-1.77456">
        <ele>7</ele>
        <time>2026-03-06T17:55:25.000Z</time>
      </trkpt>
      <trkpt lat="43.37312" lon="-1.77462">
        <ele>7</ele>
        <time>2026-03-06T17:55:25.000Z</time>
      </trkpt>
      <trkpt lat="43.37311" lon="-1.77468">
        <ele>7</ele>
        <time>2026-03-06T17:55:26.000Z</time>
      </trkpt>
      <trkpt lat="43.37311" lon="-1.77481">
        <ele>6</ele>
        <time>2026-03-06T17:55:28.000Z</time>
      </trkpt>
      <trkpt lat="43.37309" lon="-1.77502">
        <ele>6</ele>
        <time>2026-03-06T17:55:31.000Z</time>
      </trkpt>
      <trkpt lat="43.37298" lon="-1.77569">
        <ele>5</ele>
        <time>2026-03-06T17:55:40.000Z</time>
      </trkpt>
      <trkpt lat="43.37278" lon="-1.77711">
        <ele>4</ele>
        <time>2026-03-06T17:55:58.000Z</time>
      </trkpt>
      <trkpt lat="43.37273" lon="-1.77751">
        <ele>5</ele>
        <time>2026-03-06T17:56:03.000Z</time>
      </trkpt>
      <trkpt lat="43.37265" lon="-1.77818">
        <ele>4</ele>
        <time>2026-03-06T17:56:12.000Z</time>
      </trkpt>
      <trkpt lat="43.37259" lon="-1.77881">
        <ele>3</ele>
        <time>2026-03-06T17:56:20.000Z</time>
      </trkpt>
      <trkpt lat="43.37257" lon="-1.779">
        <ele>2</ele>
        <time>2026-03-06T17:56:23.000Z</time>
      </trkpt>
      <trkpt lat="43.37246" lon="-1.77981">
        <ele>2</ele>
        <time>2026-03-06T17:56:34.000Z</time>
      </trkpt>
      <trkpt lat="43.37242" lon="-1.78012">
        <ele>3</ele>
        <time>2026-03-06T17:56:38.000Z</time>
      </trkpt>
      <trkpt lat="43.37232" lon="-1.78094">
        <ele>4</ele>
        <time>2026-03-06T17:56:48.000Z</time>
      </trkpt>
      <trkpt lat="43.37213" lon="-1.78203">
        <ele>2</ele>
        <time>2026-03-06T17:57:03.000Z</time>
      </trkpt>
      <trkpt lat="43.37195" lon="-1.78312">
        <ele>3</ele>
        <time>2026-03-06T17:57:17.000Z</time>
      </trkpt>
      <trkpt lat="43.37189" lon="-1.78345">
        <ele>3</ele>
        <time>2026-03-06T17:57:22.000Z</time>
      </trkpt>
      <trkpt lat="43.37164" lon="-1.78467">
        <ele>5</ele>
        <time>2026-03-06T17:57:38.000Z</time>
      </trkpt>
      <trkpt lat="43.37138" lon="-1.78588">
        <ele>4</ele>
        <time>2026-03-06T17:57:55.000Z</time>
      </trkpt>
      <trkpt lat="43.3713" lon="-1.78627">
        <ele>2</ele>
        <time>2026-03-06T17:58:00.000Z</time>
      </trkpt>
      <trkpt lat="43.37129" lon="-1.78628">
        <ele>2</ele>
        <time>2026-03-06T17:58:00.000Z</time>
      </trkpt>
      <trkpt lat="43.37128" lon="-1.7863">
        <ele>2</ele>
        <time>2026-03-06T17:58:00.000Z</time>
      </trkpt>
      <trkpt lat="43.37127" lon="-1.78633">
        <ele>2</ele>
        <time>2026-03-06T17:58:01.000Z</time>
      </trkpt>
      <trkpt lat="43.37124" lon="-1.78637">
        <ele>2</ele>
        <time>2026-03-06T17:58:01.000Z</time>
      </trkpt>
      <trkpt lat="43.37122" lon="-1.78638">
        <ele>2</ele>
        <time>2026-03-06T17:58:02.000Z</time>
      </trkpt>
      <trkpt lat="43.37121" lon="-1.78639">
        <ele>2</ele>
        <time>2026-03-06T17:58:02.000Z</time>
      </trkpt>
      <trkpt lat="43.37117" lon="-1.78641">
        <ele>2</ele>
        <time>2026-03-06T17:58:03.000Z</time>
      </trkpt>
      <trkpt lat="43.37117" lon="-1.78641">
        <ele>2</ele>
        <time>2026-03-06T17:58:03.000Z</time>
      </trkpt>
      <trkpt lat="43.37116" lon="-1.7864">
        <ele>2</ele>
        <time>2026-03-06T17:58:03.000Z</time>
      </trkpt>
      <trkpt lat="43.37114" lon="-1.78639">
        <ele>2</ele>
        <time>2026-03-06T17:58:03.000Z</time>
      </trkpt>
      <trkpt lat="43.37102" lon="-1.78628">
        <ele>3</ele>
        <time>2026-03-06T17:58:06.000Z</time>
      </trkpt>
      <trkpt lat="43.37083" lon="-1.78613">
        <ele>4</ele>
        <time>2026-03-06T17:58:10.000Z</time>
      </trkpt>
      <trkpt lat="43.37061" lon="-1.78595">
        <ele>3</ele>
        <time>2026-03-06T17:58:14.000Z</time>
      </trkpt>
      <trkpt lat="43.37051" lon="-1.78586">
        <ele>3</ele>
        <time>2026-03-06T17:58:17.000Z</time>
      </trkpt>
      <trkpt lat="43.37047" lon="-1.78582">
        <ele>2</ele>
        <time>2026-03-06T17:58:17.000Z</time>
      </trkpt>
      <trkpt lat="43.37044" lon="-1.78574">
        <ele>2</ele>
        <time>2026-03-06T17:58:19.000Z</time>
      </trkpt>
      <trkpt lat="43.37042" lon="-1.78566">
        <ele>2</ele>
        <time>2026-03-06T17:58:20.000Z</time>
      </trkpt>
      <trkpt lat="43.37041" lon="-1.78558">
        <ele>2</ele>
        <time>2026-03-06T17:58:21.000Z</time>
      </trkpt>
      <trkpt lat="43.3704" lon="-1.78554">
        <ele>2</ele>
        <time>2026-03-06T17:58:21.000Z</time>
      </trkpt>
      <trkpt lat="43.3704" lon="-1.78549">
        <ele>2</ele>
        <time>2026-03-06T17:58:22.000Z</time>
      </trkpt>
      <trkpt lat="43.37041" lon="-1.7854">
        <ele>2</ele>
        <time>2026-03-06T17:58:23.000Z</time>
      </trkpt>
      <trkpt lat="43.37044" lon="-1.78523">
        <ele>3</ele>
        <time>2026-03-06T17:58:25.000Z</time>
      </trkpt>
      <trkpt lat="43.37048" lon="-1.78502">
        <ele>3</ele>
        <time>2026-03-06T17:58:28.000Z</time>
      </trkpt>
      <trkpt lat="43.37049" lon="-1.78495">
        <ele>3</ele>
        <time>2026-03-06T17:58:29.000Z</time>
      </trkpt>
      <trkpt lat="43.37064" lon="-1.78429">
        <ele>3</ele>
        <time>2026-03-06T17:58:38.000Z</time>
      </trkpt>
      <trkpt lat="43.37075" lon="-1.78366">
        <ele>3</ele>
        <time>2026-03-06T17:58:46.000Z</time>
      </trkpt>
      <trkpt lat="43.37082" lon="-1.78328">
        <ele>4</ele>
        <time>2026-03-06T17:58:52.000Z</time>
      </trkpt>
      <trkpt lat="43.37084" lon="-1.78314">
        <ele>4</ele>
        <time>2026-03-06T17:58:53.000Z</time>
      </trkpt>
      <trkpt lat="43.37087" lon="-1.78299">
        <ele>4</ele>
        <time>2026-03-06T17:58:55.000Z</time>
      </trkpt>
      <trkpt lat="43.37091" lon="-1.78278">
        <ele>5</ele>
        <time>2026-03-06T17:58:58.000Z</time>
      </trkpt>
      <trkpt lat="43.37106" lon="-1.78189">
        <ele>5</ele>
        <time>2026-03-06T17:59:10.000Z</time>
      </trkpt>
      <trkpt lat="43.37107" lon="-1.78182">
        <ele>5</ele>
        <time>2026-03-06T17:59:11.000Z</time>
      </trkpt>
      <trkpt lat="43.37107" lon="-1.78182">
        <ele>5</ele>
        <time>2026-03-06T17:59:11.000Z</time>
      </trkpt>
      <trkpt lat="43.37102" lon="-1.7818">
        <ele>5</ele>
        <time>2026-03-06T17:59:12.000Z</time>
      </trkpt>
      <trkpt lat="43.37101" lon="-1.78178">
        <ele>5</ele>
        <time>2026-03-06T17:59:12.000Z</time>
      </trkpt>
      <trkpt lat="43.37099" lon="-1.78176">
        <ele>5</ele>
        <time>2026-03-06T17:59:13.000Z</time>
      </trkpt>
      <trkpt lat="43.37088" lon="-1.78144">
        <ele>5</ele>
        <time>2026-03-06T17:59:17.000Z</time>
      </trkpt>
      <trkpt lat="43.37077" lon="-1.7812">
        <ele>5</ele>
        <time>2026-03-06T17:59:21.000Z</time>
      </trkpt>
      <trkpt lat="43.37056" lon="-1.78078">
        <ele>5</ele>
        <time>2026-03-06T17:59:27.000Z</time>
      </trkpt>
      <trkpt lat="43.37056" lon="-1.78078">
        <ele>5</ele>
        <time>2026-03-06T17:59:27.000Z</time>
      </trkpt>
      <trkpt lat="43.3705" lon="-1.78084">
        <ele>5</ele>
        <time>2026-03-06T17:59:29.000Z</time>
      </trkpt>
      <trkpt lat="43.37042" lon="-1.78088">
        <ele>4</ele>
        <time>2026-03-06T17:59:30.000Z</time>
      </trkpt>
      <trkpt lat="43.37035" lon="-1.78089">
        <ele>4</ele>
        <time>2026-03-06T17:59:32.000Z</time>
      </trkpt>
      <trkpt lat="43.37028" lon="-1.78087">
        <ele>4</ele>
        <time>2026-03-06T17:59:33.000Z</time>
      </trkpt>
      <trkpt lat="43.37021" lon="-1.78084">
        <ele>4</ele>
        <time>2026-03-06T17:59:34.000Z</time>
      </trkpt>
      <trkpt lat="43.37014" lon="-1.78077">
        <ele>4</ele>
        <time>2026-03-06T17:59:36.000Z</time>
      </trkpt>
      <trkpt lat="43.3701" lon="-1.78068">
        <ele>3</ele>
        <time>2026-03-06T17:59:37.000Z</time>
      </trkpt>
      <trkpt lat="43.37006" lon="-1.78058">
        <ele>3</ele>
        <time>2026-03-06T17:59:38.000Z</time>
      </trkpt>
      <trkpt lat="43.37005" lon="-1.78046">
        <ele>3</ele>
        <time>2026-03-06T17:59:40.000Z</time>
      </trkpt>
      <trkpt lat="43.37004" lon="-1.78033">
        <ele>3</ele>
        <time>2026-03-06T17:59:42.000Z</time>
      </trkpt>
      <trkpt lat="43.37005" lon="-1.78022">
        <ele>3</ele>
        <time>2026-03-06T17:59:43.000Z</time>
      </trkpt>
      <trkpt lat="43.37007" lon="-1.78013">
        <ele>3</ele>
        <time>2026-03-06T17:59:44.000Z</time>
      </trkpt>
      <trkpt lat="43.3701" lon="-1.78003">
        <ele>3</ele>
        <time>2026-03-06T17:59:46.000Z</time>
      </trkpt>
      <trkpt lat="43.37014" lon="-1.77995">
        <ele>4</ele>
        <time>2026-03-06T17:59:47.000Z</time>
      </trkpt>
      <trkpt lat="43.37016" lon="-1.77992">
        <ele>4</ele>
        <time>2026-03-06T17:59:48.000Z</time>
      </trkpt>
      <trkpt lat="43.37011" lon="-1.77978">
        <ele>4</ele>
        <time>2026-03-06T17:59:50.000Z</time>
      </trkpt>
      <trkpt lat="43.3701" lon="-1.77973">
        <ele>4</ele>
        <time>2026-03-06T17:59:50.000Z</time>
      </trkpt>
      <trkpt lat="43.37008" lon="-1.77966">
        <ele>4</ele>
        <time>2026-03-06T17:59:51.000Z</time>
      </trkpt>
      <trkpt lat="43.37007" lon="-1.77961">
        <ele>4</ele>
        <time>2026-03-06T17:59:52.000Z</time>
      </trkpt>
      <trkpt lat="43.37005" lon="-1.77953">
        <ele>4</ele>
        <time>2026-03-06T17:59:53.000Z</time>
      </trkpt>
      <trkpt lat="43.37001" lon="-1.77938">
        <ele>5</ele>
        <time>2026-03-06T17:59:55.000Z</time>
      </trkpt>
      <trkpt lat="43.37" lon="-1.77928">
        <ele>5</ele>
        <time>2026-03-06T17:59:56.000Z</time>
      </trkpt>
      <trkpt lat="43.37001" lon="-1.77918">
        <ele>5</ele>
        <time>2026-03-06T17:59:58.000Z</time>
      </trkpt>
      <trkpt lat="43.37003" lon="-1.77903">
        <ele>5</ele>
        <time>2026-03-06T18:00:00.000Z</time>
      </trkpt>
      <trkpt lat="43.37009" lon="-1.77882">
        <ele>5</ele>
        <time>2026-03-06T18:00:03.000Z</time>
      </trkpt>
      <trkpt lat="43.3701" lon="-1.77879">
        <ele>5</ele>
        <time>2026-03-06T18:00:03.000Z</time>
      </trkpt>
      <trkpt lat="43.37014" lon="-1.77865">
        <ele>5</ele>
        <time>2026-03-06T18:00:05.000Z</time>
      </trkpt>
      <trkpt lat="43.37019" lon="-1.77843">
        <ele>4</ele>
        <time>2026-03-06T18:00:08.000Z</time>
      </trkpt>
      <trkpt lat="43.37025" lon="-1.77815">
        <ele>4</ele>
        <time>2026-03-06T18:00:12.000Z</time>
      </trkpt>
      <trkpt lat="43.37028" lon="-1.77802">
        <ele>4</ele>
        <time>2026-03-06T18:00:13.000Z</time>
      </trkpt>
      <trkpt lat="43.37031" lon="-1.77791">
        <ele>4</ele>
        <time>2026-03-06T18:00:15.000Z</time>
      </trkpt>
      <trkpt lat="43.37035" lon="-1.77769">
        <ele>4</ele>
        <time>2026-03-06T18:00:18.000Z</time>
      </trkpt>
      <trkpt lat="43.37036" lon="-1.77744">
        <ele>4</ele>
        <time>2026-03-06T18:00:21.000Z</time>
      </trkpt>
      <trkpt lat="43.37036" lon="-1.77744">
        <ele>4</ele>
        <time>2026-03-06T18:00:21.000Z</time>
      </trkpt>
      <trkpt lat="43.37035" lon="-1.77744">
        <ele>4</ele>
        <time>2026-03-06T18:00:21.000Z</time>
      </trkpt>
      <trkpt lat="43.37035" lon="-1.77743">
        <ele>4</ele>
        <time>2026-03-06T18:00:21.000Z</time>
      </trkpt>
      <trkpt lat="43.37034" lon="-1.77743">
        <ele>4</ele>
        <time>2026-03-06T18:00:22.000Z</time>
      </trkpt>
      <trkpt lat="43.37033" lon="-1.77743">
        <ele>4</ele>
        <time>2026-03-06T18:00:22.000Z</time>
      </trkpt>
      <trkpt lat="43.37033" lon="-1.77742">
        <ele>4</ele>
        <time>2026-03-06T18:00:22.000Z</time>
      </trkpt>
      <trkpt lat="43.37032" lon="-1.77742">
        <ele>4</ele>
        <time>2026-03-06T18:00:22.000Z</time>
      </trkpt>
      <trkpt lat="43.37032" lon="-1.77741">
        <ele>4</ele>
        <time>2026-03-06T18:00:22.000Z</time>
      </trkpt>
      <trkpt lat="43.37032" lon="-1.7774">
        <ele>4</ele>
        <time>2026-03-06T18:00:22.000Z</time>
      </trkpt>
      <trkpt lat="43.37031" lon="-1.7774">
        <ele>4</ele>
        <time>2026-03-06T18:00:23.000Z</time>
      </trkpt>
      <trkpt lat="43.37031" lon="-1.77739">
        <ele>4</ele>
        <time>2026-03-06T18:00:23.000Z</time>
      </trkpt>
      <trkpt lat="43.37031" lon="-1.77738">
        <ele>4</ele>
        <time>2026-03-06T18:00:23.000Z</time>
      </trkpt>
      <trkpt lat="43.37031" lon="-1.77737">
        <ele>4</ele>
        <time>2026-03-06T18:00:23.000Z</time>
      </trkpt>
      <trkpt lat="43.3703" lon="-1.77737">
        <ele>4</ele>
        <time>2026-03-06T18:00:23.000Z</time>
      </trkpt>
      <trkpt lat="43.3703" lon="-1.77736">
        <ele>4</ele>
        <time>2026-03-06T18:00:23.000Z</time>
      </trkpt>
      <trkpt lat="43.3703" lon="-1.77735">
        <ele>4</ele>
        <time>2026-03-06T18:00:23.000Z</time>
      </trkpt>
      <trkpt lat="43.3703" lon="-1.77734">
        <ele>4</ele>
        <time>2026-03-06T18:00:24.000Z</time>
      </trkpt>
      <trkpt lat="43.3703" lon="-1.77733">
        <ele>4</ele>
        <time>2026-03-06T18:00:24.000Z</time>
      </trkpt>
      <trkpt lat="43.3703" lon="-1.77732">
        <ele>4</ele>
        <time>2026-03-06T18:00:24.000Z</time>
      </trkpt>
      <trkpt lat="43.37031" lon="-1.77732">
        <ele>4</ele>
        <time>2026-03-06T18:00:24.000Z</time>
      </trkpt>
      <trkpt lat="43.37031" lon="-1.77731">
        <ele>4</ele>
        <time>2026-03-06T18:00:24.000Z</time>
      </trkpt>
      <trkpt lat="43.37031" lon="-1.7773">
        <ele>4</ele>
        <time>2026-03-06T18:00:24.000Z</time>
      </trkpt>
      <trkpt lat="43.37032" lon="-1.77729">
        <ele>4</ele>
        <time>2026-03-06T18:00:24.000Z</time>
      </trkpt>
      <trkpt lat="43.37032" lon="-1.77728">
        <ele>4</ele>
        <time>2026-03-06T18:00:25.000Z</time>
      </trkpt>
      <trkpt lat="43.37033" lon="-1.77728">
        <ele>4</ele>
        <time>2026-03-06T18:00:25.000Z</time>
      </trkpt>
      <trkpt lat="43.37033" lon="-1.77727">
        <ele>4</ele>
        <time>2026-03-06T18:00:25.000Z</time>
      </trkpt>
      <trkpt lat="43.37034" lon="-1.77727">
        <ele>4</ele>
        <time>2026-03-06T18:00:25.000Z</time>
      </trkpt>
      <trkpt lat="43.37034" lon="-1.77726">
        <ele>4</ele>
        <time>2026-03-06T18:00:25.000Z</time>
      </trkpt>
      <trkpt lat="43.37035" lon="-1.77726">
        <ele>4</ele>
        <time>2026-03-06T18:00:25.000Z</time>
      </trkpt>
      <trkpt lat="43.37036" lon="-1.77726">
        <ele>4</ele>
        <time>2026-03-06T18:00:26.000Z</time>
      </trkpt>
      <trkpt lat="43.37037" lon="-1.77725">
        <ele>4</ele>
        <time>2026-03-06T18:00:26.000Z</time>
      </trkpt>
      <trkpt lat="43.37037" lon="-1.77726">
        <ele>4</ele>
        <time>2026-03-06T18:00:26.000Z</time>
      </trkpt>
      <trkpt lat="43.37038" lon="-1.77726">
        <ele>4</ele>
        <time>2026-03-06T18:00:26.000Z</time>
      </trkpt>
      <trkpt lat="43.37042" lon="-1.77718">
        <ele>4</ele>
        <time>2026-03-06T18:00:27.000Z</time>
      </trkpt>
      <trkpt lat="43.37046" lon="-1.77702">
        <ele>3</ele>
        <time>2026-03-06T18:00:29.000Z</time>
      </trkpt>
      <trkpt lat="43.37052" lon="-1.77664">
        <ele>3</ele>
        <time>2026-03-06T18:00:35.000Z</time>
      </trkpt>
      <trkpt lat="43.37057" lon="-1.77634">
        <ele>4</ele>
        <time>2026-03-06T18:00:39.000Z</time>
      </trkpt>
      <trkpt lat="43.37062" lon="-1.77609">
        <ele>4</ele>
        <time>2026-03-06T18:00:42.000Z</time>
      </trkpt>
      <trkpt lat="43.37064" lon="-1.77593">
        <ele>4</ele>
        <time>2026-03-06T18:00:44.000Z</time>
      </trkpt>
      <trkpt lat="43.37064" lon="-1.77584">
        <ele>4</ele>
        <time>2026-03-06T18:00:45.000Z</time>
      </trkpt>
      <trkpt lat="43.37065" lon="-1.77574">
        <ele>4</ele>
        <time>2026-03-06T18:00:46.000Z</time>
      </trkpt>
      <trkpt lat="43.37065" lon="-1.77554">
        <ele>5</ele>
        <time>2026-03-06T18:00:49.000Z</time>
      </trkpt>
      <trkpt lat="43.37064" lon="-1.7753">
        <ele>5</ele>
        <time>2026-03-06T18:00:52.000Z</time>
      </trkpt>
      <trkpt lat="43.37061" lon="-1.77505">
        <ele>5</ele>
        <time>2026-03-06T18:00:55.000Z</time>
      </trkpt>
      <trkpt lat="43.37058" lon="-1.77483">
        <ele>5</ele>
        <time>2026-03-06T18:00:58.000Z</time>
      </trkpt>
      <trkpt lat="43.37052" lon="-1.77462">
        <ele>5</ele>
        <time>2026-03-06T18:01:01.000Z</time>
      </trkpt>
      <trkpt lat="43.37046" lon="-1.77442">
        <ele>5</ele>
        <time>2026-03-06T18:01:04.000Z</time>
      </trkpt>
      <trkpt lat="43.37043" lon="-1.77434">
        <ele>6</ele>
        <time>2026-03-06T18:01:05.000Z</time>
      </trkpt>
      <trkpt lat="43.3704" lon="-1.77423">
        <ele>6</ele>
        <time>2026-03-06T18:01:07.000Z</time>
      </trkpt>
      <trkpt lat="43.37033" lon="-1.77408">
        <ele>6</ele>
        <time>2026-03-06T18:01:09.000Z</time>
      </trkpt>
      <trkpt lat="43.37026" lon="-1.77393">
        <ele>5</ele>
        <time>2026-03-06T18:01:11.000Z</time>
      </trkpt>
      <trkpt lat="43.37025" lon="-1.77389">
        <ele>5</ele>
        <time>2026-03-06T18:01:12.000Z</time>
      </trkpt>
      <trkpt lat="43.37021" lon="-1.77382">
        <ele>5</ele>
        <time>2026-03-06T18:01:13.000Z</time>
      </trkpt>
      <trkpt lat="43.37017" lon="-1.77374">
        <ele>5</ele>
        <time>2026-03-06T18:01:14.000Z</time>
      </trkpt>
      <trkpt lat="43.37014" lon="-1.7737">
        <ele>5</ele>
        <time>2026-03-06T18:01:15.000Z</time>
      </trkpt>
      <trkpt lat="43.37005" lon="-1.77356">
        <ele>5</ele>
        <time>2026-03-06T18:01:17.000Z</time>
      </trkpt>
      <trkpt lat="43.36994" lon="-1.77341">
        <ele>5</ele>
        <time>2026-03-06T18:01:20.000Z</time>
      </trkpt>
      <trkpt lat="43.36986" lon="-1.7733">
        <ele>4</ele>
        <time>2026-03-06T18:01:22.000Z</time>
      </trkpt>
      <trkpt lat="43.3698" lon="-1.77322">
        <ele>4</ele>
        <time>2026-03-06T18:01:24.000Z</time>
      </trkpt>
      <trkpt lat="43.36961" lon="-1.773">
        <ele>3</ele>
        <time>2026-03-06T18:01:28.000Z</time>
      </trkpt>
      <trkpt lat="43.36925" lon="-1.77256">
        <ele>2</ele>
        <time>2026-03-06T18:01:37.000Z</time>
      </trkpt>
      <trkpt lat="43.36915" lon="-1.77244">
        <ele>2</ele>
        <time>2026-03-06T18:01:39.000Z</time>
      </trkpt>
      <trkpt lat="43.36904" lon="-1.77233">
        <ele>2</ele>
        <time>2026-03-06T18:01:41.000Z</time>
      </trkpt>
      <trkpt lat="43.36902" lon="-1.77231">
        <ele>2</ele>
        <time>2026-03-06T18:01:42.000Z</time>
      </trkpt>
      <trkpt lat="43.36893" lon="-1.77224">
        <ele>2</ele>
        <time>2026-03-06T18:01:44.000Z</time>
      </trkpt>
      <trkpt lat="43.3689" lon="-1.77221">
        <ele>3</ele>
        <time>2026-03-06T18:01:44.000Z</time>
      </trkpt>
      <trkpt lat="43.3688" lon="-1.77212">
        <ele>3</ele>
        <time>2026-03-06T18:01:47.000Z</time>
      </trkpt>
      <trkpt lat="43.36865" lon="-1.77202">
        <ele>3</ele>
        <time>2026-03-06T18:01:49.000Z</time>
      </trkpt>
      <trkpt lat="43.36852" lon="-1.77194">
        <ele>3</ele>
        <time>2026-03-06T18:01:52.000Z</time>
      </trkpt>
      <trkpt lat="43.36849" lon="-1.77191">
        <ele>3</ele>
        <time>2026-03-06T18:01:53.000Z</time>
      </trkpt>
      <trkpt lat="43.36841" lon="-1.77187">
        <ele>3</ele>
        <time>2026-03-06T18:01:54.000Z</time>
      </trkpt>
      <trkpt lat="43.36834" lon="-1.77182">
        <ele>3</ele>
        <time>2026-03-06T18:01:56.000Z</time>
      </trkpt>
      <trkpt lat="43.36773" lon="-1.7714">
        <ele>5</ele>
        <time>2026-03-06T18:02:08.000Z</time>
      </trkpt>
      <trkpt lat="43.36718" lon="-1.77103">
        <ele>5</ele>
        <time>2026-03-06T18:02:19.000Z</time>
      </trkpt>
      <trkpt lat="43.36713" lon="-1.77099">
        <ele>5</ele>
        <time>2026-03-06T18:02:20.000Z</time>
      </trkpt>
      <trkpt lat="43.36703" lon="-1.77093">
        <ele>5</ele>
        <time>2026-03-06T18:02:22.000Z</time>
      </trkpt>
      <trkpt lat="43.36651" lon="-1.77058">
        <ele>4</ele>
        <time>2026-03-06T18:02:32.000Z</time>
      </trkpt>
      <trkpt lat="43.36619" lon="-1.77035">
        <ele>5</ele>
        <time>2026-03-06T18:02:38.000Z</time>
      </trkpt>
      <trkpt lat="43.36617" lon="-1.77034">
        <ele>5</ele>
        <time>2026-03-06T18:02:39.000Z</time>
      </trkpt>
      <trkpt lat="43.36606" lon="-1.77027">
        <ele>6</ele>
        <time>2026-03-06T18:02:41.000Z</time>
      </trkpt>
      <trkpt lat="43.36558" lon="-1.76993">
        <ele>6</ele>
        <time>2026-03-06T18:02:50.000Z</time>
      </trkpt>
      <trkpt lat="43.36539" lon="-1.76988">
        <ele>5</ele>
        <time>2026-03-06T18:02:54.000Z</time>
      </trkpt>
      <trkpt lat="43.36523" lon="-1.76978">
        <ele>5</ele>
        <time>2026-03-06T18:02:57.000Z</time>
      </trkpt>
      <trkpt lat="43.3652" lon="-1.76976">
        <ele>5</ele>
        <time>2026-03-06T18:02:58.000Z</time>
      </trkpt>
      <trkpt lat="43.3652" lon="-1.76976">
        <ele>5</ele>
        <time>2026-03-06T18:02:58.000Z</time>
      </trkpt>
      <trkpt lat="43.36517" lon="-1.76977">
        <ele>5</ele>
        <time>2026-03-06T18:02:58.000Z</time>
      </trkpt>
      <trkpt lat="43.36514" lon="-1.76978">
        <ele>5</ele>
        <time>2026-03-06T18:02:59.000Z</time>
      </trkpt>
      <trkpt lat="43.36511" lon="-1.76978">
        <ele>4</ele>
        <time>2026-03-06T18:02:59.000Z</time>
      </trkpt>
      <trkpt lat="43.36507" lon="-1.76978">
        <ele>4</ele>
        <time>2026-03-06T18:03:00.000Z</time>
      </trkpt>
      <trkpt lat="43.36505" lon="-1.76976">
        <ele>4</ele>
        <time>2026-03-06T18:03:00.000Z</time>
      </trkpt>
      <trkpt lat="43.36501" lon="-1.76979">
        <ele>4</ele>
        <time>2026-03-06T18:03:01.000Z</time>
      </trkpt>
      <trkpt lat="43.36495" lon="-1.76981">
        <ele>4</ele>
        <time>2026-03-06T18:03:02.000Z</time>
      </trkpt>
      <trkpt lat="43.36488" lon="-1.76984">
        <ele>5</ele>
        <time>2026-03-06T18:03:04.000Z</time>
      </trkpt>
      <trkpt lat="43.36477" lon="-1.7699">
        <ele>7</ele>
        <time>2026-03-06T18:03:06.000Z</time>
      </trkpt>
      <trkpt lat="43.36459" lon="-1.77001">
        <ele>9</ele>
        <time>2026-03-06T18:03:09.000Z</time>
      </trkpt>
      <trkpt lat="43.36451" lon="-1.77004">
        <ele>10</ele>
        <time>2026-03-06T18:03:11.000Z</time>
      </trkpt>
      <trkpt lat="43.36445" lon="-1.77009">
        <ele>10</ele>
        <time>2026-03-06T18:03:12.000Z</time>
      </trkpt>
      <trkpt lat="43.36445" lon="-1.7701">
        <ele>10</ele>
        <time>2026-03-06T18:03:12.000Z</time>
      </trkpt>
      <trkpt lat="43.36438" lon="-1.77019">
        <ele>11</ele>
        <time>2026-03-06T18:03:14.000Z</time>
      </trkpt>
      <trkpt lat="43.36428" lon="-1.77033">
        <ele>11</ele>
        <time>2026-03-06T18:03:16.000Z</time>
      </trkpt>
      <trkpt lat="43.36417" lon="-1.7705">
        <ele>10</ele>
        <time>2026-03-06T18:03:19.000Z</time>
      </trkpt>
      <trkpt lat="43.36399" lon="-1.77082">
        <ele>11</ele>
        <time>2026-03-06T18:03:24.000Z</time>
      </trkpt>
      <trkpt lat="43.36393" lon="-1.77091">
        <ele>11</ele>
        <time>2026-03-06T18:03:26.000Z</time>
      </trkpt>
      <trkpt lat="43.36389" lon="-1.77096">
        <ele>12</ele>
        <time>2026-03-06T18:03:27.000Z</time>
      </trkpt>
      <trkpt lat="43.36387" lon="-1.77099">
        <ele>12</ele>
        <time>2026-03-06T18:03:28.000Z</time>
      </trkpt>
      <trkpt lat="43.36384" lon="-1.77102">
        <ele>13</ele>
        <time>2026-03-06T18:03:28.000Z</time>
      </trkpt>
      <trkpt lat="43.36376" lon="-1.77112">
        <ele>14</ele>
        <time>2026-03-06T18:03:30.000Z</time>
      </trkpt>
      <trkpt lat="43.36361" lon="-1.77126">
        <ele>15</ele>
        <time>2026-03-06T18:03:33.000Z</time>
      </trkpt>
      <trkpt lat="43.36343" lon="-1.77143">
        <ele>17</ele>
        <time>2026-03-06T18:03:37.000Z</time>
      </trkpt>
      <trkpt lat="43.36336" lon="-1.77149">
        <ele>17</ele>
        <time>2026-03-06T18:03:39.000Z</time>
      </trkpt>
      <trkpt lat="43.36331" lon="-1.77151">
        <ele>17</ele>
        <time>2026-03-06T18:03:40.000Z</time>
      </trkpt>
      <trkpt lat="43.36326" lon="-1.77153">
        <ele>17</ele>
        <time>2026-03-06T18:03:41.000Z</time>
      </trkpt>
      <trkpt lat="43.36319" lon="-1.77155">
        <ele>17</ele>
        <time>2026-03-06T18:03:42.000Z</time>
      </trkpt>
      <trkpt lat="43.36314" lon="-1.77155">
        <ele>18</ele>
        <time>2026-03-06T18:03:43.000Z</time>
      </trkpt>
      <trkpt lat="43.36306" lon="-1.77156">
        <ele>18</ele>
        <time>2026-03-06T18:03:44.000Z</time>
      </trkpt>
      <trkpt lat="43.36293" lon="-1.77155">
        <ele>19</ele>
        <time>2026-03-06T18:03:46.000Z</time>
      </trkpt>
      <trkpt lat="43.36286" lon="-1.77155">
        <ele>19</ele>
        <time>2026-03-06T18:03:48.000Z</time>
      </trkpt>
      <trkpt lat="43.36283" lon="-1.77155">
        <ele>19</ele>
        <time>2026-03-06T18:03:48.000Z</time>
      </trkpt>
      <trkpt lat="43.36277" lon="-1.77156">
        <ele>19</ele>
        <time>2026-03-06T18:03:49.000Z</time>
      </trkpt>
      <trkpt lat="43.36273" lon="-1.77156">
        <ele>19</ele>
        <time>2026-03-06T18:03:50.000Z</time>
      </trkpt>
      <trkpt lat="43.36269" lon="-1.77157">
        <ele>19</ele>
        <time>2026-03-06T18:03:51.000Z</time>
      </trkpt>
      <trkpt lat="43.36264" lon="-1.77159">
        <ele>19</ele>
        <time>2026-03-06T18:03:52.000Z</time>
      </trkpt>
      <trkpt lat="43.36256" lon="-1.77162">
        <ele>19</ele>
        <time>2026-03-06T18:03:53.000Z</time>
      </trkpt>
      <trkpt lat="43.36248" lon="-1.77166">
        <ele>18</ele>
        <time>2026-03-06T18:03:55.000Z</time>
      </trkpt>
      <trkpt lat="43.36233" lon="-1.77175">
        <ele>17</ele>
        <time>2026-03-06T18:03:58.000Z</time>
      </trkpt>
      <trkpt lat="43.36228" lon="-1.77179">
        <ele>17</ele>
        <time>2026-03-06T18:03:59.000Z</time>
      </trkpt>
      <trkpt lat="43.36223" lon="-1.77184">
        <ele>16</ele>
        <time>2026-03-06T18:04:00.000Z</time>
      </trkpt>
      <trkpt lat="43.36204" lon="-1.77198">
        <ele>15</ele>
        <time>2026-03-06T18:04:04.000Z</time>
      </trkpt>
      <trkpt lat="43.36203" lon="-1.77198">
        <ele>15</ele>
        <time>2026-03-06T18:04:04.000Z</time>
      </trkpt>
      <trkpt lat="43.36195" lon="-1.77204">
        <ele>14</ele>
        <time>2026-03-06T18:04:05.000Z</time>
      </trkpt>
      <trkpt lat="43.36184" lon="-1.77213">
        <ele>14</ele>
        <time>2026-03-06T18:04:08.000Z</time>
      </trkpt>
      <trkpt lat="43.36184" lon="-1.77213">
        <ele>14</ele>
        <time>2026-03-06T18:04:08.000Z</time>
      </trkpt>
      <trkpt lat="43.36183" lon="-1.77216">
        <ele>13</ele>
        <time>2026-03-06T18:04:08.000Z</time>
      </trkpt>
      <trkpt lat="43.36182" lon="-1.77219">
        <ele>13</ele>
        <time>2026-03-06T18:04:09.000Z</time>
      </trkpt>
      <trkpt lat="43.3618" lon="-1.77221">
        <ele>13</ele>
        <time>2026-03-06T18:04:09.000Z</time>
      </trkpt>
      <trkpt lat="43.36178" lon="-1.77223">
        <ele>12</ele>
        <time>2026-03-06T18:04:09.000Z</time>
      </trkpt>
      <trkpt lat="43.36175" lon="-1.77224">
        <ele>12</ele>
        <time>2026-03-06T18:04:10.000Z</time>
      </trkpt>
      <trkpt lat="43.3617" lon="-1.77236">
        <ele>11</ele>
        <time>2026-03-06T18:04:12.000Z</time>
      </trkpt>
      <trkpt lat="43.36167" lon="-1.77242">
        <ele>10</ele>
        <time>2026-03-06T18:04:13.000Z</time>
      </trkpt>
      <trkpt lat="43.36159" lon="-1.77267">
        <ele>9</ele>
        <time>2026-03-06T18:04:16.000Z</time>
      </trkpt>
      <trkpt lat="43.36158" lon="-1.77271">
        <ele>8</ele>
        <time>2026-03-06T18:04:17.000Z</time>
      </trkpt>
      <trkpt lat="43.36155" lon="-1.77276">
        <ele>8</ele>
        <time>2026-03-06T18:04:18.000Z</time>
      </trkpt>
      <trkpt lat="43.36153" lon="-1.77287">
        <ele>8</ele>
        <time>2026-03-06T18:04:19.000Z</time>
      </trkpt>
      <trkpt lat="43.36151" lon="-1.77292">
        <ele>8</ele>
        <time>2026-03-06T18:04:20.000Z</time>
      </trkpt>
      <trkpt lat="43.36145" lon="-1.77318">
        <ele>8</ele>
        <time>2026-03-06T18:04:23.000Z</time>
      </trkpt>
      <trkpt lat="43.36138" lon="-1.77351">
        <ele>8</ele>
        <time>2026-03-06T18:04:28.000Z</time>
      </trkpt>
      <trkpt lat="43.36133" lon="-1.77369">
        <ele>9</ele>
        <time>2026-03-06T18:04:30.000Z</time>
      </trkpt>
      <trkpt lat="43.36132" lon="-1.77376">
        <ele>9</ele>
        <time>2026-03-06T18:04:31.000Z</time>
      </trkpt>
      <trkpt lat="43.36124" lon="-1.77406">
        <ele>11</ele>
        <time>2026-03-06T18:04:35.000Z</time>
      </trkpt>
      <trkpt lat="43.36123" lon="-1.77411">
        <ele>11</ele>
        <time>2026-03-06T18:04:36.000Z</time>
      </trkpt>
      <trkpt lat="43.36117" lon="-1.77429">
        <ele>12</ele>
        <time>2026-03-06T18:04:39.000Z</time>
      </trkpt>
      <trkpt lat="43.36115" lon="-1.77434">
        <ele>12</ele>
        <time>2026-03-06T18:04:39.000Z</time>
      </trkpt>
      <trkpt lat="43.3611" lon="-1.77446">
        <ele>13</ele>
        <time>2026-03-06T18:04:41.000Z</time>
      </trkpt>
      <trkpt lat="43.36105" lon="-1.77456">
        <ele>14</ele>
        <time>2026-03-06T18:04:43.000Z</time>
      </trkpt>
      <trkpt lat="43.361" lon="-1.77468">
        <ele>14</ele>
        <time>2026-03-06T18:04:44.000Z</time>
      </trkpt>
      <trkpt lat="43.36098" lon="-1.7747">
        <ele>15</ele>
        <time>2026-03-06T18:04:45.000Z</time>
      </trkpt>
      <trkpt lat="43.36093" lon="-1.77479">
        <ele>15</ele>
        <time>2026-03-06T18:04:46.000Z</time>
      </trkpt>
      <trkpt lat="43.36087" lon="-1.77488">
        <ele>16</ele>
        <time>2026-03-06T18:04:48.000Z</time>
      </trkpt>
      <trkpt lat="43.36077" lon="-1.77499">
        <ele>18</ele>
        <time>2026-03-06T18:04:50.000Z</time>
      </trkpt>
      <trkpt lat="43.36067" lon="-1.77511">
        <ele>18</ele>
        <time>2026-03-06T18:04:53.000Z</time>
      </trkpt>
      <trkpt lat="43.36054" lon="-1.77521">
        <ele>18</ele>
        <time>2026-03-06T18:04:55.000Z</time>
      </trkpt>
      <trkpt lat="43.36044" lon="-1.77528">
        <ele>19</ele>
        <time>2026-03-06T18:04:57.000Z</time>
      </trkpt>
      <trkpt lat="43.36037" lon="-1.77531">
        <ele>20</ele>
        <time>2026-03-06T18:04:59.000Z</time>
      </trkpt>
      <trkpt lat="43.36037" lon="-1.77532">
        <ele>20</ele>
        <time>2026-03-06T18:04:59.000Z</time>
      </trkpt>
      <trkpt lat="43.3603" lon="-1.77535">
        <ele>21</ele>
        <time>2026-03-06T18:05:00.000Z</time>
      </trkpt>
      <trkpt lat="43.36028" lon="-1.77537">
        <ele>21</ele>
        <time>2026-03-06T18:05:00.000Z</time>
      </trkpt>
      <trkpt lat="43.36017" lon="-1.7754">
        <ele>22</ele>
        <time>2026-03-06T18:05:02.000Z</time>
      </trkpt>
      <trkpt lat="43.36017" lon="-1.77541">
        <ele>22</ele>
        <time>2026-03-06T18:05:03.000Z</time>
      </trkpt>
      <trkpt lat="43.36016" lon="-1.77542">
        <ele>22</ele>
        <time>2026-03-06T18:05:03.000Z</time>
      </trkpt>
      <trkpt lat="43.36016" lon="-1.77543">
        <ele>22</ele>
        <time>2026-03-06T18:05:03.000Z</time>
      </trkpt>
      <trkpt lat="43.36015" lon="-1.77544">
        <ele>22</ele>
        <time>2026-03-06T18:05:03.000Z</time>
      </trkpt>
      <trkpt lat="43.36014" lon="-1.77545">
        <ele>22</ele>
        <time>2026-03-06T18:05:03.000Z</time>
      </trkpt>
      <trkpt lat="43.36014" lon="-1.77546">
        <ele>22</ele>
        <time>2026-03-06T18:05:03.000Z</time>
      </trkpt>
      <trkpt lat="43.36013" lon="-1.77546">
        <ele>22</ele>
        <time>2026-03-06T18:05:04.000Z</time>
      </trkpt>
      <trkpt lat="43.36013" lon="-1.77547">
        <ele>22</ele>
        <time>2026-03-06T18:05:04.000Z</time>
      </trkpt>
      <trkpt lat="43.36012" lon="-1.77547">
        <ele>22</ele>
        <time>2026-03-06T18:05:04.000Z</time>
      </trkpt>
      <trkpt lat="43.36011" lon="-1.77548">
        <ele>22</ele>
        <time>2026-03-06T18:05:04.000Z</time>
      </trkpt>
      <trkpt lat="43.3601" lon="-1.77548">
        <ele>23</ele>
        <time>2026-03-06T18:05:04.000Z</time>
      </trkpt>
      <trkpt lat="43.36009" lon="-1.77548">
        <ele>23</ele>
        <time>2026-03-06T18:05:04.000Z</time>
      </trkpt>
      <trkpt lat="43.36008" lon="-1.77548">
        <ele>23</ele>
        <time>2026-03-06T18:05:05.000Z</time>
      </trkpt>
      <trkpt lat="43.36007" lon="-1.77548">
        <ele>23</ele>
        <time>2026-03-06T18:05:05.000Z</time>
      </trkpt>
      <trkpt lat="43.36006" lon="-1.77548">
        <ele>23</ele>
        <time>2026-03-06T18:05:05.000Z</time>
      </trkpt>
      <trkpt lat="43.36005" lon="-1.77548">
        <ele>23</ele>
        <time>2026-03-06T18:05:05.000Z</time>
      </trkpt>
      <trkpt lat="43.36004" lon="-1.77547">
        <ele>23</ele>
        <time>2026-03-06T18:05:05.000Z</time>
      </trkpt>
      <trkpt lat="43.36003" lon="-1.77547">
        <ele>23</ele>
        <time>2026-03-06T18:05:06.000Z</time>
      </trkpt>
      <trkpt lat="43.35996" lon="-1.77551">
        <ele>24</ele>
        <time>2026-03-06T18:05:07.000Z</time>
      </trkpt>
      <trkpt lat="43.35992" lon="-1.77553">
        <ele>24</ele>
        <time>2026-03-06T18:05:08.000Z</time>
      </trkpt>
      <trkpt lat="43.35987" lon="-1.77554">
        <ele>25</ele>
        <time>2026-03-06T18:05:09.000Z</time>
      </trkpt>
      <trkpt lat="43.35978" lon="-1.77556">
        <ele>25</ele>
        <time>2026-03-06T18:05:10.000Z</time>
      </trkpt>
      <trkpt lat="43.35948" lon="-1.7757">
        <ele>27</ele>
        <time>2026-03-06T18:05:16.000Z</time>
      </trkpt>
      <trkpt lat="43.3594" lon="-1.77573">
        <ele>27</ele>
        <time>2026-03-06T18:05:17.000Z</time>
      </trkpt>
      <trkpt lat="43.35904" lon="-1.77592">
        <ele>27</ele>
        <time>2026-03-06T18:05:24.000Z</time>
      </trkpt>
      <trkpt lat="43.35886" lon="-1.77599">
        <ele>26</ele>
        <time>2026-03-06T18:05:28.000Z</time>
      </trkpt>
      <trkpt lat="43.35873" lon="-1.77603">
        <ele>26</ele>
        <time>2026-03-06T18:05:30.000Z</time>
      </trkpt>
      <trkpt lat="43.35858" lon="-1.77608">
        <ele>25</ele>
        <time>2026-03-06T18:05:33.000Z</time>
      </trkpt>
      <trkpt lat="43.35841" lon="-1.77614">
        <ele>25</ele>
        <time>2026-03-06T18:05:36.000Z</time>
      </trkpt>
      <trkpt lat="43.35836" lon="-1.77615">
        <ele>25</ele>
        <time>2026-03-06T18:05:37.000Z</time>
      </trkpt>
      <trkpt lat="43.35831" lon="-1.77617">
        <ele>24</ele>
        <time>2026-03-06T18:05:38.000Z</time>
      </trkpt>
      <trkpt lat="43.35825" lon="-1.77621">
        <ele>24</ele>
        <time>2026-03-06T18:05:39.000Z</time>
      </trkpt>
      <trkpt lat="43.35808" lon="-1.77635">
        <ele>22</ele>
        <time>2026-03-06T18:05:42.000Z</time>
      </trkpt>
      <trkpt lat="43.35803" lon="-1.77638">
        <ele>21</ele>
        <time>2026-03-06T18:05:43.000Z</time>
      </trkpt>
      <trkpt lat="43.35797" lon="-1.7764">
        <ele>21</ele>
        <time>2026-03-06T18:05:44.000Z</time>
      </trkpt>
      <trkpt lat="43.35791" lon="-1.77641">
        <ele>20</ele>
        <time>2026-03-06T18:05:45.000Z</time>
      </trkpt>
      <trkpt lat="43.35774" lon="-1.77639">
        <ele>19</ele>
        <time>2026-03-06T18:05:48.000Z</time>
      </trkpt>
      <trkpt lat="43.35758" lon="-1.77637">
        <ele>18</ele>
        <time>2026-03-06T18:05:51.000Z</time>
      </trkpt>
      <trkpt lat="43.35743" lon="-1.77635">
        <ele>18</ele>
        <time>2026-03-06T18:05:54.000Z</time>
      </trkpt>
      <trkpt lat="43.35737" lon="-1.77634">
        <ele>18</ele>
        <time>2026-03-06T18:05:55.000Z</time>
      </trkpt>
      <trkpt lat="43.3573" lon="-1.77633">
        <ele>18</ele>
        <time>2026-03-06T18:05:56.000Z</time>
      </trkpt>
      <trkpt lat="43.35721" lon="-1.77631">
        <ele>18</ele>
        <time>2026-03-06T18:05:58.000Z</time>
      </trkpt>
      <trkpt lat="43.35714" lon="-1.7763">
        <ele>18</ele>
        <time>2026-03-06T18:05:59.000Z</time>
      </trkpt>
      <trkpt lat="43.35705" lon="-1.77629">
        <ele>18</ele>
        <time>2026-03-06T18:06:01.000Z</time>
      </trkpt>
      <trkpt lat="43.35701" lon="-1.77628">
        <ele>18</ele>
        <time>2026-03-06T18:06:02.000Z</time>
      </trkpt>
      <trkpt lat="43.35693" lon="-1.77627">
        <ele>18</ele>
        <time>2026-03-06T18:06:03.000Z</time>
      </trkpt>
      <trkpt lat="43.35692" lon="-1.77627">
        <ele>18</ele>
        <time>2026-03-06T18:06:03.000Z</time>
      </trkpt>
      <trkpt lat="43.35683" lon="-1.77628">
        <ele>18</ele>
        <time>2026-03-06T18:06:05.000Z</time>
      </trkpt>
      <trkpt lat="43.35678" lon="-1.77647">
        <ele>17</ele>
        <time>2026-03-06T18:06:07.000Z</time>
      </trkpt>
      <trkpt lat="43.35671" lon="-1.77663">
        <ele>16</ele>
        <time>2026-03-06T18:06:10.000Z</time>
      </trkpt>
      <trkpt lat="43.35661" lon="-1.77678">
        <ele>15</ele>
        <time>2026-03-06T18:06:12.000Z</time>
      </trkpt>
      <trkpt lat="43.35649" lon="-1.77697">
        <ele>15</ele>
        <time>2026-03-06T18:06:16.000Z</time>
      </trkpt>
      <trkpt lat="43.35639" lon="-1.7771">
        <ele>15</ele>
        <time>2026-03-06T18:06:18.000Z</time>
      </trkpt>
      <trkpt lat="43.35633" lon="-1.77717">
        <ele>15</ele>
        <time>2026-03-06T18:06:20.000Z</time>
      </trkpt>
      <trkpt lat="43.35624" lon="-1.77727">
        <ele>15</ele>
        <time>2026-03-06T18:06:22.000Z</time>
      </trkpt>
      <trkpt lat="43.35623" lon="-1.77728">
        <ele>15</ele>
        <time>2026-03-06T18:06:22.000Z</time>
      </trkpt>
      <trkpt lat="43.35612" lon="-1.77739">
        <ele>15</ele>
        <time>2026-03-06T18:06:24.000Z</time>
      </trkpt>
      <trkpt lat="43.3557" lon="-1.77789">
        <ele>15</ele>
        <time>2026-03-06T18:06:34.000Z</time>
      </trkpt>
      <trkpt lat="43.3556" lon="-1.77799">
        <ele>15</ele>
        <time>2026-03-06T18:06:36.000Z</time>
      </trkpt>
      <trkpt lat="43.35503" lon="-1.7787">
        <ele>15</ele>
        <time>2026-03-06T18:06:50.000Z</time>
      </trkpt>
      <trkpt lat="43.3533" lon="-1.78087">
        <ele>14</ele>
        <time>2026-03-06T18:07:32.000Z</time>
      </trkpt>
      <trkpt lat="43.35302" lon="-1.78124">
        <ele>15</ele>
        <time>2026-03-06T18:07:39.000Z</time>
      </trkpt>
      <trkpt lat="43.35281" lon="-1.7815">
        <ele>15</ele>
        <time>2026-03-06T18:07:44.000Z</time>
      </trkpt>
      <trkpt lat="43.35267" lon="-1.78168">
        <ele>16</ele>
        <time>2026-03-06T18:07:47.000Z</time>
      </trkpt>
      <trkpt lat="43.35265" lon="-1.78171">
        <ele>16</ele>
        <time>2026-03-06T18:07:48.000Z</time>
      </trkpt>
      <trkpt lat="43.35252" lon="-1.78193">
        <ele>15</ele>
        <time>2026-03-06T18:07:51.000Z</time>
      </trkpt>
      <trkpt lat="43.35248" lon="-1.782">
        <ele>14</ele>
        <time>2026-03-06T18:07:52.000Z</time>
      </trkpt>
      <trkpt lat="43.3524" lon="-1.78211">
        <ele>14</ele>
        <time>2026-03-06T18:07:54.000Z</time>
      </trkpt>
      <trkpt lat="43.35221" lon="-1.78234">
        <ele>14</ele>
        <time>2026-03-06T18:07:59.000Z</time>
      </trkpt>
      <trkpt lat="43.35189" lon="-1.7827">
        <ele>15</ele>
        <time>2026-03-06T18:08:06.000Z</time>
      </trkpt>
      <trkpt lat="43.35181" lon="-1.7828">
        <ele>15</ele>
        <time>2026-03-06T18:08:08.000Z</time>
      </trkpt>
      <trkpt lat="43.35177" lon="-1.78284">
        <ele>15</ele>
        <time>2026-03-06T18:08:09.000Z</time>
      </trkpt>
      <trkpt lat="43.35174" lon="-1.78286">
        <ele>15</ele>
        <time>2026-03-06T18:08:10.000Z</time>
      </trkpt>
      <trkpt lat="43.35166" lon="-1.78293">
        <ele>15</ele>
        <time>2026-03-06T18:08:11.000Z</time>
      </trkpt>
      <trkpt lat="43.35162" lon="-1.78295">
        <ele>15</ele>
        <time>2026-03-06T18:08:12.000Z</time>
      </trkpt>
      <trkpt lat="43.35153" lon="-1.78296">
        <ele>15</ele>
        <time>2026-03-06T18:08:14.000Z</time>
      </trkpt>
      <trkpt lat="43.35137" lon="-1.78298">
        <ele>15</ele>
        <time>2026-03-06T18:08:17.000Z</time>
      </trkpt>
      <trkpt lat="43.35126" lon="-1.78298">
        <ele>15</ele>
        <time>2026-03-06T18:08:18.000Z</time>
      </trkpt>
      <trkpt lat="43.35119" lon="-1.78295">
        <ele>15</ele>
        <time>2026-03-06T18:08:20.000Z</time>
      </trkpt>
      <trkpt lat="43.35112" lon="-1.78291">
        <ele>16</ele>
        <time>2026-03-06T18:08:21.000Z</time>
      </trkpt>
      <trkpt lat="43.35107" lon="-1.78287">
        <ele>16</ele>
        <time>2026-03-06T18:08:22.000Z</time>
      </trkpt>
      <trkpt lat="43.35098" lon="-1.78282">
        <ele>16</ele>
        <time>2026-03-06T18:08:24.000Z</time>
      </trkpt>
      <trkpt lat="43.35087" lon="-1.7828">
        <ele>17</ele>
        <time>2026-03-06T18:08:26.000Z</time>
      </trkpt>
      <trkpt lat="43.35084" lon="-1.7828">
        <ele>17</ele>
        <time>2026-03-06T18:08:26.000Z</time>
      </trkpt>
      <trkpt lat="43.35077" lon="-1.78281">
        <ele>16</ele>
        <time>2026-03-06T18:08:28.000Z</time>
      </trkpt>
      <trkpt lat="43.35075" lon="-1.78285">
        <ele>16</ele>
        <time>2026-03-06T18:08:28.000Z</time>
      </trkpt>
      <trkpt lat="43.35074" lon="-1.78289">
        <ele>16</ele>
        <time>2026-03-06T18:08:29.000Z</time>
      </trkpt>
      <trkpt lat="43.35072" lon="-1.78291">
        <ele>15</ele>
        <time>2026-03-06T18:08:29.000Z</time>
      </trkpt>
      <trkpt lat="43.3507" lon="-1.78293">
        <ele>15</ele>
        <time>2026-03-06T18:08:30.000Z</time>
      </trkpt>
      <trkpt lat="43.35066" lon="-1.78299">
        <ele>15</ele>
        <time>2026-03-06T18:08:31.000Z</time>
      </trkpt>
      <trkpt lat="43.35057" lon="-1.78311">
        <ele>14</ele>
        <time>2026-03-06T18:08:33.000Z</time>
      </trkpt>
      <trkpt lat="43.3504" lon="-1.78337">
        <ele>12</ele>
        <time>2026-03-06T18:08:38.000Z</time>
      </trkpt>
      <trkpt lat="43.35022" lon="-1.78363">
        <ele>10</ele>
        <time>2026-03-06T18:08:42.000Z</time>
      </trkpt>
      <trkpt lat="43.3502" lon="-1.78366">
        <ele>10</ele>
        <time>2026-03-06T18:08:43.000Z</time>
      </trkpt>
      <trkpt lat="43.35011" lon="-1.78378">
        <ele>9</ele>
        <time>2026-03-06T18:08:45.000Z</time>
      </trkpt>
      <trkpt lat="43.3499" lon="-1.78409">
        <ele>7</ele>
        <time>2026-03-06T18:08:50.000Z</time>
      </trkpt>
      <trkpt lat="43.34984" lon="-1.78416">
        <ele>6</ele>
        <time>2026-03-06T18:08:52.000Z</time>
      </trkpt>
      <trkpt lat="43.34972" lon="-1.78428">
        <ele>6</ele>
        <time>2026-03-06T18:08:54.000Z</time>
      </trkpt>
      <trkpt lat="43.34963" lon="-1.78438">
        <ele>5</ele>
        <time>2026-03-06T18:08:57.000Z</time>
      </trkpt>
      <trkpt lat="43.34935" lon="-1.78471">
        <ele>3</ele>
        <time>2026-03-06T18:09:03.000Z</time>
      </trkpt>
      <trkpt lat="43.34935" lon="-1.78471">
        <ele>3</ele>
        <time>2026-03-06T18:09:03.000Z</time>
      </trkpt>
      <trkpt lat="43.34814" lon="-1.78631">
        <ele>6</ele>
        <time>2026-03-06T18:09:33.000Z</time>
      </trkpt>
      <trkpt lat="43.34791" lon="-1.78662">
        <ele>5</ele>
        <time>2026-03-06T18:09:39.000Z</time>
      </trkpt>
      <trkpt lat="43.34791" lon="-1.78662">
        <ele>5</ele>
        <time>2026-03-06T18:09:39.000Z</time>
      </trkpt>
      <trkpt lat="43.34793" lon="-1.78667">
        <ele>6</ele>
        <time>2026-03-06T18:09:39.000Z</time>
      </trkpt>
      <trkpt lat="43.34794" lon="-1.7867">
        <ele>6</ele>
        <time>2026-03-06T18:09:40.000Z</time>
      </trkpt>
      <trkpt lat="43.34794" lon="-1.78673">
        <ele>6</ele>
        <time>2026-03-06T18:09:40.000Z</time>
      </trkpt>
      <trkpt lat="43.34795" lon="-1.78676">
        <ele>6</ele>
        <time>2026-03-06T18:09:41.000Z</time>
      </trkpt>
      <trkpt lat="43.34795" lon="-1.7868">
        <ele>5</ele>
        <time>2026-03-06T18:09:41.000Z</time>
      </trkpt>
      <trkpt lat="43.34794" lon="-1.78683">
        <ele>5</ele>
        <time>2026-03-06T18:09:42.000Z</time>
      </trkpt>
      <trkpt lat="43.34794" lon="-1.78686">
        <ele>5</ele>
        <time>2026-03-06T18:09:42.000Z</time>
      </trkpt>
      <trkpt lat="43.34793" lon="-1.78689">
        <ele>5</ele>
        <time>2026-03-06T18:09:42.000Z</time>
      </trkpt>
      <trkpt lat="43.34793" lon="-1.78692">
        <ele>5</ele>
        <time>2026-03-06T18:09:43.000Z</time>
      </trkpt>
      <trkpt lat="43.34791" lon="-1.78694">
        <ele>5</ele>
        <time>2026-03-06T18:09:43.000Z</time>
      </trkpt>
      <trkpt lat="43.3479" lon="-1.78697">
        <ele>5</ele>
        <time>2026-03-06T18:09:44.000Z</time>
      </trkpt>
      <trkpt lat="43.34789" lon="-1.78699">
        <ele>5</ele>
        <time>2026-03-06T18:09:44.000Z</time>
      </trkpt>
      <trkpt lat="43.34787" lon="-1.78701">
        <ele>5</ele>
        <time>2026-03-06T18:09:44.000Z</time>
      </trkpt>
      <trkpt lat="43.34786" lon="-1.78703">
        <ele>5</ele>
        <time>2026-03-06T18:09:45.000Z</time>
      </trkpt>
      <trkpt lat="43.34785" lon="-1.78704">
        <ele>5</ele>
        <time>2026-03-06T18:09:45.000Z</time>
      </trkpt>
      <trkpt lat="43.34783" lon="-1.78704">
        <ele>5</ele>
        <time>2026-03-06T18:09:45.000Z</time>
      </trkpt>
      <trkpt lat="43.34782" lon="-1.78705">
        <ele>5</ele>
        <time>2026-03-06T18:09:46.000Z</time>
      </trkpt>
      <trkpt lat="43.34781" lon="-1.78706">
        <ele>5</ele>
        <time>2026-03-06T18:09:46.000Z</time>
      </trkpt>
      <trkpt lat="43.34779" lon="-1.78706">
        <ele>5</ele>
        <time>2026-03-06T18:09:46.000Z</time>
      </trkpt>
      <trkpt lat="43.34778" lon="-1.78707">
        <ele>5</ele>
        <time>2026-03-06T18:09:46.000Z</time>
      </trkpt>
      <trkpt lat="43.34777" lon="-1.78707">
        <ele>4</ele>
        <time>2026-03-06T18:09:46.000Z</time>
      </trkpt>
      <trkpt lat="43.34775" lon="-1.78707">
        <ele>4</ele>
        <time>2026-03-06T18:09:47.000Z</time>
      </trkpt>
      <trkpt lat="43.34773" lon="-1.78707">
        <ele>4</ele>
        <time>2026-03-06T18:09:47.000Z</time>
      </trkpt>
      <trkpt lat="43.34772" lon="-1.78706">
        <ele>4</ele>
        <time>2026-03-06T18:09:47.000Z</time>
      </trkpt>
      <trkpt lat="43.3477" lon="-1.78706">
        <ele>4</ele>
        <time>2026-03-06T18:09:48.000Z</time>
      </trkpt>
      <trkpt lat="43.34768" lon="-1.78705">
        <ele>4</ele>
        <time>2026-03-06T18:09:48.000Z</time>
      </trkpt>
      <trkpt lat="43.34767" lon="-1.78704">
        <ele>4</ele>
        <time>2026-03-06T18:09:48.000Z</time>
      </trkpt>
      <trkpt lat="43.34766" lon="-1.78703">
        <ele>4</ele>
        <time>2026-03-06T18:09:49.000Z</time>
      </trkpt>
      <trkpt lat="43.34764" lon="-1.78702">
        <ele>4</ele>
        <time>2026-03-06T18:09:49.000Z</time>
      </trkpt>
      <trkpt lat="43.34758" lon="-1.78703">
        <ele>4</ele>
        <time>2026-03-06T18:09:50.000Z</time>
      </trkpt>
      <trkpt lat="43.34751" lon="-1.78703">
        <ele>4</ele>
        <time>2026-03-06T18:09:51.000Z</time>
      </trkpt>
      <trkpt lat="43.34747" lon="-1.78705">
        <ele>3</ele>
        <time>2026-03-06T18:09:52.000Z</time>
      </trkpt>
      <trkpt lat="43.34737" lon="-1.78709">
        <ele>3</ele>
        <time>2026-03-06T18:09:54.000Z</time>
      </trkpt>
      <trkpt lat="43.34733" lon="-1.78711">
        <ele>3</ele>
        <time>2026-03-06T18:09:55.000Z</time>
      </trkpt>
      <trkpt lat="43.34718" lon="-1.78718">
        <ele>3</ele>
        <time>2026-03-06T18:09:57.000Z</time>
      </trkpt>
      <trkpt lat="43.3469" lon="-1.78731">
        <ele>2</ele>
        <time>2026-03-06T18:10:03.000Z</time>
      </trkpt>
      <trkpt lat="43.34678" lon="-1.78738">
        <ele>2</ele>
        <time>2026-03-06T18:10:05.000Z</time>
      </trkpt>
      <trkpt lat="43.34662" lon="-1.78745">
        <ele>2</ele>
        <time>2026-03-06T18:10:08.000Z</time>
      </trkpt>
      <trkpt lat="43.34653" lon="-1.78749">
        <ele>2</ele>
        <time>2026-03-06T18:10:10.000Z</time>
      </trkpt>
      <trkpt lat="43.34597" lon="-1.78777">
        <ele>3</ele>
        <time>2026-03-06T18:10:20.000Z</time>
      </trkpt>
      <trkpt lat="43.34585" lon="-1.78783">
        <ele>3</ele>
        <time>2026-03-06T18:10:23.000Z</time>
      </trkpt>
      <trkpt lat="43.34572" lon="-1.7879">
        <ele>3</ele>
        <time>2026-03-06T18:10:25.000Z</time>
      </trkpt>
      <trkpt lat="43.34572" lon="-1.7879">
        <ele>3</ele>
        <time>2026-03-06T18:10:25.000Z</time>
      </trkpt>
      <trkpt lat="43.34572" lon="-1.78793">
        <ele>3</ele>
        <time>2026-03-06T18:10:25.000Z</time>
      </trkpt>
      <trkpt lat="43.34572" lon="-1.78795">
        <ele>3</ele>
        <time>2026-03-06T18:10:26.000Z</time>
      </trkpt>
      <trkpt lat="43.34572" lon="-1.78798">
        <ele>3</ele>
        <time>2026-03-06T18:10:26.000Z</time>
      </trkpt>
      <trkpt lat="43.34572" lon="-1.788">
        <ele>3</ele>
        <time>2026-03-06T18:10:26.000Z</time>
      </trkpt>
      <trkpt lat="43.34571" lon="-1.78802">
        <ele>3</ele>
        <time>2026-03-06T18:10:27.000Z</time>
      </trkpt>
      <trkpt lat="43.34571" lon="-1.78805">
        <ele>3</ele>
        <time>2026-03-06T18:10:27.000Z</time>
      </trkpt>
      <trkpt lat="43.3457" lon="-1.78807">
        <ele>3</ele>
        <time>2026-03-06T18:10:27.000Z</time>
      </trkpt>
      <trkpt lat="43.34569" lon="-1.78809">
        <ele>3</ele>
        <time>2026-03-06T18:10:28.000Z</time>
      </trkpt>
      <trkpt lat="43.34568" lon="-1.78811">
        <ele>3</ele>
        <time>2026-03-06T18:10:28.000Z</time>
      </trkpt>
      <trkpt lat="43.34567" lon="-1.78813">
        <ele>3</ele>
        <time>2026-03-06T18:10:28.000Z</time>
      </trkpt>
      <trkpt lat="43.34566" lon="-1.78814">
        <ele>3</ele>
        <time>2026-03-06T18:10:29.000Z</time>
      </trkpt>
      <trkpt lat="43.34564" lon="-1.78816">
        <ele>3</ele>
        <time>2026-03-06T18:10:29.000Z</time>
      </trkpt>
      <trkpt lat="43.34563" lon="-1.78817">
        <ele>3</ele>
        <time>2026-03-06T18:10:29.000Z</time>
      </trkpt>
      <trkpt lat="43.34561" lon="-1.78819">
        <ele>3</ele>
        <time>2026-03-06T18:10:30.000Z</time>
      </trkpt>
      <trkpt lat="43.3456" lon="-1.7882">
        <ele>3</ele>
        <time>2026-03-06T18:10:30.000Z</time>
      </trkpt>
      <trkpt lat="43.34558" lon="-1.7882">
        <ele>3</ele>
        <time>2026-03-06T18:10:30.000Z</time>
      </trkpt>
      <trkpt lat="43.34556" lon="-1.78821">
        <ele>3</ele>
        <time>2026-03-06T18:10:31.000Z</time>
      </trkpt>
      <trkpt lat="43.34554" lon="-1.78821">
        <ele>3</ele>
        <time>2026-03-06T18:10:31.000Z</time>
      </trkpt>
      <trkpt lat="43.34551" lon="-1.78831">
        <ele>3</ele>
        <time>2026-03-06T18:10:32.000Z</time>
      </trkpt>
      <trkpt lat="43.34549" lon="-1.78837">
        <ele>3</ele>
        <time>2026-03-06T18:10:33.000Z</time>
      </trkpt>
      <trkpt lat="43.34547" lon="-1.78843">
        <ele>3</ele>
        <time>2026-03-06T18:10:34.000Z</time>
      </trkpt>
      <trkpt lat="43.34546" lon="-1.78845">
        <ele>3</ele>
        <time>2026-03-06T18:10:34.000Z</time>
      </trkpt>
      <trkpt lat="43.34543" lon="-1.78854">
        <ele>4</ele>
        <time>2026-03-06T18:10:36.000Z</time>
      </trkpt>
      <trkpt lat="43.34541" lon="-1.78858">
        <ele>4</ele>
        <time>2026-03-06T18:10:36.000Z</time>
      </trkpt>
      <trkpt lat="43.3454" lon="-1.78862">
        <ele>4</ele>
        <time>2026-03-06T18:10:37.000Z</time>
      </trkpt>
      <trkpt lat="43.34537" lon="-1.78867">
        <ele>4</ele>
        <time>2026-03-06T18:10:38.000Z</time>
      </trkpt>
      <trkpt lat="43.34534" lon="-1.78871">
        <ele>4</ele>
        <time>2026-03-06T18:10:38.000Z</time>
      </trkpt>
      <trkpt lat="43.34528" lon="-1.7888">
        <ele>4</ele>
        <time>2026-03-06T18:10:40.000Z</time>
      </trkpt>
      <trkpt lat="43.34523" lon="-1.78887">
        <ele>5</ele>
        <time>2026-03-06T18:10:41.000Z</time>
      </trkpt>
      <trkpt lat="43.34516" lon="-1.78896">
        <ele>5</ele>
        <time>2026-03-06T18:10:43.000Z</time>
      </trkpt>
      <trkpt lat="43.34512" lon="-1.78901">
        <ele>5</ele>
        <time>2026-03-06T18:10:44.000Z</time>
      </trkpt>
      <trkpt lat="43.3451" lon="-1.78905">
        <ele>5</ele>
        <time>2026-03-06T18:10:45.000Z</time>
      </trkpt>
      <trkpt lat="43.34507" lon="-1.78907">
        <ele>6</ele>
        <time>2026-03-06T18:10:45.000Z</time>
      </trkpt>
      <trkpt lat="43.34494" lon="-1.7892">
        <ele>6</ele>
        <time>2026-03-06T18:10:48.000Z</time>
      </trkpt>
      <trkpt lat="43.34486" lon="-1.78926">
        <ele>7</ele>
        <time>2026-03-06T18:10:50.000Z</time>
      </trkpt>
      <trkpt lat="43.3448" lon="-1.7893">
        <ele>7</ele>
        <time>2026-03-06T18:10:51.000Z</time>
      </trkpt>
      <trkpt lat="43.34476" lon="-1.78932">
        <ele>7</ele>
        <time>2026-03-06T18:10:52.000Z</time>
      </trkpt>
      <trkpt lat="43.34473" lon="-1.78933">
        <ele>7</ele>
        <time>2026-03-06T18:10:52.000Z</time>
      </trkpt>
      <trkpt lat="43.34468" lon="-1.78937">
        <ele>7</ele>
        <time>2026-03-06T18:10:53.000Z</time>
      </trkpt>
      <trkpt lat="43.34462" lon="-1.78941">
        <ele>8</ele>
        <time>2026-03-06T18:10:54.000Z</time>
      </trkpt>
      <trkpt lat="43.34449" lon="-1.78946">
        <ele>8</ele>
        <time>2026-03-06T18:10:57.000Z</time>
      </trkpt>
      <trkpt lat="43.34445" lon="-1.78948">
        <ele>9</ele>
        <time>2026-03-06T18:10:58.000Z</time>
      </trkpt>
      <trkpt lat="43.3444" lon="-1.78952">
        <ele>9</ele>
        <time>2026-03-06T18:10:59.000Z</time>
      </trkpt>
      <trkpt lat="43.34431" lon="-1.78959">
        <ele>9</ele>
        <time>2026-03-06T18:11:00.000Z</time>
      </trkpt>
      <trkpt lat="43.34427" lon="-1.78964">
        <ele>10</ele>
        <time>2026-03-06T18:11:01.000Z</time>
      </trkpt>
      <trkpt lat="43.34424" lon="-1.7897">
        <ele>10</ele>
        <time>2026-03-06T18:11:02.000Z</time>
      </trkpt>
      <trkpt lat="43.34421" lon="-1.78976">
        <ele>10</ele>
        <time>2026-03-06T18:11:03.000Z</time>
      </trkpt>
      <trkpt lat="43.34417" lon="-1.78984">
        <ele>11</ele>
        <time>2026-03-06T18:11:04.000Z</time>
      </trkpt>
      <trkpt lat="43.34415" lon="-1.78989">
        <ele>11</ele>
        <time>2026-03-06T18:11:05.000Z</time>
      </trkpt>
      <trkpt lat="43.34414" lon="-1.78992">
        <ele>11</ele>
        <time>2026-03-06T18:11:06.000Z</time>
      </trkpt>
      <trkpt lat="43.34413" lon="-1.78995">
        <ele>11</ele>
        <time>2026-03-06T18:11:06.000Z</time>
      </trkpt>
      <trkpt lat="43.34411" lon="-1.79001">
        <ele>11</ele>
        <time>2026-03-06T18:11:07.000Z</time>
      </trkpt>
      <trkpt lat="43.3441" lon="-1.79009">
        <ele>12</ele>
        <time>2026-03-06T18:11:08.000Z</time>
      </trkpt>
      <trkpt lat="43.34407" lon="-1.79021">
        <ele>12</ele>
        <time>2026-03-06T18:11:10.000Z</time>
      </trkpt>
      <trkpt lat="43.34407" lon="-1.79021">
        <ele>12</ele>
        <time>2026-03-06T18:11:10.000Z</time>
      </trkpt>
      <trkpt lat="43.34409" lon="-1.79177">
        <ele>17</ele>
        <time>2026-03-06T18:11:30.000Z</time>
      </trkpt>
      <trkpt lat="43.34413" lon="-1.79191">
        <ele>17</ele>
        <time>2026-03-06T18:11:32.000Z</time>
      </trkpt>
      <trkpt lat="43.34416" lon="-1.79208">
        <ele>18</ele>
        <time>2026-03-06T18:11:34.000Z</time>
      </trkpt>
      <trkpt lat="43.34422" lon="-1.79229">
        <ele>18</ele>
        <time>2026-03-06T18:11:37.000Z</time>
      </trkpt>
      <trkpt lat="43.34425" lon="-1.79241">
        <ele>18</ele>
        <time>2026-03-06T18:11:39.000Z</time>
      </trkpt>
      <trkpt lat="43.34434" lon="-1.79265">
        <ele>17</ele>
        <time>2026-03-06T18:11:42.000Z</time>
      </trkpt>
      <trkpt lat="43.34439" lon="-1.79276">
        <ele>16</ele>
        <time>2026-03-06T18:11:44.000Z</time>
      </trkpt>
      <trkpt lat="43.34443" lon="-1.79285">
        <ele>15</ele>
        <time>2026-03-06T18:11:45.000Z</time>
      </trkpt>
      <trkpt lat="43.34452" lon="-1.79297">
        <ele>14</ele>
        <time>2026-03-06T18:11:47.000Z</time>
      </trkpt>
      <trkpt lat="43.34464" lon="-1.79313">
        <ele>12</ele>
        <time>2026-03-06T18:11:50.000Z</time>
      </trkpt>
      <trkpt lat="43.34474" lon="-1.79325">
        <ele>11</ele>
        <time>2026-03-06T18:11:53.000Z</time>
      </trkpt>
      <trkpt lat="43.34482" lon="-1.79335">
        <ele>10</ele>
        <time>2026-03-06T18:11:55.000Z</time>
      </trkpt>
      <trkpt lat="43.34493" lon="-1.7935">
        <ele>9</ele>
        <time>2026-03-06T18:11:57.000Z</time>
      </trkpt>
      <trkpt lat="43.34498" lon="-1.79358">
        <ele>9</ele>
        <time>2026-03-06T18:11:59.000Z</time>
      </trkpt>
      <trkpt lat="43.34502" lon="-1.79368">
        <ele>9</ele>
        <time>2026-03-06T18:12:00.000Z</time>
      </trkpt>
      <trkpt lat="43.34506" lon="-1.79375">
        <ele>9</ele>
        <time>2026-03-06T18:12:01.000Z</time>
      </trkpt>
      <trkpt lat="43.34509" lon="-1.79384">
        <ele>10</ele>
        <time>2026-03-06T18:12:03.000Z</time>
      </trkpt>
      <trkpt lat="43.34512" lon="-1.79397">
        <ele>10</ele>
        <time>2026-03-06T18:12:04.000Z</time>
      </trkpt>
      <trkpt lat="43.34514" lon="-1.79405">
        <ele>10</ele>
        <time>2026-03-06T18:12:06.000Z</time>
      </trkpt>
      <trkpt lat="43.34515" lon="-1.79416">
        <ele>10</ele>
        <time>2026-03-06T18:12:07.000Z</time>
      </trkpt>
      <trkpt lat="43.34515" lon="-1.79431">
        <ele>10</ele>
        <time>2026-03-06T18:12:09.000Z</time>
      </trkpt>
      <trkpt lat="43.34515" lon="-1.79446">
        <ele>11</ele>
        <time>2026-03-06T18:12:11.000Z</time>
      </trkpt>
      <trkpt lat="43.34515" lon="-1.79461">
        <ele>11</ele>
        <time>2026-03-06T18:12:13.000Z</time>
      </trkpt>
      <trkpt lat="43.34514" lon="-1.79474">
        <ele>11</ele>
        <time>2026-03-06T18:12:14.000Z</time>
      </trkpt>
      <trkpt lat="43.34513" lon="-1.79481">
        <ele>11</ele>
        <time>2026-03-06T18:12:15.000Z</time>
      </trkpt>
      <trkpt lat="43.3451" lon="-1.795">
        <ele>12</ele>
        <time>2026-03-06T18:12:18.000Z</time>
      </trkpt>
      <trkpt lat="43.34505" lon="-1.79536">
        <ele>10</ele>
        <time>2026-03-06T18:12:23.000Z</time>
      </trkpt>
      <trkpt lat="43.34503" lon="-1.79551">
        <ele>9</ele>
        <time>2026-03-06T18:12:25.000Z</time>
      </trkpt>
      <trkpt lat="43.34497" lon="-1.79604">
        <ele>7</ele>
        <time>2026-03-06T18:12:32.000Z</time>
      </trkpt>
      <trkpt lat="43.34495" lon="-1.79617">
        <ele>7</ele>
        <time>2026-03-06T18:12:33.000Z</time>
      </trkpt>
      <trkpt lat="43.34495" lon="-1.79618">
        <ele>7</ele>
        <time>2026-03-06T18:12:33.000Z</time>
      </trkpt>
      <trkpt lat="43.34493" lon="-1.7963">
        <ele>7</ele>
        <time>2026-03-06T18:12:35.000Z</time>
      </trkpt>
      <trkpt lat="43.34493" lon="-1.79638">
        <ele>7</ele>
        <time>2026-03-06T18:12:36.000Z</time>
      </trkpt>
      <trkpt lat="43.34491" lon="-1.79651">
        <ele>7</ele>
        <time>2026-03-06T18:12:38.000Z</time>
      </trkpt>
      <trkpt lat="43.34491" lon="-1.79661">
        <ele>7</ele>
        <time>2026-03-06T18:12:39.000Z</time>
      </trkpt>
      <trkpt lat="43.34489" lon="-1.79682">
        <ele>7</ele>
        <time>2026-03-06T18:12:42.000Z</time>
      </trkpt>
      <trkpt lat="43.34489" lon="-1.79692">
        <ele>7</ele>
        <time>2026-03-06T18:12:43.000Z</time>
      </trkpt>
      <trkpt lat="43.34489" lon="-1.79705">
        <ele>7</ele>
        <time>2026-03-06T18:12:45.000Z</time>
      </trkpt>
      <trkpt lat="43.34489" lon="-1.79716">
        <ele>7</ele>
        <time>2026-03-06T18:12:46.000Z</time>
      </trkpt>
      <trkpt lat="43.34489" lon="-1.79723">
        <ele>7</ele>
        <time>2026-03-06T18:12:47.000Z</time>
      </trkpt>
      <trkpt lat="43.3449" lon="-1.79727">
        <ele>7</ele>
        <time>2026-03-06T18:12:48.000Z</time>
      </trkpt>
      <trkpt lat="43.34491" lon="-1.79743">
        <ele>8</ele>
        <time>2026-03-06T18:12:50.000Z</time>
      </trkpt>
      <trkpt lat="43.34493" lon="-1.79754">
        <ele>8</ele>
        <time>2026-03-06T18:12:51.000Z</time>
      </trkpt>
      <trkpt lat="43.34494" lon="-1.79765">
        <ele>8</ele>
        <time>2026-03-06T18:12:53.000Z</time>
      </trkpt>
      <trkpt lat="43.34496" lon="-1.79778">
        <ele>8</ele>
        <time>2026-03-06T18:12:54.000Z</time>
      </trkpt>
      <trkpt lat="43.34499" lon="-1.7979">
        <ele>8</ele>
        <time>2026-03-06T18:12:56.000Z</time>
      </trkpt>
      <trkpt lat="43.34501" lon="-1.79797">
        <ele>8</ele>
        <time>2026-03-06T18:12:57.000Z</time>
      </trkpt>
      <trkpt lat="43.34503" lon="-1.79806">
        <ele>8</ele>
        <time>2026-03-06T18:12:58.000Z</time>
      </trkpt>
      <trkpt lat="43.34503" lon="-1.79808">
        <ele>8</ele>
        <time>2026-03-06T18:12:58.000Z</time>
      </trkpt>
      <trkpt lat="43.34506" lon="-1.79816">
        <ele>8</ele>
        <time>2026-03-06T18:13:00.000Z</time>
      </trkpt>
      <trkpt lat="43.34509" lon="-1.79826">
        <ele>8</ele>
        <time>2026-03-06T18:13:01.000Z</time>
      </trkpt>
      <trkpt lat="43.34512" lon="-1.79835">
        <ele>8</ele>
        <time>2026-03-06T18:13:02.000Z</time>
      </trkpt>
      <trkpt lat="43.34517" lon="-1.79849">
        <ele>8</ele>
        <time>2026-03-06T18:13:04.000Z</time>
      </trkpt>
      <trkpt lat="43.34522" lon="-1.79861">
        <ele>8</ele>
        <time>2026-03-06T18:13:06.000Z</time>
      </trkpt>
      <trkpt lat="43.34529" lon="-1.79879">
        <ele>8</ele>
        <time>2026-03-06T18:13:09.000Z</time>
      </trkpt>
      <trkpt lat="43.34534" lon="-1.79893">
        <ele>8</ele>
        <time>2026-03-06T18:13:11.000Z</time>
      </trkpt>
      <trkpt lat="43.34535" lon="-1.79895">
        <ele>8</ele>
        <time>2026-03-06T18:13:11.000Z</time>
      </trkpt>
      <trkpt lat="43.34539" lon="-1.79909">
        <ele>8</ele>
        <time>2026-03-06T18:13:13.000Z</time>
      </trkpt>
      <trkpt lat="43.34544" lon="-1.7992">
        <ele>8</ele>
        <time>2026-03-06T18:13:15.000Z</time>
      </trkpt>
      <trkpt lat="43.34545" lon="-1.79925">
        <ele>8</ele>
        <time>2026-03-06T18:13:15.000Z</time>
      </trkpt>
      <trkpt lat="43.3455" lon="-1.7994">
        <ele>7</ele>
        <time>2026-03-06T18:13:17.000Z</time>
      </trkpt>
      <trkpt lat="43.3455" lon="-1.7994">
        <ele>7</ele>
        <time>2026-03-06T18:13:17.000Z</time>
      </trkpt>
      <trkpt lat="43.34553" lon="-1.79943">
        <ele>7</ele>
        <time>2026-03-06T18:13:18.000Z</time>
      </trkpt>
      <trkpt lat="43.34555" lon="-1.79945">
        <ele>6</ele>
        <time>2026-03-06T18:13:19.000Z</time>
      </trkpt>
      <trkpt lat="43.34556" lon="-1.79947">
        <ele>6</ele>
        <time>2026-03-06T18:13:19.000Z</time>
      </trkpt>
      <trkpt lat="43.34558" lon="-1.7995">
        <ele>6</ele>
        <time>2026-03-06T18:13:19.000Z</time>
      </trkpt>
      <trkpt lat="43.34559" lon="-1.79954">
        <ele>6</ele>
        <time>2026-03-06T18:13:20.000Z</time>
      </trkpt>
      <trkpt lat="43.34562" lon="-1.79962">
        <ele>6</ele>
        <time>2026-03-06T18:13:21.000Z</time>
      </trkpt>
      <trkpt lat="43.34566" lon="-1.79973">
        <ele>5</ele>
        <time>2026-03-06T18:13:23.000Z</time>
      </trkpt>
      <trkpt lat="43.3457" lon="-1.79985">
        <ele>5</ele>
        <time>2026-03-06T18:13:24.000Z</time>
      </trkpt>
      <trkpt lat="43.34574" lon="-1.79992">
        <ele>5</ele>
        <time>2026-03-06T18:13:26.000Z</time>
      </trkpt>
      <trkpt lat="43.34577" lon="-1.79997">
        <ele>5</ele>
        <time>2026-03-06T18:13:26.000Z</time>
      </trkpt>
      <trkpt lat="43.34577" lon="-1.79997">
        <ele>5</ele>
        <time>2026-03-06T18:13:26.000Z</time>
      </trkpt>
      <trkpt lat="43.34579" lon="-1.80001">
        <ele>4</ele>
        <time>2026-03-06T18:13:27.000Z</time>
      </trkpt>
      <trkpt lat="43.34583" lon="-1.80008">
        <ele>4</ele>
        <time>2026-03-06T18:13:28.000Z</time>
      </trkpt>
      <trkpt lat="43.34586" lon="-1.80014">
        <ele>4</ele>
        <time>2026-03-06T18:13:29.000Z</time>
      </trkpt>
      <trkpt lat="43.34588" lon="-1.80019">
        <ele>4</ele>
        <time>2026-03-06T18:13:30.000Z</time>
      </trkpt>
      <trkpt lat="43.3459" lon="-1.80023">
        <ele>4</ele>
        <time>2026-03-06T18:13:31.000Z</time>
      </trkpt>
      <trkpt lat="43.34591" lon="-1.80026">
        <ele>4</ele>
        <time>2026-03-06T18:13:31.000Z</time>
      </trkpt>
      <trkpt lat="43.34591" lon="-1.80028">
        <ele>4</ele>
        <time>2026-03-06T18:13:31.000Z</time>
      </trkpt>
      <trkpt lat="43.34591" lon="-1.80031">
        <ele>4</ele>
        <time>2026-03-06T18:13:32.000Z</time>
      </trkpt>
      <trkpt lat="43.34591" lon="-1.80034">
        <ele>4</ele>
        <time>2026-03-06T18:13:32.000Z</time>
      </trkpt>
      <trkpt lat="43.34591" lon="-1.80039">
        <ele>4</ele>
        <time>2026-03-06T18:13:33.000Z</time>
      </trkpt>
      <trkpt lat="43.34589" lon="-1.80043">
        <ele>4</ele>
        <time>2026-03-06T18:13:33.000Z</time>
      </trkpt>
      <trkpt lat="43.34588" lon="-1.80046">
        <ele>4</ele>
        <time>2026-03-06T18:13:34.000Z</time>
      </trkpt>
      <trkpt lat="43.34584" lon="-1.80053">
        <ele>4</ele>
        <time>2026-03-06T18:13:35.000Z</time>
      </trkpt>
      <trkpt lat="43.3458" lon="-1.80059">
        <ele>4</ele>
        <time>2026-03-06T18:13:36.000Z</time>
      </trkpt>
      <trkpt lat="43.34577" lon="-1.80062">
        <ele>4</ele>
        <time>2026-03-06T18:13:37.000Z</time>
      </trkpt>
      <trkpt lat="43.34573" lon="-1.80067">
        <ele>5</ele>
        <time>2026-03-06T18:13:38.000Z</time>
      </trkpt>
      <trkpt lat="43.34567" lon="-1.80076">
        <ele>5</ele>
        <time>2026-03-06T18:13:39.000Z</time>
      </trkpt>
      <trkpt lat="43.34565" lon="-1.80077">
        <ele>5</ele>
        <time>2026-03-06T18:13:39.000Z</time>
      </trkpt>
      <trkpt lat="43.34554" lon="-1.80092">
        <ele>6</ele>
        <time>2026-03-06T18:13:42.000Z</time>
      </trkpt>
      <trkpt lat="43.34546" lon="-1.80107">
        <ele>6</ele>
        <time>2026-03-06T18:13:45.000Z</time>
      </trkpt>
      <trkpt lat="43.34545" lon="-1.80112">
        <ele>6</ele>
        <time>2026-03-06T18:13:45.000Z</time>
      </trkpt>
      <trkpt lat="43.34545" lon="-1.80112">
        <ele>6</ele>
        <time>2026-03-06T18:13:45.000Z</time>
      </trkpt>
      <trkpt lat="43.34545" lon="-1.80115">
        <ele>6</ele>
        <time>2026-03-06T18:13:46.000Z</time>
      </trkpt>
      <trkpt lat="43.34546" lon="-1.80119">
        <ele>6</ele>
        <time>2026-03-06T18:13:46.000Z</time>
      </trkpt>
      <trkpt lat="43.34546" lon="-1.80122">
        <ele>6</ele>
        <time>2026-03-06T18:13:47.000Z</time>
      </trkpt>
      <trkpt lat="43.34546" lon="-1.80125">
        <ele>6</ele>
        <time>2026-03-06T18:13:47.000Z</time>
      </trkpt>
      <trkpt lat="43.34546" lon="-1.80128">
        <ele>6</ele>
        <time>2026-03-06T18:13:47.000Z</time>
      </trkpt>
      <trkpt lat="43.34546" lon="-1.80131">
        <ele>6</ele>
        <time>2026-03-06T18:13:48.000Z</time>
      </trkpt>
      <trkpt lat="43.34545" lon="-1.80134">
        <ele>6</ele>
        <time>2026-03-06T18:13:48.000Z</time>
      </trkpt>
      <trkpt lat="43.34544" lon="-1.80138">
        <ele>6</ele>
        <time>2026-03-06T18:13:49.000Z</time>
      </trkpt>
      <trkpt lat="43.3455" lon="-1.80152">
        <ele>6</ele>
        <time>2026-03-06T18:13:51.000Z</time>
      </trkpt>
      <trkpt lat="43.34555" lon="-1.8016">
        <ele>6</ele>
        <time>2026-03-06T18:13:52.000Z</time>
      </trkpt>
      <trkpt lat="43.34563" lon="-1.80167">
        <ele>6</ele>
        <time>2026-03-06T18:13:54.000Z</time>
      </trkpt>
      <trkpt lat="43.34572" lon="-1.80174">
        <ele>6</ele>
        <time>2026-03-06T18:13:56.000Z</time>
      </trkpt>
      <trkpt lat="43.34587" lon="-1.80183">
        <ele>6</ele>
        <time>2026-03-06T18:13:59.000Z</time>
      </trkpt>
      <trkpt lat="43.3459" lon="-1.80185">
        <ele>6</ele>
        <time>2026-03-06T18:13:59.000Z</time>
      </trkpt>
      <trkpt lat="43.34596" lon="-1.80187">
        <ele>6</ele>
        <time>2026-03-06T18:14:00.000Z</time>
      </trkpt>
      <trkpt lat="43.34601" lon="-1.80188">
        <ele>6</ele>
        <time>2026-03-06T18:14:01.000Z</time>
      </trkpt>
      <trkpt lat="43.34602" lon="-1.80188">
        <ele>6</ele>
        <time>2026-03-06T18:14:01.000Z</time>
      </trkpt>
      <trkpt lat="43.34608" lon="-1.80188">
        <ele>6</ele>
        <time>2026-03-06T18:14:03.000Z</time>
      </trkpt>
      <trkpt lat="43.34611" lon="-1.80189">
        <ele>6</ele>
        <time>2026-03-06T18:14:03.000Z</time>
      </trkpt>
      <trkpt lat="43.34616" lon="-1.80188">
        <ele>6</ele>
        <time>2026-03-06T18:14:04.000Z</time>
      </trkpt>
      <trkpt lat="43.34621" lon="-1.80187">
        <ele>6</ele>
        <time>2026-03-06T18:14:05.000Z</time>
      </trkpt>
      <trkpt lat="43.34628" lon="-1.80185">
        <ele>5</ele>
        <time>2026-03-06T18:14:06.000Z</time>
      </trkpt>
      <trkpt lat="43.34635" lon="-1.80182">
        <ele>5</ele>
        <time>2026-03-06T18:14:07.000Z</time>
      </trkpt>
      <trkpt lat="43.34651" lon="-1.80173">
        <ele>5</ele>
        <time>2026-03-06T18:14:11.000Z</time>
      </trkpt>
      <trkpt lat="43.34674" lon="-1.80158">
        <ele>4</ele>
        <time>2026-03-06T18:14:15.000Z</time>
      </trkpt>
      <trkpt lat="43.34686" lon="-1.80151">
        <ele>4</ele>
        <time>2026-03-06T18:14:17.000Z</time>
      </trkpt>
      <trkpt lat="43.34705" lon="-1.8014">
        <ele>3</ele>
        <time>2026-03-06T18:14:21.000Z</time>
      </trkpt>
      <trkpt lat="43.34718" lon="-1.80133">
        <ele>3</ele>
        <time>2026-03-06T18:14:24.000Z</time>
      </trkpt>
      <trkpt lat="43.34731" lon="-1.80125">
        <ele>2</ele>
        <time>2026-03-06T18:14:26.000Z</time>
      </trkpt>
      <trkpt lat="43.34755" lon="-1.8011">
        <ele>2</ele>
        <time>2026-03-06T18:14:31.000Z</time>
      </trkpt>
      <trkpt lat="43.34782" lon="-1.80095">
        <ele>2</ele>
        <time>2026-03-06T18:14:36.000Z</time>
      </trkpt>
      <trkpt lat="43.34853" lon="-1.80051">
        <ele>2</ele>
        <time>2026-03-06T18:14:50.000Z</time>
      </trkpt>
      <trkpt lat="43.3488" lon="-1.80034">
        <ele>2</ele>
        <time>2026-03-06T18:14:55.000Z</time>
      </trkpt>
      <trkpt lat="43.34901" lon="-1.80022">
        <ele>2</ele>
        <time>2026-03-06T18:14:59.000Z</time>
      </trkpt>
      <trkpt lat="43.34913" lon="-1.80016">
        <ele>2</ele>
        <time>2026-03-06T18:15:01.000Z</time>
      </trkpt>
      <trkpt lat="43.34918" lon="-1.80013">
        <ele>2</ele>
        <time>2026-03-06T18:15:02.000Z</time>
      </trkpt>
      <trkpt lat="43.34922" lon="-1.8001">
        <ele>2</ele>
        <time>2026-03-06T18:15:03.000Z</time>
      </trkpt>
      <trkpt lat="43.34926" lon="-1.80005">
        <ele>2</ele>
        <time>2026-03-06T18:15:04.000Z</time>
      </trkpt>
      <trkpt lat="43.34929" lon="-1.80003">
        <ele>2</ele>
        <time>2026-03-06T18:15:05.000Z</time>
      </trkpt>
      <trkpt lat="43.34934" lon="-1.79999">
        <ele>2</ele>
        <time>2026-03-06T18:15:06.000Z</time>
      </trkpt>
      <trkpt lat="43.34937" lon="-1.79997">
        <ele>2</ele>
        <time>2026-03-06T18:15:06.000Z</time>
      </trkpt>
      <trkpt lat="43.34954" lon="-1.79988">
        <ele>2</ele>
        <time>2026-03-06T18:15:10.000Z</time>
      </trkpt>
      <trkpt lat="43.35017" lon="-1.79951">
        <ele>2</ele>
        <time>2026-03-06T18:15:22.000Z</time>
      </trkpt>
      <trkpt lat="43.35017" lon="-1.79951">
        <ele>2</ele>
        <time>2026-03-06T18:15:22.000Z</time>
      </trkpt>
      <trkpt lat="43.35036" lon="-1.79936">
        <ele>1</ele>
        <time>2026-03-06T18:15:26.000Z</time>
      </trkpt>
      <trkpt lat="43.35043" lon="-1.79929">
        <ele>1</ele>
        <time>2026-03-06T18:15:27.000Z</time>
      </trkpt>
      <trkpt lat="43.35047" lon="-1.79923">
        <ele>1</ele>
        <time>2026-03-06T18:15:28.000Z</time>
      </trkpt>
      <trkpt lat="43.35054" lon="-1.79913">
        <ele>1.9</ele>
        <time>2026-03-06T18:15:30.000Z</time>
      </trkpt>
      <trkpt lat="43.35056" lon="-1.7991">
        <ele>1.8</ele>
        <time>2026-03-06T18:15:31.000Z</time>
      </trkpt>
      <trkpt lat="43.35066" lon="-1.79895">
        <ele>1.9</ele>
        <time>2026-03-06T18:15:33.000Z</time>
      </trkpt>
      <trkpt lat="43.3507" lon="-1.79887">
        <ele>2</ele>
        <time>2026-03-06T18:15:34.000Z</time>
      </trkpt>
      <trkpt lat="43.35088" lon="-1.79866">
        <ele>1</ele>
        <time>2026-03-06T18:15:39.000Z</time>
      </trkpt>
      <trkpt lat="43.35095" lon="-1.7986">
        <ele>1</ele>
        <time>2026-03-06T18:15:40.000Z</time>
      </trkpt>
      <trkpt lat="43.35098" lon="-1.79856">
        <ele>1</ele>
        <time>2026-03-06T18:15:41.000Z</time>
      </trkpt>
      <trkpt lat="43.35133" lon="-1.79817">
        <ele>2</ele>
        <time>2026-03-06T18:15:49.000Z</time>
      </trkpt>
      <trkpt lat="43.35161" lon="-1.79781">
        <ele>2</ele>
        <time>2026-03-06T18:15:56.000Z</time>
      </trkpt>
      <trkpt lat="43.35191" lon="-1.79744">
        <ele>2</ele>
        <time>2026-03-06T18:16:03.000Z</time>
      </trkpt>
      <trkpt lat="43.35205" lon="-1.79725">
        <ele>2</ele>
        <time>2026-03-06T18:16:06.000Z</time>
      </trkpt>
      <trkpt lat="43.35228" lon="-1.79697">
        <ele>3</ele>
        <time>2026-03-06T18:16:12.000Z</time>
      </trkpt>
      <trkpt lat="43.35235" lon="-1.79687">
        <ele>3</ele>
        <time>2026-03-06T18:16:14.000Z</time>
      </trkpt>
      <trkpt lat="43.35239" lon="-1.79682">
        <ele>3</ele>
        <time>2026-03-06T18:16:15.000Z</time>
      </trkpt>
      <trkpt lat="43.35248" lon="-1.79674">
        <ele>3</ele>
        <time>2026-03-06T18:16:17.000Z</time>
      </trkpt>
      <trkpt lat="43.35255" lon="-1.79669">
        <ele>3</ele>
        <time>2026-03-06T18:16:18.000Z</time>
      </trkpt>
      <trkpt lat="43.35263" lon="-1.79664">
        <ele>3</ele>
        <time>2026-03-06T18:16:19.000Z</time>
      </trkpt>
      <trkpt lat="43.35271" lon="-1.79659">
        <ele>2</ele>
        <time>2026-03-06T18:16:21.000Z</time>
      </trkpt>
      <trkpt lat="43.35282" lon="-1.79656">
        <ele>2</ele>
        <time>2026-03-06T18:16:23.000Z</time>
      </trkpt>
      <trkpt lat="43.35285" lon="-1.79655">
        <ele>2</ele>
        <time>2026-03-06T18:16:24.000Z</time>
      </trkpt>
      <trkpt lat="43.35291" lon="-1.79654">
        <ele>2</ele>
        <time>2026-03-06T18:16:25.000Z</time>
      </trkpt>
      <trkpt lat="43.35298" lon="-1.79651">
        <ele>2</ele>
        <time>2026-03-06T18:16:26.000Z</time>
      </trkpt>
      <trkpt lat="43.35353" lon="-1.79631">
        <ele>1</ele>
        <time>2026-03-06T18:16:36.000Z</time>
      </trkpt>
      <trkpt lat="43.35511" lon="-1.79579">
        <ele>-1</ele>
        <time>2026-03-06T18:17:05.000Z</time>
      </trkpt>
      <trkpt lat="43.35521" lon="-1.79576">
        <ele>-1</ele>
        <time>2026-03-06T18:17:07.000Z</time>
      </trkpt>
      <trkpt lat="43.35547" lon="-1.79567">
        <ele>-1</ele>
        <time>2026-03-06T18:17:12.000Z</time>
      </trkpt>
      <trkpt lat="43.35551" lon="-1.79563">
        <ele>-1</ele>
        <time>2026-03-06T18:17:12.000Z</time>
      </trkpt>
      <trkpt lat="43.35552" lon="-1.79562">
        <ele>-1</ele>
        <time>2026-03-06T18:17:13.000Z</time>
      </trkpt>
      <trkpt lat="43.35558" lon="-1.79558">
        <ele>-1</ele>
        <time>2026-03-06T18:17:14.000Z</time>
      </trkpt>
      <trkpt lat="43.35579" lon="-1.79548">
        <ele>-1</ele>
        <time>2026-03-06T18:17:18.000Z</time>
      </trkpt>
      <trkpt lat="43.35593" lon="-1.79539">
        <ele>2.3</ele>
        <time>2026-03-06T18:17:21.000Z</time>
      </trkpt>
      <trkpt lat="43.35603" lon="-1.79532">
        <ele>2.5</ele>
        <time>2026-03-06T18:17:23.000Z</time>
      </trkpt>
      <trkpt lat="43.35611" lon="-1.79525">
        <ele>3</ele>
        <time>2026-03-06T18:17:24.000Z</time>
      </trkpt>
      <trkpt lat="43.35623" lon="-1.79513">
        <ele>2.6</ele>
        <time>2026-03-06T18:17:27.000Z</time>
      </trkpt>
      <trkpt lat="43.35656" lon="-1.79474">
        <ele>1</ele>
        <time>2026-03-06T18:17:35.000Z</time>
      </trkpt>
      <trkpt lat="43.35682" lon="-1.79445">
        <ele>1</ele>
        <time>2026-03-06T18:17:41.000Z</time>
      </trkpt>
      <trkpt lat="43.3575" lon="-1.79373">
        <ele>2.4</ele>
        <time>2026-03-06T18:17:56.000Z</time>
      </trkpt>
      <trkpt lat="43.35788" lon="-1.79334">
        <ele>2</ele>
        <time>2026-03-06T18:18:04.000Z</time>
      </trkpt>
      <trkpt lat="43.35792" lon="-1.79331">
        <ele>1</ele>
        <time>2026-03-06T18:18:05.000Z</time>
      </trkpt>
      <trkpt lat="43.35798" lon="-1.79326">
        <ele>1</ele>
        <time>2026-03-06T18:18:06.000Z</time>
      </trkpt>
      <trkpt lat="43.35824" lon="-1.79296">
        <ele>1</ele>
        <time>2026-03-06T18:18:12.000Z</time>
      </trkpt>
      <trkpt lat="43.35881" lon="-1.79231">
        <ele>2.2</ele>
        <time>2026-03-06T18:18:26.000Z</time>
      </trkpt>
      <trkpt lat="43.35894" lon="-1.7922">
        <ele>2.9</ele>
        <time>2026-03-06T18:18:28.000Z</time>
      </trkpt>
      <trkpt lat="43.35915" lon="-1.79206">
        <ele>2.9</ele>
        <time>2026-03-06T18:18:32.000Z</time>
      </trkpt>
      <trkpt lat="43.35929" lon="-1.79197">
        <ele>-1</ele>
        <time>2026-03-06T18:18:35.000Z</time>
      </trkpt>
      <trkpt lat="43.35929" lon="-1.79197">
        <ele>-1</ele>
        <time>2026-03-06T18:18:35.000Z</time>
      </trkpt>
      <trkpt lat="43.35928" lon="-1.79194">
        <ele>-1</ele>
        <time>2026-03-06T18:18:36.000Z</time>
      </trkpt>
      <trkpt lat="43.35928" lon="-1.79191">
        <ele>-1</ele>
        <time>2026-03-06T18:18:36.000Z</time>
      </trkpt>
      <trkpt lat="43.35927" lon="-1.79188">
        <ele>-1</ele>
        <time>2026-03-06T18:18:36.000Z</time>
      </trkpt>
      <trkpt lat="43.35927" lon="-1.79185">
        <ele>-1</ele>
        <time>2026-03-06T18:18:37.000Z</time>
      </trkpt>
      <trkpt lat="43.35927" lon="-1.79182">
        <ele>-1</ele>
        <time>2026-03-06T18:18:37.000Z</time>
      </trkpt>
      <trkpt lat="43.35928" lon="-1.79179">
        <ele>-1</ele>
        <time>2026-03-06T18:18:38.000Z</time>
      </trkpt>
      <trkpt lat="43.35928" lon="-1.79176">
        <ele>-1</ele>
        <time>2026-03-06T18:18:38.000Z</time>
      </trkpt>
      <trkpt lat="43.35929" lon="-1.79173">
        <ele>-1</ele>
        <time>2026-03-06T18:18:38.000Z</time>
      </trkpt>
      <trkpt lat="43.3593" lon="-1.7917">
        <ele>-1</ele>
        <time>2026-03-06T18:18:39.000Z</time>
      </trkpt>
      <trkpt lat="43.35932" lon="-1.79168">
        <ele>-1</ele>
        <time>2026-03-06T18:18:39.000Z</time>
      </trkpt>
      <trkpt lat="43.35933" lon="-1.79165">
        <ele>-1</ele>
        <time>2026-03-06T18:18:40.000Z</time>
      </trkpt>
      <trkpt lat="43.35936" lon="-1.79161">
        <ele>-1</ele>
        <time>2026-03-06T18:18:40.000Z</time>
      </trkpt>
      <trkpt lat="43.35939" lon="-1.79159">
        <ele>2.9</ele>
        <time>2026-03-06T18:18:41.000Z</time>
      </trkpt>
      <trkpt lat="43.35941" lon="-1.79157">
        <ele>2.8</ele>
        <time>2026-03-06T18:18:42.000Z</time>
      </trkpt>
      <trkpt lat="43.35943" lon="-1.79156">
        <ele>2.8</ele>
        <time>2026-03-06T18:18:42.000Z</time>
      </trkpt>
      <trkpt lat="43.35946" lon="-1.79155">
        <ele>2.8</ele>
        <time>2026-03-06T18:18:42.000Z</time>
      </trkpt>
      <trkpt lat="43.35948" lon="-1.79155">
        <ele>2.9</ele>
        <time>2026-03-06T18:18:43.000Z</time>
      </trkpt>
      <trkpt lat="43.3595" lon="-1.79155">
        <ele>3</ele>
        <time>2026-03-06T18:18:43.000Z</time>
      </trkpt>
      <trkpt lat="43.35952" lon="-1.79155">
        <ele>3.1</ele>
        <time>2026-03-06T18:18:44.000Z</time>
      </trkpt>
      <trkpt lat="43.35955" lon="-1.79156">
        <ele>3.3</ele>
        <time>2026-03-06T18:18:44.000Z</time>
      </trkpt>
      <trkpt lat="43.35957" lon="-1.79156">
        <ele>3.4</ele>
        <time>2026-03-06T18:18:44.000Z</time>
      </trkpt>
      <trkpt lat="43.35959" lon="-1.79158">
        <ele>3.6</ele>
        <time>2026-03-06T18:18:45.000Z</time>
      </trkpt>
      <trkpt lat="43.35961" lon="-1.79159">
        <ele>3.7</ele>
        <time>2026-03-06T18:18:45.000Z</time>
      </trkpt>
      <trkpt lat="43.35963" lon="-1.79161">
        <ele>3.8</ele>
        <time>2026-03-06T18:18:46.000Z</time>
      </trkpt>
      <trkpt lat="43.35965" lon="-1.79162">
        <ele>3.9</ele>
        <time>2026-03-06T18:18:46.000Z</time>
      </trkpt>
      <trkpt lat="43.35983" lon="-1.7913">
        <ele>1</ele>
        <time>2026-03-06T18:18:51.000Z</time>
      </trkpt>
      <trkpt lat="43.35988" lon="-1.79121">
        <ele>1</ele>
        <time>2026-03-06T18:18:53.000Z</time>
      </trkpt>
      <trkpt lat="43.35994" lon="-1.79113">
        <ele>1</ele>
        <time>2026-03-06T18:18:54.000Z</time>
      </trkpt>
      <trkpt lat="43.36028" lon="-1.79075">
        <ele>3</ele>
        <time>2026-03-06T18:19:02.000Z</time>
      </trkpt>
      <trkpt lat="43.36028" lon="-1.79075">
        <ele>3</ele>
        <time>2026-03-06T18:19:02.000Z</time>
      </trkpt>
      <trkpt lat="43.36048" lon="-1.79058">
        <ele>3</ele>
        <time>2026-03-06T18:19:06.000Z</time>
      </trkpt>
      <trkpt lat="43.36058" lon="-1.79052">
        <ele>3</ele>
        <time>2026-03-06T18:19:08.000Z</time>
      </trkpt>
      <trkpt lat="43.36072" lon="-1.79044">
        <ele>4</ele>
        <time>2026-03-06T18:19:11.000Z</time>
      </trkpt>
      <trkpt lat="43.36079" lon="-1.79041">
        <ele>4</ele>
        <time>2026-03-06T18:19:12.000Z</time>
      </trkpt>
      <trkpt lat="43.36088" lon="-1.79039">
        <ele>4</ele>
        <time>2026-03-06T18:19:14.000Z</time>
      </trkpt>
      <trkpt lat="43.36088" lon="-1.79039">
        <ele>4</ele>
        <time>2026-03-06T18:19:14.000Z</time>
      </trkpt>
      <trkpt lat="43.36088" lon="-1.79038">
        <ele>4</ele>
        <time>2026-03-06T18:19:14.000Z</time>
      </trkpt>
      <trkpt lat="43.36088" lon="-1.79037">
        <ele>4</ele>
        <time>2026-03-06T18:19:14.000Z</time>
      </trkpt>
      <trkpt lat="43.36088" lon="-1.79036">
        <ele>4</ele>
        <time>2026-03-06T18:19:14.000Z</time>
      </trkpt>
      <trkpt lat="43.36088" lon="-1.79035">
        <ele>4</ele>
        <time>2026-03-06T18:19:14.000Z</time>
      </trkpt>
      <trkpt lat="43.36088" lon="-1.79034">
        <ele>4</ele>
        <time>2026-03-06T18:19:14.000Z</time>
      </trkpt>
      <trkpt lat="43.36089" lon="-1.79034">
        <ele>4</ele>
        <time>2026-03-06T18:19:15.000Z</time>
      </trkpt>
      <trkpt lat="43.36089" lon="-1.79033">
        <ele>4</ele>
        <time>2026-03-06T18:19:15.000Z</time>
      </trkpt>
      <trkpt lat="43.36089" lon="-1.79032">
        <ele>4</ele>
        <time>2026-03-06T18:19:15.000Z</time>
      </trkpt>
      <trkpt lat="43.36089" lon="-1.79031">
        <ele>4</ele>
        <time>2026-03-06T18:19:15.000Z</time>
      </trkpt>
      <trkpt lat="43.3609" lon="-1.7903">
        <ele>4</ele>
        <time>2026-03-06T18:19:15.000Z</time>
      </trkpt>
      <trkpt lat="43.3609" lon="-1.79029">
        <ele>4</ele>
        <time>2026-03-06T18:19:15.000Z</time>
      </trkpt>
      <trkpt lat="43.36091" lon="-1.79029">
        <ele>4</ele>
        <time>2026-03-06T18:19:16.000Z</time>
      </trkpt>
      <trkpt lat="43.36091" lon="-1.79028">
        <ele>4</ele>
        <time>2026-03-06T18:19:16.000Z</time>
      </trkpt>
      <trkpt lat="43.36092" lon="-1.79027">
        <ele>4</ele>
        <time>2026-03-06T18:19:16.000Z</time>
      </trkpt>
      <trkpt lat="43.36093" lon="-1.79026">
        <ele>4</ele>
        <time>2026-03-06T18:19:16.000Z</time>
      </trkpt>
      <trkpt lat="43.36094" lon="-1.79025">
        <ele>4</ele>
        <time>2026-03-06T18:19:16.000Z</time>
      </trkpt>
      <trkpt lat="43.36095" lon="-1.79024">
        <ele>4</ele>
        <time>2026-03-06T18:19:17.000Z</time>
      </trkpt>
      <trkpt lat="43.36096" lon="-1.79024">
        <ele>4</ele>
        <time>2026-03-06T18:19:17.000Z</time>
      </trkpt>
      <trkpt lat="43.36097" lon="-1.79023">
        <ele>4</ele>
        <time>2026-03-06T18:19:17.000Z</time>
      </trkpt>
      <trkpt lat="43.36098" lon="-1.79023">
        <ele>4</ele>
        <time>2026-03-06T18:19:17.000Z</time>
      </trkpt>
      <trkpt lat="43.36099" lon="-1.79023">
        <ele>4</ele>
        <time>2026-03-06T18:19:17.000Z</time>
      </trkpt>
      <trkpt lat="43.361" lon="-1.79023">
        <ele>4</ele>
        <time>2026-03-06T18:19:17.000Z</time>
      </trkpt>
      <trkpt lat="43.36101" lon="-1.79023">
        <ele>4</ele>
        <time>2026-03-06T18:19:18.000Z</time>
      </trkpt>
      <trkpt lat="43.36102" lon="-1.79023">
        <ele>4</ele>
        <time>2026-03-06T18:19:18.000Z</time>
      </trkpt>
      <trkpt lat="43.36103" lon="-1.79023">
        <ele>4</ele>
        <time>2026-03-06T18:19:18.000Z</time>
      </trkpt>
      <trkpt lat="43.36104" lon="-1.79023">
        <ele>4</ele>
        <time>2026-03-06T18:19:18.000Z</time>
      </trkpt>
      <trkpt lat="43.36104" lon="-1.79024">
        <ele>4</ele>
        <time>2026-03-06T18:19:18.000Z</time>
      </trkpt>
      <trkpt lat="43.36105" lon="-1.79024">
        <ele>4</ele>
        <time>2026-03-06T18:19:18.000Z</time>
      </trkpt>
      <trkpt lat="43.36106" lon="-1.79025">
        <ele>4</ele>
        <time>2026-03-06T18:19:19.000Z</time>
      </trkpt>
      <trkpt lat="43.36107" lon="-1.79025">
        <ele>4</ele>
        <time>2026-03-06T18:19:19.000Z</time>
      </trkpt>
      <trkpt lat="43.36107" lon="-1.79026">
        <ele>5</ele>
        <time>2026-03-06T18:19:19.000Z</time>
      </trkpt>
      <trkpt lat="43.36108" lon="-1.79026">
        <ele>5</ele>
        <time>2026-03-06T18:19:19.000Z</time>
      </trkpt>
      <trkpt lat="43.36108" lon="-1.79027">
        <ele>5</ele>
        <time>2026-03-06T18:19:19.000Z</time>
      </trkpt>
      <trkpt lat="43.36109" lon="-1.79027">
        <ele>5</ele>
        <time>2026-03-06T18:19:19.000Z</time>
      </trkpt>
      <trkpt lat="43.36109" lon="-1.79028">
        <ele>5</ele>
        <time>2026-03-06T18:19:20.000Z</time>
      </trkpt>
      <trkpt lat="43.3611" lon="-1.79029">
        <ele>5</ele>
        <time>2026-03-06T18:19:20.000Z</time>
      </trkpt>
      <trkpt lat="43.36117" lon="-1.79025">
        <ele>5</ele>
        <time>2026-03-06T18:19:21.000Z</time>
      </trkpt>
      <trkpt lat="43.36124" lon="-1.7902">
        <ele>5</ele>
        <time>2026-03-06T18:19:23.000Z</time>
      </trkpt>
      <trkpt lat="43.36161" lon="-1.79005">
        <ele>4</ele>
        <time>2026-03-06T18:19:29.000Z</time>
      </trkpt>
      <trkpt lat="43.36182" lon="-1.79">
        <ele>3</ele>
        <time>2026-03-06T18:19:33.000Z</time>
      </trkpt>
      <trkpt lat="43.36198" lon="-1.78996">
        <ele>4</ele>
        <time>2026-03-06T18:19:36.000Z</time>
      </trkpt>
      <trkpt lat="43.36221" lon="-1.78993">
        <ele>4</ele>
        <time>2026-03-06T18:19:40.000Z</time>
      </trkpt>
      <trkpt lat="43.36289" lon="-1.78982">
        <ele>7</ele>
        <time>2026-03-06T18:19:52.000Z</time>
      </trkpt>
      <trkpt lat="43.36309" lon="-1.78981">
        <ele>9</ele>
        <time>2026-03-06T18:19:56.000Z</time>
      </trkpt>
      <trkpt lat="43.36326" lon="-1.78982">
        <ele>10</ele>
        <time>2026-03-06T18:19:59.000Z</time>
      </trkpt>
      <trkpt lat="43.36336" lon="-1.78985">
        <ele>10</ele>
        <time>2026-03-06T18:20:01.000Z</time>
      </trkpt>
      <trkpt lat="43.36344" lon="-1.78987">
        <ele>10</ele>
        <time>2026-03-06T18:20:02.000Z</time>
      </trkpt>
      <trkpt lat="43.36364" lon="-1.79001">
        <ele>9</ele>
        <time>2026-03-06T18:20:06.000Z</time>
      </trkpt>
      <trkpt lat="43.3637" lon="-1.79006">
        <ele>10</ele>
        <time>2026-03-06T18:20:08.000Z</time>
      </trkpt>
      <trkpt lat="43.36378" lon="-1.79014">
        <ele>10</ele>
        <time>2026-03-06T18:20:09.000Z</time>
      </trkpt>
      <trkpt lat="43.36388" lon="-1.79026">
        <ele>11</ele>
        <time>2026-03-06T18:20:12.000Z</time>
      </trkpt>
      <trkpt lat="43.36396" lon="-1.79038">
        <ele>11</ele>
        <time>2026-03-06T18:20:14.000Z</time>
      </trkpt>
      <trkpt lat="43.364" lon="-1.79043">
        <ele>11</ele>
        <time>2026-03-06T18:20:15.000Z</time>
      </trkpt>
      <trkpt lat="43.3642" lon="-1.79069">
        <ele>12</ele>
        <time>2026-03-06T18:20:20.000Z</time>
      </trkpt>
      <trkpt lat="43.36442" lon="-1.79096">
        <ele>12</ele>
        <time>2026-03-06T18:20:25.000Z</time>
      </trkpt>
      <trkpt lat="43.36455" lon="-1.79112">
        <ele>11</ele>
        <time>2026-03-06T18:20:28.000Z</time>
      </trkpt>
      <trkpt lat="43.36466" lon="-1.79125">
        <ele>11</ele>
        <time>2026-03-06T18:20:31.000Z</time>
      </trkpt>
      <trkpt lat="43.36503" lon="-1.79171">
        <ele>8</ele>
        <time>2026-03-06T18:20:39.000Z</time>
      </trkpt>
      <trkpt lat="43.3651" lon="-1.7918">
        <ele>9</ele>
        <time>2026-03-06T18:20:41.000Z</time>
      </trkpt>
      <trkpt lat="43.36525" lon="-1.79198">
        <ele>10</ele>
        <time>2026-03-06T18:20:45.000Z</time>
      </trkpt>
      <trkpt lat="43.36543" lon="-1.79221">
        <ele>12</ele>
        <time>2026-03-06T18:20:49.000Z</time>
      </trkpt>
      <trkpt lat="43.36548" lon="-1.79228">
        <ele>12</ele>
        <time>2026-03-06T18:20:50.000Z</time>
      </trkpt>
      <trkpt lat="43.36555" lon="-1.79236">
        <ele>12</ele>
        <time>2026-03-06T18:20:52.000Z</time>
      </trkpt>
      <trkpt lat="43.36565" lon="-1.79248">
        <ele>12</ele>
        <time>2026-03-06T18:20:54.000Z</time>
      </trkpt>
      <trkpt lat="43.36569" lon="-1.79254">
        <ele>13</ele>
        <time>2026-03-06T18:20:55.000Z</time>
      </trkpt>
      <trkpt lat="43.36569" lon="-1.79254">
        <ele>13</ele>
        <time>2026-03-06T18:20:55.000Z</time>
      </trkpt>
      <trkpt lat="43.36569" lon="-1.79253">
        <ele>12</ele>
        <time>2026-03-06T18:20:55.000Z</time>
      </trkpt>
      <trkpt lat="43.3657" lon="-1.79253">
        <ele>12</ele>
        <time>2026-03-06T18:20:56.000Z</time>
      </trkpt>
      <trkpt lat="43.36571" lon="-1.79253">
        <ele>12</ele>
        <time>2026-03-06T18:20:56.000Z</time>
      </trkpt>
      <trkpt lat="43.36571" lon="-1.79252">
        <ele>12</ele>
        <time>2026-03-06T18:20:56.000Z</time>
      </trkpt>
      <trkpt lat="43.36572" lon="-1.79252">
        <ele>12</ele>
        <time>2026-03-06T18:20:56.000Z</time>
      </trkpt>
      <trkpt lat="43.36573" lon="-1.79252">
        <ele>12</ele>
        <time>2026-03-06T18:20:56.000Z</time>
      </trkpt>
      <trkpt lat="43.36574" lon="-1.79252">
        <ele>12</ele>
        <time>2026-03-06T18:20:56.000Z</time>
      </trkpt>
      <trkpt lat="43.36575" lon="-1.79252">
        <ele>12</ele>
        <time>2026-03-06T18:20:57.000Z</time>
      </trkpt>
      <trkpt lat="43.36576" lon="-1.79253">
        <ele>12</ele>
        <time>2026-03-06T18:20:57.000Z</time>
      </trkpt>
      <trkpt lat="43.36575" lon="-1.79245">
        <ele>12</ele>
        <time>2026-03-06T18:20:58.000Z</time>
      </trkpt>
      <trkpt lat="43.36576" lon="-1.79235">
        <ele>12</ele>
        <time>2026-03-06T18:20:59.000Z</time>
      </trkpt>
      <trkpt lat="43.36577" lon="-1.79227">
        <ele>12</ele>
        <time>2026-03-06T18:21:00.000Z</time>
      </trkpt>
      <trkpt lat="43.36577" lon="-1.79223">
        <ele>12</ele>
        <time>2026-03-06T18:21:01.000Z</time>
      </trkpt>
      <trkpt lat="43.36578" lon="-1.79218">
        <ele>12</ele>
        <time>2026-03-06T18:21:01.000Z</time>
      </trkpt>
      <trkpt lat="43.3658" lon="-1.7921">
        <ele>12</ele>
        <time>2026-03-06T18:21:03.000Z</time>
      </trkpt>
      <trkpt lat="43.36604" lon="-1.79121">
        <ele>7</ele>
        <time>2026-03-06T18:21:15.000Z</time>
      </trkpt>
      <trkpt lat="43.36607" lon="-1.79113">
        <ele>6</ele>
        <time>2026-03-06T18:21:16.000Z</time>
      </trkpt>
      <trkpt lat="43.36607" lon="-1.79113">
        <ele>6</ele>
        <time>2026-03-06T18:21:16.000Z</time>
      </trkpt>
      <trkpt lat="43.36616" lon="-1.79117">
        <ele>6</ele>
        <time>2026-03-06T18:21:18.000Z</time>
      </trkpt>
      <trkpt lat="43.36655" lon="-1.79138">
        <ele>6</ele>
        <time>2026-03-06T18:21:25.000Z</time>
      </trkpt>
      <trkpt lat="43.36711" lon="-1.7917">
        <ele>4</ele>
        <time>2026-03-06T18:21:36.000Z</time>
      </trkpt>
      <trkpt lat="43.36733" lon="-1.79183">
        <ele>3</ele>
        <time>2026-03-06T18:21:40.000Z</time>
      </trkpt>
      <trkpt lat="43.36735" lon="-1.79184">
        <ele>2</ele>
        <time>2026-03-06T18:21:41.000Z</time>
      </trkpt>
      <trkpt lat="43.36736" lon="-1.79186">
        <ele>2</ele>
        <time>2026-03-06T18:21:41.000Z</time>
      </trkpt>
      <trkpt lat="43.36736" lon="-1.79189">
        <ele>2</ele>
        <time>2026-03-06T18:21:41.000Z</time>
      </trkpt>
      <trkpt lat="43.36736" lon="-1.79192">
        <ele>2</ele>
        <time>2026-03-06T18:21:42.000Z</time>
      </trkpt>
      <trkpt lat="43.36733" lon="-1.792">
        <ele>3</ele>
        <time>2026-03-06T18:21:43.000Z</time>
      </trkpt>
      <trkpt lat="43.36715" lon="-1.79251">
        <ele>5</ele>
        <time>2026-03-06T18:21:50.000Z</time>
      </trkpt>
      <trkpt lat="43.36709" lon="-1.79268">
        <ele>6</ele>
        <time>2026-03-06T18:21:53.000Z</time>
      </trkpt>
      <trkpt lat="43.36709" lon="-1.79268">
        <ele>6</ele>
        <time>2026-03-06T18:21:53.000Z</time>
      </trkpt>
      <trkpt lat="43.3671" lon="-1.79281">
        <ele>6</ele>
        <time>2026-03-06T18:21:54.000Z</time>
      </trkpt>
      <trkpt lat="43.36711" lon="-1.79286">
        <ele>7</ele>
        <time>2026-03-06T18:21:55.000Z</time>
      </trkpt>
      <trkpt lat="43.36714" lon="-1.79297">
        <ele>7</ele>
        <time>2026-03-06T18:21:57.000Z</time>
      </trkpt>
      <trkpt lat="43.36716" lon="-1.79302">
        <ele>7</ele>
        <time>2026-03-06T18:21:57.000Z</time>
      </trkpt>
      <trkpt lat="43.36717" lon="-1.79306">
        <ele>7</ele>
        <time>2026-03-06T18:21:58.000Z</time>
      </trkpt>
      <trkpt lat="43.36719" lon="-1.7931">
        <ele>7</ele>
        <time>2026-03-06T18:21:58.000Z</time>
      </trkpt>
      <trkpt lat="43.3672" lon="-1.79313">
        <ele>7</ele>
        <time>2026-03-06T18:21:59.000Z</time>
      </trkpt>
      <trkpt lat="43.36722" lon="-1.79314">
        <ele>7</ele>
        <time>2026-03-06T18:21:59.000Z</time>
      </trkpt>
      <trkpt lat="43.36722" lon="-1.79315">
        <ele>7</ele>
        <time>2026-03-06T18:21:59.000Z</time>
      </trkpt>
      <trkpt lat="43.36723" lon="-1.79315">
        <ele>7</ele>
        <time>2026-03-06T18:22:00.000Z</time>
      </trkpt>
      <trkpt lat="43.36724" lon="-1.79315">
        <ele>7</ele>
        <time>2026-03-06T18:22:00.000Z</time>
      </trkpt>
      <trkpt lat="43.36727" lon="-1.79316">
        <ele>7</ele>
        <time>2026-03-06T18:22:00.000Z</time>
      </trkpt>
      <trkpt lat="43.36737" lon="-1.79318">
        <ele>6</ele>
        <time>2026-03-06T18:22:02.000Z</time>
      </trkpt>
      <trkpt lat="43.36765" lon="-1.79323">
        <ele>6</ele>
        <time>2026-03-06T18:22:07.000Z</time>
      </trkpt>
      <trkpt lat="43.36771" lon="-1.79325">
        <ele>6</ele>
        <time>2026-03-06T18:22:08.000Z</time>
      </trkpt>
      <trkpt lat="43.36782" lon="-1.79327">
        <ele>6</ele>
        <time>2026-03-06T18:22:10.000Z</time>
      </trkpt>
      <trkpt lat="43.36817" lon="-1.79333">
        <ele>8</ele>
        <time>2026-03-06T18:22:16.000Z</time>
      </trkpt>
      <trkpt lat="43.36829" lon="-1.79335">
        <ele>8</ele>
        <time>2026-03-06T18:22:19.000Z</time>
      </trkpt>
      <trkpt lat="43.36831" lon="-1.79336">
        <ele>8</ele>
        <time>2026-03-06T18:22:19.000Z</time>
      </trkpt>
      <trkpt lat="43.3684" lon="-1.79337">
        <ele>8</ele>
        <time>2026-03-06T18:22:21.000Z</time>
      </trkpt>
      <trkpt lat="43.36906" lon="-1.79349">
        <ele>9</ele>
        <time>2026-03-06T18:22:32.000Z</time>
      </trkpt>
      <trkpt lat="43.36917" lon="-1.79354">
        <ele>9</ele>
        <time>2026-03-06T18:22:34.000Z</time>
      </trkpt>
      <trkpt lat="43.3692" lon="-1.79356">
        <ele>8</ele>
        <time>2026-03-06T18:22:35.000Z</time>
      </trkpt>
      <trkpt lat="43.3692" lon="-1.79356">
        <ele>8</ele>
        <time>2026-03-06T18:22:35.000Z</time>
      </trkpt>
      <trkpt lat="43.36921" lon="-1.79356">
        <ele>8</ele>
        <time>2026-03-06T18:22:35.000Z</time>
      </trkpt>
      <trkpt lat="43.36922" lon="-1.79356">
        <ele>8</ele>
        <time>2026-03-06T18:22:35.000Z</time>
      </trkpt>
      <trkpt lat="43.36922" lon="-1.79355">
        <ele>9</ele>
        <time>2026-03-06T18:22:36.000Z</time>
      </trkpt>
      <trkpt lat="43.36923" lon="-1.79355">
        <ele>9</ele>
        <time>2026-03-06T18:22:36.000Z</time>
      </trkpt>
      <trkpt lat="43.36924" lon="-1.79355">
        <ele>9</ele>
        <time>2026-03-06T18:22:36.000Z</time>
      </trkpt>
      <trkpt lat="43.36925" lon="-1.79355">
        <ele>9</ele>
        <time>2026-03-06T18:22:36.000Z</time>
      </trkpt>
      <trkpt lat="43.36926" lon="-1.79355">
        <ele>9</ele>
        <time>2026-03-06T18:22:36.000Z</time>
      </trkpt>
      <trkpt lat="43.36927" lon="-1.79355">
        <ele>9</ele>
        <time>2026-03-06T18:22:36.000Z</time>
      </trkpt>
      <trkpt lat="43.36927" lon="-1.79356">
        <ele>9</ele>
        <time>2026-03-06T18:22:37.000Z</time>
      </trkpt>
      <trkpt lat="43.36928" lon="-1.79356">
        <ele>9</ele>
        <time>2026-03-06T18:22:37.000Z</time>
      </trkpt>
      <trkpt lat="43.36929" lon="-1.79356">
        <ele>9</ele>
        <time>2026-03-06T18:22:37.000Z</time>
      </trkpt>
      <trkpt lat="43.36929" lon="-1.79357">
        <ele>9</ele>
        <time>2026-03-06T18:22:37.000Z</time>
      </trkpt>
      <trkpt lat="43.3693" lon="-1.79357">
        <ele>9</ele>
        <time>2026-03-06T18:22:37.000Z</time>
      </trkpt>
      <trkpt lat="43.3693" lon="-1.79358">
        <ele>9</ele>
        <time>2026-03-06T18:22:37.000Z</time>
      </trkpt>
      <trkpt lat="43.36931" lon="-1.79359">
        <ele>8</ele>
        <time>2026-03-06T18:22:38.000Z</time>
      </trkpt>
      <trkpt lat="43.36931" lon="-1.7936">
        <ele>8</ele>
        <time>2026-03-06T18:22:38.000Z</time>
      </trkpt>
      <trkpt lat="43.36932" lon="-1.7936">
        <ele>8</ele>
        <time>2026-03-06T18:22:38.000Z</time>
      </trkpt>
      <trkpt lat="43.36932" lon="-1.79361">
        <ele>8</ele>
        <time>2026-03-06T18:22:38.000Z</time>
      </trkpt>
      <trkpt lat="43.36932" lon="-1.79362">
        <ele>8</ele>
        <time>2026-03-06T18:22:38.000Z</time>
      </trkpt>
      <trkpt lat="43.36932" lon="-1.79363">
        <ele>8</ele>
        <time>2026-03-06T18:22:38.000Z</time>
      </trkpt>
      <trkpt lat="43.36935" lon="-1.79364">
        <ele>8</ele>
        <time>2026-03-06T18:22:39.000Z</time>
      </trkpt>
      <trkpt lat="43.36938" lon="-1.79366">
        <ele>8</ele>
        <time>2026-03-06T18:22:39.000Z</time>
      </trkpt>
      <trkpt lat="43.36942" lon="-1.79368">
        <ele>8</ele>
        <time>2026-03-06T18:22:40.000Z</time>
      </trkpt>
      <trkpt lat="43.36946" lon="-1.79369">
        <ele>8</ele>
        <time>2026-03-06T18:22:41.000Z</time>
      </trkpt>
      <trkpt lat="43.3695" lon="-1.7937">
        <ele>8</ele>
        <time>2026-03-06T18:22:42.000Z</time>
      </trkpt>
      <trkpt lat="43.36951" lon="-1.79371">
        <ele>8</ele>
        <time>2026-03-06T18:22:42.000Z</time>
      </trkpt>
      <trkpt lat="43.36953" lon="-1.79371">
        <ele>8</ele>
        <time>2026-03-06T18:22:42.000Z</time>
      </trkpt>
      <trkpt lat="43.36956" lon="-1.79372">
        <ele>9</ele>
        <time>2026-03-06T18:22:43.000Z</time>
      </trkpt>
      <trkpt lat="43.36961" lon="-1.79374">
        <ele>9</ele>
        <time>2026-03-06T18:22:44.000Z</time>
      </trkpt>
      <trkpt lat="43.37021" lon="-1.79367">
        <ele>9</ele>
        <time>2026-03-06T18:22:54.000Z</time>
      </trkpt>
      <trkpt lat="43.37052" lon="-1.79364">
        <ele>9</ele>
        <time>2026-03-06T18:23:00.000Z</time>
      </trkpt>
      <trkpt lat="43.37072" lon="-1.79362">
        <ele>8</ele>
        <time>2026-03-06T18:23:03.000Z</time>
      </trkpt>
      <trkpt lat="43.37092" lon="-1.7936">
        <ele>8</ele>
        <time>2026-03-06T18:23:07.000Z</time>
      </trkpt>
      <trkpt lat="43.37106" lon="-1.79359">
        <ele>7</ele>
        <time>2026-03-06T18:23:10.000Z</time>
      </trkpt>
      <trkpt lat="43.37118" lon="-1.79359">
        <ele>6</ele>
        <time>2026-03-06T18:23:12.000Z</time>
      </trkpt>
      <trkpt lat="43.37155" lon="-1.79365">
        <ele>5</ele>
        <time>2026-03-06T18:23:18.000Z</time>
      </trkpt>
      <trkpt lat="43.37171" lon="-1.79367">
        <ele>5</ele>
        <time>2026-03-06T18:23:21.000Z</time>
      </trkpt>
      <trkpt lat="43.37177" lon="-1.79369">
        <ele>4</ele>
        <time>2026-03-06T18:23:22.000Z</time>
      </trkpt>
      <trkpt lat="43.37186" lon="-1.79373">
        <ele>4</ele>
        <time>2026-03-06T18:23:24.000Z</time>
      </trkpt>
      <trkpt lat="43.37203" lon="-1.79383">
        <ele>4</ele>
        <time>2026-03-06T18:23:27.000Z</time>
      </trkpt>
      <trkpt lat="43.37203" lon="-1.79383">
        <ele>4</ele>
        <time>2026-03-06T18:23:27.000Z</time>
      </trkpt>
      <trkpt lat="43.37204" lon="-1.79383">
        <ele>4</ele>
        <time>2026-03-06T18:23:27.000Z</time>
      </trkpt>
      <trkpt lat="43.37205" lon="-1.79383">
        <ele>4</ele>
        <time>2026-03-06T18:23:28.000Z</time>
      </trkpt>
      <trkpt lat="43.37206" lon="-1.79383">
        <ele>4</ele>
        <time>2026-03-06T18:23:28.000Z</time>
      </trkpt>
      <trkpt lat="43.37207" lon="-1.79383">
        <ele>4</ele>
        <time>2026-03-06T18:23:28.000Z</time>
      </trkpt>
      <trkpt lat="43.37207" lon="-1.79384">
        <ele>4</ele>
        <time>2026-03-06T18:23:28.000Z</time>
      </trkpt>
      <trkpt lat="43.37208" lon="-1.79384">
        <ele>4</ele>
        <time>2026-03-06T18:23:28.000Z</time>
      </trkpt>
      <trkpt lat="43.37209" lon="-1.79384">
        <ele>4</ele>
        <time>2026-03-06T18:23:28.000Z</time>
      </trkpt>
      <trkpt lat="43.37209" lon="-1.79385">
        <ele>4</ele>
        <time>2026-03-06T18:23:29.000Z</time>
      </trkpt>
      <trkpt lat="43.3721" lon="-1.79385">
        <ele>4</ele>
        <time>2026-03-06T18:23:29.000Z</time>
      </trkpt>
      <trkpt lat="43.37211" lon="-1.79386">
        <ele>4</ele>
        <time>2026-03-06T18:23:29.000Z</time>
      </trkpt>
      <trkpt lat="43.37212" lon="-1.79387">
        <ele>4</ele>
        <time>2026-03-06T18:23:29.000Z</time>
      </trkpt>
      <trkpt lat="43.37213" lon="-1.79388">
        <ele>4</ele>
        <time>2026-03-06T18:23:29.000Z</time>
      </trkpt>
      <trkpt lat="43.37213" lon="-1.79389">
        <ele>4</ele>
        <time>2026-03-06T18:23:30.000Z</time>
      </trkpt>
      <trkpt lat="43.37214" lon="-1.79389">
        <ele>4</ele>
        <time>2026-03-06T18:23:30.000Z</time>
      </trkpt>
      <trkpt lat="43.37214" lon="-1.7939">
        <ele>4</ele>
        <time>2026-03-06T18:23:30.000Z</time>
      </trkpt>
      <trkpt lat="43.37214" lon="-1.79391">
        <ele>4</ele>
        <time>2026-03-06T18:23:30.000Z</time>
      </trkpt>
      <trkpt lat="43.37215" lon="-1.79392">
        <ele>4</ele>
        <time>2026-03-06T18:23:30.000Z</time>
      </trkpt>
      <trkpt lat="43.37215" lon="-1.79393">
        <ele>4</ele>
        <time>2026-03-06T18:23:30.000Z</time>
      </trkpt>
      <trkpt lat="43.37216" lon="-1.79394">
        <ele>4</ele>
        <time>2026-03-06T18:23:31.000Z</time>
      </trkpt>
      <trkpt lat="43.37216" lon="-1.79395">
        <ele>4</ele>
        <time>2026-03-06T18:23:31.000Z</time>
      </trkpt>
      <trkpt lat="43.37216" lon="-1.79396">
        <ele>5</ele>
        <time>2026-03-06T18:23:31.000Z</time>
      </trkpt>
      <trkpt lat="43.37216" lon="-1.79397">
        <ele>5</ele>
        <time>2026-03-06T18:23:31.000Z</time>
      </trkpt>
      <trkpt lat="43.37216" lon="-1.79398">
        <ele>5</ele>
        <time>2026-03-06T18:23:31.000Z</time>
      </trkpt>
      <trkpt lat="43.37216" lon="-1.79399">
        <ele>5</ele>
        <time>2026-03-06T18:23:31.000Z</time>
      </trkpt>
      <trkpt lat="43.37216" lon="-1.794">
        <ele>5</ele>
        <time>2026-03-06T18:23:31.000Z</time>
      </trkpt>
      <trkpt lat="43.37216" lon="-1.79401">
        <ele>5</ele>
        <time>2026-03-06T18:23:31.000Z</time>
      </trkpt>
      <trkpt lat="43.37216" lon="-1.79402">
        <ele>5</ele>
        <time>2026-03-06T18:23:32.000Z</time>
      </trkpt>
      <trkpt lat="43.37216" lon="-1.79403">
        <ele>5</ele>
        <time>2026-03-06T18:23:32.000Z</time>
      </trkpt>
      <trkpt lat="43.37216" lon="-1.79405">
        <ele>5</ele>
        <time>2026-03-06T18:23:32.000Z</time>
      </trkpt>
      <trkpt lat="43.37221" lon="-1.79424">
        <ele>5</ele>
        <time>2026-03-06T18:23:35.000Z</time>
      </trkpt>
      <trkpt lat="43.37222" lon="-1.79431">
        <ele>5</ele>
        <time>2026-03-06T18:23:35.000Z</time>
      </trkpt>
      <trkpt lat="43.37225" lon="-1.79437">
        <ele>5</ele>
        <time>2026-03-06T18:23:36.000Z</time>
      </trkpt>
      <trkpt lat="43.37237" lon="-1.79457">
        <ele>5</ele>
        <time>2026-03-06T18:23:40.000Z</time>
      </trkpt>
      <trkpt lat="43.3726" lon="-1.79489">
        <ele>5</ele>
        <time>2026-03-06T18:23:46.000Z</time>
      </trkpt>
      <trkpt lat="43.37312" lon="-1.7957">
        <ele>6</ele>
        <time>2026-03-06T18:24:00.000Z</time>
      </trkpt>
      <trkpt lat="43.37315" lon="-1.79574">
        <ele>6</ele>
        <time>2026-03-06T18:24:00.000Z</time>
      </trkpt>
      <trkpt lat="43.37319" lon="-1.79581">
        <ele>6</ele>
        <time>2026-03-06T18:24:01.000Z</time>
      </trkpt>
      <trkpt lat="43.37325" lon="-1.79588">
        <ele>7</ele>
        <time>2026-03-06T18:24:03.000Z</time>
      </trkpt>
      <trkpt lat="43.37333" lon="-1.79599">
        <ele>7</ele>
        <time>2026-03-06T18:24:05.000Z</time>
      </trkpt>
      <trkpt lat="43.37339" lon="-1.79605">
        <ele>8</ele>
        <time>2026-03-06T18:24:06.000Z</time>
      </trkpt>
      <trkpt lat="43.37345" lon="-1.79611">
        <ele>8</ele>
        <time>2026-03-06T18:24:08.000Z</time>
      </trkpt>
      <trkpt lat="43.37352" lon="-1.79616">
        <ele>8</ele>
        <time>2026-03-06T18:24:09.000Z</time>
      </trkpt>
      <trkpt lat="43.37355" lon="-1.79619">
        <ele>8</ele>
        <time>2026-03-06T18:24:10.000Z</time>
      </trkpt>
      <trkpt lat="43.37359" lon="-1.79621">
        <ele>8</ele>
        <time>2026-03-06T18:24:10.000Z</time>
      </trkpt>
      <trkpt lat="43.37364" lon="-1.79623">
        <ele>8</ele>
        <time>2026-03-06T18:24:11.000Z</time>
      </trkpt>
      <trkpt lat="43.3737" lon="-1.79625">
        <ele>8</ele>
        <time>2026-03-06T18:24:12.000Z</time>
      </trkpt>
      <trkpt lat="43.3738" lon="-1.79631">
        <ele>8</ele>
        <time>2026-03-06T18:24:14.000Z</time>
      </trkpt>
      <trkpt lat="43.37384" lon="-1.79632">
        <ele>8</ele>
        <time>2026-03-06T18:24:15.000Z</time>
      </trkpt>
      <trkpt lat="43.37388" lon="-1.79633">
        <ele>8</ele>
        <time>2026-03-06T18:24:16.000Z</time>
      </trkpt>
      <trkpt lat="43.37393" lon="-1.79634">
        <ele>8</ele>
        <time>2026-03-06T18:24:17.000Z</time>
      </trkpt>
      <trkpt lat="43.37412" lon="-1.79637">
        <ele>7</ele>
        <time>2026-03-06T18:24:20.000Z</time>
      </trkpt>
      <trkpt lat="43.37432" lon="-1.79639">
        <ele>7</ele>
        <time>2026-03-06T18:24:24.000Z</time>
      </trkpt>
      <trkpt lat="43.37435" lon="-1.7964">
        <ele>7</ele>
        <time>2026-03-06T18:24:24.000Z</time>
      </trkpt>
      <trkpt lat="43.37439" lon="-1.79642">
        <ele>7</ele>
        <time>2026-03-06T18:24:25.000Z</time>
      </trkpt>
      <trkpt lat="43.37442" lon="-1.79643">
        <ele>7</ele>
        <time>2026-03-06T18:24:25.000Z</time>
      </trkpt>
      <trkpt lat="43.37445" lon="-1.79645">
        <ele>7</ele>
        <time>2026-03-06T18:24:26.000Z</time>
      </trkpt>
      <trkpt lat="43.37447" lon="-1.79647">
        <ele>7</ele>
        <time>2026-03-06T18:24:27.000Z</time>
      </trkpt>
      <trkpt lat="43.37458" lon="-1.79655">
        <ele>7</ele>
        <time>2026-03-06T18:24:29.000Z</time>
      </trkpt>
      <trkpt lat="43.37465" lon="-1.79662">
        <ele>8</ele>
        <time>2026-03-06T18:24:30.000Z</time>
      </trkpt>
      <trkpt lat="43.37474" lon="-1.79669">
        <ele>8</ele>
        <time>2026-03-06T18:24:32.000Z</time>
      </trkpt>
      <trkpt lat="43.37478" lon="-1.79673">
        <ele>8</ele>
        <time>2026-03-06T18:24:33.000Z</time>
      </trkpt>
      <trkpt lat="43.37482" lon="-1.79677">
        <ele>8</ele>
        <time>2026-03-06T18:24:34.000Z</time>
      </trkpt>
      <trkpt lat="43.37484" lon="-1.79679">
        <ele>8</ele>
        <time>2026-03-06T18:24:34.000Z</time>
      </trkpt>
      <trkpt lat="43.37487" lon="-1.79681">
        <ele>8</ele>
        <time>2026-03-06T18:24:35.000Z</time>
      </trkpt>
      <trkpt lat="43.37489" lon="-1.79683">
        <ele>8</ele>
        <time>2026-03-06T18:24:35.000Z</time>
      </trkpt>
      <trkpt lat="43.37491" lon="-1.79685">
        <ele>8</ele>
        <time>2026-03-06T18:24:36.000Z</time>
      </trkpt>
      <trkpt lat="43.37495" lon="-1.7969">
        <ele>8</ele>
        <time>2026-03-06T18:24:37.000Z</time>
      </trkpt>
      <trkpt lat="43.37495" lon="-1.7969">
        <ele>8</ele>
        <time>2026-03-06T18:24:37.000Z</time>
      </trkpt>
      <trkpt lat="43.37496" lon="-1.79689">
        <ele>8</ele>
        <time>2026-03-06T18:24:37.000Z</time>
      </trkpt>
      <trkpt lat="43.37497" lon="-1.79688">
        <ele>8</ele>
        <time>2026-03-06T18:24:37.000Z</time>
      </trkpt>
      <trkpt lat="43.37499" lon="-1.79688">
        <ele>8</ele>
        <time>2026-03-06T18:24:38.000Z</time>
      </trkpt>
      <trkpt lat="43.375" lon="-1.79687">
        <ele>8</ele>
        <time>2026-03-06T18:24:38.000Z</time>
      </trkpt>
      <trkpt lat="43.37501" lon="-1.79687">
        <ele>8</ele>
        <time>2026-03-06T18:24:38.000Z</time>
      </trkpt>
      <trkpt lat="43.37503" lon="-1.79687">
        <ele>8</ele>
        <time>2026-03-06T18:24:38.000Z</time>
      </trkpt>
      <trkpt lat="43.37504" lon="-1.79687">
        <ele>8</ele>
        <time>2026-03-06T18:24:38.000Z</time>
      </trkpt>
      <trkpt lat="43.37505" lon="-1.79687">
        <ele>8</ele>
        <time>2026-03-06T18:24:39.000Z</time>
      </trkpt>
      <trkpt lat="43.37507" lon="-1.79688">
        <ele>8</ele>
        <time>2026-03-06T18:24:39.000Z</time>
      </trkpt>
      <trkpt lat="43.37508" lon="-1.79688">
        <ele>8</ele>
        <time>2026-03-06T18:24:39.000Z</time>
      </trkpt>
      <trkpt lat="43.37509" lon="-1.79689">
        <ele>8</ele>
        <time>2026-03-06T18:24:39.000Z</time>
      </trkpt>
      <trkpt lat="43.37511" lon="-1.7969">
        <ele>8</ele>
        <time>2026-03-06T18:24:40.000Z</time>
      </trkpt>
      <trkpt lat="43.37512" lon="-1.7969">
        <ele>7</ele>
        <time>2026-03-06T18:24:40.000Z</time>
      </trkpt>
      <trkpt lat="43.37513" lon="-1.79691">
        <ele>7</ele>
        <time>2026-03-06T18:24:40.000Z</time>
      </trkpt>
      <trkpt lat="43.37514" lon="-1.79693">
        <ele>8</ele>
        <time>2026-03-06T18:24:41.000Z</time>
      </trkpt>
      <trkpt lat="43.37515" lon="-1.79694">
        <ele>8</ele>
        <time>2026-03-06T18:24:41.000Z</time>
      </trkpt>
      <trkpt lat="43.37516" lon="-1.79695">
        <ele>8</ele>
        <time>2026-03-06T18:24:41.000Z</time>
      </trkpt>
      <trkpt lat="43.37517" lon="-1.79697">
        <ele>8</ele>
        <time>2026-03-06T18:24:41.000Z</time>
      </trkpt>
      <trkpt lat="43.37518" lon="-1.79698">
        <ele>8</ele>
        <time>2026-03-06T18:24:41.000Z</time>
      </trkpt>
      <trkpt lat="43.37518" lon="-1.797">
        <ele>8</ele>
        <time>2026-03-06T18:24:42.000Z</time>
      </trkpt>
      <trkpt lat="43.37519" lon="-1.79702">
        <ele>8</ele>
        <time>2026-03-06T18:24:42.000Z</time>
      </trkpt>
      <trkpt lat="43.37519" lon="-1.79703">
        <ele>8</ele>
        <time>2026-03-06T18:24:42.000Z</time>
      </trkpt>
      <trkpt lat="43.3752" lon="-1.79705">
        <ele>8</ele>
        <time>2026-03-06T18:24:43.000Z</time>
      </trkpt>
      <trkpt lat="43.3752" lon="-1.79707">
        <ele>8</ele>
        <time>2026-03-06T18:24:43.000Z</time>
      </trkpt>
      <trkpt lat="43.3752" lon="-1.7971">
        <ele>8</ele>
        <time>2026-03-06T18:24:43.000Z</time>
      </trkpt>
      <trkpt lat="43.37522" lon="-1.79712">
        <ele>8</ele>
        <time>2026-03-06T18:24:44.000Z</time>
      </trkpt>
      <trkpt lat="43.37523" lon="-1.79714">
        <ele>8</ele>
        <time>2026-03-06T18:24:44.000Z</time>
      </trkpt>
      <trkpt lat="43.37524" lon="-1.79716">
        <ele>8</ele>
        <time>2026-03-06T18:24:44.000Z</time>
      </trkpt>
      <trkpt lat="43.37526" lon="-1.79719">
        <ele>8</ele>
        <time>2026-03-06T18:24:45.000Z</time>
      </trkpt>
      <trkpt lat="43.37528" lon="-1.79721">
        <ele>8</ele>
        <time>2026-03-06T18:24:45.000Z</time>
      </trkpt>
      <trkpt lat="43.37529" lon="-1.79722">
        <ele>8</ele>
        <time>2026-03-06T18:24:45.000Z</time>
      </trkpt>
      <trkpt lat="43.3753" lon="-1.79724">
        <ele>8</ele>
        <time>2026-03-06T18:24:46.000Z</time>
      </trkpt>
      <trkpt lat="43.37531" lon="-1.79725">
        <ele>9</ele>
        <time>2026-03-06T18:24:46.000Z</time>
      </trkpt>
      <trkpt lat="43.37533" lon="-1.79726">
        <ele>9</ele>
        <time>2026-03-06T18:24:46.000Z</time>
      </trkpt>
      <trkpt lat="43.37535" lon="-1.79727">
        <ele>9</ele>
        <time>2026-03-06T18:24:47.000Z</time>
      </trkpt>
      <trkpt lat="43.37538" lon="-1.79729">
        <ele>9</ele>
        <time>2026-03-06T18:24:47.000Z</time>
      </trkpt>
      <trkpt lat="43.37541" lon="-1.7973">
        <ele>9</ele>
        <time>2026-03-06T18:24:48.000Z</time>
      </trkpt>
      <trkpt lat="43.37543" lon="-1.79731">
        <ele>9</ele>
        <time>2026-03-06T18:24:48.000Z</time>
      </trkpt>
      <trkpt lat="43.3755" lon="-1.79733">
        <ele>9</ele>
        <time>2026-03-06T18:24:49.000Z</time>
      </trkpt>
      <trkpt lat="43.37556" lon="-1.79734">
        <ele>8</ele>
        <time>2026-03-06T18:24:51.000Z</time>
      </trkpt>
      <trkpt lat="43.37565" lon="-1.79736">
        <ele>8</ele>
        <time>2026-03-06T18:24:52.000Z</time>
      </trkpt>
      <trkpt lat="43.37572" lon="-1.79737">
        <ele>8</ele>
        <time>2026-03-06T18:24:53.000Z</time>
      </trkpt>
      <trkpt lat="43.37577" lon="-1.79737">
        <ele>8</ele>
        <time>2026-03-06T18:24:54.000Z</time>
      </trkpt>
      <trkpt lat="43.37583" lon="-1.79736">
        <ele>8</ele>
        <time>2026-03-06T18:24:55.000Z</time>
      </trkpt>
      <trkpt lat="43.37588" lon="-1.79736">
        <ele>8</ele>
        <time>2026-03-06T18:24:56.000Z</time>
      </trkpt>
      <trkpt lat="43.37592" lon="-1.79735">
        <ele>8</ele>
        <time>2026-03-06T18:24:57.000Z</time>
      </trkpt>
      <trkpt lat="43.37598" lon="-1.79734">
        <ele>8</ele>
        <time>2026-03-06T18:24:58.000Z</time>
      </trkpt>
      <trkpt lat="43.37602" lon="-1.79734">
        <ele>7</ele>
        <time>2026-03-06T18:24:59.000Z</time>
      </trkpt>
      <trkpt lat="43.37607" lon="-1.79734">
        <ele>7</ele>
        <time>2026-03-06T18:25:00.000Z</time>
      </trkpt>
      <trkpt lat="43.37612" lon="-1.79734">
        <ele>7</ele>
        <time>2026-03-06T18:25:01.000Z</time>
      </trkpt>
      <trkpt lat="43.37618" lon="-1.79734">
        <ele>7</ele>
        <time>2026-03-06T18:25:02.000Z</time>
      </trkpt>
      <trkpt lat="43.37621" lon="-1.79735">
        <ele>7</ele>
        <time>2026-03-06T18:25:02.000Z</time>
      </trkpt>
      <trkpt lat="43.37625" lon="-1.79736">
        <ele>7</ele>
        <time>2026-03-06T18:25:03.000Z</time>
      </trkpt>
      <trkpt lat="43.37628" lon="-1.79737">
        <ele>7</ele>
        <time>2026-03-06T18:25:03.000Z</time>
      </trkpt>
      <trkpt lat="43.37631" lon="-1.79738">
        <ele>7</ele>
        <time>2026-03-06T18:25:04.000Z</time>
      </trkpt>
      <trkpt lat="43.37642" lon="-1.79742">
        <ele>7</ele>
        <time>2026-03-06T18:25:06.000Z</time>
      </trkpt>
      <trkpt lat="43.37662" lon="-1.79752">
        <ele>6</ele>
        <time>2026-03-06T18:25:10.000Z</time>
      </trkpt>
      <trkpt lat="43.37699" lon="-1.7977">
        <ele>9</ele>
        <time>2026-03-06T18:25:17.000Z</time>
      </trkpt>
      <trkpt lat="43.37714" lon="-1.79776">
        <ele>10</ele>
        <time>2026-03-06T18:25:20.000Z</time>
      </trkpt>
      <trkpt lat="43.37724" lon="-1.79781">
        <ele>12</ele>
        <time>2026-03-06T18:25:21.000Z</time>
      </trkpt>
      <trkpt lat="43.37733" lon="-1.79784">
        <ele>12</ele>
        <time>2026-03-06T18:25:23.000Z</time>
      </trkpt>
      <trkpt lat="43.37742" lon="-1.79786">
        <ele>13</ele>
        <time>2026-03-06T18:25:25.000Z</time>
      </trkpt>
      <trkpt lat="43.3777" lon="-1.79791">
        <ele>14</ele>
        <time>2026-03-06T18:25:30.000Z</time>
      </trkpt>
      <trkpt lat="43.37818" lon="-1.798">
        <ele>15</ele>
        <time>2026-03-06T18:25:38.000Z</time>
      </trkpt>
      <trkpt lat="43.37894" lon="-1.79813">
        <ele>11</ele>
        <time>2026-03-06T18:25:52.000Z</time>
      </trkpt>
      <trkpt lat="43.37903" lon="-1.79816">
        <ele>10</ele>
        <time>2026-03-06T18:25:54.000Z</time>
      </trkpt>
      <trkpt lat="43.37906" lon="-1.79816">
        <ele>10</ele>
        <time>2026-03-06T18:25:54.000Z</time>
      </trkpt>
      <trkpt lat="43.3791" lon="-1.79817">
        <ele>9</ele>
        <time>2026-03-06T18:25:55.000Z</time>
      </trkpt>
      <trkpt lat="43.37912" lon="-1.79817">
        <ele>9</ele>
        <time>2026-03-06T18:25:55.000Z</time>
      </trkpt>
      <trkpt lat="43.37915" lon="-1.79816">
        <ele>9</ele>
        <time>2026-03-06T18:25:56.000Z</time>
      </trkpt>
      <trkpt lat="43.37918" lon="-1.79816">
        <ele>8</ele>
        <time>2026-03-06T18:25:56.000Z</time>
      </trkpt>
      <trkpt lat="43.3792" lon="-1.79815">
        <ele>8</ele>
        <time>2026-03-06T18:25:57.000Z</time>
      </trkpt>
      <trkpt lat="43.37921" lon="-1.79814">
        <ele>8</ele>
        <time>2026-03-06T18:25:57.000Z</time>
      </trkpt>
      <trkpt lat="43.37924" lon="-1.79813">
        <ele>8</ele>
        <time>2026-03-06T18:25:58.000Z</time>
      </trkpt>
      <trkpt lat="43.37927" lon="-1.7981">
        <ele>8</ele>
        <time>2026-03-06T18:25:58.000Z</time>
      </trkpt>
      <trkpt lat="43.3793" lon="-1.79807">
        <ele>8</ele>
        <time>2026-03-06T18:25:59.000Z</time>
      </trkpt>
      <trkpt lat="43.37932" lon="-1.79806">
        <ele>7</ele>
        <time>2026-03-06T18:25:59.000Z</time>
      </trkpt>
      <trkpt lat="43.37936" lon="-1.79804">
        <ele>7</ele>
        <time>2026-03-06T18:26:00.000Z</time>
      </trkpt>
      <trkpt lat="43.37936" lon="-1.79804">
        <ele>7</ele>
        <time>2026-03-06T18:26:00.000Z</time>
      </trkpt>
      <trkpt lat="43.37936" lon="-1.79802">
        <ele>7</ele>
        <time>2026-03-06T18:26:00.000Z</time>
      </trkpt>
      <trkpt lat="43.37936" lon="-1.79801">
        <ele>7</ele>
        <time>2026-03-06T18:26:00.000Z</time>
      </trkpt>
      <trkpt lat="43.37936" lon="-1.798">
        <ele>7</ele>
        <time>2026-03-06T18:26:00.000Z</time>
      </trkpt>
      <trkpt lat="43.37937" lon="-1.79799">
        <ele>7</ele>
        <time>2026-03-06T18:26:01.000Z</time>
      </trkpt>
      <trkpt lat="43.37937" lon="-1.79798">
        <ele>7</ele>
        <time>2026-03-06T18:26:01.000Z</time>
      </trkpt>
      <trkpt lat="43.37937" lon="-1.79797">
        <ele>7</ele>
        <time>2026-03-06T18:26:01.000Z</time>
      </trkpt>
      <trkpt lat="43.37938" lon="-1.79796">
        <ele>7</ele>
        <time>2026-03-06T18:26:01.000Z</time>
      </trkpt>
      <trkpt lat="43.37938" lon="-1.79795">
        <ele>7</ele>
        <time>2026-03-06T18:26:01.000Z</time>
      </trkpt>
      <trkpt lat="43.37939" lon="-1.79794">
        <ele>7</ele>
        <time>2026-03-06T18:26:02.000Z</time>
      </trkpt>
      <trkpt lat="43.3794" lon="-1.79793">
        <ele>7</ele>
        <time>2026-03-06T18:26:02.000Z</time>
      </trkpt>
      <trkpt lat="43.37941" lon="-1.79792">
        <ele>6</ele>
        <time>2026-03-06T18:26:02.000Z</time>
      </trkpt>
      <trkpt lat="43.37941" lon="-1.79791">
        <ele>6</ele>
        <time>2026-03-06T18:26:02.000Z</time>
      </trkpt>
      <trkpt lat="43.37942" lon="-1.79791">
        <ele>6</ele>
        <time>2026-03-06T18:26:02.000Z</time>
      </trkpt>
      <trkpt lat="43.37943" lon="-1.7979">
        <ele>6</ele>
        <time>2026-03-06T18:26:03.000Z</time>
      </trkpt>
      <trkpt lat="43.37944" lon="-1.7979">
        <ele>6</ele>
        <time>2026-03-06T18:26:03.000Z</time>
      </trkpt>
      <trkpt lat="43.37944" lon="-1.79789">
        <ele>6</ele>
        <time>2026-03-06T18:26:03.000Z</time>
      </trkpt>
      <trkpt lat="43.37945" lon="-1.79789">
        <ele>6</ele>
        <time>2026-03-06T18:26:03.000Z</time>
      </trkpt>
      <trkpt lat="43.37946" lon="-1.79788">
        <ele>6</ele>
        <time>2026-03-06T18:26:03.000Z</time>
      </trkpt>
      <trkpt lat="43.37947" lon="-1.79788">
        <ele>6</ele>
        <time>2026-03-06T18:26:03.000Z</time>
      </trkpt>
      <trkpt lat="43.37948" lon="-1.79788">
        <ele>6</ele>
        <time>2026-03-06T18:26:04.000Z</time>
      </trkpt>
      <trkpt lat="43.37949" lon="-1.79788">
        <ele>6</ele>
        <time>2026-03-06T18:26:04.000Z</time>
      </trkpt>
      <trkpt lat="43.3795" lon="-1.79788">
        <ele>6</ele>
        <time>2026-03-06T18:26:04.000Z</time>
      </trkpt>
      <trkpt lat="43.37951" lon="-1.79788">
        <ele>6</ele>
        <time>2026-03-06T18:26:04.000Z</time>
      </trkpt>
      <trkpt lat="43.37952" lon="-1.79788">
        <ele>6</ele>
        <time>2026-03-06T18:26:04.000Z</time>
      </trkpt>
      <trkpt lat="43.37953" lon="-1.79788">
        <ele>6</ele>
        <time>2026-03-06T18:26:04.000Z</time>
      </trkpt>
      <trkpt lat="43.37954" lon="-1.79789">
        <ele>6</ele>
        <time>2026-03-06T18:26:05.000Z</time>
      </trkpt>
      <trkpt lat="43.37955" lon="-1.79789">
        <ele>6</ele>
        <time>2026-03-06T18:26:05.000Z</time>
      </trkpt>
      <trkpt lat="43.37955" lon="-1.7979">
        <ele>6</ele>
        <time>2026-03-06T18:26:05.000Z</time>
      </trkpt>
      <trkpt lat="43.37956" lon="-1.7979">
        <ele>6</ele>
        <time>2026-03-06T18:26:05.000Z</time>
      </trkpt>
      <trkpt lat="43.37957" lon="-1.79791">
        <ele>6</ele>
        <time>2026-03-06T18:26:05.000Z</time>
      </trkpt>
      <trkpt lat="43.37958" lon="-1.79791">
        <ele>6</ele>
        <time>2026-03-06T18:26:06.000Z</time>
      </trkpt>
      <trkpt lat="43.37958" lon="-1.79792">
        <ele>6</ele>
        <time>2026-03-06T18:26:06.000Z</time>
      </trkpt>
      <trkpt lat="43.37959" lon="-1.79793">
        <ele>6</ele>
        <time>2026-03-06T18:26:06.000Z</time>
      </trkpt>
      <trkpt lat="43.3796" lon="-1.79794">
        <ele>6</ele>
        <time>2026-03-06T18:26:06.000Z</time>
      </trkpt>
      <trkpt lat="43.3796" lon="-1.79795">
        <ele>6</ele>
        <time>2026-03-06T18:26:06.000Z</time>
      </trkpt>
      <trkpt lat="43.37961" lon="-1.79796">
        <ele>6</ele>
        <time>2026-03-06T18:26:06.000Z</time>
      </trkpt>
      <trkpt lat="43.37961" lon="-1.79797">
        <ele>6</ele>
        <time>2026-03-06T18:26:07.000Z</time>
      </trkpt>
      <trkpt lat="43.37962" lon="-1.79798">
        <ele>6</ele>
        <time>2026-03-06T18:26:07.000Z</time>
      </trkpt>
      <trkpt lat="43.37962" lon="-1.79799">
        <ele>6</ele>
        <time>2026-03-06T18:26:07.000Z</time>
      </trkpt>
      <trkpt lat="43.37962" lon="-1.798">
        <ele>6</ele>
        <time>2026-03-06T18:26:07.000Z</time>
      </trkpt>
      <trkpt lat="43.37963" lon="-1.79801">
        <ele>6</ele>
        <time>2026-03-06T18:26:07.000Z</time>
      </trkpt>
      <trkpt lat="43.37963" lon="-1.79802">
        <ele>6</ele>
        <time>2026-03-06T18:26:07.000Z</time>
      </trkpt>
      <trkpt lat="43.37963" lon="-1.79803">
        <ele>6</ele>
        <time>2026-03-06T18:26:08.000Z</time>
      </trkpt>
      <trkpt lat="43.37967" lon="-1.79808">
        <ele>6</ele>
        <time>2026-03-06T18:26:09.000Z</time>
      </trkpt>
      <trkpt lat="43.3797" lon="-1.79812">
        <ele>6</ele>
        <time>2026-03-06T18:26:09.000Z</time>
      </trkpt>
      <trkpt lat="43.37974" lon="-1.79816">
        <ele>6</ele>
        <time>2026-03-06T18:26:10.000Z</time>
      </trkpt>
      <trkpt lat="43.37977" lon="-1.79819">
        <ele>6</ele>
        <time>2026-03-06T18:26:11.000Z</time>
      </trkpt>
      <trkpt lat="43.3798" lon="-1.79822">
        <ele>6</ele>
        <time>2026-03-06T18:26:11.000Z</time>
      </trkpt>
      <trkpt lat="43.37982" lon="-1.79825">
        <ele>6</ele>
        <time>2026-03-06T18:26:12.000Z</time>
      </trkpt>
      <trkpt lat="43.37986" lon="-1.79831">
        <ele>6</ele>
        <time>2026-03-06T18:26:13.000Z</time>
      </trkpt>
      <trkpt lat="43.3799" lon="-1.79832">
        <ele>6</ele>
        <time>2026-03-06T18:26:14.000Z</time>
      </trkpt>
      <trkpt lat="43.37993" lon="-1.79833">
        <ele>6</ele>
        <time>2026-03-06T18:26:14.000Z</time>
      </trkpt>
      <trkpt lat="43.37996" lon="-1.79834">
        <ele>6</ele>
        <time>2026-03-06T18:26:15.000Z</time>
      </trkpt>
      <trkpt lat="43.38" lon="-1.79835">
        <ele>6</ele>
        <time>2026-03-06T18:26:16.000Z</time>
      </trkpt>
      <trkpt lat="43.38005" lon="-1.79836">
        <ele>7</ele>
        <time>2026-03-06T18:26:16.000Z</time>
      </trkpt>
      <trkpt lat="43.38015" lon="-1.79836">
        <ele>7</ele>
        <time>2026-03-06T18:26:18.000Z</time>
      </trkpt>
      <trkpt lat="43.38021" lon="-1.79836">
        <ele>8</ele>
        <time>2026-03-06T18:26:19.000Z</time>
      </trkpt>
      <trkpt lat="43.38025" lon="-1.79836">
        <ele>8</ele>
        <time>2026-03-06T18:26:20.000Z</time>
      </trkpt>
      <trkpt lat="43.38036" lon="-1.79835">
        <ele>8</ele>
        <time>2026-03-06T18:26:22.000Z</time>
      </trkpt>
      <trkpt lat="43.38046" lon="-1.79834">
        <ele>8</ele>
        <time>2026-03-06T18:26:24.000Z</time>
      </trkpt>
      <trkpt lat="43.38058" lon="-1.79832">
        <ele>9</ele>
        <time>2026-03-06T18:26:26.000Z</time>
      </trkpt>
      <trkpt lat="43.3807" lon="-1.7983">
        <ele>9</ele>
        <time>2026-03-06T18:26:28.000Z</time>
      </trkpt>
      <trkpt lat="43.3808" lon="-1.79827">
        <ele>9</ele>
        <time>2026-03-06T18:26:30.000Z</time>
      </trkpt>
      <trkpt lat="43.38089" lon="-1.79824">
        <ele>9</ele>
        <time>2026-03-06T18:26:32.000Z</time>
      </trkpt>
      <trkpt lat="43.38103" lon="-1.79819">
        <ele>10</ele>
        <time>2026-03-06T18:26:34.000Z</time>
      </trkpt>
      <trkpt lat="43.3811" lon="-1.79817">
        <ele>10</ele>
        <time>2026-03-06T18:26:35.000Z</time>
      </trkpt>
      <trkpt lat="43.38114" lon="-1.79815">
        <ele>10</ele>
        <time>2026-03-06T18:26:36.000Z</time>
      </trkpt>
      <trkpt lat="43.38118" lon="-1.79813">
        <ele>10</ele>
        <time>2026-03-06T18:26:37.000Z</time>
      </trkpt>
      <trkpt lat="43.38129" lon="-1.79807">
        <ele>10</ele>
        <time>2026-03-06T18:26:39.000Z</time>
      </trkpt>
      <trkpt lat="43.38136" lon="-1.79804">
        <ele>10</ele>
        <time>2026-03-06T18:26:40.000Z</time>
      </trkpt>
      <trkpt lat="43.38142" lon="-1.79801">
        <ele>10</ele>
        <time>2026-03-06T18:26:41.000Z</time>
      </trkpt>
      <trkpt lat="43.38146" lon="-1.79798">
        <ele>9</ele>
        <time>2026-03-06T18:26:42.000Z</time>
      </trkpt>
      <trkpt lat="43.38156" lon="-1.79793">
        <ele>9</ele>
        <time>2026-03-06T18:26:44.000Z</time>
      </trkpt>
      <trkpt lat="43.38164" lon="-1.79788">
        <ele>9</ele>
        <time>2026-03-06T18:26:46.000Z</time>
      </trkpt>
      <trkpt lat="43.38169" lon="-1.79784">
        <ele>9</ele>
        <time>2026-03-06T18:26:47.000Z</time>
      </trkpt>
      <trkpt lat="43.38174" lon="-1.79781">
        <ele>10</ele>
        <time>2026-03-06T18:26:48.000Z</time>
      </trkpt>
      <trkpt lat="43.38178" lon="-1.79778">
        <ele>10</ele>
        <time>2026-03-06T18:26:49.000Z</time>
      </trkpt>
      <trkpt lat="43.38182" lon="-1.79775">
        <ele>10</ele>
        <time>2026-03-06T18:26:49.000Z</time>
      </trkpt>
      <trkpt lat="43.3819" lon="-1.79769">
        <ele>11</ele>
        <time>2026-03-06T18:26:51.000Z</time>
      </trkpt>
      <trkpt lat="43.38198" lon="-1.79763">
        <ele>11</ele>
        <time>2026-03-06T18:26:53.000Z</time>
      </trkpt>
      <trkpt lat="43.382" lon="-1.79761">
        <ele>10</ele>
        <time>2026-03-06T18:26:53.000Z</time>
      </trkpt>
      <trkpt lat="43.38203" lon="-1.79759">
        <ele>10</ele>
        <time>2026-03-06T18:26:54.000Z</time>
      </trkpt>
      <trkpt lat="43.38206" lon="-1.79756">
        <ele>10</ele>
        <time>2026-03-06T18:26:54.000Z</time>
      </trkpt>
      <trkpt lat="43.38208" lon="-1.79754">
        <ele>10</ele>
        <time>2026-03-06T18:26:55.000Z</time>
      </trkpt>
      <trkpt lat="43.38214" lon="-1.79749">
        <ele>9</ele>
        <time>2026-03-06T18:26:56.000Z</time>
      </trkpt>
      <trkpt lat="43.38234" lon="-1.79728">
        <ele>9</ele>
        <time>2026-03-06T18:27:00.000Z</time>
      </trkpt>
      <trkpt lat="43.38266" lon="-1.79695">
        <ele>10</ele>
        <time>2026-03-06T18:27:08.000Z</time>
      </trkpt>
      <trkpt lat="43.38274" lon="-1.79687">
        <ele>10</ele>
        <time>2026-03-06T18:27:09.000Z</time>
      </trkpt>
      <trkpt lat="43.3828" lon="-1.79681">
        <ele>9</ele>
        <time>2026-03-06T18:27:11.000Z</time>
      </trkpt>
      <trkpt lat="43.38284" lon="-1.79676">
        <ele>9</ele>
        <time>2026-03-06T18:27:12.000Z</time>
      </trkpt>
      <trkpt lat="43.38297" lon="-1.79663">
        <ele>7</ele>
        <time>2026-03-06T18:27:14.000Z</time>
      </trkpt>
      <trkpt lat="43.38316" lon="-1.79644">
        <ele>7</ele>
        <time>2026-03-06T18:27:19.000Z</time>
      </trkpt>
      <trkpt lat="43.38346" lon="-1.79615">
        <ele>8</ele>
        <time>2026-03-06T18:27:25.000Z</time>
      </trkpt>
      <trkpt lat="43.38353" lon="-1.79608">
        <ele>9</ele>
        <time>2026-03-06T18:27:27.000Z</time>
      </trkpt>
      <trkpt lat="43.38374" lon="-1.79586">
        <ele>9</ele>
        <time>2026-03-06T18:27:31.000Z</time>
      </trkpt>
      <trkpt lat="43.38382" lon="-1.79578">
        <ele>9</ele>
        <time>2026-03-06T18:27:33.000Z</time>
      </trkpt>
      <trkpt lat="43.38395" lon="-1.79565">
        <ele>10</ele>
        <time>2026-03-06T18:27:36.000Z</time>
      </trkpt>
      <trkpt lat="43.3841" lon="-1.79549">
        <ele>9</ele>
        <time>2026-03-06T18:27:39.000Z</time>
      </trkpt>
      <trkpt lat="43.38429" lon="-1.7953">
        <ele>12</ele>
        <time>2026-03-06T18:27:44.000Z</time>
      </trkpt>
      <trkpt lat="43.38454" lon="-1.79505">
        <ele>14</ele>
        <time>2026-03-06T18:27:49.000Z</time>
      </trkpt>
      <trkpt lat="43.38492" lon="-1.79467">
        <ele>16</ele>
        <time>2026-03-06T18:27:57.000Z</time>
      </trkpt>
      <trkpt lat="43.38501" lon="-1.79457">
        <ele>16</ele>
        <time>2026-03-06T18:28:00.000Z</time>
      </trkpt>
      <trkpt lat="43.38511" lon="-1.79446">
        <ele>16</ele>
        <time>2026-03-06T18:28:02.000Z</time>
      </trkpt>
      <trkpt lat="43.38516" lon="-1.7944">
        <ele>16</ele>
        <time>2026-03-06T18:28:03.000Z</time>
      </trkpt>
      <trkpt lat="43.38521" lon="-1.79435">
        <ele>17</ele>
        <time>2026-03-06T18:28:04.000Z</time>
      </trkpt>
      <trkpt lat="43.38534" lon="-1.79421">
        <ele>16</ele>
        <time>2026-03-06T18:28:07.000Z</time>
      </trkpt>
      <trkpt lat="43.38541" lon="-1.79413">
        <ele>16</ele>
        <time>2026-03-06T18:28:09.000Z</time>
      </trkpt>
      <trkpt lat="43.38555" lon="-1.79396">
        <ele>17</ele>
        <time>2026-03-06T18:28:12.000Z</time>
      </trkpt>
      <trkpt lat="43.3857" lon="-1.79378">
        <ele>16</ele>
        <time>2026-03-06T18:28:15.000Z</time>
      </trkpt>
      <trkpt lat="43.38573" lon="-1.79374">
        <ele>15</ele>
        <time>2026-03-06T18:28:16.000Z</time>
      </trkpt>
      <trkpt lat="43.38579" lon="-1.79366">
        <ele>14</ele>
        <time>2026-03-06T18:28:18.000Z</time>
      </trkpt>
      <trkpt lat="43.38595" lon="-1.79348">
        <ele>14</ele>
        <time>2026-03-06T18:28:21.000Z</time>
      </trkpt>
      <trkpt lat="43.38631" lon="-1.79303">
        <ele>17</ele>
        <time>2026-03-06T18:28:30.000Z</time>
      </trkpt>
      <trkpt lat="43.38643" lon="-1.79289">
        <ele>17</ele>
        <time>2026-03-06T18:28:33.000Z</time>
      </trkpt>
      <trkpt lat="43.3872" lon="-1.79195">
        <ele>18</ele>
        <time>2026-03-06T18:28:51.000Z</time>
      </trkpt>
      <trkpt lat="43.38772" lon="-1.79131">
        <ele>13</ele>
        <time>2026-03-06T18:29:04.000Z</time>
      </trkpt>
      <trkpt lat="43.38789" lon="-1.79114">
        <ele>13</ele>
        <time>2026-03-06T18:29:07.000Z</time>
      </trkpt>
      <trkpt lat="43.38789" lon="-1.79114">
        <ele>13</ele>
        <time>2026-03-06T18:29:07.000Z</time>
      </trkpt>
      <trkpt lat="43.38815" lon="-1.79095">
        <ele>13</ele>
        <time>2026-03-06T18:29:13.000Z</time>
      </trkpt>
      <trkpt lat="43.38833" lon="-1.79086">
        <ele>13</ele>
        <time>2026-03-06T18:29:16.000Z</time>
      </trkpt>
      <trkpt lat="43.38861" lon="-1.79071">
        <ele>17</ele>
        <time>2026-03-06T18:29:21.000Z</time>
      </trkpt>
      <trkpt lat="43.38899" lon="-1.79035">
        <ele>18</ele>
        <time>2026-03-06T18:29:30.000Z</time>
      </trkpt>
      <trkpt lat="43.38926" lon="-1.79004">
        <ele>15</ele>
        <time>2026-03-06T18:29:36.000Z</time>
      </trkpt>
      <trkpt lat="43.38941" lon="-1.78985">
        <ele>15</ele>
        <time>2026-03-06T18:29:39.000Z</time>
      </trkpt>
      <trkpt lat="43.38944" lon="-1.78981">
        <ele>15</ele>
        <time>2026-03-06T18:29:40.000Z</time>
      </trkpt>
      <trkpt lat="43.38947" lon="-1.7898">
        <ele>15</ele>
        <time>2026-03-06T18:29:41.000Z</time>
      </trkpt>
      <trkpt lat="43.38951" lon="-1.7898">
        <ele>15</ele>
        <time>2026-03-06T18:29:41.000Z</time>
      </trkpt>
      <trkpt lat="43.38952" lon="-1.78981">
        <ele>16</ele>
        <time>2026-03-06T18:29:42.000Z</time>
      </trkpt>
      <trkpt lat="43.38953" lon="-1.78983">
        <ele>16</ele>
        <time>2026-03-06T18:29:42.000Z</time>
      </trkpt>
      <trkpt lat="43.38955" lon="-1.78986">
        <ele>17</ele>
        <time>2026-03-06T18:29:42.000Z</time>
      </trkpt>
      <trkpt lat="43.38956" lon="-1.78992">
        <ele>18</ele>
        <time>2026-03-06T18:29:43.000Z</time>
      </trkpt>
      <trkpt lat="43.38956" lon="-1.78999">
        <ele>19</ele>
        <time>2026-03-06T18:29:44.000Z</time>
      </trkpt>
      <trkpt lat="43.38957" lon="-1.79001">
        <ele>20</ele>
        <time>2026-03-06T18:29:44.000Z</time>
      </trkpt>
      <trkpt lat="43.38959" lon="-1.79006">
        <ele>21</ele>
        <time>2026-03-06T18:29:45.000Z</time>
      </trkpt>
      <trkpt lat="43.3896" lon="-1.79007">
        <ele>22</ele>
        <time>2026-03-06T18:29:45.000Z</time>
      </trkpt>
      <trkpt lat="43.38962" lon="-1.79008">
        <ele>22</ele>
        <time>2026-03-06T18:29:46.000Z</time>
      </trkpt>
      <trkpt lat="43.38963" lon="-1.79008">
        <ele>22</ele>
        <time>2026-03-06T18:29:46.000Z</time>
      </trkpt>
      <trkpt lat="43.38965" lon="-1.79008">
        <ele>23</ele>
        <time>2026-03-06T18:29:46.000Z</time>
      </trkpt>
      <trkpt lat="43.38971" lon="-1.79005">
        <ele>23</ele>
        <time>2026-03-06T18:29:47.000Z</time>
      </trkpt>
      <trkpt lat="43.38975" lon="-1.79002">
        <ele>23</ele>
        <time>2026-03-06T18:29:48.000Z</time>
      </trkpt>
      <trkpt lat="43.38983" lon="-1.78995">
        <ele>23</ele>
        <time>2026-03-06T18:29:50.000Z</time>
      </trkpt>
      <trkpt lat="43.38988" lon="-1.7899">
        <ele>23</ele>
        <time>2026-03-06T18:29:51.000Z</time>
      </trkpt>
      <trkpt lat="43.38992" lon="-1.78986">
        <ele>22</ele>
        <time>2026-03-06T18:29:52.000Z</time>
      </trkpt>
      <trkpt lat="43.39" lon="-1.78978">
        <ele>21</ele>
        <time>2026-03-06T18:29:54.000Z</time>
      </trkpt>
      <trkpt lat="43.39003" lon="-1.78975">
        <ele>20</ele>
        <time>2026-03-06T18:29:54.000Z</time>
      </trkpt>
      <trkpt lat="43.39007" lon="-1.78973">
        <ele>19</ele>
        <time>2026-03-06T18:29:55.000Z</time>
      </trkpt>
      <trkpt lat="43.3901" lon="-1.78972">
        <ele>18</ele>
        <time>2026-03-06T18:29:56.000Z</time>
      </trkpt>
      <trkpt lat="43.39012" lon="-1.78972">
        <ele>17</ele>
        <time>2026-03-06T18:29:56.000Z</time>
      </trkpt>
      <trkpt lat="43.39015" lon="-1.78973">
        <ele>17</ele>
        <time>2026-03-06T18:29:57.000Z</time>
      </trkpt>
      <trkpt lat="43.39017" lon="-1.78975">
        <ele>17</ele>
        <time>2026-03-06T18:29:57.000Z</time>
      </trkpt>
      <trkpt lat="43.39018" lon="-1.78978">
        <ele>17</ele>
        <time>2026-03-06T18:29:57.000Z</time>
      </trkpt>
      <trkpt lat="43.39019" lon="-1.78981">
        <ele>18</ele>
        <time>2026-03-06T18:29:58.000Z</time>
      </trkpt>
      <trkpt lat="43.39018" lon="-1.78983">
        <ele>18</ele>
        <time>2026-03-06T18:29:58.000Z</time>
      </trkpt>
      <trkpt lat="43.39017" lon="-1.78986">
        <ele>19</ele>
        <time>2026-03-06T18:29:59.000Z</time>
      </trkpt>
      <trkpt lat="43.39015" lon="-1.7899">
        <ele>21</ele>
        <time>2026-03-06T18:29:59.000Z</time>
      </trkpt>
      <trkpt lat="43.39013" lon="-1.78993">
        <ele>22</ele>
        <time>2026-03-06T18:30:00.000Z</time>
      </trkpt>
      <trkpt lat="43.3901" lon="-1.78995">
        <ele>23</ele>
        <time>2026-03-06T18:30:00.000Z</time>
      </trkpt>
      <trkpt lat="43.39004" lon="-1.78997">
        <ele>25</ele>
        <time>2026-03-06T18:30:01.000Z</time>
      </trkpt>
      <trkpt lat="43.38997" lon="-1.79001">
        <ele>27</ele>
        <time>2026-03-06T18:30:03.000Z</time>
      </trkpt>
      <trkpt lat="43.38992" lon="-1.79004">
        <ele>26</ele>
        <time>2026-03-06T18:30:04.000Z</time>
      </trkpt>
      <trkpt lat="43.38986" lon="-1.79009">
        <ele>26</ele>
        <time>2026-03-06T18:30:05.000Z</time>
      </trkpt>
      <trkpt lat="43.38983" lon="-1.79013">
        <ele>27</ele>
        <time>2026-03-06T18:30:06.000Z</time>
      </trkpt>
      <trkpt lat="43.38976" lon="-1.79022">
        <ele>27</ele>
        <time>2026-03-06T18:30:07.000Z</time>
      </trkpt>
      <trkpt lat="43.38967" lon="-1.79042">
        <ele>30</ele>
        <time>2026-03-06T18:30:11.000Z</time>
      </trkpt>
      <trkpt lat="43.3896" lon="-1.79058">
        <ele>32</ele>
        <time>2026-03-06T18:30:13.000Z</time>
      </trkpt>
      <trkpt lat="43.38957" lon="-1.79071">
        <ele>34</ele>
        <time>2026-03-06T18:30:15.000Z</time>
      </trkpt>
      <trkpt lat="43.38951" lon="-1.79086">
        <ele>37</ele>
        <time>2026-03-06T18:30:17.000Z</time>
      </trkpt>
      <trkpt lat="43.38948" lon="-1.79093">
        <ele>38</ele>
        <time>2026-03-06T18:30:18.000Z</time>
      </trkpt>
      <trkpt lat="43.38941" lon="-1.79107">
        <ele>41</ele>
        <time>2026-03-06T18:30:20.000Z</time>
      </trkpt>
      <trkpt lat="43.38935" lon="-1.79117">
        <ele>43</ele>
        <time>2026-03-06T18:30:22.000Z</time>
      </trkpt>
      <trkpt lat="43.38931" lon="-1.79122">
        <ele>44</ele>
        <time>2026-03-06T18:30:23.000Z</time>
      </trkpt>
      <trkpt lat="43.38926" lon="-1.79126">
        <ele>45</ele>
        <time>2026-03-06T18:30:24.000Z</time>
      </trkpt>
      <trkpt lat="43.38919" lon="-1.79127">
        <ele>45</ele>
        <time>2026-03-06T18:30:25.000Z</time>
      </trkpt>
      <trkpt lat="43.38913" lon="-1.79126">
        <ele>43</ele>
        <time>2026-03-06T18:30:26.000Z</time>
      </trkpt>
      <trkpt lat="43.3891" lon="-1.79127">
        <ele>43</ele>
        <time>2026-03-06T18:30:27.000Z</time>
      </trkpt>
      <trkpt lat="43.38907" lon="-1.79128">
        <ele>43</ele>
        <time>2026-03-06T18:30:27.000Z</time>
      </trkpt>
      <trkpt lat="43.38906" lon="-1.79129">
        <ele>43</ele>
        <time>2026-03-06T18:30:27.000Z</time>
      </trkpt>
      <trkpt lat="43.38905" lon="-1.7913">
        <ele>43</ele>
        <time>2026-03-06T18:30:28.000Z</time>
      </trkpt>
      <trkpt lat="43.38904" lon="-1.79132">
        <ele>43</ele>
        <time>2026-03-06T18:30:28.000Z</time>
      </trkpt>
      <trkpt lat="43.38904" lon="-1.79135">
        <ele>44</ele>
        <time>2026-03-06T18:30:28.000Z</time>
      </trkpt>
      <trkpt lat="43.38904" lon="-1.79138">
        <ele>45</ele>
        <time>2026-03-06T18:30:29.000Z</time>
      </trkpt>
      <trkpt lat="43.38905" lon="-1.79143">
        <ele>47</ele>
        <time>2026-03-06T18:30:29.000Z</time>
      </trkpt>
      <trkpt lat="43.38907" lon="-1.79147">
        <ele>48</ele>
        <time>2026-03-06T18:30:30.000Z</time>
      </trkpt>
      <trkpt lat="43.38908" lon="-1.79151">
        <ele>49</ele>
        <time>2026-03-06T18:30:31.000Z</time>
      </trkpt>
      <trkpt lat="43.3891" lon="-1.79152">
        <ele>50</ele>
        <time>2026-03-06T18:30:31.000Z</time>
      </trkpt>
      <trkpt lat="43.38911" lon="-1.79152">
        <ele>50</ele>
        <time>2026-03-06T18:30:31.000Z</time>
      </trkpt>
      <trkpt lat="43.38914" lon="-1.79153">
        <ele>51</ele>
        <time>2026-03-06T18:30:32.000Z</time>
      </trkpt>
      <trkpt lat="43.38923" lon="-1.7915">
        <ele>51</ele>
        <time>2026-03-06T18:30:33.000Z</time>
      </trkpt>
      <trkpt lat="43.38928" lon="-1.79148">
        <ele>50</ele>
        <time>2026-03-06T18:30:34.000Z</time>
      </trkpt>
      <trkpt lat="43.38938" lon="-1.79143">
        <ele>49</ele>
        <time>2026-03-06T18:30:36.000Z</time>
      </trkpt>
      <trkpt lat="43.38943" lon="-1.79138">
        <ele>48</ele>
        <time>2026-03-06T18:30:37.000Z</time>
      </trkpt>
      <trkpt lat="43.38948" lon="-1.79133">
        <ele>47</ele>
        <time>2026-03-06T18:30:38.000Z</time>
      </trkpt>
      <trkpt lat="43.38956" lon="-1.7912">
        <ele>45</ele>
        <time>2026-03-06T18:30:41.000Z</time>
      </trkpt>
      <trkpt lat="43.38961" lon="-1.79115">
        <ele>44</ele>
        <time>2026-03-06T18:30:42.000Z</time>
      </trkpt>
      <trkpt lat="43.38965" lon="-1.79113">
        <ele>44</ele>
        <time>2026-03-06T18:30:42.000Z</time>
      </trkpt>
      <trkpt lat="43.38969" lon="-1.79113">
        <ele>44</ele>
        <time>2026-03-06T18:30:43.000Z</time>
      </trkpt>
      <trkpt lat="43.38971" lon="-1.79113">
        <ele>44</ele>
        <time>2026-03-06T18:30:44.000Z</time>
      </trkpt>
      <trkpt lat="43.38972" lon="-1.79115">
        <ele>44</ele>
        <time>2026-03-06T18:30:44.000Z</time>
      </trkpt>
      <trkpt lat="43.38975" lon="-1.79119">
        <ele>45</ele>
        <time>2026-03-06T18:30:45.000Z</time>
      </trkpt>
      <trkpt lat="43.38976" lon="-1.79127">
        <ele>47</ele>
        <time>2026-03-06T18:30:46.000Z</time>
      </trkpt>
      <trkpt lat="43.38976" lon="-1.79127">
        <ele>47</ele>
        <time>2026-03-06T18:30:46.000Z</time>
      </trkpt>
      <trkpt lat="43.38975" lon="-1.79127">
        <ele>47</ele>
        <time>2026-03-06T18:30:46.000Z</time>
      </trkpt>
      <trkpt lat="43.38974" lon="-1.79128">
        <ele>47</ele>
        <time>2026-03-06T18:30:46.000Z</time>
      </trkpt>
      <trkpt lat="43.38972" lon="-1.79128">
        <ele>47</ele>
        <time>2026-03-06T18:30:46.000Z</time>
      </trkpt>
      <trkpt lat="43.38968" lon="-1.7913">
        <ele>47</ele>
        <time>2026-03-06T18:30:47.000Z</time>
      </trkpt>
      <trkpt lat="43.38959" lon="-1.79135">
        <ele>48</ele>
        <time>2026-03-06T18:30:49.000Z</time>
      </trkpt>
      <trkpt lat="43.38944" lon="-1.79148">
        <ele>50</ele>
        <time>2026-03-06T18:30:52.000Z</time>
      </trkpt>
      <trkpt lat="43.3893" lon="-1.79162">
        <ele>54</ele>
        <time>2026-03-06T18:30:55.000Z</time>
      </trkpt>
      <trkpt lat="43.38923" lon="-1.79168">
        <ele>55</ele>
        <time>2026-03-06T18:30:57.000Z</time>
      </trkpt>
      <trkpt lat="43.38917" lon="-1.79171">
        <ele>56</ele>
        <time>2026-03-06T18:30:58.000Z</time>
      </trkpt>
      <trkpt lat="43.3891" lon="-1.79172">
        <ele>55</ele>
        <time>2026-03-06T18:30:59.000Z</time>
      </trkpt>
      <trkpt lat="43.38904" lon="-1.79172">
        <ele>54</ele>
        <time>2026-03-06T18:31:00.000Z</time>
      </trkpt>
      <trkpt lat="43.38898" lon="-1.7917">
        <ele>53</ele>
        <time>2026-03-06T18:31:01.000Z</time>
      </trkpt>
      <trkpt lat="43.38889" lon="-1.79164">
        <ele>50</ele>
        <time>2026-03-06T18:31:03.000Z</time>
      </trkpt>
      <trkpt lat="43.3888" lon="-1.79158">
        <ele>46</ele>
        <time>2026-03-06T18:31:05.000Z</time>
      </trkpt>
      <trkpt lat="43.38875" lon="-1.79155">
        <ele>44</ele>
        <time>2026-03-06T18:31:06.000Z</time>
      </trkpt>
      <trkpt lat="43.38871" lon="-1.79154">
        <ele>43</ele>
        <time>2026-03-06T18:31:06.000Z</time>
      </trkpt>
      <trkpt lat="43.38865" lon="-1.79153">
        <ele>42</ele>
        <time>2026-03-06T18:31:07.000Z</time>
      </trkpt>
      <trkpt lat="43.38859" lon="-1.79154">
        <ele>41</ele>
        <time>2026-03-06T18:31:09.000Z</time>
      </trkpt>
      <trkpt lat="43.38856" lon="-1.79154">
        <ele>41</ele>
        <time>2026-03-06T18:31:09.000Z</time>
      </trkpt>
      <trkpt lat="43.38851" lon="-1.79157">
        <ele>41</ele>
        <time>2026-03-06T18:31:10.000Z</time>
      </trkpt>
      <trkpt lat="43.38847" lon="-1.79159">
        <ele>41</ele>
        <time>2026-03-06T18:31:11.000Z</time>
      </trkpt>
      <trkpt lat="43.38844" lon="-1.79162">
        <ele>41</ele>
        <time>2026-03-06T18:31:11.000Z</time>
      </trkpt>
      <trkpt lat="43.38841" lon="-1.79166">
        <ele>42</ele>
        <time>2026-03-06T18:31:12.000Z</time>
      </trkpt>
      <trkpt lat="43.38835" lon="-1.79174">
        <ele>44</ele>
        <time>2026-03-06T18:31:14.000Z</time>
      </trkpt>
      <trkpt lat="43.38828" lon="-1.79185">
        <ele>46</ele>
        <time>2026-03-06T18:31:16.000Z</time>
      </trkpt>
      <trkpt lat="43.38823" lon="-1.79192">
        <ele>48</ele>
        <time>2026-03-06T18:31:17.000Z</time>
      </trkpt>
      <trkpt lat="43.38817" lon="-1.79198">
        <ele>48</ele>
        <time>2026-03-06T18:31:18.000Z</time>
      </trkpt>
      <trkpt lat="43.38808" lon="-1.79205">
        <ele>48</ele>
        <time>2026-03-06T18:31:20.000Z</time>
      </trkpt>
      <trkpt lat="43.388" lon="-1.79211">
        <ele>48</ele>
        <time>2026-03-06T18:31:22.000Z</time>
      </trkpt>
      <trkpt lat="43.38792" lon="-1.79216">
        <ele>48</ele>
        <time>2026-03-06T18:31:23.000Z</time>
      </trkpt>
      <trkpt lat="43.38788" lon="-1.79221">
        <ele>49</ele>
        <time>2026-03-06T18:31:24.000Z</time>
      </trkpt>
      <trkpt lat="43.38782" lon="-1.79227">
        <ele>50</ele>
        <time>2026-03-06T18:31:25.000Z</time>
      </trkpt>
      <trkpt lat="43.38776" lon="-1.79235">
        <ele>51</ele>
        <time>2026-03-06T18:31:27.000Z</time>
      </trkpt>
      <trkpt lat="43.38768" lon="-1.79247">
        <ele>55</ele>
        <time>2026-03-06T18:31:29.000Z</time>
      </trkpt>
      <trkpt lat="43.38758" lon="-1.79267">
        <ele>59</ele>
        <time>2026-03-06T18:31:32.000Z</time>
      </trkpt>
      <trkpt lat="43.38749" lon="-1.79282">
        <ele>62</ele>
        <time>2026-03-06T18:31:35.000Z</time>
      </trkpt>
      <trkpt lat="43.38746" lon="-1.79288">
        <ele>62</ele>
        <time>2026-03-06T18:31:36.000Z</time>
      </trkpt>
      <trkpt lat="43.38742" lon="-1.79292">
        <ele>61</ele>
        <time>2026-03-06T18:31:37.000Z</time>
      </trkpt>
      <trkpt lat="43.38737" lon="-1.79296">
        <ele>60</ele>
        <time>2026-03-06T18:31:38.000Z</time>
      </trkpt>
      <trkpt lat="43.38735" lon="-1.79298">
        <ele>60</ele>
        <time>2026-03-06T18:31:38.000Z</time>
      </trkpt>
      <trkpt lat="43.38729" lon="-1.79303">
        <ele>58</ele>
        <time>2026-03-06T18:31:39.000Z</time>
      </trkpt>
      <trkpt lat="43.38695" lon="-1.79332">
        <ele>50</ele>
        <time>2026-03-06T18:31:46.000Z</time>
      </trkpt>
      <trkpt lat="43.38693" lon="-1.79334">
        <ele>49</ele>
        <time>2026-03-06T18:31:47.000Z</time>
      </trkpt>
      <trkpt lat="43.3869" lon="-1.79337">
        <ele>49</ele>
        <time>2026-03-06T18:31:47.000Z</time>
      </trkpt>
      <trkpt lat="43.38684" lon="-1.79344">
        <ele>49</ele>
        <time>2026-03-06T18:31:49.000Z</time>
      </trkpt>
      <trkpt lat="43.38682" lon="-1.79347">
        <ele>49</ele>
        <time>2026-03-06T18:31:49.000Z</time>
      </trkpt>
      <trkpt lat="43.3868" lon="-1.7935">
        <ele>49</ele>
        <time>2026-03-06T18:31:50.000Z</time>
      </trkpt>
      <trkpt lat="43.38673" lon="-1.79362">
        <ele>51</ele>
        <time>2026-03-06T18:31:52.000Z</time>
      </trkpt>
      <trkpt lat="43.38671" lon="-1.79366">
        <ele>52</ele>
        <time>2026-03-06T18:31:53.000Z</time>
      </trkpt>
      <trkpt lat="43.38669" lon="-1.7937">
        <ele>53</ele>
        <time>2026-03-06T18:31:53.000Z</time>
      </trkpt>
      <trkpt lat="43.38668" lon="-1.79373">
        <ele>54</ele>
        <time>2026-03-06T18:31:54.000Z</time>
      </trkpt>
      <trkpt lat="43.38666" lon="-1.79377">
        <ele>55</ele>
        <time>2026-03-06T18:31:54.000Z</time>
      </trkpt>
      <trkpt lat="43.38664" lon="-1.7938">
        <ele>55</ele>
        <time>2026-03-06T18:31:55.000Z</time>
      </trkpt>
      <trkpt lat="43.38659" lon="-1.79393">
        <ele>59</ele>
        <time>2026-03-06T18:31:57.000Z</time>
      </trkpt>
      <trkpt lat="43.38657" lon="-1.79396">
        <ele>59</ele>
        <time>2026-03-06T18:31:57.000Z</time>
      </trkpt>
      <trkpt lat="43.38656" lon="-1.79398">
        <ele>59</ele>
        <time>2026-03-06T18:31:57.000Z</time>
      </trkpt>
      <trkpt lat="43.38655" lon="-1.794">
        <ele>60</ele>
        <time>2026-03-06T18:31:58.000Z</time>
      </trkpt>
      <trkpt lat="43.38653" lon="-1.79402">
        <ele>60</ele>
        <time>2026-03-06T18:31:58.000Z</time>
      </trkpt>
      <trkpt lat="43.38652" lon="-1.79403">
        <ele>59</ele>
        <time>2026-03-06T18:31:58.000Z</time>
      </trkpt>
      <trkpt lat="43.38651" lon="-1.79404">
        <ele>59</ele>
        <time>2026-03-06T18:31:59.000Z</time>
      </trkpt>
      <trkpt lat="43.38648" lon="-1.79406">
        <ele>59</ele>
        <time>2026-03-06T18:31:59.000Z</time>
      </trkpt>
      <trkpt lat="43.38646" lon="-1.79408">
        <ele>59</ele>
        <time>2026-03-06T18:32:00.000Z</time>
      </trkpt>
      <trkpt lat="43.38642" lon="-1.79412">
        <ele>58</ele>
        <time>2026-03-06T18:32:01.000Z</time>
      </trkpt>
      <trkpt lat="43.38629" lon="-1.79422">
        <ele>55</ele>
        <time>2026-03-06T18:32:03.000Z</time>
      </trkpt>
      <trkpt lat="43.3861" lon="-1.79437">
        <ele>51</ele>
        <time>2026-03-06T18:32:07.000Z</time>
      </trkpt>
      <trkpt lat="43.38606" lon="-1.7944">
        <ele>50</ele>
        <time>2026-03-06T18:32:08.000Z</time>
      </trkpt>
      <trkpt lat="43.38602" lon="-1.79443">
        <ele>50</ele>
        <time>2026-03-06T18:32:09.000Z</time>
      </trkpt>
      <trkpt lat="43.38593" lon="-1.7945">
        <ele>49</ele>
        <time>2026-03-06T18:32:11.000Z</time>
      </trkpt>
      <trkpt lat="43.38589" lon="-1.79453">
        <ele>48</ele>
        <time>2026-03-06T18:32:11.000Z</time>
      </trkpt>
      <trkpt lat="43.38586" lon="-1.79457">
        <ele>49</ele>
        <time>2026-03-06T18:32:12.000Z</time>
      </trkpt>
      <trkpt lat="43.38583" lon="-1.79459">
        <ele>49</ele>
        <time>2026-03-06T18:32:13.000Z</time>
      </trkpt>
      <trkpt lat="43.38581" lon="-1.79462">
        <ele>49</ele>
        <time>2026-03-06T18:32:13.000Z</time>
      </trkpt>
      <trkpt lat="43.38578" lon="-1.79466">
        <ele>50</ele>
        <time>2026-03-06T18:32:14.000Z</time>
      </trkpt>
      <trkpt lat="43.38574" lon="-1.7947">
        <ele>50</ele>
        <time>2026-03-06T18:32:15.000Z</time>
      </trkpt>
      <trkpt lat="43.38571" lon="-1.79474">
        <ele>50</ele>
        <time>2026-03-06T18:32:16.000Z</time>
      </trkpt>
      <trkpt lat="43.38567" lon="-1.7948">
        <ele>51</ele>
        <time>2026-03-06T18:32:17.000Z</time>
      </trkpt>
      <trkpt lat="43.38547" lon="-1.79507">
        <ele>52</ele>
        <time>2026-03-06T18:32:22.000Z</time>
      </trkpt>
      <trkpt lat="43.3854" lon="-1.79517">
        <ele>53</ele>
        <time>2026-03-06T18:32:23.000Z</time>
      </trkpt>
      <trkpt lat="43.38537" lon="-1.7952">
        <ele>52</ele>
        <time>2026-03-06T18:32:24.000Z</time>
      </trkpt>
      <trkpt lat="43.38534" lon="-1.79524">
        <ele>52</ele>
        <time>2026-03-06T18:32:25.000Z</time>
      </trkpt>
      <trkpt lat="43.38532" lon="-1.79527">
        <ele>52</ele>
        <time>2026-03-06T18:32:25.000Z</time>
      </trkpt>
      <trkpt lat="43.38507" lon="-1.79561">
        <ele>54</ele>
        <time>2026-03-06T18:32:32.000Z</time>
      </trkpt>
      <trkpt lat="43.38495" lon="-1.79578">
        <ele>55</ele>
        <time>2026-03-06T18:32:35.000Z</time>
      </trkpt>
      <trkpt lat="43.38491" lon="-1.79583">
        <ele>55</ele>
        <time>2026-03-06T18:32:36.000Z</time>
      </trkpt>
      <trkpt lat="43.38489" lon="-1.79586">
        <ele>55</ele>
        <time>2026-03-06T18:32:36.000Z</time>
      </trkpt>
      <trkpt lat="43.38487" lon="-1.79589">
        <ele>55</ele>
        <time>2026-03-06T18:32:37.000Z</time>
      </trkpt>
      <trkpt lat="43.38485" lon="-1.79593">
        <ele>55</ele>
        <time>2026-03-06T18:32:37.000Z</time>
      </trkpt>
      <trkpt lat="43.38484" lon="-1.79596">
        <ele>55</ele>
        <time>2026-03-06T18:32:38.000Z</time>
      </trkpt>
      <trkpt lat="43.38483" lon="-1.79599">
        <ele>55</ele>
        <time>2026-03-06T18:32:38.000Z</time>
      </trkpt>
      <trkpt lat="43.38481" lon="-1.79603">
        <ele>55</ele>
        <time>2026-03-06T18:32:39.000Z</time>
      </trkpt>
      <trkpt lat="43.38479" lon="-1.79606">
        <ele>55</ele>
        <time>2026-03-06T18:32:39.000Z</time>
      </trkpt>
      <trkpt lat="43.38477" lon="-1.79611">
        <ele>55</ele>
        <time>2026-03-06T18:32:40.000Z</time>
      </trkpt>
      <trkpt lat="43.38476" lon="-1.79615">
        <ele>56</ele>
        <time>2026-03-06T18:32:41.000Z</time>
      </trkpt>
      <trkpt lat="43.38475" lon="-1.79618">
        <ele>56</ele>
        <time>2026-03-06T18:32:41.000Z</time>
      </trkpt>
      <trkpt lat="43.38472" lon="-1.79628">
        <ele>58</ele>
        <time>2026-03-06T18:32:42.000Z</time>
      </trkpt>
      <trkpt lat="43.38469" lon="-1.79635">
        <ele>58</ele>
        <time>2026-03-06T18:32:44.000Z</time>
      </trkpt>
      <trkpt lat="43.38466" lon="-1.79645">
        <ele>60</ele>
        <time>2026-03-06T18:32:45.000Z</time>
      </trkpt>
      <trkpt lat="43.38464" lon="-1.79648">
        <ele>60</ele>
        <time>2026-03-06T18:32:45.000Z</time>
      </trkpt>
      <trkpt lat="43.38462" lon="-1.79651">
        <ele>60</ele>
        <time>2026-03-06T18:32:46.000Z</time>
      </trkpt>
      <trkpt lat="43.3846" lon="-1.79655">
        <ele>61</ele>
        <time>2026-03-06T18:32:47.000Z</time>
      </trkpt>
      <trkpt lat="43.38458" lon="-1.79658">
        <ele>61</ele>
        <time>2026-03-06T18:32:47.000Z</time>
      </trkpt>
      <trkpt lat="43.38456" lon="-1.79659">
        <ele>61</ele>
        <time>2026-03-06T18:32:48.000Z</time>
      </trkpt>
      <trkpt lat="43.38455" lon="-1.7966">
        <ele>61</ele>
        <time>2026-03-06T18:32:48.000Z</time>
      </trkpt>
      <trkpt lat="43.38453" lon="-1.79662">
        <ele>61</ele>
        <time>2026-03-06T18:32:48.000Z</time>
      </trkpt>
      <trkpt lat="43.38451" lon="-1.79663">
        <ele>60</ele>
        <time>2026-03-06T18:32:49.000Z</time>
      </trkpt>
      <trkpt lat="43.38449" lon="-1.79664">
        <ele>60</ele>
        <time>2026-03-06T18:32:49.000Z</time>
      </trkpt>
      <trkpt lat="43.38446" lon="-1.79665">
        <ele>59</ele>
        <time>2026-03-06T18:32:49.000Z</time>
      </trkpt>
      <trkpt lat="43.38443" lon="-1.79666">
        <ele>59</ele>
        <time>2026-03-06T18:32:50.000Z</time>
      </trkpt>
      <trkpt lat="43.38439" lon="-1.79667">
        <ele>58</ele>
        <time>2026-03-06T18:32:51.000Z</time>
      </trkpt>
      <trkpt lat="43.38429" lon="-1.7967">
        <ele>55</ele>
        <time>2026-03-06T18:32:53.000Z</time>
      </trkpt>
      <trkpt lat="43.38426" lon="-1.7967">
        <ele>54</ele>
        <time>2026-03-06T18:32:53.000Z</time>
      </trkpt>
      <trkpt lat="43.38416" lon="-1.79673">
        <ele>52</ele>
        <time>2026-03-06T18:32:55.000Z</time>
      </trkpt>
      <trkpt lat="43.3841" lon="-1.79675">
        <ele>50</ele>
        <time>2026-03-06T18:32:56.000Z</time>
      </trkpt>
      <trkpt lat="43.38406" lon="-1.79676">
        <ele>49</ele>
        <time>2026-03-06T18:32:57.000Z</time>
      </trkpt>
      <trkpt lat="43.38403" lon="-1.79678">
        <ele>48</ele>
        <time>2026-03-06T18:32:57.000Z</time>
      </trkpt>
      <trkpt lat="43.38398" lon="-1.7968">
        <ele>47</ele>
        <time>2026-03-06T18:32:58.000Z</time>
      </trkpt>
      <trkpt lat="43.38395" lon="-1.79682">
        <ele>46</ele>
        <time>2026-03-06T18:32:59.000Z</time>
      </trkpt>
      <trkpt lat="43.38391" lon="-1.79685">
        <ele>46</ele>
        <time>2026-03-06T18:33:00.000Z</time>
      </trkpt>
      <trkpt lat="43.38387" lon="-1.79688">
        <ele>46</ele>
        <time>2026-03-06T18:33:00.000Z</time>
      </trkpt>
      <trkpt lat="43.38379" lon="-1.79696">
        <ele>46</ele>
        <time>2026-03-06T18:33:02.000Z</time>
      </trkpt>
      <trkpt lat="43.38357" lon="-1.79718">
        <ele>48</ele>
        <time>2026-03-06T18:33:07.000Z</time>
      </trkpt>
      <trkpt lat="43.38336" lon="-1.79739">
        <ele>53</ele>
        <time>2026-03-06T18:33:12.000Z</time>
      </trkpt>
      <trkpt lat="43.38307" lon="-1.79768">
        <ele>51</ele>
        <time>2026-03-06T18:33:18.000Z</time>
      </trkpt>
      <trkpt lat="43.38274" lon="-1.79803">
        <ele>49</ele>
        <time>2026-03-06T18:33:26.000Z</time>
      </trkpt>
      <trkpt lat="43.38267" lon="-1.7981">
        <ele>48</ele>
        <time>2026-03-06T18:33:27.000Z</time>
      </trkpt>
      <trkpt lat="43.38263" lon="-1.79815">
        <ele>49</ele>
        <time>2026-03-06T18:33:28.000Z</time>
      </trkpt>
      <trkpt lat="43.38261" lon="-1.79819">
        <ele>49</ele>
        <time>2026-03-06T18:33:29.000Z</time>
      </trkpt>
      <trkpt lat="43.38259" lon="-1.79822">
        <ele>50</ele>
        <time>2026-03-06T18:33:29.000Z</time>
      </trkpt>
      <trkpt lat="43.38255" lon="-1.79831">
        <ele>51</ele>
        <time>2026-03-06T18:33:31.000Z</time>
      </trkpt>
      <trkpt lat="43.38254" lon="-1.79834">
        <ele>52</ele>
        <time>2026-03-06T18:33:31.000Z</time>
      </trkpt>
      <trkpt lat="43.38253" lon="-1.79837">
        <ele>53</ele>
        <time>2026-03-06T18:33:31.000Z</time>
      </trkpt>
      <trkpt lat="43.38252" lon="-1.7984">
        <ele>53</ele>
        <time>2026-03-06T18:33:32.000Z</time>
      </trkpt>
      <trkpt lat="43.38252" lon="-1.79842">
        <ele>54</ele>
        <time>2026-03-06T18:33:32.000Z</time>
      </trkpt>
      <trkpt lat="43.38251" lon="-1.79845">
        <ele>55</ele>
        <time>2026-03-06T18:33:32.000Z</time>
      </trkpt>
      <trkpt lat="43.3825" lon="-1.79847">
        <ele>55</ele>
        <time>2026-03-06T18:33:33.000Z</time>
      </trkpt>
      <trkpt lat="43.38249" lon="-1.79849">
        <ele>55</ele>
        <time>2026-03-06T18:33:33.000Z</time>
      </trkpt>
      <trkpt lat="43.38247" lon="-1.79851">
        <ele>55</ele>
        <time>2026-03-06T18:33:34.000Z</time>
      </trkpt>
      <trkpt lat="43.38246" lon="-1.79853">
        <ele>56</ele>
        <time>2026-03-06T18:33:34.000Z</time>
      </trkpt>
      <trkpt lat="43.38243" lon="-1.79855">
        <ele>55</ele>
        <time>2026-03-06T18:33:34.000Z</time>
      </trkpt>
      <trkpt lat="43.38242" lon="-1.79857">
        <ele>56</ele>
        <time>2026-03-06T18:33:35.000Z</time>
      </trkpt>
      <trkpt lat="43.3824" lon="-1.79858">
        <ele>55</ele>
        <time>2026-03-06T18:33:35.000Z</time>
      </trkpt>
      <trkpt lat="43.38238" lon="-1.79859">
        <ele>55</ele>
        <time>2026-03-06T18:33:36.000Z</time>
      </trkpt>
      <trkpt lat="43.38236" lon="-1.7986">
        <ele>54</ele>
        <time>2026-03-06T18:33:36.000Z</time>
      </trkpt>
      <trkpt lat="43.38234" lon="-1.79861">
        <ele>54</ele>
        <time>2026-03-06T18:33:36.000Z</time>
      </trkpt>
      <trkpt lat="43.38232" lon="-1.79861">
        <ele>53</ele>
        <time>2026-03-06T18:33:37.000Z</time>
      </trkpt>
      <trkpt lat="43.38231" lon="-1.79861">
        <ele>53</ele>
        <time>2026-03-06T18:33:37.000Z</time>
      </trkpt>
      <trkpt lat="43.38229" lon="-1.79862">
        <ele>53</ele>
        <time>2026-03-06T18:33:37.000Z</time>
      </trkpt>
      <trkpt lat="43.38227" lon="-1.79863">
        <ele>52</ele>
        <time>2026-03-06T18:33:38.000Z</time>
      </trkpt>
      <trkpt lat="43.38224" lon="-1.79863">
        <ele>51</ele>
        <time>2026-03-06T18:33:38.000Z</time>
      </trkpt>
      <trkpt lat="43.38221" lon="-1.79864">
        <ele>50</ele>
        <time>2026-03-06T18:33:39.000Z</time>
      </trkpt>
      <trkpt lat="43.38219" lon="-1.79865">
        <ele>50</ele>
        <time>2026-03-06T18:33:39.000Z</time>
      </trkpt>
      <trkpt lat="43.38217" lon="-1.79866">
        <ele>49</ele>
        <time>2026-03-06T18:33:39.000Z</time>
      </trkpt>
      <trkpt lat="43.38215" lon="-1.79867">
        <ele>49</ele>
        <time>2026-03-06T18:33:40.000Z</time>
      </trkpt>
      <trkpt lat="43.38213" lon="-1.79869">
        <ele>49</ele>
        <time>2026-03-06T18:33:40.000Z</time>
      </trkpt>
      <trkpt lat="43.38211" lon="-1.79871">
        <ele>49</ele>
        <time>2026-03-06T18:33:41.000Z</time>
      </trkpt>
      <trkpt lat="43.3821" lon="-1.79872">
        <ele>49</ele>
        <time>2026-03-06T18:33:41.000Z</time>
      </trkpt>
      <trkpt lat="43.38208" lon="-1.79874">
        <ele>49</ele>
        <time>2026-03-06T18:33:41.000Z</time>
      </trkpt>
      <trkpt lat="43.38207" lon="-1.79876">
        <ele>50</ele>
        <time>2026-03-06T18:33:42.000Z</time>
      </trkpt>
      <trkpt lat="43.38206" lon="-1.79877">
        <ele>50</ele>
        <time>2026-03-06T18:33:42.000Z</time>
      </trkpt>
      <trkpt lat="43.38205" lon="-1.7988">
        <ele>51</ele>
        <time>2026-03-06T18:33:42.000Z</time>
      </trkpt>
      <trkpt lat="43.38203" lon="-1.79883">
        <ele>51</ele>
        <time>2026-03-06T18:33:43.000Z</time>
      </trkpt>
      <trkpt lat="43.38201" lon="-1.79888">
        <ele>52</ele>
        <time>2026-03-06T18:33:44.000Z</time>
      </trkpt>
      <trkpt lat="43.38199" lon="-1.79892">
        <ele>53</ele>
        <time>2026-03-06T18:33:44.000Z</time>
      </trkpt>
      <trkpt lat="43.38196" lon="-1.79898">
        <ele>55</ele>
        <time>2026-03-06T18:33:45.000Z</time>
      </trkpt>
      <trkpt lat="43.38195" lon="-1.79901">
        <ele>55</ele>
        <time>2026-03-06T18:33:46.000Z</time>
      </trkpt>
      <trkpt lat="43.38193" lon="-1.79903">
        <ele>56</ele>
        <time>2026-03-06T18:33:46.000Z</time>
      </trkpt>
      <trkpt lat="43.38192" lon="-1.79905">
        <ele>56</ele>
        <time>2026-03-06T18:33:46.000Z</time>
      </trkpt>
      <trkpt lat="43.38191" lon="-1.79906">
        <ele>56</ele>
        <time>2026-03-06T18:33:47.000Z</time>
      </trkpt>
      <trkpt lat="43.38191" lon="-1.79907">
        <ele>56</ele>
        <time>2026-03-06T18:33:47.000Z</time>
      </trkpt>
      <trkpt lat="43.38189" lon="-1.79909">
        <ele>57</ele>
        <time>2026-03-06T18:33:47.000Z</time>
      </trkpt>
      <trkpt lat="43.38188" lon="-1.79911">
        <ele>57</ele>
        <time>2026-03-06T18:33:47.000Z</time>
      </trkpt>
      <trkpt lat="43.38186" lon="-1.79912">
        <ele>57</ele>
        <time>2026-03-06T18:33:48.000Z</time>
      </trkpt>
      <trkpt lat="43.38184" lon="-1.79913">
        <ele>56</ele>
        <time>2026-03-06T18:33:48.000Z</time>
      </trkpt>
      <trkpt lat="43.38183" lon="-1.79914">
        <ele>57</ele>
        <time>2026-03-06T18:33:48.000Z</time>
      </trkpt>
      <trkpt lat="43.3818" lon="-1.79915">
        <ele>56</ele>
        <time>2026-03-06T18:33:49.000Z</time>
      </trkpt>
      <trkpt lat="43.38178" lon="-1.79915">
        <ele>55</ele>
        <time>2026-03-06T18:33:49.000Z</time>
      </trkpt>
      <trkpt lat="43.38175" lon="-1.79915">
        <ele>54</ele>
        <time>2026-03-06T18:33:50.000Z</time>
      </trkpt>
      <trkpt lat="43.38173" lon="-1.79915">
        <ele>53</ele>
        <time>2026-03-06T18:33:50.000Z</time>
      </trkpt>
      <trkpt lat="43.38157" lon="-1.79914">
        <ele>48</ele>
        <time>2026-03-06T18:33:53.000Z</time>
      </trkpt>
      <trkpt lat="43.38154" lon="-1.79915">
        <ele>48</ele>
        <time>2026-03-06T18:33:54.000Z</time>
      </trkpt>
      <trkpt lat="43.38152" lon="-1.79917">
        <ele>48</ele>
        <time>2026-03-06T18:33:54.000Z</time>
      </trkpt>
      <trkpt lat="43.38149" lon="-1.79918">
        <ele>48</ele>
        <time>2026-03-06T18:33:55.000Z</time>
      </trkpt>
      <trkpt lat="43.38147" lon="-1.7992">
        <ele>48</ele>
        <time>2026-03-06T18:33:55.000Z</time>
      </trkpt>
      <trkpt lat="43.38145" lon="-1.79922">
        <ele>48</ele>
        <time>2026-03-06T18:33:55.000Z</time>
      </trkpt>
      <trkpt lat="43.38143" lon="-1.79924">
        <ele>48</ele>
        <time>2026-03-06T18:33:56.000Z</time>
      </trkpt>
      <trkpt lat="43.38141" lon="-1.79927">
        <ele>48</ele>
        <time>2026-03-06T18:33:56.000Z</time>
      </trkpt>
      <trkpt lat="43.38139" lon="-1.79931">
        <ele>49</ele>
        <time>2026-03-06T18:33:57.000Z</time>
      </trkpt>
      <trkpt lat="43.38136" lon="-1.79935">
        <ele>49</ele>
        <time>2026-03-06T18:33:58.000Z</time>
      </trkpt>
      <trkpt lat="43.3813" lon="-1.79948">
        <ele>51</ele>
        <time>2026-03-06T18:34:00.000Z</time>
      </trkpt>
      <trkpt lat="43.38123" lon="-1.79965">
        <ele>55</ele>
        <time>2026-03-06T18:34:02.000Z</time>
      </trkpt>
      <trkpt lat="43.38116" lon="-1.79983">
        <ele>58</ele>
        <time>2026-03-06T18:34:05.000Z</time>
      </trkpt>
      <trkpt lat="43.38112" lon="-1.79993">
        <ele>60</ele>
        <time>2026-03-06T18:34:06.000Z</time>
      </trkpt>
      <trkpt lat="43.38111" lon="-1.79994">
        <ele>61</ele>
        <time>2026-03-06T18:34:07.000Z</time>
      </trkpt>
      <trkpt lat="43.38111" lon="-1.79996">
        <ele>61</ele>
        <time>2026-03-06T18:34:07.000Z</time>
      </trkpt>
      <trkpt lat="43.3811" lon="-1.79997">
        <ele>61</ele>
        <time>2026-03-06T18:34:07.000Z</time>
      </trkpt>
      <trkpt lat="43.38108" lon="-1.8">
        <ele>62</ele>
        <time>2026-03-06T18:34:08.000Z</time>
      </trkpt>
      <trkpt lat="43.38107" lon="-1.80001">
        <ele>62</ele>
        <time>2026-03-06T18:34:08.000Z</time>
      </trkpt>
      <trkpt lat="43.38105" lon="-1.80002">
        <ele>61</ele>
        <time>2026-03-06T18:34:08.000Z</time>
      </trkpt>
      <trkpt lat="43.38104" lon="-1.80003">
        <ele>61</ele>
        <time>2026-03-06T18:34:08.000Z</time>
      </trkpt>
      <trkpt lat="43.38102" lon="-1.80004">
        <ele>61</ele>
        <time>2026-03-06T18:34:09.000Z</time>
      </trkpt>
      <trkpt lat="43.38101" lon="-1.80005">
        <ele>61</ele>
        <time>2026-03-06T18:34:09.000Z</time>
      </trkpt>
      <trkpt lat="43.38099" lon="-1.80005">
        <ele>61</ele>
        <time>2026-03-06T18:34:09.000Z</time>
      </trkpt>
      <trkpt lat="43.38097" lon="-1.80006">
        <ele>60</ele>
        <time>2026-03-06T18:34:10.000Z</time>
      </trkpt>
      <trkpt lat="43.38096" lon="-1.80006">
        <ele>60</ele>
        <time>2026-03-06T18:34:10.000Z</time>
      </trkpt>
      <trkpt lat="43.38092" lon="-1.80005">
        <ele>59</ele>
        <time>2026-03-06T18:34:11.000Z</time>
      </trkpt>
      <trkpt lat="43.38089" lon="-1.80004">
        <ele>58</ele>
        <time>2026-03-06T18:34:11.000Z</time>
      </trkpt>
      <trkpt lat="43.38085" lon="-1.80002">
        <ele>57</ele>
        <time>2026-03-06T18:34:12.000Z</time>
      </trkpt>
      <trkpt lat="43.38081" lon="-1.80001">
        <ele>56</ele>
        <time>2026-03-06T18:34:13.000Z</time>
      </trkpt>
      <trkpt lat="43.38079" lon="-1.8">
        <ele>55</ele>
        <time>2026-03-06T18:34:13.000Z</time>
      </trkpt>
      <trkpt lat="43.38075" lon="-1.79999">
        <ele>55</ele>
        <time>2026-03-06T18:34:14.000Z</time>
      </trkpt>
      <trkpt lat="43.38072" lon="-1.79999">
        <ele>54</ele>
        <time>2026-03-06T18:34:14.000Z</time>
      </trkpt>
      <trkpt lat="43.38069" lon="-1.8">
        <ele>54</ele>
        <time>2026-03-06T18:34:15.000Z</time>
      </trkpt>
      <trkpt lat="43.38066" lon="-1.8">
        <ele>54</ele>
        <time>2026-03-06T18:34:15.000Z</time>
      </trkpt>
      <trkpt lat="43.38063" lon="-1.80001">
        <ele>54</ele>
        <time>2026-03-06T18:34:16.000Z</time>
      </trkpt>
      <trkpt lat="43.38061" lon="-1.80002">
        <ele>54</ele>
        <time>2026-03-06T18:34:16.000Z</time>
      </trkpt>
      <trkpt lat="43.38058" lon="-1.80004">
        <ele>54</ele>
        <time>2026-03-06T18:34:17.000Z</time>
      </trkpt>
      <trkpt lat="43.38055" lon="-1.80007">
        <ele>54</ele>
        <time>2026-03-06T18:34:18.000Z</time>
      </trkpt>
      <trkpt lat="43.38047" lon="-1.80013">
        <ele>54</ele>
        <time>2026-03-06T18:34:19.000Z</time>
      </trkpt>
      <trkpt lat="43.38045" lon="-1.80015">
        <ele>55</ele>
        <time>2026-03-06T18:34:20.000Z</time>
      </trkpt>
      <trkpt lat="43.38043" lon="-1.80017">
        <ele>55</ele>
        <time>2026-03-06T18:34:20.000Z</time>
      </trkpt>
      <trkpt lat="43.3804" lon="-1.80018">
        <ele>55</ele>
        <time>2026-03-06T18:34:21.000Z</time>
      </trkpt>
      <trkpt lat="43.38037" lon="-1.8002">
        <ele>55</ele>
        <time>2026-03-06T18:34:21.000Z</time>
      </trkpt>
      <trkpt lat="43.38035" lon="-1.8002">
        <ele>55</ele>
        <time>2026-03-06T18:34:22.000Z</time>
      </trkpt>
      <trkpt lat="43.38031" lon="-1.80021">
        <ele>54</ele>
        <time>2026-03-06T18:34:22.000Z</time>
      </trkpt>
      <trkpt lat="43.38028" lon="-1.80021">
        <ele>54</ele>
        <time>2026-03-06T18:34:23.000Z</time>
      </trkpt>
      <trkpt lat="43.38024" lon="-1.8002">
        <ele>53</ele>
        <time>2026-03-06T18:34:24.000Z</time>
      </trkpt>
      <trkpt lat="43.3802" lon="-1.80019">
        <ele>52</ele>
        <time>2026-03-06T18:34:24.000Z</time>
      </trkpt>
      <trkpt lat="43.38013" lon="-1.80017">
        <ele>51</ele>
        <time>2026-03-06T18:34:26.000Z</time>
      </trkpt>
      <trkpt lat="43.38007" lon="-1.80014">
        <ele>50</ele>
        <time>2026-03-06T18:34:27.000Z</time>
      </trkpt>
      <trkpt lat="43.38" lon="-1.80011">
        <ele>48</ele>
        <time>2026-03-06T18:34:28.000Z</time>
      </trkpt>
      <trkpt lat="43.37982" lon="-1.80004">
        <ele>45</ele>
        <time>2026-03-06T18:34:31.000Z</time>
      </trkpt>
      <trkpt lat="43.37975" lon="-1.80002">
        <ele>45</ele>
        <time>2026-03-06T18:34:33.000Z</time>
      </trkpt>
      <trkpt lat="43.3797" lon="-1.8">
        <ele>44</ele>
        <time>2026-03-06T18:34:34.000Z</time>
      </trkpt>
      <trkpt lat="43.37967" lon="-1.79999">
        <ele>44</ele>
        <time>2026-03-06T18:34:34.000Z</time>
      </trkpt>
      <trkpt lat="43.37964" lon="-1.79998">
        <ele>43</ele>
        <time>2026-03-06T18:34:35.000Z</time>
      </trkpt>
      <trkpt lat="43.3796" lon="-1.79998">
        <ele>43</ele>
        <time>2026-03-06T18:34:35.000Z</time>
      </trkpt>
      <trkpt lat="43.37953" lon="-1.79997">
        <ele>43</ele>
        <time>2026-03-06T18:34:37.000Z</time>
      </trkpt>
      <trkpt lat="43.37947" lon="-1.79996">
        <ele>42</ele>
        <time>2026-03-06T18:34:38.000Z</time>
      </trkpt>
      <trkpt lat="43.37942" lon="-1.79996">
        <ele>42</ele>
        <time>2026-03-06T18:34:39.000Z</time>
      </trkpt>
      <trkpt lat="43.37934" lon="-1.79997">
        <ele>42</ele>
        <time>2026-03-06T18:34:40.000Z</time>
      </trkpt>
      <trkpt lat="43.37924" lon="-1.79997">
        <ele>42</ele>
        <time>2026-03-06T18:34:42.000Z</time>
      </trkpt>
      <trkpt lat="43.37914" lon="-1.79997">
        <ele>41</ele>
        <time>2026-03-06T18:34:44.000Z</time>
      </trkpt>
      <trkpt lat="43.37905" lon="-1.79998">
        <ele>41</ele>
        <time>2026-03-06T18:34:45.000Z</time>
      </trkpt>
      <trkpt lat="43.37898" lon="-1.79999">
        <ele>41</ele>
        <time>2026-03-06T18:34:46.000Z</time>
      </trkpt>
      <trkpt lat="43.37885" lon="-1.79999">
        <ele>41</ele>
        <time>2026-03-06T18:34:49.000Z</time>
      </trkpt>
      <trkpt lat="43.3787" lon="-1.8">
        <ele>40</ele>
        <time>2026-03-06T18:34:51.000Z</time>
      </trkpt>
      <trkpt lat="43.37859" lon="-1.8">
        <ele>40</ele>
        <time>2026-03-06T18:34:53.000Z</time>
      </trkpt>
      <trkpt lat="43.37852" lon="-1.80001">
        <ele>40</ele>
        <time>2026-03-06T18:34:55.000Z</time>
      </trkpt>
      <trkpt lat="43.37846" lon="-1.80001">
        <ele>40</ele>
        <time>2026-03-06T18:34:56.000Z</time>
      </trkpt>
      <trkpt lat="43.37837" lon="-1.80001">
        <ele>39</ele>
        <time>2026-03-06T18:34:57.000Z</time>
      </trkpt>
      <trkpt lat="43.37826" lon="-1.80002">
        <ele>39</ele>
        <time>2026-03-06T18:34:59.000Z</time>
      </trkpt>
      <trkpt lat="43.37819" lon="-1.80002">
        <ele>38</ele>
        <time>2026-03-06T18:35:01.000Z</time>
      </trkpt>
      <trkpt lat="43.37816" lon="-1.80002">
        <ele>38</ele>
        <time>2026-03-06T18:35:01.000Z</time>
      </trkpt>
      <trkpt lat="43.37813" lon="-1.80002">
        <ele>38</ele>
        <time>2026-03-06T18:35:02.000Z</time>
      </trkpt>
      <trkpt lat="43.37812" lon="-1.80003">
        <ele>38</ele>
        <time>2026-03-06T18:35:02.000Z</time>
      </trkpt>
      <trkpt lat="43.3781" lon="-1.80003">
        <ele>37</ele>
        <time>2026-03-06T18:35:02.000Z</time>
      </trkpt>
      <trkpt lat="43.37809" lon="-1.80004">
        <ele>37</ele>
        <time>2026-03-06T18:35:02.000Z</time>
      </trkpt>
      <trkpt lat="43.37807" lon="-1.80005">
        <ele>37</ele>
        <time>2026-03-06T18:35:03.000Z</time>
      </trkpt>
      <trkpt lat="43.37805" lon="-1.80006">
        <ele>37</ele>
        <time>2026-03-06T18:35:03.000Z</time>
      </trkpt>
      <trkpt lat="43.37803" lon="-1.80008">
        <ele>37</ele>
        <time>2026-03-06T18:35:04.000Z</time>
      </trkpt>
      <trkpt lat="43.37802" lon="-1.80009">
        <ele>37</ele>
        <time>2026-03-06T18:35:04.000Z</time>
      </trkpt>
      <trkpt lat="43.378" lon="-1.8001">
        <ele>37</ele>
        <time>2026-03-06T18:35:04.000Z</time>
      </trkpt>
      <trkpt lat="43.37799" lon="-1.80012">
        <ele>37</ele>
        <time>2026-03-06T18:35:04.000Z</time>
      </trkpt>
      <trkpt lat="43.37797" lon="-1.80016">
        <ele>37</ele>
        <time>2026-03-06T18:35:05.000Z</time>
      </trkpt>
      <trkpt lat="43.37796" lon="-1.80018">
        <ele>37</ele>
        <time>2026-03-06T18:35:05.000Z</time>
      </trkpt>
      <trkpt lat="43.37795" lon="-1.80021">
        <ele>37</ele>
        <time>2026-03-06T18:35:06.000Z</time>
      </trkpt>
      <trkpt lat="43.37794" lon="-1.80023">
        <ele>37</ele>
        <time>2026-03-06T18:35:06.000Z</time>
      </trkpt>
      <trkpt lat="43.37794" lon="-1.80025">
        <ele>37</ele>
        <time>2026-03-06T18:35:06.000Z</time>
      </trkpt>
      <trkpt lat="43.37793" lon="-1.80028">
        <ele>37</ele>
        <time>2026-03-06T18:35:07.000Z</time>
      </trkpt>
      <trkpt lat="43.37793" lon="-1.80032">
        <ele>37</ele>
        <time>2026-03-06T18:35:07.000Z</time>
      </trkpt>
      <trkpt lat="43.37792" lon="-1.80036">
        <ele>37</ele>
        <time>2026-03-06T18:35:08.000Z</time>
      </trkpt>
      <trkpt lat="43.37792" lon="-1.80038">
        <ele>37</ele>
        <time>2026-03-06T18:35:08.000Z</time>
      </trkpt>
      <trkpt lat="43.37792" lon="-1.80042">
        <ele>37</ele>
        <time>2026-03-06T18:35:09.000Z</time>
      </trkpt>
      <trkpt lat="43.37792" lon="-1.80045">
        <ele>37</ele>
        <time>2026-03-06T18:35:09.000Z</time>
      </trkpt>
      <trkpt lat="43.37791" lon="-1.80049">
        <ele>37</ele>
        <time>2026-03-06T18:35:10.000Z</time>
      </trkpt>
      <trkpt lat="43.37791" lon="-1.80052">
        <ele>37</ele>
        <time>2026-03-06T18:35:10.000Z</time>
      </trkpt>
      <trkpt lat="43.3779" lon="-1.80055">
        <ele>37</ele>
        <time>2026-03-06T18:35:10.000Z</time>
      </trkpt>
      <trkpt lat="43.3779" lon="-1.80057">
        <ele>37</ele>
        <time>2026-03-06T18:35:11.000Z</time>
      </trkpt>
      <trkpt lat="43.37788" lon="-1.80061">
        <ele>37</ele>
        <time>2026-03-06T18:35:11.000Z</time>
      </trkpt>
      <trkpt lat="43.37786" lon="-1.80065">
        <ele>37</ele>
        <time>2026-03-06T18:35:12.000Z</time>
      </trkpt>
      <trkpt lat="43.37785" lon="-1.80067">
        <ele>37</ele>
        <time>2026-03-06T18:35:12.000Z</time>
      </trkpt>
      <trkpt lat="43.37784" lon="-1.80068">
        <ele>37</ele>
        <time>2026-03-06T18:35:12.000Z</time>
      </trkpt>
      <trkpt lat="43.37782" lon="-1.8007">
        <ele>37</ele>
        <time>2026-03-06T18:35:13.000Z</time>
      </trkpt>
      <trkpt lat="43.37781" lon="-1.80071">
        <ele>36</ele>
        <time>2026-03-06T18:35:13.000Z</time>
      </trkpt>
      <trkpt lat="43.37778" lon="-1.80074">
        <ele>36</ele>
        <time>2026-03-06T18:35:14.000Z</time>
      </trkpt>
      <trkpt lat="43.37775" lon="-1.80076">
        <ele>36</ele>
        <time>2026-03-06T18:35:14.000Z</time>
      </trkpt>
      <trkpt lat="43.37772" lon="-1.80077">
        <ele>36</ele>
        <time>2026-03-06T18:35:15.000Z</time>
      </trkpt>
      <trkpt lat="43.37763" lon="-1.80082">
        <ele>35</ele>
        <time>2026-03-06T18:35:17.000Z</time>
      </trkpt>
      <trkpt lat="43.37756" lon="-1.80086">
        <ele>34</ele>
        <time>2026-03-06T18:35:18.000Z</time>
      </trkpt>
      <trkpt lat="43.37751" lon="-1.80089">
        <ele>34</ele>
        <time>2026-03-06T18:35:19.000Z</time>
      </trkpt>
      <trkpt lat="43.3773" lon="-1.801">
        <ele>34</ele>
        <time>2026-03-06T18:35:23.000Z</time>
      </trkpt>
      <trkpt lat="43.37725" lon="-1.80102">
        <ele>34</ele>
        <time>2026-03-06T18:35:24.000Z</time>
      </trkpt>
      <trkpt lat="43.37724" lon="-1.80103">
        <ele>34</ele>
        <time>2026-03-06T18:35:24.000Z</time>
      </trkpt>
      <trkpt lat="43.37723" lon="-1.80103">
        <ele>34</ele>
        <time>2026-03-06T18:35:24.000Z</time>
      </trkpt>
      <trkpt lat="43.37721" lon="-1.80103">
        <ele>34</ele>
        <time>2026-03-06T18:35:25.000Z</time>
      </trkpt>
      <trkpt lat="43.3772" lon="-1.80104">
        <ele>34</ele>
        <time>2026-03-06T18:35:25.000Z</time>
      </trkpt>
      <trkpt lat="43.37719" lon="-1.80104">
        <ele>34</ele>
        <time>2026-03-06T18:35:25.000Z</time>
      </trkpt>
      <trkpt lat="43.37717" lon="-1.80104">
        <ele>34</ele>
        <time>2026-03-06T18:35:25.000Z</time>
      </trkpt>
      <trkpt lat="43.37716" lon="-1.80104">
        <ele>34</ele>
        <time>2026-03-06T18:35:26.000Z</time>
      </trkpt>
      <trkpt lat="43.37715" lon="-1.80104">
        <ele>34</ele>
        <time>2026-03-06T18:35:26.000Z</time>
      </trkpt>
      <trkpt lat="43.37713" lon="-1.80104">
        <ele>34</ele>
        <time>2026-03-06T18:35:26.000Z</time>
      </trkpt>
      <trkpt lat="43.37712" lon="-1.80103">
        <ele>34</ele>
        <time>2026-03-06T18:35:26.000Z</time>
      </trkpt>
      <trkpt lat="43.3771" lon="-1.80102">
        <ele>34</ele>
        <time>2026-03-06T18:35:27.000Z</time>
      </trkpt>
      <trkpt lat="43.37708" lon="-1.80101">
        <ele>34</ele>
        <time>2026-03-06T18:35:27.000Z</time>
      </trkpt>
      <trkpt lat="43.37707" lon="-1.801">
        <ele>34</ele>
        <time>2026-03-06T18:35:27.000Z</time>
      </trkpt>
      <trkpt lat="43.37705" lon="-1.80098">
        <ele>34</ele>
        <time>2026-03-06T18:35:28.000Z</time>
      </trkpt>
      <trkpt lat="43.37703" lon="-1.80097">
        <ele>34</ele>
        <time>2026-03-06T18:35:28.000Z</time>
      </trkpt>
      <trkpt lat="43.37701" lon="-1.80094">
        <ele>33</ele>
        <time>2026-03-06T18:35:29.000Z</time>
      </trkpt>
      <trkpt lat="43.377" lon="-1.80092">
        <ele>33</ele>
        <time>2026-03-06T18:35:29.000Z</time>
      </trkpt>
      <trkpt lat="43.37699" lon="-1.8009">
        <ele>33</ele>
        <time>2026-03-06T18:35:29.000Z</time>
      </trkpt>
      <trkpt lat="43.37698" lon="-1.80088">
        <ele>33</ele>
        <time>2026-03-06T18:35:30.000Z</time>
      </trkpt>
      <trkpt lat="43.37697" lon="-1.80086">
        <ele>33</ele>
        <time>2026-03-06T18:35:30.000Z</time>
      </trkpt>
      <trkpt lat="43.37696" lon="-1.80084">
        <ele>32</ele>
        <time>2026-03-06T18:35:30.000Z</time>
      </trkpt>
      <trkpt lat="43.37695" lon="-1.80083">
        <ele>32</ele>
        <time>2026-03-06T18:35:30.000Z</time>
      </trkpt>
      <trkpt lat="43.37694" lon="-1.80079">
        <ele>32</ele>
        <time>2026-03-06T18:35:31.000Z</time>
      </trkpt>
      <trkpt lat="43.37692" lon="-1.80075">
        <ele>32</ele>
        <time>2026-03-06T18:35:32.000Z</time>
      </trkpt>
      <trkpt lat="43.3769" lon="-1.8007">
        <ele>31</ele>
        <time>2026-03-06T18:35:32.000Z</time>
      </trkpt>
      <trkpt lat="43.37688" lon="-1.80066">
        <ele>31</ele>
        <time>2026-03-06T18:35:33.000Z</time>
      </trkpt>
      <trkpt lat="43.37686" lon="-1.80061">
        <ele>31</ele>
        <time>2026-03-06T18:35:34.000Z</time>
      </trkpt>
      <trkpt lat="43.37684" lon="-1.80057">
        <ele>30</ele>
        <time>2026-03-06T18:35:34.000Z</time>
      </trkpt>
      <trkpt lat="43.37683" lon="-1.80054">
        <ele>30</ele>
        <time>2026-03-06T18:35:35.000Z</time>
      </trkpt>
      <trkpt lat="43.3768" lon="-1.80048">
        <ele>30</ele>
        <time>2026-03-06T18:35:36.000Z</time>
      </trkpt>
      <trkpt lat="43.37679" lon="-1.80046">
        <ele>29</ele>
        <time>2026-03-06T18:35:36.000Z</time>
      </trkpt>
      <trkpt lat="43.37678" lon="-1.80045">
        <ele>29</ele>
        <time>2026-03-06T18:35:36.000Z</time>
      </trkpt>
      <trkpt lat="43.37677" lon="-1.80043">
        <ele>29</ele>
        <time>2026-03-06T18:35:37.000Z</time>
      </trkpt>
      <trkpt lat="43.37674" lon="-1.80039">
        <ele>29</ele>
        <time>2026-03-06T18:35:37.000Z</time>
      </trkpt>
      <trkpt lat="43.37672" lon="-1.80037">
        <ele>28</ele>
        <time>2026-03-06T18:35:38.000Z</time>
      </trkpt>
      <trkpt lat="43.3767" lon="-1.80035">
        <ele>28</ele>
        <time>2026-03-06T18:35:38.000Z</time>
      </trkpt>
      <trkpt lat="43.37667" lon="-1.80033">
        <ele>28</ele>
        <time>2026-03-06T18:35:39.000Z</time>
      </trkpt>
      <trkpt lat="43.37665" lon="-1.80031">
        <ele>28</ele>
        <time>2026-03-06T18:35:39.000Z</time>
      </trkpt>
      <trkpt lat="43.37663" lon="-1.8003">
        <ele>27</ele>
        <time>2026-03-06T18:35:40.000Z</time>
      </trkpt>
      <trkpt lat="43.37661" lon="-1.80029">
        <ele>27</ele>
        <time>2026-03-06T18:35:40.000Z</time>
      </trkpt>
      <trkpt lat="43.3766" lon="-1.80028">
        <ele>27</ele>
        <time>2026-03-06T18:35:40.000Z</time>
      </trkpt>
      <trkpt lat="43.37658" lon="-1.80027">
        <ele>27</ele>
        <time>2026-03-06T18:35:41.000Z</time>
      </trkpt>
      <trkpt lat="43.37657" lon="-1.80027">
        <ele>27</ele>
        <time>2026-03-06T18:35:41.000Z</time>
      </trkpt>
      <trkpt lat="43.37655" lon="-1.80026">
        <ele>27</ele>
        <time>2026-03-06T18:35:41.000Z</time>
      </trkpt>
      <trkpt lat="43.37654" lon="-1.80026">
        <ele>27</ele>
        <time>2026-03-06T18:35:41.000Z</time>
      </trkpt>
      <trkpt lat="43.37651" lon="-1.80025">
        <ele>27</ele>
        <time>2026-03-06T18:35:42.000Z</time>
      </trkpt>
      <trkpt lat="43.37649" lon="-1.80025">
        <ele>27</ele>
        <time>2026-03-06T18:35:42.000Z</time>
      </trkpt>
      <trkpt lat="43.37647" lon="-1.80025">
        <ele>27</ele>
        <time>2026-03-06T18:35:43.000Z</time>
      </trkpt>
      <trkpt lat="43.37643" lon="-1.80024">
        <ele>27</ele>
        <time>2026-03-06T18:35:43.000Z</time>
      </trkpt>
      <trkpt lat="43.37613" lon="-1.80022">
        <ele>26</ele>
        <time>2026-03-06T18:35:49.000Z</time>
      </trkpt>
      <trkpt lat="43.37608" lon="-1.80022">
        <ele>26</ele>
        <time>2026-03-06T18:35:50.000Z</time>
      </trkpt>
      <trkpt lat="43.37604" lon="-1.80021">
        <ele>26</ele>
        <time>2026-03-06T18:35:50.000Z</time>
      </trkpt>
      <trkpt lat="43.37598" lon="-1.80021">
        <ele>26</ele>
        <time>2026-03-06T18:35:51.000Z</time>
      </trkpt>
      <trkpt lat="43.37594" lon="-1.8002">
        <ele>26</ele>
        <time>2026-03-06T18:35:52.000Z</time>
      </trkpt>
      <trkpt lat="43.37592" lon="-1.8002">
        <ele>26</ele>
        <time>2026-03-06T18:35:52.000Z</time>
      </trkpt>
      <trkpt lat="43.3759" lon="-1.80019">
        <ele>26</ele>
        <time>2026-03-06T18:35:53.000Z</time>
      </trkpt>
      <trkpt lat="43.37588" lon="-1.80018">
        <ele>26</ele>
        <time>2026-03-06T18:35:53.000Z</time>
      </trkpt>
      <trkpt lat="43.37586" lon="-1.80018">
        <ele>26</ele>
        <time>2026-03-06T18:35:54.000Z</time>
      </trkpt>
      <trkpt lat="43.37585" lon="-1.80017">
        <ele>25</ele>
        <time>2026-03-06T18:35:54.000Z</time>
      </trkpt>
      <trkpt lat="43.37583" lon="-1.80015">
        <ele>25</ele>
        <time>2026-03-06T18:35:54.000Z</time>
      </trkpt>
      <trkpt lat="43.3758" lon="-1.80012">
        <ele>25</ele>
        <time>2026-03-06T18:35:55.000Z</time>
      </trkpt>
      <trkpt lat="43.37578" lon="-1.80009">
        <ele>25</ele>
        <time>2026-03-06T18:35:55.000Z</time>
      </trkpt>
      <trkpt lat="43.37577" lon="-1.80008">
        <ele>25</ele>
        <time>2026-03-06T18:35:56.000Z</time>
      </trkpt>
      <trkpt lat="43.37576" lon="-1.80004">
        <ele>25</ele>
        <time>2026-03-06T18:35:56.000Z</time>
      </trkpt>
      <trkpt lat="43.37575" lon="-1.80001">
        <ele>25</ele>
        <time>2026-03-06T18:35:57.000Z</time>
      </trkpt>
      <trkpt lat="43.37574" lon="-1.79996">
        <ele>25</ele>
        <time>2026-03-06T18:35:57.000Z</time>
      </trkpt>
      <trkpt lat="43.37574" lon="-1.7999">
        <ele>25</ele>
        <time>2026-03-06T18:35:58.000Z</time>
      </trkpt>
      <trkpt lat="43.37574" lon="-1.79984">
        <ele>24</ele>
        <time>2026-03-06T18:35:59.000Z</time>
      </trkpt>
      <trkpt lat="43.37573" lon="-1.79971">
        <ele>24</ele>
        <time>2026-03-06T18:36:01.000Z</time>
      </trkpt>
      <trkpt lat="43.37572" lon="-1.7994">
        <ele>22</ele>
        <time>2026-03-06T18:36:05.000Z</time>
      </trkpt>
      <trkpt lat="43.3757" lon="-1.79924">
        <ele>21</ele>
        <time>2026-03-06T18:36:07.000Z</time>
      </trkpt>
      <trkpt lat="43.37569" lon="-1.79917">
        <ele>21</ele>
        <time>2026-03-06T18:36:08.000Z</time>
      </trkpt>
      <trkpt lat="43.37567" lon="-1.7991">
        <ele>20</ele>
        <time>2026-03-06T18:36:09.000Z</time>
      </trkpt>
      <trkpt lat="43.37565" lon="-1.79903">
        <ele>20</ele>
        <time>2026-03-06T18:36:09.000Z</time>
      </trkpt>
      <trkpt lat="43.37562" lon="-1.79895">
        <ele>20</ele>
        <time>2026-03-06T18:36:11.000Z</time>
      </trkpt>
      <trkpt lat="43.37559" lon="-1.79887">
        <ele>20</ele>
        <time>2026-03-06T18:36:12.000Z</time>
      </trkpt>
      <trkpt lat="43.37553" lon="-1.79872">
        <ele>19</ele>
        <time>2026-03-06T18:36:14.000Z</time>
      </trkpt>
      <trkpt lat="43.3754" lon="-1.7984">
        <ele>16</ele>
        <time>2026-03-06T18:36:19.000Z</time>
      </trkpt>
      <trkpt lat="43.37529" lon="-1.79813">
        <ele>14</ele>
        <time>2026-03-06T18:36:23.000Z</time>
      </trkpt>
      <trkpt lat="43.37528" lon="-1.79811">
        <ele>14</ele>
        <time>2026-03-06T18:36:23.000Z</time>
      </trkpt>
      <trkpt lat="43.37524" lon="-1.79801">
        <ele>13</ele>
        <time>2026-03-06T18:36:25.000Z</time>
      </trkpt>
      <trkpt lat="43.37523" lon="-1.79798">
        <ele>13</ele>
        <time>2026-03-06T18:36:25.000Z</time>
      </trkpt>
      <trkpt lat="43.37523" lon="-1.79798">
        <ele>13</ele>
        <time>2026-03-06T18:36:25.000Z</time>
      </trkpt>
      <trkpt lat="43.37511" lon="-1.79808">
        <ele>14</ele>
        <time>2026-03-06T18:36:27.000Z</time>
      </trkpt>
      <trkpt lat="43.37504" lon="-1.79814">
        <ele>15</ele>
        <time>2026-03-06T18:36:29.000Z</time>
      </trkpt>
      <trkpt lat="43.375" lon="-1.79818">
        <ele>15</ele>
        <time>2026-03-06T18:36:30.000Z</time>
      </trkpt>
      <trkpt lat="43.37497" lon="-1.79821">
        <ele>15</ele>
        <time>2026-03-06T18:36:30.000Z</time>
      </trkpt>
      <trkpt lat="43.3749" lon="-1.79828">
        <ele>16</ele>
        <time>2026-03-06T18:36:32.000Z</time>
      </trkpt>
      <trkpt lat="43.37483" lon="-1.79834">
        <ele>17</ele>
        <time>2026-03-06T18:36:33.000Z</time>
      </trkpt>
      <trkpt lat="43.37481" lon="-1.79837">
        <ele>17</ele>
        <time>2026-03-06T18:36:34.000Z</time>
      </trkpt>
      <trkpt lat="43.37478" lon="-1.79839">
        <ele>18</ele>
        <time>2026-03-06T18:36:35.000Z</time>
      </trkpt>
      <trkpt lat="43.37474" lon="-1.79842">
        <ele>18</ele>
        <time>2026-03-06T18:36:35.000Z</time>
      </trkpt>
      <trkpt lat="43.37469" lon="-1.79846">
        <ele>19</ele>
        <time>2026-03-06T18:36:36.000Z</time>
      </trkpt>
      <trkpt lat="43.37466" lon="-1.79848">
        <ele>19</ele>
        <time>2026-03-06T18:36:37.000Z</time>
      </trkpt>
      <trkpt lat="43.37461" lon="-1.79852">
        <ele>20</ele>
        <time>2026-03-06T18:36:38.000Z</time>
      </trkpt>
      <trkpt lat="43.37458" lon="-1.79853">
        <ele>20</ele>
        <time>2026-03-06T18:36:39.000Z</time>
      </trkpt>
      <trkpt lat="43.37455" lon="-1.79855">
        <ele>20</ele>
        <time>2026-03-06T18:36:39.000Z</time>
      </trkpt>
      <trkpt lat="43.37451" lon="-1.79856">
        <ele>20</ele>
        <time>2026-03-06T18:36:40.000Z</time>
      </trkpt>
      <trkpt lat="43.37448" lon="-1.79857">
        <ele>20</ele>
        <time>2026-03-06T18:36:40.000Z</time>
      </trkpt>
      <trkpt lat="43.37443" lon="-1.79859">
        <ele>21</ele>
        <time>2026-03-06T18:36:41.000Z</time>
      </trkpt>
      <trkpt lat="43.37435" lon="-1.79861">
        <ele>21</ele>
        <time>2026-03-06T18:36:43.000Z</time>
      </trkpt>
      <trkpt lat="43.37428" lon="-1.79864">
        <ele>21</ele>
        <time>2026-03-06T18:36:44.000Z</time>
      </trkpt>
      <trkpt lat="43.37425" lon="-1.79865">
        <ele>21</ele>
        <time>2026-03-06T18:36:45.000Z</time>
      </trkpt>
      <trkpt lat="43.37417" lon="-1.79867">
        <ele>21</ele>
        <time>2026-03-06T18:36:46.000Z</time>
      </trkpt>
      <trkpt lat="43.37406" lon="-1.7987">
        <ele>21</ele>
        <time>2026-03-06T18:36:48.000Z</time>
      </trkpt>
      <trkpt lat="43.37393" lon="-1.79875">
        <ele>21</ele>
        <time>2026-03-06T18:36:51.000Z</time>
      </trkpt>
      <trkpt lat="43.37387" lon="-1.79876">
        <ele>21</ele>
        <time>2026-03-06T18:36:52.000Z</time>
      </trkpt>
      <trkpt lat="43.3738" lon="-1.79878">
        <ele>21</ele>
        <time>2026-03-06T18:36:53.000Z</time>
      </trkpt>
      <trkpt lat="43.37368" lon="-1.79882">
        <ele>21</ele>
        <time>2026-03-06T18:36:55.000Z</time>
      </trkpt>
      <trkpt lat="43.37356" lon="-1.79887">
        <ele>20</ele>
        <time>2026-03-06T18:36:57.000Z</time>
      </trkpt>
      <trkpt lat="43.37346" lon="-1.79891">
        <ele>20</ele>
        <time>2026-03-06T18:36:59.000Z</time>
      </trkpt>
      <trkpt lat="43.37337" lon="-1.79896">
        <ele>20</ele>
        <time>2026-03-06T18:37:01.000Z</time>
      </trkpt>
      <trkpt lat="43.37334" lon="-1.79898">
        <ele>20</ele>
        <time>2026-03-06T18:37:02.000Z</time>
      </trkpt>
      <trkpt lat="43.37331" lon="-1.799">
        <ele>20</ele>
        <time>2026-03-06T18:37:02.000Z</time>
      </trkpt>
      <trkpt lat="43.37328" lon="-1.79902">
        <ele>20</ele>
        <time>2026-03-06T18:37:03.000Z</time>
      </trkpt>
      <trkpt lat="43.37326" lon="-1.79903">
        <ele>20</ele>
        <time>2026-03-06T18:37:03.000Z</time>
      </trkpt>
      <trkpt lat="43.37323" lon="-1.79905">
        <ele>20</ele>
        <time>2026-03-06T18:37:04.000Z</time>
      </trkpt>
      <trkpt lat="43.37319" lon="-1.79908">
        <ele>20</ele>
        <time>2026-03-06T18:37:04.000Z</time>
      </trkpt>
      <trkpt lat="43.37306" lon="-1.79918">
        <ele>20</ele>
        <time>2026-03-06T18:37:07.000Z</time>
      </trkpt>
      <trkpt lat="43.37299" lon="-1.79923">
        <ele>21</ele>
        <time>2026-03-06T18:37:09.000Z</time>
      </trkpt>
      <trkpt lat="43.37285" lon="-1.79933">
        <ele>21</ele>
        <time>2026-03-06T18:37:11.000Z</time>
      </trkpt>
      <trkpt lat="43.3727" lon="-1.79945">
        <ele>22</ele>
        <time>2026-03-06T18:37:14.000Z</time>
      </trkpt>
      <trkpt lat="43.37262" lon="-1.79951">
        <ele>23</ele>
        <time>2026-03-06T18:37:16.000Z</time>
      </trkpt>
      <trkpt lat="43.37255" lon="-1.79955">
        <ele>23</ele>
        <time>2026-03-06T18:37:17.000Z</time>
      </trkpt>
      <trkpt lat="43.37248" lon="-1.79959">
        <ele>23</ele>
        <time>2026-03-06T18:37:19.000Z</time>
      </trkpt>
      <trkpt lat="43.37217" lon="-1.79961">
        <ele>22</ele>
        <time>2026-03-06T18:37:24.000Z</time>
      </trkpt>
      <trkpt lat="43.37185" lon="-1.79963">
        <ele>21</ele>
        <time>2026-03-06T18:37:30.000Z</time>
      </trkpt>
      <trkpt lat="43.37167" lon="-1.79964">
        <ele>21</ele>
        <time>2026-03-06T18:37:33.000Z</time>
      </trkpt>
      <trkpt lat="43.37162" lon="-1.79964">
        <ele>21</ele>
        <time>2026-03-06T18:37:34.000Z</time>
      </trkpt>
      <trkpt lat="43.37156" lon="-1.79965">
        <ele>20</ele>
        <time>2026-03-06T18:37:35.000Z</time>
      </trkpt>
      <trkpt lat="43.37091" lon="-1.79969">
        <ele>19</ele>
        <time>2026-03-06T18:37:47.000Z</time>
      </trkpt>
      <trkpt lat="43.37068" lon="-1.7997">
        <ele>19</ele>
        <time>2026-03-06T18:37:51.000Z</time>
      </trkpt>
      <trkpt lat="43.37059" lon="-1.7997">
        <ele>19</ele>
        <time>2026-03-06T18:37:52.000Z</time>
      </trkpt>
      <trkpt lat="43.37038" lon="-1.79971">
        <ele>20</ele>
        <time>2026-03-06T18:37:56.000Z</time>
      </trkpt>
      <trkpt lat="43.37023" lon="-1.79972">
        <ele>20</ele>
        <time>2026-03-06T18:37:59.000Z</time>
      </trkpt>
      <trkpt lat="43.36952" lon="-1.79976">
        <ele>22</ele>
        <time>2026-03-06T18:38:11.000Z</time>
      </trkpt>
      <trkpt lat="43.36921" lon="-1.79978">
        <ele>23</ele>
        <time>2026-03-06T18:38:17.000Z</time>
      </trkpt>
      <trkpt lat="43.36884" lon="-1.79979">
        <ele>25</ele>
        <time>2026-03-06T18:38:24.000Z</time>
      </trkpt>
      <trkpt lat="43.36884" lon="-1.79979">
        <ele>25</ele>
        <time>2026-03-06T18:38:24.000Z</time>
      </trkpt>
      <trkpt lat="43.36884" lon="-1.7998">
        <ele>25</ele>
        <time>2026-03-06T18:38:24.000Z</time>
      </trkpt>
      <trkpt lat="43.36884" lon="-1.79981">
        <ele>25</ele>
        <time>2026-03-06T18:38:24.000Z</time>
      </trkpt>
      <trkpt lat="43.36884" lon="-1.79982">
        <ele>25</ele>
        <time>2026-03-06T18:38:24.000Z</time>
      </trkpt>
      <trkpt lat="43.36884" lon="-1.79983">
        <ele>25</ele>
        <time>2026-03-06T18:38:24.000Z</time>
      </trkpt>
      <trkpt lat="43.36884" lon="-1.79984">
        <ele>25</ele>
        <time>2026-03-06T18:38:24.000Z</time>
      </trkpt>
      <trkpt lat="43.36884" lon="-1.79985">
        <ele>25</ele>
        <time>2026-03-06T18:38:24.000Z</time>
      </trkpt>
      <trkpt lat="43.36883" lon="-1.79985">
        <ele>25</ele>
        <time>2026-03-06T18:38:25.000Z</time>
      </trkpt>
      <trkpt lat="43.36883" lon="-1.79986">
        <ele>25</ele>
        <time>2026-03-06T18:38:25.000Z</time>
      </trkpt>
      <trkpt lat="43.36883" lon="-1.79987">
        <ele>25</ele>
        <time>2026-03-06T18:38:25.000Z</time>
      </trkpt>
      <trkpt lat="43.36883" lon="-1.79988">
        <ele>25</ele>
        <time>2026-03-06T18:38:25.000Z</time>
      </trkpt>
      <trkpt lat="43.36882" lon="-1.79989">
        <ele>26</ele>
        <time>2026-03-06T18:38:25.000Z</time>
      </trkpt>
      <trkpt lat="43.36882" lon="-1.7999">
        <ele>26</ele>
        <time>2026-03-06T18:38:25.000Z</time>
      </trkpt>
      <trkpt lat="43.36881" lon="-1.79991">
        <ele>26</ele>
        <time>2026-03-06T18:38:25.000Z</time>
      </trkpt>
      <trkpt lat="43.36881" lon="-1.79992">
        <ele>26</ele>
        <time>2026-03-06T18:38:26.000Z</time>
      </trkpt>
      <trkpt lat="43.3688" lon="-1.79992">
        <ele>26</ele>
        <time>2026-03-06T18:38:26.000Z</time>
      </trkpt>
      <trkpt lat="43.3688" lon="-1.79993">
        <ele>26</ele>
        <time>2026-03-06T18:38:26.000Z</time>
      </trkpt>
      <trkpt lat="43.36879" lon="-1.79993">
        <ele>26</ele>
        <time>2026-03-06T18:38:26.000Z</time>
      </trkpt>
      <trkpt lat="43.36879" lon="-1.79994">
        <ele>26</ele>
        <time>2026-03-06T18:38:26.000Z</time>
      </trkpt>
      <trkpt lat="43.36878" lon="-1.79994">
        <ele>26</ele>
        <time>2026-03-06T18:38:26.000Z</time>
      </trkpt>
      <trkpt lat="43.36878" lon="-1.79995">
        <ele>26</ele>
        <time>2026-03-06T18:38:27.000Z</time>
      </trkpt>
      <trkpt lat="43.36877" lon="-1.79995">
        <ele>26</ele>
        <time>2026-03-06T18:38:27.000Z</time>
      </trkpt>
      <trkpt lat="43.36876" lon="-1.79995">
        <ele>26</ele>
        <time>2026-03-06T18:38:27.000Z</time>
      </trkpt>
      <trkpt lat="43.36875" lon="-1.79995">
        <ele>26</ele>
        <time>2026-03-06T18:38:27.000Z</time>
      </trkpt>
      <trkpt lat="43.36875" lon="-1.79996">
        <ele>26</ele>
        <time>2026-03-06T18:38:27.000Z</time>
      </trkpt>
      <trkpt lat="43.36874" lon="-1.79996">
        <ele>26</ele>
        <time>2026-03-06T18:38:27.000Z</time>
      </trkpt>
      <trkpt lat="43.36873" lon="-1.79996">
        <ele>26</ele>
        <time>2026-03-06T18:38:28.000Z</time>
      </trkpt>
      <trkpt lat="43.36872" lon="-1.79995">
        <ele>26</ele>
        <time>2026-03-06T18:38:28.000Z</time>
      </trkpt>
      <trkpt lat="43.36871" lon="-1.79995">
        <ele>26</ele>
        <time>2026-03-06T18:38:28.000Z</time>
      </trkpt>
      <trkpt lat="43.3687" lon="-1.79995">
        <ele>26</ele>
        <time>2026-03-06T18:38:28.000Z</time>
      </trkpt>
      <trkpt lat="43.3687" lon="-1.79994">
        <ele>26</ele>
        <time>2026-03-06T18:38:28.000Z</time>
      </trkpt>
      <trkpt lat="43.36869" lon="-1.79994">
        <ele>26</ele>
        <time>2026-03-06T18:38:28.000Z</time>
      </trkpt>
      <trkpt lat="43.36868" lon="-1.79993">
        <ele>26</ele>
        <time>2026-03-06T18:38:29.000Z</time>
      </trkpt>
      <trkpt lat="43.36867" lon="-1.79992">
        <ele>26</ele>
        <time>2026-03-06T18:38:29.000Z</time>
      </trkpt>
      <trkpt lat="43.36867" lon="-1.79991">
        <ele>26</ele>
        <time>2026-03-06T18:38:29.000Z</time>
      </trkpt>
      <trkpt lat="43.36866" lon="-1.79991">
        <ele>26</ele>
        <time>2026-03-06T18:38:29.000Z</time>
      </trkpt>
      <trkpt lat="43.36866" lon="-1.7999">
        <ele>26</ele>
        <time>2026-03-06T18:38:29.000Z</time>
      </trkpt>
      <trkpt lat="43.36865" lon="-1.79989">
        <ele>26</ele>
        <time>2026-03-06T18:38:30.000Z</time>
      </trkpt>
      <trkpt lat="43.36865" lon="-1.79988">
        <ele>26</ele>
        <time>2026-03-06T18:38:30.000Z</time>
      </trkpt>
      <trkpt lat="43.36825" lon="-1.80032">
        <ele>29</ele>
        <time>2026-03-06T18:38:39.000Z</time>
      </trkpt>
      <trkpt lat="43.36825" lon="-1.80032">
        <ele>29</ele>
        <time>2026-03-06T18:38:39.000Z</time>
      </trkpt>
      <trkpt lat="43.36743" lon="-1.80119">
        <ele>24</ele>
        <time>2026-03-06T18:38:57.000Z</time>
      </trkpt>
      <trkpt lat="43.36713" lon="-1.80149">
        <ele>22</ele>
        <time>2026-03-06T18:39:04.000Z</time>
      </trkpt>
      <trkpt lat="43.36692" lon="-1.80167">
        <ele>20</ele>
        <time>2026-03-06T18:39:08.000Z</time>
      </trkpt>
      <trkpt lat="43.36675" lon="-1.80177">
        <ele>19</ele>
        <time>2026-03-06T18:39:11.000Z</time>
      </trkpt>
      <trkpt lat="43.36661" lon="-1.80182">
        <ele>18</ele>
        <time>2026-03-06T18:39:14.000Z</time>
      </trkpt>
      <trkpt lat="43.36651" lon="-1.80184">
        <ele>17</ele>
        <time>2026-03-06T18:39:16.000Z</time>
      </trkpt>
      <trkpt lat="43.36642" lon="-1.80184">
        <ele>17</ele>
        <time>2026-03-06T18:39:17.000Z</time>
      </trkpt>
      <trkpt lat="43.36642" lon="-1.80184">
        <ele>17</ele>
        <time>2026-03-06T18:39:17.000Z</time>
      </trkpt>
      <trkpt lat="43.36642" lon="-1.80185">
        <ele>17</ele>
        <time>2026-03-06T18:39:18.000Z</time>
      </trkpt>
      <trkpt lat="43.36642" lon="-1.80187">
        <ele>17</ele>
        <time>2026-03-06T18:39:18.000Z</time>
      </trkpt>
      <trkpt lat="43.36642" lon="-1.80188">
        <ele>17</ele>
        <time>2026-03-06T18:39:18.000Z</time>
      </trkpt>
      <trkpt lat="43.36642" lon="-1.8019">
        <ele>17</ele>
        <time>2026-03-06T18:39:18.000Z</time>
      </trkpt>
      <trkpt lat="43.36642" lon="-1.80191">
        <ele>17</ele>
        <time>2026-03-06T18:39:18.000Z</time>
      </trkpt>
      <trkpt lat="43.36641" lon="-1.80193">
        <ele>17</ele>
        <time>2026-03-06T18:39:19.000Z</time>
      </trkpt>
      <trkpt lat="43.36641" lon="-1.80194">
        <ele>17</ele>
        <time>2026-03-06T18:39:19.000Z</time>
      </trkpt>
      <trkpt lat="43.36641" lon="-1.80196">
        <ele>17</ele>
        <time>2026-03-06T18:39:19.000Z</time>
      </trkpt>
      <trkpt lat="43.3664" lon="-1.80197">
        <ele>17</ele>
        <time>2026-03-06T18:39:19.000Z</time>
      </trkpt>
      <trkpt lat="43.3664" lon="-1.80198">
        <ele>17</ele>
        <time>2026-03-06T18:39:19.000Z</time>
      </trkpt>
      <trkpt lat="43.36639" lon="-1.802">
        <ele>17</ele>
        <time>2026-03-06T18:39:20.000Z</time>
      </trkpt>
      <trkpt lat="43.36638" lon="-1.80201">
        <ele>17</ele>
        <time>2026-03-06T18:39:20.000Z</time>
      </trkpt>
      <trkpt lat="43.36637" lon="-1.80202">
        <ele>17</ele>
        <time>2026-03-06T18:39:20.000Z</time>
      </trkpt>
      <trkpt lat="43.36637" lon="-1.80203">
        <ele>17</ele>
        <time>2026-03-06T18:39:20.000Z</time>
      </trkpt>
      <trkpt lat="43.36636" lon="-1.80204">
        <ele>17</ele>
        <time>2026-03-06T18:39:21.000Z</time>
      </trkpt>
      <trkpt lat="43.36635" lon="-1.80205">
        <ele>17</ele>
        <time>2026-03-06T18:39:21.000Z</time>
      </trkpt>
      <trkpt lat="43.36634" lon="-1.80206">
        <ele>17</ele>
        <time>2026-03-06T18:39:21.000Z</time>
      </trkpt>
      <trkpt lat="43.36633" lon="-1.80206">
        <ele>17</ele>
        <time>2026-03-06T18:39:21.000Z</time>
      </trkpt>
      <trkpt lat="43.36632" lon="-1.80207">
        <ele>17</ele>
        <time>2026-03-06T18:39:21.000Z</time>
      </trkpt>
      <trkpt lat="43.3663" lon="-1.80208">
        <ele>16</ele>
        <time>2026-03-06T18:39:22.000Z</time>
      </trkpt>
      <trkpt lat="43.36633" lon="-1.80238">
        <ele>16</ele>
        <time>2026-03-06T18:39:26.000Z</time>
      </trkpt>
      <trkpt lat="43.36635" lon="-1.80258">
        <ele>16</ele>
        <time>2026-03-06T18:39:28.000Z</time>
      </trkpt>
      <trkpt lat="43.36636" lon="-1.80281">
        <ele>16</ele>
        <time>2026-03-06T18:39:31.000Z</time>
      </trkpt>
      <trkpt lat="43.36638" lon="-1.803">
        <ele>16</ele>
        <time>2026-03-06T18:39:34.000Z</time>
      </trkpt>
      <trkpt lat="43.36641" lon="-1.8033">
        <ele>15</ele>
        <time>2026-03-06T18:39:38.000Z</time>
      </trkpt>
      <trkpt lat="43.36645" lon="-1.80355">
        <ele>16</ele>
        <time>2026-03-06T18:39:41.000Z</time>
      </trkpt>
      <trkpt lat="43.36647" lon="-1.80377">
        <ele>17</ele>
        <time>2026-03-06T18:39:44.000Z</time>
      </trkpt>
      <trkpt lat="43.36648" lon="-1.80389">
        <ele>18</ele>
        <time>2026-03-06T18:39:45.000Z</time>
      </trkpt>
      <trkpt lat="43.36654" lon="-1.80435">
        <ele>21</ele>
        <time>2026-03-06T18:39:51.000Z</time>
      </trkpt>
      <trkpt lat="43.36656" lon="-1.80487">
        <ele>25</ele>
        <time>2026-03-06T18:39:58.000Z</time>
      </trkpt>
      <trkpt lat="43.36655" lon="-1.80517">
        <ele>26</ele>
        <time>2026-03-06T18:40:02.000Z</time>
      </trkpt>
      <trkpt lat="43.36654" lon="-1.80543">
        <ele>27</ele>
        <time>2026-03-06T18:40:05.000Z</time>
      </trkpt>
      <trkpt lat="43.36658" lon="-1.80568">
        <ele>28</ele>
        <time>2026-03-06T18:40:09.000Z</time>
      </trkpt>
      <trkpt lat="43.36663" lon="-1.80589">
        <ele>28</ele>
        <time>2026-03-06T18:40:12.000Z</time>
      </trkpt>
      <trkpt lat="43.36666" lon="-1.80601">
        <ele>29</ele>
        <time>2026-03-06T18:40:13.000Z</time>
      </trkpt>
      <trkpt lat="43.36669" lon="-1.80612">
        <ele>30</ele>
        <time>2026-03-06T18:40:15.000Z</time>
      </trkpt>
      <trkpt lat="43.3667" lon="-1.80621">
        <ele>30</ele>
        <time>2026-03-06T18:40:16.000Z</time>
      </trkpt>
      <trkpt lat="43.36671" lon="-1.8063">
        <ele>31</ele>
        <time>2026-03-06T18:40:17.000Z</time>
      </trkpt>
      <trkpt lat="43.36672" lon="-1.80656">
        <ele>32</ele>
        <time>2026-03-06T18:40:20.000Z</time>
      </trkpt>
      <trkpt lat="43.36672" lon="-1.80673">
        <ele>33</ele>
        <time>2026-03-06T18:40:23.000Z</time>
      </trkpt>
      <trkpt lat="43.36671" lon="-1.80691">
        <ele>35</ele>
        <time>2026-03-06T18:40:25.000Z</time>
      </trkpt>
      <trkpt lat="43.3667" lon="-1.80706">
        <ele>36</ele>
        <time>2026-03-06T18:40:27.000Z</time>
      </trkpt>
      <trkpt lat="43.36669" lon="-1.80717">
        <ele>37</ele>
        <time>2026-03-06T18:40:28.000Z</time>
      </trkpt>
      <trkpt lat="43.36666" lon="-1.80746">
        <ele>40</ele>
        <time>2026-03-06T18:40:32.000Z</time>
      </trkpt>
      <trkpt lat="43.36665" lon="-1.80756">
        <ele>40</ele>
        <time>2026-03-06T18:40:33.000Z</time>
      </trkpt>
      <trkpt lat="43.36665" lon="-1.80764">
        <ele>41</ele>
        <time>2026-03-06T18:40:35.000Z</time>
      </trkpt>
      <trkpt lat="43.36666" lon="-1.80772">
        <ele>41</ele>
        <time>2026-03-06T18:40:36.000Z</time>
      </trkpt>
      <trkpt lat="43.36666" lon="-1.80781">
        <ele>42</ele>
        <time>2026-03-06T18:40:37.000Z</time>
      </trkpt>
      <trkpt lat="43.36669" lon="-1.80788">
        <ele>42</ele>
        <time>2026-03-06T18:40:38.000Z</time>
      </trkpt>
      <trkpt lat="43.3667" lon="-1.80796">
        <ele>42</ele>
        <time>2026-03-06T18:40:39.000Z</time>
      </trkpt>
      <trkpt lat="43.36673" lon="-1.80805">
        <ele>43</ele>
        <time>2026-03-06T18:40:40.000Z</time>
      </trkpt>
      <trkpt lat="43.36678" lon="-1.80817">
        <ele>44</ele>
        <time>2026-03-06T18:40:42.000Z</time>
      </trkpt>
      <trkpt lat="43.36686" lon="-1.80835">
        <ele>45</ele>
        <time>2026-03-06T18:40:45.000Z</time>
      </trkpt>
      <trkpt lat="43.36689" lon="-1.80844">
        <ele>47</ele>
        <time>2026-03-06T18:40:46.000Z</time>
      </trkpt>
      <trkpt lat="43.3669" lon="-1.80849">
        <ele>47</ele>
        <time>2026-03-06T18:40:47.000Z</time>
      </trkpt>
      <trkpt lat="43.3669" lon="-1.80853">
        <ele>48</ele>
        <time>2026-03-06T18:40:47.000Z</time>
      </trkpt>
      <trkpt lat="43.36688" lon="-1.80858">
        <ele>48</ele>
        <time>2026-03-06T18:40:48.000Z</time>
      </trkpt>
      <trkpt lat="43.36686" lon="-1.80863">
        <ele>49</ele>
        <time>2026-03-06T18:40:49.000Z</time>
      </trkpt>
      <trkpt lat="43.36683" lon="-1.80866">
        <ele>49</ele>
        <time>2026-03-06T18:40:49.000Z</time>
      </trkpt>
      <trkpt lat="43.36681" lon="-1.80868">
        <ele>49</ele>
        <time>2026-03-06T18:40:50.000Z</time>
      </trkpt>
      <trkpt lat="43.36678" lon="-1.80869">
        <ele>49</ele>
        <time>2026-03-06T18:40:50.000Z</time>
      </trkpt>
      <trkpt lat="43.36672" lon="-1.80869">
        <ele>49</ele>
        <time>2026-03-06T18:40:51.000Z</time>
      </trkpt>
      <trkpt lat="43.36667" lon="-1.80868">
        <ele>49</ele>
        <time>2026-03-06T18:40:52.000Z</time>
      </trkpt>
      <trkpt lat="43.36663" lon="-1.80867">
        <ele>49</ele>
        <time>2026-03-06T18:40:53.000Z</time>
      </trkpt>
      <trkpt lat="43.36656" lon="-1.80863">
        <ele>48</ele>
        <time>2026-03-06T18:40:54.000Z</time>
      </trkpt>
      <trkpt lat="43.36645" lon="-1.80854">
        <ele>48</ele>
        <time>2026-03-06T18:40:57.000Z</time>
      </trkpt>
      <trkpt lat="43.36643" lon="-1.80853">
        <ele>48</ele>
        <time>2026-03-06T18:40:57.000Z</time>
      </trkpt>
      <trkpt lat="43.36632" lon="-1.80843">
        <ele>47</ele>
        <time>2026-03-06T18:40:59.000Z</time>
      </trkpt>
      <trkpt lat="43.36611" lon="-1.80822">
        <ele>46</ele>
        <time>2026-03-06T18:41:04.000Z</time>
      </trkpt>
      <trkpt lat="43.36602" lon="-1.80813">
        <ele>46</ele>
        <time>2026-03-06T18:41:06.000Z</time>
      </trkpt>
      <trkpt lat="43.36595" lon="-1.80805">
        <ele>45</ele>
        <time>2026-03-06T18:41:07.000Z</time>
      </trkpt>
      <trkpt lat="43.36591" lon="-1.80799">
        <ele>45</ele>
        <time>2026-03-06T18:41:09.000Z</time>
      </trkpt>
      <trkpt lat="43.36586" lon="-1.8079">
        <ele>44</ele>
        <time>2026-03-06T18:41:10.000Z</time>
      </trkpt>
      <trkpt lat="43.3658" lon="-1.80779">
        <ele>44</ele>
        <time>2026-03-06T18:41:12.000Z</time>
      </trkpt>
      <trkpt lat="43.36574" lon="-1.80763">
        <ele>43</ele>
        <time>2026-03-06T18:41:14.000Z</time>
      </trkpt>
      <trkpt lat="43.36569" lon="-1.80753">
        <ele>43</ele>
        <time>2026-03-06T18:41:16.000Z</time>
      </trkpt>
      <trkpt lat="43.36565" lon="-1.80742">
        <ele>43</ele>
        <time>2026-03-06T18:41:17.000Z</time>
      </trkpt>
      <trkpt lat="43.36559" lon="-1.80729">
        <ele>43</ele>
        <time>2026-03-06T18:41:19.000Z</time>
      </trkpt>
      <trkpt lat="43.36554" lon="-1.80715">
        <ele>42</ele>
        <time>2026-03-06T18:41:21.000Z</time>
      </trkpt>
      <trkpt lat="43.36549" lon="-1.80706">
        <ele>42</ele>
        <time>2026-03-06T18:41:23.000Z</time>
      </trkpt>
      <trkpt lat="43.36543" lon="-1.80699">
        <ele>43</ele>
        <time>2026-03-06T18:41:24.000Z</time>
      </trkpt>
      <trkpt lat="43.36537" lon="-1.80694">
        <ele>43</ele>
        <time>2026-03-06T18:41:25.000Z</time>
      </trkpt>
      <trkpt lat="43.36532" lon="-1.80691">
        <ele>43</ele>
        <time>2026-03-06T18:41:26.000Z</time>
      </trkpt>
      <trkpt lat="43.36527" lon="-1.80688">
        <ele>44</ele>
        <time>2026-03-06T18:41:27.000Z</time>
      </trkpt>
      <trkpt lat="43.36522" lon="-1.80686">
        <ele>44</ele>
        <time>2026-03-06T18:41:28.000Z</time>
      </trkpt>
      <trkpt lat="43.36516" lon="-1.80685">
        <ele>45</ele>
        <time>2026-03-06T18:41:29.000Z</time>
      </trkpt>
      <trkpt lat="43.36507" lon="-1.80684">
        <ele>45</ele>
        <time>2026-03-06T18:41:31.000Z</time>
      </trkpt>
      <trkpt lat="43.36496" lon="-1.80685">
        <ele>46</ele>
        <time>2026-03-06T18:41:33.000Z</time>
      </trkpt>
      <trkpt lat="43.3649" lon="-1.80686">
        <ele>47</ele>
        <time>2026-03-06T18:41:34.000Z</time>
      </trkpt>
      <trkpt lat="43.36481" lon="-1.80689">
        <ele>47</ele>
        <time>2026-03-06T18:41:36.000Z</time>
      </trkpt>
      <trkpt lat="43.36477" lon="-1.8069">
        <ele>47</ele>
        <time>2026-03-06T18:41:36.000Z</time>
      </trkpt>
      <trkpt lat="43.36473" lon="-1.80692">
        <ele>47</ele>
        <time>2026-03-06T18:41:37.000Z</time>
      </trkpt>
      <trkpt lat="43.36465" lon="-1.80697">
        <ele>48</ele>
        <time>2026-03-06T18:41:39.000Z</time>
      </trkpt>
      <trkpt lat="43.36455" lon="-1.80705">
        <ele>48</ele>
        <time>2026-03-06T18:41:41.000Z</time>
      </trkpt>
      <trkpt lat="43.36451" lon="-1.8071">
        <ele>49</ele>
        <time>2026-03-06T18:41:42.000Z</time>
      </trkpt>
      <trkpt lat="43.36448" lon="-1.80715">
        <ele>49</ele>
        <time>2026-03-06T18:41:43.000Z</time>
      </trkpt>
      <trkpt lat="43.36445" lon="-1.80723">
        <ele>49</ele>
        <time>2026-03-06T18:41:44.000Z</time>
      </trkpt>
      <trkpt lat="43.36444" lon="-1.80726">
        <ele>49</ele>
        <time>2026-03-06T18:41:44.000Z</time>
      </trkpt>
      <trkpt lat="43.36444" lon="-1.80729">
        <ele>49</ele>
        <time>2026-03-06T18:41:45.000Z</time>
      </trkpt>
      <trkpt lat="43.36445" lon="-1.80732">
        <ele>49</ele>
        <time>2026-03-06T18:41:45.000Z</time>
      </trkpt>
      <trkpt lat="43.36446" lon="-1.80738">
        <ele>50</ele>
        <time>2026-03-06T18:41:46.000Z</time>
      </trkpt>
      <trkpt lat="43.36466" lon="-1.80798">
        <ele>51</ele>
        <time>2026-03-06T18:41:54.000Z</time>
      </trkpt>
      <trkpt lat="43.36492" lon="-1.80878">
        <ele>55</ele>
        <time>2026-03-06T18:42:06.000Z</time>
      </trkpt>
      <trkpt lat="43.36494" lon="-1.80882">
        <ele>55</ele>
        <time>2026-03-06T18:42:06.000Z</time>
      </trkpt>
      <trkpt lat="43.36496" lon="-1.80887">
        <ele>56</ele>
        <time>2026-03-06T18:42:07.000Z</time>
      </trkpt>
      <trkpt lat="43.36499" lon="-1.80892">
        <ele>56</ele>
        <time>2026-03-06T18:42:08.000Z</time>
      </trkpt>
      <trkpt lat="43.36507" lon="-1.809">
        <ele>56</ele>
        <time>2026-03-06T18:42:10.000Z</time>
      </trkpt>
      <trkpt lat="43.36515" lon="-1.80907">
        <ele>57</ele>
        <time>2026-03-06T18:42:11.000Z</time>
      </trkpt>
      <trkpt lat="43.36521" lon="-1.80912">
        <ele>57</ele>
        <time>2026-03-06T18:42:13.000Z</time>
      </trkpt>
      <trkpt lat="43.36528" lon="-1.80916">
        <ele>57</ele>
        <time>2026-03-06T18:42:14.000Z</time>
      </trkpt>
      <trkpt lat="43.36535" lon="-1.8092">
        <ele>57</ele>
        <time>2026-03-06T18:42:15.000Z</time>
      </trkpt>
      <trkpt lat="43.36543" lon="-1.80924">
        <ele>57</ele>
        <time>2026-03-06T18:42:17.000Z</time>
      </trkpt>
      <trkpt lat="43.36551" lon="-1.80926">
        <ele>58</ele>
        <time>2026-03-06T18:42:18.000Z</time>
      </trkpt>
      <trkpt lat="43.36564" lon="-1.80931">
        <ele>58</ele>
        <time>2026-03-06T18:42:21.000Z</time>
      </trkpt>
      <trkpt lat="43.36573" lon="-1.80934">
        <ele>59</ele>
        <time>2026-03-06T18:42:22.000Z</time>
      </trkpt>
      <trkpt lat="43.36585" lon="-1.80939">
        <ele>59</ele>
        <time>2026-03-06T18:42:24.000Z</time>
      </trkpt>
      <trkpt lat="43.36593" lon="-1.80943">
        <ele>60</ele>
        <time>2026-03-06T18:42:26.000Z</time>
      </trkpt>
      <trkpt lat="43.36598" lon="-1.80947">
        <ele>60</ele>
        <time>2026-03-06T18:42:27.000Z</time>
      </trkpt>
      <trkpt lat="43.36603" lon="-1.80949">
        <ele>61</ele>
        <time>2026-03-06T18:42:28.000Z</time>
      </trkpt>
      <trkpt lat="43.36613" lon="-1.80956">
        <ele>62</ele>
        <time>2026-03-06T18:42:30.000Z</time>
      </trkpt>
      <trkpt lat="43.36622" lon="-1.80962">
        <ele>63</ele>
        <time>2026-03-06T18:42:32.000Z</time>
      </trkpt>
      <trkpt lat="43.3663" lon="-1.80968">
        <ele>64</ele>
        <time>2026-03-06T18:42:33.000Z</time>
      </trkpt>
      <trkpt lat="43.36641" lon="-1.80976">
        <ele>65</ele>
        <time>2026-03-06T18:42:36.000Z</time>
      </trkpt>
      <trkpt lat="43.36654" lon="-1.80985">
        <ele>68</ele>
        <time>2026-03-06T18:42:38.000Z</time>
      </trkpt>
      <trkpt lat="43.36667" lon="-1.80993">
        <ele>70</ele>
        <time>2026-03-06T18:42:41.000Z</time>
      </trkpt>
      <trkpt lat="43.36679" lon="-1.81">
        <ele>72</ele>
        <time>2026-03-06T18:42:43.000Z</time>
      </trkpt>
      <trkpt lat="43.36689" lon="-1.81007">
        <ele>73</ele>
        <time>2026-03-06T18:42:45.000Z</time>
      </trkpt>
      <trkpt lat="43.36696" lon="-1.81013">
        <ele>75</ele>
        <time>2026-03-06T18:42:46.000Z</time>
      </trkpt>
      <trkpt lat="43.367" lon="-1.81017">
        <ele>76</ele>
        <time>2026-03-06T18:42:47.000Z</time>
      </trkpt>
      <trkpt lat="43.36702" lon="-1.81019">
        <ele>76</ele>
        <time>2026-03-06T18:42:48.000Z</time>
      </trkpt>
      <trkpt lat="43.36707" lon="-1.81027">
        <ele>78</ele>
        <time>2026-03-06T18:42:49.000Z</time>
      </trkpt>
      <trkpt lat="43.36713" lon="-1.81036">
        <ele>80</ele>
        <time>2026-03-06T18:42:51.000Z</time>
      </trkpt>
      <trkpt lat="43.36722" lon="-1.81047">
        <ele>82</ele>
        <time>2026-03-06T18:42:53.000Z</time>
      </trkpt>
      <trkpt lat="43.36729" lon="-1.81055">
        <ele>85</ele>
        <time>2026-03-06T18:42:54.000Z</time>
      </trkpt>
      <trkpt lat="43.36736" lon="-1.81062">
        <ele>87</ele>
        <time>2026-03-06T18:42:56.000Z</time>
      </trkpt>
      <trkpt lat="43.3674" lon="-1.81066">
        <ele>88</ele>
        <time>2026-03-06T18:42:57.000Z</time>
      </trkpt>
      <trkpt lat="43.36745" lon="-1.81068">
        <ele>89</ele>
        <time>2026-03-06T18:42:58.000Z</time>
      </trkpt>
      <trkpt lat="43.36751" lon="-1.81069">
        <ele>90</ele>
        <time>2026-03-06T18:42:59.000Z</time>
      </trkpt>
      <trkpt lat="43.36757" lon="-1.81066">
        <ele>91</ele>
        <time>2026-03-06T18:43:00.000Z</time>
      </trkpt>
      <trkpt lat="43.36759" lon="-1.81064">
        <ele>91</ele>
        <time>2026-03-06T18:43:00.000Z</time>
      </trkpt>
      <trkpt lat="43.3676" lon="-1.81063">
        <ele>91</ele>
        <time>2026-03-06T18:43:01.000Z</time>
      </trkpt>
      <trkpt lat="43.36763" lon="-1.8106">
        <ele>91</ele>
        <time>2026-03-06T18:43:01.000Z</time>
      </trkpt>
      <trkpt lat="43.36765" lon="-1.81056">
        <ele>91</ele>
        <time>2026-03-06T18:43:02.000Z</time>
      </trkpt>
      <trkpt lat="43.36768" lon="-1.8105">
        <ele>90</ele>
        <time>2026-03-06T18:43:03.000Z</time>
      </trkpt>
      <trkpt lat="43.36779" lon="-1.81025">
        <ele>87</ele>
        <time>2026-03-06T18:43:07.000Z</time>
      </trkpt>
      <trkpt lat="43.36789" lon="-1.81007">
        <ele>86</ele>
        <time>2026-03-06T18:43:10.000Z</time>
      </trkpt>
      <trkpt lat="43.36791" lon="-1.81004">
        <ele>85</ele>
        <time>2026-03-06T18:43:10.000Z</time>
      </trkpt>
      <trkpt lat="43.36794" lon="-1.81001">
        <ele>85</ele>
        <time>2026-03-06T18:43:11.000Z</time>
      </trkpt>
      <trkpt lat="43.36798" lon="-1.80998">
        <ele>85</ele>
        <time>2026-03-06T18:43:12.000Z</time>
      </trkpt>
      <trkpt lat="43.36801" lon="-1.80997">
        <ele>85</ele>
        <time>2026-03-06T18:43:12.000Z</time>
      </trkpt>
      <trkpt lat="43.36806" lon="-1.80996">
        <ele>86</ele>
        <time>2026-03-06T18:43:13.000Z</time>
      </trkpt>
      <trkpt lat="43.36808" lon="-1.80996">
        <ele>86</ele>
        <time>2026-03-06T18:43:13.000Z</time>
      </trkpt>
      <trkpt lat="43.36812" lon="-1.80996">
        <ele>87</ele>
        <time>2026-03-06T18:43:14.000Z</time>
      </trkpt>
      <trkpt lat="43.36815" lon="-1.80997">
        <ele>88</ele>
        <time>2026-03-06T18:43:15.000Z</time>
      </trkpt>
      <trkpt lat="43.36819" lon="-1.80999">
        <ele>89</ele>
        <time>2026-03-06T18:43:15.000Z</time>
      </trkpt>
      <trkpt lat="43.36824" lon="-1.81003">
        <ele>91</ele>
        <time>2026-03-06T18:43:16.000Z</time>
      </trkpt>
      <trkpt lat="43.36829" lon="-1.81008">
        <ele>93</ele>
        <time>2026-03-06T18:43:18.000Z</time>
      </trkpt>
      <trkpt lat="43.36834" lon="-1.81011">
        <ele>95</ele>
        <time>2026-03-06T18:43:19.000Z</time>
      </trkpt>
      <trkpt lat="43.36839" lon="-1.81012">
        <ele>96</ele>
        <time>2026-03-06T18:43:19.000Z</time>
      </trkpt>
      <trkpt lat="43.36845" lon="-1.81013">
        <ele>97</ele>
        <time>2026-03-06T18:43:21.000Z</time>
      </trkpt>
      <trkpt lat="43.36851" lon="-1.81013">
        <ele>98</ele>
        <time>2026-03-06T18:43:22.000Z</time>
      </trkpt>
      <trkpt lat="43.36856" lon="-1.81012">
        <ele>98</ele>
        <time>2026-03-06T18:43:22.000Z</time>
      </trkpt>
      <trkpt lat="43.36869" lon="-1.8101">
        <ele>100</ele>
        <time>2026-03-06T18:43:25.000Z</time>
      </trkpt>
      <trkpt lat="43.36881" lon="-1.81006">
        <ele>100</ele>
        <time>2026-03-06T18:43:27.000Z</time>
      </trkpt>
      <trkpt lat="43.36893" lon="-1.81">
        <ele>101</ele>
        <time>2026-03-06T18:43:29.000Z</time>
      </trkpt>
      <trkpt lat="43.36905" lon="-1.80993">
        <ele>100</ele>
        <time>2026-03-06T18:43:32.000Z</time>
      </trkpt>
      <trkpt lat="43.36914" lon="-1.80987">
        <ele>100</ele>
        <time>2026-03-06T18:43:33.000Z</time>
      </trkpt>
      <trkpt lat="43.36921" lon="-1.80982">
        <ele>100</ele>
        <time>2026-03-06T18:43:35.000Z</time>
      </trkpt>
      <trkpt lat="43.3693" lon="-1.80977">
        <ele>100</ele>
        <time>2026-03-06T18:43:36.000Z</time>
      </trkpt>
      <trkpt lat="43.36942" lon="-1.80969">
        <ele>99</ele>
        <time>2026-03-06T18:43:39.000Z</time>
      </trkpt>
      <trkpt lat="43.36949" lon="-1.80964">
        <ele>98</ele>
        <time>2026-03-06T18:43:40.000Z</time>
      </trkpt>
      <trkpt lat="43.3696" lon="-1.80957">
        <ele>98</ele>
        <time>2026-03-06T18:43:42.000Z</time>
      </trkpt>
      <trkpt lat="43.36964" lon="-1.80956">
        <ele>98</ele>
        <time>2026-03-06T18:43:43.000Z</time>
      </trkpt>
      <trkpt lat="43.36967" lon="-1.80955">
        <ele>98</ele>
        <time>2026-03-06T18:43:44.000Z</time>
      </trkpt>
      <trkpt lat="43.36973" lon="-1.80955">
        <ele>99</ele>
        <time>2026-03-06T18:43:45.000Z</time>
      </trkpt>
      <trkpt lat="43.36978" lon="-1.80956">
        <ele>100</ele>
        <time>2026-03-06T18:43:46.000Z</time>
      </trkpt>
      <trkpt lat="43.36984" lon="-1.80959">
        <ele>102</ele>
        <time>2026-03-06T18:43:47.000Z</time>
      </trkpt>
      <trkpt lat="43.36991" lon="-1.80963">
        <ele>104</ele>
        <time>2026-03-06T18:43:48.000Z</time>
      </trkpt>
      <trkpt lat="43.36996" lon="-1.80966">
        <ele>106</ele>
        <time>2026-03-06T18:43:49.000Z</time>
      </trkpt>
      <trkpt lat="43.37001" lon="-1.80969">
        <ele>107</ele>
        <time>2026-03-06T18:43:50.000Z</time>
      </trkpt>
      <trkpt lat="43.37006" lon="-1.80971">
        <ele>108</ele>
        <time>2026-03-06T18:43:51.000Z</time>
      </trkpt>
      <trkpt lat="43.37012" lon="-1.80972">
        <ele>109</ele>
        <time>2026-03-06T18:43:52.000Z</time>
      </trkpt>
      <trkpt lat="43.37015" lon="-1.80972">
        <ele>109</ele>
        <time>2026-03-06T18:43:53.000Z</time>
      </trkpt>
      <trkpt lat="43.37019" lon="-1.80971">
        <ele>108</ele>
        <time>2026-03-06T18:43:53.000Z</time>
      </trkpt>
      <trkpt lat="43.37026" lon="-1.80968">
        <ele>108</ele>
        <time>2026-03-06T18:43:55.000Z</time>
      </trkpt>
      <trkpt lat="43.37035" lon="-1.80963">
        <ele>106</ele>
        <time>2026-03-06T18:43:56.000Z</time>
      </trkpt>
      <trkpt lat="43.37041" lon="-1.80961">
        <ele>106</ele>
        <time>2026-03-06T18:43:57.000Z</time>
      </trkpt>
      <trkpt lat="43.37043" lon="-1.8096">
        <ele>105</ele>
        <time>2026-03-06T18:43:58.000Z</time>
      </trkpt>
      <trkpt lat="43.37045" lon="-1.8096">
        <ele>105</ele>
        <time>2026-03-06T18:43:58.000Z</time>
      </trkpt>
      <trkpt lat="43.37048" lon="-1.8096">
        <ele>106</ele>
        <time>2026-03-06T18:43:59.000Z</time>
      </trkpt>
      <trkpt lat="43.3705" lon="-1.8096">
        <ele>106</ele>
        <time>2026-03-06T18:43:59.000Z</time>
      </trkpt>
      <trkpt lat="43.3705" lon="-1.80961">
        <ele>106</ele>
        <time>2026-03-06T18:43:59.000Z</time>
      </trkpt>
      <trkpt lat="43.37054" lon="-1.80963">
        <ele>107</ele>
        <time>2026-03-06T18:44:00.000Z</time>
      </trkpt>
      <trkpt lat="43.37061" lon="-1.80968">
        <ele>109</ele>
        <time>2026-03-06T18:44:01.000Z</time>
      </trkpt>
      <trkpt lat="43.37069" lon="-1.80972">
        <ele>110</ele>
        <time>2026-03-06T18:44:03.000Z</time>
      </trkpt>
      <trkpt lat="43.37077" lon="-1.80976">
        <ele>112</ele>
        <time>2026-03-06T18:44:04.000Z</time>
      </trkpt>
      <trkpt lat="43.37084" lon="-1.8098">
        <ele>113</ele>
        <time>2026-03-06T18:44:06.000Z</time>
      </trkpt>
      <trkpt lat="43.37091" lon="-1.80983">
        <ele>115</ele>
        <time>2026-03-06T18:44:07.000Z</time>
      </trkpt>
      <trkpt lat="43.37098" lon="-1.80985">
        <ele>116</ele>
        <time>2026-03-06T18:44:08.000Z</time>
      </trkpt>
      <trkpt lat="43.37105" lon="-1.80986">
        <ele>116</ele>
        <time>2026-03-06T18:44:10.000Z</time>
      </trkpt>
      <trkpt lat="43.37112" lon="-1.80986">
        <ele>116</ele>
        <time>2026-03-06T18:44:11.000Z</time>
      </trkpt>
      <trkpt lat="43.3713" lon="-1.80987">
        <ele>117</ele>
        <time>2026-03-06T18:44:14.000Z</time>
      </trkpt>
      <trkpt lat="43.37157" lon="-1.80986">
        <ele>118</ele>
        <time>2026-03-06T18:44:19.000Z</time>
      </trkpt>
      <trkpt lat="43.37173" lon="-1.80985">
        <ele>119</ele>
        <time>2026-03-06T18:44:22.000Z</time>
      </trkpt>
      <trkpt lat="43.37185" lon="-1.80983">
        <ele>119</ele>
        <time>2026-03-06T18:44:24.000Z</time>
      </trkpt>
      <trkpt lat="43.37215" lon="-1.80978">
        <ele>121</ele>
        <time>2026-03-06T18:44:29.000Z</time>
      </trkpt>
      <trkpt lat="43.37229" lon="-1.80976">
        <ele>122</ele>
        <time>2026-03-06T18:44:32.000Z</time>
      </trkpt>
      <trkpt lat="43.37232" lon="-1.80976">
        <ele>122</ele>
        <time>2026-03-06T18:44:32.000Z</time>
      </trkpt>
      <trkpt lat="43.37237" lon="-1.80977">
        <ele>123</ele>
        <time>2026-03-06T18:44:33.000Z</time>
      </trkpt>
      <trkpt lat="43.3724" lon="-1.80978">
        <ele>123</ele>
        <time>2026-03-06T18:44:34.000Z</time>
      </trkpt>
      <trkpt lat="43.37242" lon="-1.80979">
        <ele>123</ele>
        <time>2026-03-06T18:44:34.000Z</time>
      </trkpt>
      <trkpt lat="43.37244" lon="-1.80981">
        <ele>123</ele>
        <time>2026-03-06T18:44:35.000Z</time>
      </trkpt>
      <trkpt lat="43.37248" lon="-1.80986">
        <ele>124</ele>
        <time>2026-03-06T18:44:36.000Z</time>
      </trkpt>
      <trkpt lat="43.3725" lon="-1.80993">
        <ele>125</ele>
        <time>2026-03-06T18:44:36.000Z</time>
      </trkpt>
      <trkpt lat="43.37251" lon="-1.80996">
        <ele>125</ele>
        <time>2026-03-06T18:44:37.000Z</time>
      </trkpt>
      <trkpt lat="43.37251" lon="-1.80999">
        <ele>125</ele>
        <time>2026-03-06T18:44:37.000Z</time>
      </trkpt>
      <trkpt lat="43.37251" lon="-1.81004">
        <ele>126</ele>
        <time>2026-03-06T18:44:38.000Z</time>
      </trkpt>
      <trkpt lat="43.3725" lon="-1.81008">
        <ele>127</ele>
        <time>2026-03-06T18:44:38.000Z</time>
      </trkpt>
      <trkpt lat="43.3725" lon="-1.81011">
        <ele>127</ele>
        <time>2026-03-06T18:44:39.000Z</time>
      </trkpt>
      <trkpt lat="43.37249" lon="-1.81014">
        <ele>128</ele>
        <time>2026-03-06T18:44:39.000Z</time>
      </trkpt>
      <trkpt lat="43.37248" lon="-1.81016">
        <ele>128</ele>
        <time>2026-03-06T18:44:40.000Z</time>
      </trkpt>
      <trkpt lat="43.37247" lon="-1.8102">
        <ele>129</ele>
        <time>2026-03-06T18:44:40.000Z</time>
      </trkpt>
      <trkpt lat="43.37245" lon="-1.81022">
        <ele>129</ele>
        <time>2026-03-06T18:44:41.000Z</time>
      </trkpt>
      <trkpt lat="43.3724" lon="-1.81028">
        <ele>130</ele>
        <time>2026-03-06T18:44:42.000Z</time>
      </trkpt>
      <trkpt lat="43.37232" lon="-1.8104">
        <ele>133</ele>
        <time>2026-03-06T18:44:44.000Z</time>
      </trkpt>
      <trkpt lat="43.37223" lon="-1.81049">
        <ele>135</ele>
        <time>2026-03-06T18:44:46.000Z</time>
      </trkpt>
      <trkpt lat="43.37216" lon="-1.81056">
        <ele>136</ele>
        <time>2026-03-06T18:44:47.000Z</time>
      </trkpt>
      <trkpt lat="43.37213" lon="-1.81059">
        <ele>137</ele>
        <time>2026-03-06T18:44:48.000Z</time>
      </trkpt>
      <trkpt lat="43.37211" lon="-1.81061">
        <ele>138</ele>
        <time>2026-03-06T18:44:49.000Z</time>
      </trkpt>
      <trkpt lat="43.37209" lon="-1.81061">
        <ele>138</ele>
        <time>2026-03-06T18:44:49.000Z</time>
      </trkpt>
      <trkpt lat="43.37207" lon="-1.81062">
        <ele>138</ele>
        <time>2026-03-06T18:44:49.000Z</time>
      </trkpt>
      <trkpt lat="43.37203" lon="-1.81062">
        <ele>138</ele>
        <time>2026-03-06T18:44:50.000Z</time>
      </trkpt>
      <trkpt lat="43.372" lon="-1.81062">
        <ele>138</ele>
        <time>2026-03-06T18:44:50.000Z</time>
      </trkpt>
      <trkpt lat="43.37197" lon="-1.81062">
        <ele>138</ele>
        <time>2026-03-06T18:44:51.000Z</time>
      </trkpt>
      <trkpt lat="43.3719" lon="-1.8106">
        <ele>138</ele>
        <time>2026-03-06T18:44:52.000Z</time>
      </trkpt>
      <trkpt lat="43.37162" lon="-1.81048">
        <ele>135</ele>
        <time>2026-03-06T18:44:58.000Z</time>
      </trkpt>
      <trkpt lat="43.37156" lon="-1.81046">
        <ele>134</ele>
        <time>2026-03-06T18:44:59.000Z</time>
      </trkpt>
      <trkpt lat="43.37149" lon="-1.81045">
        <ele>134</ele>
        <time>2026-03-06T18:45:00.000Z</time>
      </trkpt>
      <trkpt lat="43.37142" lon="-1.81045">
        <ele>134</ele>
        <time>2026-03-06T18:45:01.000Z</time>
      </trkpt>
      <trkpt lat="43.37132" lon="-1.81046">
        <ele>135</ele>
        <time>2026-03-06T18:45:03.000Z</time>
      </trkpt>
      <trkpt lat="43.37122" lon="-1.81047">
        <ele>135</ele>
        <time>2026-03-06T18:45:05.000Z</time>
      </trkpt>
      <trkpt lat="43.37112" lon="-1.81049">
        <ele>136</ele>
        <time>2026-03-06T18:45:06.000Z</time>
      </trkpt>
      <trkpt lat="43.37101" lon="-1.8105">
        <ele>137</ele>
        <time>2026-03-06T18:45:08.000Z</time>
      </trkpt>
      <trkpt lat="43.3709" lon="-1.8105">
        <ele>137</ele>
        <time>2026-03-06T18:45:10.000Z</time>
      </trkpt>
      <trkpt lat="43.37079" lon="-1.81049">
        <ele>136</ele>
        <time>2026-03-06T18:45:12.000Z</time>
      </trkpt>
      <trkpt lat="43.37071" lon="-1.81048">
        <ele>136</ele>
        <time>2026-03-06T18:45:14.000Z</time>
      </trkpt>
      <trkpt lat="43.37063" lon="-1.81048">
        <ele>136</ele>
        <time>2026-03-06T18:45:15.000Z</time>
      </trkpt>
      <trkpt lat="43.37054" lon="-1.81049">
        <ele>136</ele>
        <time>2026-03-06T18:45:17.000Z</time>
      </trkpt>
      <trkpt lat="43.37044" lon="-1.81051">
        <ele>136</ele>
        <time>2026-03-06T18:45:19.000Z</time>
      </trkpt>
      <trkpt lat="43.37029" lon="-1.81056">
        <ele>138</ele>
        <time>2026-03-06T18:45:21.000Z</time>
      </trkpt>
      <trkpt lat="43.37021" lon="-1.8106">
        <ele>139</ele>
        <time>2026-03-06T18:45:23.000Z</time>
      </trkpt>
      <trkpt lat="43.37015" lon="-1.81064">
        <ele>140</ele>
        <time>2026-03-06T18:45:24.000Z</time>
      </trkpt>
      <trkpt lat="43.37004" lon="-1.81072">
        <ele>142</ele>
        <time>2026-03-06T18:45:26.000Z</time>
      </trkpt>
      <trkpt lat="43.36997" lon="-1.81078">
        <ele>144</ele>
        <time>2026-03-06T18:45:28.000Z</time>
      </trkpt>
      <trkpt lat="43.36991" lon="-1.81084">
        <ele>144</ele>
        <time>2026-03-06T18:45:29.000Z</time>
      </trkpt>
      <trkpt lat="43.36984" lon="-1.81095">
        <ele>145</ele>
        <time>2026-03-06T18:45:31.000Z</time>
      </trkpt>
      <trkpt lat="43.36978" lon="-1.81105">
        <ele>146</ele>
        <time>2026-03-06T18:45:33.000Z</time>
      </trkpt>
      <trkpt lat="43.36973" lon="-1.81113">
        <ele>147</ele>
        <time>2026-03-06T18:45:34.000Z</time>
      </trkpt>
      <trkpt lat="43.36968" lon="-1.81123">
        <ele>148</ele>
        <time>2026-03-06T18:45:36.000Z</time>
      </trkpt>
      <trkpt lat="43.36963" lon="-1.81133">
        <ele>150</ele>
        <time>2026-03-06T18:45:37.000Z</time>
      </trkpt>
      <trkpt lat="43.36958" lon="-1.81142">
        <ele>151</ele>
        <time>2026-03-06T18:45:39.000Z</time>
      </trkpt>
      <trkpt lat="43.36955" lon="-1.81145">
        <ele>151</ele>
        <time>2026-03-06T18:45:39.000Z</time>
      </trkpt>
      <trkpt lat="43.36951" lon="-1.8115">
        <ele>152</ele>
        <time>2026-03-06T18:45:40.000Z</time>
      </trkpt>
      <trkpt lat="43.36948" lon="-1.81152">
        <ele>152</ele>
        <time>2026-03-06T18:45:41.000Z</time>
      </trkpt>
      <trkpt lat="43.36944" lon="-1.81156">
        <ele>152</ele>
        <time>2026-03-06T18:45:42.000Z</time>
      </trkpt>
      <trkpt lat="43.36937" lon="-1.81161">
        <ele>152</ele>
        <time>2026-03-06T18:45:43.000Z</time>
      </trkpt>
      <trkpt lat="43.36928" lon="-1.81166">
        <ele>151</ele>
        <time>2026-03-06T18:45:45.000Z</time>
      </trkpt>
      <trkpt lat="43.36919" lon="-1.81172">
        <ele>150</ele>
        <time>2026-03-06T18:45:47.000Z</time>
      </trkpt>
      <trkpt lat="43.36912" lon="-1.81178">
        <ele>148</ele>
        <time>2026-03-06T18:45:48.000Z</time>
      </trkpt>
      <trkpt lat="43.36906" lon="-1.81185">
        <ele>146</ele>
        <time>2026-03-06T18:45:49.000Z</time>
      </trkpt>
      <trkpt lat="43.36905" lon="-1.81187">
        <ele>146</ele>
        <time>2026-03-06T18:45:50.000Z</time>
      </trkpt>
      <trkpt lat="43.36903" lon="-1.81191">
        <ele>145</ele>
        <time>2026-03-06T18:45:50.000Z</time>
      </trkpt>
      <trkpt lat="43.36901" lon="-1.81198">
        <ele>145</ele>
        <time>2026-03-06T18:45:51.000Z</time>
      </trkpt>
      <trkpt lat="43.369" lon="-1.81204">
        <ele>144</ele>
        <time>2026-03-06T18:45:52.000Z</time>
      </trkpt>
      <trkpt lat="43.36899" lon="-1.81211">
        <ele>144</ele>
        <time>2026-03-06T18:45:53.000Z</time>
      </trkpt>
      <trkpt lat="43.36899" lon="-1.81219">
        <ele>144</ele>
        <time>2026-03-06T18:45:54.000Z</time>
      </trkpt>
      <trkpt lat="43.369" lon="-1.81228">
        <ele>145</ele>
        <time>2026-03-06T18:45:55.000Z</time>
      </trkpt>
      <trkpt lat="43.36902" lon="-1.81238">
        <ele>145</ele>
        <time>2026-03-06T18:45:57.000Z</time>
      </trkpt>
      <trkpt lat="43.36905" lon="-1.81253">
        <ele>146</ele>
        <time>2026-03-06T18:45:59.000Z</time>
      </trkpt>
      <trkpt lat="43.36911" lon="-1.81276">
        <ele>147</ele>
        <time>2026-03-06T18:46:02.000Z</time>
      </trkpt>
      <trkpt lat="43.36914" lon="-1.81287">
        <ele>147</ele>
        <time>2026-03-06T18:46:03.000Z</time>
      </trkpt>
      <trkpt lat="43.36919" lon="-1.81303">
        <ele>148</ele>
        <time>2026-03-06T18:46:06.000Z</time>
      </trkpt>
      <trkpt lat="43.36922" lon="-1.81311">
        <ele>148</ele>
        <time>2026-03-06T18:46:07.000Z</time>
      </trkpt>
      <trkpt lat="43.36928" lon="-1.81323">
        <ele>149</ele>
        <time>2026-03-06T18:46:09.000Z</time>
      </trkpt>
      <trkpt lat="43.36937" lon="-1.81339">
        <ele>150</ele>
        <time>2026-03-06T18:46:11.000Z</time>
      </trkpt>
      <trkpt lat="43.36947" lon="-1.81358">
        <ele>151</ele>
        <time>2026-03-06T18:46:14.000Z</time>
      </trkpt>
      <trkpt lat="43.36955" lon="-1.81371">
        <ele>152</ele>
        <time>2026-03-06T18:46:17.000Z</time>
      </trkpt>
      <trkpt lat="43.36961" lon="-1.8138">
        <ele>153</ele>
        <time>2026-03-06T18:46:18.000Z</time>
      </trkpt>
      <trkpt lat="43.36966" lon="-1.81386">
        <ele>154</ele>
        <time>2026-03-06T18:46:19.000Z</time>
      </trkpt>
      <trkpt lat="43.36972" lon="-1.81392">
        <ele>155</ele>
        <time>2026-03-06T18:46:21.000Z</time>
      </trkpt>
      <trkpt lat="43.3698" lon="-1.81396">
        <ele>157</ele>
        <time>2026-03-06T18:46:22.000Z</time>
      </trkpt>
      <trkpt lat="43.36987" lon="-1.81399">
        <ele>158</ele>
        <time>2026-03-06T18:46:23.000Z</time>
      </trkpt>
      <trkpt lat="43.36993" lon="-1.81404">
        <ele>160</ele>
        <time>2026-03-06T18:46:25.000Z</time>
      </trkpt>
      <trkpt lat="43.36998" lon="-1.81408">
        <ele>161</ele>
        <time>2026-03-06T18:46:26.000Z</time>
      </trkpt>
      <trkpt lat="43.37004" lon="-1.81415">
        <ele>162</ele>
        <time>2026-03-06T18:46:27.000Z</time>
      </trkpt>
      <trkpt lat="43.37008" lon="-1.81423">
        <ele>162</ele>
        <time>2026-03-06T18:46:28.000Z</time>
      </trkpt>
      <trkpt lat="43.37012" lon="-1.81435">
        <ele>163</ele>
        <time>2026-03-06T18:46:30.000Z</time>
      </trkpt>
      <trkpt lat="43.37013" lon="-1.81442">
        <ele>163</ele>
        <time>2026-03-06T18:46:31.000Z</time>
      </trkpt>
      <trkpt lat="43.37013" lon="-1.81452">
        <ele>163</ele>
        <time>2026-03-06T18:46:32.000Z</time>
      </trkpt>
      <trkpt lat="43.37012" lon="-1.81463">
        <ele>163</ele>
        <time>2026-03-06T18:46:34.000Z</time>
      </trkpt>
      <trkpt lat="43.37006" lon="-1.81493">
        <ele>163</ele>
        <time>2026-03-06T18:46:38.000Z</time>
      </trkpt>
      <trkpt lat="43.37001" lon="-1.81515">
        <ele>165</ele>
        <time>2026-03-06T18:46:41.000Z</time>
      </trkpt>
      <trkpt lat="43.36995" lon="-1.81533">
        <ele>166</ele>
        <time>2026-03-06T18:46:43.000Z</time>
      </trkpt>
      <trkpt lat="43.36991" lon="-1.81544">
        <ele>167</ele>
        <time>2026-03-06T18:46:45.000Z</time>
      </trkpt>
      <trkpt lat="43.36986" lon="-1.81555">
        <ele>168</ele>
        <time>2026-03-06T18:46:47.000Z</time>
      </trkpt>
      <trkpt lat="43.36979" lon="-1.81567">
        <ele>168</ele>
        <time>2026-03-06T18:46:49.000Z</time>
      </trkpt>
      <trkpt lat="43.36966" lon="-1.81585">
        <ele>167</ele>
        <time>2026-03-06T18:46:52.000Z</time>
      </trkpt>
      <trkpt lat="43.36957" lon="-1.81599">
        <ele>166</ele>
        <time>2026-03-06T18:46:54.000Z</time>
      </trkpt>
      <trkpt lat="43.36949" lon="-1.81614">
        <ele>166</ele>
        <time>2026-03-06T18:46:57.000Z</time>
      </trkpt>
      <trkpt lat="43.36943" lon="-1.81623">
        <ele>165</ele>
        <time>2026-03-06T18:46:58.000Z</time>
      </trkpt>
      <trkpt lat="43.3694" lon="-1.81629">
        <ele>165</ele>
        <time>2026-03-06T18:46:59.000Z</time>
      </trkpt>
      <trkpt lat="43.36935" lon="-1.81641">
        <ele>166</ele>
        <time>2026-03-06T18:47:01.000Z</time>
      </trkpt>
      <trkpt lat="43.36934" lon="-1.81646">
        <ele>166</ele>
        <time>2026-03-06T18:47:02.000Z</time>
      </trkpt>
      <trkpt lat="43.36933" lon="-1.81651">
        <ele>167</ele>
        <time>2026-03-06T18:47:02.000Z</time>
      </trkpt>
      <trkpt lat="43.36932" lon="-1.81656">
        <ele>168</ele>
        <time>2026-03-06T18:47:03.000Z</time>
      </trkpt>
      <trkpt lat="43.36932" lon="-1.81661">
        <ele>168</ele>
        <time>2026-03-06T18:47:04.000Z</time>
      </trkpt>
      <trkpt lat="43.36932" lon="-1.81667">
        <ele>169</ele>
        <time>2026-03-06T18:47:04.000Z</time>
      </trkpt>
      <trkpt lat="43.36933" lon="-1.81676">
        <ele>171</ele>
        <time>2026-03-06T18:47:06.000Z</time>
      </trkpt>
      <trkpt lat="43.36935" lon="-1.81681">
        <ele>172</ele>
        <time>2026-03-06T18:47:06.000Z</time>
      </trkpt>
      <trkpt lat="43.36937" lon="-1.81686">
        <ele>173</ele>
        <time>2026-03-06T18:47:07.000Z</time>
      </trkpt>
      <trkpt lat="43.36939" lon="-1.81693">
        <ele>174</ele>
        <time>2026-03-06T18:47:08.000Z</time>
      </trkpt>
      <trkpt lat="43.36945" lon="-1.81704">
        <ele>177</ele>
        <time>2026-03-06T18:47:10.000Z</time>
      </trkpt>
      <trkpt lat="43.36953" lon="-1.81721">
        <ele>180</ele>
        <time>2026-03-06T18:47:12.000Z</time>
      </trkpt>
      <trkpt lat="43.36954" lon="-1.81725">
        <ele>181</ele>
        <time>2026-03-06T18:47:13.000Z</time>
      </trkpt>
      <trkpt lat="43.36955" lon="-1.8173">
        <ele>181</ele>
        <time>2026-03-06T18:47:14.000Z</time>
      </trkpt>
      <trkpt lat="43.36956" lon="-1.81732">
        <ele>182</ele>
        <time>2026-03-06T18:47:14.000Z</time>
      </trkpt>
      <trkpt lat="43.36956" lon="-1.81736">
        <ele>182</ele>
        <time>2026-03-06T18:47:14.000Z</time>
      </trkpt>
      <trkpt lat="43.36957" lon="-1.81743">
        <ele>183</ele>
        <time>2026-03-06T18:47:15.000Z</time>
      </trkpt>
      <trkpt lat="43.36956" lon="-1.81749">
        <ele>183</ele>
        <time>2026-03-06T18:47:16.000Z</time>
      </trkpt>
      <trkpt lat="43.36954" lon="-1.81756">
        <ele>184</ele>
        <time>2026-03-06T18:47:17.000Z</time>
      </trkpt>
      <trkpt lat="43.36951" lon="-1.81763">
        <ele>185</ele>
        <time>2026-03-06T18:47:18.000Z</time>
      </trkpt>
      <trkpt lat="43.36948" lon="-1.81769">
        <ele>185</ele>
        <time>2026-03-06T18:47:19.000Z</time>
      </trkpt>
      <trkpt lat="43.36945" lon="-1.81773">
        <ele>185</ele>
        <time>2026-03-06T18:47:20.000Z</time>
      </trkpt>
      <trkpt lat="43.36942" lon="-1.81776">
        <ele>185</ele>
        <time>2026-03-06T18:47:21.000Z</time>
      </trkpt>
      <trkpt lat="43.3693" lon="-1.81785">
        <ele>185</ele>
        <time>2026-03-06T18:47:23.000Z</time>
      </trkpt>
      <trkpt lat="43.36917" lon="-1.81793">
        <ele>185</ele>
        <time>2026-03-06T18:47:25.000Z</time>
      </trkpt>
      <trkpt lat="43.36902" lon="-1.81803">
        <ele>184</ele>
        <time>2026-03-06T18:47:28.000Z</time>
      </trkpt>
      <trkpt lat="43.36887" lon="-1.81812">
        <ele>184</ele>
        <time>2026-03-06T18:47:31.000Z</time>
      </trkpt>
      <trkpt lat="43.36876" lon="-1.81819">
        <ele>184</ele>
        <time>2026-03-06T18:47:34.000Z</time>
      </trkpt>
      <trkpt lat="43.36865" lon="-1.81827">
        <ele>184</ele>
        <time>2026-03-06T18:47:36.000Z</time>
      </trkpt>
      <trkpt lat="43.36855" lon="-1.81834">
        <ele>185</ele>
        <time>2026-03-06T18:47:38.000Z</time>
      </trkpt>
      <trkpt lat="43.36839" lon="-1.81847">
        <ele>185</ele>
        <time>2026-03-06T18:47:41.000Z</time>
      </trkpt>
      <trkpt lat="43.36826" lon="-1.81855">
        <ele>185</ele>
        <time>2026-03-06T18:47:44.000Z</time>
      </trkpt>
      <trkpt lat="43.36811" lon="-1.81866">
        <ele>186</ele>
        <time>2026-03-06T18:47:47.000Z</time>
      </trkpt>
      <trkpt lat="43.36799" lon="-1.81873">
        <ele>186</ele>
        <time>2026-03-06T18:47:49.000Z</time>
      </trkpt>
      <trkpt lat="43.36787" lon="-1.81879">
        <ele>186</ele>
        <time>2026-03-06T18:47:51.000Z</time>
      </trkpt>
      <trkpt lat="43.36777" lon="-1.81883">
        <ele>186</ele>
        <time>2026-03-06T18:47:53.000Z</time>
      </trkpt>
      <trkpt lat="43.36759" lon="-1.81889">
        <ele>185</ele>
        <time>2026-03-06T18:47:56.000Z</time>
      </trkpt>
      <trkpt lat="43.36743" lon="-1.81894">
        <ele>184</ele>
        <time>2026-03-06T18:47:59.000Z</time>
      </trkpt>
      <trkpt lat="43.36735" lon="-1.81898">
        <ele>182</ele>
        <time>2026-03-06T18:48:01.000Z</time>
      </trkpt>
      <trkpt lat="43.36731" lon="-1.81902">
        <ele>182</ele>
        <time>2026-03-06T18:48:02.000Z</time>
      </trkpt>
      <trkpt lat="43.36726" lon="-1.81906">
        <ele>181</ele>
        <time>2026-03-06T18:48:03.000Z</time>
      </trkpt>
      <trkpt lat="43.36723" lon="-1.8191">
        <ele>181</ele>
        <time>2026-03-06T18:48:03.000Z</time>
      </trkpt>
      <trkpt lat="43.36721" lon="-1.81914">
        <ele>181</ele>
        <time>2026-03-06T18:48:04.000Z</time>
      </trkpt>
      <trkpt lat="43.36718" lon="-1.81925">
        <ele>181</ele>
        <time>2026-03-06T18:48:06.000Z</time>
      </trkpt>
      <trkpt lat="43.36715" lon="-1.81934">
        <ele>181</ele>
        <time>2026-03-06T18:48:07.000Z</time>
      </trkpt>
      <trkpt lat="43.36714" lon="-1.81942">
        <ele>182</ele>
        <time>2026-03-06T18:48:08.000Z</time>
      </trkpt>
      <trkpt lat="43.36713" lon="-1.81951">
        <ele>182</ele>
        <time>2026-03-06T18:48:09.000Z</time>
      </trkpt>
      <trkpt lat="43.36713" lon="-1.81961">
        <ele>183</ele>
        <time>2026-03-06T18:48:10.000Z</time>
      </trkpt>
      <trkpt lat="43.36712" lon="-1.81982">
        <ele>185</ele>
        <time>2026-03-06T18:48:13.000Z</time>
      </trkpt>
      <trkpt lat="43.36711" lon="-1.81994">
        <ele>186</ele>
        <time>2026-03-06T18:48:15.000Z</time>
      </trkpt>
      <trkpt lat="43.3671" lon="-1.82005">
        <ele>186</ele>
        <time>2026-03-06T18:48:16.000Z</time>
      </trkpt>
      <trkpt lat="43.36702" lon="-1.82038">
        <ele>186</ele>
        <time>2026-03-06T18:48:21.000Z</time>
      </trkpt>
      <trkpt lat="43.3669" lon="-1.82077">
        <ele>187</ele>
        <time>2026-03-06T18:48:26.000Z</time>
      </trkpt>
      <trkpt lat="43.36683" lon="-1.82102">
        <ele>189</ele>
        <time>2026-03-06T18:48:30.000Z</time>
      </trkpt>
      <trkpt lat="43.36681" lon="-1.82108">
        <ele>189</ele>
        <time>2026-03-06T18:48:30.000Z</time>
      </trkpt>
      <trkpt lat="43.3668" lon="-1.82116">
        <ele>190</ele>
        <time>2026-03-06T18:48:31.000Z</time>
      </trkpt>
      <trkpt lat="43.3668" lon="-1.82124">
        <ele>191</ele>
        <time>2026-03-06T18:48:32.000Z</time>
      </trkpt>
      <trkpt lat="43.3668" lon="-1.82134">
        <ele>192</ele>
        <time>2026-03-06T18:48:34.000Z</time>
      </trkpt>
      <trkpt lat="43.36681" lon="-1.82139">
        <ele>193</ele>
        <time>2026-03-06T18:48:34.000Z</time>
      </trkpt>
      <trkpt lat="43.36683" lon="-1.82143">
        <ele>193</ele>
        <time>2026-03-06T18:48:35.000Z</time>
      </trkpt>
      <trkpt lat="43.36686" lon="-1.82148">
        <ele>194</ele>
        <time>2026-03-06T18:48:36.000Z</time>
      </trkpt>
      <trkpt lat="43.36689" lon="-1.82153">
        <ele>194</ele>
        <time>2026-03-06T18:48:37.000Z</time>
      </trkpt>
      <trkpt lat="43.36693" lon="-1.82158">
        <ele>195</ele>
        <time>2026-03-06T18:48:38.000Z</time>
      </trkpt>
      <trkpt lat="43.36698" lon="-1.82161">
        <ele>195</ele>
        <time>2026-03-06T18:48:39.000Z</time>
      </trkpt>
      <trkpt lat="43.36704" lon="-1.82165">
        <ele>195</ele>
        <time>2026-03-06T18:48:40.000Z</time>
      </trkpt>
      <trkpt lat="43.36704" lon="-1.82165">
        <ele>195</ele>
        <time>2026-03-06T18:48:40.000Z</time>
      </trkpt>
      <trkpt lat="43.36708" lon="-1.82165">
        <ele>195</ele>
        <time>2026-03-06T18:48:41.000Z</time>
      </trkpt>
      <trkpt lat="43.36713" lon="-1.82165">
        <ele>195</ele>
        <time>2026-03-06T18:48:41.000Z</time>
      </trkpt>
      <trkpt lat="43.36716" lon="-1.82164">
        <ele>195</ele>
        <time>2026-03-06T18:48:42.000Z</time>
      </trkpt>
      <trkpt lat="43.3672" lon="-1.82164">
        <ele>195</ele>
        <time>2026-03-06T18:48:43.000Z</time>
      </trkpt>
      <trkpt lat="43.36724" lon="-1.82163">
        <ele>195</ele>
        <time>2026-03-06T18:48:43.000Z</time>
      </trkpt>
      <trkpt lat="43.36728" lon="-1.82161">
        <ele>195</ele>
        <time>2026-03-06T18:48:44.000Z</time>
      </trkpt>
      <trkpt lat="43.36728" lon="-1.82161">
        <ele>195</ele>
        <time>2026-03-06T18:48:44.000Z</time>
      </trkpt>
      <trkpt lat="43.36717" lon="-1.82183">
        <ele>195</ele>
        <time>2026-03-06T18:48:48.000Z</time>
      </trkpt>
      <trkpt lat="43.36717" lon="-1.82183">
        <ele>195</ele>
        <time>2026-03-06T18:48:48.000Z</time>
      </trkpt>
      <trkpt lat="43.36712" lon="-1.82173">
        <ele>195</ele>
        <time>2026-03-06T18:48:49.000Z</time>
      </trkpt>
      <trkpt lat="43.36704" lon="-1.82165">
        <ele>195</ele>
        <time>2026-03-06T18:48:51.000Z</time>
      </trkpt>
      <trkpt lat="43.36698" lon="-1.82161">
        <ele>195</ele>
        <time>2026-03-06T18:48:52.000Z</time>
      </trkpt>
      <trkpt lat="43.36693" lon="-1.82158">
        <ele>195</ele>
        <time>2026-03-06T18:48:53.000Z</time>
      </trkpt>
      <trkpt lat="43.36689" lon="-1.82153">
        <ele>194</ele>
        <time>2026-03-06T18:48:54.000Z</time>
      </trkpt>
      <trkpt lat="43.36686" lon="-1.82148">
        <ele>194</ele>
        <time>2026-03-06T18:48:55.000Z</time>
      </trkpt>
      <trkpt lat="43.36683" lon="-1.82143">
        <ele>193</ele>
        <time>2026-03-06T18:48:56.000Z</time>
      </trkpt>
      <trkpt lat="43.36681" lon="-1.82139">
        <ele>193</ele>
        <time>2026-03-06T18:48:56.000Z</time>
      </trkpt>
      <trkpt lat="43.3668" lon="-1.82134">
        <ele>192</ele>
        <time>2026-03-06T18:48:57.000Z</time>
      </trkpt>
      <trkpt lat="43.3668" lon="-1.82124">
        <ele>191</ele>
        <time>2026-03-06T18:48:58.000Z</time>
      </trkpt>
      <trkpt lat="43.3668" lon="-1.82116">
        <ele>190</ele>
        <time>2026-03-06T18:48:59.000Z</time>
      </trkpt>
      <trkpt lat="43.36681" lon="-1.82108">
        <ele>189</ele>
        <time>2026-03-06T18:49:00.000Z</time>
      </trkpt>
      <trkpt lat="43.36683" lon="-1.82102">
        <ele>189</ele>
        <time>2026-03-06T18:49:01.000Z</time>
      </trkpt>
      <trkpt lat="43.3669" lon="-1.82077">
        <ele>187</ele>
        <time>2026-03-06T18:49:05.000Z</time>
      </trkpt>
      <trkpt lat="43.36702" lon="-1.82038">
        <ele>186</ele>
        <time>2026-03-06T18:49:10.000Z</time>
      </trkpt>
      <trkpt lat="43.3671" lon="-1.82005">
        <ele>186</ele>
        <time>2026-03-06T18:49:15.000Z</time>
      </trkpt>
      <trkpt lat="43.36711" lon="-1.81998">
        <ele>186</ele>
        <time>2026-03-06T18:49:16.000Z</time>
      </trkpt>
      <trkpt lat="43.36711" lon="-1.81998">
        <ele>186</ele>
        <time>2026-03-06T18:49:16.000Z</time>
      </trkpt>
      <trkpt lat="43.36711" lon="-1.81994">
        <ele>186</ele>
        <time>2026-03-06T18:49:16.000Z</time>
      </trkpt>
      <trkpt lat="43.36712" lon="-1.81982">
        <ele>185</ele>
        <time>2026-03-06T18:49:18.000Z</time>
      </trkpt>
      <trkpt lat="43.36713" lon="-1.81961">
        <ele>183</ele>
        <time>2026-03-06T18:49:20.000Z</time>
      </trkpt>
      <trkpt lat="43.36713" lon="-1.81951">
        <ele>182</ele>
        <time>2026-03-06T18:49:22.000Z</time>
      </trkpt>
      <trkpt lat="43.36714" lon="-1.81942">
        <ele>182</ele>
        <time>2026-03-06T18:49:23.000Z</time>
      </trkpt>
      <trkpt lat="43.36715" lon="-1.81934">
        <ele>181</ele>
        <time>2026-03-06T18:49:24.000Z</time>
      </trkpt>
      <trkpt lat="43.36718" lon="-1.81925">
        <ele>181</ele>
        <time>2026-03-06T18:49:25.000Z</time>
      </trkpt>
      <trkpt lat="43.36721" lon="-1.81914">
        <ele>181</ele>
        <time>2026-03-06T18:49:27.000Z</time>
      </trkpt>
      <trkpt lat="43.36723" lon="-1.8191">
        <ele>181</ele>
        <time>2026-03-06T18:49:27.000Z</time>
      </trkpt>
      <trkpt lat="43.36726" lon="-1.81906">
        <ele>181</ele>
        <time>2026-03-06T18:49:28.000Z</time>
      </trkpt>
      <trkpt lat="43.36731" lon="-1.81902">
        <ele>182</ele>
        <time>2026-03-06T18:49:29.000Z</time>
      </trkpt>
      <trkpt lat="43.36735" lon="-1.81898">
        <ele>182</ele>
        <time>2026-03-06T18:49:30.000Z</time>
      </trkpt>
      <trkpt lat="43.36743" lon="-1.81894">
        <ele>184</ele>
        <time>2026-03-06T18:49:32.000Z</time>
      </trkpt>
      <trkpt lat="43.36759" lon="-1.81889">
        <ele>185</ele>
        <time>2026-03-06T18:49:35.000Z</time>
      </trkpt>
      <trkpt lat="43.36777" lon="-1.81883">
        <ele>186</ele>
        <time>2026-03-06T18:49:38.000Z</time>
      </trkpt>
      <trkpt lat="43.36787" lon="-1.81879">
        <ele>186</ele>
        <time>2026-03-06T18:49:40.000Z</time>
      </trkpt>
      <trkpt lat="43.36799" lon="-1.81873">
        <ele>186</ele>
        <time>2026-03-06T18:49:42.000Z</time>
      </trkpt>
      <trkpt lat="43.36811" lon="-1.81866">
        <ele>186</ele>
        <time>2026-03-06T18:49:44.000Z</time>
      </trkpt>
      <trkpt lat="43.36826" lon="-1.81855">
        <ele>185</ele>
        <time>2026-03-06T18:49:47.000Z</time>
      </trkpt>
      <trkpt lat="43.36839" lon="-1.81847">
        <ele>185</ele>
        <time>2026-03-06T18:49:50.000Z</time>
      </trkpt>
      <trkpt lat="43.36855" lon="-1.81834">
        <ele>185</ele>
        <time>2026-03-06T18:49:53.000Z</time>
      </trkpt>
      <trkpt lat="43.36865" lon="-1.81827">
        <ele>184</ele>
        <time>2026-03-06T18:49:55.000Z</time>
      </trkpt>
      <trkpt lat="43.36876" lon="-1.81819">
        <ele>184</ele>
        <time>2026-03-06T18:49:57.000Z</time>
      </trkpt>
      <trkpt lat="43.36887" lon="-1.81812">
        <ele>184</ele>
        <time>2026-03-06T18:49:59.000Z</time>
      </trkpt>
      <trkpt lat="43.36902" lon="-1.81803">
        <ele>184</ele>
        <time>2026-03-06T18:50:02.000Z</time>
      </trkpt>
      <trkpt lat="43.36917" lon="-1.81793">
        <ele>185</ele>
        <time>2026-03-06T18:50:05.000Z</time>
      </trkpt>
      <trkpt lat="43.3693" lon="-1.81785">
        <ele>185</ele>
        <time>2026-03-06T18:50:08.000Z</time>
      </trkpt>
      <trkpt lat="43.36942" lon="-1.81776">
        <ele>185</ele>
        <time>2026-03-06T18:50:10.000Z</time>
      </trkpt>
      <trkpt lat="43.36945" lon="-1.81773">
        <ele>185</ele>
        <time>2026-03-06T18:50:11.000Z</time>
      </trkpt>
      <trkpt lat="43.36948" lon="-1.81769">
        <ele>185</ele>
        <time>2026-03-06T18:50:12.000Z</time>
      </trkpt>
      <trkpt lat="43.36951" lon="-1.81763">
        <ele>185</ele>
        <time>2026-03-06T18:50:13.000Z</time>
      </trkpt>
      <trkpt lat="43.36954" lon="-1.81756">
        <ele>184</ele>
        <time>2026-03-06T18:50:14.000Z</time>
      </trkpt>
      <trkpt lat="43.36956" lon="-1.81749">
        <ele>183</ele>
        <time>2026-03-06T18:50:15.000Z</time>
      </trkpt>
      <trkpt lat="43.36957" lon="-1.81743">
        <ele>183</ele>
        <time>2026-03-06T18:50:16.000Z</time>
      </trkpt>
      <trkpt lat="43.36956" lon="-1.81736">
        <ele>182</ele>
        <time>2026-03-06T18:50:16.000Z</time>
      </trkpt>
      <trkpt lat="43.36956" lon="-1.81732">
        <ele>182</ele>
        <time>2026-03-06T18:50:17.000Z</time>
      </trkpt>
      <trkpt lat="43.36955" lon="-1.8173">
        <ele>181</ele>
        <time>2026-03-06T18:50:17.000Z</time>
      </trkpt>
      <trkpt lat="43.36954" lon="-1.81725">
        <ele>181</ele>
        <time>2026-03-06T18:50:18.000Z</time>
      </trkpt>
      <trkpt lat="43.36953" lon="-1.81721">
        <ele>180</ele>
        <time>2026-03-06T18:50:18.000Z</time>
      </trkpt>
      <trkpt lat="43.36945" lon="-1.81704">
        <ele>177</ele>
        <time>2026-03-06T18:50:21.000Z</time>
      </trkpt>
      <trkpt lat="43.36939" lon="-1.81693">
        <ele>174</ele>
        <time>2026-03-06T18:50:23.000Z</time>
      </trkpt>
      <trkpt lat="43.36937" lon="-1.81686">
        <ele>173</ele>
        <time>2026-03-06T18:50:24.000Z</time>
      </trkpt>
      <trkpt lat="43.36935" lon="-1.81681">
        <ele>172</ele>
        <time>2026-03-06T18:50:25.000Z</time>
      </trkpt>
      <trkpt lat="43.36933" lon="-1.81676">
        <ele>171</ele>
        <time>2026-03-06T18:50:25.000Z</time>
      </trkpt>
      <trkpt lat="43.36932" lon="-1.81667">
        <ele>169</ele>
        <time>2026-03-06T18:50:27.000Z</time>
      </trkpt>
      <trkpt lat="43.36932" lon="-1.81661">
        <ele>168</ele>
        <time>2026-03-06T18:50:27.000Z</time>
      </trkpt>
      <trkpt lat="43.36932" lon="-1.81656">
        <ele>168</ele>
        <time>2026-03-06T18:50:28.000Z</time>
      </trkpt>
      <trkpt lat="43.36933" lon="-1.81651">
        <ele>167</ele>
        <time>2026-03-06T18:50:29.000Z</time>
      </trkpt>
      <trkpt lat="43.36934" lon="-1.81646">
        <ele>166</ele>
        <time>2026-03-06T18:50:29.000Z</time>
      </trkpt>
      <trkpt lat="43.36935" lon="-1.81641">
        <ele>166</ele>
        <time>2026-03-06T18:50:30.000Z</time>
      </trkpt>
      <trkpt lat="43.3694" lon="-1.81629">
        <ele>165</ele>
        <time>2026-03-06T18:50:32.000Z</time>
      </trkpt>
      <trkpt lat="43.36943" lon="-1.81623">
        <ele>165</ele>
        <time>2026-03-06T18:50:33.000Z</time>
      </trkpt>
      <trkpt lat="43.36949" lon="-1.81614">
        <ele>166</ele>
        <time>2026-03-06T18:50:34.000Z</time>
      </trkpt>
      <trkpt lat="43.36957" lon="-1.81599">
        <ele>166</ele>
        <time>2026-03-06T18:50:37.000Z</time>
      </trkpt>
      <trkpt lat="43.36966" lon="-1.81585">
        <ele>167</ele>
        <time>2026-03-06T18:50:39.000Z</time>
      </trkpt>
      <trkpt lat="43.36979" lon="-1.81567">
        <ele>168</ele>
        <time>2026-03-06T18:50:42.000Z</time>
      </trkpt>
      <trkpt lat="43.36986" lon="-1.81555">
        <ele>168</ele>
        <time>2026-03-06T18:50:44.000Z</time>
      </trkpt>
      <trkpt lat="43.36991" lon="-1.81544">
        <ele>167</ele>
        <time>2026-03-06T18:50:46.000Z</time>
      </trkpt>
      <trkpt lat="43.36995" lon="-1.81533">
        <ele>166</ele>
        <time>2026-03-06T18:50:48.000Z</time>
      </trkpt>
      <trkpt lat="43.37001" lon="-1.81515">
        <ele>165</ele>
        <time>2026-03-06T18:50:50.000Z</time>
      </trkpt>
      <trkpt lat="43.37006" lon="-1.81493">
        <ele>163</ele>
        <time>2026-03-06T18:50:53.000Z</time>
      </trkpt>
      <trkpt lat="43.37012" lon="-1.81463">
        <ele>163</ele>
        <time>2026-03-06T18:50:57.000Z</time>
      </trkpt>
      <trkpt lat="43.37013" lon="-1.81452">
        <ele>163</ele>
        <time>2026-03-06T18:50:59.000Z</time>
      </trkpt>
      <trkpt lat="43.37013" lon="-1.81442">
        <ele>163</ele>
        <time>2026-03-06T18:51:00.000Z</time>
      </trkpt>
      <trkpt lat="43.37012" lon="-1.81435">
        <ele>163</ele>
        <time>2026-03-06T18:51:01.000Z</time>
      </trkpt>
      <trkpt lat="43.37008" lon="-1.81423">
        <ele>162</ele>
        <time>2026-03-06T18:51:03.000Z</time>
      </trkpt>
      <trkpt lat="43.37004" lon="-1.81415">
        <ele>162</ele>
        <time>2026-03-06T18:51:04.000Z</time>
      </trkpt>
      <trkpt lat="43.36998" lon="-1.81408">
        <ele>161</ele>
        <time>2026-03-06T18:51:05.000Z</time>
      </trkpt>
      <trkpt lat="43.36993" lon="-1.81404">
        <ele>160</ele>
        <time>2026-03-06T18:51:06.000Z</time>
      </trkpt>
      <trkpt lat="43.36987" lon="-1.81399">
        <ele>158</ele>
        <time>2026-03-06T18:51:07.000Z</time>
      </trkpt>
      <trkpt lat="43.3698" lon="-1.81396">
        <ele>157</ele>
        <time>2026-03-06T18:51:09.000Z</time>
      </trkpt>
      <trkpt lat="43.36972" lon="-1.81392">
        <ele>155</ele>
        <time>2026-03-06T18:51:10.000Z</time>
      </trkpt>
      <trkpt lat="43.36966" lon="-1.81386">
        <ele>154</ele>
        <time>2026-03-06T18:51:12.000Z</time>
      </trkpt>
      <trkpt lat="43.36961" lon="-1.8138">
        <ele>153</ele>
        <time>2026-03-06T18:51:13.000Z</time>
      </trkpt>
      <trkpt lat="43.36955" lon="-1.81371">
        <ele>152</ele>
        <time>2026-03-06T18:51:14.000Z</time>
      </trkpt>
      <trkpt lat="43.36947" lon="-1.81358">
        <ele>151</ele>
        <time>2026-03-06T18:51:17.000Z</time>
      </trkpt>
      <trkpt lat="43.36937" lon="-1.81339">
        <ele>150</ele>
        <time>2026-03-06T18:51:20.000Z</time>
      </trkpt>
      <trkpt lat="43.36928" lon="-1.81323">
        <ele>149</ele>
        <time>2026-03-06T18:51:22.000Z</time>
      </trkpt>
      <trkpt lat="43.36922" lon="-1.81311">
        <ele>148</ele>
        <time>2026-03-06T18:51:24.000Z</time>
      </trkpt>
      <trkpt lat="43.36919" lon="-1.81303">
        <ele>148</ele>
        <time>2026-03-06T18:51:25.000Z</time>
      </trkpt>
      <trkpt lat="43.36914" lon="-1.81287">
        <ele>147</ele>
        <time>2026-03-06T18:51:28.000Z</time>
      </trkpt>
      <trkpt lat="43.36911" lon="-1.81276">
        <ele>147</ele>
        <time>2026-03-06T18:51:29.000Z</time>
      </trkpt>
      <trkpt lat="43.36905" lon="-1.81253">
        <ele>146</ele>
        <time>2026-03-06T18:51:32.000Z</time>
      </trkpt>
      <trkpt lat="43.36902" lon="-1.81238">
        <ele>145</ele>
        <time>2026-03-06T18:51:34.000Z</time>
      </trkpt>
      <trkpt lat="43.369" lon="-1.81228">
        <ele>145</ele>
        <time>2026-03-06T18:51:36.000Z</time>
      </trkpt>
      <trkpt lat="43.36899" lon="-1.81219">
        <ele>144</ele>
        <time>2026-03-06T18:51:37.000Z</time>
      </trkpt>
      <trkpt lat="43.36899" lon="-1.81211">
        <ele>144</ele>
        <time>2026-03-06T18:51:38.000Z</time>
      </trkpt>
      <trkpt lat="43.369" lon="-1.81204">
        <ele>144</ele>
        <time>2026-03-06T18:51:39.000Z</time>
      </trkpt>
      <trkpt lat="43.36901" lon="-1.81198">
        <ele>145</ele>
        <time>2026-03-06T18:51:39.000Z</time>
      </trkpt>
      <trkpt lat="43.36903" lon="-1.81191">
        <ele>145</ele>
        <time>2026-03-06T18:51:40.000Z</time>
      </trkpt>
      <trkpt lat="43.36905" lon="-1.81187">
        <ele>146</ele>
        <time>2026-03-06T18:51:41.000Z</time>
      </trkpt>
      <trkpt lat="43.36906" lon="-1.81185">
        <ele>146</ele>
        <time>2026-03-06T18:51:41.000Z</time>
      </trkpt>
      <trkpt lat="43.36912" lon="-1.81178">
        <ele>148</ele>
        <time>2026-03-06T18:51:43.000Z</time>
      </trkpt>
      <trkpt lat="43.36919" lon="-1.81172">
        <ele>150</ele>
        <time>2026-03-06T18:51:44.000Z</time>
      </trkpt>
      <trkpt lat="43.36928" lon="-1.81166">
        <ele>151</ele>
        <time>2026-03-06T18:51:46.000Z</time>
      </trkpt>
      <trkpt lat="43.36937" lon="-1.81161">
        <ele>152</ele>
        <time>2026-03-06T18:51:48.000Z</time>
      </trkpt>
      <trkpt lat="43.36944" lon="-1.81156">
        <ele>152</ele>
        <time>2026-03-06T18:51:49.000Z</time>
      </trkpt>
      <trkpt lat="43.36948" lon="-1.81152">
        <ele>152</ele>
        <time>2026-03-06T18:51:50.000Z</time>
      </trkpt>
      <trkpt lat="43.36951" lon="-1.8115">
        <ele>152</ele>
        <time>2026-03-06T18:51:51.000Z</time>
      </trkpt>
      <trkpt lat="43.36955" lon="-1.81145">
        <ele>151</ele>
        <time>2026-03-06T18:51:52.000Z</time>
      </trkpt>
      <trkpt lat="43.36958" lon="-1.81142">
        <ele>151</ele>
        <time>2026-03-06T18:51:52.000Z</time>
      </trkpt>
      <trkpt lat="43.36963" lon="-1.81133">
        <ele>150</ele>
        <time>2026-03-06T18:51:54.000Z</time>
      </trkpt>
      <trkpt lat="43.36968" lon="-1.81123">
        <ele>148</ele>
        <time>2026-03-06T18:51:55.000Z</time>
      </trkpt>
      <trkpt lat="43.36973" lon="-1.81113">
        <ele>147</ele>
        <time>2026-03-06T18:51:57.000Z</time>
      </trkpt>
      <trkpt lat="43.36978" lon="-1.81105">
        <ele>146</ele>
        <time>2026-03-06T18:51:58.000Z</time>
      </trkpt>
      <trkpt lat="43.36984" lon="-1.81095">
        <ele>145</ele>
        <time>2026-03-06T18:52:00.000Z</time>
      </trkpt>
      <trkpt lat="43.36991" lon="-1.81084">
        <ele>144</ele>
        <time>2026-03-06T18:52:02.000Z</time>
      </trkpt>
      <trkpt lat="43.36997" lon="-1.81078">
        <ele>144</ele>
        <time>2026-03-06T18:52:03.000Z</time>
      </trkpt>
      <trkpt lat="43.37004" lon="-1.81072">
        <ele>142</ele>
        <time>2026-03-06T18:52:05.000Z</time>
      </trkpt>
      <trkpt lat="43.37015" lon="-1.81064">
        <ele>140</ele>
        <time>2026-03-06T18:52:07.000Z</time>
      </trkpt>
      <trkpt lat="43.37021" lon="-1.8106">
        <ele>139</ele>
        <time>2026-03-06T18:52:08.000Z</time>
      </trkpt>
      <trkpt lat="43.37029" lon="-1.81056">
        <ele>138</ele>
        <time>2026-03-06T18:52:10.000Z</time>
      </trkpt>
      <trkpt lat="43.37044" lon="-1.81051">
        <ele>136</ele>
        <time>2026-03-06T18:52:12.000Z</time>
      </trkpt>
      <trkpt lat="43.37054" lon="-1.81049">
        <ele>136</ele>
        <time>2026-03-06T18:52:14.000Z</time>
      </trkpt>
      <trkpt lat="43.37063" lon="-1.81048">
        <ele>136</ele>
        <time>2026-03-06T18:52:16.000Z</time>
      </trkpt>
      <trkpt lat="43.37071" lon="-1.81048">
        <ele>136</ele>
        <time>2026-03-06T18:52:17.000Z</time>
      </trkpt>
      <trkpt lat="43.37079" lon="-1.81049">
        <ele>136</ele>
        <time>2026-03-06T18:52:19.000Z</time>
      </trkpt>
      <trkpt lat="43.3709" lon="-1.8105">
        <ele>137</ele>
        <time>2026-03-06T18:52:20.000Z</time>
      </trkpt>
      <trkpt lat="43.37101" lon="-1.8105">
        <ele>137</ele>
        <time>2026-03-06T18:52:22.000Z</time>
      </trkpt>
      <trkpt lat="43.37112" lon="-1.81049">
        <ele>136</ele>
        <time>2026-03-06T18:52:24.000Z</time>
      </trkpt>
      <trkpt lat="43.37122" lon="-1.81047">
        <ele>135</ele>
        <time>2026-03-06T18:52:26.000Z</time>
      </trkpt>
      <trkpt lat="43.37132" lon="-1.81046">
        <ele>135</ele>
        <time>2026-03-06T18:52:28.000Z</time>
      </trkpt>
      <trkpt lat="43.37142" lon="-1.81045">
        <ele>134</ele>
        <time>2026-03-06T18:52:30.000Z</time>
      </trkpt>
      <trkpt lat="43.37149" lon="-1.81045">
        <ele>134</ele>
        <time>2026-03-06T18:52:31.000Z</time>
      </trkpt>
      <trkpt lat="43.37156" lon="-1.81046">
        <ele>134</ele>
        <time>2026-03-06T18:52:32.000Z</time>
      </trkpt>
      <trkpt lat="43.37162" lon="-1.81048">
        <ele>135</ele>
        <time>2026-03-06T18:52:33.000Z</time>
      </trkpt>
      <trkpt lat="43.3719" lon="-1.8106">
        <ele>138</ele>
        <time>2026-03-06T18:52:39.000Z</time>
      </trkpt>
      <trkpt lat="43.37197" lon="-1.81062">
        <ele>138</ele>
        <time>2026-03-06T18:52:40.000Z</time>
      </trkpt>
      <trkpt lat="43.372" lon="-1.81062">
        <ele>138</ele>
        <time>2026-03-06T18:52:40.000Z</time>
      </trkpt>
      <trkpt lat="43.37203" lon="-1.81062">
        <ele>138</ele>
        <time>2026-03-06T18:52:41.000Z</time>
      </trkpt>
      <trkpt lat="43.37207" lon="-1.81062">
        <ele>138</ele>
        <time>2026-03-06T18:52:42.000Z</time>
      </trkpt>
      <trkpt lat="43.37209" lon="-1.81061">
        <ele>138</ele>
        <time>2026-03-06T18:52:42.000Z</time>
      </trkpt>
      <trkpt lat="43.37211" lon="-1.81061">
        <ele>138</ele>
        <time>2026-03-06T18:52:42.000Z</time>
      </trkpt>
      <trkpt lat="43.37213" lon="-1.81059">
        <ele>137</ele>
        <time>2026-03-06T18:52:43.000Z</time>
      </trkpt>
      <trkpt lat="43.37216" lon="-1.81056">
        <ele>136</ele>
        <time>2026-03-06T18:52:43.000Z</time>
      </trkpt>
      <trkpt lat="43.37223" lon="-1.81049">
        <ele>135</ele>
        <time>2026-03-06T18:52:45.000Z</time>
      </trkpt>
      <trkpt lat="43.37232" lon="-1.8104">
        <ele>133</ele>
        <time>2026-03-06T18:52:47.000Z</time>
      </trkpt>
      <trkpt lat="43.3724" lon="-1.81028">
        <ele>130</ele>
        <time>2026-03-06T18:52:49.000Z</time>
      </trkpt>
      <trkpt lat="43.37245" lon="-1.81022">
        <ele>129</ele>
        <time>2026-03-06T18:52:50.000Z</time>
      </trkpt>
      <trkpt lat="43.37247" lon="-1.8102">
        <ele>129</ele>
        <time>2026-03-06T18:52:51.000Z</time>
      </trkpt>
      <trkpt lat="43.37248" lon="-1.81016">
        <ele>128</ele>
        <time>2026-03-06T18:52:51.000Z</time>
      </trkpt>
      <trkpt lat="43.37249" lon="-1.81014">
        <ele>128</ele>
        <time>2026-03-06T18:52:52.000Z</time>
      </trkpt>
      <trkpt lat="43.3725" lon="-1.81011">
        <ele>127</ele>
        <time>2026-03-06T18:52:52.000Z</time>
      </trkpt>
      <trkpt lat="43.3725" lon="-1.81008">
        <ele>127</ele>
        <time>2026-03-06T18:52:52.000Z</time>
      </trkpt>
      <trkpt lat="43.37251" lon="-1.81004">
        <ele>126</ele>
        <time>2026-03-06T18:52:53.000Z</time>
      </trkpt>
      <trkpt lat="43.37251" lon="-1.80999">
        <ele>125</ele>
        <time>2026-03-06T18:52:54.000Z</time>
      </trkpt>
      <trkpt lat="43.37251" lon="-1.80996">
        <ele>125</ele>
        <time>2026-03-06T18:52:54.000Z</time>
      </trkpt>
      <trkpt lat="43.3725" lon="-1.80993">
        <ele>125</ele>
        <time>2026-03-06T18:52:54.000Z</time>
      </trkpt>
      <trkpt lat="43.37248" lon="-1.80986">
        <ele>124</ele>
        <time>2026-03-06T18:52:55.000Z</time>
      </trkpt>
      <trkpt lat="43.37244" lon="-1.80981">
        <ele>123</ele>
        <time>2026-03-06T18:52:56.000Z</time>
      </trkpt>
      <trkpt lat="43.37242" lon="-1.80979">
        <ele>123</ele>
        <time>2026-03-06T18:52:57.000Z</time>
      </trkpt>
      <trkpt lat="43.3724" lon="-1.80978">
        <ele>123</ele>
        <time>2026-03-06T18:52:57.000Z</time>
      </trkpt>
      <trkpt lat="43.37237" lon="-1.80977">
        <ele>123</ele>
        <time>2026-03-06T18:52:58.000Z</time>
      </trkpt>
      <trkpt lat="43.37232" lon="-1.80976">
        <ele>122</ele>
        <time>2026-03-06T18:52:59.000Z</time>
      </trkpt>
      <trkpt lat="43.37229" lon="-1.80976">
        <ele>122</ele>
        <time>2026-03-06T18:52:59.000Z</time>
      </trkpt>
      <trkpt lat="43.37215" lon="-1.80978">
        <ele>121</ele>
        <time>2026-03-06T18:53:02.000Z</time>
      </trkpt>
      <trkpt lat="43.37185" lon="-1.80983">
        <ele>119</ele>
        <time>2026-03-06T18:53:07.000Z</time>
      </trkpt>
      <trkpt lat="43.37173" lon="-1.80985">
        <ele>119</ele>
        <time>2026-03-06T18:53:09.000Z</time>
      </trkpt>
      <trkpt lat="43.37157" lon="-1.80986">
        <ele>118</ele>
        <time>2026-03-06T18:53:12.000Z</time>
      </trkpt>
      <trkpt lat="43.3713" lon="-1.80987">
        <ele>117</ele>
        <time>2026-03-06T18:53:17.000Z</time>
      </trkpt>
      <trkpt lat="43.37112" lon="-1.80986">
        <ele>116</ele>
        <time>2026-03-06T18:53:20.000Z</time>
      </trkpt>
      <trkpt lat="43.37105" lon="-1.80986">
        <ele>116</ele>
        <time>2026-03-06T18:53:21.000Z</time>
      </trkpt>
      <trkpt lat="43.37098" lon="-1.80985">
        <ele>116</ele>
        <time>2026-03-06T18:53:23.000Z</time>
      </trkpt>
      <trkpt lat="43.37091" lon="-1.80983">
        <ele>115</ele>
        <time>2026-03-06T18:53:24.000Z</time>
      </trkpt>
      <trkpt lat="43.37084" lon="-1.8098">
        <ele>113</ele>
        <time>2026-03-06T18:53:25.000Z</time>
      </trkpt>
      <trkpt lat="43.37077" lon="-1.80976">
        <ele>112</ele>
        <time>2026-03-06T18:53:26.000Z</time>
      </trkpt>
      <trkpt lat="43.37069" lon="-1.80972">
        <ele>110</ele>
        <time>2026-03-06T18:53:28.000Z</time>
      </trkpt>
      <trkpt lat="43.37061" lon="-1.80968">
        <ele>109</ele>
        <time>2026-03-06T18:53:29.000Z</time>
      </trkpt>
      <trkpt lat="43.37054" lon="-1.80963">
        <ele>107</ele>
        <time>2026-03-06T18:53:31.000Z</time>
      </trkpt>
      <trkpt lat="43.3705" lon="-1.80961">
        <ele>106</ele>
        <time>2026-03-06T18:53:32.000Z</time>
      </trkpt>
      <trkpt lat="43.3705" lon="-1.8096">
        <ele>106</ele>
        <time>2026-03-06T18:53:32.000Z</time>
      </trkpt>
      <trkpt lat="43.37048" lon="-1.8096">
        <ele>106</ele>
        <time>2026-03-06T18:53:32.000Z</time>
      </trkpt>
      <trkpt lat="43.37045" lon="-1.8096">
        <ele>105</ele>
        <time>2026-03-06T18:53:33.000Z</time>
      </trkpt>
      <trkpt lat="43.37043" lon="-1.8096">
        <ele>105</ele>
        <time>2026-03-06T18:53:33.000Z</time>
      </trkpt>
      <trkpt lat="43.37041" lon="-1.80961">
        <ele>106</ele>
        <time>2026-03-06T18:53:33.000Z</time>
      </trkpt>
      <trkpt lat="43.37035" lon="-1.80963">
        <ele>106</ele>
        <time>2026-03-06T18:53:34.000Z</time>
      </trkpt>
      <trkpt lat="43.37026" lon="-1.80968">
        <ele>108</ele>
        <time>2026-03-06T18:53:36.000Z</time>
      </trkpt>
      <trkpt lat="43.37019" lon="-1.80971">
        <ele>108</ele>
        <time>2026-03-06T18:53:38.000Z</time>
      </trkpt>
      <trkpt lat="43.37015" lon="-1.80972">
        <ele>109</ele>
        <time>2026-03-06T18:53:38.000Z</time>
      </trkpt>
      <trkpt lat="43.37012" lon="-1.80972">
        <ele>109</ele>
        <time>2026-03-06T18:53:39.000Z</time>
      </trkpt>
      <trkpt lat="43.37006" lon="-1.80971">
        <ele>108</ele>
        <time>2026-03-06T18:53:40.000Z</time>
      </trkpt>
      <trkpt lat="43.37001" lon="-1.80969">
        <ele>107</ele>
        <time>2026-03-06T18:53:41.000Z</time>
      </trkpt>
      <trkpt lat="43.36996" lon="-1.80966">
        <ele>106</ele>
        <time>2026-03-06T18:53:42.000Z</time>
      </trkpt>
      <trkpt lat="43.36991" lon="-1.80963">
        <ele>104</ele>
        <time>2026-03-06T18:53:43.000Z</time>
      </trkpt>
      <trkpt lat="43.36984" lon="-1.80959">
        <ele>102</ele>
        <time>2026-03-06T18:53:44.000Z</time>
      </trkpt>
      <trkpt lat="43.36978" lon="-1.80956">
        <ele>100</ele>
        <time>2026-03-06T18:53:45.000Z</time>
      </trkpt>
      <trkpt lat="43.36973" lon="-1.80955">
        <ele>99</ele>
        <time>2026-03-06T18:53:46.000Z</time>
      </trkpt>
      <trkpt lat="43.36967" lon="-1.80955">
        <ele>98</ele>
        <time>2026-03-06T18:53:47.000Z</time>
      </trkpt>
      <trkpt lat="43.36964" lon="-1.80956">
        <ele>98</ele>
        <time>2026-03-06T18:53:48.000Z</time>
      </trkpt>
      <trkpt lat="43.3696" lon="-1.80957">
        <ele>98</ele>
        <time>2026-03-06T18:53:48.000Z</time>
      </trkpt>
      <trkpt lat="43.36949" lon="-1.80964">
        <ele>98</ele>
        <time>2026-03-06T18:53:51.000Z</time>
      </trkpt>
      <trkpt lat="43.36942" lon="-1.80969">
        <ele>99</ele>
        <time>2026-03-06T18:53:52.000Z</time>
      </trkpt>
      <trkpt lat="43.3693" lon="-1.80977">
        <ele>100</ele>
        <time>2026-03-06T18:53:54.000Z</time>
      </trkpt>
      <trkpt lat="43.36921" lon="-1.80982">
        <ele>100</ele>
        <time>2026-03-06T18:53:56.000Z</time>
      </trkpt>
      <trkpt lat="43.36914" lon="-1.80987">
        <ele>100</ele>
        <time>2026-03-06T18:53:58.000Z</time>
      </trkpt>
      <trkpt lat="43.36905" lon="-1.80993">
        <ele>100</ele>
        <time>2026-03-06T18:53:59.000Z</time>
      </trkpt>
      <trkpt lat="43.36893" lon="-1.81">
        <ele>101</ele>
        <time>2026-03-06T18:54:02.000Z</time>
      </trkpt>
      <trkpt lat="43.36881" lon="-1.81006">
        <ele>100</ele>
        <time>2026-03-06T18:54:04.000Z</time>
      </trkpt>
      <trkpt lat="43.36869" lon="-1.8101">
        <ele>100</ele>
        <time>2026-03-06T18:54:06.000Z</time>
      </trkpt>
      <trkpt lat="43.36856" lon="-1.81012">
        <ele>98</ele>
        <time>2026-03-06T18:54:08.000Z</time>
      </trkpt>
      <trkpt lat="43.36851" lon="-1.81013">
        <ele>98</ele>
        <time>2026-03-06T18:54:09.000Z</time>
      </trkpt>
      <trkpt lat="43.36845" lon="-1.81013">
        <ele>97</ele>
        <time>2026-03-06T18:54:10.000Z</time>
      </trkpt>
      <trkpt lat="43.36839" lon="-1.81012">
        <ele>96</ele>
        <time>2026-03-06T18:54:11.000Z</time>
      </trkpt>
      <trkpt lat="43.36834" lon="-1.81011">
        <ele>95</ele>
        <time>2026-03-06T18:54:12.000Z</time>
      </trkpt>
      <trkpt lat="43.36829" lon="-1.81008">
        <ele>93</ele>
        <time>2026-03-06T18:54:13.000Z</time>
      </trkpt>
      <trkpt lat="43.36824" lon="-1.81003">
        <ele>91</ele>
        <time>2026-03-06T18:54:14.000Z</time>
      </trkpt>
      <trkpt lat="43.36819" lon="-1.80999">
        <ele>89</ele>
        <time>2026-03-06T18:54:15.000Z</time>
      </trkpt>
      <trkpt lat="43.36815" lon="-1.80997">
        <ele>88</ele>
        <time>2026-03-06T18:54:16.000Z</time>
      </trkpt>
      <trkpt lat="43.36812" lon="-1.80996">
        <ele>87</ele>
        <time>2026-03-06T18:54:17.000Z</time>
      </trkpt>
      <trkpt lat="43.36808" lon="-1.80996">
        <ele>86</ele>
        <time>2026-03-06T18:54:17.000Z</time>
      </trkpt>
      <trkpt lat="43.36806" lon="-1.80996">
        <ele>86</ele>
        <time>2026-03-06T18:54:18.000Z</time>
      </trkpt>
      <trkpt lat="43.36801" lon="-1.80997">
        <ele>85</ele>
        <time>2026-03-06T18:54:19.000Z</time>
      </trkpt>
      <trkpt lat="43.36798" lon="-1.80998">
        <ele>85</ele>
        <time>2026-03-06T18:54:19.000Z</time>
      </trkpt>
      <trkpt lat="43.36794" lon="-1.81001">
        <ele>85</ele>
        <time>2026-03-06T18:54:20.000Z</time>
      </trkpt>
      <trkpt lat="43.36791" lon="-1.81004">
        <ele>85</ele>
        <time>2026-03-06T18:54:21.000Z</time>
      </trkpt>
      <trkpt lat="43.36789" lon="-1.81007">
        <ele>86</ele>
        <time>2026-03-06T18:54:21.000Z</time>
      </trkpt>
      <trkpt lat="43.36779" lon="-1.81025">
        <ele>87</ele>
        <time>2026-03-06T18:54:24.000Z</time>
      </trkpt>
      <trkpt lat="43.36768" lon="-1.8105">
        <ele>90</ele>
        <time>2026-03-06T18:54:28.000Z</time>
      </trkpt>
      <trkpt lat="43.36765" lon="-1.81056">
        <ele>91</ele>
        <time>2026-03-06T18:54:29.000Z</time>
      </trkpt>
      <trkpt lat="43.36763" lon="-1.8106">
        <ele>91</ele>
        <time>2026-03-06T18:54:30.000Z</time>
      </trkpt>
      <trkpt lat="43.3676" lon="-1.81063">
        <ele>91</ele>
        <time>2026-03-06T18:54:30.000Z</time>
      </trkpt>
      <trkpt lat="43.36759" lon="-1.81064">
        <ele>91</ele>
        <time>2026-03-06T18:54:30.000Z</time>
      </trkpt>
      <trkpt lat="43.36757" lon="-1.81066">
        <ele>91</ele>
        <time>2026-03-06T18:54:31.000Z</time>
      </trkpt>
      <trkpt lat="43.36751" lon="-1.81069">
        <ele>90</ele>
        <time>2026-03-06T18:54:32.000Z</time>
      </trkpt>
      <trkpt lat="43.36745" lon="-1.81068">
        <ele>89</ele>
        <time>2026-03-06T18:54:33.000Z</time>
      </trkpt>
      <trkpt lat="43.3674" lon="-1.81066">
        <ele>88</ele>
        <time>2026-03-06T18:54:34.000Z</time>
      </trkpt>
      <trkpt lat="43.36736" lon="-1.81062">
        <ele>87</ele>
        <time>2026-03-06T18:54:35.000Z</time>
      </trkpt>
      <trkpt lat="43.36729" lon="-1.81055">
        <ele>85</ele>
        <time>2026-03-06T18:54:36.000Z</time>
      </trkpt>
      <trkpt lat="43.36722" lon="-1.81047">
        <ele>82</ele>
        <time>2026-03-06T18:54:38.000Z</time>
      </trkpt>
      <trkpt lat="43.36713" lon="-1.81036">
        <ele>80</ele>
        <time>2026-03-06T18:54:40.000Z</time>
      </trkpt>
      <trkpt lat="43.36707" lon="-1.81027">
        <ele>78</ele>
        <time>2026-03-06T18:54:42.000Z</time>
      </trkpt>
      <trkpt lat="43.36702" lon="-1.81019">
        <ele>76</ele>
        <time>2026-03-06T18:54:43.000Z</time>
      </trkpt>
      <trkpt lat="43.367" lon="-1.81017">
        <ele>76</ele>
        <time>2026-03-06T18:54:44.000Z</time>
      </trkpt>
      <trkpt lat="43.36696" lon="-1.81013">
        <ele>75</ele>
        <time>2026-03-06T18:54:44.000Z</time>
      </trkpt>
      <trkpt lat="43.36689" lon="-1.81007">
        <ele>73</ele>
        <time>2026-03-06T18:54:46.000Z</time>
      </trkpt>
      <trkpt lat="43.36679" lon="-1.81">
        <ele>72</ele>
        <time>2026-03-06T18:54:48.000Z</time>
      </trkpt>
      <trkpt lat="43.36667" lon="-1.80993">
        <ele>70</ele>
        <time>2026-03-06T18:54:50.000Z</time>
      </trkpt>
      <trkpt lat="43.36654" lon="-1.80985">
        <ele>68</ele>
        <time>2026-03-06T18:54:53.000Z</time>
      </trkpt>
      <trkpt lat="43.36641" lon="-1.80976">
        <ele>65</ele>
        <time>2026-03-06T18:54:55.000Z</time>
      </trkpt>
      <trkpt lat="43.3663" lon="-1.80968">
        <ele>64</ele>
        <time>2026-03-06T18:54:58.000Z</time>
      </trkpt>
      <trkpt lat="43.36622" lon="-1.80962">
        <ele>63</ele>
        <time>2026-03-06T18:54:59.000Z</time>
      </trkpt>
      <trkpt lat="43.36613" lon="-1.80956">
        <ele>62</ele>
        <time>2026-03-06T18:55:01.000Z</time>
      </trkpt>
      <trkpt lat="43.36603" lon="-1.80949">
        <ele>61</ele>
        <time>2026-03-06T18:55:03.000Z</time>
      </trkpt>
      <trkpt lat="43.36598" lon="-1.80947">
        <ele>60</ele>
        <time>2026-03-06T18:55:04.000Z</time>
      </trkpt>
      <trkpt lat="43.36593" lon="-1.80943">
        <ele>60</ele>
        <time>2026-03-06T18:55:05.000Z</time>
      </trkpt>
      <trkpt lat="43.36585" lon="-1.80939">
        <ele>59</ele>
        <time>2026-03-06T18:55:06.000Z</time>
      </trkpt>
      <trkpt lat="43.36573" lon="-1.80934">
        <ele>59</ele>
        <time>2026-03-06T18:55:09.000Z</time>
      </trkpt>
      <trkpt lat="43.36564" lon="-1.80931">
        <ele>58</ele>
        <time>2026-03-06T18:55:10.000Z</time>
      </trkpt>
      <trkpt lat="43.36551" lon="-1.80926">
        <ele>58</ele>
        <time>2026-03-06T18:55:13.000Z</time>
      </trkpt>
      <trkpt lat="43.36543" lon="-1.80924">
        <ele>57</ele>
        <time>2026-03-06T18:55:14.000Z</time>
      </trkpt>
      <trkpt lat="43.36535" lon="-1.8092">
        <ele>57</ele>
        <time>2026-03-06T18:55:16.000Z</time>
      </trkpt>
      <trkpt lat="43.36528" lon="-1.80916">
        <ele>57</ele>
        <time>2026-03-06T18:55:17.000Z</time>
      </trkpt>
      <trkpt lat="43.36521" lon="-1.80912">
        <ele>57</ele>
        <time>2026-03-06T18:55:18.000Z</time>
      </trkpt>
      <trkpt lat="43.36515" lon="-1.80907">
        <ele>57</ele>
        <time>2026-03-06T18:55:20.000Z</time>
      </trkpt>
      <trkpt lat="43.36507" lon="-1.809">
        <ele>56</ele>
        <time>2026-03-06T18:55:21.000Z</time>
      </trkpt>
      <trkpt lat="43.36499" lon="-1.80892">
        <ele>56</ele>
        <time>2026-03-06T18:55:23.000Z</time>
      </trkpt>
      <trkpt lat="43.36496" lon="-1.80887">
        <ele>56</ele>
        <time>2026-03-06T18:55:24.000Z</time>
      </trkpt>
      <trkpt lat="43.36494" lon="-1.80882">
        <ele>55</ele>
        <time>2026-03-06T18:55:25.000Z</time>
      </trkpt>
      <trkpt lat="43.36492" lon="-1.80878">
        <ele>55</ele>
        <time>2026-03-06T18:55:25.000Z</time>
      </trkpt>
      <trkpt lat="43.36466" lon="-1.80798">
        <ele>51</ele>
        <time>2026-03-06T18:55:37.000Z</time>
      </trkpt>
      <trkpt lat="43.36446" lon="-1.80738">
        <ele>50</ele>
        <time>2026-03-06T18:55:45.000Z</time>
      </trkpt>
      <trkpt lat="43.36445" lon="-1.80732">
        <ele>49</ele>
        <time>2026-03-06T18:55:46.000Z</time>
      </trkpt>
      <trkpt lat="43.36444" lon="-1.80729">
        <ele>49</ele>
        <time>2026-03-06T18:55:46.000Z</time>
      </trkpt>
      <trkpt lat="43.36444" lon="-1.80726">
        <ele>49</ele>
        <time>2026-03-06T18:55:47.000Z</time>
      </trkpt>
      <trkpt lat="43.36445" lon="-1.80723">
        <ele>49</ele>
        <time>2026-03-06T18:55:47.000Z</time>
      </trkpt>
      <trkpt lat="43.36448" lon="-1.80715">
        <ele>49</ele>
        <time>2026-03-06T18:55:48.000Z</time>
      </trkpt>
      <trkpt lat="43.36451" lon="-1.8071">
        <ele>49</ele>
        <time>2026-03-06T18:55:49.000Z</time>
      </trkpt>
      <trkpt lat="43.36455" lon="-1.80705">
        <ele>48</ele>
        <time>2026-03-06T18:55:50.000Z</time>
      </trkpt>
      <trkpt lat="43.36465" lon="-1.80697">
        <ele>48</ele>
        <time>2026-03-06T18:55:52.000Z</time>
      </trkpt>
      <trkpt lat="43.36473" lon="-1.80692">
        <ele>47</ele>
        <time>2026-03-06T18:55:54.000Z</time>
      </trkpt>
      <trkpt lat="43.36477" lon="-1.8069">
        <ele>47</ele>
        <time>2026-03-06T18:55:55.000Z</time>
      </trkpt>
      <trkpt lat="43.36481" lon="-1.80689">
        <ele>47</ele>
        <time>2026-03-06T18:55:55.000Z</time>
      </trkpt>
      <trkpt lat="43.3649" lon="-1.80686">
        <ele>47</ele>
        <time>2026-03-06T18:55:57.000Z</time>
      </trkpt>
      <trkpt lat="43.36496" lon="-1.80685">
        <ele>46</ele>
        <time>2026-03-06T18:55:58.000Z</time>
      </trkpt>
      <trkpt lat="43.36507" lon="-1.80684">
        <ele>45</ele>
        <time>2026-03-06T18:56:00.000Z</time>
      </trkpt>
      <trkpt lat="43.36516" lon="-1.80685">
        <ele>45</ele>
        <time>2026-03-06T18:56:02.000Z</time>
      </trkpt>
      <trkpt lat="43.36522" lon="-1.80686">
        <ele>44</ele>
        <time>2026-03-06T18:56:03.000Z</time>
      </trkpt>
      <trkpt lat="43.36527" lon="-1.80688">
        <ele>44</ele>
        <time>2026-03-06T18:56:04.000Z</time>
      </trkpt>
      <trkpt lat="43.36532" lon="-1.80691">
        <ele>43</ele>
        <time>2026-03-06T18:56:05.000Z</time>
      </trkpt>
      <trkpt lat="43.36537" lon="-1.80694">
        <ele>43</ele>
        <time>2026-03-06T18:56:05.000Z</time>
      </trkpt>
      <trkpt lat="43.36543" lon="-1.80699">
        <ele>43</ele>
        <time>2026-03-06T18:56:07.000Z</time>
      </trkpt>
      <trkpt lat="43.36549" lon="-1.80706">
        <ele>42</ele>
        <time>2026-03-06T18:56:08.000Z</time>
      </trkpt>
      <trkpt lat="43.36554" lon="-1.80715">
        <ele>42</ele>
        <time>2026-03-06T18:56:10.000Z</time>
      </trkpt>
      <trkpt lat="43.36559" lon="-1.80729">
        <ele>43</ele>
        <time>2026-03-06T18:56:12.000Z</time>
      </trkpt>
      <trkpt lat="43.36565" lon="-1.80742">
        <ele>43</ele>
        <time>2026-03-06T18:56:14.000Z</time>
      </trkpt>
      <trkpt lat="43.36569" lon="-1.80753">
        <ele>43</ele>
        <time>2026-03-06T18:56:15.000Z</time>
      </trkpt>
      <trkpt lat="43.36574" lon="-1.80763">
        <ele>43</ele>
        <time>2026-03-06T18:56:17.000Z</time>
      </trkpt>
      <trkpt lat="43.3658" lon="-1.80779">
        <ele>44</ele>
        <time>2026-03-06T18:56:19.000Z</time>
      </trkpt>
      <trkpt lat="43.36586" lon="-1.8079">
        <ele>44</ele>
        <time>2026-03-06T18:56:21.000Z</time>
      </trkpt>
      <trkpt lat="43.36591" lon="-1.80799">
        <ele>45</ele>
        <time>2026-03-06T18:56:22.000Z</time>
      </trkpt>
      <trkpt lat="43.36595" lon="-1.80805">
        <ele>45</ele>
        <time>2026-03-06T18:56:23.000Z</time>
      </trkpt>
      <trkpt lat="43.36602" lon="-1.80813">
        <ele>46</ele>
        <time>2026-03-06T18:56:25.000Z</time>
      </trkpt>
      <trkpt lat="43.36611" lon="-1.80822">
        <ele>46</ele>
        <time>2026-03-06T18:56:27.000Z</time>
      </trkpt>
      <trkpt lat="43.36632" lon="-1.80843">
        <ele>47</ele>
        <time>2026-03-06T18:56:32.000Z</time>
      </trkpt>
      <trkpt lat="43.36643" lon="-1.80853">
        <ele>48</ele>
        <time>2026-03-06T18:56:34.000Z</time>
      </trkpt>
      <trkpt lat="43.36645" lon="-1.80854">
        <ele>48</ele>
        <time>2026-03-06T18:56:34.000Z</time>
      </trkpt>
      <trkpt lat="43.36656" lon="-1.80863">
        <ele>48</ele>
        <time>2026-03-06T18:56:37.000Z</time>
      </trkpt>
      <trkpt lat="43.36663" lon="-1.80867">
        <ele>49</ele>
        <time>2026-03-06T18:56:38.000Z</time>
      </trkpt>
      <trkpt lat="43.36667" lon="-1.80868">
        <ele>49</ele>
        <time>2026-03-06T18:56:39.000Z</time>
      </trkpt>
      <trkpt lat="43.36672" lon="-1.80869">
        <ele>49</ele>
        <time>2026-03-06T18:56:40.000Z</time>
      </trkpt>
      <trkpt lat="43.36678" lon="-1.80869">
        <ele>49</ele>
        <time>2026-03-06T18:56:41.000Z</time>
      </trkpt>
      <trkpt lat="43.36681" lon="-1.80868">
        <ele>49</ele>
        <time>2026-03-06T18:56:41.000Z</time>
      </trkpt>
      <trkpt lat="43.36683" lon="-1.80866">
        <ele>49</ele>
        <time>2026-03-06T18:56:42.000Z</time>
      </trkpt>
      <trkpt lat="43.36686" lon="-1.80863">
        <ele>49</ele>
        <time>2026-03-06T18:56:42.000Z</time>
      </trkpt>
      <trkpt lat="43.36688" lon="-1.80858">
        <ele>48</ele>
        <time>2026-03-06T18:56:43.000Z</time>
      </trkpt>
      <trkpt lat="43.3669" lon="-1.80853">
        <ele>48</ele>
        <time>2026-03-06T18:56:44.000Z</time>
      </trkpt>
      <trkpt lat="43.3669" lon="-1.80849">
        <ele>47</ele>
        <time>2026-03-06T18:56:44.000Z</time>
      </trkpt>
      <trkpt lat="43.36689" lon="-1.80844">
        <ele>47</ele>
        <time>2026-03-06T18:56:45.000Z</time>
      </trkpt>
      <trkpt lat="43.36686" lon="-1.80835">
        <ele>45</ele>
        <time>2026-03-06T18:56:46.000Z</time>
      </trkpt>
      <trkpt lat="43.36678" lon="-1.80817">
        <ele>44</ele>
        <time>2026-03-06T18:56:49.000Z</time>
      </trkpt>
      <trkpt lat="43.36673" lon="-1.80805">
        <ele>43</ele>
        <time>2026-03-06T18:56:51.000Z</time>
      </trkpt>
      <trkpt lat="43.3667" lon="-1.80796">
        <ele>42</ele>
        <time>2026-03-06T18:56:52.000Z</time>
      </trkpt>
      <trkpt lat="43.36669" lon="-1.80788">
        <ele>42</ele>
        <time>2026-03-06T18:56:53.000Z</time>
      </trkpt>
      <trkpt lat="43.36666" lon="-1.80781">
        <ele>42</ele>
        <time>2026-03-06T18:56:54.000Z</time>
      </trkpt>
      <trkpt lat="43.36666" lon="-1.80772">
        <ele>41</ele>
        <time>2026-03-06T18:56:55.000Z</time>
      </trkpt>
      <trkpt lat="43.36665" lon="-1.80764">
        <ele>41</ele>
        <time>2026-03-06T18:56:56.000Z</time>
      </trkpt>
      <trkpt lat="43.36665" lon="-1.80756">
        <ele>40</ele>
        <time>2026-03-06T18:56:57.000Z</time>
      </trkpt>
      <trkpt lat="43.36666" lon="-1.80746">
        <ele>40</ele>
        <time>2026-03-06T18:56:59.000Z</time>
      </trkpt>
      <trkpt lat="43.36669" lon="-1.80717">
        <ele>37</ele>
        <time>2026-03-06T18:57:02.000Z</time>
      </trkpt>
      <trkpt lat="43.3667" lon="-1.80706">
        <ele>36</ele>
        <time>2026-03-06T18:57:04.000Z</time>
      </trkpt>
      <trkpt lat="43.36671" lon="-1.80691">
        <ele>35</ele>
        <time>2026-03-06T18:57:06.000Z</time>
      </trkpt>
      <trkpt lat="43.36672" lon="-1.80673">
        <ele>33</ele>
        <time>2026-03-06T18:57:08.000Z</time>
      </trkpt>
      <trkpt lat="43.36672" lon="-1.80656">
        <ele>32</ele>
        <time>2026-03-06T18:57:10.000Z</time>
      </trkpt>
      <trkpt lat="43.36671" lon="-1.8063">
        <ele>31</ele>
        <time>2026-03-06T18:57:14.000Z</time>
      </trkpt>
      <trkpt lat="43.3667" lon="-1.80621">
        <ele>30</ele>
        <time>2026-03-06T18:57:15.000Z</time>
      </trkpt>
      <trkpt lat="43.36669" lon="-1.80612">
        <ele>30</ele>
        <time>2026-03-06T18:57:16.000Z</time>
      </trkpt>
      <trkpt lat="43.36666" lon="-1.80601">
        <ele>29</ele>
        <time>2026-03-06T18:57:18.000Z</time>
      </trkpt>
      <trkpt lat="43.36663" lon="-1.80589">
        <ele>28</ele>
        <time>2026-03-06T18:57:19.000Z</time>
      </trkpt>
      <trkpt lat="43.36658" lon="-1.80568">
        <ele>28</ele>
        <time>2026-03-06T18:57:22.000Z</time>
      </trkpt>
      <trkpt lat="43.36654" lon="-1.80543">
        <ele>27</ele>
        <time>2026-03-06T18:57:25.000Z</time>
      </trkpt>
      <trkpt lat="43.36655" lon="-1.80517">
        <ele>26</ele>
        <time>2026-03-06T18:57:29.000Z</time>
      </trkpt>
      <trkpt lat="43.36656" lon="-1.80487">
        <ele>25</ele>
        <time>2026-03-06T18:57:33.000Z</time>
      </trkpt>
      <trkpt lat="43.36654" lon="-1.80435">
        <ele>21</ele>
        <time>2026-03-06T18:57:39.000Z</time>
      </trkpt>
      <trkpt lat="43.36648" lon="-1.80389">
        <ele>18</ele>
        <time>2026-03-06T18:57:45.000Z</time>
      </trkpt>
      <trkpt lat="43.36647" lon="-1.80377">
        <ele>17</ele>
        <time>2026-03-06T18:57:47.000Z</time>
      </trkpt>
      <trkpt lat="43.36645" lon="-1.80355">
        <ele>16</ele>
        <time>2026-03-06T18:57:50.000Z</time>
      </trkpt>
      <trkpt lat="43.36641" lon="-1.8033">
        <ele>15</ele>
        <time>2026-03-06T18:57:53.000Z</time>
      </trkpt>
      <trkpt lat="43.36638" lon="-1.803">
        <ele>16</ele>
        <time>2026-03-06T18:57:57.000Z</time>
      </trkpt>
      <trkpt lat="43.36636" lon="-1.80281">
        <ele>16</ele>
        <time>2026-03-06T18:58:00.000Z</time>
      </trkpt>
      <trkpt lat="43.36635" lon="-1.80258">
        <ele>16</ele>
        <time>2026-03-06T18:58:03.000Z</time>
      </trkpt>
      <trkpt lat="43.36633" lon="-1.80238">
        <ele>16</ele>
        <time>2026-03-06T18:58:05.000Z</time>
      </trkpt>
      <trkpt lat="43.3663" lon="-1.80208">
        <ele>16</ele>
        <time>2026-03-06T18:58:09.000Z</time>
      </trkpt>
      <trkpt lat="43.3663" lon="-1.80208">
        <ele>16</ele>
        <time>2026-03-06T18:58:09.000Z</time>
      </trkpt>
      <trkpt lat="43.36627" lon="-1.80208">
        <ele>16</ele>
        <time>2026-03-06T18:58:10.000Z</time>
      </trkpt>
      <trkpt lat="43.36626" lon="-1.80208">
        <ele>16</ele>
        <time>2026-03-06T18:58:10.000Z</time>
      </trkpt>
      <trkpt lat="43.36625" lon="-1.80208">
        <ele>16</ele>
        <time>2026-03-06T18:58:10.000Z</time>
      </trkpt>
      <trkpt lat="43.36624" lon="-1.80208">
        <ele>16</ele>
        <time>2026-03-06T18:58:10.000Z</time>
      </trkpt>
      <trkpt lat="43.36623" lon="-1.80208">
        <ele>16</ele>
        <time>2026-03-06T18:58:10.000Z</time>
      </trkpt>
      <trkpt lat="43.36622" lon="-1.80207">
        <ele>16</ele>
        <time>2026-03-06T18:58:11.000Z</time>
      </trkpt>
      <trkpt lat="43.36621" lon="-1.80207">
        <ele>16</ele>
        <time>2026-03-06T18:58:11.000Z</time>
      </trkpt>
      <trkpt lat="43.3662" lon="-1.80206">
        <ele>16</ele>
        <time>2026-03-06T18:58:11.000Z</time>
      </trkpt>
      <trkpt lat="43.36619" lon="-1.80206">
        <ele>16</ele>
        <time>2026-03-06T18:58:11.000Z</time>
      </trkpt>
      <trkpt lat="43.36618" lon="-1.80205">
        <ele>16</ele>
        <time>2026-03-06T18:58:11.000Z</time>
      </trkpt>
      <trkpt lat="43.36617" lon="-1.80204">
        <ele>16</ele>
        <time>2026-03-06T18:58:12.000Z</time>
      </trkpt>
      <trkpt lat="43.36616" lon="-1.80203">
        <ele>16</ele>
        <time>2026-03-06T18:58:12.000Z</time>
      </trkpt>
      <trkpt lat="43.36615" lon="-1.80202">
        <ele>16</ele>
        <time>2026-03-06T18:58:12.000Z</time>
      </trkpt>
      <trkpt lat="43.36614" lon="-1.80201">
        <ele>16</ele>
        <time>2026-03-06T18:58:12.000Z</time>
      </trkpt>
      <trkpt lat="43.36614" lon="-1.802">
        <ele>16</ele>
        <time>2026-03-06T18:58:12.000Z</time>
      </trkpt>
      <trkpt lat="43.36613" lon="-1.80198">
        <ele>16</ele>
        <time>2026-03-06T18:58:13.000Z</time>
      </trkpt>
      <trkpt lat="43.36612" lon="-1.80197">
        <ele>16</ele>
        <time>2026-03-06T18:58:13.000Z</time>
      </trkpt>
      <trkpt lat="43.36612" lon="-1.80196">
        <ele>16</ele>
        <time>2026-03-06T18:58:13.000Z</time>
      </trkpt>
      <trkpt lat="43.36611" lon="-1.80194">
        <ele>16</ele>
        <time>2026-03-06T18:58:13.000Z</time>
      </trkpt>
      <trkpt lat="43.36611" lon="-1.80193">
        <ele>16</ele>
        <time>2026-03-06T18:58:14.000Z</time>
      </trkpt>
      <trkpt lat="43.36611" lon="-1.80191">
        <ele>16</ele>
        <time>2026-03-06T18:58:14.000Z</time>
      </trkpt>
      <trkpt lat="43.3661" lon="-1.8019">
        <ele>16</ele>
        <time>2026-03-06T18:58:14.000Z</time>
      </trkpt>
      <trkpt lat="43.36599" lon="-1.80194">
        <ele>15</ele>
        <time>2026-03-06T18:58:16.000Z</time>
      </trkpt>
      <trkpt lat="43.36588" lon="-1.80196">
        <ele>15</ele>
        <time>2026-03-06T18:58:18.000Z</time>
      </trkpt>
      <trkpt lat="43.36576" lon="-1.80199">
        <ele>14</ele>
        <time>2026-03-06T18:58:20.000Z</time>
      </trkpt>
      <trkpt lat="43.36564" lon="-1.802">
        <ele>14</ele>
        <time>2026-03-06T18:58:22.000Z</time>
      </trkpt>
      <trkpt lat="43.36553" lon="-1.802">
        <ele>14</ele>
        <time>2026-03-06T18:58:24.000Z</time>
      </trkpt>
      <trkpt lat="43.36541" lon="-1.802">
        <ele>14</ele>
        <time>2026-03-06T18:58:26.000Z</time>
      </trkpt>
      <trkpt lat="43.36529" lon="-1.80198">
        <ele>14</ele>
        <time>2026-03-06T18:58:29.000Z</time>
      </trkpt>
      <trkpt lat="43.36518" lon="-1.80196">
        <ele>13</ele>
        <time>2026-03-06T18:58:31.000Z</time>
      </trkpt>
      <trkpt lat="43.36504" lon="-1.80193">
        <ele>13</ele>
        <time>2026-03-06T18:58:33.000Z</time>
      </trkpt>
      <trkpt lat="43.36491" lon="-1.80189">
        <ele>13</ele>
        <time>2026-03-06T18:58:35.000Z</time>
      </trkpt>
      <trkpt lat="43.36477" lon="-1.80184">
        <ele>12</ele>
        <time>2026-03-06T18:58:38.000Z</time>
      </trkpt>
      <trkpt lat="43.36464" lon="-1.80179">
        <ele>12</ele>
        <time>2026-03-06T18:58:40.000Z</time>
      </trkpt>
      <trkpt lat="43.36452" lon="-1.80172">
        <ele>11</ele>
        <time>2026-03-06T18:58:43.000Z</time>
      </trkpt>
      <trkpt lat="43.36439" lon="-1.80165">
        <ele>10</ele>
        <time>2026-03-06T18:58:45.000Z</time>
      </trkpt>
      <trkpt lat="43.36426" lon="-1.80157">
        <ele>10</ele>
        <time>2026-03-06T18:58:48.000Z</time>
      </trkpt>
      <trkpt lat="43.36414" lon="-1.80148">
        <ele>9</ele>
        <time>2026-03-06T18:58:50.000Z</time>
      </trkpt>
      <trkpt lat="43.36403" lon="-1.80138">
        <ele>9</ele>
        <time>2026-03-06T18:58:53.000Z</time>
      </trkpt>
      <trkpt lat="43.36401" lon="-1.80136">
        <ele>9</ele>
        <time>2026-03-06T18:58:53.000Z</time>
      </trkpt>
      <trkpt lat="43.36394" lon="-1.80129">
        <ele>8</ele>
        <time>2026-03-06T18:58:54.000Z</time>
      </trkpt>
      <trkpt lat="43.36392" lon="-1.80127">
        <ele>8</ele>
        <time>2026-03-06T18:58:55.000Z</time>
      </trkpt>
      <trkpt lat="43.36389" lon="-1.80125">
        <ele>8</ele>
        <time>2026-03-06T18:58:56.000Z</time>
      </trkpt>
      <trkpt lat="43.3638" lon="-1.80115">
        <ele>8</ele>
        <time>2026-03-06T18:58:58.000Z</time>
      </trkpt>
      <trkpt lat="43.36374" lon="-1.80108">
        <ele>7</ele>
        <time>2026-03-06T18:58:59.000Z</time>
      </trkpt>
      <trkpt lat="43.36367" lon="-1.80101">
        <ele>7</ele>
        <time>2026-03-06T18:59:01.000Z</time>
      </trkpt>
      <trkpt lat="43.36357" lon="-1.80084">
        <ele>6</ele>
        <time>2026-03-06T18:59:03.000Z</time>
      </trkpt>
      <trkpt lat="43.36347" lon="-1.80069">
        <ele>6</ele>
        <time>2026-03-06T18:59:06.000Z</time>
      </trkpt>
      <trkpt lat="43.36337" lon="-1.80054">
        <ele>5</ele>
        <time>2026-03-06T18:59:09.000Z</time>
      </trkpt>
      <trkpt lat="43.36328" lon="-1.80037">
        <ele>4</ele>
        <time>2026-03-06T18:59:11.000Z</time>
      </trkpt>
      <trkpt lat="43.36317" lon="-1.80014">
        <ele>4</ele>
        <time>2026-03-06T18:59:15.000Z</time>
      </trkpt>
      <trkpt lat="43.36315" lon="-1.80013">
        <ele>3</ele>
        <time>2026-03-06T18:59:15.000Z</time>
      </trkpt>
      <trkpt lat="43.36293" lon="-1.79992">
        <ele>3</ele>
        <time>2026-03-06T18:59:20.000Z</time>
      </trkpt>
      <trkpt lat="43.36293" lon="-1.79992">
        <ele>3</ele>
        <time>2026-03-06T18:59:20.000Z</time>
      </trkpt>
      <trkpt lat="43.36291" lon="-1.79993">
        <ele>3</ele>
        <time>2026-03-06T18:59:20.000Z</time>
      </trkpt>
      <trkpt lat="43.36289" lon="-1.79994">
        <ele>3</ele>
        <time>2026-03-06T18:59:21.000Z</time>
      </trkpt>
      <trkpt lat="43.36287" lon="-1.79994">
        <ele>3</ele>
        <time>2026-03-06T18:59:21.000Z</time>
      </trkpt>
      <trkpt lat="43.36285" lon="-1.79994">
        <ele>3</ele>
        <time>2026-03-06T18:59:22.000Z</time>
      </trkpt>
      <trkpt lat="43.36283" lon="-1.79994">
        <ele>3</ele>
        <time>2026-03-06T18:59:22.000Z</time>
      </trkpt>
      <trkpt lat="43.3628" lon="-1.79993">
        <ele>3</ele>
        <time>2026-03-06T18:59:22.000Z</time>
      </trkpt>
      <trkpt lat="43.36278" lon="-1.79992">
        <ele>3</ele>
        <time>2026-03-06T18:59:23.000Z</time>
      </trkpt>
      <trkpt lat="43.36276" lon="-1.79991">
        <ele>3</ele>
        <time>2026-03-06T18:59:23.000Z</time>
      </trkpt>
      <trkpt lat="43.36274" lon="-1.7999">
        <ele>3</ele>
        <time>2026-03-06T18:59:24.000Z</time>
      </trkpt>
      <trkpt lat="43.36273" lon="-1.79988">
        <ele>3</ele>
        <time>2026-03-06T18:59:24.000Z</time>
      </trkpt>
      <trkpt lat="43.36271" lon="-1.79986">
        <ele>3</ele>
        <time>2026-03-06T18:59:24.000Z</time>
      </trkpt>
      <trkpt lat="43.36269" lon="-1.79984">
        <ele>3</ele>
        <time>2026-03-06T18:59:25.000Z</time>
      </trkpt>
      <trkpt lat="43.36268" lon="-1.79981">
        <ele>3</ele>
        <time>2026-03-06T18:59:25.000Z</time>
      </trkpt>
      <trkpt lat="43.36267" lon="-1.79979">
        <ele>3</ele>
        <time>2026-03-06T18:59:25.000Z</time>
      </trkpt>
      <trkpt lat="43.36266" lon="-1.79976">
        <ele>3</ele>
        <time>2026-03-06T18:59:26.000Z</time>
      </trkpt>
      <trkpt lat="43.36265" lon="-1.79973">
        <ele>3</ele>
        <time>2026-03-06T18:59:26.000Z</time>
      </trkpt>
      <trkpt lat="43.36264" lon="-1.79971">
        <ele>3</ele>
        <time>2026-03-06T18:59:27.000Z</time>
      </trkpt>
      <trkpt lat="43.36264" lon="-1.79968">
        <ele>3</ele>
        <time>2026-03-06T18:59:27.000Z</time>
      </trkpt>
      <trkpt lat="43.36264" lon="-1.79965">
        <ele>3</ele>
        <time>2026-03-06T18:59:27.000Z</time>
      </trkpt>
      <trkpt lat="43.36264" lon="-1.79961">
        <ele>3</ele>
        <time>2026-03-06T18:59:28.000Z</time>
      </trkpt>
      <trkpt lat="43.36264" lon="-1.79958">
        <ele>4</ele>
        <time>2026-03-06T18:59:28.000Z</time>
      </trkpt>
      <trkpt lat="43.36264" lon="-1.79956">
        <ele>4</ele>
        <time>2026-03-06T18:59:29.000Z</time>
      </trkpt>
      <trkpt lat="43.36264" lon="-1.79955">
        <ele>4</ele>
        <time>2026-03-06T18:59:29.000Z</time>
      </trkpt>
      <trkpt lat="43.36265" lon="-1.79953">
        <ele>4</ele>
        <time>2026-03-06T18:59:29.000Z</time>
      </trkpt>
      <trkpt lat="43.36266" lon="-1.7995">
        <ele>4</ele>
        <time>2026-03-06T18:59:29.000Z</time>
      </trkpt>
      <trkpt lat="43.36267" lon="-1.79947">
        <ele>4</ele>
        <time>2026-03-06T18:59:30.000Z</time>
      </trkpt>
      <trkpt lat="43.36268" lon="-1.79945">
        <ele>4</ele>
        <time>2026-03-06T18:59:30.000Z</time>
      </trkpt>
      <trkpt lat="43.3627" lon="-1.79942">
        <ele>4</ele>
        <time>2026-03-06T18:59:31.000Z</time>
      </trkpt>
      <trkpt lat="43.36271" lon="-1.79941">
        <ele>4</ele>
        <time>2026-03-06T18:59:31.000Z</time>
      </trkpt>
      <trkpt lat="43.36271" lon="-1.79928">
        <ele>4</ele>
        <time>2026-03-06T18:59:33.000Z</time>
      </trkpt>
      <trkpt lat="43.36271" lon="-1.79919">
        <ele>4</ele>
        <time>2026-03-06T18:59:34.000Z</time>
      </trkpt>
      <trkpt lat="43.36271" lon="-1.79916">
        <ele>4</ele>
        <time>2026-03-06T18:59:34.000Z</time>
      </trkpt>
      <trkpt lat="43.3627" lon="-1.79911">
        <ele>4</ele>
        <time>2026-03-06T18:59:35.000Z</time>
      </trkpt>
      <trkpt lat="43.36269" lon="-1.79906">
        <ele>4</ele>
        <time>2026-03-06T18:59:36.000Z</time>
      </trkpt>
      <trkpt lat="43.36267" lon="-1.799">
        <ele>4</ele>
        <time>2026-03-06T18:59:36.000Z</time>
      </trkpt>
      <trkpt lat="43.36266" lon="-1.79896">
        <ele>4</ele>
        <time>2026-03-06T18:59:37.000Z</time>
      </trkpt>
      <trkpt lat="43.36248" lon="-1.79852">
        <ele>4</ele>
        <time>2026-03-06T18:59:43.000Z</time>
      </trkpt>
      <trkpt lat="43.3613" lon="-1.79548">
        <ele>4</ele>
        <time>2026-03-06T19:00:28.000Z</time>
      </trkpt>
      <trkpt lat="43.36126" lon="-1.79539">
        <ele>4</ele>
        <time>2026-03-06T19:00:29.000Z</time>
      </trkpt>
      <trkpt lat="43.36118" lon="-1.79518">
        <ele>4</ele>
        <time>2026-03-06T19:00:32.000Z</time>
      </trkpt>
      <trkpt lat="43.36118" lon="-1.79518">
        <ele>4</ele>
        <time>2026-03-06T19:00:32.000Z</time>
      </trkpt>
      <trkpt lat="43.36116" lon="-1.79519">
        <ele>4</ele>
        <time>2026-03-06T19:00:33.000Z</time>
      </trkpt>
      <trkpt lat="43.36114" lon="-1.7952">
        <ele>4</ele>
        <time>2026-03-06T19:00:33.000Z</time>
      </trkpt>
      <trkpt lat="43.36112" lon="-1.7952">
        <ele>4</ele>
        <time>2026-03-06T19:00:34.000Z</time>
      </trkpt>
      <trkpt lat="43.3611" lon="-1.7952">
        <ele>4</ele>
        <time>2026-03-06T19:00:34.000Z</time>
      </trkpt>
      <trkpt lat="43.36108" lon="-1.7952">
        <ele>5</ele>
        <time>2026-03-06T19:00:34.000Z</time>
      </trkpt>
      <trkpt lat="43.36106" lon="-1.79519">
        <ele>5</ele>
        <time>2026-03-06T19:00:35.000Z</time>
      </trkpt>
      <trkpt lat="43.36104" lon="-1.79519">
        <ele>5</ele>
        <time>2026-03-06T19:00:35.000Z</time>
      </trkpt>
      <trkpt lat="43.36102" lon="-1.79518">
        <ele>5</ele>
        <time>2026-03-06T19:00:35.000Z</time>
      </trkpt>
      <trkpt lat="43.361" lon="-1.79516">
        <ele>5</ele>
        <time>2026-03-06T19:00:36.000Z</time>
      </trkpt>
      <trkpt lat="43.36098" lon="-1.79515">
        <ele>5</ele>
        <time>2026-03-06T19:00:36.000Z</time>
      </trkpt>
      <trkpt lat="43.36097" lon="-1.79513">
        <ele>4</ele>
        <time>2026-03-06T19:00:37.000Z</time>
      </trkpt>
      <trkpt lat="43.36095" lon="-1.79511">
        <ele>4</ele>
        <time>2026-03-06T19:00:37.000Z</time>
      </trkpt>
      <trkpt lat="43.36094" lon="-1.79509">
        <ele>4</ele>
        <time>2026-03-06T19:00:37.000Z</time>
      </trkpt>
      <trkpt lat="43.36093" lon="-1.79507">
        <ele>4</ele>
        <time>2026-03-06T19:00:38.000Z</time>
      </trkpt>
      <trkpt lat="43.36091" lon="-1.79503">
        <ele>4</ele>
        <time>2026-03-06T19:00:38.000Z</time>
      </trkpt>
      <trkpt lat="43.36087" lon="-1.79504">
        <ele>4</ele>
        <time>2026-03-06T19:00:39.000Z</time>
      </trkpt>
      <trkpt lat="43.36081" lon="-1.79505">
        <ele>4</ele>
        <time>2026-03-06T19:00:40.000Z</time>
      </trkpt>
      <trkpt lat="43.36079" lon="-1.79505">
        <ele>4</ele>
        <time>2026-03-06T19:00:40.000Z</time>
      </trkpt>
      <trkpt lat="43.36075" lon="-1.79505">
        <ele>4</ele>
        <time>2026-03-06T19:00:41.000Z</time>
      </trkpt>
      <trkpt lat="43.36073" lon="-1.79505">
        <ele>4</ele>
        <time>2026-03-06T19:00:41.000Z</time>
      </trkpt>
      <trkpt lat="43.36069" lon="-1.79504">
        <ele>4</ele>
        <time>2026-03-06T19:00:42.000Z</time>
      </trkpt>
      <trkpt lat="43.36065" lon="-1.79503">
        <ele>4</ele>
        <time>2026-03-06T19:00:43.000Z</time>
      </trkpt>
      <trkpt lat="43.36063" lon="-1.79502">
        <ele>4</ele>
        <time>2026-03-06T19:00:43.000Z</time>
      </trkpt>
      <trkpt lat="43.36061" lon="-1.79501">
        <ele>4</ele>
        <time>2026-03-06T19:00:44.000Z</time>
      </trkpt>
      <trkpt lat="43.36061" lon="-1.79501">
        <ele>4</ele>
        <time>2026-03-06T19:00:44.000Z</time>
      </trkpt>
      <trkpt lat="43.36057" lon="-1.79506">
        <ele>4</ele>
        <time>2026-03-06T19:00:45.000Z</time>
      </trkpt>
      <trkpt lat="43.36055" lon="-1.79509">
        <ele>4</ele>
        <time>2026-03-06T19:00:45.000Z</time>
      </trkpt>
      <trkpt lat="43.36054" lon="-1.79512">
        <ele>4</ele>
        <time>2026-03-06T19:00:46.000Z</time>
      </trkpt>
      <trkpt lat="43.3605" lon="-1.79522">
        <ele>4</ele>
        <time>2026-03-06T19:00:47.000Z</time>
      </trkpt>
      <trkpt lat="43.36046" lon="-1.79535">
        <ele>5</ele>
        <time>2026-03-06T19:00:49.000Z</time>
      </trkpt>
      <trkpt lat="43.36041" lon="-1.79545">
        <ele>6</ele>
        <time>2026-03-06T19:00:50.000Z</time>
      </trkpt>
      <trkpt lat="43.3604" lon="-1.79546">
        <ele>6</ele>
        <time>2026-03-06T19:00:51.000Z</time>
      </trkpt>
      <trkpt lat="43.36039" lon="-1.79547">
        <ele>6</ele>
        <time>2026-03-06T19:00:51.000Z</time>
      </trkpt>
      <trkpt lat="43.36036" lon="-1.79549">
        <ele>6</ele>
        <time>2026-03-06T19:00:51.000Z</time>
      </trkpt>
      <trkpt lat="43.36028" lon="-1.79551">
        <ele>6</ele>
        <time>2026-03-06T19:00:53.000Z</time>
      </trkpt>
      <trkpt lat="43.36013" lon="-1.79555">
        <ele>6</ele>
        <time>2026-03-06T19:00:56.000Z</time>
      </trkpt>
      <trkpt lat="43.36006" lon="-1.79557">
        <ele>6</ele>
        <time>2026-03-06T19:00:57.000Z</time>
      </trkpt>
      <trkpt lat="43.36001" lon="-1.7956">
        <ele>6</ele>
        <time>2026-03-06T19:00:58.000Z</time>
      </trkpt>
      <trkpt lat="43.35997" lon="-1.79562">
        <ele>6</ele>
        <time>2026-03-06T19:00:59.000Z</time>
      </trkpt>
      <trkpt lat="43.35995" lon="-1.79565">
        <ele>6</ele>
        <time>2026-03-06T19:00:59.000Z</time>
      </trkpt>
      <trkpt lat="43.35993" lon="-1.79567">
        <ele>6</ele>
        <time>2026-03-06T19:01:00.000Z</time>
      </trkpt>
      <trkpt lat="43.35991" lon="-1.79569">
        <ele>7</ele>
        <time>2026-03-06T19:01:00.000Z</time>
      </trkpt>
      <trkpt lat="43.35988" lon="-1.79573">
        <ele>7</ele>
        <time>2026-03-06T19:01:01.000Z</time>
      </trkpt>
      <trkpt lat="43.35986" lon="-1.79576">
        <ele>7</ele>
        <time>2026-03-06T19:01:01.000Z</time>
      </trkpt>
      <trkpt lat="43.35983" lon="-1.79581">
        <ele>7</ele>
        <time>2026-03-06T19:01:02.000Z</time>
      </trkpt>
      <trkpt lat="43.35972" lon="-1.79597">
        <ele>8</ele>
        <time>2026-03-06T19:01:05.000Z</time>
      </trkpt>
      <trkpt lat="43.35959" lon="-1.79615">
        <ele>10</ele>
        <time>2026-03-06T19:01:08.000Z</time>
      </trkpt>
      <trkpt lat="43.35956" lon="-1.7962">
        <ele>10</ele>
        <time>2026-03-06T19:01:09.000Z</time>
      </trkpt>
      <trkpt lat="43.35952" lon="-1.79624">
        <ele>10</ele>
        <time>2026-03-06T19:01:10.000Z</time>
      </trkpt>
      <trkpt lat="43.35944" lon="-1.79632">
        <ele>10</ele>
        <time>2026-03-06T19:01:12.000Z</time>
      </trkpt>
      <trkpt lat="43.35902" lon="-1.79673">
        <ele>12</ele>
        <time>2026-03-06T19:01:21.000Z</time>
      </trkpt>
      <trkpt lat="43.35902" lon="-1.79673">
        <ele>12</ele>
        <time>2026-03-06T19:01:21.000Z</time>
      </trkpt>
      <trkpt lat="43.35876" lon="-1.79686">
        <ele>12</ele>
        <time>2026-03-06T19:01:26.000Z</time>
      </trkpt>
      <trkpt lat="43.35861" lon="-1.79692">
        <ele>12</ele>
        <time>2026-03-06T19:01:29.000Z</time>
      </trkpt>
      <trkpt lat="43.35856" lon="-1.79694">
        <ele>12</ele>
        <time>2026-03-06T19:01:30.000Z</time>
      </trkpt>
      <trkpt lat="43.35848" lon="-1.79696">
        <ele>12</ele>
        <time>2026-03-06T19:01:31.000Z</time>
      </trkpt>
      <trkpt lat="43.35795" lon="-1.79709">
        <ele>14</ele>
        <time>2026-03-06T19:01:41.000Z</time>
      </trkpt>
      <trkpt lat="43.35787" lon="-1.79711">
        <ele>14</ele>
        <time>2026-03-06T19:01:42.000Z</time>
      </trkpt>
      <trkpt lat="43.3576" lon="-1.79717">
        <ele>15</ele>
        <time>2026-03-06T19:01:47.000Z</time>
      </trkpt>
      <trkpt lat="43.35744" lon="-1.7972">
        <ele>15</ele>
        <time>2026-03-06T19:01:50.000Z</time>
      </trkpt>
      <trkpt lat="43.35723" lon="-1.79725">
        <ele>14</ele>
        <time>2026-03-06T19:01:54.000Z</time>
      </trkpt>
      <trkpt lat="43.35709" lon="-1.7973">
        <ele>13</ele>
        <time>2026-03-06T19:01:56.000Z</time>
      </trkpt>
      <trkpt lat="43.35686" lon="-1.79739">
        <ele>11</ele>
        <time>2026-03-06T19:02:00.000Z</time>
      </trkpt>
      <trkpt lat="43.35665" lon="-1.79748">
        <ele>10</ele>
        <time>2026-03-06T19:02:04.000Z</time>
      </trkpt>
      <trkpt lat="43.35655" lon="-1.79753">
        <ele>10</ele>
        <time>2026-03-06T19:02:06.000Z</time>
      </trkpt>
      <trkpt lat="43.35626" lon="-1.79767">
        <ele>12</ele>
        <time>2026-03-06T19:02:12.000Z</time>
      </trkpt>
      <trkpt lat="43.35599" lon="-1.7978">
        <ele>14</ele>
        <time>2026-03-06T19:02:17.000Z</time>
      </trkpt>
      <trkpt lat="43.3558" lon="-1.79788">
        <ele>15</ele>
        <time>2026-03-06T19:02:20.000Z</time>
      </trkpt>
      <trkpt lat="43.3555" lon="-1.798">
        <ele>16</ele>
        <time>2026-03-06T19:02:26.000Z</time>
      </trkpt>
      <trkpt lat="43.3553" lon="-1.79808">
        <ele>17</ele>
        <time>2026-03-06T19:02:30.000Z</time>
      </trkpt>
      <trkpt lat="43.35513" lon="-1.79814">
        <ele>17</ele>
        <time>2026-03-06T19:02:33.000Z</time>
      </trkpt>
      <trkpt lat="43.35507" lon="-1.79816">
        <ele>17</ele>
        <time>2026-03-06T19:02:34.000Z</time>
      </trkpt>
      <trkpt lat="43.35498" lon="-1.79817">
        <ele>16</ele>
        <time>2026-03-06T19:02:35.000Z</time>
      </trkpt>
      <trkpt lat="43.35477" lon="-1.79818">
        <ele>16</ele>
        <time>2026-03-06T19:02:39.000Z</time>
      </trkpt>
      <trkpt lat="43.35464" lon="-1.79818">
        <ele>16</ele>
        <time>2026-03-06T19:02:41.000Z</time>
      </trkpt>
      <trkpt lat="43.35443" lon="-1.79816">
        <ele>16</ele>
        <time>2026-03-06T19:02:45.000Z</time>
      </trkpt>
      <trkpt lat="43.35412" lon="-1.79813">
        <ele>15</ele>
        <time>2026-03-06T19:02:51.000Z</time>
      </trkpt>
      <trkpt lat="43.35365" lon="-1.79804">
        <ele>11</ele>
        <time>2026-03-06T19:02:59.000Z</time>
      </trkpt>
      <trkpt lat="43.35338" lon="-1.798">
        <ele>10</ele>
        <time>2026-03-06T19:03:04.000Z</time>
      </trkpt>
      <trkpt lat="43.3533" lon="-1.79799">
        <ele>9</ele>
        <time>2026-03-06T19:03:05.000Z</time>
      </trkpt>
      <trkpt lat="43.35323" lon="-1.79799">
        <ele>9</ele>
        <time>2026-03-06T19:03:07.000Z</time>
      </trkpt>
      <trkpt lat="43.35316" lon="-1.79799">
        <ele>9</ele>
        <time>2026-03-06T19:03:08.000Z</time>
      </trkpt>
      <trkpt lat="43.35309" lon="-1.798">
        <ele>9</ele>
        <time>2026-03-06T19:03:09.000Z</time>
      </trkpt>
      <trkpt lat="43.35303" lon="-1.79802">
        <ele>8</ele>
        <time>2026-03-06T19:03:10.000Z</time>
      </trkpt>
      <trkpt lat="43.35298" lon="-1.79803">
        <ele>8</ele>
        <time>2026-03-06T19:03:11.000Z</time>
      </trkpt>
      <trkpt lat="43.35291" lon="-1.79806">
        <ele>8</ele>
        <time>2026-03-06T19:03:12.000Z</time>
      </trkpt>
      <trkpt lat="43.35291" lon="-1.79806">
        <ele>8</ele>
        <time>2026-03-06T19:03:12.000Z</time>
      </trkpt>
      <trkpt lat="43.35291" lon="-1.79807">
        <ele>8</ele>
        <time>2026-03-06T19:03:13.000Z</time>
      </trkpt>
      <trkpt lat="43.35291" lon="-1.79808">
        <ele>8</ele>
        <time>2026-03-06T19:03:13.000Z</time>
      </trkpt>
      <trkpt lat="43.35291" lon="-1.79809">
        <ele>8</ele>
        <time>2026-03-06T19:03:13.000Z</time>
      </trkpt>
      <trkpt lat="43.3529" lon="-1.7981">
        <ele>9</ele>
        <time>2026-03-06T19:03:13.000Z</time>
      </trkpt>
      <trkpt lat="43.3529" lon="-1.79811">
        <ele>9</ele>
        <time>2026-03-06T19:03:13.000Z</time>
      </trkpt>
      <trkpt lat="43.35289" lon="-1.79811">
        <ele>9</ele>
        <time>2026-03-06T19:03:13.000Z</time>
      </trkpt>
      <trkpt lat="43.35289" lon="-1.79812">
        <ele>9</ele>
        <time>2026-03-06T19:03:13.000Z</time>
      </trkpt>
      <trkpt lat="43.35288" lon="-1.79812">
        <ele>9</ele>
        <time>2026-03-06T19:03:14.000Z</time>
      </trkpt>
      <trkpt lat="43.35288" lon="-1.79813">
        <ele>9</ele>
        <time>2026-03-06T19:03:14.000Z</time>
      </trkpt>
      <trkpt lat="43.35287" lon="-1.79813">
        <ele>9</ele>
        <time>2026-03-06T19:03:14.000Z</time>
      </trkpt>
      <trkpt lat="43.35286" lon="-1.79813">
        <ele>9</ele>
        <time>2026-03-06T19:03:14.000Z</time>
      </trkpt>
      <trkpt lat="43.35285" lon="-1.79813">
        <ele>8</ele>
        <time>2026-03-06T19:03:14.000Z</time>
      </trkpt>
      <trkpt lat="43.35284" lon="-1.79813">
        <ele>8</ele>
        <time>2026-03-06T19:03:15.000Z</time>
      </trkpt>
      <trkpt lat="43.35283" lon="-1.79813">
        <ele>8</ele>
        <time>2026-03-06T19:03:15.000Z</time>
      </trkpt>
      <trkpt lat="43.35282" lon="-1.79813">
        <ele>8</ele>
        <time>2026-03-06T19:03:15.000Z</time>
      </trkpt>
      <trkpt lat="43.35281" lon="-1.79812">
        <ele>8</ele>
        <time>2026-03-06T19:03:15.000Z</time>
      </trkpt>
      <trkpt lat="43.3528" lon="-1.79812">
        <ele>8</ele>
        <time>2026-03-06T19:03:15.000Z</time>
      </trkpt>
      <trkpt lat="43.3528" lon="-1.79811">
        <ele>8</ele>
        <time>2026-03-06T19:03:15.000Z</time>
      </trkpt>
      <trkpt lat="43.3528" lon="-1.7981">
        <ele>8</ele>
        <time>2026-03-06T19:03:16.000Z</time>
      </trkpt>
      <trkpt lat="43.35279" lon="-1.7981">
        <ele>8</ele>
        <time>2026-03-06T19:03:16.000Z</time>
      </trkpt>
      <trkpt lat="43.35279" lon="-1.79809">
        <ele>8</ele>
        <time>2026-03-06T19:03:16.000Z</time>
      </trkpt>
      <trkpt lat="43.35279" lon="-1.79808">
        <ele>8</ele>
        <time>2026-03-06T19:03:16.000Z</time>
      </trkpt>
      <trkpt lat="43.35278" lon="-1.79808">
        <ele>8</ele>
        <time>2026-03-06T19:03:16.000Z</time>
      </trkpt>
      <trkpt lat="43.35278" lon="-1.79807">
        <ele>7</ele>
        <time>2026-03-06T19:03:16.000Z</time>
      </trkpt>
      <trkpt lat="43.35278" lon="-1.79806">
        <ele>7</ele>
        <time>2026-03-06T19:03:16.000Z</time>
      </trkpt>
      <trkpt lat="43.35278" lon="-1.79805">
        <ele>7</ele>
        <time>2026-03-06T19:03:17.000Z</time>
      </trkpt>
      <trkpt lat="43.35278" lon="-1.79804">
        <ele>7</ele>
        <time>2026-03-06T19:03:17.000Z</time>
      </trkpt>
      <trkpt lat="43.35278" lon="-1.79803">
        <ele>7</ele>
        <time>2026-03-06T19:03:17.000Z</time>
      </trkpt>
      <trkpt lat="43.35279" lon="-1.79803">
        <ele>7</ele>
        <time>2026-03-06T19:03:17.000Z</time>
      </trkpt>
      <trkpt lat="43.35279" lon="-1.79802">
        <ele>7</ele>
        <time>2026-03-06T19:03:17.000Z</time>
      </trkpt>
      <trkpt lat="43.35279" lon="-1.79801">
        <ele>7</ele>
        <time>2026-03-06T19:03:17.000Z</time>
      </trkpt>
      <trkpt lat="43.35279" lon="-1.798">
        <ele>7</ele>
        <time>2026-03-06T19:03:17.000Z</time>
      </trkpt>
      <trkpt lat="43.3528" lon="-1.798">
        <ele>7</ele>
        <time>2026-03-06T19:03:18.000Z</time>
      </trkpt>
      <trkpt lat="43.3528" lon="-1.79799">
        <ele>7</ele>
        <time>2026-03-06T19:03:18.000Z</time>
      </trkpt>
      <trkpt lat="43.3528" lon="-1.79798">
        <ele>7</ele>
        <time>2026-03-06T19:03:18.000Z</time>
      </trkpt>
      <trkpt lat="43.35281" lon="-1.79798">
        <ele>7</ele>
        <time>2026-03-06T19:03:18.000Z</time>
      </trkpt>
      <trkpt lat="43.35281" lon="-1.79797">
        <ele>7</ele>
        <time>2026-03-06T19:03:18.000Z</time>
      </trkpt>
      <trkpt lat="43.35282" lon="-1.79797">
        <ele>7</ele>
        <time>2026-03-06T19:03:18.000Z</time>
      </trkpt>
      <trkpt lat="43.35282" lon="-1.79796">
        <ele>7</ele>
        <time>2026-03-06T19:03:18.000Z</time>
      </trkpt>
      <trkpt lat="43.35283" lon="-1.79796">
        <ele>7</ele>
        <time>2026-03-06T19:03:19.000Z</time>
      </trkpt>
      <trkpt lat="43.35283" lon="-1.79795">
        <ele>7</ele>
        <time>2026-03-06T19:03:19.000Z</time>
      </trkpt>
      <trkpt lat="43.35284" lon="-1.79795">
        <ele>7</ele>
        <time>2026-03-06T19:03:19.000Z</time>
      </trkpt>
      <trkpt lat="43.35285" lon="-1.79795">
        <ele>7</ele>
        <time>2026-03-06T19:03:19.000Z</time>
      </trkpt>
      <trkpt lat="43.35286" lon="-1.79794">
        <ele>7</ele>
        <time>2026-03-06T19:03:19.000Z</time>
      </trkpt>
      <trkpt lat="43.35287" lon="-1.79794">
        <ele>7</ele>
        <time>2026-03-06T19:03:19.000Z</time>
      </trkpt>
      <trkpt lat="43.35287" lon="-1.79795">
        <ele>7</ele>
        <time>2026-03-06T19:03:20.000Z</time>
      </trkpt>
      <trkpt lat="43.35281" lon="-1.79775">
        <ele>5</ele>
        <time>2026-03-06T19:03:22.000Z</time>
      </trkpt>
      <trkpt lat="43.35269" lon="-1.79736">
        <ele>3</ele>
        <time>2026-03-06T19:03:28.000Z</time>
      </trkpt>
      <trkpt lat="43.35263" lon="-1.79717">
        <ele>3</ele>
        <time>2026-03-06T19:03:31.000Z</time>
      </trkpt>
      <trkpt lat="43.35259" lon="-1.79701">
        <ele>3</ele>
        <time>2026-03-06T19:03:33.000Z</time>
      </trkpt>
      <trkpt lat="43.35259" lon="-1.79701">
        <ele>3</ele>
        <time>2026-03-06T19:03:33.000Z</time>
      </trkpt>
      <trkpt lat="43.35254" lon="-1.79694">
        <ele>3</ele>
        <time>2026-03-06T19:03:34.000Z</time>
      </trkpt>
      <trkpt lat="43.35247" lon="-1.79688">
        <ele>3</ele>
        <time>2026-03-06T19:03:35.000Z</time>
      </trkpt>
      <trkpt lat="43.35239" lon="-1.79698">
        <ele>3</ele>
        <time>2026-03-06T19:03:37.000Z</time>
      </trkpt>
      <trkpt lat="43.35209" lon="-1.79735">
        <ele>2</ele>
        <time>2026-03-06T19:03:45.000Z</time>
      </trkpt>
      <trkpt lat="43.35195" lon="-1.79752">
        <ele>2</ele>
        <time>2026-03-06T19:03:48.000Z</time>
      </trkpt>
      <trkpt lat="43.35166" lon="-1.79788">
        <ele>2</ele>
        <time>2026-03-06T19:03:55.000Z</time>
      </trkpt>
      <trkpt lat="43.35138" lon="-1.79822">
        <ele>2</ele>
        <time>2026-03-06T19:04:01.000Z</time>
      </trkpt>
      <trkpt lat="43.351" lon="-1.79864">
        <ele>1</ele>
        <time>2026-03-06T19:04:10.000Z</time>
      </trkpt>
      <trkpt lat="43.35092" lon="-1.79874">
        <ele>1</ele>
        <time>2026-03-06T19:04:12.000Z</time>
      </trkpt>
      <trkpt lat="43.35076" lon="-1.79895">
        <ele>2.5</ele>
        <time>2026-03-06T19:04:16.000Z</time>
      </trkpt>
      <trkpt lat="43.35073" lon="-1.79898">
        <ele>2.4</ele>
        <time>2026-03-06T19:04:17.000Z</time>
      </trkpt>
      <trkpt lat="43.3505" lon="-1.79934">
        <ele>1</ele>
        <time>2026-03-06T19:04:23.000Z</time>
      </trkpt>
      <trkpt lat="43.35047" lon="-1.79938">
        <ele>1</ele>
        <time>2026-03-06T19:04:24.000Z</time>
      </trkpt>
      <trkpt lat="43.35047" lon="-1.79938">
        <ele>1</ele>
        <time>2026-03-06T19:04:24.000Z</time>
      </trkpt>
      <trkpt lat="43.3504" lon="-1.79945">
        <ele>1</ele>
        <time>2026-03-06T19:04:25.000Z</time>
      </trkpt>
      <trkpt lat="43.35032" lon="-1.79952">
        <ele>1</ele>
        <time>2026-03-06T19:04:27.000Z</time>
      </trkpt>
      <trkpt lat="43.35024" lon="-1.79959">
        <ele>2</ele>
        <time>2026-03-06T19:04:29.000Z</time>
      </trkpt>
      <trkpt lat="43.35013" lon="-1.79966">
        <ele>2</ele>
        <time>2026-03-06T19:04:31.000Z</time>
      </trkpt>
      <trkpt lat="43.35008" lon="-1.7997">
        <ele>2</ele>
        <time>2026-03-06T19:04:32.000Z</time>
      </trkpt>
      <trkpt lat="43.34977" lon="-1.79986">
        <ele>3</ele>
        <time>2026-03-06T19:04:38.000Z</time>
      </trkpt>
      <trkpt lat="43.34972" lon="-1.79987">
        <ele>3</ele>
        <time>2026-03-06T19:04:39.000Z</time>
      </trkpt>
      <trkpt lat="43.34964" lon="-1.7999">
        <ele>2</ele>
        <time>2026-03-06T19:04:40.000Z</time>
      </trkpt>
      <trkpt lat="43.3495" lon="-1.79997">
        <ele>2</ele>
        <time>2026-03-06T19:04:43.000Z</time>
      </trkpt>
      <trkpt lat="43.34943" lon="-1.8">
        <ele>2</ele>
        <time>2026-03-06T19:04:44.000Z</time>
      </trkpt>
      <trkpt lat="43.3493" lon="-1.80008">
        <ele>2</ele>
        <time>2026-03-06T19:04:46.000Z</time>
      </trkpt>
      <trkpt lat="43.34922" lon="-1.8001">
        <ele>2</ele>
        <time>2026-03-06T19:04:48.000Z</time>
      </trkpt>
      <trkpt lat="43.34918" lon="-1.80013">
        <ele>2</ele>
        <time>2026-03-06T19:04:49.000Z</time>
      </trkpt>
      <trkpt lat="43.34913" lon="-1.80016">
        <ele>2</ele>
        <time>2026-03-06T19:04:50.000Z</time>
      </trkpt>
      <trkpt lat="43.34901" lon="-1.80022">
        <ele>2</ele>
        <time>2026-03-06T19:04:52.000Z</time>
      </trkpt>
      <trkpt lat="43.3488" lon="-1.80034">
        <ele>2</ele>
        <time>2026-03-06T19:04:56.000Z</time>
      </trkpt>
      <trkpt lat="43.34853" lon="-1.80051">
        <ele>2</ele>
        <time>2026-03-06T19:05:01.000Z</time>
      </trkpt>
      <trkpt lat="43.34782" lon="-1.80095">
        <ele>2</ele>
        <time>2026-03-06T19:05:15.000Z</time>
      </trkpt>
      <trkpt lat="43.34755" lon="-1.8011">
        <ele>2</ele>
        <time>2026-03-06T19:05:20.000Z</time>
      </trkpt>
      <trkpt lat="43.34731" lon="-1.80125">
        <ele>2</ele>
        <time>2026-03-06T19:05:25.000Z</time>
      </trkpt>
      <trkpt lat="43.34718" lon="-1.80133">
        <ele>3</ele>
        <time>2026-03-06T19:05:28.000Z</time>
      </trkpt>
      <trkpt lat="43.34705" lon="-1.8014">
        <ele>3</ele>
        <time>2026-03-06T19:05:30.000Z</time>
      </trkpt>
      <trkpt lat="43.34686" lon="-1.80151">
        <ele>4</ele>
        <time>2026-03-06T19:05:34.000Z</time>
      </trkpt>
      <trkpt lat="43.34674" lon="-1.80158">
        <ele>4</ele>
        <time>2026-03-06T19:05:36.000Z</time>
      </trkpt>
      <trkpt lat="43.34651" lon="-1.80173">
        <ele>5</ele>
        <time>2026-03-06T19:05:41.000Z</time>
      </trkpt>
      <trkpt lat="43.34635" lon="-1.80182">
        <ele>5</ele>
        <time>2026-03-06T19:05:44.000Z</time>
      </trkpt>
      <trkpt lat="43.34628" lon="-1.80185">
        <ele>5</ele>
        <time>2026-03-06T19:05:45.000Z</time>
      </trkpt>
      <trkpt lat="43.34621" lon="-1.80187">
        <ele>6</ele>
        <time>2026-03-06T19:05:46.000Z</time>
      </trkpt>
      <trkpt lat="43.34616" lon="-1.80188">
        <ele>6</ele>
        <time>2026-03-06T19:05:47.000Z</time>
      </trkpt>
      <trkpt lat="43.34611" lon="-1.80189">
        <ele>6</ele>
        <time>2026-03-06T19:05:48.000Z</time>
      </trkpt>
      <trkpt lat="43.34608" lon="-1.80188">
        <ele>6</ele>
        <time>2026-03-06T19:05:49.000Z</time>
      </trkpt>
      <trkpt lat="43.34602" lon="-1.80188">
        <ele>6</ele>
        <time>2026-03-06T19:05:50.000Z</time>
      </trkpt>
      <trkpt lat="43.34601" lon="-1.80188">
        <ele>6</ele>
        <time>2026-03-06T19:05:50.000Z</time>
      </trkpt>
      <trkpt lat="43.34596" lon="-1.80187">
        <ele>6</ele>
        <time>2026-03-06T19:05:51.000Z</time>
      </trkpt>
      <trkpt lat="43.3459" lon="-1.80185">
        <ele>6</ele>
        <time>2026-03-06T19:05:52.000Z</time>
      </trkpt>
      <trkpt lat="43.34587" lon="-1.80183">
        <ele>6</ele>
        <time>2026-03-06T19:05:52.000Z</time>
      </trkpt>
      <trkpt lat="43.34572" lon="-1.80174">
        <ele>6</ele>
        <time>2026-03-06T19:05:55.000Z</time>
      </trkpt>
      <trkpt lat="43.34563" lon="-1.80167">
        <ele>6</ele>
        <time>2026-03-06T19:05:57.000Z</time>
      </trkpt>
      <trkpt lat="43.34555" lon="-1.8016">
        <ele>6</ele>
        <time>2026-03-06T19:05:59.000Z</time>
      </trkpt>
      <trkpt lat="43.34547" lon="-1.80157">
        <ele>6</ele>
        <time>2026-03-06T19:06:00.000Z</time>
      </trkpt>
      <trkpt lat="43.34537" lon="-1.80155">
        <ele>6</ele>
        <time>2026-03-06T19:06:02.000Z</time>
      </trkpt>
      <trkpt lat="43.34534" lon="-1.80154">
        <ele>6</ele>
        <time>2026-03-06T19:06:03.000Z</time>
      </trkpt>
      <trkpt lat="43.34534" lon="-1.80154">
        <ele>6</ele>
        <time>2026-03-06T19:06:03.000Z</time>
      </trkpt>
      <trkpt lat="43.34533" lon="-1.80155">
        <ele>6</ele>
        <time>2026-03-06T19:06:03.000Z</time>
      </trkpt>
      <trkpt lat="43.34532" lon="-1.80156">
        <ele>6</ele>
        <time>2026-03-06T19:06:03.000Z</time>
      </trkpt>
      <trkpt lat="43.34531" lon="-1.80157">
        <ele>6</ele>
        <time>2026-03-06T19:06:03.000Z</time>
      </trkpt>
      <trkpt lat="43.3453" lon="-1.80158">
        <ele>6</ele>
        <time>2026-03-06T19:06:04.000Z</time>
      </trkpt>
      <trkpt lat="43.34528" lon="-1.80158">
        <ele>6</ele>
        <time>2026-03-06T19:06:04.000Z</time>
      </trkpt>
      <trkpt lat="43.34527" lon="-1.80159">
        <ele>6</ele>
        <time>2026-03-06T19:06:04.000Z</time>
      </trkpt>
      <trkpt lat="43.34526" lon="-1.80159">
        <ele>6</ele>
        <time>2026-03-06T19:06:04.000Z</time>
      </trkpt>
      <trkpt lat="43.34525" lon="-1.8016">
        <ele>6</ele>
        <time>2026-03-06T19:06:05.000Z</time>
      </trkpt>
      <trkpt lat="43.34522" lon="-1.8016">
        <ele>6</ele>
        <time>2026-03-06T19:06:05.000Z</time>
      </trkpt>
      <trkpt lat="43.34519" lon="-1.8016">
        <ele>6</ele>
        <time>2026-03-06T19:06:06.000Z</time>
      </trkpt>
      <trkpt lat="43.34516" lon="-1.8016">
        <ele>6</ele>
        <time>2026-03-06T19:06:06.000Z</time>
      </trkpt>
      <trkpt lat="43.34513" lon="-1.80159">
        <ele>6</ele>
        <time>2026-03-06T19:06:07.000Z</time>
      </trkpt>
      <trkpt lat="43.34511" lon="-1.80157">
        <ele>6</ele>
        <time>2026-03-06T19:06:07.000Z</time>
      </trkpt>
      <trkpt lat="43.34508" lon="-1.80155">
        <ele>6</ele>
        <time>2026-03-06T19:06:08.000Z</time>
      </trkpt>
      <trkpt lat="43.34506" lon="-1.80153">
        <ele>6</ele>
        <time>2026-03-06T19:06:08.000Z</time>
      </trkpt>
      <trkpt lat="43.34503" lon="-1.80151">
        <ele>7</ele>
        <time>2026-03-06T19:06:09.000Z</time>
      </trkpt>
      <trkpt lat="43.34502" lon="-1.80148">
        <ele>7</ele>
        <time>2026-03-06T19:06:09.000Z</time>
      </trkpt>
      <trkpt lat="43.345" lon="-1.80146">
        <ele>7</ele>
        <time>2026-03-06T19:06:10.000Z</time>
      </trkpt>
      <trkpt lat="43.34499" lon="-1.80144">
        <ele>7</ele>
        <time>2026-03-06T19:06:10.000Z</time>
      </trkpt>
      <trkpt lat="43.34498" lon="-1.80141">
        <ele>7</ele>
        <time>2026-03-06T19:06:10.000Z</time>
      </trkpt>
      <trkpt lat="43.34497" lon="-1.80138">
        <ele>7</ele>
        <time>2026-03-06T19:06:11.000Z</time>
      </trkpt>
      <trkpt lat="43.34496" lon="-1.80136">
        <ele>7</ele>
        <time>2026-03-06T19:06:11.000Z</time>
      </trkpt>
      <trkpt lat="43.34496" lon="-1.80133">
        <ele>7</ele>
        <time>2026-03-06T19:06:11.000Z</time>
      </trkpt>
      <trkpt lat="43.34495" lon="-1.80131">
        <ele>7</ele>
        <time>2026-03-06T19:06:12.000Z</time>
      </trkpt>
      <trkpt lat="43.34495" lon="-1.80129">
        <ele>8</ele>
        <time>2026-03-06T19:06:12.000Z</time>
      </trkpt>
      <trkpt lat="43.34495" lon="-1.80128">
        <ele>8</ele>
        <time>2026-03-06T19:06:12.000Z</time>
      </trkpt>
      <trkpt lat="43.34495" lon="-1.80126">
        <ele>8</ele>
        <time>2026-03-06T19:06:12.000Z</time>
      </trkpt>
      <trkpt lat="43.34495" lon="-1.80125">
        <ele>8</ele>
        <time>2026-03-06T19:06:13.000Z</time>
      </trkpt>
      <trkpt lat="43.34495" lon="-1.80124">
        <ele>8</ele>
        <time>2026-03-06T19:06:13.000Z</time>
      </trkpt>
      <trkpt lat="43.34495" lon="-1.80123">
        <ele>8</ele>
        <time>2026-03-06T19:06:13.000Z</time>
      </trkpt>
      <trkpt lat="43.34495" lon="-1.80122">
        <ele>8</ele>
        <time>2026-03-06T19:06:13.000Z</time>
      </trkpt>
      <trkpt lat="43.34495" lon="-1.8012">
        <ele>8</ele>
        <time>2026-03-06T19:06:13.000Z</time>
      </trkpt>
      <trkpt lat="43.34495" lon="-1.80119">
        <ele>8</ele>
        <time>2026-03-06T19:06:13.000Z</time>
      </trkpt>
      <trkpt lat="43.34496" lon="-1.80117">
        <ele>8</ele>
        <time>2026-03-06T19:06:14.000Z</time>
      </trkpt>
      <trkpt lat="43.34496" lon="-1.80115">
        <ele>8</ele>
        <time>2026-03-06T19:06:14.000Z</time>
      </trkpt>
      <trkpt lat="43.34496" lon="-1.80113">
        <ele>8</ele>
        <time>2026-03-06T19:06:14.000Z</time>
      </trkpt>
      <trkpt lat="43.34497" lon="-1.80111">
        <ele>8</ele>
        <time>2026-03-06T19:06:14.000Z</time>
      </trkpt>
      <trkpt lat="43.34497" lon="-1.8011">
        <ele>8</ele>
        <time>2026-03-06T19:06:15.000Z</time>
      </trkpt>
      <trkpt lat="43.34498" lon="-1.80108">
        <ele>8</ele>
        <time>2026-03-06T19:06:15.000Z</time>
      </trkpt>
      <trkpt lat="43.34499" lon="-1.80106">
        <ele>8</ele>
        <time>2026-03-06T19:06:15.000Z</time>
      </trkpt>
      <trkpt lat="43.34499" lon="-1.80105">
        <ele>8</ele>
        <time>2026-03-06T19:06:15.000Z</time>
      </trkpt>
      <trkpt lat="43.345" lon="-1.80103">
        <ele>8</ele>
        <time>2026-03-06T19:06:16.000Z</time>
      </trkpt>
      <trkpt lat="43.34501" lon="-1.80102">
        <ele>8</ele>
        <time>2026-03-06T19:06:16.000Z</time>
      </trkpt>
      <trkpt lat="43.34502" lon="-1.80101">
        <ele>8</ele>
        <time>2026-03-06T19:06:16.000Z</time>
      </trkpt>
      <trkpt lat="43.34502" lon="-1.801">
        <ele>8</ele>
        <time>2026-03-06T19:06:16.000Z</time>
      </trkpt>
      <trkpt lat="43.34503" lon="-1.80098">
        <ele>8</ele>
        <time>2026-03-06T19:06:17.000Z</time>
      </trkpt>
      <trkpt lat="43.34504" lon="-1.80097">
        <ele>8</ele>
        <time>2026-03-06T19:06:17.000Z</time>
      </trkpt>
      <trkpt lat="43.34505" lon="-1.80096">
        <ele>8</ele>
        <time>2026-03-06T19:06:17.000Z</time>
      </trkpt>
      <trkpt lat="43.34505" lon="-1.80083">
        <ele>9</ele>
        <time>2026-03-06T19:06:19.000Z</time>
      </trkpt>
      <trkpt lat="43.34504" lon="-1.80074">
        <ele>9</ele>
        <time>2026-03-06T19:06:20.000Z</time>
      </trkpt>
      <trkpt lat="43.34504" lon="-1.80069">
        <ele>9</ele>
        <time>2026-03-06T19:06:21.000Z</time>
      </trkpt>
      <trkpt lat="43.34505" lon="-1.80064">
        <ele>9</ele>
        <time>2026-03-06T19:06:21.000Z</time>
      </trkpt>
      <trkpt lat="43.34506" lon="-1.80057">
        <ele>10</ele>
        <time>2026-03-06T19:06:22.000Z</time>
      </trkpt>
      <trkpt lat="43.34507" lon="-1.80051">
        <ele>10</ele>
        <time>2026-03-06T19:06:23.000Z</time>
      </trkpt>
      <trkpt lat="43.34511" lon="-1.8004">
        <ele>10</ele>
        <time>2026-03-06T19:06:25.000Z</time>
      </trkpt>
      <trkpt lat="43.34515" lon="-1.80024">
        <ele>10</ele>
        <time>2026-03-06T19:06:27.000Z</time>
      </trkpt>
      <trkpt lat="43.34517" lon="-1.80017">
        <ele>10</ele>
        <time>2026-03-06T19:06:28.000Z</time>
      </trkpt>
      <trkpt lat="43.34523" lon="-1.8001">
        <ele>10</ele>
        <time>2026-03-06T19:06:29.000Z</time>
      </trkpt>
      <trkpt lat="43.34526" lon="-1.80008">
        <ele>9</ele>
        <time>2026-03-06T19:06:30.000Z</time>
      </trkpt>
      <trkpt lat="43.3453" lon="-1.80006">
        <ele>9</ele>
        <time>2026-03-06T19:06:30.000Z</time>
      </trkpt>
      <trkpt lat="43.3454" lon="-1.80002">
        <ele>8</ele>
        <time>2026-03-06T19:06:32.000Z</time>
      </trkpt>
      <trkpt lat="43.34545" lon="-1.79999">
        <ele>8</ele>
        <time>2026-03-06T19:06:33.000Z</time>
      </trkpt>
      <trkpt lat="43.34546" lon="-1.79998">
        <ele>8</ele>
        <time>2026-03-06T19:06:33.000Z</time>
      </trkpt>
      <trkpt lat="43.34548" lon="-1.79996">
        <ele>7</ele>
        <time>2026-03-06T19:06:34.000Z</time>
      </trkpt>
      <trkpt lat="43.34551" lon="-1.79993">
        <ele>7</ele>
        <time>2026-03-06T19:06:35.000Z</time>
      </trkpt>
      <trkpt lat="43.34552" lon="-1.79991">
        <ele>7</ele>
        <time>2026-03-06T19:06:35.000Z</time>
      </trkpt>
      <trkpt lat="43.34553" lon="-1.79989">
        <ele>7</ele>
        <time>2026-03-06T19:06:35.000Z</time>
      </trkpt>
      <trkpt lat="43.34554" lon="-1.79986">
        <ele>7</ele>
        <time>2026-03-06T19:06:36.000Z</time>
      </trkpt>
      <trkpt lat="43.34555" lon="-1.79981">
        <ele>7</ele>
        <time>2026-03-06T19:06:36.000Z</time>
      </trkpt>
      <trkpt lat="43.34555" lon="-1.79979">
        <ele>7</ele>
        <time>2026-03-06T19:06:37.000Z</time>
      </trkpt>
      <trkpt lat="43.34555" lon="-1.79977">
        <ele>7</ele>
        <time>2026-03-06T19:06:37.000Z</time>
      </trkpt>
      <trkpt lat="43.34554" lon="-1.79972">
        <ele>7</ele>
        <time>2026-03-06T19:06:37.000Z</time>
      </trkpt>
      <trkpt lat="43.34549" lon="-1.79955">
        <ele>7</ele>
        <time>2026-03-06T19:06:40.000Z</time>
      </trkpt>
      <trkpt lat="43.34546" lon="-1.79942">
        <ele>7</ele>
        <time>2026-03-06T19:06:42.000Z</time>
      </trkpt>
      <trkpt lat="43.34545" lon="-1.79938">
        <ele>8</ele>
        <time>2026-03-06T19:06:42.000Z</time>
      </trkpt>
      <trkpt lat="43.34544" lon="-1.79933">
        <ele>8</ele>
        <time>2026-03-06T19:06:43.000Z</time>
      </trkpt>
      <trkpt lat="43.34545" lon="-1.7993">
        <ele>8</ele>
        <time>2026-03-06T19:06:43.000Z</time>
      </trkpt>
      <trkpt lat="43.34545" lon="-1.79925">
        <ele>8</ele>
        <time>2026-03-06T19:06:44.000Z</time>
      </trkpt>
      <trkpt lat="43.34545" lon="-1.79925">
        <ele>8</ele>
        <time>2026-03-06T19:06:44.000Z</time>
      </trkpt>
      <trkpt lat="43.34544" lon="-1.7992">
        <ele>8</ele>
        <time>2026-03-06T19:06:45.000Z</time>
      </trkpt>
      <trkpt lat="43.34539" lon="-1.79909">
        <ele>8</ele>
        <time>2026-03-06T19:06:46.000Z</time>
      </trkpt>
      <trkpt lat="43.34535" lon="-1.79895">
        <ele>8</ele>
        <time>2026-03-06T19:06:48.000Z</time>
      </trkpt>
      <trkpt lat="43.34534" lon="-1.79893">
        <ele>8</ele>
        <time>2026-03-06T19:06:49.000Z</time>
      </trkpt>
      <trkpt lat="43.34529" lon="-1.79879">
        <ele>8</ele>
        <time>2026-03-06T19:06:51.000Z</time>
      </trkpt>
      <trkpt lat="43.34522" lon="-1.79861">
        <ele>8</ele>
        <time>2026-03-06T19:06:53.000Z</time>
      </trkpt>
      <trkpt lat="43.34517" lon="-1.79849">
        <ele>8</ele>
        <time>2026-03-06T19:06:55.000Z</time>
      </trkpt>
      <trkpt lat="43.34512" lon="-1.79835">
        <ele>8</ele>
        <time>2026-03-06T19:06:57.000Z</time>
      </trkpt>
      <trkpt lat="43.34509" lon="-1.79826">
        <ele>8</ele>
        <time>2026-03-06T19:06:58.000Z</time>
      </trkpt>
      <trkpt lat="43.34506" lon="-1.79816">
        <ele>8</ele>
        <time>2026-03-06T19:07:00.000Z</time>
      </trkpt>
      <trkpt lat="43.34503" lon="-1.79808">
        <ele>8</ele>
        <time>2026-03-06T19:07:01.000Z</time>
      </trkpt>
      <trkpt lat="43.34503" lon="-1.79806">
        <ele>8</ele>
        <time>2026-03-06T19:07:01.000Z</time>
      </trkpt>
      <trkpt lat="43.34501" lon="-1.79797">
        <ele>8</ele>
        <time>2026-03-06T19:07:02.000Z</time>
      </trkpt>
      <trkpt lat="43.34499" lon="-1.7979">
        <ele>8</ele>
        <time>2026-03-06T19:07:03.000Z</time>
      </trkpt>
      <trkpt lat="43.34496" lon="-1.79778">
        <ele>8</ele>
        <time>2026-03-06T19:07:05.000Z</time>
      </trkpt>
      <trkpt lat="43.34494" lon="-1.79765">
        <ele>8</ele>
        <time>2026-03-06T19:07:07.000Z</time>
      </trkpt>
      <trkpt lat="43.34493" lon="-1.79754">
        <ele>8</ele>
        <time>2026-03-06T19:07:08.000Z</time>
      </trkpt>
      <trkpt lat="43.34491" lon="-1.79743">
        <ele>8</ele>
        <time>2026-03-06T19:07:10.000Z</time>
      </trkpt>
      <trkpt lat="43.3449" lon="-1.79727">
        <ele>7</ele>
        <time>2026-03-06T19:07:12.000Z</time>
      </trkpt>
      <trkpt lat="43.34489" lon="-1.79723">
        <ele>7</ele>
        <time>2026-03-06T19:07:12.000Z</time>
      </trkpt>
      <trkpt lat="43.34489" lon="-1.79716">
        <ele>7</ele>
        <time>2026-03-06T19:07:13.000Z</time>
      </trkpt>
      <trkpt lat="43.34489" lon="-1.79705">
        <ele>7</ele>
        <time>2026-03-06T19:07:14.000Z</time>
      </trkpt>
      <trkpt lat="43.34489" lon="-1.79692">
        <ele>7</ele>
        <time>2026-03-06T19:07:16.000Z</time>
      </trkpt>
      <trkpt lat="43.34489" lon="-1.79682">
        <ele>7</ele>
        <time>2026-03-06T19:07:17.000Z</time>
      </trkpt>
      <trkpt lat="43.34491" lon="-1.79661">
        <ele>7</ele>
        <time>2026-03-06T19:07:20.000Z</time>
      </trkpt>
      <trkpt lat="43.34491" lon="-1.79651">
        <ele>7</ele>
        <time>2026-03-06T19:07:22.000Z</time>
      </trkpt>
      <trkpt lat="43.34493" lon="-1.79638">
        <ele>7</ele>
        <time>2026-03-06T19:07:23.000Z</time>
      </trkpt>
      <trkpt lat="43.34493" lon="-1.7963">
        <ele>7</ele>
        <time>2026-03-06T19:07:24.000Z</time>
      </trkpt>
      <trkpt lat="43.34495" lon="-1.79618">
        <ele>7</ele>
        <time>2026-03-06T19:07:26.000Z</time>
      </trkpt>
      <trkpt lat="43.34495" lon="-1.79617">
        <ele>7</ele>
        <time>2026-03-06T19:07:26.000Z</time>
      </trkpt>
      <trkpt lat="43.34497" lon="-1.79604">
        <ele>7</ele>
        <time>2026-03-06T19:07:28.000Z</time>
      </trkpt>
      <trkpt lat="43.34503" lon="-1.79551">
        <ele>9</ele>
        <time>2026-03-06T19:07:35.000Z</time>
      </trkpt>
      <trkpt lat="43.34505" lon="-1.79536">
        <ele>10</ele>
        <time>2026-03-06T19:07:37.000Z</time>
      </trkpt>
      <trkpt lat="43.3451" lon="-1.795">
        <ele>12</ele>
        <time>2026-03-06T19:07:41.000Z</time>
      </trkpt>
      <trkpt lat="43.34513" lon="-1.79481">
        <ele>11</ele>
        <time>2026-03-06T19:07:44.000Z</time>
      </trkpt>
      <trkpt lat="43.34514" lon="-1.79474">
        <ele>11</ele>
        <time>2026-03-06T19:07:45.000Z</time>
      </trkpt>
      <trkpt lat="43.34515" lon="-1.79461">
        <ele>11</ele>
        <time>2026-03-06T19:07:46.000Z</time>
      </trkpt>
      <trkpt lat="43.34515" lon="-1.79446">
        <ele>11</ele>
        <time>2026-03-06T19:07:48.000Z</time>
      </trkpt>
      <trkpt lat="43.34515" lon="-1.79431">
        <ele>10</ele>
        <time>2026-03-06T19:07:50.000Z</time>
      </trkpt>
      <trkpt lat="43.34515" lon="-1.79416">
        <ele>10</ele>
        <time>2026-03-06T19:07:52.000Z</time>
      </trkpt>
      <trkpt lat="43.34514" lon="-1.79405">
        <ele>10</ele>
        <time>2026-03-06T19:07:54.000Z</time>
      </trkpt>
      <trkpt lat="43.34512" lon="-1.79397">
        <ele>10</ele>
        <time>2026-03-06T19:07:55.000Z</time>
      </trkpt>
      <trkpt lat="43.34509" lon="-1.79384">
        <ele>10</ele>
        <time>2026-03-06T19:07:57.000Z</time>
      </trkpt>
      <trkpt lat="43.34506" lon="-1.79375">
        <ele>9</ele>
        <time>2026-03-06T19:07:58.000Z</time>
      </trkpt>
      <trkpt lat="43.34502" lon="-1.79368">
        <ele>9</ele>
        <time>2026-03-06T19:07:59.000Z</time>
      </trkpt>
      <trkpt lat="43.34498" lon="-1.79358">
        <ele>9</ele>
        <time>2026-03-06T19:08:01.000Z</time>
      </trkpt>
      <trkpt lat="43.34493" lon="-1.7935">
        <ele>9</ele>
        <time>2026-03-06T19:08:02.000Z</time>
      </trkpt>
      <trkpt lat="43.34482" lon="-1.79335">
        <ele>10</ele>
        <time>2026-03-06T19:08:05.000Z</time>
      </trkpt>
      <trkpt lat="43.34474" lon="-1.79325">
        <ele>11</ele>
        <time>2026-03-06T19:08:07.000Z</time>
      </trkpt>
      <trkpt lat="43.34464" lon="-1.79313">
        <ele>12</ele>
        <time>2026-03-06T19:08:09.000Z</time>
      </trkpt>
      <trkpt lat="43.34452" lon="-1.79297">
        <ele>14</ele>
        <time>2026-03-06T19:08:12.000Z</time>
      </trkpt>
      <trkpt lat="43.34443" lon="-1.79285">
        <ele>15</ele>
        <time>2026-03-06T19:08:14.000Z</time>
      </trkpt>
      <trkpt lat="43.34439" lon="-1.79276">
        <ele>16</ele>
        <time>2026-03-06T19:08:15.000Z</time>
      </trkpt>
      <trkpt lat="43.34434" lon="-1.79265">
        <ele>17</ele>
        <time>2026-03-06T19:08:17.000Z</time>
      </trkpt>
      <trkpt lat="43.34425" lon="-1.79241">
        <ele>18</ele>
        <time>2026-03-06T19:08:21.000Z</time>
      </trkpt>
      <trkpt lat="43.34422" lon="-1.79229">
        <ele>18</ele>
        <time>2026-03-06T19:08:22.000Z</time>
      </trkpt>
      <trkpt lat="43.34416" lon="-1.79208">
        <ele>18</ele>
        <time>2026-03-06T19:08:25.000Z</time>
      </trkpt>
      <trkpt lat="43.34413" lon="-1.79191">
        <ele>17</ele>
        <time>2026-03-06T19:08:27.000Z</time>
      </trkpt>
      <trkpt lat="43.34409" lon="-1.79177">
        <ele>17</ele>
        <time>2026-03-06T19:08:29.000Z</time>
      </trkpt>
      <trkpt lat="43.34407" lon="-1.79021">
        <ele>12</ele>
        <time>2026-03-06T19:08:50.000Z</time>
      </trkpt>
      <trkpt lat="43.34405" lon="-1.78943">
        <ele>10</ele>
        <time>2026-03-06T19:09:00.000Z</time>
      </trkpt>
      <trkpt lat="43.34401" lon="-1.78886">
        <ele>7</ele>
        <time>2026-03-06T19:09:07.000Z</time>
      </trkpt>
      <trkpt lat="43.344" lon="-1.78868">
        <ele>6</ele>
        <time>2026-03-06T19:09:09.000Z</time>
      </trkpt>
      <trkpt lat="43.344" lon="-1.78866">
        <ele>6</ele>
        <time>2026-03-06T19:09:10.000Z</time>
      </trkpt>
      <trkpt lat="43.34399" lon="-1.7885">
        <ele>5</ele>
        <time>2026-03-06T19:09:12.000Z</time>
      </trkpt>
      <trkpt lat="43.34393" lon="-1.78817">
        <ele>4</ele>
        <time>2026-03-06T19:09:16.000Z</time>
      </trkpt>
      <trkpt lat="43.34387" lon="-1.78783">
        <ele>4</ele>
        <time>2026-03-06T19:09:21.000Z</time>
      </trkpt>
      <trkpt lat="43.34386" lon="-1.7878">
        <ele>4</ele>
        <time>2026-03-06T19:09:21.000Z</time>
      </trkpt>
      <trkpt lat="43.34381" lon="-1.78754">
        <ele>4</ele>
        <time>2026-03-06T19:09:25.000Z</time>
      </trkpt>
      <trkpt lat="43.34373" lon="-1.78726">
        <ele>4</ele>
        <time>2026-03-06T19:09:29.000Z</time>
      </trkpt>
      <trkpt lat="43.34364" lon="-1.78699">
        <ele>3</ele>
        <time>2026-03-06T19:09:32.000Z</time>
      </trkpt>
      <trkpt lat="43.34359" lon="-1.78686">
        <ele>3</ele>
        <time>2026-03-06T19:09:34.000Z</time>
      </trkpt>
      <trkpt lat="43.34352" lon="-1.7867">
        <ele>3</ele>
        <time>2026-03-06T19:09:37.000Z</time>
      </trkpt>
      <trkpt lat="43.34345" lon="-1.78655">
        <ele>3</ele>
        <time>2026-03-06T19:09:39.000Z</time>
      </trkpt>
      <trkpt lat="43.34332" lon="-1.78628">
        <ele>2</ele>
        <time>2026-03-06T19:09:43.000Z</time>
      </trkpt>
      <trkpt lat="43.3432" lon="-1.786">
        <ele>2</ele>
        <time>2026-03-06T19:09:47.000Z</time>
      </trkpt>
      <trkpt lat="43.34319" lon="-1.78596">
        <ele>2</ele>
        <time>2026-03-06T19:09:48.000Z</time>
      </trkpt>
      <trkpt lat="43.34313" lon="-1.78585">
        <ele>2</ele>
        <time>2026-03-06T19:09:50.000Z</time>
      </trkpt>
      <trkpt lat="43.34304" lon="-1.78563">
        <ele>2</ele>
        <time>2026-03-06T19:09:53.000Z</time>
      </trkpt>
      <trkpt lat="43.343" lon="-1.78554">
        <ele>2</ele>
        <time>2026-03-06T19:09:54.000Z</time>
      </trkpt>
      <trkpt lat="43.34297" lon="-1.78549">
        <ele>2</ele>
        <time>2026-03-06T19:09:55.000Z</time>
      </trkpt>
      <trkpt lat="43.34283" lon="-1.78518">
        <ele>2</ele>
        <time>2026-03-06T19:10:00.000Z</time>
      </trkpt>
      <trkpt lat="43.34247" lon="-1.78445">
        <ele>1</ele>
        <time>2026-03-06T19:10:11.000Z</time>
      </trkpt>
      <trkpt lat="43.3422" lon="-1.78395">
        <ele>2</ele>
        <time>2026-03-06T19:10:19.000Z</time>
      </trkpt>
      <trkpt lat="43.34183" lon="-1.78325">
        <ele>4</ele>
        <time>2026-03-06T19:10:31.000Z</time>
      </trkpt>
      <trkpt lat="43.34164" lon="-1.78285">
        <ele>4</ele>
        <time>2026-03-06T19:10:37.000Z</time>
      </trkpt>
      <trkpt lat="43.34144" lon="-1.78239">
        <ele>3</ele>
        <time>2026-03-06T19:10:44.000Z</time>
      </trkpt>
      <trkpt lat="43.34124" lon="-1.78194">
        <ele>2</ele>
        <time>2026-03-06T19:10:51.000Z</time>
      </trkpt>
      <trkpt lat="43.34106" lon="-1.78156">
        <ele>1</ele>
        <time>2026-03-06T19:10:56.000Z</time>
      </trkpt>
      <trkpt lat="43.341" lon="-1.78144">
        <ele>1</ele>
        <time>2026-03-06T19:10:58.000Z</time>
      </trkpt>
      <trkpt lat="43.3409" lon="-1.78128">
        <ele>1</ele>
        <time>2026-03-06T19:11:01.000Z</time>
      </trkpt>
      <trkpt lat="43.34087" lon="-1.78124">
        <ele>1</ele>
        <time>2026-03-06T19:11:02.000Z</time>
      </trkpt>
      <trkpt lat="43.34084" lon="-1.7812">
        <ele>2</ele>
        <time>2026-03-06T19:11:02.000Z</time>
      </trkpt>
      <trkpt lat="43.34082" lon="-1.78118">
        <ele>2</ele>
        <time>2026-03-06T19:11:03.000Z</time>
      </trkpt>
      <trkpt lat="43.34072" lon="-1.78108">
        <ele>2</ele>
        <time>2026-03-06T19:11:05.000Z</time>
      </trkpt>
      <trkpt lat="43.34065" lon="-1.78101">
        <ele>2</ele>
        <time>2026-03-06T19:11:07.000Z</time>
      </trkpt>
      <trkpt lat="43.3406" lon="-1.78095">
        <ele>2</ele>
        <time>2026-03-06T19:11:08.000Z</time>
      </trkpt>
      <trkpt lat="43.3406" lon="-1.78095">
        <ele>2</ele>
        <time>2026-03-06T19:11:08.000Z</time>
      </trkpt>
      <trkpt lat="43.34059" lon="-1.78095">
        <ele>2</ele>
        <time>2026-03-06T19:11:08.000Z</time>
      </trkpt>
      <trkpt lat="43.34058" lon="-1.78095">
        <ele>2</ele>
        <time>2026-03-06T19:11:08.000Z</time>
      </trkpt>
      <trkpt lat="43.34057" lon="-1.78095">
        <ele>2</ele>
        <time>2026-03-06T19:11:08.000Z</time>
      </trkpt>
      <trkpt lat="43.34056" lon="-1.78095">
        <ele>2</ele>
        <time>2026-03-06T19:11:09.000Z</time>
      </trkpt>
      <trkpt lat="43.34055" lon="-1.78095">
        <ele>2</ele>
        <time>2026-03-06T19:11:09.000Z</time>
      </trkpt>
      <trkpt lat="43.34054" lon="-1.78095">
        <ele>2</ele>
        <time>2026-03-06T19:11:09.000Z</time>
      </trkpt>
      <trkpt lat="43.34053" lon="-1.78094">
        <ele>2</ele>
        <time>2026-03-06T19:11:09.000Z</time>
      </trkpt>
      <trkpt lat="43.34052" lon="-1.78094">
        <ele>2</ele>
        <time>2026-03-06T19:11:09.000Z</time>
      </trkpt>
      <trkpt lat="43.34049" lon="-1.78092">
        <ele>2</ele>
        <time>2026-03-06T19:11:10.000Z</time>
      </trkpt>
      <trkpt lat="43.34046" lon="-1.7809">
        <ele>2</ele>
        <time>2026-03-06T19:11:11.000Z</time>
      </trkpt>
      <trkpt lat="43.34044" lon="-1.78087">
        <ele>2</ele>
        <time>2026-03-06T19:11:11.000Z</time>
      </trkpt>
      <trkpt lat="43.34041" lon="-1.78084">
        <ele>3</ele>
        <time>2026-03-06T19:11:12.000Z</time>
      </trkpt>
      <trkpt lat="43.34039" lon="-1.7808">
        <ele>3</ele>
        <time>2026-03-06T19:11:12.000Z</time>
      </trkpt>
      <trkpt lat="43.34037" lon="-1.78076">
        <ele>3</ele>
        <time>2026-03-06T19:11:13.000Z</time>
      </trkpt>
      <trkpt lat="43.34036" lon="-1.78072">
        <ele>3</ele>
        <time>2026-03-06T19:11:14.000Z</time>
      </trkpt>
      <trkpt lat="43.34035" lon="-1.78068">
        <ele>3</ele>
        <time>2026-03-06T19:11:14.000Z</time>
      </trkpt>
      <trkpt lat="43.34034" lon="-1.78064">
        <ele>2</ele>
        <time>2026-03-06T19:11:15.000Z</time>
      </trkpt>
      <trkpt lat="43.34034" lon="-1.78061">
        <ele>2</ele>
        <time>2026-03-06T19:11:15.000Z</time>
      </trkpt>
      <trkpt lat="43.34034" lon="-1.78058">
        <ele>2</ele>
        <time>2026-03-06T19:11:15.000Z</time>
      </trkpt>
      <trkpt lat="43.34034" lon="-1.78054">
        <ele>2</ele>
        <time>2026-03-06T19:11:16.000Z</time>
      </trkpt>
      <trkpt lat="43.34034" lon="-1.78051">
        <ele>2</ele>
        <time>2026-03-06T19:11:16.000Z</time>
      </trkpt>
      <trkpt lat="43.34035" lon="-1.78048">
        <ele>2</ele>
        <time>2026-03-06T19:11:17.000Z</time>
      </trkpt>
      <trkpt lat="43.34035" lon="-1.78044">
        <ele>2</ele>
        <time>2026-03-06T19:11:17.000Z</time>
      </trkpt>
      <trkpt lat="43.34036" lon="-1.78041">
        <ele>2</ele>
        <time>2026-03-06T19:11:18.000Z</time>
      </trkpt>
      <trkpt lat="43.34038" lon="-1.78038">
        <ele>2</ele>
        <time>2026-03-06T19:11:18.000Z</time>
      </trkpt>
      <trkpt lat="43.34039" lon="-1.78035">
        <ele>2</ele>
        <time>2026-03-06T19:11:19.000Z</time>
      </trkpt>
      <trkpt lat="43.34041" lon="-1.78032">
        <ele>2</ele>
        <time>2026-03-06T19:11:19.000Z</time>
      </trkpt>
      <trkpt lat="43.34043" lon="-1.78029">
        <ele>2</ele>
        <time>2026-03-06T19:11:20.000Z</time>
      </trkpt>
      <trkpt lat="43.34045" lon="-1.78027">
        <ele>2</ele>
        <time>2026-03-06T19:11:20.000Z</time>
      </trkpt>
      <trkpt lat="43.34045" lon="-1.78026">
        <ele>2</ele>
        <time>2026-03-06T19:11:20.000Z</time>
      </trkpt>
      <trkpt lat="43.34047" lon="-1.78024">
        <ele>2</ele>
        <time>2026-03-06T19:11:21.000Z</time>
      </trkpt>
      <trkpt lat="43.34049" lon="-1.78022">
        <ele>2</ele>
        <time>2026-03-06T19:11:21.000Z</time>
      </trkpt>
      <trkpt lat="43.34051" lon="-1.7802">
        <ele>2</ele>
        <time>2026-03-06T19:11:22.000Z</time>
      </trkpt>
      <trkpt lat="43.34055" lon="-1.78007">
        <ele>2</ele>
        <time>2026-03-06T19:11:23.000Z</time>
      </trkpt>
      <trkpt lat="43.34059" lon="-1.77993">
        <ele>2</ele>
        <time>2026-03-06T19:11:25.000Z</time>
      </trkpt>
      <trkpt lat="43.34061" lon="-1.77984">
        <ele>2</ele>
        <time>2026-03-06T19:11:27.000Z</time>
      </trkpt>
      <trkpt lat="43.34062" lon="-1.77977">
        <ele>2</ele>
        <time>2026-03-06T19:11:27.000Z</time>
      </trkpt>
      <trkpt lat="43.34063" lon="-1.77959">
        <ele>2</ele>
        <time>2026-03-06T19:11:30.000Z</time>
      </trkpt>
      <trkpt lat="43.34064" lon="-1.77938">
        <ele>2</ele>
        <time>2026-03-06T19:11:33.000Z</time>
      </trkpt>
      <trkpt lat="43.34065" lon="-1.77913">
        <ele>2</ele>
        <time>2026-03-06T19:11:36.000Z</time>
      </trkpt>
      <trkpt lat="43.34067" lon="-1.77887">
        <ele>2</ele>
        <time>2026-03-06T19:11:39.000Z</time>
      </trkpt>
      <trkpt lat="43.34069" lon="-1.77865">
        <ele>3</ele>
        <time>2026-03-06T19:11:42.000Z</time>
      </trkpt>
      <trkpt lat="43.34071" lon="-1.77839">
        <ele>3</ele>
        <time>2026-03-06T19:11:45.000Z</time>
      </trkpt>
      <trkpt lat="43.34074" lon="-1.77808">
        <ele>4</ele>
        <time>2026-03-06T19:11:49.000Z</time>
      </trkpt>
      <trkpt lat="43.34076" lon="-1.77775">
        <ele>6</ele>
        <time>2026-03-06T19:11:54.000Z</time>
      </trkpt>
      <trkpt lat="43.34077" lon="-1.77757">
        <ele>6</ele>
        <time>2026-03-06T19:11:56.000Z</time>
      </trkpt>
      <trkpt lat="43.34078" lon="-1.77743">
        <ele>7</ele>
        <time>2026-03-06T19:11:58.000Z</time>
      </trkpt>
      <trkpt lat="43.3408" lon="-1.7773">
        <ele>8</ele>
        <time>2026-03-06T19:12:00.000Z</time>
      </trkpt>
      <trkpt lat="43.34082" lon="-1.77719">
        <ele>9</ele>
        <time>2026-03-06T19:12:01.000Z</time>
      </trkpt>
      <trkpt lat="43.3409" lon="-1.77705">
        <ele>9</ele>
        <time>2026-03-06T19:12:03.000Z</time>
      </trkpt>
      <trkpt lat="43.34118" lon="-1.77633">
        <ele>10</ele>
        <time>2026-03-06T19:12:14.000Z</time>
      </trkpt>
      <trkpt lat="43.3413" lon="-1.77602">
        <ele>10</ele>
        <time>2026-03-06T19:12:18.000Z</time>
      </trkpt>
      <trkpt lat="43.34136" lon="-1.77584">
        <ele>9</ele>
        <time>2026-03-06T19:12:21.000Z</time>
      </trkpt>
      <trkpt lat="43.34142" lon="-1.77568">
        <ele>9</ele>
        <time>2026-03-06T19:12:23.000Z</time>
      </trkpt>
      <trkpt lat="43.34146" lon="-1.77555">
        <ele>9</ele>
        <time>2026-03-06T19:12:25.000Z</time>
      </trkpt>
      <trkpt lat="43.34152" lon="-1.77534">
        <ele>9</ele>
        <time>2026-03-06T19:12:28.000Z</time>
      </trkpt>
      <trkpt lat="43.34155" lon="-1.77523">
        <ele>8</ele>
        <time>2026-03-06T19:12:30.000Z</time>
      </trkpt>
      <trkpt lat="43.34159" lon="-1.77506">
        <ele>8</ele>
        <time>2026-03-06T19:12:32.000Z</time>
      </trkpt>
      <trkpt lat="43.34162" lon="-1.77491">
        <ele>8</ele>
        <time>2026-03-06T19:12:34.000Z</time>
      </trkpt>
      <trkpt lat="43.34164" lon="-1.77476">
        <ele>8</ele>
        <time>2026-03-06T19:12:36.000Z</time>
      </trkpt>
      <trkpt lat="43.34166" lon="-1.77455">
        <ele>9</ele>
        <time>2026-03-06T19:12:39.000Z</time>
      </trkpt>
      <trkpt lat="43.34167" lon="-1.77443">
        <ele>9</ele>
        <time>2026-03-06T19:12:40.000Z</time>
      </trkpt>
      <trkpt lat="43.34168" lon="-1.77401">
        <ele>11</ele>
        <time>2026-03-06T19:12:46.000Z</time>
      </trkpt>
      <trkpt lat="43.34168" lon="-1.77386">
        <ele>11</ele>
        <time>2026-03-06T19:12:48.000Z</time>
      </trkpt>
      <trkpt lat="43.34164" lon="-1.77255">
        <ele>9</ele>
        <time>2026-03-06T19:13:05.000Z</time>
      </trkpt>
      <trkpt lat="43.34161" lon="-1.77225">
        <ele>8</ele>
        <time>2026-03-06T19:13:09.000Z</time>
      </trkpt>
      <trkpt lat="43.34161" lon="-1.77201">
        <ele>7</ele>
        <time>2026-03-06T19:13:12.000Z</time>
      </trkpt>
      <trkpt lat="43.34161" lon="-1.77189">
        <ele>7</ele>
        <time>2026-03-06T19:13:13.000Z</time>
      </trkpt>
      <trkpt lat="43.34162" lon="-1.7718">
        <ele>6</ele>
        <time>2026-03-06T19:13:14.000Z</time>
      </trkpt>
      <trkpt lat="43.34163" lon="-1.7717">
        <ele>5</ele>
        <time>2026-03-06T19:13:16.000Z</time>
      </trkpt>
      <trkpt lat="43.34165" lon="-1.77145">
        <ele>5</ele>
        <time>2026-03-06T19:13:19.000Z</time>
      </trkpt>
      <trkpt lat="43.34168" lon="-1.771">
        <ele>6</ele>
        <time>2026-03-06T19:13:25.000Z</time>
      </trkpt>
      <trkpt lat="43.34186" lon="-1.76854">
        <ele>11</ele>
        <time>2026-03-06T19:13:57.000Z</time>
      </trkpt>
      <trkpt lat="43.34188" lon="-1.76834">
        <ele>11</ele>
        <time>2026-03-06T19:13:59.000Z</time>
      </trkpt>
      <trkpt lat="43.3419" lon="-1.76819">
        <ele>12</ele>
        <time>2026-03-06T19:14:01.000Z</time>
      </trkpt>
      <trkpt lat="43.34205" lon="-1.76698">
        <ele>12</ele>
        <time>2026-03-06T19:14:17.000Z</time>
      </trkpt>
      <trkpt lat="43.34216" lon="-1.76612">
        <ele>9</ele>
        <time>2026-03-06T19:14:29.000Z</time>
      </trkpt>
      <trkpt lat="43.34233" lon="-1.76505">
        <ele>5</ele>
        <time>2026-03-06T19:14:43.000Z</time>
      </trkpt>
      <trkpt lat="43.34239" lon="-1.76467">
        <ele>5</ele>
        <time>2026-03-06T19:14:48.000Z</time>
      </trkpt>
      <trkpt lat="43.34238" lon="-1.76462">
        <ele>5</ele>
        <time>2026-03-06T19:14:48.000Z</time>
      </trkpt>
      <trkpt lat="43.34256" lon="-1.76343">
        <ele>4</ele>
        <time>2026-03-06T19:15:04.000Z</time>
      </trkpt>
      <trkpt lat="43.34261" lon="-1.76317">
        <ele>4</ele>
        <time>2026-03-06T19:15:08.000Z</time>
      </trkpt>
      <trkpt lat="43.34262" lon="-1.763">
        <ele>4</ele>
        <time>2026-03-06T19:15:10.000Z</time>
      </trkpt>
      <trkpt lat="43.34263" lon="-1.76292">
        <ele>4</ele>
        <time>2026-03-06T19:15:11.000Z</time>
      </trkpt>
      <trkpt lat="43.34263" lon="-1.76279">
        <ele>4</ele>
        <time>2026-03-06T19:15:13.000Z</time>
      </trkpt>
      <trkpt lat="43.3426" lon="-1.7625">
        <ele>4</ele>
        <time>2026-03-06T19:15:16.000Z</time>
      </trkpt>
      <trkpt lat="43.34259" lon="-1.76241">
        <ele>4</ele>
        <time>2026-03-06T19:15:18.000Z</time>
      </trkpt>
      <trkpt lat="43.34256" lon="-1.7623">
        <ele>4</ele>
        <time>2026-03-06T19:15:19.000Z</time>
      </trkpt>
      <trkpt lat="43.34251" lon="-1.76209">
        <ele>4</ele>
        <time>2026-03-06T19:15:22.000Z</time>
      </trkpt>
      <trkpt lat="43.34243" lon="-1.76175">
        <ele>3</ele>
        <time>2026-03-06T19:15:27.000Z</time>
      </trkpt>
      <trkpt lat="43.34241" lon="-1.76168">
        <ele>3</ele>
        <time>2026-03-06T19:15:27.000Z</time>
      </trkpt>
      <trkpt lat="43.34231" lon="-1.76125">
        <ele>3</ele>
        <time>2026-03-06T19:15:33.000Z</time>
      </trkpt>
      <trkpt lat="43.34231" lon="-1.76107">
        <ele>3</ele>
        <time>2026-03-06T19:15:36.000Z</time>
      </trkpt>
      <trkpt lat="43.34233" lon="-1.76082">
        <ele>2</ele>
        <time>2026-03-06T19:15:39.000Z</time>
      </trkpt>
      <trkpt lat="43.34234" lon="-1.7607">
        <ele>2</ele>
        <time>2026-03-06T19:15:40.000Z</time>
      </trkpt>
      <trkpt lat="43.34234" lon="-1.76058">
        <ele>2</ele>
        <time>2026-03-06T19:15:42.000Z</time>
      </trkpt>
      <trkpt lat="43.34232" lon="-1.76045">
        <ele>2</ele>
        <time>2026-03-06T19:15:44.000Z</time>
      </trkpt>
      <trkpt lat="43.3423" lon="-1.76032">
        <ele>2</ele>
        <time>2026-03-06T19:15:45.000Z</time>
      </trkpt>
      <trkpt lat="43.3423" lon="-1.76032">
        <ele>2</ele>
        <time>2026-03-06T19:15:45.000Z</time>
      </trkpt>
      <trkpt lat="43.34226" lon="-1.76025">
        <ele>3</ele>
        <time>2026-03-06T19:15:47.000Z</time>
      </trkpt>
      <trkpt lat="43.34224" lon="-1.76023">
        <ele>3</ele>
        <time>2026-03-06T19:15:47.000Z</time>
      </trkpt>
      <trkpt lat="43.34223" lon="-1.76019">
        <ele>3</ele>
        <time>2026-03-06T19:15:48.000Z</time>
      </trkpt>
      <trkpt lat="43.34222" lon="-1.76016">
        <ele>3</ele>
        <time>2026-03-06T19:15:48.000Z</time>
      </trkpt>
      <trkpt lat="43.34221" lon="-1.76012">
        <ele>3</ele>
        <time>2026-03-06T19:15:49.000Z</time>
      </trkpt>
      <trkpt lat="43.3422" lon="-1.76009">
        <ele>3</ele>
        <time>2026-03-06T19:15:49.000Z</time>
      </trkpt>
      <trkpt lat="43.3422" lon="-1.76005">
        <ele>3</ele>
        <time>2026-03-06T19:15:50.000Z</time>
      </trkpt>
      <trkpt lat="43.3422" lon="-1.76004">
        <ele>3</ele>
        <time>2026-03-06T19:15:50.000Z</time>
      </trkpt>
      <trkpt lat="43.34197" lon="-1.75979">
        <ele>3</ele>
        <time>2026-03-06T19:15:55.000Z</time>
      </trkpt>
      <trkpt lat="43.34191" lon="-1.75971">
        <ele>3</ele>
        <time>2026-03-06T19:15:56.000Z</time>
      </trkpt>
      <trkpt lat="43.34183" lon="-1.7596">
        <ele>3</ele>
        <time>2026-03-06T19:15:58.000Z</time>
      </trkpt>
      <trkpt lat="43.34173" lon="-1.75944">
        <ele>3</ele>
        <time>2026-03-06T19:16:01.000Z</time>
      </trkpt>
      <trkpt lat="43.34165" lon="-1.75929">
        <ele>3</ele>
        <time>2026-03-06T19:16:04.000Z</time>
      </trkpt>
      <trkpt lat="43.34155" lon="-1.75914">
        <ele>4</ele>
        <time>2026-03-06T19:16:06.000Z</time>
      </trkpt>
      <trkpt lat="43.34146" lon="-1.75903">
        <ele>5</ele>
        <time>2026-03-06T19:16:08.000Z</time>
      </trkpt>
      <trkpt lat="43.34128" lon="-1.75886">
        <ele>6</ele>
        <time>2026-03-06T19:16:12.000Z</time>
      </trkpt>
      <trkpt lat="43.34116" lon="-1.75878">
        <ele>7</ele>
        <time>2026-03-06T19:16:15.000Z</time>
      </trkpt>
      <trkpt lat="43.34116" lon="-1.75878">
        <ele>7</ele>
        <time>2026-03-06T19:16:15.000Z</time>
      </trkpt>
      <trkpt lat="43.34113" lon="-1.75881">
        <ele>7</ele>
        <time>2026-03-06T19:16:15.000Z</time>
      </trkpt>
      <trkpt lat="43.34111" lon="-1.75883">
        <ele>7</ele>
        <time>2026-03-06T19:16:16.000Z</time>
      </trkpt>
      <trkpt lat="43.34109" lon="-1.75884">
        <ele>8</ele>
        <time>2026-03-06T19:16:16.000Z</time>
      </trkpt>
      <trkpt lat="43.34108" lon="-1.75885">
        <ele>8</ele>
        <time>2026-03-06T19:16:16.000Z</time>
      </trkpt>
      <trkpt lat="43.34106" lon="-1.75885">
        <ele>8</ele>
        <time>2026-03-06T19:16:17.000Z</time>
      </trkpt>
      <trkpt lat="43.34104" lon="-1.75886">
        <ele>8</ele>
        <time>2026-03-06T19:16:17.000Z</time>
      </trkpt>
      <trkpt lat="43.34102" lon="-1.75886">
        <ele>8</ele>
        <time>2026-03-06T19:16:17.000Z</time>
      </trkpt>
      <trkpt lat="43.341" lon="-1.75886">
        <ele>8</ele>
        <time>2026-03-06T19:16:18.000Z</time>
      </trkpt>
      <trkpt lat="43.34098" lon="-1.75886">
        <ele>8</ele>
        <time>2026-03-06T19:16:18.000Z</time>
      </trkpt>
      <trkpt lat="43.34097" lon="-1.75885">
        <ele>8</ele>
        <time>2026-03-06T19:16:18.000Z</time>
      </trkpt>
      <trkpt lat="43.34096" lon="-1.75885">
        <ele>8</ele>
        <time>2026-03-06T19:16:18.000Z</time>
      </trkpt>
      <trkpt lat="43.34095" lon="-1.75885">
        <ele>8</ele>
        <time>2026-03-06T19:16:19.000Z</time>
      </trkpt>
      <trkpt lat="43.34094" lon="-1.75884">
        <ele>9</ele>
        <time>2026-03-06T19:16:19.000Z</time>
      </trkpt>
      <trkpt lat="43.34093" lon="-1.75883">
        <ele>9</ele>
        <time>2026-03-06T19:16:19.000Z</time>
      </trkpt>
      <trkpt lat="43.34092" lon="-1.75883">
        <ele>9</ele>
        <time>2026-03-06T19:16:19.000Z</time>
      </trkpt>
      <trkpt lat="43.34091" lon="-1.75882">
        <ele>9</ele>
        <time>2026-03-06T19:16:19.000Z</time>
      </trkpt>
      <trkpt lat="43.3409" lon="-1.75881">
        <ele>9</ele>
        <time>2026-03-06T19:16:20.000Z</time>
      </trkpt>
      <trkpt lat="43.34089" lon="-1.7588">
        <ele>9</ele>
        <time>2026-03-06T19:16:20.000Z</time>
      </trkpt>
      <trkpt lat="43.34088" lon="-1.75879">
        <ele>9</ele>
        <time>2026-03-06T19:16:20.000Z</time>
      </trkpt>
      <trkpt lat="43.34087" lon="-1.75878">
        <ele>9</ele>
        <time>2026-03-06T19:16:20.000Z</time>
      </trkpt>
      <trkpt lat="43.34086" lon="-1.75876">
        <ele>9</ele>
        <time>2026-03-06T19:16:21.000Z</time>
      </trkpt>
      <trkpt lat="43.34085" lon="-1.75875">
        <ele>9</ele>
        <time>2026-03-06T19:16:21.000Z</time>
      </trkpt>
      <trkpt lat="43.34084" lon="-1.75873">
        <ele>9</ele>
        <time>2026-03-06T19:16:21.000Z</time>
      </trkpt>
      <trkpt lat="43.34083" lon="-1.75872">
        <ele>9</ele>
        <time>2026-03-06T19:16:21.000Z</time>
      </trkpt>
      <trkpt lat="43.34083" lon="-1.7587">
        <ele>9</ele>
        <time>2026-03-06T19:16:22.000Z</time>
      </trkpt>
      <trkpt lat="43.34082" lon="-1.75868">
        <ele>9</ele>
        <time>2026-03-06T19:16:22.000Z</time>
      </trkpt>
      <trkpt lat="43.34081" lon="-1.75865">
        <ele>9</ele>
        <time>2026-03-06T19:16:22.000Z</time>
      </trkpt>
      <trkpt lat="43.34081" lon="-1.75863">
        <ele>9</ele>
        <time>2026-03-06T19:16:23.000Z</time>
      </trkpt>
      <trkpt lat="43.34081" lon="-1.7586">
        <ele>9</ele>
        <time>2026-03-06T19:16:23.000Z</time>
      </trkpt>
      <trkpt lat="43.34081" lon="-1.75857">
        <ele>9</ele>
        <time>2026-03-06T19:16:23.000Z</time>
      </trkpt>
      <trkpt lat="43.34081" lon="-1.75855">
        <ele>9</ele>
        <time>2026-03-06T19:16:24.000Z</time>
      </trkpt>
      <trkpt lat="43.34081" lon="-1.75852">
        <ele>9</ele>
        <time>2026-03-06T19:16:24.000Z</time>
      </trkpt>
      <trkpt lat="43.34082" lon="-1.75847">
        <ele>9</ele>
        <time>2026-03-06T19:16:25.000Z</time>
      </trkpt>
      <trkpt lat="43.34083" lon="-1.75845">
        <ele>8</ele>
        <time>2026-03-06T19:16:25.000Z</time>
      </trkpt>
      <trkpt lat="43.34084" lon="-1.75842">
        <ele>8</ele>
        <time>2026-03-06T19:16:26.000Z</time>
      </trkpt>
      <trkpt lat="43.34085" lon="-1.7584">
        <ele>8</ele>
        <time>2026-03-06T19:16:26.000Z</time>
      </trkpt>
      <trkpt lat="43.34086" lon="-1.75838">
        <ele>8</ele>
        <time>2026-03-06T19:16:26.000Z</time>
      </trkpt>
      <trkpt lat="43.34087" lon="-1.75836">
        <ele>8</ele>
        <time>2026-03-06T19:16:26.000Z</time>
      </trkpt>
      <trkpt lat="43.34089" lon="-1.75835">
        <ele>8</ele>
        <time>2026-03-06T19:16:27.000Z</time>
      </trkpt>
      <trkpt lat="43.3409" lon="-1.75833">
        <ele>8</ele>
        <time>2026-03-06T19:16:27.000Z</time>
      </trkpt>
      <trkpt lat="43.34092" lon="-1.75832">
        <ele>8</ele>
        <time>2026-03-06T19:16:28.000Z</time>
      </trkpt>
      <trkpt lat="43.34091" lon="-1.7582">
        <ele>7</ele>
        <time>2026-03-06T19:16:29.000Z</time>
      </trkpt>
      <trkpt lat="43.3409" lon="-1.75814">
        <ele>7</ele>
        <time>2026-03-06T19:16:30.000Z</time>
      </trkpt>
      <trkpt lat="43.34087" lon="-1.75803">
        <ele>7</ele>
        <time>2026-03-06T19:16:31.000Z</time>
      </trkpt>
      <trkpt lat="43.34082" lon="-1.75792">
        <ele>7</ele>
        <time>2026-03-06T19:16:33.000Z</time>
      </trkpt>
      <trkpt lat="43.34071" lon="-1.75771">
        <ele>7</ele>
        <time>2026-03-06T19:16:36.000Z</time>
      </trkpt>
      <trkpt lat="43.34054" lon="-1.7574">
        <ele>8</ele>
        <time>2026-03-06T19:16:41.000Z</time>
      </trkpt>
      <trkpt lat="43.34025" lon="-1.75689">
        <ele>11</ele>
        <time>2026-03-06T19:16:50.000Z</time>
      </trkpt>
      <trkpt lat="43.34002" lon="-1.75651">
        <ele>11</ele>
        <time>2026-03-06T19:16:56.000Z</time>
      </trkpt>
      <trkpt lat="43.33989" lon="-1.75629">
        <ele>10</ele>
        <time>2026-03-06T19:17:00.000Z</time>
      </trkpt>
      <trkpt lat="43.33987" lon="-1.75627">
        <ele>10</ele>
        <time>2026-03-06T19:17:00.000Z</time>
      </trkpt>
      <trkpt lat="43.3398" lon="-1.75615">
        <ele>9</ele>
        <time>2026-03-06T19:17:02.000Z</time>
      </trkpt>
      <trkpt lat="43.33949" lon="-1.75576">
        <ele>7</ele>
        <time>2026-03-06T19:17:10.000Z</time>
      </trkpt>
      <trkpt lat="43.33922" lon="-1.7555">
        <ele>6</ele>
        <time>2026-03-06T19:17:16.000Z</time>
      </trkpt>
      <trkpt lat="43.33914" lon="-1.75542">
        <ele>6</ele>
        <time>2026-03-06T19:17:17.000Z</time>
      </trkpt>
      <trkpt lat="43.33896" lon="-1.75529">
        <ele>5</ele>
        <time>2026-03-06T19:17:21.000Z</time>
      </trkpt>
      <trkpt lat="43.33889" lon="-1.75523">
        <ele>5</ele>
        <time>2026-03-06T19:17:23.000Z</time>
      </trkpt>
      <trkpt lat="43.33889" lon="-1.75523">
        <ele>5</ele>
        <time>2026-03-06T19:17:23.000Z</time>
      </trkpt>
      <trkpt lat="43.33887" lon="-1.75525">
        <ele>5</ele>
        <time>2026-03-06T19:17:23.000Z</time>
      </trkpt>
      <trkpt lat="43.33885" lon="-1.75526">
        <ele>6</ele>
        <time>2026-03-06T19:17:23.000Z</time>
      </trkpt>
      <trkpt lat="43.33884" lon="-1.75527">
        <ele>6</ele>
        <time>2026-03-06T19:17:24.000Z</time>
      </trkpt>
      <trkpt lat="43.33882" lon="-1.75528">
        <ele>6</ele>
        <time>2026-03-06T19:17:24.000Z</time>
      </trkpt>
      <trkpt lat="43.3388" lon="-1.75528">
        <ele>6</ele>
        <time>2026-03-06T19:17:24.000Z</time>
      </trkpt>
      <trkpt lat="43.33879" lon="-1.75529">
        <ele>6</ele>
        <time>2026-03-06T19:17:25.000Z</time>
      </trkpt>
      <trkpt lat="43.33878" lon="-1.75529">
        <ele>6</ele>
        <time>2026-03-06T19:17:25.000Z</time>
      </trkpt>
      <trkpt lat="43.33877" lon="-1.75529">
        <ele>6</ele>
        <time>2026-03-06T19:17:25.000Z</time>
      </trkpt>
      <trkpt lat="43.33875" lon="-1.75529">
        <ele>6</ele>
        <time>2026-03-06T19:17:25.000Z</time>
      </trkpt>
      <trkpt lat="43.33874" lon="-1.75529">
        <ele>6</ele>
        <time>2026-03-06T19:17:25.000Z</time>
      </trkpt>
      <trkpt lat="43.33872" lon="-1.75529">
        <ele>6</ele>
        <time>2026-03-06T19:17:26.000Z</time>
      </trkpt>
      <trkpt lat="43.33871" lon="-1.75528">
        <ele>6</ele>
        <time>2026-03-06T19:17:26.000Z</time>
      </trkpt>
      <trkpt lat="43.33869" lon="-1.75528">
        <ele>6</ele>
        <time>2026-03-06T19:17:26.000Z</time>
      </trkpt>
      <trkpt lat="43.33868" lon="-1.75527">
        <ele>6</ele>
        <time>2026-03-06T19:17:27.000Z</time>
      </trkpt>
      <trkpt lat="43.33866" lon="-1.75526">
        <ele>6</ele>
        <time>2026-03-06T19:17:27.000Z</time>
      </trkpt>
      <trkpt lat="43.33865" lon="-1.75525">
        <ele>6</ele>
        <time>2026-03-06T19:17:27.000Z</time>
      </trkpt>
      <trkpt lat="43.33863" lon="-1.75524">
        <ele>6</ele>
        <time>2026-03-06T19:17:28.000Z</time>
      </trkpt>
      <trkpt lat="43.33862" lon="-1.75522">
        <ele>6</ele>
        <time>2026-03-06T19:17:28.000Z</time>
      </trkpt>
      <trkpt lat="43.33861" lon="-1.75521">
        <ele>6</ele>
        <time>2026-03-06T19:17:28.000Z</time>
      </trkpt>
      <trkpt lat="43.3386" lon="-1.75519">
        <ele>6</ele>
        <time>2026-03-06T19:17:28.000Z</time>
      </trkpt>
      <trkpt lat="43.33859" lon="-1.75517">
        <ele>6</ele>
        <time>2026-03-06T19:17:29.000Z</time>
      </trkpt>
      <trkpt lat="43.33859" lon="-1.75515">
        <ele>5</ele>
        <time>2026-03-06T19:17:29.000Z</time>
      </trkpt>
      <trkpt lat="43.33858" lon="-1.75513">
        <ele>5</ele>
        <time>2026-03-06T19:17:29.000Z</time>
      </trkpt>
      <trkpt lat="43.33858" lon="-1.7551">
        <ele>5</ele>
        <time>2026-03-06T19:17:30.000Z</time>
      </trkpt>
      <trkpt lat="43.33857" lon="-1.75508">
        <ele>5</ele>
        <time>2026-03-06T19:17:30.000Z</time>
      </trkpt>
      <trkpt lat="43.33857" lon="-1.75507">
        <ele>5</ele>
        <time>2026-03-06T19:17:30.000Z</time>
      </trkpt>
      <trkpt lat="43.33857" lon="-1.75506">
        <ele>5</ele>
        <time>2026-03-06T19:17:30.000Z</time>
      </trkpt>
      <trkpt lat="43.33857" lon="-1.75505">
        <ele>5</ele>
        <time>2026-03-06T19:17:30.000Z</time>
      </trkpt>
      <trkpt lat="43.33857" lon="-1.75504">
        <ele>5</ele>
        <time>2026-03-06T19:17:30.000Z</time>
      </trkpt>
      <trkpt lat="43.33857" lon="-1.75503">
        <ele>5</ele>
        <time>2026-03-06T19:17:31.000Z</time>
      </trkpt>
      <trkpt lat="43.3384" lon="-1.75484">
        <ele>5</ele>
        <time>2026-03-06T19:17:34.000Z</time>
      </trkpt>
      <trkpt lat="43.33809" lon="-1.75453">
        <ele>7</ele>
        <time>2026-03-06T19:17:41.000Z</time>
      </trkpt>
      <trkpt lat="43.3375" lon="-1.75398">
        <ele>6</ele>
        <time>2026-03-06T19:17:54.000Z</time>
      </trkpt>
      <trkpt lat="43.33716" lon="-1.75376">
        <ele>8</ele>
        <time>2026-03-06T19:18:01.000Z</time>
      </trkpt>
      <trkpt lat="43.33703" lon="-1.75366">
        <ele>8</ele>
        <time>2026-03-06T19:18:03.000Z</time>
      </trkpt>
      <trkpt lat="43.33684" lon="-1.75354">
        <ele>7</ele>
        <time>2026-03-06T19:18:07.000Z</time>
      </trkpt>
      <trkpt lat="43.33658" lon="-1.75342">
        <ele>7</ele>
        <time>2026-03-06T19:18:12.000Z</time>
      </trkpt>
      <trkpt lat="43.3363" lon="-1.75332">
        <ele>8</ele>
        <time>2026-03-06T19:18:17.000Z</time>
      </trkpt>
      <trkpt lat="43.33617" lon="-1.75329">
        <ele>9</ele>
        <time>2026-03-06T19:18:19.000Z</time>
      </trkpt>
      <trkpt lat="43.33606" lon="-1.75327">
        <ele>10</ele>
        <time>2026-03-06T19:18:21.000Z</time>
      </trkpt>
      <trkpt lat="43.33594" lon="-1.75326">
        <ele>11</ele>
        <time>2026-03-06T19:18:24.000Z</time>
      </trkpt>
      <trkpt lat="43.33586" lon="-1.75327">
        <ele>12</ele>
        <time>2026-03-06T19:18:25.000Z</time>
      </trkpt>
      <trkpt lat="43.33574" lon="-1.75329">
        <ele>13</ele>
        <time>2026-03-06T19:18:27.000Z</time>
      </trkpt>
      <trkpt lat="43.33574" lon="-1.75329">
        <ele>13</ele>
        <time>2026-03-06T19:18:27.000Z</time>
      </trkpt>
      <trkpt lat="43.33574" lon="-1.75331">
        <ele>13</ele>
        <time>2026-03-06T19:18:27.000Z</time>
      </trkpt>
      <trkpt lat="43.33573" lon="-1.75333">
        <ele>14</ele>
        <time>2026-03-06T19:18:28.000Z</time>
      </trkpt>
      <trkpt lat="43.33573" lon="-1.75335">
        <ele>14</ele>
        <time>2026-03-06T19:18:28.000Z</time>
      </trkpt>
      <trkpt lat="43.33572" lon="-1.75337">
        <ele>15</ele>
        <time>2026-03-06T19:18:28.000Z</time>
      </trkpt>
      <trkpt lat="43.33571" lon="-1.75338">
        <ele>16</ele>
        <time>2026-03-06T19:18:28.000Z</time>
      </trkpt>
      <trkpt lat="43.3357" lon="-1.7534">
        <ele>17</ele>
        <time>2026-03-06T19:18:29.000Z</time>
      </trkpt>
      <trkpt lat="43.33569" lon="-1.75341">
        <ele>17</ele>
        <time>2026-03-06T19:18:29.000Z</time>
      </trkpt>
      <trkpt lat="43.33568" lon="-1.75343">
        <ele>18</ele>
        <time>2026-03-06T19:18:29.000Z</time>
      </trkpt>
      <trkpt lat="43.33567" lon="-1.75344">
        <ele>19</ele>
        <time>2026-03-06T19:18:30.000Z</time>
      </trkpt>
      <trkpt lat="43.33566" lon="-1.75345">
        <ele>19</ele>
        <time>2026-03-06T19:18:30.000Z</time>
      </trkpt>
      <trkpt lat="43.33564" lon="-1.75346">
        <ele>19</ele>
        <time>2026-03-06T19:18:30.000Z</time>
      </trkpt>
      <trkpt lat="43.33563" lon="-1.75346">
        <ele>20</ele>
        <time>2026-03-06T19:18:30.000Z</time>
      </trkpt>
      <trkpt lat="43.33562" lon="-1.75347">
        <ele>20</ele>
        <time>2026-03-06T19:18:31.000Z</time>
      </trkpt>
      <trkpt lat="43.3356" lon="-1.75347">
        <ele>20</ele>
        <time>2026-03-06T19:18:31.000Z</time>
      </trkpt>
      <trkpt lat="43.33559" lon="-1.75348">
        <ele>21</ele>
        <time>2026-03-06T19:18:31.000Z</time>
      </trkpt>
      <trkpt lat="43.33557" lon="-1.75348">
        <ele>21</ele>
        <time>2026-03-06T19:18:31.000Z</time>
      </trkpt>
      <trkpt lat="43.33554" lon="-1.75348">
        <ele>21</ele>
        <time>2026-03-06T19:18:32.000Z</time>
      </trkpt>
      <trkpt lat="43.3355" lon="-1.75345">
        <ele>20</ele>
        <time>2026-03-06T19:18:33.000Z</time>
      </trkpt>
      <trkpt lat="43.33529" lon="-1.75344">
        <ele>21</ele>
        <time>2026-03-06T19:18:37.000Z</time>
      </trkpt>
      <trkpt lat="43.33508" lon="-1.75345">
        <ele>22</ele>
        <time>2026-03-06T19:18:40.000Z</time>
      </trkpt>
      <trkpt lat="43.33469" lon="-1.75351">
        <ele>27</ele>
        <time>2026-03-06T19:18:47.000Z</time>
      </trkpt>
      <trkpt lat="43.33441" lon="-1.75353">
        <ele>30</ele>
        <time>2026-03-06T19:18:52.000Z</time>
      </trkpt>
      <trkpt lat="43.33417" lon="-1.75352">
        <ele>32</ele>
        <time>2026-03-06T19:18:57.000Z</time>
      </trkpt>
      <trkpt lat="43.33397" lon="-1.75349">
        <ele>33</ele>
        <time>2026-03-06T19:19:00.000Z</time>
      </trkpt>
      <trkpt lat="43.33379" lon="-1.75344">
        <ele>33</ele>
        <time>2026-03-06T19:19:03.000Z</time>
      </trkpt>
      <trkpt lat="43.33362" lon="-1.75338">
        <ele>33</ele>
        <time>2026-03-06T19:19:07.000Z</time>
      </trkpt>
      <trkpt lat="43.33339" lon="-1.75327">
        <ele>31</ele>
        <time>2026-03-06T19:19:11.000Z</time>
      </trkpt>
      <trkpt lat="43.33321" lon="-1.75317">
        <ele>31</ele>
        <time>2026-03-06T19:19:14.000Z</time>
      </trkpt>
      <trkpt lat="43.33296" lon="-1.75298">
        <ele>31</ele>
        <time>2026-03-06T19:19:19.000Z</time>
      </trkpt>
      <trkpt lat="43.33268" lon="-1.75273">
        <ele>31</ele>
        <time>2026-03-06T19:19:25.000Z</time>
      </trkpt>
      <trkpt lat="43.33249" lon="-1.75253">
        <ele>30</ele>
        <time>2026-03-06T19:19:30.000Z</time>
      </trkpt>
      <trkpt lat="43.33229" lon="-1.75227">
        <ele>30</ele>
        <time>2026-03-06T19:19:34.000Z</time>
      </trkpt>
      <trkpt lat="43.33222" lon="-1.75218">
        <ele>30</ele>
        <time>2026-03-06T19:19:36.000Z</time>
      </trkpt>
      <trkpt lat="43.33213" lon="-1.75207">
        <ele>29</ele>
        <time>2026-03-06T19:19:38.000Z</time>
      </trkpt>
      <trkpt lat="43.33203" lon="-1.75192">
        <ele>27</ele>
        <time>2026-03-06T19:19:41.000Z</time>
      </trkpt>
      <trkpt lat="43.33194" lon="-1.75179">
        <ele>25</ele>
        <time>2026-03-06T19:19:43.000Z</time>
      </trkpt>
      <trkpt lat="43.3317" lon="-1.7514">
        <ele>21</ele>
        <time>2026-03-06T19:19:50.000Z</time>
      </trkpt>
      <trkpt lat="43.3317" lon="-1.7514">
        <ele>21</ele>
        <time>2026-03-06T19:19:50.000Z</time>
      </trkpt>
      <trkpt lat="43.33163" lon="-1.75136">
        <ele>22</ele>
        <time>2026-03-06T19:19:51.000Z</time>
      </trkpt>
      <trkpt lat="43.33159" lon="-1.75132">
        <ele>21</ele>
        <time>2026-03-06T19:19:52.000Z</time>
      </trkpt>
      <trkpt lat="43.33145" lon="-1.75114">
        <ele>20</ele>
        <time>2026-03-06T19:19:56.000Z</time>
      </trkpt>
      <trkpt lat="43.33082" lon="-1.75012">
        <ele>13</ele>
        <time>2026-03-06T19:20:13.000Z</time>
      </trkpt>
      <trkpt lat="43.33063" lon="-1.74981">
        <ele>14</ele>
        <time>2026-03-06T19:20:18.000Z</time>
      </trkpt>
      <trkpt lat="43.3306" lon="-1.74971">
        <ele>14</ele>
        <time>2026-03-06T19:20:20.000Z</time>
      </trkpt>
      <trkpt lat="43.33059" lon="-1.74961">
        <ele>13</ele>
        <time>2026-03-06T19:20:21.000Z</time>
      </trkpt>
      <trkpt lat="43.33059" lon="-1.74951">
        <ele>12</ele>
        <time>2026-03-06T19:20:22.000Z</time>
      </trkpt>
      <trkpt lat="43.33059" lon="-1.7494">
        <ele>12</ele>
        <time>2026-03-06T19:20:24.000Z</time>
      </trkpt>
      <trkpt lat="43.3306" lon="-1.74931">
        <ele>11</ele>
        <time>2026-03-06T19:20:25.000Z</time>
      </trkpt>
      <trkpt lat="43.3306" lon="-1.74931">
        <ele>11</ele>
        <time>2026-03-06T19:20:25.000Z</time>
      </trkpt>
      <trkpt lat="43.33061" lon="-1.74919">
        <ele>10</ele>
        <time>2026-03-06T19:20:26.000Z</time>
      </trkpt>
      <trkpt lat="43.33062" lon="-1.74914">
        <ele>10</ele>
        <time>2026-03-06T19:20:27.000Z</time>
      </trkpt>
      <trkpt lat="43.33066" lon="-1.74884">
        <ele>9</ele>
        <time>2026-03-06T19:20:31.000Z</time>
      </trkpt>
      <trkpt lat="43.33045" lon="-1.74763">
        <ele>12</ele>
        <time>2026-03-06T19:20:47.000Z</time>
      </trkpt>
      <trkpt lat="43.33027" lon="-1.74649">
        <ele>13</ele>
        <time>2026-03-06T19:21:02.000Z</time>
      </trkpt>
      <trkpt lat="43.32998" lon="-1.74459">
        <ele>13</ele>
        <time>2026-03-06T19:21:27.000Z</time>
      </trkpt>
      <trkpt lat="43.32977" lon="-1.74328">
        <ele>13</ele>
        <time>2026-03-06T19:21:45.000Z</time>
      </trkpt>
      <trkpt lat="43.3297" lon="-1.74281">
        <ele>14</ele>
        <time>2026-03-06T19:21:51.000Z</time>
      </trkpt>
      <trkpt lat="43.32945" lon="-1.74127">
        <ele>16</ele>
        <time>2026-03-06T19:22:11.000Z</time>
      </trkpt>
      <trkpt lat="43.32935" lon="-1.74062">
        <ele>13</ele>
        <time>2026-03-06T19:22:20.000Z</time>
      </trkpt>
      <trkpt lat="43.32922" lon="-1.74">
        <ele>9</ele>
        <time>2026-03-06T19:22:28.000Z</time>
      </trkpt>
      <trkpt lat="43.32915" lon="-1.73978">
        <ele>9</ele>
        <time>2026-03-06T19:22:31.000Z</time>
      </trkpt>
      <trkpt lat="43.32893" lon="-1.73927">
        <ele>11</ele>
        <time>2026-03-06T19:22:39.000Z</time>
      </trkpt>
      <trkpt lat="43.32878" lon="-1.73904">
        <ele>10</ele>
        <time>2026-03-06T19:22:43.000Z</time>
      </trkpt>
      <trkpt lat="43.32862" lon="-1.73889">
        <ele>10</ele>
        <time>2026-03-06T19:22:46.000Z</time>
      </trkpt>
      <trkpt lat="43.32847" lon="-1.73883">
        <ele>10</ele>
        <time>2026-03-06T19:22:49.000Z</time>
      </trkpt>
      <trkpt lat="43.32824" lon="-1.73879">
        <ele>11</ele>
        <time>2026-03-06T19:22:53.000Z</time>
      </trkpt>
      <trkpt lat="43.32802" lon="-1.73878">
        <ele>12</ele>
        <time>2026-03-06T19:22:57.000Z</time>
      </trkpt>
      <trkpt lat="43.32781" lon="-1.73882">
        <ele>13</ele>
        <time>2026-03-06T19:23:01.000Z</time>
      </trkpt>
      <trkpt lat="43.32718" lon="-1.73895">
        <ele>17</ele>
        <time>2026-03-06T19:23:12.000Z</time>
      </trkpt>
      <trkpt lat="43.32696" lon="-1.739">
        <ele>19</ele>
        <time>2026-03-06T19:23:16.000Z</time>
      </trkpt>
      <trkpt lat="43.32669" lon="-1.73904">
        <ele>20</ele>
        <time>2026-03-06T19:23:21.000Z</time>
      </trkpt>
      <trkpt lat="43.32626" lon="-1.7391">
        <ele>18</ele>
        <time>2026-03-06T19:23:29.000Z</time>
      </trkpt>
      <trkpt lat="43.32592" lon="-1.73917">
        <ele>17</ele>
        <time>2026-03-06T19:23:35.000Z</time>
      </trkpt>
      <trkpt lat="43.32545" lon="-1.73926">
        <ele>19</ele>
        <time>2026-03-06T19:23:43.000Z</time>
      </trkpt>
      <trkpt lat="43.32506" lon="-1.73945">
        <ele>22</ele>
        <time>2026-03-06T19:23:51.000Z</time>
      </trkpt>
      <trkpt lat="43.32442" lon="-1.73999">
        <ele>23</ele>
        <time>2026-03-06T19:24:04.000Z</time>
      </trkpt>
      <trkpt lat="43.32396" lon="-1.74036">
        <ele>21</ele>
        <time>2026-03-06T19:24:14.000Z</time>
      </trkpt>
      <trkpt lat="43.32219" lon="-1.74152">
        <ele>20</ele>
        <time>2026-03-06T19:24:48.000Z</time>
      </trkpt>
      <trkpt lat="43.32178" lon="-1.74179">
        <ele>17</ele>
        <time>2026-03-06T19:24:57.000Z</time>
      </trkpt>
      <trkpt lat="43.32144" lon="-1.74199">
        <ele>17</ele>
        <time>2026-03-06T19:25:03.000Z</time>
      </trkpt>
      <trkpt lat="43.32128" lon="-1.74208">
        <ele>18</ele>
        <time>2026-03-06T19:25:06.000Z</time>
      </trkpt>
      <trkpt lat="43.32018" lon="-1.74221">
        <ele>24</ele>
        <time>2026-03-06T19:25:26.000Z</time>
      </trkpt>
      <trkpt lat="43.31928" lon="-1.74233">
        <ele>24</ele>
        <time>2026-03-06T19:25:42.000Z</time>
      </trkpt>
      <trkpt lat="43.31826" lon="-1.74244">
        <ele>22</ele>
        <time>2026-03-06T19:26:00.000Z</time>
      </trkpt>
      <trkpt lat="43.31801" lon="-1.74244">
        <ele>22</ele>
        <time>2026-03-06T19:26:05.000Z</time>
      </trkpt>
      <trkpt lat="43.31776" lon="-1.74244">
        <ele>22</ele>
        <time>2026-03-06T19:26:09.000Z</time>
      </trkpt>
      <trkpt lat="43.31729" lon="-1.74243">
        <ele>25</ele>
        <time>2026-03-06T19:26:17.000Z</time>
      </trkpt>
      <trkpt lat="43.31706" lon="-1.74238">
        <ele>27</ele>
        <time>2026-03-06T19:26:22.000Z</time>
      </trkpt>
      <trkpt lat="43.31629" lon="-1.74205">
        <ele>36</ele>
        <time>2026-03-06T19:26:36.000Z</time>
      </trkpt>
      <trkpt lat="43.31598" lon="-1.74179">
        <ele>34</ele>
        <time>2026-03-06T19:26:42.000Z</time>
      </trkpt>
      <trkpt lat="43.31561" lon="-1.74141">
        <ele>35</ele>
        <time>2026-03-06T19:26:51.000Z</time>
      </trkpt>
      <trkpt lat="43.31522" lon="-1.74094">
        <ele>35</ele>
        <time>2026-03-06T19:27:00.000Z</time>
      </trkpt>
      <trkpt lat="43.31486" lon="-1.74034">
        <ele>31</ele>
        <time>2026-03-06T19:27:10.000Z</time>
      </trkpt>
      <trkpt lat="43.31461" lon="-1.73986">
        <ele>28</ele>
        <time>2026-03-06T19:27:18.000Z</time>
      </trkpt>
      <trkpt lat="43.31447" lon="-1.73946">
        <ele>25</ele>
        <time>2026-03-06T19:27:23.000Z</time>
      </trkpt>
      <trkpt lat="43.31423" lon="-1.73906">
        <ele>21</ele>
        <time>2026-03-06T19:27:30.000Z</time>
      </trkpt>
      <trkpt lat="43.31409" lon="-1.73892">
        <ele>20</ele>
        <time>2026-03-06T19:27:33.000Z</time>
      </trkpt>
      <trkpt lat="43.31386" lon="-1.73882">
        <ele>18</ele>
        <time>2026-03-06T19:27:37.000Z</time>
      </trkpt>
      <trkpt lat="43.31348" lon="-1.73888">
        <ele>17</ele>
        <time>2026-03-06T19:27:44.000Z</time>
      </trkpt>
      <trkpt lat="43.31326" lon="-1.73908">
        <ele>17</ele>
        <time>2026-03-06T19:27:49.000Z</time>
      </trkpt>
      <trkpt lat="43.31303" lon="-1.73944">
        <ele>24</ele>
        <time>2026-03-06T19:27:55.000Z</time>
      </trkpt>
      <trkpt lat="43.31268" lon="-1.74014">
        <ele>30</ele>
        <time>2026-03-06T19:28:06.000Z</time>
      </trkpt>
      <trkpt lat="43.31253" lon="-1.74039">
        <ele>33</ele>
        <time>2026-03-06T19:28:10.000Z</time>
      </trkpt>
      <trkpt lat="43.31224" lon="-1.74061">
        <ele>31</ele>
        <time>2026-03-06T19:28:16.000Z</time>
      </trkpt>
      <trkpt lat="43.31186" lon="-1.74082">
        <ele>26</ele>
        <time>2026-03-06T19:28:23.000Z</time>
      </trkpt>
      <trkpt lat="43.3115" lon="-1.74089">
        <ele>23</ele>
        <time>2026-03-06T19:28:30.000Z</time>
      </trkpt>
      <trkpt lat="43.31132" lon="-1.74087">
        <ele>24</ele>
        <time>2026-03-06T19:28:33.000Z</time>
      </trkpt>
      <trkpt lat="43.31118" lon="-1.74079">
        <ele>24</ele>
        <time>2026-03-06T19:28:36.000Z</time>
      </trkpt>
      <trkpt lat="43.311" lon="-1.74058">
        <ele>23</ele>
        <time>2026-03-06T19:28:40.000Z</time>
      </trkpt>
      <trkpt lat="43.31081" lon="-1.74029">
        <ele>22</ele>
        <time>2026-03-06T19:28:45.000Z</time>
      </trkpt>
      <trkpt lat="43.31051" lon="-1.7397">
        <ele>28</ele>
        <time>2026-03-06T19:28:54.000Z</time>
      </trkpt>
      <trkpt lat="43.31036" lon="-1.7394">
        <ele>30</ele>
        <time>2026-03-06T19:28:59.000Z</time>
      </trkpt>
      <trkpt lat="43.31029" lon="-1.73912">
        <ele>29</ele>
        <time>2026-03-06T19:29:03.000Z</time>
      </trkpt>
      <trkpt lat="43.31016" lon="-1.73851">
        <ele>27</ele>
        <time>2026-03-06T19:29:11.000Z</time>
      </trkpt>
      <trkpt lat="43.31011" lon="-1.73818">
        <ele>26</ele>
        <time>2026-03-06T19:29:16.000Z</time>
      </trkpt>
      <trkpt lat="43.31008" lon="-1.73731">
        <ele>21</ele>
        <time>2026-03-06T19:29:27.000Z</time>
      </trkpt>
      <trkpt lat="43.31" lon="-1.73701">
        <ele>18</ele>
        <time>2026-03-06T19:29:31.000Z</time>
      </trkpt>
      <trkpt lat="43.30986" lon="-1.73678">
        <ele>17</ele>
        <time>2026-03-06T19:29:35.000Z</time>
      </trkpt>
      <trkpt lat="43.30964" lon="-1.73659">
        <ele>19</ele>
        <time>2026-03-06T19:29:39.000Z</time>
      </trkpt>
      <trkpt lat="43.30926" lon="-1.73644">
        <ele>24</ele>
        <time>2026-03-06T19:29:46.000Z</time>
      </trkpt>
      <trkpt lat="43.30874" lon="-1.73629">
        <ele>26</ele>
        <time>2026-03-06T19:29:56.000Z</time>
      </trkpt>
      <trkpt lat="43.30801" lon="-1.73628">
        <ele>34</ele>
        <time>2026-03-06T19:30:09.000Z</time>
      </trkpt>
      <trkpt lat="43.30761" lon="-1.73616">
        <ele>33</ele>
        <time>2026-03-06T19:30:16.000Z</time>
      </trkpt>
      <trkpt lat="43.30752" lon="-1.73613">
        <ele>32</ele>
        <time>2026-03-06T19:30:18.000Z</time>
      </trkpt>
      <trkpt lat="43.30739" lon="-1.73606">
        <ele>32</ele>
        <time>2026-03-06T19:30:20.000Z</time>
      </trkpt>
      <trkpt lat="43.30717" lon="-1.73597">
        <ele>32</ele>
        <time>2026-03-06T19:30:24.000Z</time>
      </trkpt>
      <trkpt lat="43.3069" lon="-1.73582">
        <ele>31</ele>
        <time>2026-03-06T19:30:30.000Z</time>
      </trkpt>
      <trkpt lat="43.30676" lon="-1.73578">
        <ele>33</ele>
        <time>2026-03-06T19:30:32.000Z</time>
      </trkpt>
      <trkpt lat="43.30671" lon="-1.73578">
        <ele>34</ele>
        <time>2026-03-06T19:30:33.000Z</time>
      </trkpt>
      <trkpt lat="43.30663" lon="-1.73577">
        <ele>36</ele>
        <time>2026-03-06T19:30:34.000Z</time>
      </trkpt>
      <trkpt lat="43.30653" lon="-1.73577">
        <ele>40</ele>
        <time>2026-03-06T19:30:36.000Z</time>
      </trkpt>
      <trkpt lat="43.30639" lon="-1.73578">
        <ele>46</ele>
        <time>2026-03-06T19:30:39.000Z</time>
      </trkpt>
      <trkpt lat="43.30626" lon="-1.73578">
        <ele>51</ele>
        <time>2026-03-06T19:30:41.000Z</time>
      </trkpt>
      <trkpt lat="43.30614" lon="-1.73578">
        <ele>56</ele>
        <time>2026-03-06T19:30:43.000Z</time>
      </trkpt>
      <trkpt lat="43.30596" lon="-1.73575">
        <ele>62</ele>
        <time>2026-03-06T19:30:46.000Z</time>
      </trkpt>
      <trkpt lat="43.30586" lon="-1.73572">
        <ele>64</ele>
        <time>2026-03-06T19:30:48.000Z</time>
      </trkpt>
      <trkpt lat="43.30577" lon="-1.73567">
        <ele>64</ele>
        <time>2026-03-06T19:30:50.000Z</time>
      </trkpt>
      <trkpt lat="43.30565" lon="-1.73558">
        <ele>61</ele>
        <time>2026-03-06T19:30:52.000Z</time>
      </trkpt>
      <trkpt lat="43.30557" lon="-1.73551">
        <ele>58</ele>
        <time>2026-03-06T19:30:54.000Z</time>
      </trkpt>
      <trkpt lat="43.30544" lon="-1.73538">
        <ele>54</ele>
        <time>2026-03-06T19:30:57.000Z</time>
      </trkpt>
      <trkpt lat="43.30532" lon="-1.73524">
        <ele>49</ele>
        <time>2026-03-06T19:31:00.000Z</time>
      </trkpt>
      <trkpt lat="43.30517" lon="-1.7351">
        <ele>45</ele>
        <time>2026-03-06T19:31:03.000Z</time>
      </trkpt>
      <trkpt lat="43.30504" lon="-1.73499">
        <ele>42</ele>
        <time>2026-03-06T19:31:06.000Z</time>
      </trkpt>
      <trkpt lat="43.30488" lon="-1.73485">
        <ele>39</ele>
        <time>2026-03-06T19:31:09.000Z</time>
      </trkpt>
      <trkpt lat="43.30488" lon="-1.73485">
        <ele>39</ele>
        <time>2026-03-06T19:31:09.000Z</time>
      </trkpt>
      <trkpt lat="43.30456" lon="-1.73471">
        <ele>36</ele>
        <time>2026-03-06T19:31:15.000Z</time>
      </trkpt>
      <trkpt lat="43.30442" lon="-1.73469">
        <ele>36</ele>
        <time>2026-03-06T19:31:18.000Z</time>
      </trkpt>
      <trkpt lat="43.30417" lon="-1.73463">
        <ele>36</ele>
        <time>2026-03-06T19:31:22.000Z</time>
      </trkpt>
      <trkpt lat="43.30414" lon="-1.73462">
        <ele>35</ele>
        <time>2026-03-06T19:31:23.000Z</time>
      </trkpt>
      <trkpt lat="43.30311" lon="-1.7344">
        <ele>37</ele>
        <time>2026-03-06T19:31:41.000Z</time>
      </trkpt>
      <trkpt lat="43.30222" lon="-1.73425">
        <ele>58</ele>
        <time>2026-03-06T19:31:57.000Z</time>
      </trkpt>
      <trkpt lat="43.30181" lon="-1.73412">
        <ele>67</ele>
        <time>2026-03-06T19:32:05.000Z</time>
      </trkpt>
      <trkpt lat="43.30174" lon="-1.73409">
        <ele>67</ele>
        <time>2026-03-06T19:32:06.000Z</time>
      </trkpt>
      <trkpt lat="43.30102" lon="-1.73377">
        <ele>58</ele>
        <time>2026-03-06T19:32:19.000Z</time>
      </trkpt>
      <trkpt lat="43.30064" lon="-1.73354">
        <ele>53</ele>
        <time>2026-03-06T19:32:27.000Z</time>
      </trkpt>
      <trkpt lat="43.2997" lon="-1.73302">
        <ele>53</ele>
        <time>2026-03-06T19:32:45.000Z</time>
      </trkpt>
      <trkpt lat="43.29937" lon="-1.73282">
        <ele>54</ele>
        <time>2026-03-06T19:32:51.000Z</time>
      </trkpt>
      <trkpt lat="43.29927" lon="-1.73277">
        <ele>55</ele>
        <time>2026-03-06T19:32:53.000Z</time>
      </trkpt>
      <trkpt lat="43.29859" lon="-1.73239">
        <ele>51</ele>
        <time>2026-03-06T19:33:06.000Z</time>
      </trkpt>
      <trkpt lat="43.29821" lon="-1.7322">
        <ele>48</ele>
        <time>2026-03-06T19:33:13.000Z</time>
      </trkpt>
      <trkpt lat="43.29751" lon="-1.73181">
        <ele>37</ele>
        <time>2026-03-06T19:33:27.000Z</time>
      </trkpt>
      <trkpt lat="43.29705" lon="-1.73159">
        <ele>40</ele>
        <time>2026-03-06T19:33:35.000Z</time>
      </trkpt>
      <trkpt lat="43.29641" lon="-1.73126">
        <ele>44</ele>
        <time>2026-03-06T19:33:48.000Z</time>
      </trkpt>
      <trkpt lat="43.29601" lon="-1.73104">
        <ele>44</ele>
        <time>2026-03-06T19:33:55.000Z</time>
      </trkpt>
      <trkpt lat="43.2953" lon="-1.73061">
        <ele>39</ele>
        <time>2026-03-06T19:34:09.000Z</time>
      </trkpt>
      <trkpt lat="43.2952" lon="-1.73054">
        <ele>39</ele>
        <time>2026-03-06T19:34:11.000Z</time>
      </trkpt>
      <trkpt lat="43.2951" lon="-1.73047">
        <ele>38</ele>
        <time>2026-03-06T19:34:13.000Z</time>
      </trkpt>
      <trkpt lat="43.29475" lon="-1.73022">
        <ele>29</ele>
        <time>2026-03-06T19:34:20.000Z</time>
      </trkpt>
      <trkpt lat="43.29422" lon="-1.72985">
        <ele>23</ele>
        <time>2026-03-06T19:34:31.000Z</time>
      </trkpt>
      <trkpt lat="43.29411" lon="-1.72977">
        <ele>23</ele>
        <time>2026-03-06T19:34:33.000Z</time>
      </trkpt>
      <trkpt lat="43.29396" lon="-1.72966">
        <ele>22</ele>
        <time>2026-03-06T19:34:36.000Z</time>
      </trkpt>
      <trkpt lat="43.29395" lon="-1.72965">
        <ele>22</ele>
        <time>2026-03-06T19:34:36.000Z</time>
      </trkpt>
      <trkpt lat="43.29367" lon="-1.72945">
        <ele>20</ele>
        <time>2026-03-06T19:34:42.000Z</time>
      </trkpt>
      <trkpt lat="43.29322" lon="-1.72913">
        <ele>18</ele>
        <time>2026-03-06T19:34:51.000Z</time>
      </trkpt>
      <trkpt lat="43.29307" lon="-1.72901">
        <ele>22</ele>
        <time>2026-03-06T19:34:54.000Z</time>
      </trkpt>
      <trkpt lat="43.29287" lon="-1.72881">
        <ele>27</ele>
        <time>2026-03-06T19:34:58.000Z</time>
      </trkpt>
      <trkpt lat="43.29286" lon="-1.7288">
        <ele>27</ele>
        <time>2026-03-06T19:34:58.000Z</time>
      </trkpt>
      <trkpt lat="43.29273" lon="-1.72866">
        <ele>31</ele>
        <time>2026-03-06T19:35:01.000Z</time>
      </trkpt>
      <trkpt lat="43.29254" lon="-1.72843">
        <ele>35</ele>
        <time>2026-03-06T19:35:06.000Z</time>
      </trkpt>
      <trkpt lat="43.29231" lon="-1.728">
        <ele>41</ele>
        <time>2026-03-06T19:35:13.000Z</time>
      </trkpt>
      <trkpt lat="43.29222" lon="-1.72783">
        <ele>42</ele>
        <time>2026-03-06T19:35:16.000Z</time>
      </trkpt>
      <trkpt lat="43.29217" lon="-1.72771">
        <ele>43</ele>
        <time>2026-03-06T19:35:17.000Z</time>
      </trkpt>
      <trkpt lat="43.29205" lon="-1.72746">
        <ele>42</ele>
        <time>2026-03-06T19:35:21.000Z</time>
      </trkpt>
      <trkpt lat="43.29194" lon="-1.72716">
        <ele>39</ele>
        <time>2026-03-06T19:35:26.000Z</time>
      </trkpt>
      <trkpt lat="43.29187" lon="-1.72688">
        <ele>38</ele>
        <time>2026-03-06T19:35:29.000Z</time>
      </trkpt>
      <trkpt lat="43.29185" lon="-1.72674">
        <ele>38</ele>
        <time>2026-03-06T19:35:31.000Z</time>
      </trkpt>
      <trkpt lat="43.29183" lon="-1.7266">
        <ele>37</ele>
        <time>2026-03-06T19:35:33.000Z</time>
      </trkpt>
      <trkpt lat="43.2918" lon="-1.72627">
        <ele>35</ele>
        <time>2026-03-06T19:35:37.000Z</time>
      </trkpt>
      <trkpt lat="43.29177" lon="-1.72548">
        <ele>30</ele>
        <time>2026-03-06T19:35:48.000Z</time>
      </trkpt>
      <trkpt lat="43.29175" lon="-1.72473">
        <ele>27</ele>
        <time>2026-03-06T19:35:57.000Z</time>
      </trkpt>
      <trkpt lat="43.29175" lon="-1.7247">
        <ele>27</ele>
        <time>2026-03-06T19:35:58.000Z</time>
      </trkpt>
      <trkpt lat="43.29171" lon="-1.72376">
        <ele>32</ele>
        <time>2026-03-06T19:36:10.000Z</time>
      </trkpt>
      <trkpt lat="43.2917" lon="-1.72323">
        <ele>35</ele>
        <time>2026-03-06T19:36:17.000Z</time>
      </trkpt>
      <trkpt lat="43.2917" lon="-1.72299">
        <ele>34</ele>
        <time>2026-03-06T19:36:20.000Z</time>
      </trkpt>
      <trkpt lat="43.2917" lon="-1.72281">
        <ele>33</ele>
        <time>2026-03-06T19:36:22.000Z</time>
      </trkpt>
      <trkpt lat="43.29172" lon="-1.72247">
        <ele>33</ele>
        <time>2026-03-06T19:36:27.000Z</time>
      </trkpt>
      <trkpt lat="43.29176" lon="-1.72206">
        <ele>34</ele>
        <time>2026-03-06T19:36:32.000Z</time>
      </trkpt>
      <trkpt lat="43.29184" lon="-1.7214">
        <ele>39</ele>
        <time>2026-03-06T19:36:41.000Z</time>
      </trkpt>
      <trkpt lat="43.29185" lon="-1.72116">
        <ele>41</ele>
        <time>2026-03-06T19:36:44.000Z</time>
      </trkpt>
      <trkpt lat="43.29187" lon="-1.72077">
        <ele>44</ele>
        <time>2026-03-06T19:36:49.000Z</time>
      </trkpt>
      <trkpt lat="43.29188" lon="-1.72054">
        <ele>42</ele>
        <time>2026-03-06T19:36:52.000Z</time>
      </trkpt>
      <trkpt lat="43.29187" lon="-1.72028">
        <ele>40</ele>
        <time>2026-03-06T19:36:55.000Z</time>
      </trkpt>
      <trkpt lat="43.29185" lon="-1.72003">
        <ele>37</ele>
        <time>2026-03-06T19:36:58.000Z</time>
      </trkpt>
      <trkpt lat="43.29179" lon="-1.71922">
        <ele>34</ele>
        <time>2026-03-06T19:37:09.000Z</time>
      </trkpt>
      <trkpt lat="43.29172" lon="-1.71857">
        <ele>41</ele>
        <time>2026-03-06T19:37:18.000Z</time>
      </trkpt>
      <trkpt lat="43.2916" lon="-1.71767">
        <ele>50</ele>
        <time>2026-03-06T19:37:29.000Z</time>
      </trkpt>
      <trkpt lat="43.29134" lon="-1.71536">
        <ele>51</ele>
        <time>2026-03-06T19:38:00.000Z</time>
      </trkpt>
      <trkpt lat="43.2913" lon="-1.71504">
        <ele>47</ele>
        <time>2026-03-06T19:38:04.000Z</time>
      </trkpt>
      <trkpt lat="43.29128" lon="-1.71487">
        <ele>47</ele>
        <time>2026-03-06T19:38:06.000Z</time>
      </trkpt>
      <trkpt lat="43.29122" lon="-1.71463">
        <ele>45</ele>
        <time>2026-03-06T19:38:09.000Z</time>
      </trkpt>
      <trkpt lat="43.29118" lon="-1.71446">
        <ele>43</ele>
        <time>2026-03-06T19:38:12.000Z</time>
      </trkpt>
      <trkpt lat="43.29113" lon="-1.7143">
        <ele>41</ele>
        <time>2026-03-06T19:38:14.000Z</time>
      </trkpt>
      <trkpt lat="43.29103" lon="-1.71405">
        <ele>36</ele>
        <time>2026-03-06T19:38:18.000Z</time>
      </trkpt>
      <trkpt lat="43.29099" lon="-1.71398">
        <ele>34</ele>
        <time>2026-03-06T19:38:19.000Z</time>
      </trkpt>
      <trkpt lat="43.29095" lon="-1.71388">
        <ele>31</ele>
        <time>2026-03-06T19:38:20.000Z</time>
      </trkpt>
      <trkpt lat="43.2909" lon="-1.71378">
        <ele>29</ele>
        <time>2026-03-06T19:38:22.000Z</time>
      </trkpt>
      <trkpt lat="43.29082" lon="-1.71363">
        <ele>26</ele>
        <time>2026-03-06T19:38:24.000Z</time>
      </trkpt>
      <trkpt lat="43.29071" lon="-1.71343">
        <ele>31</ele>
        <time>2026-03-06T19:38:28.000Z</time>
      </trkpt>
      <trkpt lat="43.29056" lon="-1.71322">
        <ele>37</ele>
        <time>2026-03-06T19:38:31.000Z</time>
      </trkpt>
      <trkpt lat="43.2904" lon="-1.71303">
        <ele>41</ele>
        <time>2026-03-06T19:38:35.000Z</time>
      </trkpt>
      <trkpt lat="43.29038" lon="-1.713">
        <ele>41</ele>
        <time>2026-03-06T19:38:36.000Z</time>
      </trkpt>
      <trkpt lat="43.29027" lon="-1.71288">
        <ele>43</ele>
        <time>2026-03-06T19:38:38.000Z</time>
      </trkpt>
      <trkpt lat="43.29023" lon="-1.71284">
        <ele>43</ele>
        <time>2026-03-06T19:38:39.000Z</time>
      </trkpt>
      <trkpt lat="43.29014" lon="-1.71277">
        <ele>45</ele>
        <time>2026-03-06T19:38:41.000Z</time>
      </trkpt>
      <trkpt lat="43.29003" lon="-1.71269">
        <ele>46</ele>
        <time>2026-03-06T19:38:43.000Z</time>
      </trkpt>
      <trkpt lat="43.28997" lon="-1.71264">
        <ele>45</ele>
        <time>2026-03-06T19:38:44.000Z</time>
      </trkpt>
      <trkpt lat="43.2898" lon="-1.71254">
        <ele>43</ele>
        <time>2026-03-06T19:38:48.000Z</time>
      </trkpt>
      <trkpt lat="43.28962" lon="-1.71247">
        <ele>42</ele>
        <time>2026-03-06T19:38:51.000Z</time>
      </trkpt>
      <trkpt lat="43.28944" lon="-1.71242">
        <ele>42</ele>
        <time>2026-03-06T19:38:54.000Z</time>
      </trkpt>
      <trkpt lat="43.28928" lon="-1.71239">
        <ele>42</ele>
        <time>2026-03-06T19:38:57.000Z</time>
      </trkpt>
      <trkpt lat="43.28915" lon="-1.71238">
        <ele>42</ele>
        <time>2026-03-06T19:38:59.000Z</time>
      </trkpt>
      <trkpt lat="43.289" lon="-1.71235">
        <ele>38</ele>
        <time>2026-03-06T19:39:02.000Z</time>
      </trkpt>
      <trkpt lat="43.28885" lon="-1.71233">
        <ele>35</ele>
        <time>2026-03-06T19:39:05.000Z</time>
      </trkpt>
      <trkpt lat="43.28884" lon="-1.71233">
        <ele>35</ele>
        <time>2026-03-06T19:39:05.000Z</time>
      </trkpt>
      <trkpt lat="43.28692" lon="-1.71206">
        <ele>39</ele>
        <time>2026-03-06T19:39:39.000Z</time>
      </trkpt>
      <trkpt lat="43.28617" lon="-1.71193">
        <ele>44</ele>
        <time>2026-03-06T19:39:53.000Z</time>
      </trkpt>
      <trkpt lat="43.28565" lon="-1.71187">
        <ele>43</ele>
        <time>2026-03-06T19:40:02.000Z</time>
      </trkpt>
      <trkpt lat="43.28533" lon="-1.71186">
        <ele>38</ele>
        <time>2026-03-06T19:40:08.000Z</time>
      </trkpt>
      <trkpt lat="43.28515" lon="-1.71186">
        <ele>36</ele>
        <time>2026-03-06T19:40:11.000Z</time>
      </trkpt>
      <trkpt lat="43.28513" lon="-1.71186">
        <ele>36</ele>
        <time>2026-03-06T19:40:11.000Z</time>
      </trkpt>
      <trkpt lat="43.28489" lon="-1.71189">
        <ele>34</ele>
        <time>2026-03-06T19:40:16.000Z</time>
      </trkpt>
      <trkpt lat="43.28465" lon="-1.71193">
        <ele>35</ele>
        <time>2026-03-06T19:40:20.000Z</time>
      </trkpt>
      <trkpt lat="43.28454" lon="-1.71194">
        <ele>35</ele>
        <time>2026-03-06T19:40:22.000Z</time>
      </trkpt>
      <trkpt lat="43.28418" lon="-1.71201">
        <ele>36</ele>
        <time>2026-03-06T19:40:28.000Z</time>
      </trkpt>
      <trkpt lat="43.28378" lon="-1.71207">
        <ele>46</ele>
        <time>2026-03-06T19:40:35.000Z</time>
      </trkpt>
      <trkpt lat="43.28357" lon="-1.7121">
        <ele>50</ele>
        <time>2026-03-06T19:40:39.000Z</time>
      </trkpt>
      <trkpt lat="43.28336" lon="-1.71211">
        <ele>55</ele>
        <time>2026-03-06T19:40:43.000Z</time>
      </trkpt>
      <trkpt lat="43.28309" lon="-1.71212">
        <ele>54</ele>
        <time>2026-03-06T19:40:48.000Z</time>
      </trkpt>
      <trkpt lat="43.28288" lon="-1.71212">
        <ele>53</ele>
        <time>2026-03-06T19:40:51.000Z</time>
      </trkpt>
      <trkpt lat="43.28268" lon="-1.71209">
        <ele>52</ele>
        <time>2026-03-06T19:40:55.000Z</time>
      </trkpt>
      <trkpt lat="43.28193" lon="-1.71195">
        <ele>43</ele>
        <time>2026-03-06T19:41:09.000Z</time>
      </trkpt>
      <trkpt lat="43.28186" lon="-1.71193">
        <ele>42</ele>
        <time>2026-03-06T19:41:10.000Z</time>
      </trkpt>
      <trkpt lat="43.28183" lon="-1.71192">
        <ele>42</ele>
        <time>2026-03-06T19:41:10.000Z</time>
      </trkpt>
      <trkpt lat="43.28182" lon="-1.71191">
        <ele>42</ele>
        <time>2026-03-06T19:41:11.000Z</time>
      </trkpt>
      <trkpt lat="43.28175" lon="-1.71189">
        <ele>40</ele>
        <time>2026-03-06T19:41:12.000Z</time>
      </trkpt>
      <trkpt lat="43.28171" lon="-1.71188">
        <ele>40</ele>
        <time>2026-03-06T19:41:13.000Z</time>
      </trkpt>
      <trkpt lat="43.28159" lon="-1.71185">
        <ele>39</ele>
        <time>2026-03-06T19:41:15.000Z</time>
      </trkpt>
      <trkpt lat="43.28149" lon="-1.71183">
        <ele>39</ele>
        <time>2026-03-06T19:41:17.000Z</time>
      </trkpt>
      <trkpt lat="43.28147" lon="-1.71182">
        <ele>39</ele>
        <time>2026-03-06T19:41:17.000Z</time>
      </trkpt>
      <trkpt lat="43.2814" lon="-1.71181">
        <ele>39</ele>
        <time>2026-03-06T19:41:18.000Z</time>
      </trkpt>
      <trkpt lat="43.28008" lon="-1.71139">
        <ele>43</ele>
        <time>2026-03-06T19:41:42.000Z</time>
      </trkpt>
      <trkpt lat="43.27957" lon="-1.71121">
        <ele>45</ele>
        <time>2026-03-06T19:41:52.000Z</time>
      </trkpt>
      <trkpt lat="43.27945" lon="-1.71116">
        <ele>46</ele>
        <time>2026-03-06T19:41:54.000Z</time>
      </trkpt>
      <trkpt lat="43.27924" lon="-1.711">
        <ele>48</ele>
        <time>2026-03-06T19:41:58.000Z</time>
      </trkpt>
      <trkpt lat="43.27917" lon="-1.71093">
        <ele>49</ele>
        <time>2026-03-06T19:42:00.000Z</time>
      </trkpt>
      <trkpt lat="43.27907" lon="-1.71084">
        <ele>49</ele>
        <time>2026-03-06T19:42:02.000Z</time>
      </trkpt>
      <trkpt lat="43.27894" lon="-1.71068">
        <ele>50</ele>
        <time>2026-03-06T19:42:05.000Z</time>
      </trkpt>
      <trkpt lat="43.27893" lon="-1.71066">
        <ele>50</ele>
        <time>2026-03-06T19:42:05.000Z</time>
      </trkpt>
      <trkpt lat="43.27876" lon="-1.71044">
        <ele>51</ele>
        <time>2026-03-06T19:42:09.000Z</time>
      </trkpt>
      <trkpt lat="43.27869" lon="-1.71034">
        <ele>51</ele>
        <time>2026-03-06T19:42:11.000Z</time>
      </trkpt>
      <trkpt lat="43.27862" lon="-1.7102">
        <ele>51</ele>
        <time>2026-03-06T19:42:13.000Z</time>
      </trkpt>
      <trkpt lat="43.2786" lon="-1.71016">
        <ele>51</ele>
        <time>2026-03-06T19:42:14.000Z</time>
      </trkpt>
      <trkpt lat="43.27836" lon="-1.70964">
        <ele>49</ele>
        <time>2026-03-06T19:42:22.000Z</time>
      </trkpt>
      <trkpt lat="43.27825" lon="-1.70939">
        <ele>49</ele>
        <time>2026-03-06T19:42:26.000Z</time>
      </trkpt>
      <trkpt lat="43.2782" lon="-1.70926">
        <ele>49</ele>
        <time>2026-03-06T19:42:28.000Z</time>
      </trkpt>
      <trkpt lat="43.27804" lon="-1.70886">
        <ele>48</ele>
        <time>2026-03-06T19:42:34.000Z</time>
      </trkpt>
      <trkpt lat="43.27788" lon="-1.70847">
        <ele>46</ele>
        <time>2026-03-06T19:42:39.000Z</time>
      </trkpt>
      <trkpt lat="43.27785" lon="-1.70837">
        <ele>46</ele>
        <time>2026-03-06T19:42:41.000Z</time>
      </trkpt>
      <trkpt lat="43.2778" lon="-1.70824">
        <ele>46</ele>
        <time>2026-03-06T19:42:43.000Z</time>
      </trkpt>
      <trkpt lat="43.27774" lon="-1.70805">
        <ele>46</ele>
        <time>2026-03-06T19:42:45.000Z</time>
      </trkpt>
      <trkpt lat="43.2777" lon="-1.70787">
        <ele>47</ele>
        <time>2026-03-06T19:42:48.000Z</time>
      </trkpt>
      <trkpt lat="43.27768" lon="-1.70779">
        <ele>47</ele>
        <time>2026-03-06T19:42:49.000Z</time>
      </trkpt>
      <trkpt lat="43.27767" lon="-1.7077">
        <ele>48</ele>
        <time>2026-03-06T19:42:50.000Z</time>
      </trkpt>
      <trkpt lat="43.27764" lon="-1.70753">
        <ele>48</ele>
        <time>2026-03-06T19:42:52.000Z</time>
      </trkpt>
      <trkpt lat="43.27749" lon="-1.70621">
        <ele>47</ele>
        <time>2026-03-06T19:43:10.000Z</time>
      </trkpt>
      <trkpt lat="43.27745" lon="-1.70601">
        <ele>46</ele>
        <time>2026-03-06T19:43:12.000Z</time>
      </trkpt>
      <trkpt lat="43.27742" lon="-1.70585">
        <ele>46</ele>
        <time>2026-03-06T19:43:14.000Z</time>
      </trkpt>
      <trkpt lat="43.27738" lon="-1.70566">
        <ele>45</ele>
        <time>2026-03-06T19:43:17.000Z</time>
      </trkpt>
      <trkpt lat="43.27732" lon="-1.70546">
        <ele>45</ele>
        <time>2026-03-06T19:43:20.000Z</time>
      </trkpt>
      <trkpt lat="43.27728" lon="-1.7053">
        <ele>44</ele>
        <time>2026-03-06T19:43:22.000Z</time>
      </trkpt>
      <trkpt lat="43.27725" lon="-1.70519">
        <ele>44</ele>
        <time>2026-03-06T19:43:24.000Z</time>
      </trkpt>
      <trkpt lat="43.27721" lon="-1.70507">
        <ele>44</ele>
        <time>2026-03-06T19:43:25.000Z</time>
      </trkpt>
      <trkpt lat="43.27715" lon="-1.70495">
        <ele>43</ele>
        <time>2026-03-06T19:43:27.000Z</time>
      </trkpt>
      <trkpt lat="43.27715" lon="-1.70493">
        <ele>43</ele>
        <time>2026-03-06T19:43:27.000Z</time>
      </trkpt>
      <trkpt lat="43.27709" lon="-1.70482">
        <ele>43</ele>
        <time>2026-03-06T19:43:29.000Z</time>
      </trkpt>
      <trkpt lat="43.27701" lon="-1.70467">
        <ele>42</ele>
        <time>2026-03-06T19:43:32.000Z</time>
      </trkpt>
      <trkpt lat="43.27695" lon="-1.70457">
        <ele>41</ele>
        <time>2026-03-06T19:43:33.000Z</time>
      </trkpt>
      <trkpt lat="43.27689" lon="-1.70448">
        <ele>41</ele>
        <time>2026-03-06T19:43:35.000Z</time>
      </trkpt>
      <trkpt lat="43.27682" lon="-1.70436">
        <ele>40</ele>
        <time>2026-03-06T19:43:37.000Z</time>
      </trkpt>
      <trkpt lat="43.27681" lon="-1.70435">
        <ele>40</ele>
        <time>2026-03-06T19:43:37.000Z</time>
      </trkpt>
      <trkpt lat="43.2765" lon="-1.70397">
        <ele>38</ele>
        <time>2026-03-06T19:43:44.000Z</time>
      </trkpt>
      <trkpt lat="43.2765" lon="-1.70397">
        <ele>38</ele>
        <time>2026-03-06T19:43:44.000Z</time>
      </trkpt>
      <trkpt lat="43.27644" lon="-1.70396">
        <ele>37</ele>
        <time>2026-03-06T19:43:46.000Z</time>
      </trkpt>
      <trkpt lat="43.27643" lon="-1.70395">
        <ele>37</ele>
        <time>2026-03-06T19:43:46.000Z</time>
      </trkpt>
      <trkpt lat="43.27642" lon="-1.70394">
        <ele>37</ele>
        <time>2026-03-06T19:43:46.000Z</time>
      </trkpt>
      <trkpt lat="43.27639" lon="-1.70391">
        <ele>37</ele>
        <time>2026-03-06T19:43:47.000Z</time>
      </trkpt>
      <trkpt lat="43.27634" lon="-1.70386">
        <ele>36</ele>
        <time>2026-03-06T19:43:48.000Z</time>
      </trkpt>
      <trkpt lat="43.27628" lon="-1.70378">
        <ele>36</ele>
        <time>2026-03-06T19:43:49.000Z</time>
      </trkpt>
      <trkpt lat="43.27612" lon="-1.70357">
        <ele>35</ele>
        <time>2026-03-06T19:43:53.000Z</time>
      </trkpt>
      <trkpt lat="43.27603" lon="-1.70344">
        <ele>34</ele>
        <time>2026-03-06T19:43:55.000Z</time>
      </trkpt>
      <trkpt lat="43.27595" lon="-1.70329">
        <ele>33</ele>
        <time>2026-03-06T19:43:58.000Z</time>
      </trkpt>
      <trkpt lat="43.27589" lon="-1.70317">
        <ele>32</ele>
        <time>2026-03-06T19:44:00.000Z</time>
      </trkpt>
      <trkpt lat="43.27584" lon="-1.70306">
        <ele>31</ele>
        <time>2026-03-06T19:44:01.000Z</time>
      </trkpt>
      <trkpt lat="43.2758" lon="-1.70299">
        <ele>31</ele>
        <time>2026-03-06T19:44:03.000Z</time>
      </trkpt>
      <trkpt lat="43.27576" lon="-1.70288">
        <ele>31</ele>
        <time>2026-03-06T19:44:04.000Z</time>
      </trkpt>
      <trkpt lat="43.27573" lon="-1.70278">
        <ele>31</ele>
        <time>2026-03-06T19:44:06.000Z</time>
      </trkpt>
      <trkpt lat="43.27571" lon="-1.70269">
        <ele>31</ele>
        <time>2026-03-06T19:44:07.000Z</time>
      </trkpt>
      <trkpt lat="43.2757" lon="-1.7026">
        <ele>31</ele>
        <time>2026-03-06T19:44:08.000Z</time>
      </trkpt>
      <trkpt lat="43.27568" lon="-1.70244">
        <ele>31</ele>
        <time>2026-03-06T19:44:10.000Z</time>
      </trkpt>
      <trkpt lat="43.27568" lon="-1.70244">
        <ele>31</ele>
        <time>2026-03-06T19:44:10.000Z</time>
      </trkpt>
      <trkpt lat="43.27579" lon="-1.70243">
        <ele>30</ele>
        <time>2026-03-06T19:44:12.000Z</time>
      </trkpt>
      <trkpt lat="43.27584" lon="-1.70241">
        <ele>30</ele>
        <time>2026-03-06T19:44:13.000Z</time>
      </trkpt>
      <trkpt lat="43.2759" lon="-1.70239">
        <ele>30</ele>
        <time>2026-03-06T19:44:14.000Z</time>
      </trkpt>
      <trkpt lat="43.27596" lon="-1.70232">
        <ele>31</ele>
        <time>2026-03-06T19:44:16.000Z</time>
      </trkpt>
      <trkpt lat="43.27598" lon="-1.70228">
        <ele>31</ele>
        <time>2026-03-06T19:44:16.000Z</time>
      </trkpt>
      <trkpt lat="43.27602" lon="-1.70223">
        <ele>31</ele>
        <time>2026-03-06T19:44:17.000Z</time>
      </trkpt>
      <trkpt lat="43.27604" lon="-1.70218">
        <ele>31</ele>
        <time>2026-03-06T19:44:18.000Z</time>
      </trkpt>
      <trkpt lat="43.27606" lon="-1.70212">
        <ele>31</ele>
        <time>2026-03-06T19:44:19.000Z</time>
      </trkpt>
      <trkpt lat="43.27607" lon="-1.70205">
        <ele>31</ele>
        <time>2026-03-06T19:44:20.000Z</time>
      </trkpt>
      <trkpt lat="43.27608" lon="-1.70195">
        <ele>31</ele>
        <time>2026-03-06T19:44:21.000Z</time>
      </trkpt>
      <trkpt lat="43.27609" lon="-1.70186">
        <ele>31</ele>
        <time>2026-03-06T19:44:22.000Z</time>
      </trkpt>
      <trkpt lat="43.27609" lon="-1.70179">
        <ele>30</ele>
        <time>2026-03-06T19:44:23.000Z</time>
      </trkpt>
      <trkpt lat="43.27606" lon="-1.70161">
        <ele>30</ele>
        <time>2026-03-06T19:44:25.000Z</time>
      </trkpt>
      <trkpt lat="43.27599" lon="-1.70137">
        <ele>30</ele>
        <time>2026-03-06T19:44:29.000Z</time>
      </trkpt>
      <trkpt lat="43.27596" lon="-1.70116">
        <ele>29</ele>
        <time>2026-03-06T19:44:32.000Z</time>
      </trkpt>
      <trkpt lat="43.27595" lon="-1.70096">
        <ele>29</ele>
        <time>2026-03-06T19:44:34.000Z</time>
      </trkpt>
      <trkpt lat="43.27595" lon="-1.70078">
        <ele>29</ele>
        <time>2026-03-06T19:44:36.000Z</time>
      </trkpt>
      <trkpt lat="43.27596" lon="-1.70055">
        <ele>29</ele>
        <time>2026-03-06T19:44:39.000Z</time>
      </trkpt>
      <trkpt lat="43.27599" lon="-1.70041">
        <ele>29</ele>
        <time>2026-03-06T19:44:41.000Z</time>
      </trkpt>
      <trkpt lat="43.276" lon="-1.70035">
        <ele>29</ele>
        <time>2026-03-06T19:44:42.000Z</time>
      </trkpt>
      <trkpt lat="43.27603" lon="-1.70028">
        <ele>29</ele>
        <time>2026-03-06T19:44:43.000Z</time>
      </trkpt>
      <trkpt lat="43.27605" lon="-1.70022">
        <ele>30</ele>
        <time>2026-03-06T19:44:44.000Z</time>
      </trkpt>
      <trkpt lat="43.27607" lon="-1.70017">
        <ele>30</ele>
        <time>2026-03-06T19:44:45.000Z</time>
      </trkpt>
      <trkpt lat="43.27609" lon="-1.70012">
        <ele>30</ele>
        <time>2026-03-06T19:44:46.000Z</time>
      </trkpt>
      <trkpt lat="43.27618" lon="-1.69995">
        <ele>30</ele>
        <time>2026-03-06T19:44:48.000Z</time>
      </trkpt>
      <trkpt lat="43.27623" lon="-1.69988">
        <ele>30</ele>
        <time>2026-03-06T19:44:49.000Z</time>
      </trkpt>
      <trkpt lat="43.27629" lon="-1.69983">
        <ele>30</ele>
        <time>2026-03-06T19:44:51.000Z</time>
      </trkpt>
      <trkpt lat="43.27634" lon="-1.69978">
        <ele>30</ele>
        <time>2026-03-06T19:44:52.000Z</time>
      </trkpt>
      <trkpt lat="43.27643" lon="-1.69972">
        <ele>31</ele>
        <time>2026-03-06T19:44:54.000Z</time>
      </trkpt>
      <trkpt lat="43.27651" lon="-1.69967">
        <ele>31</ele>
        <time>2026-03-06T19:44:55.000Z</time>
      </trkpt>
      <trkpt lat="43.27665" lon="-1.69961">
        <ele>31</ele>
        <time>2026-03-06T19:44:58.000Z</time>
      </trkpt>
      <trkpt lat="43.27676" lon="-1.69963">
        <ele>32</ele>
        <time>2026-03-06T19:45:00.000Z</time>
      </trkpt>
      <trkpt lat="43.27719" lon="-1.69972">
        <ele>33</ele>
        <time>2026-03-06T19:45:08.000Z</time>
      </trkpt>
      <trkpt lat="43.2773" lon="-1.69975">
        <ele>33</ele>
        <time>2026-03-06T19:45:10.000Z</time>
      </trkpt>
      <trkpt lat="43.27801" lon="-1.69992">
        <ele>34</ele>
        <time>2026-03-06T19:45:22.000Z</time>
      </trkpt>
      <trkpt lat="43.27815" lon="-1.69996">
        <ele>34</ele>
        <time>2026-03-06T19:45:25.000Z</time>
      </trkpt>
      <trkpt lat="43.27824" lon="-1.69999">
        <ele>34</ele>
        <time>2026-03-06T19:45:27.000Z</time>
      </trkpt>
      <trkpt lat="43.27828" lon="-1.70002">
        <ele>34</ele>
        <time>2026-03-06T19:45:27.000Z</time>
      </trkpt>
      <trkpt lat="43.27832" lon="-1.70005">
        <ele>35</ele>
        <time>2026-03-06T19:45:28.000Z</time>
      </trkpt>
      <trkpt lat="43.27836" lon="-1.70011">
        <ele>37</ele>
        <time>2026-03-06T19:45:29.000Z</time>
      </trkpt>
      <trkpt lat="43.27836" lon="-1.70011">
        <ele>37</ele>
        <time>2026-03-06T19:45:29.000Z</time>
      </trkpt>
      <trkpt lat="43.27837" lon="-1.70011">
        <ele>37</ele>
        <time>2026-03-06T19:45:29.000Z</time>
      </trkpt>
      <trkpt lat="43.27837" lon="-1.7001">
        <ele>36</ele>
        <time>2026-03-06T19:45:30.000Z</time>
      </trkpt>
      <trkpt lat="43.27838" lon="-1.7001">
        <ele>37</ele>
        <time>2026-03-06T19:45:30.000Z</time>
      </trkpt>
      <trkpt lat="43.27839" lon="-1.7001">
        <ele>37</ele>
        <time>2026-03-06T19:45:30.000Z</time>
      </trkpt>
      <trkpt lat="43.2784" lon="-1.7001">
        <ele>37</ele>
        <time>2026-03-06T19:45:30.000Z</time>
      </trkpt>
      <trkpt lat="43.27841" lon="-1.7001">
        <ele>37</ele>
        <time>2026-03-06T19:45:30.000Z</time>
      </trkpt>
      <trkpt lat="43.27842" lon="-1.7001">
        <ele>37</ele>
        <time>2026-03-06T19:45:30.000Z</time>
      </trkpt>
      <trkpt lat="43.27843" lon="-1.70011">
        <ele>38</ele>
        <time>2026-03-06T19:45:31.000Z</time>
      </trkpt>
      <trkpt lat="43.27844" lon="-1.70011">
        <ele>38</ele>
        <time>2026-03-06T19:45:31.000Z</time>
      </trkpt>
      <trkpt lat="43.27844" lon="-1.70012">
        <ele>38</ele>
        <time>2026-03-06T19:45:31.000Z</time>
      </trkpt>
      <trkpt lat="43.27845" lon="-1.70012">
        <ele>38</ele>
        <time>2026-03-06T19:45:31.000Z</time>
      </trkpt>
      <trkpt lat="43.27845" lon="-1.70013">
        <ele>38</ele>
        <time>2026-03-06T19:45:31.000Z</time>
      </trkpt>
      <trkpt lat="43.27846" lon="-1.70014">
        <ele>39</ele>
        <time>2026-03-06T19:45:31.000Z</time>
      </trkpt>
      <trkpt lat="43.27846" lon="-1.70015">
        <ele>39</ele>
        <time>2026-03-06T19:45:32.000Z</time>
      </trkpt>
      <trkpt lat="43.27847" lon="-1.70016">
        <ele>39</ele>
        <time>2026-03-06T19:45:32.000Z</time>
      </trkpt>
      <trkpt lat="43.27847" lon="-1.70017">
        <ele>39</ele>
        <time>2026-03-06T19:45:32.000Z</time>
      </trkpt>
      <trkpt lat="43.27847" lon="-1.70018">
        <ele>40</ele>
        <time>2026-03-06T19:45:32.000Z</time>
      </trkpt>
      <trkpt lat="43.27847" lon="-1.70019">
        <ele>40</ele>
        <time>2026-03-06T19:45:32.000Z</time>
      </trkpt>
      <trkpt lat="43.27857" lon="-1.70013">
        <ele>40</ele>
        <time>2026-03-06T19:45:34.000Z</time>
      </trkpt>
      <trkpt lat="43.27863" lon="-1.70009">
        <ele>40</ele>
        <time>2026-03-06T19:45:35.000Z</time>
      </trkpt>
      <trkpt lat="43.27868" lon="-1.70005">
        <ele>40</ele>
        <time>2026-03-06T19:45:36.000Z</time>
      </trkpt>
      <trkpt lat="43.27895" lon="-1.69978">
        <ele>40</ele>
        <time>2026-03-06T19:45:42.000Z</time>
      </trkpt>
      <trkpt lat="43.27904" lon="-1.6997">
        <ele>40</ele>
        <time>2026-03-06T19:45:44.000Z</time>
      </trkpt>
      <trkpt lat="43.2791" lon="-1.69966">
        <ele>40</ele>
        <time>2026-03-06T19:45:45.000Z</time>
      </trkpt>
      <trkpt lat="43.27917" lon="-1.69963">
        <ele>40</ele>
        <time>2026-03-06T19:45:47.000Z</time>
      </trkpt>
      <trkpt lat="43.27922" lon="-1.69962">
        <ele>40</ele>
        <time>2026-03-06T19:45:48.000Z</time>
      </trkpt>
      <trkpt lat="43.2793" lon="-1.6996">
        <ele>39</ele>
        <time>2026-03-06T19:45:49.000Z</time>
      </trkpt>
      <trkpt lat="43.27935" lon="-1.6996">
        <ele>39</ele>
        <time>2026-03-06T19:45:50.000Z</time>
      </trkpt>
      <trkpt lat="43.2794" lon="-1.69961">
        <ele>39</ele>
        <time>2026-03-06T19:45:51.000Z</time>
      </trkpt>
      <trkpt lat="43.27945" lon="-1.69962">
        <ele>39</ele>
        <time>2026-03-06T19:45:52.000Z</time>
      </trkpt>
      <trkpt lat="43.27949" lon="-1.69963">
        <ele>40</ele>
        <time>2026-03-06T19:45:52.000Z</time>
      </trkpt>
      <trkpt lat="43.27957" lon="-1.69967">
        <ele>40</ele>
        <time>2026-03-06T19:45:54.000Z</time>
      </trkpt>
      <trkpt lat="43.27967" lon="-1.69975">
        <ele>41</ele>
        <time>2026-03-06T19:45:56.000Z</time>
      </trkpt>
      <trkpt lat="43.27985" lon="-1.69994">
        <ele>44</ele>
        <time>2026-03-06T19:46:00.000Z</time>
      </trkpt>
      <trkpt lat="43.27993" lon="-1.70002">
        <ele>45</ele>
        <time>2026-03-06T19:46:02.000Z</time>
      </trkpt>
      <trkpt lat="43.28006" lon="-1.70011">
        <ele>48</ele>
        <time>2026-03-06T19:46:04.000Z</time>
      </trkpt>
      <trkpt lat="43.28021" lon="-1.70018">
        <ele>49</ele>
        <time>2026-03-06T19:46:07.000Z</time>
      </trkpt>
      <trkpt lat="43.28031" lon="-1.70021">
        <ele>49</ele>
        <time>2026-03-06T19:46:09.000Z</time>
      </trkpt>
      <trkpt lat="43.28041" lon="-1.70023">
        <ele>49</ele>
        <time>2026-03-06T19:46:11.000Z</time>
      </trkpt>
      <trkpt lat="43.28051" lon="-1.70025">
        <ele>48</ele>
        <time>2026-03-06T19:46:13.000Z</time>
      </trkpt>
      <trkpt lat="43.2806" lon="-1.70027">
        <ele>48</ele>
        <time>2026-03-06T19:46:14.000Z</time>
      </trkpt>
      <trkpt lat="43.2807" lon="-1.70027">
        <ele>47</ele>
        <time>2026-03-06T19:46:16.000Z</time>
      </trkpt>
      <trkpt lat="43.28082" lon="-1.70026">
        <ele>45</ele>
        <time>2026-03-06T19:46:18.000Z</time>
      </trkpt>
      <trkpt lat="43.28088" lon="-1.70024">
        <ele>45</ele>
        <time>2026-03-06T19:46:19.000Z</time>
      </trkpt>
      <trkpt lat="43.28095" lon="-1.7002">
        <ele>44</ele>
        <time>2026-03-06T19:46:21.000Z</time>
      </trkpt>
      <trkpt lat="43.28102" lon="-1.70016">
        <ele>43</ele>
        <time>2026-03-06T19:46:22.000Z</time>
      </trkpt>
      <trkpt lat="43.28108" lon="-1.70009">
        <ele>41</ele>
        <time>2026-03-06T19:46:23.000Z</time>
      </trkpt>
      <trkpt lat="43.28113" lon="-1.70003">
        <ele>40</ele>
        <time>2026-03-06T19:46:25.000Z</time>
      </trkpt>
      <trkpt lat="43.28119" lon="-1.69993">
        <ele>39</ele>
        <time>2026-03-06T19:46:26.000Z</time>
      </trkpt>
      <trkpt lat="43.28126" lon="-1.69983">
        <ele>38</ele>
        <time>2026-03-06T19:46:28.000Z</time>
      </trkpt>
      <trkpt lat="43.28131" lon="-1.69973">
        <ele>38</ele>
        <time>2026-03-06T19:46:30.000Z</time>
      </trkpt>
      <trkpt lat="43.28137" lon="-1.69963">
        <ele>37</ele>
        <time>2026-03-06T19:46:31.000Z</time>
      </trkpt>
      <trkpt lat="43.28143" lon="-1.6995">
        <ele>36</ele>
        <time>2026-03-06T19:46:33.000Z</time>
      </trkpt>
      <trkpt lat="43.28149" lon="-1.69937">
        <ele>35</ele>
        <time>2026-03-06T19:46:35.000Z</time>
      </trkpt>
      <trkpt lat="43.28154" lon="-1.69925">
        <ele>34</ele>
        <time>2026-03-06T19:46:37.000Z</time>
      </trkpt>
      <trkpt lat="43.28159" lon="-1.69914">
        <ele>33</ele>
        <time>2026-03-06T19:46:39.000Z</time>
      </trkpt>
      <trkpt lat="43.28162" lon="-1.69902">
        <ele>33</ele>
        <time>2026-03-06T19:46:40.000Z</time>
      </trkpt>
      <trkpt lat="43.28165" lon="-1.69891">
        <ele>33</ele>
        <time>2026-03-06T19:46:42.000Z</time>
      </trkpt>
      <trkpt lat="43.28169" lon="-1.69874">
        <ele>33</ele>
        <time>2026-03-06T19:46:44.000Z</time>
      </trkpt>
      <trkpt lat="43.28171" lon="-1.69858">
        <ele>33</ele>
        <time>2026-03-06T19:46:46.000Z</time>
      </trkpt>
      <trkpt lat="43.28176" lon="-1.69828">
        <ele>32</ele>
        <time>2026-03-06T19:46:50.000Z</time>
      </trkpt>
      <trkpt lat="43.28181" lon="-1.69798">
        <ele>33</ele>
        <time>2026-03-06T19:46:54.000Z</time>
      </trkpt>
      <trkpt lat="43.28189" lon="-1.69752">
        <ele>34</ele>
        <time>2026-03-06T19:47:00.000Z</time>
      </trkpt>
      <trkpt lat="43.28196" lon="-1.69706">
        <ele>35</ele>
        <time>2026-03-06T19:47:07.000Z</time>
      </trkpt>
      <trkpt lat="43.28203" lon="-1.69668">
        <ele>35</ele>
        <time>2026-03-06T19:47:12.000Z</time>
      </trkpt>
      <trkpt lat="43.28209" lon="-1.6963">
        <ele>35</ele>
        <time>2026-03-06T19:47:17.000Z</time>
      </trkpt>
      <trkpt lat="43.28213" lon="-1.69607">
        <ele>36</ele>
        <time>2026-03-06T19:47:20.000Z</time>
      </trkpt>
      <trkpt lat="43.28216" lon="-1.69584">
        <ele>36</ele>
        <time>2026-03-06T19:47:23.000Z</time>
      </trkpt>
      <trkpt lat="43.28219" lon="-1.69559">
        <ele>35</ele>
        <time>2026-03-06T19:47:26.000Z</time>
      </trkpt>
      <trkpt lat="43.28223" lon="-1.6953">
        <ele>34</ele>
        <time>2026-03-06T19:47:30.000Z</time>
      </trkpt>
      <trkpt lat="43.28227" lon="-1.69497">
        <ele>32</ele>
        <time>2026-03-06T19:47:34.000Z</time>
      </trkpt>
      <trkpt lat="43.28228" lon="-1.69487">
        <ele>32</ele>
        <time>2026-03-06T19:47:35.000Z</time>
      </trkpt>
      <trkpt lat="43.2823" lon="-1.69474">
        <ele>32</ele>
        <time>2026-03-06T19:47:37.000Z</time>
      </trkpt>
      <trkpt lat="43.28231" lon="-1.69463">
        <ele>32</ele>
        <time>2026-03-06T19:47:39.000Z</time>
      </trkpt>
      <trkpt lat="43.28232" lon="-1.6945">
        <ele>32</ele>
        <time>2026-03-06T19:47:40.000Z</time>
      </trkpt>
      <trkpt lat="43.28234" lon="-1.69437">
        <ele>33</ele>
        <time>2026-03-06T19:47:42.000Z</time>
      </trkpt>
      <trkpt lat="43.28235" lon="-1.69425">
        <ele>33</ele>
        <time>2026-03-06T19:47:44.000Z</time>
      </trkpt>
      <trkpt lat="43.28236" lon="-1.69407">
        <ele>33</ele>
        <time>2026-03-06T19:47:46.000Z</time>
      </trkpt>
      <trkpt lat="43.28236" lon="-1.6939">
        <ele>34</ele>
        <time>2026-03-06T19:47:48.000Z</time>
      </trkpt>
      <trkpt lat="43.28235" lon="-1.69361">
        <ele>36</ele>
        <time>2026-03-06T19:47:52.000Z</time>
      </trkpt>
      <trkpt lat="43.28233" lon="-1.69318">
        <ele>40</ele>
        <time>2026-03-06T19:47:58.000Z</time>
      </trkpt>
      <trkpt lat="43.28231" lon="-1.69286">
        <ele>44</ele>
        <time>2026-03-06T19:48:02.000Z</time>
      </trkpt>
      <trkpt lat="43.28231" lon="-1.69286">
        <ele>44</ele>
        <time>2026-03-06T19:48:02.000Z</time>
      </trkpt>
      <trkpt lat="43.28231" lon="-1.69276">
        <ele>45</ele>
        <time>2026-03-06T19:48:03.000Z</time>
      </trkpt>
      <trkpt lat="43.28229" lon="-1.69259">
        <ele>47</ele>
        <time>2026-03-06T19:48:05.000Z</time>
      </trkpt>
      <trkpt lat="43.28226" lon="-1.69243">
        <ele>48</ele>
        <time>2026-03-06T19:48:07.000Z</time>
      </trkpt>
      <trkpt lat="43.28226" lon="-1.6924">
        <ele>48</ele>
        <time>2026-03-06T19:48:08.000Z</time>
      </trkpt>
      <trkpt lat="43.28215" lon="-1.69207">
        <ele>48</ele>
        <time>2026-03-06T19:48:12.000Z</time>
      </trkpt>
      <trkpt lat="43.28212" lon="-1.69199">
        <ele>48</ele>
        <time>2026-03-06T19:48:14.000Z</time>
      </trkpt>
      <trkpt lat="43.28209" lon="-1.6919">
        <ele>47</ele>
        <time>2026-03-06T19:48:15.000Z</time>
      </trkpt>
      <trkpt lat="43.28207" lon="-1.69183">
        <ele>47</ele>
        <time>2026-03-06T19:48:16.000Z</time>
      </trkpt>
      <trkpt lat="43.28205" lon="-1.69173">
        <ele>47</ele>
        <time>2026-03-06T19:48:17.000Z</time>
      </trkpt>
      <trkpt lat="43.28204" lon="-1.69162">
        <ele>48</ele>
        <time>2026-03-06T19:48:19.000Z</time>
      </trkpt>
      <trkpt lat="43.28203" lon="-1.69144">
        <ele>48</ele>
        <time>2026-03-06T19:48:21.000Z</time>
      </trkpt>
      <trkpt lat="43.28203" lon="-1.69126">
        <ele>48</ele>
        <time>2026-03-06T19:48:23.000Z</time>
      </trkpt>
      <trkpt lat="43.28202" lon="-1.69098">
        <ele>49</ele>
        <time>2026-03-06T19:48:27.000Z</time>
      </trkpt>
      <trkpt lat="43.28202" lon="-1.6907">
        <ele>49</ele>
        <time>2026-03-06T19:48:31.000Z</time>
      </trkpt>
      <trkpt lat="43.28202" lon="-1.69056">
        <ele>50</ele>
        <time>2026-03-06T19:48:32.000Z</time>
      </trkpt>
      <trkpt lat="43.28201" lon="-1.69042">
        <ele>50</ele>
        <time>2026-03-06T19:48:34.000Z</time>
      </trkpt>
      <trkpt lat="43.28199" lon="-1.69033">
        <ele>50</ele>
        <time>2026-03-06T19:48:35.000Z</time>
      </trkpt>
      <trkpt lat="43.28197" lon="-1.69024">
        <ele>49</ele>
        <time>2026-03-06T19:48:37.000Z</time>
      </trkpt>
      <trkpt lat="43.28196" lon="-1.69019">
        <ele>49</ele>
        <time>2026-03-06T19:48:37.000Z</time>
      </trkpt>
      <trkpt lat="43.28194" lon="-1.69014">
        <ele>49</ele>
        <time>2026-03-06T19:48:38.000Z</time>
      </trkpt>
      <trkpt lat="43.28191" lon="-1.69004">
        <ele>48</ele>
        <time>2026-03-06T19:48:39.000Z</time>
      </trkpt>
      <trkpt lat="43.28185" lon="-1.6899">
        <ele>47</ele>
        <time>2026-03-06T19:48:42.000Z</time>
      </trkpt>
      <trkpt lat="43.28182" lon="-1.68984">
        <ele>46</ele>
        <time>2026-03-06T19:48:42.000Z</time>
      </trkpt>
      <trkpt lat="43.28178" lon="-1.68975">
        <ele>46</ele>
        <time>2026-03-06T19:48:44.000Z</time>
      </trkpt>
      <trkpt lat="43.28174" lon="-1.68966">
        <ele>45</ele>
        <time>2026-03-06T19:48:45.000Z</time>
      </trkpt>
      <trkpt lat="43.2817" lon="-1.68957">
        <ele>45</ele>
        <time>2026-03-06T19:48:47.000Z</time>
      </trkpt>
      <trkpt lat="43.28166" lon="-1.68947">
        <ele>44</ele>
        <time>2026-03-06T19:48:48.000Z</time>
      </trkpt>
      <trkpt lat="43.28163" lon="-1.68937">
        <ele>45</ele>
        <time>2026-03-06T19:48:49.000Z</time>
      </trkpt>
      <trkpt lat="43.28162" lon="-1.68932">
        <ele>45</ele>
        <time>2026-03-06T19:48:50.000Z</time>
      </trkpt>
      <trkpt lat="43.28159" lon="-1.6892">
        <ele>46</ele>
        <time>2026-03-06T19:48:52.000Z</time>
      </trkpt>
      <trkpt lat="43.28156" lon="-1.68909">
        <ele>46</ele>
        <time>2026-03-06T19:48:53.000Z</time>
      </trkpt>
      <trkpt lat="43.28155" lon="-1.68905">
        <ele>45</ele>
        <time>2026-03-06T19:48:54.000Z</time>
      </trkpt>
      <trkpt lat="43.28154" lon="-1.68902">
        <ele>45</ele>
        <time>2026-03-06T19:48:54.000Z</time>
      </trkpt>
      <trkpt lat="43.2815" lon="-1.68891">
        <ele>45</ele>
        <time>2026-03-06T19:48:56.000Z</time>
      </trkpt>
      <trkpt lat="43.28135" lon="-1.68813">
        <ele>44</ele>
        <time>2026-03-06T19:49:06.000Z</time>
      </trkpt>
      <trkpt lat="43.28135" lon="-1.68812">
        <ele>44</ele>
        <time>2026-03-06T19:49:06.000Z</time>
      </trkpt>
      <trkpt lat="43.28133" lon="-1.68802">
        <ele>44</ele>
        <time>2026-03-06T19:49:08.000Z</time>
      </trkpt>
      <trkpt lat="43.28131" lon="-1.68789">
        <ele>45</ele>
        <time>2026-03-06T19:49:10.000Z</time>
      </trkpt>
      <trkpt lat="43.28129" lon="-1.68776">
        <ele>45</ele>
        <time>2026-03-06T19:49:11.000Z</time>
      </trkpt>
      <trkpt lat="43.28128" lon="-1.6877">
        <ele>45</ele>
        <time>2026-03-06T19:49:12.000Z</time>
      </trkpt>
      <trkpt lat="43.28127" lon="-1.68767">
        <ele>45</ele>
        <time>2026-03-06T19:49:12.000Z</time>
      </trkpt>
      <trkpt lat="43.28127" lon="-1.68765">
        <ele>46</ele>
        <time>2026-03-06T19:49:13.000Z</time>
      </trkpt>
      <trkpt lat="43.28124" lon="-1.68762">
        <ele>45</ele>
        <time>2026-03-06T19:49:13.000Z</time>
      </trkpt>
      <trkpt lat="43.28122" lon="-1.6876">
        <ele>45</ele>
        <time>2026-03-06T19:49:14.000Z</time>
      </trkpt>
      <trkpt lat="43.2812" lon="-1.68758">
        <ele>45</ele>
        <time>2026-03-06T19:49:14.000Z</time>
      </trkpt>
      <trkpt lat="43.28117" lon="-1.68756">
        <ele>44</ele>
        <time>2026-03-06T19:49:15.000Z</time>
      </trkpt>
      <trkpt lat="43.28111" lon="-1.68754">
        <ele>43</ele>
        <time>2026-03-06T19:49:16.000Z</time>
      </trkpt>
      <trkpt lat="43.28108" lon="-1.68753">
        <ele>43</ele>
        <time>2026-03-06T19:49:16.000Z</time>
      </trkpt>
      <trkpt lat="43.28104" lon="-1.68753">
        <ele>42</ele>
        <time>2026-03-06T19:49:17.000Z</time>
      </trkpt>
      <trkpt lat="43.28099" lon="-1.68753">
        <ele>41</ele>
        <time>2026-03-06T19:49:18.000Z</time>
      </trkpt>
      <trkpt lat="43.28095" lon="-1.68754">
        <ele>41</ele>
        <time>2026-03-06T19:49:19.000Z</time>
      </trkpt>
      <trkpt lat="43.28092" lon="-1.68755">
        <ele>40</ele>
        <time>2026-03-06T19:49:19.000Z</time>
      </trkpt>
      <trkpt lat="43.28058" lon="-1.6877">
        <ele>38</ele>
        <time>2026-03-06T19:49:26.000Z</time>
      </trkpt>
      <trkpt lat="43.28054" lon="-1.68773">
        <ele>38</ele>
        <time>2026-03-06T19:49:27.000Z</time>
      </trkpt>
      <trkpt lat="43.28043" lon="-1.6878">
        <ele>38</ele>
        <time>2026-03-06T19:49:29.000Z</time>
      </trkpt>
      <trkpt lat="43.28038" lon="-1.68782">
        <ele>38</ele>
        <time>2026-03-06T19:49:30.000Z</time>
      </trkpt>
      <trkpt lat="43.28017" lon="-1.68795">
        <ele>37</ele>
        <time>2026-03-06T19:49:34.000Z</time>
      </trkpt>
      <trkpt lat="43.28005" lon="-1.68803">
        <ele>37</ele>
        <time>2026-03-06T19:49:36.000Z</time>
      </trkpt>
      <trkpt lat="43.27996" lon="-1.68809">
        <ele>37</ele>
        <time>2026-03-06T19:49:38.000Z</time>
      </trkpt>
      <trkpt lat="43.27996" lon="-1.68809">
        <ele>37</ele>
        <time>2026-03-06T19:49:38.000Z</time>
      </trkpt>
      <trkpt lat="43.27994" lon="-1.68782">
        <ele>38</ele>
        <time>2026-03-06T19:49:41.000Z</time>
      </trkpt>
      <trkpt lat="43.27994" lon="-1.6877">
        <ele>38</ele>
        <time>2026-03-06T19:49:43.000Z</time>
      </trkpt>
      <trkpt lat="43.27995" lon="-1.6876">
        <ele>39</ele>
        <time>2026-03-06T19:49:44.000Z</time>
      </trkpt>
      <trkpt lat="43.27997" lon="-1.6874">
        <ele>40</ele>
        <time>2026-03-06T19:49:47.000Z</time>
      </trkpt>
      <trkpt lat="43.27998" lon="-1.68733">
        <ele>40</ele>
        <time>2026-03-06T19:49:48.000Z</time>
      </trkpt>
      <trkpt lat="43.27998" lon="-1.68727">
        <ele>40</ele>
        <time>2026-03-06T19:49:49.000Z</time>
      </trkpt>
      <trkpt lat="43.27999" lon="-1.68725">
        <ele>40</ele>
        <time>2026-03-06T19:49:49.000Z</time>
      </trkpt>
      <trkpt lat="43.28005" lon="-1.68671">
        <ele>44</ele>
        <time>2026-03-06T19:49:56.000Z</time>
      </trkpt>
      <trkpt lat="43.28007" lon="-1.68661">
        <ele>44</ele>
        <time>2026-03-06T19:49:57.000Z</time>
      </trkpt>
      <trkpt lat="43.28009" lon="-1.68652">
        <ele>44</ele>
        <time>2026-03-06T19:49:59.000Z</time>
      </trkpt>
      <trkpt lat="43.2801" lon="-1.68644">
        <ele>44</ele>
        <time>2026-03-06T19:50:00.000Z</time>
      </trkpt>
      <trkpt lat="43.28011" lon="-1.68635">
        <ele>44</ele>
        <time>2026-03-06T19:50:01.000Z</time>
      </trkpt>
      <trkpt lat="43.28012" lon="-1.68627">
        <ele>44</ele>
        <time>2026-03-06T19:50:02.000Z</time>
      </trkpt>
      <trkpt lat="43.28013" lon="-1.68618">
        <ele>44</ele>
        <time>2026-03-06T19:50:03.000Z</time>
      </trkpt>
      <trkpt lat="43.28014" lon="-1.68608">
        <ele>44</ele>
        <time>2026-03-06T19:50:04.000Z</time>
      </trkpt>
      <trkpt lat="43.28016" lon="-1.68597">
        <ele>44</ele>
        <time>2026-03-06T19:50:06.000Z</time>
      </trkpt>
      <trkpt lat="43.28018" lon="-1.68586">
        <ele>44</ele>
        <time>2026-03-06T19:50:07.000Z</time>
      </trkpt>
      <trkpt lat="43.2802" lon="-1.68575">
        <ele>44</ele>
        <time>2026-03-06T19:50:09.000Z</time>
      </trkpt>
      <trkpt lat="43.28021" lon="-1.68564">
        <ele>44</ele>
        <time>2026-03-06T19:50:10.000Z</time>
      </trkpt>
      <trkpt lat="43.28022" lon="-1.68556">
        <ele>45</ele>
        <time>2026-03-06T19:50:11.000Z</time>
      </trkpt>
      <trkpt lat="43.28023" lon="-1.68547">
        <ele>45</ele>
        <time>2026-03-06T19:50:12.000Z</time>
      </trkpt>
      <trkpt lat="43.28025" lon="-1.68538">
        <ele>45</ele>
        <time>2026-03-06T19:50:14.000Z</time>
      </trkpt>
      <trkpt lat="43.28026" lon="-1.68531">
        <ele>45</ele>
        <time>2026-03-06T19:50:15.000Z</time>
      </trkpt>
      <trkpt lat="43.28029" lon="-1.68478">
        <ele>46</ele>
        <time>2026-03-06T19:50:21.000Z</time>
      </trkpt>
      <trkpt lat="43.28034" lon="-1.6843">
        <ele>47</ele>
        <time>2026-03-06T19:50:28.000Z</time>
      </trkpt>
      <trkpt lat="43.28034" lon="-1.68427">
        <ele>47</ele>
        <time>2026-03-06T19:50:28.000Z</time>
      </trkpt>
      <trkpt lat="43.28035" lon="-1.68421">
        <ele>47</ele>
        <time>2026-03-06T19:50:29.000Z</time>
      </trkpt>
      <trkpt lat="43.28034" lon="-1.6841">
        <ele>47</ele>
        <time>2026-03-06T19:50:30.000Z</time>
      </trkpt>
      <trkpt lat="43.28032" lon="-1.68386">
        <ele>47</ele>
        <time>2026-03-06T19:50:33.000Z</time>
      </trkpt>
      <trkpt lat="43.2803" lon="-1.68369">
        <ele>47</ele>
        <time>2026-03-06T19:50:36.000Z</time>
      </trkpt>
      <trkpt lat="43.28029" lon="-1.68361">
        <ele>47</ele>
        <time>2026-03-06T19:50:37.000Z</time>
      </trkpt>
      <trkpt lat="43.2803" lon="-1.68351">
        <ele>47</ele>
        <time>2026-03-06T19:50:38.000Z</time>
      </trkpt>
      <trkpt lat="43.28031" lon="-1.6834">
        <ele>47</ele>
        <time>2026-03-06T19:50:39.000Z</time>
      </trkpt>
      <trkpt lat="43.28036" lon="-1.68323">
        <ele>46</ele>
        <time>2026-03-06T19:50:42.000Z</time>
      </trkpt>
      <trkpt lat="43.28061" lon="-1.68243">
        <ele>42</ele>
        <time>2026-03-06T19:50:53.000Z</time>
      </trkpt>
      <trkpt lat="43.2806" lon="-1.68242">
        <ele>43</ele>
        <time>2026-03-06T19:50:53.000Z</time>
      </trkpt>
      <trkpt lat="43.2806" lon="-1.68241">
        <ele>43</ele>
        <time>2026-03-06T19:50:53.000Z</time>
      </trkpt>
      <trkpt lat="43.28059" lon="-1.68241">
        <ele>43</ele>
        <time>2026-03-06T19:50:54.000Z</time>
      </trkpt>
      <trkpt lat="43.28059" lon="-1.6824">
        <ele>43</ele>
        <time>2026-03-06T19:50:54.000Z</time>
      </trkpt>
      <trkpt lat="43.28059" lon="-1.68239">
        <ele>43</ele>
        <time>2026-03-06T19:50:54.000Z</time>
      </trkpt>
      <trkpt lat="43.28058" lon="-1.68239">
        <ele>43</ele>
        <time>2026-03-06T19:50:54.000Z</time>
      </trkpt>
      <trkpt lat="43.28058" lon="-1.68238">
        <ele>43</ele>
        <time>2026-03-06T19:50:54.000Z</time>
      </trkpt>
      <trkpt lat="43.28058" lon="-1.68237">
        <ele>43</ele>
        <time>2026-03-06T19:50:54.000Z</time>
      </trkpt>
      <trkpt lat="43.28058" lon="-1.68236">
        <ele>43</ele>
        <time>2026-03-06T19:50:54.000Z</time>
      </trkpt>
      <trkpt lat="43.28058" lon="-1.68235">
        <ele>43</ele>
        <time>2026-03-06T19:50:55.000Z</time>
      </trkpt>
      <trkpt lat="43.28058" lon="-1.68234">
        <ele>43</ele>
        <time>2026-03-06T19:50:55.000Z</time>
      </trkpt>
      <trkpt lat="43.28059" lon="-1.68234">
        <ele>43</ele>
        <time>2026-03-06T19:50:55.000Z</time>
      </trkpt>
      <trkpt lat="43.28059" lon="-1.68233">
        <ele>43</ele>
        <time>2026-03-06T19:50:55.000Z</time>
      </trkpt>
      <trkpt lat="43.28059" lon="-1.68232">
        <ele>43</ele>
        <time>2026-03-06T19:50:55.000Z</time>
      </trkpt>
      <trkpt lat="43.28059" lon="-1.68231">
        <ele>43</ele>
        <time>2026-03-06T19:50:55.000Z</time>
      </trkpt>
      <trkpt lat="43.2806" lon="-1.68231">
        <ele>43</ele>
        <time>2026-03-06T19:50:55.000Z</time>
      </trkpt>
      <trkpt lat="43.2806" lon="-1.6823">
        <ele>43</ele>
        <time>2026-03-06T19:50:56.000Z</time>
      </trkpt>
      <trkpt lat="43.28061" lon="-1.6823">
        <ele>43</ele>
        <time>2026-03-06T19:50:56.000Z</time>
      </trkpt>
      <trkpt lat="43.28061" lon="-1.68229">
        <ele>43</ele>
        <time>2026-03-06T19:50:56.000Z</time>
      </trkpt>
      <trkpt lat="43.28062" lon="-1.68229">
        <ele>43</ele>
        <time>2026-03-06T19:50:56.000Z</time>
      </trkpt>
      <trkpt lat="43.28063" lon="-1.68229">
        <ele>42</ele>
        <time>2026-03-06T19:50:56.000Z</time>
      </trkpt>
      <trkpt lat="43.28063" lon="-1.68228">
        <ele>42</ele>
        <time>2026-03-06T19:50:56.000Z</time>
      </trkpt>
      <trkpt lat="43.28064" lon="-1.68228">
        <ele>42</ele>
        <time>2026-03-06T19:50:57.000Z</time>
      </trkpt>
      <trkpt lat="43.28065" lon="-1.68228">
        <ele>42</ele>
        <time>2026-03-06T19:50:57.000Z</time>
      </trkpt>
      <trkpt lat="43.28065" lon="-1.68229">
        <ele>42</ele>
        <time>2026-03-06T19:50:57.000Z</time>
      </trkpt>
      <trkpt lat="43.28066" lon="-1.68224">
        <ele>42</ele>
        <time>2026-03-06T19:50:58.000Z</time>
      </trkpt>
      <trkpt lat="43.28069" lon="-1.68215">
        <ele>42</ele>
        <time>2026-03-06T19:50:59.000Z</time>
      </trkpt>
      <trkpt lat="43.28072" lon="-1.68207">
        <ele>42</ele>
        <time>2026-03-06T19:51:00.000Z</time>
      </trkpt>
      <trkpt lat="43.28074" lon="-1.68199">
        <ele>42</ele>
        <time>2026-03-06T19:51:01.000Z</time>
      </trkpt>
      <trkpt lat="43.28077" lon="-1.6819">
        <ele>42</ele>
        <time>2026-03-06T19:51:02.000Z</time>
      </trkpt>
      <trkpt lat="43.2808" lon="-1.68182">
        <ele>42</ele>
        <time>2026-03-06T19:51:04.000Z</time>
      </trkpt>
      <trkpt lat="43.28082" lon="-1.68173">
        <ele>42</ele>
        <time>2026-03-06T19:51:05.000Z</time>
      </trkpt>
      <trkpt lat="43.28084" lon="-1.68165">
        <ele>42</ele>
        <time>2026-03-06T19:51:06.000Z</time>
      </trkpt>
      <trkpt lat="43.28088" lon="-1.68153">
        <ele>42</ele>
        <time>2026-03-06T19:51:08.000Z</time>
      </trkpt>
      <trkpt lat="43.28091" lon="-1.6814">
        <ele>42</ele>
        <time>2026-03-06T19:51:09.000Z</time>
      </trkpt>
      <trkpt lat="43.28093" lon="-1.68132">
        <ele>42</ele>
        <time>2026-03-06T19:51:10.000Z</time>
      </trkpt>
      <trkpt lat="43.28097" lon="-1.68119">
        <ele>42</ele>
        <time>2026-03-06T19:51:12.000Z</time>
      </trkpt>
      <trkpt lat="43.28103" lon="-1.6811">
        <ele>42</ele>
        <time>2026-03-06T19:51:14.000Z</time>
      </trkpt>
      <trkpt lat="43.28106" lon="-1.68106">
        <ele>42</ele>
        <time>2026-03-06T19:51:15.000Z</time>
      </trkpt>
      <trkpt lat="43.28112" lon="-1.68101">
        <ele>42</ele>
        <time>2026-03-06T19:51:16.000Z</time>
      </trkpt>
      <trkpt lat="43.28118" lon="-1.68096">
        <ele>42</ele>
        <time>2026-03-06T19:51:17.000Z</time>
      </trkpt>
      <trkpt lat="43.28124" lon="-1.68091">
        <ele>42</ele>
        <time>2026-03-06T19:51:18.000Z</time>
      </trkpt>
      <trkpt lat="43.2813" lon="-1.68088">
        <ele>41</ele>
        <time>2026-03-06T19:51:19.000Z</time>
      </trkpt>
      <trkpt lat="43.28134" lon="-1.68086">
        <ele>41</ele>
        <time>2026-03-06T19:51:20.000Z</time>
      </trkpt>
      <trkpt lat="43.28138" lon="-1.68085">
        <ele>41</ele>
        <time>2026-03-06T19:51:21.000Z</time>
      </trkpt>
      <trkpt lat="43.28144" lon="-1.68081">
        <ele>41</ele>
        <time>2026-03-06T19:51:22.000Z</time>
      </trkpt>
      <trkpt lat="43.28147" lon="-1.68078">
        <ele>41</ele>
        <time>2026-03-06T19:51:23.000Z</time>
      </trkpt>
      <trkpt lat="43.28149" lon="-1.68075">
        <ele>41</ele>
        <time>2026-03-06T19:51:23.000Z</time>
      </trkpt>
      <trkpt lat="43.28151" lon="-1.68069">
        <ele>41</ele>
        <time>2026-03-06T19:51:24.000Z</time>
      </trkpt>
      <trkpt lat="43.28152" lon="-1.68063">
        <ele>42</ele>
        <time>2026-03-06T19:51:25.000Z</time>
      </trkpt>
      <trkpt lat="43.28154" lon="-1.68056">
        <ele>42</ele>
        <time>2026-03-06T19:51:26.000Z</time>
      </trkpt>
      <trkpt lat="43.28155" lon="-1.68045">
        <ele>42</ele>
        <time>2026-03-06T19:51:27.000Z</time>
      </trkpt>
      <trkpt lat="43.28156" lon="-1.68036">
        <ele>42</ele>
        <time>2026-03-06T19:51:29.000Z</time>
      </trkpt>
      <trkpt lat="43.28157" lon="-1.68028">
        <ele>42</ele>
        <time>2026-03-06T19:51:30.000Z</time>
      </trkpt>
      <trkpt lat="43.28157" lon="-1.68025">
        <ele>42</ele>
        <time>2026-03-06T19:51:30.000Z</time>
      </trkpt>
      <trkpt lat="43.28157" lon="-1.6801">
        <ele>43</ele>
        <time>2026-03-06T19:51:32.000Z</time>
      </trkpt>
      <trkpt lat="43.28158" lon="-1.68006">
        <ele>43</ele>
        <time>2026-03-06T19:51:32.000Z</time>
      </trkpt>
      <trkpt lat="43.28159" lon="-1.68002">
        <ele>43</ele>
        <time>2026-03-06T19:51:33.000Z</time>
      </trkpt>
      <trkpt lat="43.28161" lon="-1.67997">
        <ele>43</ele>
        <time>2026-03-06T19:51:34.000Z</time>
      </trkpt>
      <trkpt lat="43.28165" lon="-1.67989">
        <ele>43</ele>
        <time>2026-03-06T19:51:35.000Z</time>
      </trkpt>
      <trkpt lat="43.28169" lon="-1.67974">
        <ele>44</ele>
        <time>2026-03-06T19:51:37.000Z</time>
      </trkpt>
      <trkpt lat="43.28172" lon="-1.67956">
        <ele>44</ele>
        <time>2026-03-06T19:51:39.000Z</time>
      </trkpt>
      <trkpt lat="43.28176" lon="-1.67921">
        <ele>45</ele>
        <time>2026-03-06T19:51:44.000Z</time>
      </trkpt>
      <trkpt lat="43.28179" lon="-1.67874">
        <ele>44</ele>
        <time>2026-03-06T19:51:50.000Z</time>
      </trkpt>
      <trkpt lat="43.28185" lon="-1.67835">
        <ele>44</ele>
        <time>2026-03-06T19:51:55.000Z</time>
      </trkpt>
      <trkpt lat="43.28185" lon="-1.67835">
        <ele>44</ele>
        <time>2026-03-06T19:51:55.000Z</time>
      </trkpt>
      <trkpt lat="43.28194" lon="-1.67836">
        <ele>44</ele>
        <time>2026-03-06T19:51:57.000Z</time>
      </trkpt>
      <trkpt lat="43.282" lon="-1.67838">
        <ele>44</ele>
        <time>2026-03-06T19:51:58.000Z</time>
      </trkpt>
      <trkpt lat="43.28212" lon="-1.67841">
        <ele>45</ele>
        <time>2026-03-06T19:52:00.000Z</time>
      </trkpt>
      <trkpt lat="43.28223" lon="-1.67846">
        <ele>45</ele>
        <time>2026-03-06T19:52:02.000Z</time>
      </trkpt>
      <trkpt lat="43.2824" lon="-1.67854">
        <ele>45</ele>
        <time>2026-03-06T19:52:05.000Z</time>
      </trkpt>
      <trkpt lat="43.28286" lon="-1.67878">
        <ele>46</ele>
        <time>2026-03-06T19:52:14.000Z</time>
      </trkpt>
      <trkpt lat="43.28335" lon="-1.6791">
        <ele>51</ele>
        <time>2026-03-06T19:52:24.000Z</time>
      </trkpt>
      <trkpt lat="43.28358" lon="-1.67921">
        <ele>54</ele>
        <time>2026-03-06T19:52:28.000Z</time>
      </trkpt>
      <trkpt lat="43.28372" lon="-1.67928">
        <ele>57</ele>
        <time>2026-03-06T19:52:31.000Z</time>
      </trkpt>
      <trkpt lat="43.28405" lon="-1.67939">
        <ele>63</ele>
        <time>2026-03-06T19:52:37.000Z</time>
      </trkpt>
      <trkpt lat="43.28412" lon="-1.67942">
        <ele>65</ele>
        <time>2026-03-06T19:52:38.000Z</time>
      </trkpt>
      <trkpt lat="43.28434" lon="-1.67955">
        <ele>70</ele>
        <time>2026-03-06T19:52:42.000Z</time>
      </trkpt>
      <trkpt lat="43.28444" lon="-1.67959">
        <ele>72</ele>
        <time>2026-03-06T19:52:44.000Z</time>
      </trkpt>
      <trkpt lat="43.28451" lon="-1.67961">
        <ele>73</ele>
        <time>2026-03-06T19:52:46.000Z</time>
      </trkpt>
      <trkpt lat="43.28457" lon="-1.67963">
        <ele>73</ele>
        <time>2026-03-06T19:52:47.000Z</time>
      </trkpt>
      <trkpt lat="43.28477" lon="-1.67964">
        <ele>74</ele>
        <time>2026-03-06T19:52:50.000Z</time>
      </trkpt>
      <trkpt lat="43.28504" lon="-1.67966">
        <ele>76</ele>
        <time>2026-03-06T19:52:55.000Z</time>
      </trkpt>
      <trkpt lat="43.28517" lon="-1.67965">
        <ele>74</ele>
        <time>2026-03-06T19:52:57.000Z</time>
      </trkpt>
      <trkpt lat="43.28531" lon="-1.67962">
        <ele>72</ele>
        <time>2026-03-06T19:53:00.000Z</time>
      </trkpt>
      <trkpt lat="43.28543" lon="-1.67957">
        <ele>70</ele>
        <time>2026-03-06T19:53:02.000Z</time>
      </trkpt>
      <trkpt lat="43.28558" lon="-1.6795">
        <ele>67</ele>
        <time>2026-03-06T19:53:05.000Z</time>
      </trkpt>
      <trkpt lat="43.28577" lon="-1.67944">
        <ele>65</ele>
        <time>2026-03-06T19:53:08.000Z</time>
      </trkpt>
      <trkpt lat="43.28581" lon="-1.67944">
        <ele>65</ele>
        <time>2026-03-06T19:53:09.000Z</time>
      </trkpt>
      <trkpt lat="43.28586" lon="-1.67947">
        <ele>65</ele>
        <time>2026-03-06T19:53:10.000Z</time>
      </trkpt>
      <trkpt lat="43.28589" lon="-1.67949">
        <ele>66</ele>
        <time>2026-03-06T19:53:11.000Z</time>
      </trkpt>
      <trkpt lat="43.28593" lon="-1.67952">
        <ele>67</ele>
        <time>2026-03-06T19:53:12.000Z</time>
      </trkpt>
      <trkpt lat="43.28596" lon="-1.67957">
        <ele>68</ele>
        <time>2026-03-06T19:53:12.000Z</time>
      </trkpt>
      <trkpt lat="43.286" lon="-1.67962">
        <ele>69</ele>
        <time>2026-03-06T19:53:13.000Z</time>
      </trkpt>
      <trkpt lat="43.28603" lon="-1.67966">
        <ele>70</ele>
        <time>2026-03-06T19:53:14.000Z</time>
      </trkpt>
      <trkpt lat="43.28606" lon="-1.6797">
        <ele>70</ele>
        <time>2026-03-06T19:53:15.000Z</time>
      </trkpt>
      <trkpt lat="43.28609" lon="-1.67974">
        <ele>71</ele>
        <time>2026-03-06T19:53:16.000Z</time>
      </trkpt>
      <trkpt lat="43.28612" lon="-1.67978">
        <ele>71</ele>
        <time>2026-03-06T19:53:16.000Z</time>
      </trkpt>
      <trkpt lat="43.28617" lon="-1.67985">
        <ele>72</ele>
        <time>2026-03-06T19:53:18.000Z</time>
      </trkpt>
      <trkpt lat="43.28623" lon="-1.67992">
        <ele>72</ele>
        <time>2026-03-06T19:53:19.000Z</time>
      </trkpt>
      <trkpt lat="43.28639" lon="-1.68011">
        <ele>76</ele>
        <time>2026-03-06T19:53:23.000Z</time>
      </trkpt>
      <trkpt lat="43.28652" lon="-1.6802">
        <ele>78</ele>
        <time>2026-03-06T19:53:25.000Z</time>
      </trkpt>
      <trkpt lat="43.28656" lon="-1.68021">
        <ele>78</ele>
        <time>2026-03-06T19:53:26.000Z</time>
      </trkpt>
      <trkpt lat="43.28664" lon="-1.68022">
        <ele>78</ele>
        <time>2026-03-06T19:53:27.000Z</time>
      </trkpt>
      <trkpt lat="43.28679" lon="-1.68017">
        <ele>78</ele>
        <time>2026-03-06T19:53:30.000Z</time>
      </trkpt>
      <trkpt lat="43.28704" lon="-1.68007">
        <ele>77</ele>
        <time>2026-03-06T19:53:35.000Z</time>
      </trkpt>
      <trkpt lat="43.28715" lon="-1.68003">
        <ele>77</ele>
        <time>2026-03-06T19:53:37.000Z</time>
      </trkpt>
      <trkpt lat="43.2873" lon="-1.68">
        <ele>78</ele>
        <time>2026-03-06T19:53:40.000Z</time>
      </trkpt>
      <trkpt lat="43.28746" lon="-1.67999">
        <ele>80</ele>
        <time>2026-03-06T19:53:42.000Z</time>
      </trkpt>
      <trkpt lat="43.28758" lon="-1.67996">
        <ele>81</ele>
        <time>2026-03-06T19:53:45.000Z</time>
      </trkpt>
      <trkpt lat="43.28767" lon="-1.6799">
        <ele>81</ele>
        <time>2026-03-06T19:53:46.000Z</time>
      </trkpt>
      <trkpt lat="43.28774" lon="-1.67989">
        <ele>81</ele>
        <time>2026-03-06T19:53:48.000Z</time>
      </trkpt>
      <trkpt lat="43.28787" lon="-1.67991">
        <ele>82</ele>
        <time>2026-03-06T19:53:50.000Z</time>
      </trkpt>
      <trkpt lat="43.28808" lon="-1.67997">
        <ele>83</ele>
        <time>2026-03-06T19:53:54.000Z</time>
      </trkpt>
      <trkpt lat="43.28822" lon="-1.68001">
        <ele>85</ele>
        <time>2026-03-06T19:53:56.000Z</time>
      </trkpt>
      <trkpt lat="43.28846" lon="-1.68011">
        <ele>88</ele>
        <time>2026-03-06T19:54:01.000Z</time>
      </trkpt>
      <trkpt lat="43.28866" lon="-1.68024">
        <ele>91</ele>
        <time>2026-03-06T19:54:05.000Z</time>
      </trkpt>
      <trkpt lat="43.28879" lon="-1.68029">
        <ele>92</ele>
        <time>2026-03-06T19:54:07.000Z</time>
      </trkpt>
      <trkpt lat="43.28894" lon="-1.68036">
        <ele>93</ele>
        <time>2026-03-06T19:54:10.000Z</time>
      </trkpt>
      <trkpt lat="43.28908" lon="-1.68038">
        <ele>93</ele>
        <time>2026-03-06T19:54:12.000Z</time>
      </trkpt>
      <trkpt lat="43.2893" lon="-1.6804">
        <ele>92</ele>
        <time>2026-03-06T19:54:16.000Z</time>
      </trkpt>
      <trkpt lat="43.2895" lon="-1.6804">
        <ele>90</ele>
        <time>2026-03-06T19:54:20.000Z</time>
      </trkpt>
      <trkpt lat="43.28957" lon="-1.6804">
        <ele>89</ele>
        <time>2026-03-06T19:54:21.000Z</time>
      </trkpt>
      <trkpt lat="43.28969" lon="-1.68042">
        <ele>88</ele>
        <time>2026-03-06T19:54:23.000Z</time>
      </trkpt>
      <trkpt lat="43.2898" lon="-1.68048">
        <ele>89</ele>
        <time>2026-03-06T19:54:25.000Z</time>
      </trkpt>
      <trkpt lat="43.28993" lon="-1.68059">
        <ele>90</ele>
        <time>2026-03-06T19:54:28.000Z</time>
      </trkpt>
      <trkpt lat="43.28995" lon="-1.68061">
        <ele>90</ele>
        <time>2026-03-06T19:54:29.000Z</time>
      </trkpt>
      <trkpt lat="43.28997" lon="-1.68065">
        <ele>90</ele>
        <time>2026-03-06T19:54:29.000Z</time>
      </trkpt>
      <trkpt lat="43.29007" lon="-1.68087">
        <ele>93</ele>
        <time>2026-03-06T19:54:33.000Z</time>
      </trkpt>
      <trkpt lat="43.29011" lon="-1.68101">
        <ele>94</ele>
        <time>2026-03-06T19:54:35.000Z</time>
      </trkpt>
      <trkpt lat="43.29012" lon="-1.68105">
        <ele>95</ele>
        <time>2026-03-06T19:54:35.000Z</time>
      </trkpt>
      <trkpt lat="43.29013" lon="-1.68108">
        <ele>95</ele>
        <time>2026-03-06T19:54:35.000Z</time>
      </trkpt>
      <trkpt lat="43.29019" lon="-1.68134">
        <ele>98</ele>
        <time>2026-03-06T19:54:39.000Z</time>
      </trkpt>
      <trkpt lat="43.29024" lon="-1.68156">
        <ele>100</ele>
        <time>2026-03-06T19:54:42.000Z</time>
      </trkpt>
      <trkpt lat="43.29028" lon="-1.68181">
        <ele>102</ele>
        <time>2026-03-06T19:54:45.000Z</time>
      </trkpt>
      <trkpt lat="43.29031" lon="-1.68197">
        <ele>102</ele>
        <time>2026-03-06T19:54:47.000Z</time>
      </trkpt>
      <trkpt lat="43.29035" lon="-1.68212">
        <ele>102</ele>
        <time>2026-03-06T19:54:50.000Z</time>
      </trkpt>
      <trkpt lat="43.29044" lon="-1.68236">
        <ele>99</ele>
        <time>2026-03-06T19:54:53.000Z</time>
      </trkpt>
      <trkpt lat="43.2905" lon="-1.68263">
        <ele>99</ele>
        <time>2026-03-06T19:54:57.000Z</time>
      </trkpt>
      <trkpt lat="43.29051" lon="-1.68281">
        <ele>99</ele>
        <time>2026-03-06T19:54:59.000Z</time>
      </trkpt>
      <trkpt lat="43.2905" lon="-1.68284">
        <ele>100</ele>
        <time>2026-03-06T19:54:59.000Z</time>
      </trkpt>
      <trkpt lat="43.29047" lon="-1.68299">
        <ele>103</ele>
        <time>2026-03-06T19:55:01.000Z</time>
      </trkpt>
      <trkpt lat="43.29037" lon="-1.68323">
        <ele>110</ele>
        <time>2026-03-06T19:55:05.000Z</time>
      </trkpt>
      <trkpt lat="43.29026" lon="-1.68357">
        <ele>117</ele>
        <time>2026-03-06T19:55:10.000Z</time>
      </trkpt>
      <trkpt lat="43.29024" lon="-1.6837">
        <ele>119</ele>
        <time>2026-03-06T19:55:12.000Z</time>
      </trkpt>
      <trkpt lat="43.29024" lon="-1.68375">
        <ele>120</ele>
        <time>2026-03-06T19:55:12.000Z</time>
      </trkpt>
      <trkpt lat="43.29024" lon="-1.68378">
        <ele>120</ele>
        <time>2026-03-06T19:55:13.000Z</time>
      </trkpt>
      <trkpt lat="43.29026" lon="-1.68382">
        <ele>119</ele>
        <time>2026-03-06T19:55:13.000Z</time>
      </trkpt>
      <trkpt lat="43.29027" lon="-1.68384">
        <ele>119</ele>
        <time>2026-03-06T19:55:14.000Z</time>
      </trkpt>
      <trkpt lat="43.2903" lon="-1.68387">
        <ele>118</ele>
        <time>2026-03-06T19:55:14.000Z</time>
      </trkpt>
      <trkpt lat="43.29037" lon="-1.68391">
        <ele>116</ele>
        <time>2026-03-06T19:55:16.000Z</time>
      </trkpt>
      <trkpt lat="43.29049" lon="-1.68394">
        <ele>112</ele>
        <time>2026-03-06T19:55:18.000Z</time>
      </trkpt>
      <trkpt lat="43.29061" lon="-1.684">
        <ele>109</ele>
        <time>2026-03-06T19:55:20.000Z</time>
      </trkpt>
      <trkpt lat="43.29071" lon="-1.68407">
        <ele>107</ele>
        <time>2026-03-06T19:55:22.000Z</time>
      </trkpt>
      <trkpt lat="43.29077" lon="-1.68411">
        <ele>106</ele>
        <time>2026-03-06T19:55:23.000Z</time>
      </trkpt>
      <trkpt lat="43.29087" lon="-1.68423">
        <ele>107</ele>
        <time>2026-03-06T19:55:26.000Z</time>
      </trkpt>
      <trkpt lat="43.291" lon="-1.6844">
        <ele>110</ele>
        <time>2026-03-06T19:55:29.000Z</time>
      </trkpt>
      <trkpt lat="43.29127" lon="-1.68476">
        <ele>117</ele>
        <time>2026-03-06T19:55:35.000Z</time>
      </trkpt>
      <trkpt lat="43.29131" lon="-1.6848">
        <ele>117</ele>
        <time>2026-03-06T19:55:36.000Z</time>
      </trkpt>
      <trkpt lat="43.29137" lon="-1.68484">
        <ele>118</ele>
        <time>2026-03-06T19:55:38.000Z</time>
      </trkpt>
      <trkpt lat="43.29143" lon="-1.68486">
        <ele>117</ele>
        <time>2026-03-06T19:55:39.000Z</time>
      </trkpt>
      <trkpt lat="43.29162" lon="-1.68488">
        <ele>114</ele>
        <time>2026-03-06T19:55:42.000Z</time>
      </trkpt>
      <trkpt lat="43.29172" lon="-1.6849">
        <ele>112</ele>
        <time>2026-03-06T19:55:44.000Z</time>
      </trkpt>
      <trkpt lat="43.29178" lon="-1.68492">
        <ele>111</ele>
        <time>2026-03-06T19:55:45.000Z</time>
      </trkpt>
      <trkpt lat="43.29182" lon="-1.68496">
        <ele>111</ele>
        <time>2026-03-06T19:55:46.000Z</time>
      </trkpt>
      <trkpt lat="43.29185" lon="-1.68502">
        <ele>111</ele>
        <time>2026-03-06T19:55:47.000Z</time>
      </trkpt>
      <trkpt lat="43.29187" lon="-1.68516">
        <ele>112</ele>
        <time>2026-03-06T19:55:49.000Z</time>
      </trkpt>
      <trkpt lat="43.29185" lon="-1.68528">
        <ele>114</ele>
        <time>2026-03-06T19:55:50.000Z</time>
      </trkpt>
      <trkpt lat="43.29179" lon="-1.68542">
        <ele>117</ele>
        <time>2026-03-06T19:55:52.000Z</time>
      </trkpt>
      <trkpt lat="43.2917" lon="-1.68553">
        <ele>121</ele>
        <time>2026-03-06T19:55:54.000Z</time>
      </trkpt>
      <trkpt lat="43.29158" lon="-1.68561">
        <ele>124</ele>
        <time>2026-03-06T19:55:57.000Z</time>
      </trkpt>
      <trkpt lat="43.29145" lon="-1.6857">
        <ele>129</ele>
        <time>2026-03-06T19:55:59.000Z</time>
      </trkpt>
      <trkpt lat="43.2914" lon="-1.68575">
        <ele>131</ele>
        <time>2026-03-06T19:56:00.000Z</time>
      </trkpt>
      <trkpt lat="43.29135" lon="-1.68582">
        <ele>133</ele>
        <time>2026-03-06T19:56:02.000Z</time>
      </trkpt>
      <trkpt lat="43.29132" lon="-1.68586">
        <ele>134</ele>
        <time>2026-03-06T19:56:02.000Z</time>
      </trkpt>
      <trkpt lat="43.29128" lon="-1.68593">
        <ele>136</ele>
        <time>2026-03-06T19:56:04.000Z</time>
      </trkpt>
      <trkpt lat="43.29126" lon="-1.68605">
        <ele>138</ele>
        <time>2026-03-06T19:56:05.000Z</time>
      </trkpt>
      <trkpt lat="43.29125" lon="-1.6862">
        <ele>140</ele>
        <time>2026-03-06T19:56:07.000Z</time>
      </trkpt>
      <trkpt lat="43.29127" lon="-1.68652">
        <ele>143</ele>
        <time>2026-03-06T19:56:11.000Z</time>
      </trkpt>
      <trkpt lat="43.2913" lon="-1.68669">
        <ele>145</ele>
        <time>2026-03-06T19:56:14.000Z</time>
      </trkpt>
      <trkpt lat="43.29131" lon="-1.68674">
        <ele>145</ele>
        <time>2026-03-06T19:56:14.000Z</time>
      </trkpt>
      <trkpt lat="43.29134" lon="-1.68679">
        <ele>145</ele>
        <time>2026-03-06T19:56:15.000Z</time>
      </trkpt>
      <trkpt lat="43.29137" lon="-1.68682">
        <ele>145</ele>
        <time>2026-03-06T19:56:16.000Z</time>
      </trkpt>
      <trkpt lat="43.29141" lon="-1.68683">
        <ele>144</ele>
        <time>2026-03-06T19:56:17.000Z</time>
      </trkpt>
      <trkpt lat="43.29145" lon="-1.68683">
        <ele>143</ele>
        <time>2026-03-06T19:56:17.000Z</time>
      </trkpt>
      <trkpt lat="43.29149" lon="-1.68682">
        <ele>142</ele>
        <time>2026-03-06T19:56:18.000Z</time>
      </trkpt>
      <trkpt lat="43.29156" lon="-1.68678">
        <ele>139</ele>
        <time>2026-03-06T19:56:19.000Z</time>
      </trkpt>
      <trkpt lat="43.29163" lon="-1.68675">
        <ele>137</ele>
        <time>2026-03-06T19:56:21.000Z</time>
      </trkpt>
      <trkpt lat="43.29166" lon="-1.68674">
        <ele>136</ele>
        <time>2026-03-06T19:56:21.000Z</time>
      </trkpt>
      <trkpt lat="43.29169" lon="-1.68674">
        <ele>135</ele>
        <time>2026-03-06T19:56:22.000Z</time>
      </trkpt>
      <trkpt lat="43.2917" lon="-1.68675">
        <ele>135</ele>
        <time>2026-03-06T19:56:22.000Z</time>
      </trkpt>
      <trkpt lat="43.29171" lon="-1.68676">
        <ele>135</ele>
        <time>2026-03-06T19:56:22.000Z</time>
      </trkpt>
      <trkpt lat="43.29172" lon="-1.68677">
        <ele>135</ele>
        <time>2026-03-06T19:56:22.000Z</time>
      </trkpt>
      <trkpt lat="43.29173" lon="-1.68679">
        <ele>136</ele>
        <time>2026-03-06T19:56:23.000Z</time>
      </trkpt>
      <trkpt lat="43.29173" lon="-1.6868">
        <ele>136</ele>
        <time>2026-03-06T19:56:23.000Z</time>
      </trkpt>
      <trkpt lat="43.29173" lon="-1.68682">
        <ele>136</ele>
        <time>2026-03-06T19:56:23.000Z</time>
      </trkpt>
      <trkpt lat="43.29172" lon="-1.68686">
        <ele>137</ele>
        <time>2026-03-06T19:56:24.000Z</time>
      </trkpt>
      <trkpt lat="43.2917" lon="-1.68691">
        <ele>139</ele>
        <time>2026-03-06T19:56:24.000Z</time>
      </trkpt>
      <trkpt lat="43.29162" lon="-1.68699">
        <ele>142</ele>
        <time>2026-03-06T19:56:26.000Z</time>
      </trkpt>
      <trkpt lat="43.29149" lon="-1.68707">
        <ele>147</ele>
        <time>2026-03-06T19:56:29.000Z</time>
      </trkpt>
      <trkpt lat="43.29138" lon="-1.68712">
        <ele>151</ele>
        <time>2026-03-06T19:56:31.000Z</time>
      </trkpt>
      <trkpt lat="43.29135" lon="-1.68713">
        <ele>151</ele>
        <time>2026-03-06T19:56:31.000Z</time>
      </trkpt>
      <trkpt lat="43.29132" lon="-1.68712">
        <ele>152</ele>
        <time>2026-03-06T19:56:32.000Z</time>
      </trkpt>
      <trkpt lat="43.29128" lon="-1.6871">
        <ele>153</ele>
        <time>2026-03-06T19:56:33.000Z</time>
      </trkpt>
      <trkpt lat="43.29124" lon="-1.68704">
        <ele>152</ele>
        <time>2026-03-06T19:56:34.000Z</time>
      </trkpt>
      <trkpt lat="43.29122" lon="-1.68697">
        <ele>152</ele>
        <time>2026-03-06T19:56:35.000Z</time>
      </trkpt>
      <trkpt lat="43.29121" lon="-1.68687">
        <ele>150</ele>
        <time>2026-03-06T19:56:36.000Z</time>
      </trkpt>
      <trkpt lat="43.2912" lon="-1.6868">
        <ele>149</ele>
        <time>2026-03-06T19:56:37.000Z</time>
      </trkpt>
      <trkpt lat="43.29118" lon="-1.68673">
        <ele>149</ele>
        <time>2026-03-06T19:56:38.000Z</time>
      </trkpt>
      <trkpt lat="43.29114" lon="-1.68666">
        <ele>148</ele>
        <time>2026-03-06T19:56:39.000Z</time>
      </trkpt>
      <trkpt lat="43.29106" lon="-1.6865">
        <ele>149</ele>
        <time>2026-03-06T19:56:41.000Z</time>
      </trkpt>
      <trkpt lat="43.29102" lon="-1.68637">
        <ele>149</ele>
        <time>2026-03-06T19:56:43.000Z</time>
      </trkpt>
      <trkpt lat="43.291" lon="-1.68629">
        <ele>148</ele>
        <time>2026-03-06T19:56:44.000Z</time>
      </trkpt>
      <trkpt lat="43.29098" lon="-1.68614">
        <ele>147</ele>
        <time>2026-03-06T19:56:46.000Z</time>
      </trkpt>
      <trkpt lat="43.29098" lon="-1.68601">
        <ele>146</ele>
        <time>2026-03-06T19:56:48.000Z</time>
      </trkpt>
      <trkpt lat="43.29102" lon="-1.68585">
        <ele>143</ele>
        <time>2026-03-06T19:56:50.000Z</time>
      </trkpt>
      <trkpt lat="43.29108" lon="-1.68565">
        <ele>138</ele>
        <time>2026-03-06T19:56:53.000Z</time>
      </trkpt>
      <trkpt lat="43.29111" lon="-1.68557">
        <ele>136</ele>
        <time>2026-03-06T19:56:54.000Z</time>
      </trkpt>
      <trkpt lat="43.29111" lon="-1.68552">
        <ele>135</ele>
        <time>2026-03-06T19:56:55.000Z</time>
      </trkpt>
      <trkpt lat="43.29111" lon="-1.68547">
        <ele>135</ele>
        <time>2026-03-06T19:56:55.000Z</time>
      </trkpt>
      <trkpt lat="43.29109" lon="-1.6854">
        <ele>134</ele>
        <time>2026-03-06T19:56:56.000Z</time>
      </trkpt>
      <trkpt lat="43.29104" lon="-1.68533">
        <ele>134</ele>
        <time>2026-03-06T19:56:58.000Z</time>
      </trkpt>
      <trkpt lat="43.29099" lon="-1.68528">
        <ele>135</ele>
        <time>2026-03-06T19:56:59.000Z</time>
      </trkpt>
      <trkpt lat="43.29092" lon="-1.68524">
        <ele>135</ele>
        <time>2026-03-06T19:57:00.000Z</time>
      </trkpt>
      <trkpt lat="43.29084" lon="-1.68519">
        <ele>136</ele>
        <time>2026-03-06T19:57:02.000Z</time>
      </trkpt>
      <trkpt lat="43.29073" lon="-1.68514">
        <ele>137</ele>
        <time>2026-03-06T19:57:04.000Z</time>
      </trkpt>
      <trkpt lat="43.29066" lon="-1.68514">
        <ele>139</ele>
        <time>2026-03-06T19:57:05.000Z</time>
      </trkpt>
      <trkpt lat="43.29058" lon="-1.68514">
        <ele>140</ele>
        <time>2026-03-06T19:57:06.000Z</time>
      </trkpt>
      <trkpt lat="43.29049" lon="-1.68516">
        <ele>142</ele>
        <time>2026-03-06T19:57:08.000Z</time>
      </trkpt>
      <trkpt lat="43.29025" lon="-1.6852">
        <ele>147</ele>
        <time>2026-03-06T19:57:12.000Z</time>
      </trkpt>
      <trkpt lat="43.29012" lon="-1.68521">
        <ele>150</ele>
        <time>2026-03-06T19:57:15.000Z</time>
      </trkpt>
      <trkpt lat="43.29007" lon="-1.68523">
        <ele>151</ele>
        <time>2026-03-06T19:57:16.000Z</time>
      </trkpt>
      <trkpt lat="43.29001" lon="-1.68525">
        <ele>153</ele>
        <time>2026-03-06T19:57:17.000Z</time>
      </trkpt>
      <trkpt lat="43.28998" lon="-1.68527">
        <ele>154</ele>
        <time>2026-03-06T19:57:17.000Z</time>
      </trkpt>
      <trkpt lat="43.28994" lon="-1.68531">
        <ele>156</ele>
        <time>2026-03-06T19:57:18.000Z</time>
      </trkpt>
      <trkpt lat="43.28992" lon="-1.68535">
        <ele>158</ele>
        <time>2026-03-06T19:57:19.000Z</time>
      </trkpt>
      <trkpt lat="43.28991" lon="-1.68539">
        <ele>159</ele>
        <time>2026-03-06T19:57:19.000Z</time>
      </trkpt>
      <trkpt lat="43.28992" lon="-1.68544">
        <ele>160</ele>
        <time>2026-03-06T19:57:20.000Z</time>
      </trkpt>
      <trkpt lat="43.28994" lon="-1.68548">
        <ele>160</ele>
        <time>2026-03-06T19:57:21.000Z</time>
      </trkpt>
      <trkpt lat="43.28997" lon="-1.68552">
        <ele>159</ele>
        <time>2026-03-06T19:57:21.000Z</time>
      </trkpt>
      <trkpt lat="43.29001" lon="-1.68556">
        <ele>159</ele>
        <time>2026-03-06T19:57:22.000Z</time>
      </trkpt>
      <trkpt lat="43.29004" lon="-1.68558">
        <ele>158</ele>
        <time>2026-03-06T19:57:23.000Z</time>
      </trkpt>
      <trkpt lat="43.29008" lon="-1.68559">
        <ele>158</ele>
        <time>2026-03-06T19:57:24.000Z</time>
      </trkpt>
      <trkpt lat="43.29016" lon="-1.68561">
        <ele>157</ele>
        <time>2026-03-06T19:57:25.000Z</time>
      </trkpt>
      <trkpt lat="43.2902" lon="-1.68561">
        <ele>156</ele>
        <time>2026-03-06T19:57:26.000Z</time>
      </trkpt>
      <trkpt lat="43.29024" lon="-1.68559">
        <ele>155</ele>
        <time>2026-03-06T19:57:27.000Z</time>
      </trkpt>
      <trkpt lat="43.29028" lon="-1.68556">
        <ele>153</ele>
        <time>2026-03-06T19:57:27.000Z</time>
      </trkpt>
      <trkpt lat="43.29033" lon="-1.68549">
        <ele>151</ele>
        <time>2026-03-06T19:57:29.000Z</time>
      </trkpt>
      <trkpt lat="43.29038" lon="-1.68543">
        <ele>149</ele>
        <time>2026-03-06T19:57:30.000Z</time>
      </trkpt>
      <trkpt lat="43.29041" lon="-1.6854">
        <ele>148</ele>
        <time>2026-03-06T19:57:30.000Z</time>
      </trkpt>
      <trkpt lat="43.29044" lon="-1.68539">
        <ele>147</ele>
        <time>2026-03-06T19:57:31.000Z</time>
      </trkpt>
      <trkpt lat="43.29055" lon="-1.68538">
        <ele>145</ele>
        <time>2026-03-06T19:57:33.000Z</time>
      </trkpt>
      <trkpt lat="43.2906" lon="-1.6854">
        <ele>145</ele>
        <time>2026-03-06T19:57:34.000Z</time>
      </trkpt>
      <trkpt lat="43.29066" lon="-1.68544">
        <ele>144</ele>
        <time>2026-03-06T19:57:35.000Z</time>
      </trkpt>
      <trkpt lat="43.29068" lon="-1.68547">
        <ele>144</ele>
        <time>2026-03-06T19:57:36.000Z</time>
      </trkpt>
      <trkpt lat="43.2907" lon="-1.68549">
        <ele>144</ele>
        <time>2026-03-06T19:57:36.000Z</time>
      </trkpt>
      <trkpt lat="43.2907" lon="-1.68551">
        <ele>145</ele>
        <time>2026-03-06T19:57:36.000Z</time>
      </trkpt>
      <trkpt lat="43.29071" lon="-1.68557">
        <ele>146</ele>
        <time>2026-03-06T19:57:37.000Z</time>
      </trkpt>
      <trkpt lat="43.29072" lon="-1.68563">
        <ele>146</ele>
        <time>2026-03-06T19:57:38.000Z</time>
      </trkpt>
      <trkpt lat="43.29071" lon="-1.68569">
        <ele>148</ele>
        <time>2026-03-06T19:57:39.000Z</time>
      </trkpt>
      <trkpt lat="43.29069" lon="-1.68578">
        <ele>150</ele>
        <time>2026-03-06T19:57:40.000Z</time>
      </trkpt>
      <trkpt lat="43.29061" lon="-1.68607">
        <ele>156</ele>
        <time>2026-03-06T19:57:44.000Z</time>
      </trkpt>
      <trkpt lat="43.29056" lon="-1.68622">
        <ele>159</ele>
        <time>2026-03-06T19:57:46.000Z</time>
      </trkpt>
      <trkpt lat="43.29053" lon="-1.68633">
        <ele>161</ele>
        <time>2026-03-06T19:57:48.000Z</time>
      </trkpt>
      <trkpt lat="43.29053" lon="-1.68639">
        <ele>162</ele>
        <time>2026-03-06T19:57:48.000Z</time>
      </trkpt>
      <trkpt lat="43.29053" lon="-1.68642">
        <ele>163</ele>
        <time>2026-03-06T19:57:49.000Z</time>
      </trkpt>
      <trkpt lat="43.29054" lon="-1.68646">
        <ele>163</ele>
        <time>2026-03-06T19:57:49.000Z</time>
      </trkpt>
      <trkpt lat="43.29055" lon="-1.6865">
        <ele>163</ele>
        <time>2026-03-06T19:57:50.000Z</time>
      </trkpt>
      <trkpt lat="43.29056" lon="-1.68654">
        <ele>164</ele>
        <time>2026-03-06T19:57:50.000Z</time>
      </trkpt>
      <trkpt lat="43.29058" lon="-1.68657">
        <ele>164</ele>
        <time>2026-03-06T19:57:51.000Z</time>
      </trkpt>
      <trkpt lat="43.29063" lon="-1.68664">
        <ele>163</ele>
        <time>2026-03-06T19:57:52.000Z</time>
      </trkpt>
      <trkpt lat="43.29069" lon="-1.68671">
        <ele>162</ele>
        <time>2026-03-06T19:57:54.000Z</time>
      </trkpt>
      <trkpt lat="43.29075" lon="-1.6868">
        <ele>162</ele>
        <time>2026-03-06T19:57:55.000Z</time>
      </trkpt>
      <trkpt lat="43.2908" lon="-1.68689">
        <ele>161</ele>
        <time>2026-03-06T19:57:57.000Z</time>
      </trkpt>
      <trkpt lat="43.29081" lon="-1.68694">
        <ele>162</ele>
        <time>2026-03-06T19:57:57.000Z</time>
      </trkpt>
      <trkpt lat="43.29083" lon="-1.68703">
        <ele>162</ele>
        <time>2026-03-06T19:57:59.000Z</time>
      </trkpt>
      <trkpt lat="43.29085" lon="-1.68721">
        <ele>164</ele>
        <time>2026-03-06T19:58:01.000Z</time>
      </trkpt>
      <trkpt lat="43.29085" lon="-1.68734">
        <ele>166</ele>
        <time>2026-03-06T19:58:03.000Z</time>
      </trkpt>
      <trkpt lat="43.29084" lon="-1.68745">
        <ele>168</ele>
        <time>2026-03-06T19:58:04.000Z</time>
      </trkpt>
      <trkpt lat="43.2908" lon="-1.68767">
        <ele>174</ele>
        <time>2026-03-06T19:58:07.000Z</time>
      </trkpt>
      <trkpt lat="43.2908" lon="-1.68773">
        <ele>175</ele>
        <time>2026-03-06T19:58:08.000Z</time>
      </trkpt>
      <trkpt lat="43.2908" lon="-1.68778">
        <ele>176</ele>
        <time>2026-03-06T19:58:08.000Z</time>
      </trkpt>
      <trkpt lat="43.2908" lon="-1.6878">
        <ele>177</ele>
        <time>2026-03-06T19:58:09.000Z</time>
      </trkpt>
      <trkpt lat="43.29081" lon="-1.68784">
        <ele>177</ele>
        <time>2026-03-06T19:58:09.000Z</time>
      </trkpt>
      <trkpt lat="43.29083" lon="-1.68789">
        <ele>178</ele>
        <time>2026-03-06T19:58:10.000Z</time>
      </trkpt>
      <trkpt lat="43.29085" lon="-1.68792">
        <ele>178</ele>
        <time>2026-03-06T19:58:10.000Z</time>
      </trkpt>
      <trkpt lat="43.29089" lon="-1.68794">
        <ele>178</ele>
        <time>2026-03-06T19:58:11.000Z</time>
      </trkpt>
      <trkpt lat="43.29093" lon="-1.68795">
        <ele>177</ele>
        <time>2026-03-06T19:58:12.000Z</time>
      </trkpt>
      <trkpt lat="43.29102" lon="-1.68796">
        <ele>176</ele>
        <time>2026-03-06T19:58:14.000Z</time>
      </trkpt>
      <trkpt lat="43.29115" lon="-1.68794">
        <ele>174</ele>
        <time>2026-03-06T19:58:16.000Z</time>
      </trkpt>
      <trkpt lat="43.29131" lon="-1.68791">
        <ele>171</ele>
        <time>2026-03-06T19:58:19.000Z</time>
      </trkpt>
      <trkpt lat="43.29159" lon="-1.68788">
        <ele>166</ele>
        <time>2026-03-06T19:58:24.000Z</time>
      </trkpt>
      <trkpt lat="43.29166" lon="-1.68788">
        <ele>165</ele>
        <time>2026-03-06T19:58:25.000Z</time>
      </trkpt>
      <trkpt lat="43.29171" lon="-1.68788">
        <ele>164</ele>
        <time>2026-03-06T19:58:26.000Z</time>
      </trkpt>
      <trkpt lat="43.29176" lon="-1.68789">
        <ele>163</ele>
        <time>2026-03-06T19:58:27.000Z</time>
      </trkpt>
      <trkpt lat="43.29183" lon="-1.68792">
        <ele>162</ele>
        <time>2026-03-06T19:58:28.000Z</time>
      </trkpt>
      <trkpt lat="43.29184" lon="-1.68793">
        <ele>162</ele>
        <time>2026-03-06T19:58:28.000Z</time>
      </trkpt>
      <trkpt lat="43.29188" lon="-1.68796">
        <ele>162</ele>
        <time>2026-03-06T19:58:29.000Z</time>
      </trkpt>
      <trkpt lat="43.29192" lon="-1.688">
        <ele>162</ele>
        <time>2026-03-06T19:58:30.000Z</time>
      </trkpt>
      <trkpt lat="43.29195" lon="-1.68804">
        <ele>163</ele>
        <time>2026-03-06T19:58:31.000Z</time>
      </trkpt>
      <trkpt lat="43.29196" lon="-1.68805">
        <ele>163</ele>
        <time>2026-03-06T19:58:31.000Z</time>
      </trkpt>
      <trkpt lat="43.29198" lon="-1.6881">
        <ele>164</ele>
        <time>2026-03-06T19:58:32.000Z</time>
      </trkpt>
      <trkpt lat="43.29201" lon="-1.68816">
        <ele>164</ele>
        <time>2026-03-06T19:58:33.000Z</time>
      </trkpt>
      <trkpt lat="43.29204" lon="-1.68826">
        <ele>166</ele>
        <time>2026-03-06T19:58:34.000Z</time>
      </trkpt>
      <trkpt lat="43.29205" lon="-1.68832">
        <ele>168</ele>
        <time>2026-03-06T19:58:35.000Z</time>
      </trkpt>
      <trkpt lat="43.29205" lon="-1.68851">
        <ele>173</ele>
        <time>2026-03-06T19:58:37.000Z</time>
      </trkpt>
      <trkpt lat="43.29206" lon="-1.68863">
        <ele>175</ele>
        <time>2026-03-06T19:58:39.000Z</time>
      </trkpt>
      <trkpt lat="43.29207" lon="-1.68869">
        <ele>176</ele>
        <time>2026-03-06T19:58:40.000Z</time>
      </trkpt>
      <trkpt lat="43.29207" lon="-1.6887">
        <ele>177</ele>
        <time>2026-03-06T19:58:40.000Z</time>
      </trkpt>
      <trkpt lat="43.29207" lon="-1.68871">
        <ele>177</ele>
        <time>2026-03-06T19:58:40.000Z</time>
      </trkpt>
      <trkpt lat="43.29209" lon="-1.68875">
        <ele>177</ele>
        <time>2026-03-06T19:58:41.000Z</time>
      </trkpt>
      <trkpt lat="43.2921" lon="-1.68878">
        <ele>178</ele>
        <time>2026-03-06T19:58:41.000Z</time>
      </trkpt>
      <trkpt lat="43.29211" lon="-1.68879">
        <ele>178</ele>
        <time>2026-03-06T19:58:41.000Z</time>
      </trkpt>
      <trkpt lat="43.29219" lon="-1.68886">
        <ele>177</ele>
        <time>2026-03-06T19:58:43.000Z</time>
      </trkpt>
      <trkpt lat="43.29227" lon="-1.68889">
        <ele>175</ele>
        <time>2026-03-06T19:58:44.000Z</time>
      </trkpt>
      <trkpt lat="43.29231" lon="-1.68892">
        <ele>174</ele>
        <time>2026-03-06T19:58:45.000Z</time>
      </trkpt>
      <trkpt lat="43.29232" lon="-1.68893">
        <ele>174</ele>
        <time>2026-03-06T19:58:45.000Z</time>
      </trkpt>
      <trkpt lat="43.29232" lon="-1.68894">
        <ele>174</ele>
        <time>2026-03-06T19:58:46.000Z</time>
      </trkpt>
      <trkpt lat="43.29236" lon="-1.68898">
        <ele>174</ele>
        <time>2026-03-06T19:58:46.000Z</time>
      </trkpt>
      <trkpt lat="43.29239" lon="-1.68905">
        <ele>175</ele>
        <time>2026-03-06T19:58:47.000Z</time>
      </trkpt>
      <trkpt lat="43.29245" lon="-1.68921">
        <ele>177</ele>
        <time>2026-03-06T19:58:50.000Z</time>
      </trkpt>
      <trkpt lat="43.29261" lon="-1.68966">
        <ele>185</ele>
        <time>2026-03-06T19:58:56.000Z</time>
      </trkpt>
      <trkpt lat="43.29266" lon="-1.68977">
        <ele>187</ele>
        <time>2026-03-06T19:58:58.000Z</time>
      </trkpt>
      <trkpt lat="43.29269" lon="-1.68983">
        <ele>188</ele>
        <time>2026-03-06T19:58:59.000Z</time>
      </trkpt>
      <trkpt lat="43.29272" lon="-1.68988">
        <ele>189</ele>
        <time>2026-03-06T19:59:00.000Z</time>
      </trkpt>
      <trkpt lat="43.29279" lon="-1.68993">
        <ele>189</ele>
        <time>2026-03-06T19:59:01.000Z</time>
      </trkpt>
      <trkpt lat="43.29288" lon="-1.68996">
        <ele>188</ele>
        <time>2026-03-06T19:59:03.000Z</time>
      </trkpt>
      <trkpt lat="43.29295" lon="-1.68995">
        <ele>186</ele>
        <time>2026-03-06T19:59:04.000Z</time>
      </trkpt>
      <trkpt lat="43.29303" lon="-1.6899">
        <ele>184</ele>
        <time>2026-03-06T19:59:06.000Z</time>
      </trkpt>
      <trkpt lat="43.29322" lon="-1.68973">
        <ele>175</ele>
        <time>2026-03-06T19:59:10.000Z</time>
      </trkpt>
      <trkpt lat="43.29324" lon="-1.68972">
        <ele>174</ele>
        <time>2026-03-06T19:59:10.000Z</time>
      </trkpt>
      <trkpt lat="43.29329" lon="-1.6897">
        <ele>173</ele>
        <time>2026-03-06T19:59:11.000Z</time>
      </trkpt>
      <trkpt lat="43.29334" lon="-1.6897">
        <ele>172</ele>
        <time>2026-03-06T19:59:12.000Z</time>
      </trkpt>
      <trkpt lat="43.29337" lon="-1.68971">
        <ele>172</ele>
        <time>2026-03-06T19:59:12.000Z</time>
      </trkpt>
      <trkpt lat="43.29342" lon="-1.68974">
        <ele>172</ele>
        <time>2026-03-06T19:59:13.000Z</time>
      </trkpt>
      <trkpt lat="43.29346" lon="-1.68978">
        <ele>172</ele>
        <time>2026-03-06T19:59:14.000Z</time>
      </trkpt>
      <trkpt lat="43.29348" lon="-1.68981">
        <ele>173</ele>
        <time>2026-03-06T19:59:15.000Z</time>
      </trkpt>
      <trkpt lat="43.2935" lon="-1.68989">
        <ele>175</ele>
        <time>2026-03-06T19:59:16.000Z</time>
      </trkpt>
      <trkpt lat="43.29353" lon="-1.69001">
        <ele>178</ele>
        <time>2026-03-06T19:59:17.000Z</time>
      </trkpt>
      <trkpt lat="43.29356" lon="-1.6902">
        <ele>183</ele>
        <time>2026-03-06T19:59:20.000Z</time>
      </trkpt>
      <trkpt lat="43.29359" lon="-1.69036">
        <ele>188</ele>
        <time>2026-03-06T19:59:22.000Z</time>
      </trkpt>
      <trkpt lat="43.29361" lon="-1.69049">
        <ele>192</ele>
        <time>2026-03-06T19:59:24.000Z</time>
      </trkpt>
      <trkpt lat="43.29364" lon="-1.69056">
        <ele>193</ele>
        <time>2026-03-06T19:59:25.000Z</time>
      </trkpt>
      <trkpt lat="43.29365" lon="-1.69059">
        <ele>194</ele>
        <time>2026-03-06T19:59:25.000Z</time>
      </trkpt>
      <trkpt lat="43.29368" lon="-1.69061">
        <ele>194</ele>
        <time>2026-03-06T19:59:26.000Z</time>
      </trkpt>
      <trkpt lat="43.2937" lon="-1.69063">
        <ele>195</ele>
        <time>2026-03-06T19:59:26.000Z</time>
      </trkpt>
      <trkpt lat="43.29372" lon="-1.69064">
        <ele>195</ele>
        <time>2026-03-06T19:59:27.000Z</time>
      </trkpt>
      <trkpt lat="43.29376" lon="-1.69064">
        <ele>194</ele>
        <time>2026-03-06T19:59:27.000Z</time>
      </trkpt>
      <trkpt lat="43.29385" lon="-1.69063">
        <ele>192</ele>
        <time>2026-03-06T19:59:29.000Z</time>
      </trkpt>
      <trkpt lat="43.29392" lon="-1.69062">
        <ele>191</ele>
        <time>2026-03-06T19:59:30.000Z</time>
      </trkpt>
      <trkpt lat="43.29395" lon="-1.69062">
        <ele>191</ele>
        <time>2026-03-06T19:59:31.000Z</time>
      </trkpt>
      <trkpt lat="43.29398" lon="-1.69063">
        <ele>191</ele>
        <time>2026-03-06T19:59:31.000Z</time>
      </trkpt>
      <trkpt lat="43.29402" lon="-1.69065">
        <ele>191</ele>
        <time>2026-03-06T19:59:32.000Z</time>
      </trkpt>
      <trkpt lat="43.29405" lon="-1.69069">
        <ele>192</ele>
        <time>2026-03-06T19:59:33.000Z</time>
      </trkpt>
      <trkpt lat="43.29408" lon="-1.69074">
        <ele>193</ele>
        <time>2026-03-06T19:59:34.000Z</time>
      </trkpt>
      <trkpt lat="43.29427" lon="-1.69105">
        <ele>201</ele>
        <time>2026-03-06T19:59:39.000Z</time>
      </trkpt>
      <trkpt lat="43.29429" lon="-1.69108">
        <ele>201</ele>
        <time>2026-03-06T19:59:40.000Z</time>
      </trkpt>
      <trkpt lat="43.29432" lon="-1.69111">
        <ele>202</ele>
        <time>2026-03-06T19:59:40.000Z</time>
      </trkpt>
      <trkpt lat="43.29434" lon="-1.69113">
        <ele>202</ele>
        <time>2026-03-06T19:59:41.000Z</time>
      </trkpt>
      <trkpt lat="43.29438" lon="-1.69114">
        <ele>203</ele>
        <time>2026-03-06T19:59:41.000Z</time>
      </trkpt>
      <trkpt lat="43.2944" lon="-1.69114">
        <ele>203</ele>
        <time>2026-03-06T19:59:42.000Z</time>
      </trkpt>
      <trkpt lat="43.29443" lon="-1.69113">
        <ele>202</ele>
        <time>2026-03-06T19:59:42.000Z</time>
      </trkpt>
      <trkpt lat="43.29444" lon="-1.69112">
        <ele>202</ele>
        <time>2026-03-06T19:59:42.000Z</time>
      </trkpt>
      <trkpt lat="43.29445" lon="-1.69111">
        <ele>202</ele>
        <time>2026-03-06T19:59:43.000Z</time>
      </trkpt>
      <trkpt lat="43.29446" lon="-1.69111">
        <ele>201</ele>
        <time>2026-03-06T19:59:43.000Z</time>
      </trkpt>
      <trkpt lat="43.29448" lon="-1.69107">
        <ele>200</ele>
        <time>2026-03-06T19:59:44.000Z</time>
      </trkpt>
      <trkpt lat="43.29455" lon="-1.69093">
        <ele>196</ele>
        <time>2026-03-06T19:59:46.000Z</time>
      </trkpt>
      <trkpt lat="43.29462" lon="-1.69078">
        <ele>192</ele>
        <time>2026-03-06T19:59:48.000Z</time>
      </trkpt>
      <trkpt lat="43.29468" lon="-1.69072">
        <ele>190</ele>
        <time>2026-03-06T19:59:49.000Z</time>
      </trkpt>
      <trkpt lat="43.2947" lon="-1.6907">
        <ele>189</ele>
        <time>2026-03-06T19:59:50.000Z</time>
      </trkpt>
      <trkpt lat="43.29472" lon="-1.69069">
        <ele>189</ele>
        <time>2026-03-06T19:59:50.000Z</time>
      </trkpt>
      <trkpt lat="43.29476" lon="-1.69069">
        <ele>189</ele>
        <time>2026-03-06T19:59:51.000Z</time>
      </trkpt>
      <trkpt lat="43.29482" lon="-1.69073">
        <ele>190</ele>
        <time>2026-03-06T19:59:52.000Z</time>
      </trkpt>
      <trkpt lat="43.29486" lon="-1.69081">
        <ele>192</ele>
        <time>2026-03-06T19:59:53.000Z</time>
      </trkpt>
      <trkpt lat="43.2949" lon="-1.69094">
        <ele>195</ele>
        <time>2026-03-06T19:59:55.000Z</time>
      </trkpt>
      <trkpt lat="43.29493" lon="-1.691">
        <ele>197</ele>
        <time>2026-03-06T19:59:56.000Z</time>
      </trkpt>
      <trkpt lat="43.29495" lon="-1.69103">
        <ele>197</ele>
        <time>2026-03-06T19:59:57.000Z</time>
      </trkpt>
      <trkpt lat="43.29503" lon="-1.69112">
        <ele>200</ele>
        <time>2026-03-06T19:59:58.000Z</time>
      </trkpt>
      <trkpt lat="43.29513" lon="-1.69121">
        <ele>204</ele>
        <time>2026-03-06T20:00:01.000Z</time>
      </trkpt>
      <trkpt lat="43.29528" lon="-1.69131">
        <ele>209</ele>
        <time>2026-03-06T20:00:04.000Z</time>
      </trkpt>
      <trkpt lat="43.29529" lon="-1.69132">
        <ele>209</ele>
        <time>2026-03-06T20:00:04.000Z</time>
      </trkpt>
      <trkpt lat="43.29539" lon="-1.69134">
        <ele>211</ele>
        <time>2026-03-06T20:00:06.000Z</time>
      </trkpt>
      <trkpt lat="43.29541" lon="-1.69134">
        <ele>212</ele>
        <time>2026-03-06T20:00:06.000Z</time>
      </trkpt>
      <trkpt lat="43.29542" lon="-1.69133">
        <ele>212</ele>
        <time>2026-03-06T20:00:06.000Z</time>
      </trkpt>
      <trkpt lat="43.2955" lon="-1.69129">
        <ele>212</ele>
        <time>2026-03-06T20:00:08.000Z</time>
      </trkpt>
      <trkpt lat="43.29551" lon="-1.69128">
        <ele>212</ele>
        <time>2026-03-06T20:00:08.000Z</time>
      </trkpt>
      <trkpt lat="43.29552" lon="-1.69127">
        <ele>212</ele>
        <time>2026-03-06T20:00:08.000Z</time>
      </trkpt>
      <trkpt lat="43.2956" lon="-1.6912">
        <ele>212</ele>
        <time>2026-03-06T20:00:10.000Z</time>
      </trkpt>
      <trkpt lat="43.2956" lon="-1.69119">
        <ele>211</ele>
        <time>2026-03-06T20:00:10.000Z</time>
      </trkpt>
      <trkpt lat="43.29561" lon="-1.69115">
        <ele>211</ele>
        <time>2026-03-06T20:00:10.000Z</time>
      </trkpt>
      <trkpt lat="43.29563" lon="-1.69111">
        <ele>210</ele>
        <time>2026-03-06T20:00:11.000Z</time>
      </trkpt>
      <trkpt lat="43.29563" lon="-1.6911">
        <ele>210</ele>
        <time>2026-03-06T20:00:11.000Z</time>
      </trkpt>
      <trkpt lat="43.29563" lon="-1.69109">
        <ele>210</ele>
        <time>2026-03-06T20:00:11.000Z</time>
      </trkpt>
      <trkpt lat="43.29564" lon="-1.69094">
        <ele>207</ele>
        <time>2026-03-06T20:00:13.000Z</time>
      </trkpt>
      <trkpt lat="43.29563" lon="-1.69074">
        <ele>203</ele>
        <time>2026-03-06T20:00:16.000Z</time>
      </trkpt>
      <trkpt lat="43.29563" lon="-1.69055">
        <ele>198</ele>
        <time>2026-03-06T20:00:18.000Z</time>
      </trkpt>
      <trkpt lat="43.29563" lon="-1.69054">
        <ele>198</ele>
        <time>2026-03-06T20:00:18.000Z</time>
      </trkpt>
      <trkpt lat="43.29566" lon="-1.69042">
        <ele>196</ele>
        <time>2026-03-06T20:00:20.000Z</time>
      </trkpt>
      <trkpt lat="43.2957" lon="-1.69032">
        <ele>195</ele>
        <time>2026-03-06T20:00:22.000Z</time>
      </trkpt>
      <trkpt lat="43.2957" lon="-1.69031">
        <ele>194</ele>
        <time>2026-03-06T20:00:22.000Z</time>
      </trkpt>
      <trkpt lat="43.29571" lon="-1.69031">
        <ele>195</ele>
        <time>2026-03-06T20:00:22.000Z</time>
      </trkpt>
      <trkpt lat="43.29576" lon="-1.69024">
        <ele>194</ele>
        <time>2026-03-06T20:00:23.000Z</time>
      </trkpt>
      <trkpt lat="43.29586" lon="-1.69017">
        <ele>195</ele>
        <time>2026-03-06T20:00:25.000Z</time>
      </trkpt>
      <trkpt lat="43.29595" lon="-1.69013">
        <ele>196</ele>
        <time>2026-03-06T20:00:27.000Z</time>
      </trkpt>
      <trkpt lat="43.29599" lon="-1.6901">
        <ele>197</ele>
        <time>2026-03-06T20:00:28.000Z</time>
      </trkpt>
      <trkpt lat="43.29613" lon="-1.69003">
        <ele>198</ele>
        <time>2026-03-06T20:00:30.000Z</time>
      </trkpt>
      <trkpt lat="43.29631" lon="-1.68996">
        <ele>201</ele>
        <time>2026-03-06T20:00:34.000Z</time>
      </trkpt>
      <trkpt lat="43.29644" lon="-1.68994">
        <ele>203</ele>
        <time>2026-03-06T20:00:36.000Z</time>
      </trkpt>
      <trkpt lat="43.29665" lon="-1.68994">
        <ele>207</ele>
        <time>2026-03-06T20:00:40.000Z</time>
      </trkpt>
      <trkpt lat="43.29674" lon="-1.68995">
        <ele>209</ele>
        <time>2026-03-06T20:00:41.000Z</time>
      </trkpt>
      <trkpt lat="43.29678" lon="-1.6899">
        <ele>209</ele>
        <time>2026-03-06T20:00:42.000Z</time>
      </trkpt>
      <trkpt lat="43.29681" lon="-1.68983">
        <ele>208</ele>
        <time>2026-03-06T20:00:43.000Z</time>
      </trkpt>
      <trkpt lat="43.29683" lon="-1.68968">
        <ele>205</ele>
        <time>2026-03-06T20:00:45.000Z</time>
      </trkpt>
      <trkpt lat="43.29686" lon="-1.68956">
        <ele>203</ele>
        <time>2026-03-06T20:00:47.000Z</time>
      </trkpt>
      <trkpt lat="43.2969" lon="-1.6895">
        <ele>202</ele>
        <time>2026-03-06T20:00:48.000Z</time>
      </trkpt>
      <trkpt lat="43.29695" lon="-1.68947">
        <ele>202</ele>
        <time>2026-03-06T20:00:49.000Z</time>
      </trkpt>
      <trkpt lat="43.29699" lon="-1.68946">
        <ele>202</ele>
        <time>2026-03-06T20:00:50.000Z</time>
      </trkpt>
      <trkpt lat="43.29707" lon="-1.68945">
        <ele>202</ele>
        <time>2026-03-06T20:00:51.000Z</time>
      </trkpt>
      <trkpt lat="43.29718" lon="-1.68945">
        <ele>204</ele>
        <time>2026-03-06T20:00:53.000Z</time>
      </trkpt>
      <trkpt lat="43.2973" lon="-1.68945">
        <ele>205</ele>
        <time>2026-03-06T20:00:55.000Z</time>
      </trkpt>
      <trkpt lat="43.29741" lon="-1.68944">
        <ele>206</ele>
        <time>2026-03-06T20:00:57.000Z</time>
      </trkpt>
      <trkpt lat="43.29752" lon="-1.68943">
        <ele>206</ele>
        <time>2026-03-06T20:00:59.000Z</time>
      </trkpt>
      <trkpt lat="43.29764" lon="-1.68944">
        <ele>208</ele>
        <time>2026-03-06T20:01:01.000Z</time>
      </trkpt>
      <trkpt lat="43.29776" lon="-1.68946">
        <ele>209</ele>
        <time>2026-03-06T20:01:03.000Z</time>
      </trkpt>
      <trkpt lat="43.29787" lon="-1.68948">
        <ele>211</ele>
        <time>2026-03-06T20:01:05.000Z</time>
      </trkpt>
      <trkpt lat="43.29798" lon="-1.6895">
        <ele>212</ele>
        <time>2026-03-06T20:01:07.000Z</time>
      </trkpt>
      <trkpt lat="43.29803" lon="-1.68952">
        <ele>213</ele>
        <time>2026-03-06T20:01:08.000Z</time>
      </trkpt>
      <trkpt lat="43.29807" lon="-1.68955">
        <ele>214</ele>
        <time>2026-03-06T20:01:09.000Z</time>
      </trkpt>
      <trkpt lat="43.29815" lon="-1.68961">
        <ele>216</ele>
        <time>2026-03-06T20:01:11.000Z</time>
      </trkpt>
      <trkpt lat="43.29818" lon="-1.68963">
        <ele>217</ele>
        <time>2026-03-06T20:01:11.000Z</time>
      </trkpt>
      <trkpt lat="43.29822" lon="-1.68965">
        <ele>218</ele>
        <time>2026-03-06T20:01:12.000Z</time>
      </trkpt>
      <trkpt lat="43.29824" lon="-1.68966">
        <ele>218</ele>
        <time>2026-03-06T20:01:12.000Z</time>
      </trkpt>
      <trkpt lat="43.29826" lon="-1.68965">
        <ele>218</ele>
        <time>2026-03-06T20:01:13.000Z</time>
      </trkpt>
      <trkpt lat="43.29829" lon="-1.68964">
        <ele>218</ele>
        <time>2026-03-06T20:01:13.000Z</time>
      </trkpt>
      <trkpt lat="43.29835" lon="-1.6896">
        <ele>217</ele>
        <time>2026-03-06T20:01:15.000Z</time>
      </trkpt>
      <trkpt lat="43.29847" lon="-1.68954">
        <ele>216</ele>
        <time>2026-03-06T20:01:17.000Z</time>
      </trkpt>
      <trkpt lat="43.29856" lon="-1.68949">
        <ele>215</ele>
        <time>2026-03-06T20:01:19.000Z</time>
      </trkpt>
      <trkpt lat="43.29866" lon="-1.68947">
        <ele>215</ele>
        <time>2026-03-06T20:01:20.000Z</time>
      </trkpt>
      <trkpt lat="43.29875" lon="-1.6895">
        <ele>216</ele>
        <time>2026-03-06T20:01:22.000Z</time>
      </trkpt>
      <trkpt lat="43.29884" lon="-1.68958">
        <ele>218</ele>
        <time>2026-03-06T20:01:24.000Z</time>
      </trkpt>
      <trkpt lat="43.29901" lon="-1.68969">
        <ele>222</ele>
        <time>2026-03-06T20:01:27.000Z</time>
      </trkpt>
      <trkpt lat="43.29915" lon="-1.68977">
        <ele>225</ele>
        <time>2026-03-06T20:01:30.000Z</time>
      </trkpt>
      <trkpt lat="43.29933" lon="-1.68983">
        <ele>227</ele>
        <time>2026-03-06T20:01:33.000Z</time>
      </trkpt>
      <trkpt lat="43.29944" lon="-1.6899">
        <ele>229</ele>
        <time>2026-03-06T20:01:35.000Z</time>
      </trkpt>
      <trkpt lat="43.2995" lon="-1.68994">
        <ele>230</ele>
        <time>2026-03-06T20:01:37.000Z</time>
      </trkpt>
      <trkpt lat="43.29953" lon="-1.68997">
        <ele>231</ele>
        <time>2026-03-06T20:01:37.000Z</time>
      </trkpt>
      <trkpt lat="43.29955" lon="-1.69003">
        <ele>232</ele>
        <time>2026-03-06T20:01:38.000Z</time>
      </trkpt>
      <trkpt lat="43.29959" lon="-1.6901">
        <ele>235</ele>
        <time>2026-03-06T20:01:39.000Z</time>
      </trkpt>
      <trkpt lat="43.29962" lon="-1.69021">
        <ele>239</ele>
        <time>2026-03-06T20:01:41.000Z</time>
      </trkpt>
      <trkpt lat="43.29966" lon="-1.69029">
        <ele>241</ele>
        <time>2026-03-06T20:01:42.000Z</time>
      </trkpt>
      <trkpt lat="43.29969" lon="-1.69032">
        <ele>242</ele>
        <time>2026-03-06T20:01:43.000Z</time>
      </trkpt>
      <trkpt lat="43.29972" lon="-1.69035">
        <ele>243</ele>
        <time>2026-03-06T20:01:43.000Z</time>
      </trkpt>
      <trkpt lat="43.29974" lon="-1.69036">
        <ele>243</ele>
        <time>2026-03-06T20:01:44.000Z</time>
      </trkpt>
      <trkpt lat="43.29977" lon="-1.69036">
        <ele>243</ele>
        <time>2026-03-06T20:01:44.000Z</time>
      </trkpt>
      <trkpt lat="43.29981" lon="-1.69035">
        <ele>243</ele>
        <time>2026-03-06T20:01:45.000Z</time>
      </trkpt>
      <trkpt lat="43.29984" lon="-1.69032">
        <ele>242</ele>
        <time>2026-03-06T20:01:46.000Z</time>
      </trkpt>
      <trkpt lat="43.29987" lon="-1.69029">
        <ele>241</ele>
        <time>2026-03-06T20:01:46.000Z</time>
      </trkpt>
      <trkpt lat="43.29991" lon="-1.69018">
        <ele>238</ele>
        <time>2026-03-06T20:01:48.000Z</time>
      </trkpt>
      <trkpt lat="43.30004" lon="-1.68987">
        <ele>230</ele>
        <time>2026-03-06T20:01:53.000Z</time>
      </trkpt>
      <trkpt lat="43.30012" lon="-1.68969">
        <ele>228</ele>
        <time>2026-03-06T20:01:55.000Z</time>
      </trkpt>
      <trkpt lat="43.30019" lon="-1.68958">
        <ele>228</ele>
        <time>2026-03-06T20:01:57.000Z</time>
      </trkpt>
      <trkpt lat="43.30024" lon="-1.68952">
        <ele>227</ele>
        <time>2026-03-06T20:01:58.000Z</time>
      </trkpt>
      <trkpt lat="43.30031" lon="-1.68945">
        <ele>227</ele>
        <time>2026-03-06T20:02:00.000Z</time>
      </trkpt>
      <trkpt lat="43.3004" lon="-1.68938">
        <ele>227</ele>
        <time>2026-03-06T20:02:02.000Z</time>
      </trkpt>
      <trkpt lat="43.30046" lon="-1.68935">
        <ele>228</ele>
        <time>2026-03-06T20:02:03.000Z</time>
      </trkpt>
      <trkpt lat="43.30052" lon="-1.68931">
        <ele>228</ele>
        <time>2026-03-06T20:02:04.000Z</time>
      </trkpt>
      <trkpt lat="43.30055" lon="-1.6893">
        <ele>228</ele>
        <time>2026-03-06T20:02:05.000Z</time>
      </trkpt>
      <trkpt lat="43.30058" lon="-1.68929">
        <ele>229</ele>
        <time>2026-03-06T20:02:05.000Z</time>
      </trkpt>
      <trkpt lat="43.30065" lon="-1.68928">
        <ele>230</ele>
        <time>2026-03-06T20:02:06.000Z</time>
      </trkpt>
      <trkpt lat="43.30072" lon="-1.68927">
        <ele>231</ele>
        <time>2026-03-06T20:02:08.000Z</time>
      </trkpt>
      <trkpt lat="43.3008" lon="-1.68926">
        <ele>232</ele>
        <time>2026-03-06T20:02:09.000Z</time>
      </trkpt>
      <trkpt lat="43.30085" lon="-1.68925">
        <ele>232</ele>
        <time>2026-03-06T20:02:10.000Z</time>
      </trkpt>
      <trkpt lat="43.30094" lon="-1.68926">
        <ele>234</ele>
        <time>2026-03-06T20:02:12.000Z</time>
      </trkpt>
      <trkpt lat="43.30104" lon="-1.68927">
        <ele>235</ele>
        <time>2026-03-06T20:02:13.000Z</time>
      </trkpt>
      <trkpt lat="43.30112" lon="-1.68928">
        <ele>236</ele>
        <time>2026-03-06T20:02:15.000Z</time>
      </trkpt>
      <trkpt lat="43.3012" lon="-1.68929">
        <ele>238</ele>
        <time>2026-03-06T20:02:16.000Z</time>
      </trkpt>
      <trkpt lat="43.30125" lon="-1.6893">
        <ele>238</ele>
        <time>2026-03-06T20:02:17.000Z</time>
      </trkpt>
      <trkpt lat="43.30129" lon="-1.68931">
        <ele>239</ele>
        <time>2026-03-06T20:02:18.000Z</time>
      </trkpt>
      <trkpt lat="43.30135" lon="-1.68931">
        <ele>240</ele>
        <time>2026-03-06T20:02:19.000Z</time>
      </trkpt>
      <trkpt lat="43.3014" lon="-1.68929">
        <ele>240</ele>
        <time>2026-03-06T20:02:20.000Z</time>
      </trkpt>
      <trkpt lat="43.30149" lon="-1.68927">
        <ele>240</ele>
        <time>2026-03-06T20:02:21.000Z</time>
      </trkpt>
      <trkpt lat="43.30157" lon="-1.68925">
        <ele>240</ele>
        <time>2026-03-06T20:02:23.000Z</time>
      </trkpt>
      <trkpt lat="43.30161" lon="-1.68924">
        <ele>240</ele>
        <time>2026-03-06T20:02:24.000Z</time>
      </trkpt>
      <trkpt lat="43.30164" lon="-1.68924">
        <ele>241</ele>
        <time>2026-03-06T20:02:24.000Z</time>
      </trkpt>
      <trkpt lat="43.30171" lon="-1.68925">
        <ele>242</ele>
        <time>2026-03-06T20:02:25.000Z</time>
      </trkpt>
      <trkpt lat="43.30179" lon="-1.68927">
        <ele>243</ele>
        <time>2026-03-06T20:02:27.000Z</time>
      </trkpt>
      <trkpt lat="43.3019" lon="-1.68931">
        <ele>246</ele>
        <time>2026-03-06T20:02:29.000Z</time>
      </trkpt>
      <trkpt lat="43.30213" lon="-1.68942">
        <ele>252</ele>
        <time>2026-03-06T20:02:33.000Z</time>
      </trkpt>
      <trkpt lat="43.30227" lon="-1.68945">
        <ele>254</ele>
        <time>2026-03-06T20:02:36.000Z</time>
      </trkpt>
      <trkpt lat="43.30247" lon="-1.68947">
        <ele>257</ele>
        <time>2026-03-06T20:02:39.000Z</time>
      </trkpt>
      <trkpt lat="43.30266" lon="-1.68945">
        <ele>256</ele>
        <time>2026-03-06T20:02:43.000Z</time>
      </trkpt>
      <trkpt lat="43.30277" lon="-1.68945">
        <ele>256</ele>
        <time>2026-03-06T20:02:45.000Z</time>
      </trkpt>
      <trkpt lat="43.30293" lon="-1.68948">
        <ele>257</ele>
        <time>2026-03-06T20:02:48.000Z</time>
      </trkpt>
      <trkpt lat="43.30305" lon="-1.68954">
        <ele>260</ele>
        <time>2026-03-06T20:02:50.000Z</time>
      </trkpt>
      <trkpt lat="43.30315" lon="-1.68961">
        <ele>263</ele>
        <time>2026-03-06T20:02:52.000Z</time>
      </trkpt>
      <trkpt lat="43.30329" lon="-1.68968">
        <ele>266</ele>
        <time>2026-03-06T20:02:54.000Z</time>
      </trkpt>
      <trkpt lat="43.3034" lon="-1.68972">
        <ele>267</ele>
        <time>2026-03-06T20:02:57.000Z</time>
      </trkpt>
      <trkpt lat="43.3035" lon="-1.68972">
        <ele>267</ele>
        <time>2026-03-06T20:02:58.000Z</time>
      </trkpt>
      <trkpt lat="43.30362" lon="-1.68969">
        <ele>266</ele>
        <time>2026-03-06T20:03:00.000Z</time>
      </trkpt>
      <trkpt lat="43.30378" lon="-1.68962">
        <ele>263</ele>
        <time>2026-03-06T20:03:03.000Z</time>
      </trkpt>
      <trkpt lat="43.30392" lon="-1.68959">
        <ele>262</ele>
        <time>2026-03-06T20:03:06.000Z</time>
      </trkpt>
      <trkpt lat="43.30403" lon="-1.68955">
        <ele>261</ele>
        <time>2026-03-06T20:03:08.000Z</time>
      </trkpt>
      <trkpt lat="43.30411" lon="-1.68949">
        <ele>259</ele>
        <time>2026-03-06T20:03:10.000Z</time>
      </trkpt>
      <trkpt lat="43.3042" lon="-1.68938">
        <ele>255</ele>
        <time>2026-03-06T20:03:12.000Z</time>
      </trkpt>
      <trkpt lat="43.30427" lon="-1.68926">
        <ele>252</ele>
        <time>2026-03-06T20:03:14.000Z</time>
      </trkpt>
      <trkpt lat="43.30433" lon="-1.6892">
        <ele>251</ele>
        <time>2026-03-06T20:03:15.000Z</time>
      </trkpt>
      <trkpt lat="43.30442" lon="-1.68916">
        <ele>251</ele>
        <time>2026-03-06T20:03:17.000Z</time>
      </trkpt>
      <trkpt lat="43.30456" lon="-1.68913">
        <ele>253</ele>
        <time>2026-03-06T20:03:19.000Z</time>
      </trkpt>
      <trkpt lat="43.30468" lon="-1.6891">
        <ele>255</ele>
        <time>2026-03-06T20:03:21.000Z</time>
      </trkpt>
      <trkpt lat="43.30479" lon="-1.68902">
        <ele>254</ele>
        <time>2026-03-06T20:03:24.000Z</time>
      </trkpt>
      <trkpt lat="43.30492" lon="-1.68893">
        <ele>254</ele>
        <time>2026-03-06T20:03:26.000Z</time>
      </trkpt>
      <trkpt lat="43.30501" lon="-1.68884">
        <ele>253</ele>
        <time>2026-03-06T20:03:28.000Z</time>
      </trkpt>
      <trkpt lat="43.30508" lon="-1.68874">
        <ele>251</ele>
        <time>2026-03-06T20:03:30.000Z</time>
      </trkpt>
      <trkpt lat="43.30516" lon="-1.68867">
        <ele>249</ele>
        <time>2026-03-06T20:03:32.000Z</time>
      </trkpt>
      <trkpt lat="43.30521" lon="-1.68865">
        <ele>249</ele>
        <time>2026-03-06T20:03:33.000Z</time>
      </trkpt>
      <trkpt lat="43.30528" lon="-1.68864">
        <ele>249</ele>
        <time>2026-03-06T20:03:34.000Z</time>
      </trkpt>
      <trkpt lat="43.30533" lon="-1.68868">
        <ele>250</ele>
        <time>2026-03-06T20:03:35.000Z</time>
      </trkpt>
      <trkpt lat="43.30544" lon="-1.6888">
        <ele>253</ele>
        <time>2026-03-06T20:03:37.000Z</time>
      </trkpt>
      <trkpt lat="43.30555" lon="-1.68898">
        <ele>257</ele>
        <time>2026-03-06T20:03:40.000Z</time>
      </trkpt>
      <trkpt lat="43.30563" lon="-1.68907">
        <ele>259</ele>
        <time>2026-03-06T20:03:42.000Z</time>
      </trkpt>
      <trkpt lat="43.30568" lon="-1.68916">
        <ele>261</ele>
        <time>2026-03-06T20:03:44.000Z</time>
      </trkpt>
      <trkpt lat="43.3057" lon="-1.68927">
        <ele>264</ele>
        <time>2026-03-06T20:03:45.000Z</time>
      </trkpt>
      <trkpt lat="43.30574" lon="-1.68943">
        <ele>267</ele>
        <time>2026-03-06T20:03:47.000Z</time>
      </trkpt>
      <trkpt lat="43.30578" lon="-1.68956">
        <ele>270</ele>
        <time>2026-03-06T20:03:49.000Z</time>
      </trkpt>
      <trkpt lat="43.30585" lon="-1.68973">
        <ele>273</ele>
        <time>2026-03-06T20:03:52.000Z</time>
      </trkpt>
      <trkpt lat="43.30591" lon="-1.68986">
        <ele>276</ele>
        <time>2026-03-06T20:03:54.000Z</time>
      </trkpt>
      <trkpt lat="43.30593" lon="-1.68999">
        <ele>278</ele>
        <time>2026-03-06T20:03:55.000Z</time>
      </trkpt>
      <trkpt lat="43.30596" lon="-1.69015">
        <ele>282</ele>
        <time>2026-03-06T20:03:58.000Z</time>
      </trkpt>
      <trkpt lat="43.30599" lon="-1.69024">
        <ele>284</ele>
        <time>2026-03-06T20:03:59.000Z</time>
      </trkpt>
      <trkpt lat="43.30605" lon="-1.69028">
        <ele>285</ele>
        <time>2026-03-06T20:04:00.000Z</time>
      </trkpt>
      <trkpt lat="43.30612" lon="-1.69027">
        <ele>285</ele>
        <time>2026-03-06T20:04:01.000Z</time>
      </trkpt>
      <trkpt lat="43.30619" lon="-1.69017">
        <ele>282</ele>
        <time>2026-03-06T20:04:03.000Z</time>
      </trkpt>
      <trkpt lat="43.30625" lon="-1.69004">
        <ele>279</ele>
        <time>2026-03-06T20:04:05.000Z</time>
      </trkpt>
      <trkpt lat="43.30632" lon="-1.68983">
        <ele>274</ele>
        <time>2026-03-06T20:04:08.000Z</time>
      </trkpt>
      <trkpt lat="43.3064" lon="-1.6897">
        <ele>271</ele>
        <time>2026-03-06T20:04:10.000Z</time>
      </trkpt>
      <trkpt lat="43.30651" lon="-1.68956">
        <ele>268</ele>
        <time>2026-03-06T20:04:13.000Z</time>
      </trkpt>
      <trkpt lat="43.30657" lon="-1.6895">
        <ele>267</ele>
        <time>2026-03-06T20:04:14.000Z</time>
      </trkpt>
      <trkpt lat="43.30667" lon="-1.68943">
        <ele>265</ele>
        <time>2026-03-06T20:04:16.000Z</time>
      </trkpt>
      <trkpt lat="43.30675" lon="-1.68938">
        <ele>265</ele>
        <time>2026-03-06T20:04:18.000Z</time>
      </trkpt>
      <trkpt lat="43.30684" lon="-1.68936">
        <ele>266</ele>
        <time>2026-03-06T20:04:20.000Z</time>
      </trkpt>
      <trkpt lat="43.30693" lon="-1.68936">
        <ele>267</ele>
        <time>2026-03-06T20:04:21.000Z</time>
      </trkpt>
      <trkpt lat="43.30702" lon="-1.68939">
        <ele>269</ele>
        <time>2026-03-06T20:04:23.000Z</time>
      </trkpt>
      <trkpt lat="43.30714" lon="-1.68941">
        <ele>271</ele>
        <time>2026-03-06T20:04:25.000Z</time>
      </trkpt>
      <trkpt lat="43.30726" lon="-1.68946">
        <ele>273</ele>
        <time>2026-03-06T20:04:27.000Z</time>
      </trkpt>
      <trkpt lat="43.30746" lon="-1.68957">
        <ele>278</ele>
        <time>2026-03-06T20:04:31.000Z</time>
      </trkpt>
      <trkpt lat="43.30757" lon="-1.68964">
        <ele>280</ele>
        <time>2026-03-06T20:04:33.000Z</time>
      </trkpt>
      <trkpt lat="43.30761" lon="-1.68966">
        <ele>281</ele>
        <time>2026-03-06T20:04:34.000Z</time>
      </trkpt>
      <trkpt lat="43.30772" lon="-1.68974">
        <ele>284</ele>
        <time>2026-03-06T20:04:36.000Z</time>
      </trkpt>
      <trkpt lat="43.30776" lon="-1.68976">
        <ele>284</ele>
        <time>2026-03-06T20:04:37.000Z</time>
      </trkpt>
      <trkpt lat="43.30779" lon="-1.68977">
        <ele>285</ele>
        <time>2026-03-06T20:04:37.000Z</time>
      </trkpt>
      <trkpt lat="43.30781" lon="-1.68977">
        <ele>285</ele>
        <time>2026-03-06T20:04:38.000Z</time>
      </trkpt>
      <trkpt lat="43.30783" lon="-1.68977">
        <ele>285</ele>
        <time>2026-03-06T20:04:38.000Z</time>
      </trkpt>
      <trkpt lat="43.30784" lon="-1.68977">
        <ele>285</ele>
        <time>2026-03-06T20:04:38.000Z</time>
      </trkpt>
      <trkpt lat="43.30786" lon="-1.68976">
        <ele>285</ele>
        <time>2026-03-06T20:04:39.000Z</time>
      </trkpt>
      <trkpt lat="43.30788" lon="-1.68975">
        <ele>285</ele>
        <time>2026-03-06T20:04:39.000Z</time>
      </trkpt>
      <trkpt lat="43.3079" lon="-1.68974">
        <ele>285</ele>
        <time>2026-03-06T20:04:39.000Z</time>
      </trkpt>
      <trkpt lat="43.30793" lon="-1.68969">
        <ele>285</ele>
        <time>2026-03-06T20:04:40.000Z</time>
      </trkpt>
      <trkpt lat="43.30796" lon="-1.68964">
        <ele>284</ele>
        <time>2026-03-06T20:04:41.000Z</time>
      </trkpt>
      <trkpt lat="43.30799" lon="-1.68956">
        <ele>283</ele>
        <time>2026-03-06T20:04:42.000Z</time>
      </trkpt>
      <trkpt lat="43.30802" lon="-1.68947">
        <ele>283</ele>
        <time>2026-03-06T20:04:44.000Z</time>
      </trkpt>
      <trkpt lat="43.30805" lon="-1.68942">
        <ele>282</ele>
        <time>2026-03-06T20:04:44.000Z</time>
      </trkpt>
      <trkpt lat="43.30809" lon="-1.68937">
        <ele>282</ele>
        <time>2026-03-06T20:04:45.000Z</time>
      </trkpt>
      <trkpt lat="43.30814" lon="-1.68932">
        <ele>282</ele>
        <time>2026-03-06T20:04:46.000Z</time>
      </trkpt>
      <trkpt lat="43.3082" lon="-1.6893">
        <ele>283</ele>
        <time>2026-03-06T20:04:48.000Z</time>
      </trkpt>
      <trkpt lat="43.30827" lon="-1.6893">
        <ele>284</ele>
        <time>2026-03-06T20:04:49.000Z</time>
      </trkpt>
      <trkpt lat="43.30835" lon="-1.6893">
        <ele>286</ele>
        <time>2026-03-06T20:04:50.000Z</time>
      </trkpt>
      <trkpt lat="43.3084" lon="-1.68932">
        <ele>287</ele>
        <time>2026-03-06T20:04:51.000Z</time>
      </trkpt>
      <trkpt lat="43.30846" lon="-1.68935">
        <ele>289</ele>
        <time>2026-03-06T20:04:52.000Z</time>
      </trkpt>
      <trkpt lat="43.30848" lon="-1.68936">
        <ele>289</ele>
        <time>2026-03-06T20:04:53.000Z</time>
      </trkpt>
      <trkpt lat="43.30854" lon="-1.68941">
        <ele>291</ele>
        <time>2026-03-06T20:04:54.000Z</time>
      </trkpt>
      <trkpt lat="43.30856" lon="-1.68942">
        <ele>292</ele>
        <time>2026-03-06T20:04:54.000Z</time>
      </trkpt>
      <trkpt lat="43.30861" lon="-1.68948">
        <ele>293</ele>
        <time>2026-03-06T20:04:55.000Z</time>
      </trkpt>
      <trkpt lat="43.30863" lon="-1.6895">
        <ele>294</ele>
        <time>2026-03-06T20:04:56.000Z</time>
      </trkpt>
      <trkpt lat="43.30864" lon="-1.68951">
        <ele>294</ele>
        <time>2026-03-06T20:04:56.000Z</time>
      </trkpt>
      <trkpt lat="43.30866" lon="-1.68952">
        <ele>295</ele>
        <time>2026-03-06T20:04:57.000Z</time>
      </trkpt>
      <trkpt lat="43.30868" lon="-1.68952">
        <ele>295</ele>
        <time>2026-03-06T20:04:57.000Z</time>
      </trkpt>
      <trkpt lat="43.30871" lon="-1.68951">
        <ele>296</ele>
        <time>2026-03-06T20:04:57.000Z</time>
      </trkpt>
      <trkpt lat="43.30874" lon="-1.6895">
        <ele>296</ele>
        <time>2026-03-06T20:04:58.000Z</time>
      </trkpt>
      <trkpt lat="43.30876" lon="-1.68948">
        <ele>297</ele>
        <time>2026-03-06T20:04:58.000Z</time>
      </trkpt>
      <trkpt lat="43.30879" lon="-1.68944">
        <ele>297</ele>
        <time>2026-03-06T20:04:59.000Z</time>
      </trkpt>
      <trkpt lat="43.3088" lon="-1.68941">
        <ele>297</ele>
        <time>2026-03-06T20:05:00.000Z</time>
      </trkpt>
      <trkpt lat="43.30882" lon="-1.68936">
        <ele>297</ele>
        <time>2026-03-06T20:05:00.000Z</time>
      </trkpt>
      <trkpt lat="43.30882" lon="-1.68931">
        <ele>297</ele>
        <time>2026-03-06T20:05:01.000Z</time>
      </trkpt>
      <trkpt lat="43.30879" lon="-1.68913">
        <ele>296</ele>
        <time>2026-03-06T20:05:03.000Z</time>
      </trkpt>
      <trkpt lat="43.30871" lon="-1.68893">
        <ele>296</ele>
        <time>2026-03-06T20:05:06.000Z</time>
      </trkpt>
      <trkpt lat="43.30864" lon="-1.68878">
        <ele>296</ele>
        <time>2026-03-06T20:05:09.000Z</time>
      </trkpt>
      <trkpt lat="43.3086" lon="-1.68869">
        <ele>296</ele>
        <time>2026-03-06T20:05:10.000Z</time>
      </trkpt>
      <trkpt lat="43.30857" lon="-1.68859">
        <ele>296</ele>
        <time>2026-03-06T20:05:11.000Z</time>
      </trkpt>
      <trkpt lat="43.30856" lon="-1.68845">
        <ele>297</ele>
        <time>2026-03-06T20:05:13.000Z</time>
      </trkpt>
      <trkpt lat="43.30854" lon="-1.68825">
        <ele>300</ele>
        <time>2026-03-06T20:05:16.000Z</time>
      </trkpt>
      <trkpt lat="43.30852" lon="-1.68813">
        <ele>301</ele>
        <time>2026-03-06T20:05:17.000Z</time>
      </trkpt>
      <trkpt lat="43.30849" lon="-1.68806">
        <ele>302</ele>
        <time>2026-03-06T20:05:18.000Z</time>
      </trkpt>
      <trkpt lat="43.30844" lon="-1.68803">
        <ele>301</ele>
        <time>2026-03-06T20:05:19.000Z</time>
      </trkpt>
      <trkpt lat="43.30835" lon="-1.68804">
        <ele>298</ele>
        <time>2026-03-06T20:05:21.000Z</time>
      </trkpt>
      <trkpt lat="43.30823" lon="-1.68808">
        <ele>294</ele>
        <time>2026-03-06T20:05:23.000Z</time>
      </trkpt>
      <trkpt lat="43.30817" lon="-1.68808">
        <ele>293</ele>
        <time>2026-03-06T20:05:24.000Z</time>
      </trkpt>
      <trkpt lat="43.30811" lon="-1.68807">
        <ele>292</ele>
        <time>2026-03-06T20:05:25.000Z</time>
      </trkpt>
      <trkpt lat="43.30803" lon="-1.688">
        <ele>291</ele>
        <time>2026-03-06T20:05:27.000Z</time>
      </trkpt>
      <trkpt lat="43.30795" lon="-1.68794">
        <ele>291</ele>
        <time>2026-03-06T20:05:29.000Z</time>
      </trkpt>
      <trkpt lat="43.30787" lon="-1.68786">
        <ele>290</ele>
        <time>2026-03-06T20:05:30.000Z</time>
      </trkpt>
      <trkpt lat="43.30782" lon="-1.6878">
        <ele>290</ele>
        <time>2026-03-06T20:05:32.000Z</time>
      </trkpt>
      <trkpt lat="43.30777" lon="-1.68775">
        <ele>290</ele>
        <time>2026-03-06T20:05:33.000Z</time>
      </trkpt>
      <trkpt lat="43.30767" lon="-1.68761">
        <ele>290</ele>
        <time>2026-03-06T20:05:35.000Z</time>
      </trkpt>
      <trkpt lat="43.30764" lon="-1.68755">
        <ele>290</ele>
        <time>2026-03-06T20:05:36.000Z</time>
      </trkpt>
      <trkpt lat="43.30763" lon="-1.68752">
        <ele>291</ele>
        <time>2026-03-06T20:05:37.000Z</time>
      </trkpt>
      <trkpt lat="43.30762" lon="-1.68748">
        <ele>291</ele>
        <time>2026-03-06T20:05:37.000Z</time>
      </trkpt>
      <trkpt lat="43.30762" lon="-1.68742">
        <ele>291</ele>
        <time>2026-03-06T20:05:38.000Z</time>
      </trkpt>
      <trkpt lat="43.30761" lon="-1.68735">
        <ele>291</ele>
        <time>2026-03-06T20:05:39.000Z</time>
      </trkpt>
      <trkpt lat="43.30762" lon="-1.68726">
        <ele>291</ele>
        <time>2026-03-06T20:05:40.000Z</time>
      </trkpt>
      <trkpt lat="43.30765" lon="-1.68704">
        <ele>291</ele>
        <time>2026-03-06T20:05:43.000Z</time>
      </trkpt>
      <trkpt lat="43.30772" lon="-1.68681">
        <ele>293</ele>
        <time>2026-03-06T20:05:46.000Z</time>
      </trkpt>
      <trkpt lat="43.30778" lon="-1.68665">
        <ele>294</ele>
        <time>2026-03-06T20:05:49.000Z</time>
      </trkpt>
      <trkpt lat="43.30785" lon="-1.68655">
        <ele>295</ele>
        <time>2026-03-06T20:05:50.000Z</time>
      </trkpt>
      <trkpt lat="43.30794" lon="-1.68649">
        <ele>296</ele>
        <time>2026-03-06T20:05:52.000Z</time>
      </trkpt>
      <trkpt lat="43.30805" lon="-1.68642">
        <ele>298</ele>
        <time>2026-03-06T20:05:54.000Z</time>
      </trkpt>
      <trkpt lat="43.30807" lon="-1.6864">
        <ele>298</ele>
        <time>2026-03-06T20:05:55.000Z</time>
      </trkpt>
      <trkpt lat="43.30823" lon="-1.68636">
        <ele>303</ele>
        <time>2026-03-06T20:05:58.000Z</time>
      </trkpt>
      <trkpt lat="43.30839" lon="-1.68631">
        <ele>306</ele>
        <time>2026-03-06T20:06:01.000Z</time>
      </trkpt>
      <trkpt lat="43.30852" lon="-1.68624">
        <ele>308</ele>
        <time>2026-03-06T20:06:03.000Z</time>
      </trkpt>
      <trkpt lat="43.30859" lon="-1.68621">
        <ele>309</ele>
        <time>2026-03-06T20:06:04.000Z</time>
      </trkpt>
      <trkpt lat="43.3086" lon="-1.68619">
        <ele>309</ele>
        <time>2026-03-06T20:06:05.000Z</time>
      </trkpt>
      <trkpt lat="43.30864" lon="-1.68615">
        <ele>309</ele>
        <time>2026-03-06T20:06:06.000Z</time>
      </trkpt>
      <trkpt lat="43.30865" lon="-1.68614">
        <ele>309</ele>
        <time>2026-03-06T20:06:06.000Z</time>
      </trkpt>
      <trkpt lat="43.30865" lon="-1.68612">
        <ele>309</ele>
        <time>2026-03-06T20:06:06.000Z</time>
      </trkpt>
      <trkpt lat="43.30865" lon="-1.68611">
        <ele>309</ele>
        <time>2026-03-06T20:06:06.000Z</time>
      </trkpt>
      <trkpt lat="43.30866" lon="-1.68601">
        <ele>308</ele>
        <time>2026-03-06T20:06:07.000Z</time>
      </trkpt>
      <trkpt lat="43.30865" lon="-1.68581">
        <ele>305</ele>
        <time>2026-03-06T20:06:10.000Z</time>
      </trkpt>
      <trkpt lat="43.30865" lon="-1.68563">
        <ele>304</ele>
        <time>2026-03-06T20:06:12.000Z</time>
      </trkpt>
      <trkpt lat="43.30865" lon="-1.68536">
        <ele>302</ele>
        <time>2026-03-06T20:06:16.000Z</time>
      </trkpt>
      <trkpt lat="43.30866" lon="-1.68522">
        <ele>302</ele>
        <time>2026-03-06T20:06:18.000Z</time>
      </trkpt>
      <trkpt lat="43.30866" lon="-1.68521">
        <ele>302</ele>
        <time>2026-03-06T20:06:18.000Z</time>
      </trkpt>
      <trkpt lat="43.30866" lon="-1.68519">
        <ele>301</ele>
        <time>2026-03-06T20:06:18.000Z</time>
      </trkpt>
      <trkpt lat="43.30869" lon="-1.68508">
        <ele>301</ele>
        <time>2026-03-06T20:06:20.000Z</time>
      </trkpt>
      <trkpt lat="43.30872" lon="-1.68498">
        <ele>302</ele>
        <time>2026-03-06T20:06:21.000Z</time>
      </trkpt>
      <trkpt lat="43.30873" lon="-1.68497">
        <ele>302</ele>
        <time>2026-03-06T20:06:21.000Z</time>
      </trkpt>
      <trkpt lat="43.30873" lon="-1.68496">
        <ele>302</ele>
        <time>2026-03-06T20:06:21.000Z</time>
      </trkpt>
      <trkpt lat="43.30876" lon="-1.68493">
        <ele>303</ele>
        <time>2026-03-06T20:06:22.000Z</time>
      </trkpt>
      <trkpt lat="43.30877" lon="-1.68492">
        <ele>303</ele>
        <time>2026-03-06T20:06:22.000Z</time>
      </trkpt>
      <trkpt lat="43.30881" lon="-1.68488">
        <ele>304</ele>
        <time>2026-03-06T20:06:23.000Z</time>
      </trkpt>
      <trkpt lat="43.30892" lon="-1.68477">
        <ele>307</ele>
        <time>2026-03-06T20:06:26.000Z</time>
      </trkpt>
      <trkpt lat="43.30895" lon="-1.68473">
        <ele>307</ele>
        <time>2026-03-06T20:06:26.000Z</time>
      </trkpt>
      <trkpt lat="43.309" lon="-1.68466">
        <ele>309</ele>
        <time>2026-03-06T20:06:28.000Z</time>
      </trkpt>
      <trkpt lat="43.30902" lon="-1.6846">
        <ele>309</ele>
        <time>2026-03-06T20:06:28.000Z</time>
      </trkpt>
      <trkpt lat="43.30904" lon="-1.68454">
        <ele>310</ele>
        <time>2026-03-06T20:06:29.000Z</time>
      </trkpt>
      <trkpt lat="43.30906" lon="-1.68447">
        <ele>310</ele>
        <time>2026-03-06T20:06:30.000Z</time>
      </trkpt>
      <trkpt lat="43.30909" lon="-1.6844">
        <ele>311</ele>
        <time>2026-03-06T20:06:31.000Z</time>
      </trkpt>
      <trkpt lat="43.30911" lon="-1.68432">
        <ele>311</ele>
        <time>2026-03-06T20:06:32.000Z</time>
      </trkpt>
      <trkpt lat="43.30914" lon="-1.68428">
        <ele>312</ele>
        <time>2026-03-06T20:06:33.000Z</time>
      </trkpt>
      <trkpt lat="43.30918" lon="-1.68424">
        <ele>313</ele>
        <time>2026-03-06T20:06:34.000Z</time>
      </trkpt>
      <trkpt lat="43.30921" lon="-1.68422">
        <ele>313</ele>
        <time>2026-03-06T20:06:35.000Z</time>
      </trkpt>
      <trkpt lat="43.30923" lon="-1.68421">
        <ele>314</ele>
        <time>2026-03-06T20:06:35.000Z</time>
      </trkpt>
      <trkpt lat="43.30928" lon="-1.6842">
        <ele>314</ele>
        <time>2026-03-06T20:06:36.000Z</time>
      </trkpt>
      <trkpt lat="43.30935" lon="-1.6842">
        <ele>315</ele>
        <time>2026-03-06T20:06:37.000Z</time>
      </trkpt>
      <trkpt lat="43.30969" lon="-1.68432">
        <ele>317</ele>
        <time>2026-03-06T20:06:43.000Z</time>
      </trkpt>
      <trkpt lat="43.30969" lon="-1.68432">
        <ele>317</ele>
        <time>2026-03-06T20:06:43.000Z</time>
      </trkpt>
      <trkpt lat="43.31033" lon="-1.68454">
        <ele>316</ele>
        <time>2026-03-06T20:06:55.000Z</time>
      </trkpt>
      <trkpt lat="43.3106" lon="-1.68462">
        <ele>315</ele>
        <time>2026-03-06T20:07:00.000Z</time>
      </trkpt>
      <trkpt lat="43.31094" lon="-1.68471">
        <ele>312</ele>
        <time>2026-03-06T20:07:06.000Z</time>
      </trkpt>
      <trkpt lat="43.31107" lon="-1.68477">
        <ele>311</ele>
        <time>2026-03-06T20:07:09.000Z</time>
      </trkpt>
      <trkpt lat="43.31147" lon="-1.68488">
        <ele>310</ele>
        <time>2026-03-06T20:07:16.000Z</time>
      </trkpt>
      <trkpt lat="43.31178" lon="-1.68491">
        <ele>309</ele>
        <time>2026-03-06T20:07:21.000Z</time>
      </trkpt>
      <trkpt lat="43.3119" lon="-1.68491">
        <ele>309</ele>
        <time>2026-03-06T20:07:24.000Z</time>
      </trkpt>
      <trkpt lat="43.31202" lon="-1.68485">
        <ele>309</ele>
        <time>2026-03-06T20:07:26.000Z</time>
      </trkpt>
      <trkpt lat="43.31206" lon="-1.68481">
        <ele>310</ele>
        <time>2026-03-06T20:07:27.000Z</time>
      </trkpt>
      <trkpt lat="43.31214" lon="-1.68481">
        <ele>309</ele>
        <time>2026-03-06T20:07:28.000Z</time>
      </trkpt>
      <trkpt lat="43.31217" lon="-1.68482">
        <ele>309</ele>
        <time>2026-03-06T20:07:29.000Z</time>
      </trkpt>
      <trkpt lat="43.31234" lon="-1.68486">
        <ele>307</ele>
        <time>2026-03-06T20:07:32.000Z</time>
      </trkpt>
      <trkpt lat="43.31237" lon="-1.68487">
        <ele>307</ele>
        <time>2026-03-06T20:07:32.000Z</time>
      </trkpt>
      <trkpt lat="43.31251" lon="-1.6849">
        <ele>306</ele>
        <time>2026-03-06T20:07:35.000Z</time>
      </trkpt>
      <trkpt lat="43.31286" lon="-1.68498">
        <ele>301</ele>
        <time>2026-03-06T20:07:41.000Z</time>
      </trkpt>
      <trkpt lat="43.3129" lon="-1.68497">
        <ele>301</ele>
        <time>2026-03-06T20:07:42.000Z</time>
      </trkpt>
      <trkpt lat="43.31296" lon="-1.68495">
        <ele>301</ele>
        <time>2026-03-06T20:07:43.000Z</time>
      </trkpt>
      <trkpt lat="43.313" lon="-1.68493">
        <ele>301</ele>
        <time>2026-03-06T20:07:44.000Z</time>
      </trkpt>
      <trkpt lat="43.31313" lon="-1.68483">
        <ele>303</ele>
        <time>2026-03-06T20:07:46.000Z</time>
      </trkpt>
      <trkpt lat="43.31319" lon="-1.68481">
        <ele>303</ele>
        <time>2026-03-06T20:07:47.000Z</time>
      </trkpt>
      <trkpt lat="43.31327" lon="-1.68479">
        <ele>303</ele>
        <time>2026-03-06T20:07:49.000Z</time>
      </trkpt>
      <trkpt lat="43.31338" lon="-1.68478">
        <ele>303</ele>
        <time>2026-03-06T20:07:51.000Z</time>
      </trkpt>
      <trkpt lat="43.31343" lon="-1.68479">
        <ele>303</ele>
        <time>2026-03-06T20:07:52.000Z</time>
      </trkpt>
      <trkpt lat="43.31348" lon="-1.68482">
        <ele>302</ele>
        <time>2026-03-06T20:07:53.000Z</time>
      </trkpt>
      <trkpt lat="43.31361" lon="-1.68492">
        <ele>299</ele>
        <time>2026-03-06T20:07:55.000Z</time>
      </trkpt>
      <trkpt lat="43.31365" lon="-1.68494">
        <ele>299</ele>
        <time>2026-03-06T20:07:56.000Z</time>
      </trkpt>
      <trkpt lat="43.3137" lon="-1.68495">
        <ele>298</ele>
        <time>2026-03-06T20:07:57.000Z</time>
      </trkpt>
      <trkpt lat="43.31379" lon="-1.68495">
        <ele>298</ele>
        <time>2026-03-06T20:07:59.000Z</time>
      </trkpt>
      <trkpt lat="43.314" lon="-1.68491">
        <ele>299</ele>
        <time>2026-03-06T20:08:02.000Z</time>
      </trkpt>
      <trkpt lat="43.31415" lon="-1.6849">
        <ele>300</ele>
        <time>2026-03-06T20:08:05.000Z</time>
      </trkpt>
      <trkpt lat="43.31424" lon="-1.68489">
        <ele>299</ele>
        <time>2026-03-06T20:08:07.000Z</time>
      </trkpt>
      <trkpt lat="43.31429" lon="-1.6849">
        <ele>299</ele>
        <time>2026-03-06T20:08:08.000Z</time>
      </trkpt>
      <trkpt lat="43.31434" lon="-1.6849">
        <ele>298</ele>
        <time>2026-03-06T20:08:08.000Z</time>
      </trkpt>
      <trkpt lat="43.31441" lon="-1.6849">
        <ele>298</ele>
        <time>2026-03-06T20:08:10.000Z</time>
      </trkpt>
      <trkpt lat="43.31449" lon="-1.68489">
        <ele>297</ele>
        <time>2026-03-06T20:08:11.000Z</time>
      </trkpt>
      <trkpt lat="43.31455" lon="-1.68488">
        <ele>297</ele>
        <time>2026-03-06T20:08:12.000Z</time>
      </trkpt>
      <trkpt lat="43.31461" lon="-1.6849">
        <ele>296</ele>
        <time>2026-03-06T20:08:13.000Z</time>
      </trkpt>
      <trkpt lat="43.31466" lon="-1.68492">
        <ele>295</ele>
        <time>2026-03-06T20:08:14.000Z</time>
      </trkpt>
      <trkpt lat="43.31469" lon="-1.68494">
        <ele>294</ele>
        <time>2026-03-06T20:08:15.000Z</time>
      </trkpt>
      <trkpt lat="43.31481" lon="-1.68505">
        <ele>290</ele>
        <time>2026-03-06T20:08:17.000Z</time>
      </trkpt>
      <trkpt lat="43.31486" lon="-1.68509">
        <ele>289</ele>
        <time>2026-03-06T20:08:18.000Z</time>
      </trkpt>
      <trkpt lat="43.31491" lon="-1.68511">
        <ele>288</ele>
        <time>2026-03-06T20:08:19.000Z</time>
      </trkpt>
      <trkpt lat="43.31496" lon="-1.68511">
        <ele>288</ele>
        <time>2026-03-06T20:08:20.000Z</time>
      </trkpt>
      <trkpt lat="43.31502" lon="-1.68511">
        <ele>287</ele>
        <time>2026-03-06T20:08:21.000Z</time>
      </trkpt>
      <trkpt lat="43.3151" lon="-1.68509">
        <ele>287</ele>
        <time>2026-03-06T20:08:23.000Z</time>
      </trkpt>
      <trkpt lat="43.31523" lon="-1.68507">
        <ele>287</ele>
        <time>2026-03-06T20:08:25.000Z</time>
      </trkpt>
      <trkpt lat="43.31532" lon="-1.68509">
        <ele>286</ele>
        <time>2026-03-06T20:08:27.000Z</time>
      </trkpt>
      <trkpt lat="43.31537" lon="-1.6851">
        <ele>285</ele>
        <time>2026-03-06T20:08:28.000Z</time>
      </trkpt>
      <trkpt lat="43.31546" lon="-1.68511">
        <ele>284</ele>
        <time>2026-03-06T20:08:29.000Z</time>
      </trkpt>
      <trkpt lat="43.31551" lon="-1.6851">
        <ele>284</ele>
        <time>2026-03-06T20:08:30.000Z</time>
      </trkpt>
      <trkpt lat="43.3156" lon="-1.68508">
        <ele>284</ele>
        <time>2026-03-06T20:08:32.000Z</time>
      </trkpt>
      <trkpt lat="43.31567" lon="-1.68502">
        <ele>285</ele>
        <time>2026-03-06T20:08:33.000Z</time>
      </trkpt>
      <trkpt lat="43.31573" lon="-1.68498">
        <ele>285</ele>
        <time>2026-03-06T20:08:34.000Z</time>
      </trkpt>
      <trkpt lat="43.31577" lon="-1.68496">
        <ele>286</ele>
        <time>2026-03-06T20:08:35.000Z</time>
      </trkpt>
      <trkpt lat="43.31581" lon="-1.68496">
        <ele>285</ele>
        <time>2026-03-06T20:08:36.000Z</time>
      </trkpt>
      <trkpt lat="43.31588" lon="-1.68498">
        <ele>284</ele>
        <time>2026-03-06T20:08:37.000Z</time>
      </trkpt>
      <trkpt lat="43.31607" lon="-1.68506">
        <ele>282</ele>
        <time>2026-03-06T20:08:41.000Z</time>
      </trkpt>
      <trkpt lat="43.31629" lon="-1.68514">
        <ele>279</ele>
        <time>2026-03-06T20:08:45.000Z</time>
      </trkpt>
      <trkpt lat="43.31646" lon="-1.68519">
        <ele>277</ele>
        <time>2026-03-06T20:08:48.000Z</time>
      </trkpt>
      <trkpt lat="43.31664" lon="-1.68521">
        <ele>275</ele>
        <time>2026-03-06T20:08:51.000Z</time>
      </trkpt>
      <trkpt lat="43.31678" lon="-1.6852">
        <ele>274</ele>
        <time>2026-03-06T20:08:54.000Z</time>
      </trkpt>
      <trkpt lat="43.3169" lon="-1.68517">
        <ele>274</ele>
        <time>2026-03-06T20:08:56.000Z</time>
      </trkpt>
      <trkpt lat="43.31701" lon="-1.68514">
        <ele>273</ele>
        <time>2026-03-06T20:08:58.000Z</time>
      </trkpt>
      <trkpt lat="43.3171" lon="-1.68509">
        <ele>274</ele>
        <time>2026-03-06T20:08:59.000Z</time>
      </trkpt>
      <trkpt lat="43.31716" lon="-1.68505">
        <ele>274</ele>
        <time>2026-03-06T20:09:01.000Z</time>
      </trkpt>
      <trkpt lat="43.31722" lon="-1.685">
        <ele>275</ele>
        <time>2026-03-06T20:09:02.000Z</time>
      </trkpt>
      <trkpt lat="43.31727" lon="-1.68497">
        <ele>275</ele>
        <time>2026-03-06T20:09:03.000Z</time>
      </trkpt>
      <trkpt lat="43.31732" lon="-1.68496">
        <ele>275</ele>
        <time>2026-03-06T20:09:04.000Z</time>
      </trkpt>
      <trkpt lat="43.31738" lon="-1.68497">
        <ele>274</ele>
        <time>2026-03-06T20:09:05.000Z</time>
      </trkpt>
      <trkpt lat="43.31743" lon="-1.68497">
        <ele>274</ele>
        <time>2026-03-06T20:09:06.000Z</time>
      </trkpt>
      <trkpt lat="43.31751" lon="-1.685">
        <ele>272</ele>
        <time>2026-03-06T20:09:07.000Z</time>
      </trkpt>
      <trkpt lat="43.31761" lon="-1.68503">
        <ele>270</ele>
        <time>2026-03-06T20:09:09.000Z</time>
      </trkpt>
      <trkpt lat="43.31767" lon="-1.68503">
        <ele>269</ele>
        <time>2026-03-06T20:09:10.000Z</time>
      </trkpt>
      <trkpt lat="43.31773" lon="-1.68503">
        <ele>269</ele>
        <time>2026-03-06T20:09:11.000Z</time>
      </trkpt>
      <trkpt lat="43.31778" lon="-1.68503">
        <ele>268</ele>
        <time>2026-03-06T20:09:12.000Z</time>
      </trkpt>
      <trkpt lat="43.31786" lon="-1.68502">
        <ele>268</ele>
        <time>2026-03-06T20:09:13.000Z</time>
      </trkpt>
      <trkpt lat="43.31793" lon="-1.685">
        <ele>267</ele>
        <time>2026-03-06T20:09:15.000Z</time>
      </trkpt>
      <trkpt lat="43.31803" lon="-1.68498">
        <ele>267</ele>
        <time>2026-03-06T20:09:16.000Z</time>
      </trkpt>
      <trkpt lat="43.3181" lon="-1.68495">
        <ele>267</ele>
        <time>2026-03-06T20:09:18.000Z</time>
      </trkpt>
      <trkpt lat="43.31816" lon="-1.68494">
        <ele>267</ele>
        <time>2026-03-06T20:09:19.000Z</time>
      </trkpt>
      <trkpt lat="43.31822" lon="-1.68495">
        <ele>266</ele>
        <time>2026-03-06T20:09:20.000Z</time>
      </trkpt>
      <trkpt lat="43.31827" lon="-1.68496">
        <ele>265</ele>
        <time>2026-03-06T20:09:21.000Z</time>
      </trkpt>
      <trkpt lat="43.31832" lon="-1.68498">
        <ele>264</ele>
        <time>2026-03-06T20:09:22.000Z</time>
      </trkpt>
      <trkpt lat="43.31838" lon="-1.68501">
        <ele>262</ele>
        <time>2026-03-06T20:09:23.000Z</time>
      </trkpt>
      <trkpt lat="43.31843" lon="-1.68502">
        <ele>262</ele>
        <time>2026-03-06T20:09:24.000Z</time>
      </trkpt>
      <trkpt lat="43.31847" lon="-1.68502">
        <ele>261</ele>
        <time>2026-03-06T20:09:25.000Z</time>
      </trkpt>
      <trkpt lat="43.31852" lon="-1.68502">
        <ele>261</ele>
        <time>2026-03-06T20:09:25.000Z</time>
      </trkpt>
      <trkpt lat="43.31857" lon="-1.68502">
        <ele>261</ele>
        <time>2026-03-06T20:09:26.000Z</time>
      </trkpt>
      <trkpt lat="43.31869" lon="-1.68499">
        <ele>261</ele>
        <time>2026-03-06T20:09:28.000Z</time>
      </trkpt>
      <trkpt lat="43.31876" lon="-1.68497">
        <ele>261</ele>
        <time>2026-03-06T20:09:30.000Z</time>
      </trkpt>
      <trkpt lat="43.31882" lon="-1.68496">
        <ele>260</ele>
        <time>2026-03-06T20:09:31.000Z</time>
      </trkpt>
      <trkpt lat="43.3189" lon="-1.68498">
        <ele>259</ele>
        <time>2026-03-06T20:09:32.000Z</time>
      </trkpt>
      <trkpt lat="43.31899" lon="-1.68501">
        <ele>258</ele>
        <time>2026-03-06T20:09:34.000Z</time>
      </trkpt>
      <trkpt lat="43.31906" lon="-1.68503">
        <ele>257</ele>
        <time>2026-03-06T20:09:35.000Z</time>
      </trkpt>
      <trkpt lat="43.31912" lon="-1.68503">
        <ele>257</ele>
        <time>2026-03-06T20:09:36.000Z</time>
      </trkpt>
      <trkpt lat="43.3192" lon="-1.68501">
        <ele>257</ele>
        <time>2026-03-06T20:09:38.000Z</time>
      </trkpt>
      <trkpt lat="43.31928" lon="-1.68503">
        <ele>256</ele>
        <time>2026-03-06T20:09:39.000Z</time>
      </trkpt>
      <trkpt lat="43.3194" lon="-1.68506">
        <ele>254</ele>
        <time>2026-03-06T20:09:41.000Z</time>
      </trkpt>
      <trkpt lat="43.31947" lon="-1.68508">
        <ele>254</ele>
        <time>2026-03-06T20:09:43.000Z</time>
      </trkpt>
      <trkpt lat="43.31958" lon="-1.68513">
        <ele>252</ele>
        <time>2026-03-06T20:09:45.000Z</time>
      </trkpt>
      <trkpt lat="43.31963" lon="-1.68515">
        <ele>251</ele>
        <time>2026-03-06T20:09:46.000Z</time>
      </trkpt>
      <trkpt lat="43.31966" lon="-1.68516">
        <ele>251</ele>
        <time>2026-03-06T20:09:46.000Z</time>
      </trkpt>
      <trkpt lat="43.31968" lon="-1.68517">
        <ele>250</ele>
        <time>2026-03-06T20:09:47.000Z</time>
      </trkpt>
      <trkpt lat="43.31971" lon="-1.68517">
        <ele>250</ele>
        <time>2026-03-06T20:09:47.000Z</time>
      </trkpt>
      <trkpt lat="43.31974" lon="-1.68517">
        <ele>250</ele>
        <time>2026-03-06T20:09:48.000Z</time>
      </trkpt>
      <trkpt lat="43.31975" lon="-1.68516">
        <ele>250</ele>
        <time>2026-03-06T20:09:48.000Z</time>
      </trkpt>
      <trkpt lat="43.31979" lon="-1.68516">
        <ele>250</ele>
        <time>2026-03-06T20:09:49.000Z</time>
      </trkpt>
      <trkpt lat="43.31983" lon="-1.68517">
        <ele>250</ele>
        <time>2026-03-06T20:09:49.000Z</time>
      </trkpt>
      <trkpt lat="43.31991" lon="-1.68518">
        <ele>249</ele>
        <time>2026-03-06T20:09:51.000Z</time>
      </trkpt>
      <trkpt lat="43.31997" lon="-1.68521">
        <ele>248</ele>
        <time>2026-03-06T20:09:52.000Z</time>
      </trkpt>
      <trkpt lat="43.32003" lon="-1.68523">
        <ele>247</ele>
        <time>2026-03-06T20:09:53.000Z</time>
      </trkpt>
      <trkpt lat="43.32009" lon="-1.68523">
        <ele>246</ele>
        <time>2026-03-06T20:09:54.000Z</time>
      </trkpt>
      <trkpt lat="43.32017" lon="-1.68521">
        <ele>246</ele>
        <time>2026-03-06T20:09:55.000Z</time>
      </trkpt>
      <trkpt lat="43.32027" lon="-1.68516">
        <ele>246</ele>
        <time>2026-03-06T20:09:57.000Z</time>
      </trkpt>
      <trkpt lat="43.32033" lon="-1.68512">
        <ele>246</ele>
        <time>2026-03-06T20:09:58.000Z</time>
      </trkpt>
      <trkpt lat="43.3204" lon="-1.68504">
        <ele>246</ele>
        <time>2026-03-06T20:10:00.000Z</time>
      </trkpt>
      <trkpt lat="43.32048" lon="-1.68488">
        <ele>247</ele>
        <time>2026-03-06T20:10:03.000Z</time>
      </trkpt>
      <trkpt lat="43.32058" lon="-1.68464">
        <ele>248</ele>
        <time>2026-03-06T20:10:06.000Z</time>
      </trkpt>
      <trkpt lat="43.32064" lon="-1.68448">
        <ele>248</ele>
        <time>2026-03-06T20:10:09.000Z</time>
      </trkpt>
      <trkpt lat="43.32067" lon="-1.68439">
        <ele>249</ele>
        <time>2026-03-06T20:10:10.000Z</time>
      </trkpt>
      <trkpt lat="43.32071" lon="-1.68433">
        <ele>249</ele>
        <time>2026-03-06T20:10:11.000Z</time>
      </trkpt>
      <trkpt lat="43.32074" lon="-1.68429">
        <ele>248</ele>
        <time>2026-03-06T20:10:12.000Z</time>
      </trkpt>
      <trkpt lat="43.32076" lon="-1.68428">
        <ele>248</ele>
        <time>2026-03-06T20:10:12.000Z</time>
      </trkpt>
      <trkpt lat="43.32078" lon="-1.68427">
        <ele>248</ele>
        <time>2026-03-06T20:10:12.000Z</time>
      </trkpt>
      <trkpt lat="43.32079" lon="-1.68427">
        <ele>248</ele>
        <time>2026-03-06T20:10:13.000Z</time>
      </trkpt>
      <trkpt lat="43.32081" lon="-1.68426">
        <ele>248</ele>
        <time>2026-03-06T20:10:13.000Z</time>
      </trkpt>
      <trkpt lat="43.32083" lon="-1.68426">
        <ele>247</ele>
        <time>2026-03-06T20:10:13.000Z</time>
      </trkpt>
      <trkpt lat="43.32086" lon="-1.68426">
        <ele>248</ele>
        <time>2026-03-06T20:10:14.000Z</time>
      </trkpt>
      <trkpt lat="43.32087" lon="-1.68426">
        <ele>248</ele>
        <time>2026-03-06T20:10:14.000Z</time>
      </trkpt>
      <trkpt lat="43.3209" lon="-1.68427">
        <ele>248</ele>
        <time>2026-03-06T20:10:15.000Z</time>
      </trkpt>
      <trkpt lat="43.32093" lon="-1.68428">
        <ele>249</ele>
        <time>2026-03-06T20:10:15.000Z</time>
      </trkpt>
      <trkpt lat="43.32094" lon="-1.68428">
        <ele>249</ele>
        <time>2026-03-06T20:10:15.000Z</time>
      </trkpt>
      <trkpt lat="43.32095" lon="-1.68429">
        <ele>249</ele>
        <time>2026-03-06T20:10:15.000Z</time>
      </trkpt>
      <trkpt lat="43.32096" lon="-1.6843">
        <ele>249</ele>
        <time>2026-03-06T20:10:16.000Z</time>
      </trkpt>
      <trkpt lat="43.32097" lon="-1.68431">
        <ele>249</ele>
        <time>2026-03-06T20:10:16.000Z</time>
      </trkpt>
      <trkpt lat="43.32098" lon="-1.68435">
        <ele>249</ele>
        <time>2026-03-06T20:10:16.000Z</time>
      </trkpt>
      <trkpt lat="43.32101" lon="-1.68445">
        <ele>249</ele>
        <time>2026-03-06T20:10:18.000Z</time>
      </trkpt>
      <trkpt lat="43.32104" lon="-1.68456">
        <ele>248</ele>
        <time>2026-03-06T20:10:19.000Z</time>
      </trkpt>
      <trkpt lat="43.32109" lon="-1.68473">
        <ele>248</ele>
        <time>2026-03-06T20:10:22.000Z</time>
      </trkpt>
      <trkpt lat="43.32111" lon="-1.68477">
        <ele>248</ele>
        <time>2026-03-06T20:10:22.000Z</time>
      </trkpt>
      <trkpt lat="43.32112" lon="-1.6848">
        <ele>247</ele>
        <time>2026-03-06T20:10:23.000Z</time>
      </trkpt>
      <trkpt lat="43.32119" lon="-1.6849">
        <ele>248</ele>
        <time>2026-03-06T20:10:25.000Z</time>
      </trkpt>
      <trkpt lat="43.32129" lon="-1.68501">
        <ele>248</ele>
        <time>2026-03-06T20:10:27.000Z</time>
      </trkpt>
      <trkpt lat="43.3213" lon="-1.68504">
        <ele>247</ele>
        <time>2026-03-06T20:10:27.000Z</time>
      </trkpt>
      <trkpt lat="43.32132" lon="-1.68508">
        <ele>247</ele>
        <time>2026-03-06T20:10:28.000Z</time>
      </trkpt>
      <trkpt lat="43.32134" lon="-1.6853">
        <ele>242</ele>
        <time>2026-03-06T20:10:31.000Z</time>
      </trkpt>
      <trkpt lat="43.32138" lon="-1.6856">
        <ele>236</ele>
        <time>2026-03-06T20:10:35.000Z</time>
      </trkpt>
      <trkpt lat="43.32139" lon="-1.68566">
        <ele>234</ele>
        <time>2026-03-06T20:10:36.000Z</time>
      </trkpt>
      <trkpt lat="43.32141" lon="-1.6857">
        <ele>234</ele>
        <time>2026-03-06T20:10:36.000Z</time>
      </trkpt>
      <trkpt lat="43.32142" lon="-1.68574">
        <ele>233</ele>
        <time>2026-03-06T20:10:37.000Z</time>
      </trkpt>
      <trkpt lat="43.32144" lon="-1.68577">
        <ele>232</ele>
        <time>2026-03-06T20:10:37.000Z</time>
      </trkpt>
      <trkpt lat="43.32159" lon="-1.68592">
        <ele>231</ele>
        <time>2026-03-06T20:10:41.000Z</time>
      </trkpt>
      <trkpt lat="43.32198" lon="-1.68592">
        <ele>234</ele>
        <time>2026-03-06T20:10:48.000Z</time>
      </trkpt>
      <trkpt lat="43.32229" lon="-1.68595">
        <ele>235</ele>
        <time>2026-03-06T20:10:53.000Z</time>
      </trkpt>
      <trkpt lat="43.32234" lon="-1.68596">
        <ele>235</ele>
        <time>2026-03-06T20:10:54.000Z</time>
      </trkpt>
      <trkpt lat="43.32239" lon="-1.686">
        <ele>235</ele>
        <time>2026-03-06T20:10:55.000Z</time>
      </trkpt>
      <trkpt lat="43.32257" lon="-1.68614">
        <ele>233</ele>
        <time>2026-03-06T20:10:59.000Z</time>
      </trkpt>
      <trkpt lat="43.32273" lon="-1.68623">
        <ele>231</ele>
        <time>2026-03-06T20:11:02.000Z</time>
      </trkpt>
      <trkpt lat="43.32291" lon="-1.68633">
        <ele>228</ele>
        <time>2026-03-06T20:11:05.000Z</time>
      </trkpt>
      <trkpt lat="43.32306" lon="-1.68638">
        <ele>227</ele>
        <time>2026-03-06T20:11:08.000Z</time>
      </trkpt>
      <trkpt lat="43.32318" lon="-1.6864">
        <ele>226</ele>
        <time>2026-03-06T20:11:10.000Z</time>
      </trkpt>
      <trkpt lat="43.32326" lon="-1.68641">
        <ele>226</ele>
        <time>2026-03-06T20:11:12.000Z</time>
      </trkpt>
      <trkpt lat="43.32331" lon="-1.68645">
        <ele>224</ele>
        <time>2026-03-06T20:11:13.000Z</time>
      </trkpt>
      <trkpt lat="43.32335" lon="-1.68649">
        <ele>223</ele>
        <time>2026-03-06T20:11:13.000Z</time>
      </trkpt>
      <trkpt lat="43.32341" lon="-1.68656">
        <ele>220</ele>
        <time>2026-03-06T20:11:15.000Z</time>
      </trkpt>
      <trkpt lat="43.32347" lon="-1.68662">
        <ele>218</ele>
        <time>2026-03-06T20:11:16.000Z</time>
      </trkpt>
      <trkpt lat="43.32353" lon="-1.68664">
        <ele>217</ele>
        <time>2026-03-06T20:11:17.000Z</time>
      </trkpt>
      <trkpt lat="43.32359" lon="-1.68665">
        <ele>216</ele>
        <time>2026-03-06T20:11:18.000Z</time>
      </trkpt>
      <trkpt lat="43.32365" lon="-1.68664">
        <ele>216</ele>
        <time>2026-03-06T20:11:19.000Z</time>
      </trkpt>
      <trkpt lat="43.32376" lon="-1.6866">
        <ele>217</ele>
        <time>2026-03-06T20:11:21.000Z</time>
      </trkpt>
      <trkpt lat="43.32397" lon="-1.68645">
        <ele>220</ele>
        <time>2026-03-06T20:11:26.000Z</time>
      </trkpt>
      <trkpt lat="43.3241" lon="-1.68635">
        <ele>222</ele>
        <time>2026-03-06T20:11:28.000Z</time>
      </trkpt>
      <trkpt lat="43.32417" lon="-1.68631">
        <ele>223</ele>
        <time>2026-03-06T20:11:30.000Z</time>
      </trkpt>
      <trkpt lat="43.32422" lon="-1.68628">
        <ele>224</ele>
        <time>2026-03-06T20:11:31.000Z</time>
      </trkpt>
      <trkpt lat="43.32424" lon="-1.68627">
        <ele>225</ele>
        <time>2026-03-06T20:11:31.000Z</time>
      </trkpt>
      <trkpt lat="43.32428" lon="-1.68627">
        <ele>225</ele>
        <time>2026-03-06T20:11:32.000Z</time>
      </trkpt>
      <trkpt lat="43.32433" lon="-1.68627">
        <ele>224</ele>
        <time>2026-03-06T20:11:33.000Z</time>
      </trkpt>
      <trkpt lat="43.32443" lon="-1.68629">
        <ele>223</ele>
        <time>2026-03-06T20:11:34.000Z</time>
      </trkpt>
      <trkpt lat="43.32456" lon="-1.68632">
        <ele>222</ele>
        <time>2026-03-06T20:11:37.000Z</time>
      </trkpt>
      <trkpt lat="43.32465" lon="-1.68636">
        <ele>221</ele>
        <time>2026-03-06T20:11:38.000Z</time>
      </trkpt>
      <trkpt lat="43.3247" lon="-1.68639">
        <ele>219</ele>
        <time>2026-03-06T20:11:39.000Z</time>
      </trkpt>
      <trkpt lat="43.32474" lon="-1.68642">
        <ele>218</ele>
        <time>2026-03-06T20:11:40.000Z</time>
      </trkpt>
      <trkpt lat="43.32486" lon="-1.68652">
        <ele>214</ele>
        <time>2026-03-06T20:11:43.000Z</time>
      </trkpt>
      <trkpt lat="43.32503" lon="-1.68666">
        <ele>209</ele>
        <time>2026-03-06T20:11:46.000Z</time>
      </trkpt>
      <trkpt lat="43.32511" lon="-1.68675">
        <ele>208</ele>
        <time>2026-03-06T20:11:48.000Z</time>
      </trkpt>
      <trkpt lat="43.3252" lon="-1.68683">
        <ele>207</ele>
        <time>2026-03-06T20:11:50.000Z</time>
      </trkpt>
      <trkpt lat="43.32527" lon="-1.68688">
        <ele>206</ele>
        <time>2026-03-06T20:11:51.000Z</time>
      </trkpt>
      <trkpt lat="43.32531" lon="-1.6869">
        <ele>206</ele>
        <time>2026-03-06T20:11:52.000Z</time>
      </trkpt>
      <trkpt lat="43.32537" lon="-1.68691">
        <ele>205</ele>
        <time>2026-03-06T20:11:53.000Z</time>
      </trkpt>
      <trkpt lat="43.32545" lon="-1.6869">
        <ele>205</ele>
        <time>2026-03-06T20:11:55.000Z</time>
      </trkpt>
      <trkpt lat="43.32555" lon="-1.68687">
        <ele>206</ele>
        <time>2026-03-06T20:11:56.000Z</time>
      </trkpt>
      <trkpt lat="43.32566" lon="-1.68682">
        <ele>207</ele>
        <time>2026-03-06T20:11:59.000Z</time>
      </trkpt>
      <trkpt lat="43.32571" lon="-1.68681">
        <ele>207</ele>
        <time>2026-03-06T20:11:59.000Z</time>
      </trkpt>
      <trkpt lat="43.32573" lon="-1.68681">
        <ele>207</ele>
        <time>2026-03-06T20:12:00.000Z</time>
      </trkpt>
      <trkpt lat="43.3258" lon="-1.68679">
        <ele>208</ele>
        <time>2026-03-06T20:12:01.000Z</time>
      </trkpt>
      <trkpt lat="43.32584" lon="-1.68678">
        <ele>208</ele>
        <time>2026-03-06T20:12:02.000Z</time>
      </trkpt>
      <trkpt lat="43.32588" lon="-1.68677">
        <ele>208</ele>
        <time>2026-03-06T20:12:02.000Z</time>
      </trkpt>
      <trkpt lat="43.32591" lon="-1.68676">
        <ele>208</ele>
        <time>2026-03-06T20:12:03.000Z</time>
      </trkpt>
      <trkpt lat="43.32597" lon="-1.68672">
        <ele>209</ele>
        <time>2026-03-06T20:12:04.000Z</time>
      </trkpt>
      <trkpt lat="43.32603" lon="-1.68668">
        <ele>210</ele>
        <time>2026-03-06T20:12:05.000Z</time>
      </trkpt>
      <trkpt lat="43.32609" lon="-1.68666">
        <ele>210</ele>
        <time>2026-03-06T20:12:06.000Z</time>
      </trkpt>
      <trkpt lat="43.32615" lon="-1.68665">
        <ele>210</ele>
        <time>2026-03-06T20:12:08.000Z</time>
      </trkpt>
      <trkpt lat="43.32624" lon="-1.68668">
        <ele>209</ele>
        <time>2026-03-06T20:12:09.000Z</time>
      </trkpt>
      <trkpt lat="43.32637" lon="-1.68673">
        <ele>206</ele>
        <time>2026-03-06T20:12:12.000Z</time>
      </trkpt>
      <trkpt lat="43.32649" lon="-1.68677">
        <ele>205</ele>
        <time>2026-03-06T20:12:14.000Z</time>
      </trkpt>
      <trkpt lat="43.32663" lon="-1.6868">
        <ele>203</ele>
        <time>2026-03-06T20:12:16.000Z</time>
      </trkpt>
      <trkpt lat="43.32675" lon="-1.68682">
        <ele>202</ele>
        <time>2026-03-06T20:12:18.000Z</time>
      </trkpt>
      <trkpt lat="43.32687" lon="-1.68685">
        <ele>200</ele>
        <time>2026-03-06T20:12:21.000Z</time>
      </trkpt>
      <trkpt lat="43.327" lon="-1.6869">
        <ele>198</ele>
        <time>2026-03-06T20:12:23.000Z</time>
      </trkpt>
      <trkpt lat="43.32717" lon="-1.68699">
        <ele>194</ele>
        <time>2026-03-06T20:12:26.000Z</time>
      </trkpt>
      <trkpt lat="43.32721" lon="-1.68702">
        <ele>193</ele>
        <time>2026-03-06T20:12:27.000Z</time>
      </trkpt>
      <trkpt lat="43.32736" lon="-1.68709">
        <ele>191</ele>
        <time>2026-03-06T20:12:30.000Z</time>
      </trkpt>
      <trkpt lat="43.32754" lon="-1.68716">
        <ele>188</ele>
        <time>2026-03-06T20:12:33.000Z</time>
      </trkpt>
      <trkpt lat="43.32767" lon="-1.68721">
        <ele>185</ele>
        <time>2026-03-06T20:12:36.000Z</time>
      </trkpt>
      <trkpt lat="43.32781" lon="-1.68725">
        <ele>183</ele>
        <time>2026-03-06T20:12:38.000Z</time>
      </trkpt>
      <trkpt lat="43.32787" lon="-1.68725">
        <ele>183</ele>
        <time>2026-03-06T20:12:39.000Z</time>
      </trkpt>
      <trkpt lat="43.32798" lon="-1.68726">
        <ele>181</ele>
        <time>2026-03-06T20:12:41.000Z</time>
      </trkpt>
      <trkpt lat="43.32815" lon="-1.68726">
        <ele>180</ele>
        <time>2026-03-06T20:12:44.000Z</time>
      </trkpt>
      <trkpt lat="43.32827" lon="-1.68725">
        <ele>179</ele>
        <time>2026-03-06T20:12:46.000Z</time>
      </trkpt>
      <trkpt lat="43.32835" lon="-1.68723">
        <ele>179</ele>
        <time>2026-03-06T20:12:48.000Z</time>
      </trkpt>
      <trkpt lat="43.32847" lon="-1.6872">
        <ele>177</ele>
        <time>2026-03-06T20:12:50.000Z</time>
      </trkpt>
      <trkpt lat="43.32866" lon="-1.68712">
        <ele>175</ele>
        <time>2026-03-06T20:12:54.000Z</time>
      </trkpt>
      <trkpt lat="43.3289" lon="-1.68699">
        <ele>172</ele>
        <time>2026-03-06T20:12:58.000Z</time>
      </trkpt>
      <trkpt lat="43.3291" lon="-1.68686">
        <ele>170</ele>
        <time>2026-03-06T20:13:02.000Z</time>
      </trkpt>
      <trkpt lat="43.32913" lon="-1.68683">
        <ele>170</ele>
        <time>2026-03-06T20:13:03.000Z</time>
      </trkpt>
      <trkpt lat="43.32925" lon="-1.68675">
        <ele>169</ele>
        <time>2026-03-06T20:13:05.000Z</time>
      </trkpt>
      <trkpt lat="43.32933" lon="-1.68668">
        <ele>168</ele>
        <time>2026-03-06T20:13:07.000Z</time>
      </trkpt>
      <trkpt lat="43.32943" lon="-1.68658">
        <ele>166</ele>
        <time>2026-03-06T20:13:09.000Z</time>
      </trkpt>
      <trkpt lat="43.32948" lon="-1.68647">
        <ele>165</ele>
        <time>2026-03-06T20:13:11.000Z</time>
      </trkpt>
      <trkpt lat="43.32951" lon="-1.68639">
        <ele>165</ele>
        <time>2026-03-06T20:13:12.000Z</time>
      </trkpt>
      <trkpt lat="43.32952" lon="-1.68637">
        <ele>165</ele>
        <time>2026-03-06T20:13:12.000Z</time>
      </trkpt>
      <trkpt lat="43.32952" lon="-1.6863">
        <ele>165</ele>
        <time>2026-03-06T20:13:13.000Z</time>
      </trkpt>
      <trkpt lat="43.32952" lon="-1.68621">
        <ele>165</ele>
        <time>2026-03-06T20:13:14.000Z</time>
      </trkpt>
      <trkpt lat="43.32949" lon="-1.68609">
        <ele>166</ele>
        <time>2026-03-06T20:13:16.000Z</time>
      </trkpt>
      <trkpt lat="43.32939" lon="-1.68571">
        <ele>169</ele>
        <time>2026-03-06T20:13:21.000Z</time>
      </trkpt>
      <trkpt lat="43.32934" lon="-1.68554">
        <ele>168</ele>
        <time>2026-03-06T20:13:23.000Z</time>
      </trkpt>
      <trkpt lat="43.32929" lon="-1.68538">
        <ele>168</ele>
        <time>2026-03-06T20:13:26.000Z</time>
      </trkpt>
      <trkpt lat="43.32925" lon="-1.68529">
        <ele>168</ele>
        <time>2026-03-06T20:13:27.000Z</time>
      </trkpt>
      <trkpt lat="43.32925" lon="-1.68527">
        <ele>168</ele>
        <time>2026-03-06T20:13:27.000Z</time>
      </trkpt>
      <trkpt lat="43.3292" lon="-1.68519">
        <ele>168</ele>
        <time>2026-03-06T20:13:29.000Z</time>
      </trkpt>
      <trkpt lat="43.32914" lon="-1.68511">
        <ele>169</ele>
        <time>2026-03-06T20:13:30.000Z</time>
      </trkpt>
      <trkpt lat="43.32907" lon="-1.68504">
        <ele>170</ele>
        <time>2026-03-06T20:13:32.000Z</time>
      </trkpt>
      <trkpt lat="43.32898" lon="-1.68497">
        <ele>171</ele>
        <time>2026-03-06T20:13:34.000Z</time>
      </trkpt>
      <trkpt lat="43.32894" lon="-1.68491">
        <ele>172</ele>
        <time>2026-03-06T20:13:35.000Z</time>
      </trkpt>
      <trkpt lat="43.32891" lon="-1.68481">
        <ele>171</ele>
        <time>2026-03-06T20:13:36.000Z</time>
      </trkpt>
      <trkpt lat="43.32885" lon="-1.68467">
        <ele>171</ele>
        <time>2026-03-06T20:13:38.000Z</time>
      </trkpt>
      <trkpt lat="43.3288" lon="-1.68453">
        <ele>171</ele>
        <time>2026-03-06T20:13:40.000Z</time>
      </trkpt>
      <trkpt lat="43.32878" lon="-1.68441">
        <ele>171</ele>
        <time>2026-03-06T20:13:42.000Z</time>
      </trkpt>
      <trkpt lat="43.32877" lon="-1.68432">
        <ele>170</ele>
        <time>2026-03-06T20:13:43.000Z</time>
      </trkpt>
      <trkpt lat="43.32878" lon="-1.68423">
        <ele>169</ele>
        <time>2026-03-06T20:13:44.000Z</time>
      </trkpt>
      <trkpt lat="43.3288" lon="-1.68414">
        <ele>168</ele>
        <time>2026-03-06T20:13:45.000Z</time>
      </trkpt>
      <trkpt lat="43.32884" lon="-1.68405">
        <ele>167</ele>
        <time>2026-03-06T20:13:47.000Z</time>
      </trkpt>
      <trkpt lat="43.3289" lon="-1.68392">
        <ele>165</ele>
        <time>2026-03-06T20:13:49.000Z</time>
      </trkpt>
      <trkpt lat="43.32896" lon="-1.6838">
        <ele>163</ele>
        <time>2026-03-06T20:13:51.000Z</time>
      </trkpt>
      <trkpt lat="43.32898" lon="-1.68375">
        <ele>162</ele>
        <time>2026-03-06T20:13:51.000Z</time>
      </trkpt>
      <trkpt lat="43.329" lon="-1.6837">
        <ele>161</ele>
        <time>2026-03-06T20:13:52.000Z</time>
      </trkpt>
      <trkpt lat="43.32901" lon="-1.68364">
        <ele>161</ele>
        <time>2026-03-06T20:13:53.000Z</time>
      </trkpt>
      <trkpt lat="43.32901" lon="-1.68358">
        <ele>160</ele>
        <time>2026-03-06T20:13:54.000Z</time>
      </trkpt>
      <trkpt lat="43.32901" lon="-1.68353">
        <ele>160</ele>
        <time>2026-03-06T20:13:54.000Z</time>
      </trkpt>
      <trkpt lat="43.32899" lon="-1.68344">
        <ele>161</ele>
        <time>2026-03-06T20:13:55.000Z</time>
      </trkpt>
      <trkpt lat="43.32896" lon="-1.68333">
        <ele>162</ele>
        <time>2026-03-06T20:13:57.000Z</time>
      </trkpt>
      <trkpt lat="43.32893" lon="-1.68324">
        <ele>162</ele>
        <time>2026-03-06T20:13:58.000Z</time>
      </trkpt>
      <trkpt lat="43.32891" lon="-1.68318">
        <ele>162</ele>
        <time>2026-03-06T20:13:59.000Z</time>
      </trkpt>
      <trkpt lat="43.32889" lon="-1.68312">
        <ele>162</ele>
        <time>2026-03-06T20:14:00.000Z</time>
      </trkpt>
      <trkpt lat="43.32888" lon="-1.68304">
        <ele>162</ele>
        <time>2026-03-06T20:14:01.000Z</time>
      </trkpt>
      <trkpt lat="43.32888" lon="-1.68298">
        <ele>162</ele>
        <time>2026-03-06T20:14:02.000Z</time>
      </trkpt>
      <trkpt lat="43.3289" lon="-1.68291">
        <ele>160</ele>
        <time>2026-03-06T20:14:03.000Z</time>
      </trkpt>
      <trkpt lat="43.32893" lon="-1.68282">
        <ele>158</ele>
        <time>2026-03-06T20:14:04.000Z</time>
      </trkpt>
      <trkpt lat="43.32895" lon="-1.68268">
        <ele>157</ele>
        <time>2026-03-06T20:14:06.000Z</time>
      </trkpt>
      <trkpt lat="43.32896" lon="-1.68257">
        <ele>155</ele>
        <time>2026-03-06T20:14:07.000Z</time>
      </trkpt>
      <trkpt lat="43.32895" lon="-1.68239">
        <ele>153</ele>
        <time>2026-03-06T20:14:10.000Z</time>
      </trkpt>
      <trkpt lat="43.32895" lon="-1.68235">
        <ele>153</ele>
        <time>2026-03-06T20:14:10.000Z</time>
      </trkpt>
      <trkpt lat="43.32893" lon="-1.68223">
        <ele>151</ele>
        <time>2026-03-06T20:14:12.000Z</time>
      </trkpt>
      <trkpt lat="43.3289" lon="-1.6821">
        <ele>150</ele>
        <time>2026-03-06T20:14:14.000Z</time>
      </trkpt>
      <trkpt lat="43.32884" lon="-1.68197">
        <ele>150</ele>
        <time>2026-03-06T20:14:16.000Z</time>
      </trkpt>
      <trkpt lat="43.32882" lon="-1.68193">
        <ele>150</ele>
        <time>2026-03-06T20:14:16.000Z</time>
      </trkpt>
      <trkpt lat="43.32879" lon="-1.68188">
        <ele>150</ele>
        <time>2026-03-06T20:14:17.000Z</time>
      </trkpt>
      <trkpt lat="43.32868" lon="-1.68176">
        <ele>151</ele>
        <time>2026-03-06T20:14:20.000Z</time>
      </trkpt>
      <trkpt lat="43.32861" lon="-1.68169">
        <ele>151</ele>
        <time>2026-03-06T20:14:21.000Z</time>
      </trkpt>
      <trkpt lat="43.32859" lon="-1.68166">
        <ele>151</ele>
        <time>2026-03-06T20:14:22.000Z</time>
      </trkpt>
      <trkpt lat="43.32857" lon="-1.68163">
        <ele>151</ele>
        <time>2026-03-06T20:14:22.000Z</time>
      </trkpt>
      <trkpt lat="43.32856" lon="-1.6816">
        <ele>150</ele>
        <time>2026-03-06T20:14:23.000Z</time>
      </trkpt>
      <trkpt lat="43.32857" lon="-1.68157">
        <ele>149</ele>
        <time>2026-03-06T20:14:23.000Z</time>
      </trkpt>
      <trkpt lat="43.32857" lon="-1.68157">
        <ele>149</ele>
        <time>2026-03-06T20:14:23.000Z</time>
      </trkpt>
      <trkpt lat="43.32857" lon="-1.68155">
        <ele>149</ele>
        <time>2026-03-06T20:14:23.000Z</time>
      </trkpt>
      <trkpt lat="43.32859" lon="-1.68153">
        <ele>147</ele>
        <time>2026-03-06T20:14:24.000Z</time>
      </trkpt>
      <trkpt lat="43.32861" lon="-1.68152">
        <ele>147</ele>
        <time>2026-03-06T20:14:24.000Z</time>
      </trkpt>
      <trkpt lat="43.32863" lon="-1.68151">
        <ele>146</ele>
        <time>2026-03-06T20:14:24.000Z</time>
      </trkpt>
      <trkpt lat="43.32865" lon="-1.68151">
        <ele>145</ele>
        <time>2026-03-06T20:14:25.000Z</time>
      </trkpt>
      <trkpt lat="43.32866" lon="-1.68152">
        <ele>145</ele>
        <time>2026-03-06T20:14:25.000Z</time>
      </trkpt>
      <trkpt lat="43.3287" lon="-1.68155">
        <ele>145</ele>
        <time>2026-03-06T20:14:26.000Z</time>
      </trkpt>
      <trkpt lat="43.32878" lon="-1.68165">
        <ele>146</ele>
        <time>2026-03-06T20:14:28.000Z</time>
      </trkpt>
      <trkpt lat="43.32895" lon="-1.68183">
        <ele>144</ele>
        <time>2026-03-06T20:14:32.000Z</time>
      </trkpt>
      <trkpt lat="43.32901" lon="-1.68191">
        <ele>144</ele>
        <time>2026-03-06T20:14:33.000Z</time>
      </trkpt>
      <trkpt lat="43.32909" lon="-1.68201">
        <ele>143</ele>
        <time>2026-03-06T20:14:35.000Z</time>
      </trkpt>
      <trkpt lat="43.32917" lon="-1.68216">
        <ele>142</ele>
        <time>2026-03-06T20:14:37.000Z</time>
      </trkpt>
      <trkpt lat="43.3292" lon="-1.68227">
        <ele>143</ele>
        <time>2026-03-06T20:14:39.000Z</time>
      </trkpt>
      <trkpt lat="43.32921" lon="-1.68233">
        <ele>143</ele>
        <time>2026-03-06T20:14:40.000Z</time>
      </trkpt>
      <trkpt lat="43.32921" lon="-1.68235">
        <ele>143</ele>
        <time>2026-03-06T20:14:40.000Z</time>
      </trkpt>
      <trkpt lat="43.32922" lon="-1.68255">
        <ele>145</ele>
        <time>2026-03-06T20:14:43.000Z</time>
      </trkpt>
      <trkpt lat="43.32921" lon="-1.68281">
        <ele>148</ele>
        <time>2026-03-06T20:14:46.000Z</time>
      </trkpt>
      <trkpt lat="43.32921" lon="-1.68292">
        <ele>149</ele>
        <time>2026-03-06T20:14:47.000Z</time>
      </trkpt>
      <trkpt lat="43.32922" lon="-1.683">
        <ele>149</ele>
        <time>2026-03-06T20:14:48.000Z</time>
      </trkpt>
      <trkpt lat="43.32925" lon="-1.68307">
        <ele>149</ele>
        <time>2026-03-06T20:14:49.000Z</time>
      </trkpt>
      <trkpt lat="43.32928" lon="-1.68311">
        <ele>148</ele>
        <time>2026-03-06T20:14:50.000Z</time>
      </trkpt>
      <trkpt lat="43.32932" lon="-1.68312">
        <ele>147</ele>
        <time>2026-03-06T20:14:51.000Z</time>
      </trkpt>
      <trkpt lat="43.32937" lon="-1.68313">
        <ele>145</ele>
        <time>2026-03-06T20:14:52.000Z</time>
      </trkpt>
      <trkpt lat="43.32943" lon="-1.68312">
        <ele>143</ele>
        <time>2026-03-06T20:14:53.000Z</time>
      </trkpt>
      <trkpt lat="43.32955" lon="-1.6831">
        <ele>138</ele>
        <time>2026-03-06T20:14:55.000Z</time>
      </trkpt>
      <trkpt lat="43.32961" lon="-1.68311">
        <ele>136</ele>
        <time>2026-03-06T20:14:56.000Z</time>
      </trkpt>
      <trkpt lat="43.32966" lon="-1.68315">
        <ele>134</ele>
        <time>2026-03-06T20:14:57.000Z</time>
      </trkpt>
      <trkpt lat="43.32967" lon="-1.68316">
        <ele>134</ele>
        <time>2026-03-06T20:14:57.000Z</time>
      </trkpt>
      <trkpt lat="43.3297" lon="-1.68321">
        <ele>134</ele>
        <time>2026-03-06T20:14:58.000Z</time>
      </trkpt>
      <trkpt lat="43.32974" lon="-1.6833">
        <ele>133</ele>
        <time>2026-03-06T20:15:00.000Z</time>
      </trkpt>
      <trkpt lat="43.32978" lon="-1.68338">
        <ele>132</ele>
        <time>2026-03-06T20:15:01.000Z</time>
      </trkpt>
      <trkpt lat="43.32981" lon="-1.68347">
        <ele>132</ele>
        <time>2026-03-06T20:15:02.000Z</time>
      </trkpt>
      <trkpt lat="43.32984" lon="-1.68361">
        <ele>133</ele>
        <time>2026-03-06T20:15:04.000Z</time>
      </trkpt>
      <trkpt lat="43.32984" lon="-1.68365">
        <ele>133</ele>
        <time>2026-03-06T20:15:05.000Z</time>
      </trkpt>
      <trkpt lat="43.32984" lon="-1.68371">
        <ele>134</ele>
        <time>2026-03-06T20:15:05.000Z</time>
      </trkpt>
      <trkpt lat="43.32979" lon="-1.68391">
        <ele>137</ele>
        <time>2026-03-06T20:15:08.000Z</time>
      </trkpt>
      <trkpt lat="43.32975" lon="-1.684">
        <ele>139</ele>
        <time>2026-03-06T20:15:09.000Z</time>
      </trkpt>
      <trkpt lat="43.32972" lon="-1.68406">
        <ele>141</ele>
        <time>2026-03-06T20:15:10.000Z</time>
      </trkpt>
      <trkpt lat="43.32971" lon="-1.6841">
        <ele>141</ele>
        <time>2026-03-06T20:15:11.000Z</time>
      </trkpt>
      <trkpt lat="43.32971" lon="-1.68412">
        <ele>142</ele>
        <time>2026-03-06T20:15:11.000Z</time>
      </trkpt>
      <trkpt lat="43.32972" lon="-1.68417">
        <ele>142</ele>
        <time>2026-03-06T20:15:12.000Z</time>
      </trkpt>
      <trkpt lat="43.32973" lon="-1.68421">
        <ele>142</ele>
        <time>2026-03-06T20:15:12.000Z</time>
      </trkpt>
      <trkpt lat="43.32974" lon="-1.68422">
        <ele>142</ele>
        <time>2026-03-06T20:15:13.000Z</time>
      </trkpt>
      <trkpt lat="43.32977" lon="-1.68425">
        <ele>141</ele>
        <time>2026-03-06T20:15:13.000Z</time>
      </trkpt>
      <trkpt lat="43.32982" lon="-1.68427">
        <ele>140</ele>
        <time>2026-03-06T20:15:14.000Z</time>
      </trkpt>
      <trkpt lat="43.32987" lon="-1.68427">
        <ele>139</ele>
        <time>2026-03-06T20:15:15.000Z</time>
      </trkpt>
      <trkpt lat="43.32993" lon="-1.68427">
        <ele>137</ele>
        <time>2026-03-06T20:15:16.000Z</time>
      </trkpt>
      <trkpt lat="43.32998" lon="-1.68426">
        <ele>136</ele>
        <time>2026-03-06T20:15:17.000Z</time>
      </trkpt>
      <trkpt lat="43.33005" lon="-1.68424">
        <ele>134</ele>
        <time>2026-03-06T20:15:18.000Z</time>
      </trkpt>
      <trkpt lat="43.33014" lon="-1.68424">
        <ele>132</ele>
        <time>2026-03-06T20:15:20.000Z</time>
      </trkpt>
      <trkpt lat="43.33022" lon="-1.68424">
        <ele>130</ele>
        <time>2026-03-06T20:15:21.000Z</time>
      </trkpt>
      <trkpt lat="43.33028" lon="-1.68426">
        <ele>129</ele>
        <time>2026-03-06T20:15:22.000Z</time>
      </trkpt>
      <trkpt lat="43.33033" lon="-1.68428">
        <ele>128</ele>
        <time>2026-03-06T20:15:23.000Z</time>
      </trkpt>
      <trkpt lat="43.33038" lon="-1.68431">
        <ele>127</ele>
        <time>2026-03-06T20:15:24.000Z</time>
      </trkpt>
      <trkpt lat="43.33051" lon="-1.68447">
        <ele>126</ele>
        <time>2026-03-06T20:15:27.000Z</time>
      </trkpt>
      <trkpt lat="43.33111" lon="-1.68553">
        <ele>121</ele>
        <time>2026-03-06T20:15:45.000Z</time>
      </trkpt>
      <trkpt lat="43.33115" lon="-1.68559">
        <ele>120</ele>
        <time>2026-03-06T20:15:46.000Z</time>
      </trkpt>
      <trkpt lat="43.33125" lon="-1.68571">
        <ele>118</ele>
        <time>2026-03-06T20:15:48.000Z</time>
      </trkpt>
      <trkpt lat="43.33128" lon="-1.68575">
        <ele>118</ele>
        <time>2026-03-06T20:15:49.000Z</time>
      </trkpt>
      <trkpt lat="43.33132" lon="-1.68578">
        <ele>117</ele>
        <time>2026-03-06T20:15:50.000Z</time>
      </trkpt>
      <trkpt lat="43.33143" lon="-1.68583">
        <ele>115</ele>
        <time>2026-03-06T20:15:52.000Z</time>
      </trkpt>
      <trkpt lat="43.33151" lon="-1.68586">
        <ele>113</ele>
        <time>2026-03-06T20:15:53.000Z</time>
      </trkpt>
      <trkpt lat="43.33157" lon="-1.68586">
        <ele>112</ele>
        <time>2026-03-06T20:15:54.000Z</time>
      </trkpt>
      <trkpt lat="43.33163" lon="-1.68588">
        <ele>111</ele>
        <time>2026-03-06T20:15:55.000Z</time>
      </trkpt>
      <trkpt lat="43.3317" lon="-1.6859">
        <ele>110</ele>
        <time>2026-03-06T20:15:57.000Z</time>
      </trkpt>
      <trkpt lat="43.33173" lon="-1.68593">
        <ele>109</ele>
        <time>2026-03-06T20:15:57.000Z</time>
      </trkpt>
      <trkpt lat="43.33175" lon="-1.68596">
        <ele>109</ele>
        <time>2026-03-06T20:15:58.000Z</time>
      </trkpt>
      <trkpt lat="43.33177" lon="-1.686">
        <ele>109</ele>
        <time>2026-03-06T20:15:59.000Z</time>
      </trkpt>
      <trkpt lat="43.33178" lon="-1.68604">
        <ele>109</ele>
        <time>2026-03-06T20:15:59.000Z</time>
      </trkpt>
      <trkpt lat="43.33179" lon="-1.68614">
        <ele>109</ele>
        <time>2026-03-06T20:16:00.000Z</time>
      </trkpt>
      <trkpt lat="43.33179" lon="-1.68626">
        <ele>109</ele>
        <time>2026-03-06T20:16:02.000Z</time>
      </trkpt>
      <trkpt lat="43.33178" lon="-1.68637">
        <ele>110</ele>
        <time>2026-03-06T20:16:03.000Z</time>
      </trkpt>
      <trkpt lat="43.33178" lon="-1.68645">
        <ele>110</ele>
        <time>2026-03-06T20:16:04.000Z</time>
      </trkpt>
      <trkpt lat="43.33179" lon="-1.68652">
        <ele>110</ele>
        <time>2026-03-06T20:16:05.000Z</time>
      </trkpt>
      <trkpt lat="43.33179" lon="-1.68656">
        <ele>110</ele>
        <time>2026-03-06T20:16:06.000Z</time>
      </trkpt>
      <trkpt lat="43.3318" lon="-1.68661">
        <ele>110</ele>
        <time>2026-03-06T20:16:07.000Z</time>
      </trkpt>
      <trkpt lat="43.33181" lon="-1.68666">
        <ele>110</ele>
        <time>2026-03-06T20:16:07.000Z</time>
      </trkpt>
      <trkpt lat="43.33185" lon="-1.68675">
        <ele>110</ele>
        <time>2026-03-06T20:16:09.000Z</time>
      </trkpt>
      <trkpt lat="43.33186" lon="-1.68678">
        <ele>110</ele>
        <time>2026-03-06T20:16:09.000Z</time>
      </trkpt>
      <trkpt lat="43.33191" lon="-1.68692">
        <ele>110</ele>
        <time>2026-03-06T20:16:11.000Z</time>
      </trkpt>
      <trkpt lat="43.33192" lon="-1.68694">
        <ele>110</ele>
        <time>2026-03-06T20:16:11.000Z</time>
      </trkpt>
      <trkpt lat="43.33197" lon="-1.68703">
        <ele>109</ele>
        <time>2026-03-06T20:16:13.000Z</time>
      </trkpt>
      <trkpt lat="43.332" lon="-1.6871">
        <ele>109</ele>
        <time>2026-03-06T20:16:14.000Z</time>
      </trkpt>
      <trkpt lat="43.33207" lon="-1.68721">
        <ele>108</ele>
        <time>2026-03-06T20:16:16.000Z</time>
      </trkpt>
      <trkpt lat="43.33213" lon="-1.68727">
        <ele>108</ele>
        <time>2026-03-06T20:16:17.000Z</time>
      </trkpt>
      <trkpt lat="43.33218" lon="-1.68731">
        <ele>107</ele>
        <time>2026-03-06T20:16:18.000Z</time>
      </trkpt>
      <trkpt lat="43.33221" lon="-1.68732">
        <ele>107</ele>
        <time>2026-03-06T20:16:19.000Z</time>
      </trkpt>
      <trkpt lat="43.33251" lon="-1.68734">
        <ele>104</ele>
        <time>2026-03-06T20:16:24.000Z</time>
      </trkpt>
      <trkpt lat="43.33255" lon="-1.68735">
        <ele>103</ele>
        <time>2026-03-06T20:16:25.000Z</time>
      </trkpt>
      <trkpt lat="43.33301" lon="-1.68741">
        <ele>100</ele>
        <time>2026-03-06T20:16:33.000Z</time>
      </trkpt>
      <trkpt lat="43.33324" lon="-1.68741">
        <ele>98</ele>
        <time>2026-03-06T20:16:37.000Z</time>
      </trkpt>
      <trkpt lat="43.33343" lon="-1.68742">
        <ele>97</ele>
        <time>2026-03-06T20:16:40.000Z</time>
      </trkpt>
      <trkpt lat="43.33375" lon="-1.68741">
        <ele>98</ele>
        <time>2026-03-06T20:16:46.000Z</time>
      </trkpt>
      <trkpt lat="43.33384" lon="-1.6874">
        <ele>98</ele>
        <time>2026-03-06T20:16:48.000Z</time>
      </trkpt>
      <trkpt lat="43.33388" lon="-1.68739">
        <ele>98</ele>
        <time>2026-03-06T20:16:48.000Z</time>
      </trkpt>
      <trkpt lat="43.3339" lon="-1.68737">
        <ele>98</ele>
        <time>2026-03-06T20:16:49.000Z</time>
      </trkpt>
      <trkpt lat="43.3339" lon="-1.68737">
        <ele>98</ele>
        <time>2026-03-06T20:16:49.000Z</time>
      </trkpt>
      <trkpt lat="43.3339" lon="-1.68724">
        <ele>97</ele>
        <time>2026-03-06T20:16:51.000Z</time>
      </trkpt>
      <trkpt lat="43.3339" lon="-1.68714">
        <ele>97</ele>
        <time>2026-03-06T20:16:52.000Z</time>
      </trkpt>
      <trkpt lat="43.3339" lon="-1.68707">
        <ele>97</ele>
        <time>2026-03-06T20:16:53.000Z</time>
      </trkpt>
      <trkpt lat="43.33391" lon="-1.68701">
        <ele>96</ele>
        <time>2026-03-06T20:16:54.000Z</time>
      </trkpt>
      <trkpt lat="43.33392" lon="-1.68676">
        <ele>95</ele>
        <time>2026-03-06T20:16:57.000Z</time>
      </trkpt>
      <trkpt lat="43.33394" lon="-1.68646">
        <ele>95</ele>
        <time>2026-03-06T20:17:01.000Z</time>
      </trkpt>
      <trkpt lat="43.33396" lon="-1.68624">
        <ele>94</ele>
        <time>2026-03-06T20:17:04.000Z</time>
      </trkpt>
      <trkpt lat="43.33399" lon="-1.68549">
        <ele>91</ele>
        <time>2026-03-06T20:17:13.000Z</time>
      </trkpt>
      <trkpt lat="43.33405" lon="-1.68453">
        <ele>86</ele>
        <time>2026-03-06T20:17:26.000Z</time>
      </trkpt>
      <trkpt lat="43.33405" lon="-1.68438">
        <ele>85</ele>
        <time>2026-03-06T20:17:28.000Z</time>
      </trkpt>
      <trkpt lat="43.33406" lon="-1.68391">
        <ele>84</ele>
        <time>2026-03-06T20:17:34.000Z</time>
      </trkpt>
      <trkpt lat="43.33408" lon="-1.68352">
        <ele>83</ele>
        <time>2026-03-06T20:17:39.000Z</time>
      </trkpt>
      <trkpt lat="43.33409" lon="-1.6834">
        <ele>83</ele>
        <time>2026-03-06T20:17:40.000Z</time>
      </trkpt>
      <trkpt lat="43.3341" lon="-1.68324">
        <ele>83</ele>
        <time>2026-03-06T20:17:42.000Z</time>
      </trkpt>
      <trkpt lat="43.33412" lon="-1.68278">
        <ele>81</ele>
        <time>2026-03-06T20:17:48.000Z</time>
      </trkpt>
      <trkpt lat="43.33413" lon="-1.68236">
        <ele>80</ele>
        <time>2026-03-06T20:17:54.000Z</time>
      </trkpt>
      <trkpt lat="43.33419" lon="-1.68132">
        <ele>76</ele>
        <time>2026-03-06T20:18:07.000Z</time>
      </trkpt>
      <trkpt lat="43.3342" lon="-1.68085">
        <ele>75</ele>
        <time>2026-03-06T20:18:13.000Z</time>
      </trkpt>
      <trkpt lat="43.3342" lon="-1.6808">
        <ele>75</ele>
        <time>2026-03-06T20:18:14.000Z</time>
      </trkpt>
      <trkpt lat="43.3342" lon="-1.68075">
        <ele>75</ele>
        <time>2026-03-06T20:18:15.000Z</time>
      </trkpt>
      <trkpt lat="43.3342" lon="-1.68069">
        <ele>74</ele>
        <time>2026-03-06T20:18:16.000Z</time>
      </trkpt>
      <trkpt lat="43.33421" lon="-1.68062">
        <ele>74</ele>
        <time>2026-03-06T20:18:16.000Z</time>
      </trkpt>
      <trkpt lat="43.33421" lon="-1.68047">
        <ele>74</ele>
        <time>2026-03-06T20:18:18.000Z</time>
      </trkpt>
      <trkpt lat="43.33421" lon="-1.68042">
        <ele>74</ele>
        <time>2026-03-06T20:18:19.000Z</time>
      </trkpt>
      <trkpt lat="43.33421" lon="-1.6803">
        <ele>73</ele>
        <time>2026-03-06T20:18:21.000Z</time>
      </trkpt>
      <trkpt lat="43.33422" lon="-1.68014">
        <ele>73</ele>
        <time>2026-03-06T20:18:23.000Z</time>
      </trkpt>
      <trkpt lat="43.33424" lon="-1.67921">
        <ele>70</ele>
        <time>2026-03-06T20:18:35.000Z</time>
      </trkpt>
      <trkpt lat="43.33428" lon="-1.6781">
        <ele>67</ele>
        <time>2026-03-06T20:18:49.000Z</time>
      </trkpt>
      <trkpt lat="43.33429" lon="-1.67798">
        <ele>67</ele>
        <time>2026-03-06T20:18:51.000Z</time>
      </trkpt>
      <trkpt lat="43.3343" lon="-1.67786">
        <ele>66</ele>
        <time>2026-03-06T20:18:52.000Z</time>
      </trkpt>
      <trkpt lat="43.33431" lon="-1.67776">
        <ele>66</ele>
        <time>2026-03-06T20:18:54.000Z</time>
      </trkpt>
      <trkpt lat="43.33432" lon="-1.67763">
        <ele>66</ele>
        <time>2026-03-06T20:18:55.000Z</time>
      </trkpt>
      <trkpt lat="43.33434" lon="-1.67755">
        <ele>66</ele>
        <time>2026-03-06T20:18:56.000Z</time>
      </trkpt>
      <trkpt lat="43.33455" lon="-1.67631">
        <ele>63</ele>
        <time>2026-03-06T20:19:13.000Z</time>
      </trkpt>
      <trkpt lat="43.3346" lon="-1.67602">
        <ele>62</ele>
        <time>2026-03-06T20:19:17.000Z</time>
      </trkpt>
      <trkpt lat="43.33461" lon="-1.67594">
        <ele>62</ele>
        <time>2026-03-06T20:19:18.000Z</time>
      </trkpt>
      <trkpt lat="43.33465" lon="-1.6757">
        <ele>61</ele>
        <time>2026-03-06T20:19:21.000Z</time>
      </trkpt>
      <trkpt lat="43.33468" lon="-1.6755">
        <ele>60</ele>
        <time>2026-03-06T20:19:24.000Z</time>
      </trkpt>
      <trkpt lat="43.33469" lon="-1.67548">
        <ele>59</ele>
        <time>2026-03-06T20:19:24.000Z</time>
      </trkpt>
      <trkpt lat="43.33469" lon="-1.67541">
        <ele>59</ele>
        <time>2026-03-06T20:19:25.000Z</time>
      </trkpt>
      <trkpt lat="43.3347" lon="-1.67535">
        <ele>59</ele>
        <time>2026-03-06T20:19:26.000Z</time>
      </trkpt>
      <trkpt lat="43.33471" lon="-1.67521">
        <ele>58</ele>
        <time>2026-03-06T20:19:27.000Z</time>
      </trkpt>
      <trkpt lat="43.33473" lon="-1.67491">
        <ele>58</ele>
        <time>2026-03-06T20:19:31.000Z</time>
      </trkpt>
      <trkpt lat="43.33475" lon="-1.67451">
        <ele>58</ele>
        <time>2026-03-06T20:19:36.000Z</time>
      </trkpt>
      <trkpt lat="43.33475" lon="-1.67444">
        <ele>58</ele>
        <time>2026-03-06T20:19:37.000Z</time>
      </trkpt>
      <trkpt lat="43.33476" lon="-1.67425">
        <ele>58</ele>
        <time>2026-03-06T20:19:40.000Z</time>
      </trkpt>
      <trkpt lat="43.33476" lon="-1.67414">
        <ele>58</ele>
        <time>2026-03-06T20:19:41.000Z</time>
      </trkpt>
      <trkpt lat="43.33476" lon="-1.6741">
        <ele>58</ele>
        <time>2026-03-06T20:19:42.000Z</time>
      </trkpt>
      <trkpt lat="43.33476" lon="-1.67404">
        <ele>58</ele>
        <time>2026-03-06T20:19:43.000Z</time>
      </trkpt>
      <trkpt lat="43.33476" lon="-1.674">
        <ele>58</ele>
        <time>2026-03-06T20:19:43.000Z</time>
      </trkpt>
      <trkpt lat="43.33476" lon="-1.67395">
        <ele>57</ele>
        <time>2026-03-06T20:19:44.000Z</time>
      </trkpt>
      <trkpt lat="43.33476" lon="-1.67386">
        <ele>57</ele>
        <time>2026-03-06T20:19:45.000Z</time>
      </trkpt>
      <trkpt lat="43.33475" lon="-1.67374">
        <ele>56</ele>
        <time>2026-03-06T20:19:46.000Z</time>
      </trkpt>
      <trkpt lat="43.33474" lon="-1.67366">
        <ele>56</ele>
        <time>2026-03-06T20:19:48.000Z</time>
      </trkpt>
      <trkpt lat="43.33473" lon="-1.67358">
        <ele>56</ele>
        <time>2026-03-06T20:19:49.000Z</time>
      </trkpt>
      <trkpt lat="43.33466" lon="-1.67325">
        <ele>54</ele>
        <time>2026-03-06T20:19:53.000Z</time>
      </trkpt>
      <trkpt lat="43.33448" lon="-1.67242">
        <ele>52</ele>
        <time>2026-03-06T20:20:04.000Z</time>
      </trkpt>
      <trkpt lat="43.33445" lon="-1.67226">
        <ele>52</ele>
        <time>2026-03-06T20:20:06.000Z</time>
      </trkpt>
      <trkpt lat="43.33443" lon="-1.67216">
        <ele>52</ele>
        <time>2026-03-06T20:20:08.000Z</time>
      </trkpt>
      <trkpt lat="43.33443" lon="-1.67213">
        <ele>52</ele>
        <time>2026-03-06T20:20:08.000Z</time>
      </trkpt>
      <trkpt lat="43.33442" lon="-1.67209">
        <ele>52</ele>
        <time>2026-03-06T20:20:09.000Z</time>
      </trkpt>
      <trkpt lat="43.33441" lon="-1.67203">
        <ele>52</ele>
        <time>2026-03-06T20:20:09.000Z</time>
      </trkpt>
      <trkpt lat="43.3344" lon="-1.67196">
        <ele>52</ele>
        <time>2026-03-06T20:20:10.000Z</time>
      </trkpt>
      <trkpt lat="43.33439" lon="-1.67185">
        <ele>52</ele>
        <time>2026-03-06T20:20:12.000Z</time>
      </trkpt>
      <trkpt lat="43.33439" lon="-1.67183">
        <ele>52</ele>
        <time>2026-03-06T20:20:12.000Z</time>
      </trkpt>
      <trkpt lat="43.33439" lon="-1.67168">
        <ele>51</ele>
        <time>2026-03-06T20:20:14.000Z</time>
      </trkpt>
      <trkpt lat="43.3344" lon="-1.67144">
        <ele>51</ele>
        <time>2026-03-06T20:20:17.000Z</time>
      </trkpt>
      <trkpt lat="43.33441" lon="-1.67129">
        <ele>51</ele>
        <time>2026-03-06T20:20:19.000Z</time>
      </trkpt>
      <trkpt lat="43.33441" lon="-1.67119">
        <ele>51</ele>
        <time>2026-03-06T20:20:20.000Z</time>
      </trkpt>
      <trkpt lat="43.33443" lon="-1.67108">
        <ele>51</ele>
        <time>2026-03-06T20:20:22.000Z</time>
      </trkpt>
      <trkpt lat="43.33444" lon="-1.67079">
        <ele>50</ele>
        <time>2026-03-06T20:20:26.000Z</time>
      </trkpt>
      <trkpt lat="43.33445" lon="-1.6707">
        <ele>51</ele>
        <time>2026-03-06T20:20:27.000Z</time>
      </trkpt>
      <trkpt lat="43.33445" lon="-1.67059">
        <ele>51</ele>
        <time>2026-03-06T20:20:28.000Z</time>
      </trkpt>
      <trkpt lat="43.33446" lon="-1.67046">
        <ele>51</ele>
        <time>2026-03-06T20:20:30.000Z</time>
      </trkpt>
      <trkpt lat="43.33447" lon="-1.67036">
        <ele>51</ele>
        <time>2026-03-06T20:20:31.000Z</time>
      </trkpt>
      <trkpt lat="43.33447" lon="-1.67027">
        <ele>51</ele>
        <time>2026-03-06T20:20:32.000Z</time>
      </trkpt>
      <trkpt lat="43.33448" lon="-1.67018">
        <ele>51</ele>
        <time>2026-03-06T20:20:34.000Z</time>
      </trkpt>
      <trkpt lat="43.33449" lon="-1.67001">
        <ele>51</ele>
        <time>2026-03-06T20:20:36.000Z</time>
      </trkpt>
      <trkpt lat="43.3345" lon="-1.66986">
        <ele>52</ele>
        <time>2026-03-06T20:20:38.000Z</time>
      </trkpt>
      <trkpt lat="43.33451" lon="-1.66972">
        <ele>52</ele>
        <time>2026-03-06T20:20:39.000Z</time>
      </trkpt>
      <trkpt lat="43.33452" lon="-1.66962">
        <ele>52</ele>
        <time>2026-03-06T20:20:41.000Z</time>
      </trkpt>
      <trkpt lat="43.33454" lon="-1.66952">
        <ele>52</ele>
        <time>2026-03-06T20:20:42.000Z</time>
      </trkpt>
      <trkpt lat="43.33456" lon="-1.66942">
        <ele>52</ele>
        <time>2026-03-06T20:20:43.000Z</time>
      </trkpt>
      <trkpt lat="43.33456" lon="-1.6694">
        <ele>53</ele>
        <time>2026-03-06T20:20:44.000Z</time>
      </trkpt>
      <trkpt lat="43.33458" lon="-1.66934">
        <ele>53</ele>
        <time>2026-03-06T20:20:45.000Z</time>
      </trkpt>
      <trkpt lat="43.33459" lon="-1.66929">
        <ele>53</ele>
        <time>2026-03-06T20:20:45.000Z</time>
      </trkpt>
      <trkpt lat="43.3346" lon="-1.66924">
        <ele>53</ele>
        <time>2026-03-06T20:20:46.000Z</time>
      </trkpt>
      <trkpt lat="43.33466" lon="-1.66913">
        <ele>52</ele>
        <time>2026-03-06T20:20:48.000Z</time>
      </trkpt>
      <trkpt lat="43.33476" lon="-1.66897">
        <ele>50</ele>
        <time>2026-03-06T20:20:50.000Z</time>
      </trkpt>
      <trkpt lat="43.33505" lon="-1.66853">
        <ele>46</ele>
        <time>2026-03-06T20:20:58.000Z</time>
      </trkpt>
      <trkpt lat="43.33511" lon="-1.66845">
        <ele>46</ele>
        <time>2026-03-06T20:21:00.000Z</time>
      </trkpt>
      <trkpt lat="43.33513" lon="-1.66839">
        <ele>46</ele>
        <time>2026-03-06T20:21:00.000Z</time>
      </trkpt>
      <trkpt lat="43.33517" lon="-1.66832">
        <ele>46</ele>
        <time>2026-03-06T20:21:02.000Z</time>
      </trkpt>
      <trkpt lat="43.3352" lon="-1.66827">
        <ele>46</ele>
        <time>2026-03-06T20:21:02.000Z</time>
      </trkpt>
      <trkpt lat="43.33527" lon="-1.66817">
        <ele>46</ele>
        <time>2026-03-06T20:21:04.000Z</time>
      </trkpt>
      <trkpt lat="43.33535" lon="-1.66808">
        <ele>45</ele>
        <time>2026-03-06T20:21:06.000Z</time>
      </trkpt>
      <trkpt lat="43.33538" lon="-1.66805">
        <ele>45</ele>
        <time>2026-03-06T20:21:07.000Z</time>
      </trkpt>
      <trkpt lat="43.33543" lon="-1.66803">
        <ele>45</ele>
        <time>2026-03-06T20:21:08.000Z</time>
      </trkpt>
      <trkpt lat="43.33553" lon="-1.668">
        <ele>45</ele>
        <time>2026-03-06T20:21:10.000Z</time>
      </trkpt>
      <trkpt lat="43.33563" lon="-1.66798">
        <ele>45</ele>
        <time>2026-03-06T20:21:11.000Z</time>
      </trkpt>
      <trkpt lat="43.33572" lon="-1.66797">
        <ele>45</ele>
        <time>2026-03-06T20:21:13.000Z</time>
      </trkpt>
      <trkpt lat="43.33579" lon="-1.66796">
        <ele>45</ele>
        <time>2026-03-06T20:21:14.000Z</time>
      </trkpt>
      <trkpt lat="43.33586" lon="-1.66794">
        <ele>45</ele>
        <time>2026-03-06T20:21:15.000Z</time>
      </trkpt>
      <trkpt lat="43.33591" lon="-1.66792">
        <ele>45</ele>
        <time>2026-03-06T20:21:16.000Z</time>
      </trkpt>
      <trkpt lat="43.33593" lon="-1.66791">
        <ele>45</ele>
        <time>2026-03-06T20:21:17.000Z</time>
      </trkpt>
      <trkpt lat="43.33598" lon="-1.66787">
        <ele>45</ele>
        <time>2026-03-06T20:21:18.000Z</time>
      </trkpt>
      <trkpt lat="43.33598" lon="-1.66787">
        <ele>45</ele>
        <time>2026-03-06T20:21:18.000Z</time>
      </trkpt>
      <trkpt lat="43.33598" lon="-1.66786">
        <ele>45</ele>
        <time>2026-03-06T20:21:18.000Z</time>
      </trkpt>
      <trkpt lat="43.33598" lon="-1.66785">
        <ele>45</ele>
        <time>2026-03-06T20:21:18.000Z</time>
      </trkpt>
      <trkpt lat="43.33599" lon="-1.66785">
        <ele>45</ele>
        <time>2026-03-06T20:21:18.000Z</time>
      </trkpt>
      <trkpt lat="43.33599" lon="-1.66784">
        <ele>45</ele>
        <time>2026-03-06T20:21:18.000Z</time>
      </trkpt>
      <trkpt lat="43.33599" lon="-1.66783">
        <ele>45</ele>
        <time>2026-03-06T20:21:18.000Z</time>
      </trkpt>
      <trkpt lat="43.336" lon="-1.66783">
        <ele>45</ele>
        <time>2026-03-06T20:21:19.000Z</time>
      </trkpt>
      <trkpt lat="43.336" lon="-1.66782">
        <ele>45</ele>
        <time>2026-03-06T20:21:19.000Z</time>
      </trkpt>
      <trkpt lat="43.33601" lon="-1.66782">
        <ele>45</ele>
        <time>2026-03-06T20:21:19.000Z</time>
      </trkpt>
      <trkpt lat="43.33601" lon="-1.66781">
        <ele>45</ele>
        <time>2026-03-06T20:21:19.000Z</time>
      </trkpt>
      <trkpt lat="43.33602" lon="-1.66781">
        <ele>45</ele>
        <time>2026-03-06T20:21:19.000Z</time>
      </trkpt>
      <trkpt lat="43.33602" lon="-1.6678">
        <ele>45</ele>
        <time>2026-03-06T20:21:19.000Z</time>
      </trkpt>
      <trkpt lat="43.33603" lon="-1.6678">
        <ele>45</ele>
        <time>2026-03-06T20:21:20.000Z</time>
      </trkpt>
      <trkpt lat="43.33604" lon="-1.6678">
        <ele>45</ele>
        <time>2026-03-06T20:21:20.000Z</time>
      </trkpt>
      <trkpt lat="43.33604" lon="-1.66779">
        <ele>45</ele>
        <time>2026-03-06T20:21:20.000Z</time>
      </trkpt>
      <trkpt lat="43.33605" lon="-1.66779">
        <ele>45</ele>
        <time>2026-03-06T20:21:20.000Z</time>
      </trkpt>
      <trkpt lat="43.33606" lon="-1.66779">
        <ele>45</ele>
        <time>2026-03-06T20:21:20.000Z</time>
      </trkpt>
      <trkpt lat="43.33607" lon="-1.66779">
        <ele>45</ele>
        <time>2026-03-06T20:21:20.000Z</time>
      </trkpt>
      <trkpt lat="43.33607" lon="-1.6678">
        <ele>45</ele>
        <time>2026-03-06T20:21:21.000Z</time>
      </trkpt>
      <trkpt lat="43.33608" lon="-1.6678">
        <ele>45</ele>
        <time>2026-03-06T20:21:21.000Z</time>
      </trkpt>
      <trkpt lat="43.33609" lon="-1.6678">
        <ele>45</ele>
        <time>2026-03-06T20:21:21.000Z</time>
      </trkpt>
      <trkpt lat="43.3361" lon="-1.66781">
        <ele>45</ele>
        <time>2026-03-06T20:21:21.000Z</time>
      </trkpt>
      <trkpt lat="43.33611" lon="-1.66782">
        <ele>45</ele>
        <time>2026-03-06T20:21:21.000Z</time>
      </trkpt>
      <trkpt lat="43.33612" lon="-1.66783">
        <ele>45</ele>
        <time>2026-03-06T20:21:22.000Z</time>
      </trkpt>
      <trkpt lat="43.33612" lon="-1.66784">
        <ele>45</ele>
        <time>2026-03-06T20:21:22.000Z</time>
      </trkpt>
      <trkpt lat="43.33613" lon="-1.66784">
        <ele>45</ele>
        <time>2026-03-06T20:21:22.000Z</time>
      </trkpt>
      <trkpt lat="43.33613" lon="-1.66785">
        <ele>45</ele>
        <time>2026-03-06T20:21:22.000Z</time>
      </trkpt>
      <trkpt lat="43.33614" lon="-1.66786">
        <ele>45</ele>
        <time>2026-03-06T20:21:22.000Z</time>
      </trkpt>
      <trkpt lat="43.33614" lon="-1.66787">
        <ele>45</ele>
        <time>2026-03-06T20:21:22.000Z</time>
      </trkpt>
      <trkpt lat="43.33614" lon="-1.66788">
        <ele>45</ele>
        <time>2026-03-06T20:21:22.000Z</time>
      </trkpt>
      <trkpt lat="43.33614" lon="-1.66789">
        <ele>45</ele>
        <time>2026-03-06T20:21:23.000Z</time>
      </trkpt>
      <trkpt lat="43.33615" lon="-1.6679">
        <ele>45</ele>
        <time>2026-03-06T20:21:23.000Z</time>
      </trkpt>
      <trkpt lat="43.33615" lon="-1.66791">
        <ele>45</ele>
        <time>2026-03-06T20:21:23.000Z</time>
      </trkpt>
      <trkpt lat="43.33615" lon="-1.66792">
        <ele>45</ele>
        <time>2026-03-06T20:21:23.000Z</time>
      </trkpt>
      <trkpt lat="43.33614" lon="-1.66792">
        <ele>45</ele>
        <time>2026-03-06T20:21:23.000Z</time>
      </trkpt>
      <trkpt lat="43.33614" lon="-1.66793">
        <ele>45</ele>
        <time>2026-03-06T20:21:23.000Z</time>
      </trkpt>
      <trkpt lat="43.33614" lon="-1.66794">
        <ele>45</ele>
        <time>2026-03-06T20:21:23.000Z</time>
      </trkpt>
      <trkpt lat="43.33614" lon="-1.66795">
        <ele>45</ele>
        <time>2026-03-06T20:21:24.000Z</time>
      </trkpt>
      <trkpt lat="43.33614" lon="-1.66796">
        <ele>45</ele>
        <time>2026-03-06T20:21:24.000Z</time>
      </trkpt>
      <trkpt lat="43.33613" lon="-1.66796">
        <ele>45</ele>
        <time>2026-03-06T20:21:24.000Z</time>
      </trkpt>
      <trkpt lat="43.33613" lon="-1.66797">
        <ele>45</ele>
        <time>2026-03-06T20:21:24.000Z</time>
      </trkpt>
      <trkpt lat="43.33612" lon="-1.66798">
        <ele>45</ele>
        <time>2026-03-06T20:21:24.000Z</time>
      </trkpt>
      <trkpt lat="43.33612" lon="-1.66803">
        <ele>45</ele>
        <time>2026-03-06T20:21:25.000Z</time>
      </trkpt>
      <trkpt lat="43.33612" lon="-1.66804">
        <ele>45</ele>
        <time>2026-03-06T20:21:25.000Z</time>
      </trkpt>
      <trkpt lat="43.33612" lon="-1.66805">
        <ele>45</ele>
        <time>2026-03-06T20:21:25.000Z</time>
      </trkpt>
      <trkpt lat="43.33613" lon="-1.66807">
        <ele>45</ele>
        <time>2026-03-06T20:21:25.000Z</time>
      </trkpt>
      <trkpt lat="43.33614" lon="-1.6681">
        <ele>44</ele>
        <time>2026-03-06T20:21:26.000Z</time>
      </trkpt>
      <trkpt lat="43.33617" lon="-1.66815">
        <ele>44</ele>
        <time>2026-03-06T20:21:27.000Z</time>
      </trkpt>
      <trkpt lat="43.33623" lon="-1.66818">
        <ele>44</ele>
        <time>2026-03-06T20:21:28.000Z</time>
      </trkpt>
      <trkpt lat="43.33626" lon="-1.66819">
        <ele>44</ele>
        <time>2026-03-06T20:21:28.000Z</time>
      </trkpt>
      <trkpt lat="43.33638" lon="-1.66822">
        <ele>44</ele>
        <time>2026-03-06T20:21:31.000Z</time>
      </trkpt>
      <trkpt lat="43.33671" lon="-1.66829">
        <ele>43</ele>
        <time>2026-03-06T20:21:37.000Z</time>
      </trkpt>
      <trkpt lat="43.33686" lon="-1.66832">
        <ele>43</ele>
        <time>2026-03-06T20:21:39.000Z</time>
      </trkpt>
      <trkpt lat="43.33694" lon="-1.66832">
        <ele>42</ele>
        <time>2026-03-06T20:21:41.000Z</time>
      </trkpt>
      <trkpt lat="43.33702" lon="-1.66831">
        <ele>42</ele>
        <time>2026-03-06T20:21:42.000Z</time>
      </trkpt>
      <trkpt lat="43.3371" lon="-1.66831">
        <ele>42</ele>
        <time>2026-03-06T20:21:44.000Z</time>
      </trkpt>
      <trkpt lat="43.3372" lon="-1.66829">
        <ele>42</ele>
        <time>2026-03-06T20:21:45.000Z</time>
      </trkpt>
      <trkpt lat="43.33739" lon="-1.66825">
        <ele>42</ele>
        <time>2026-03-06T20:21:49.000Z</time>
      </trkpt>
      <trkpt lat="43.33755" lon="-1.66821">
        <ele>41</ele>
        <time>2026-03-06T20:21:52.000Z</time>
      </trkpt>
      <trkpt lat="43.33781" lon="-1.66811">
        <ele>41</ele>
        <time>2026-03-06T20:21:56.000Z</time>
      </trkpt>
      <trkpt lat="43.338" lon="-1.66801">
        <ele>40</ele>
        <time>2026-03-06T20:22:00.000Z</time>
      </trkpt>
      <trkpt lat="43.33815" lon="-1.66794">
        <ele>40</ele>
        <time>2026-03-06T20:22:03.000Z</time>
      </trkpt>
      <trkpt lat="43.33839" lon="-1.66781">
        <ele>39</ele>
        <time>2026-03-06T20:22:07.000Z</time>
      </trkpt>
      <trkpt lat="43.33858" lon="-1.66769">
        <ele>38</ele>
        <time>2026-03-06T20:22:11.000Z</time>
      </trkpt>
      <trkpt lat="43.33872" lon="-1.66758">
        <ele>38</ele>
        <time>2026-03-06T20:22:14.000Z</time>
      </trkpt>
      <trkpt lat="43.3388" lon="-1.6675">
        <ele>37</ele>
        <time>2026-03-06T20:22:16.000Z</time>
      </trkpt>
      <trkpt lat="43.33885" lon="-1.66745">
        <ele>37</ele>
        <time>2026-03-06T20:22:17.000Z</time>
      </trkpt>
      <trkpt lat="43.33909" lon="-1.66719">
        <ele>37</ele>
        <time>2026-03-06T20:22:22.000Z</time>
      </trkpt>
      <trkpt lat="43.33934" lon="-1.66689">
        <ele>37</ele>
        <time>2026-03-06T20:22:28.000Z</time>
      </trkpt>
      <trkpt lat="43.3395" lon="-1.66672">
        <ele>36</ele>
        <time>2026-03-06T20:22:32.000Z</time>
      </trkpt>
      <trkpt lat="43.33971" lon="-1.6665">
        <ele>35</ele>
        <time>2026-03-06T20:22:37.000Z</time>
      </trkpt>
      <trkpt lat="43.33981" lon="-1.66641">
        <ele>34</ele>
        <time>2026-03-06T20:22:39.000Z</time>
      </trkpt>
      <trkpt lat="43.3399" lon="-1.66636">
        <ele>33</ele>
        <time>2026-03-06T20:22:40.000Z</time>
      </trkpt>
      <trkpt lat="43.34" lon="-1.66632">
        <ele>33</ele>
        <time>2026-03-06T20:22:42.000Z</time>
      </trkpt>
      <trkpt lat="43.3401" lon="-1.66628">
        <ele>33</ele>
        <time>2026-03-06T20:22:44.000Z</time>
      </trkpt>
      <trkpt lat="43.34032" lon="-1.66625">
        <ele>34</ele>
        <time>2026-03-06T20:22:48.000Z</time>
      </trkpt>
      <trkpt lat="43.34036" lon="-1.66625">
        <ele>34</ele>
        <time>2026-03-06T20:22:49.000Z</time>
      </trkpt>
      <trkpt lat="43.3404" lon="-1.66626">
        <ele>34</ele>
        <time>2026-03-06T20:22:49.000Z</time>
      </trkpt>
      <trkpt lat="43.34051" lon="-1.6663">
        <ele>35</ele>
        <time>2026-03-06T20:22:52.000Z</time>
      </trkpt>
      <trkpt lat="43.34055" lon="-1.66632">
        <ele>35</ele>
        <time>2026-03-06T20:22:52.000Z</time>
      </trkpt>
      <trkpt lat="43.34056" lon="-1.66632">
        <ele>35</ele>
        <time>2026-03-06T20:22:52.000Z</time>
      </trkpt>
      <trkpt lat="43.34059" lon="-1.66633">
        <ele>36</ele>
        <time>2026-03-06T20:22:53.000Z</time>
      </trkpt>
      <trkpt lat="43.34063" lon="-1.66635">
        <ele>36</ele>
        <time>2026-03-06T20:22:54.000Z</time>
      </trkpt>
      <trkpt lat="43.34076" lon="-1.66641">
        <ele>37</ele>
        <time>2026-03-06T20:22:56.000Z</time>
      </trkpt>
      <trkpt lat="43.3408" lon="-1.66643">
        <ele>37</ele>
        <time>2026-03-06T20:22:57.000Z</time>
      </trkpt>
      <trkpt lat="43.34084" lon="-1.66644">
        <ele>37</ele>
        <time>2026-03-06T20:22:58.000Z</time>
      </trkpt>
      <trkpt lat="43.34088" lon="-1.66645">
        <ele>38</ele>
        <time>2026-03-06T20:22:58.000Z</time>
      </trkpt>
      <trkpt lat="43.34101" lon="-1.66646">
        <ele>39</ele>
        <time>2026-03-06T20:23:01.000Z</time>
      </trkpt>
      <trkpt lat="43.34107" lon="-1.66647">
        <ele>39</ele>
        <time>2026-03-06T20:23:02.000Z</time>
      </trkpt>
      <trkpt lat="43.3411" lon="-1.66649">
        <ele>39</ele>
        <time>2026-03-06T20:23:02.000Z</time>
      </trkpt>
      <trkpt lat="43.34112" lon="-1.66649">
        <ele>39</ele>
        <time>2026-03-06T20:23:03.000Z</time>
      </trkpt>
      <trkpt lat="43.34115" lon="-1.6665">
        <ele>40</ele>
        <time>2026-03-06T20:23:03.000Z</time>
      </trkpt>
      <trkpt lat="43.34117" lon="-1.66651">
        <ele>40</ele>
        <time>2026-03-06T20:23:04.000Z</time>
      </trkpt>
      <trkpt lat="43.34118" lon="-1.66652">
        <ele>40</ele>
        <time>2026-03-06T20:23:04.000Z</time>
      </trkpt>
      <trkpt lat="43.34148" lon="-1.66667">
        <ele>41</ele>
        <time>2026-03-06T20:23:10.000Z</time>
      </trkpt>
      <trkpt lat="43.34156" lon="-1.66671">
        <ele>42</ele>
        <time>2026-03-06T20:23:11.000Z</time>
      </trkpt>
      <trkpt lat="43.34185" lon="-1.66689">
        <ele>47</ele>
        <time>2026-03-06T20:23:17.000Z</time>
      </trkpt>
      <trkpt lat="43.34221" lon="-1.66707">
        <ele>50</ele>
        <time>2026-03-06T20:23:24.000Z</time>
      </trkpt>
      <trkpt lat="43.34256" lon="-1.66724">
        <ele>51</ele>
        <time>2026-03-06T20:23:30.000Z</time>
      </trkpt>
      <trkpt lat="43.34288" lon="-1.66739">
        <ele>52</ele>
        <time>2026-03-06T20:23:36.000Z</time>
      </trkpt>
      <trkpt lat="43.34308" lon="-1.66746">
        <ele>53</ele>
        <time>2026-03-06T20:23:40.000Z</time>
      </trkpt>
      <trkpt lat="43.34311" lon="-1.66748">
        <ele>53</ele>
        <time>2026-03-06T20:23:40.000Z</time>
      </trkpt>
      <trkpt lat="43.34326" lon="-1.66749">
        <ele>55</ele>
        <time>2026-03-06T20:23:43.000Z</time>
      </trkpt>
      <trkpt lat="43.34338" lon="-1.6675">
        <ele>55</ele>
        <time>2026-03-06T20:23:45.000Z</time>
      </trkpt>
      <trkpt lat="43.34347" lon="-1.66747">
        <ele>56</ele>
        <time>2026-03-06T20:23:47.000Z</time>
      </trkpt>
      <trkpt lat="43.34348" lon="-1.66746">
        <ele>57</ele>
        <time>2026-03-06T20:23:47.000Z</time>
      </trkpt>
      <trkpt lat="43.34356" lon="-1.66741">
        <ele>58</ele>
        <time>2026-03-06T20:23:49.000Z</time>
      </trkpt>
      <trkpt lat="43.34366" lon="-1.6673">
        <ele>60</ele>
        <time>2026-03-06T20:23:51.000Z</time>
      </trkpt>
      <trkpt lat="43.34383" lon="-1.6671">
        <ele>64</ele>
        <time>2026-03-06T20:23:55.000Z</time>
      </trkpt>
      <trkpt lat="43.34401" lon="-1.66689">
        <ele>68</ele>
        <time>2026-03-06T20:23:59.000Z</time>
      </trkpt>
      <trkpt lat="43.34406" lon="-1.66683">
        <ele>69</ele>
        <time>2026-03-06T20:24:00.000Z</time>
      </trkpt>
      <trkpt lat="43.34415" lon="-1.66672">
        <ele>70</ele>
        <time>2026-03-06T20:24:02.000Z</time>
      </trkpt>
      <trkpt lat="43.34417" lon="-1.6667">
        <ele>71</ele>
        <time>2026-03-06T20:24:03.000Z</time>
      </trkpt>
      <trkpt lat="43.34432" lon="-1.6666">
        <ele>72</ele>
        <time>2026-03-06T20:24:06.000Z</time>
      </trkpt>
      <trkpt lat="43.34436" lon="-1.66658">
        <ele>72</ele>
        <time>2026-03-06T20:24:07.000Z</time>
      </trkpt>
      <trkpt lat="43.34442" lon="-1.66655">
        <ele>72</ele>
        <time>2026-03-06T20:24:08.000Z</time>
      </trkpt>
      <trkpt lat="43.34446" lon="-1.66654">
        <ele>72</ele>
        <time>2026-03-06T20:24:08.000Z</time>
      </trkpt>
      <trkpt lat="43.3446" lon="-1.66653">
        <ele>72</ele>
        <time>2026-03-06T20:24:11.000Z</time>
      </trkpt>
      <trkpt lat="43.34484" lon="-1.66652">
        <ele>72</ele>
        <time>2026-03-06T20:24:15.000Z</time>
      </trkpt>
      <trkpt lat="43.34491" lon="-1.66652">
        <ele>72</ele>
        <time>2026-03-06T20:24:16.000Z</time>
      </trkpt>
      <trkpt lat="43.34511" lon="-1.66651">
        <ele>73</ele>
        <time>2026-03-06T20:24:20.000Z</time>
      </trkpt>
      <trkpt lat="43.34522" lon="-1.66651">
        <ele>73</ele>
        <time>2026-03-06T20:24:22.000Z</time>
      </trkpt>
      <trkpt lat="43.34529" lon="-1.66651">
        <ele>74</ele>
        <time>2026-03-06T20:24:23.000Z</time>
      </trkpt>
      <trkpt lat="43.34531" lon="-1.66651">
        <ele>74</ele>
        <time>2026-03-06T20:24:24.000Z</time>
      </trkpt>
      <trkpt lat="43.3454" lon="-1.66653">
        <ele>74</ele>
        <time>2026-03-06T20:24:25.000Z</time>
      </trkpt>
      <trkpt lat="43.34552" lon="-1.66658">
        <ele>75</ele>
        <time>2026-03-06T20:24:27.000Z</time>
      </trkpt>
      <trkpt lat="43.34562" lon="-1.66665">
        <ele>76</ele>
        <time>2026-03-06T20:24:29.000Z</time>
      </trkpt>
      <trkpt lat="43.34566" lon="-1.66669">
        <ele>76</ele>
        <time>2026-03-06T20:24:30.000Z</time>
      </trkpt>
      <trkpt lat="43.34582" lon="-1.66685">
        <ele>77</ele>
        <time>2026-03-06T20:24:34.000Z</time>
      </trkpt>
      <trkpt lat="43.34599" lon="-1.66705">
        <ele>77</ele>
        <time>2026-03-06T20:24:38.000Z</time>
      </trkpt>
      <trkpt lat="43.34612" lon="-1.6672">
        <ele>77</ele>
        <time>2026-03-06T20:24:41.000Z</time>
      </trkpt>
      <trkpt lat="43.34617" lon="-1.66724">
        <ele>77</ele>
        <time>2026-03-06T20:24:42.000Z</time>
      </trkpt>
      <trkpt lat="43.34628" lon="-1.66736">
        <ele>76</ele>
        <time>2026-03-06T20:24:44.000Z</time>
      </trkpt>
      <trkpt lat="43.34647" lon="-1.66756">
        <ele>75</ele>
        <time>2026-03-06T20:24:49.000Z</time>
      </trkpt>
      <trkpt lat="43.3466" lon="-1.66771">
        <ele>74</ele>
        <time>2026-03-06T20:24:52.000Z</time>
      </trkpt>
      <trkpt lat="43.34664" lon="-1.66774">
        <ele>74</ele>
        <time>2026-03-06T20:24:52.000Z</time>
      </trkpt>
      <trkpt lat="43.34674" lon="-1.66781">
        <ele>74</ele>
        <time>2026-03-06T20:24:54.000Z</time>
      </trkpt>
      <trkpt lat="43.34688" lon="-1.66789">
        <ele>73</ele>
        <time>2026-03-06T20:24:57.000Z</time>
      </trkpt>
      <trkpt lat="43.34691" lon="-1.6679">
        <ele>73</ele>
        <time>2026-03-06T20:24:58.000Z</time>
      </trkpt>
      <trkpt lat="43.34705" lon="-1.66795">
        <ele>73</ele>
        <time>2026-03-06T20:25:00.000Z</time>
      </trkpt>
      <trkpt lat="43.34728" lon="-1.66802">
        <ele>72</ele>
        <time>2026-03-06T20:25:04.000Z</time>
      </trkpt>
      <trkpt lat="43.34747" lon="-1.66806">
        <ele>72</ele>
        <time>2026-03-06T20:25:08.000Z</time>
      </trkpt>
      <trkpt lat="43.34771" lon="-1.66808">
        <ele>72</ele>
        <time>2026-03-06T20:25:12.000Z</time>
      </trkpt>
      <trkpt lat="43.34791" lon="-1.66809">
        <ele>73</ele>
        <time>2026-03-06T20:25:16.000Z</time>
      </trkpt>
      <trkpt lat="43.34795" lon="-1.66809">
        <ele>73</ele>
        <time>2026-03-06T20:25:16.000Z</time>
      </trkpt>
      <trkpt lat="43.34816" lon="-1.66814">
        <ele>73</ele>
        <time>2026-03-06T20:25:20.000Z</time>
      </trkpt>
      <trkpt lat="43.34842" lon="-1.66825">
        <ele>75</ele>
        <time>2026-03-06T20:25:25.000Z</time>
      </trkpt>
      <trkpt lat="43.3488" lon="-1.66845">
        <ele>78</ele>
        <time>2026-03-06T20:25:32.000Z</time>
      </trkpt>
      <trkpt lat="43.3492" lon="-1.66868">
        <ele>83</ele>
        <time>2026-03-06T20:25:40.000Z</time>
      </trkpt>
      <trkpt lat="43.34927" lon="-1.66873">
        <ele>84</ele>
        <time>2026-03-06T20:25:41.000Z</time>
      </trkpt>
      <trkpt lat="43.34937" lon="-1.66877">
        <ele>86</ele>
        <time>2026-03-06T20:25:43.000Z</time>
      </trkpt>
      <trkpt lat="43.34942" lon="-1.66878">
        <ele>87</ele>
        <time>2026-03-06T20:25:44.000Z</time>
      </trkpt>
      <trkpt lat="43.34945" lon="-1.66879">
        <ele>87</ele>
        <time>2026-03-06T20:25:45.000Z</time>
      </trkpt>
      <trkpt lat="43.34948" lon="-1.66879">
        <ele>88</ele>
        <time>2026-03-06T20:25:45.000Z</time>
      </trkpt>
      <trkpt lat="43.34952" lon="-1.66879">
        <ele>88</ele>
        <time>2026-03-06T20:25:46.000Z</time>
      </trkpt>
      <trkpt lat="43.34956" lon="-1.66878">
        <ele>88</ele>
        <time>2026-03-06T20:25:47.000Z</time>
      </trkpt>
      <trkpt lat="43.34961" lon="-1.66877">
        <ele>89</ele>
        <time>2026-03-06T20:25:48.000Z</time>
      </trkpt>
      <trkpt lat="43.34965" lon="-1.66874">
        <ele>89</ele>
        <time>2026-03-06T20:25:48.000Z</time>
      </trkpt>
      <trkpt lat="43.34968" lon="-1.66871">
        <ele>89</ele>
        <time>2026-03-06T20:25:49.000Z</time>
      </trkpt>
      <trkpt lat="43.3497" lon="-1.66868">
        <ele>89</ele>
        <time>2026-03-06T20:25:50.000Z</time>
      </trkpt>
      <trkpt lat="43.34972" lon="-1.66864">
        <ele>89</ele>
        <time>2026-03-06T20:25:50.000Z</time>
      </trkpt>
      <trkpt lat="43.34973" lon="-1.66862">
        <ele>89</ele>
        <time>2026-03-06T20:25:51.000Z</time>
      </trkpt>
      <trkpt lat="43.34973" lon="-1.66859">
        <ele>89</ele>
        <time>2026-03-06T20:25:51.000Z</time>
      </trkpt>
      <trkpt lat="43.34974" lon="-1.66854">
        <ele>89</ele>
        <time>2026-03-06T20:25:52.000Z</time>
      </trkpt>
      <trkpt lat="43.34975" lon="-1.66849">
        <ele>88</ele>
        <time>2026-03-06T20:25:52.000Z</time>
      </trkpt>
      <trkpt lat="43.34975" lon="-1.66844">
        <ele>88</ele>
        <time>2026-03-06T20:25:53.000Z</time>
      </trkpt>
      <trkpt lat="43.34976" lon="-1.66838">
        <ele>87</ele>
        <time>2026-03-06T20:25:54.000Z</time>
      </trkpt>
      <trkpt lat="43.34977" lon="-1.66833">
        <ele>87</ele>
        <time>2026-03-06T20:25:54.000Z</time>
      </trkpt>
      <trkpt lat="43.34978" lon="-1.66828">
        <ele>86</ele>
        <time>2026-03-06T20:25:55.000Z</time>
      </trkpt>
      <trkpt lat="43.34979" lon="-1.66823">
        <ele>86</ele>
        <time>2026-03-06T20:25:56.000Z</time>
      </trkpt>
      <trkpt lat="43.34981" lon="-1.66819">
        <ele>86</ele>
        <time>2026-03-06T20:25:56.000Z</time>
      </trkpt>
      <trkpt lat="43.34983" lon="-1.66815">
        <ele>86</ele>
        <time>2026-03-06T20:25:57.000Z</time>
      </trkpt>
      <trkpt lat="43.34985" lon="-1.66812">
        <ele>86</ele>
        <time>2026-03-06T20:25:58.000Z</time>
      </trkpt>
      <trkpt lat="43.34989" lon="-1.66808">
        <ele>86</ele>
        <time>2026-03-06T20:25:58.000Z</time>
      </trkpt>
      <trkpt lat="43.34991" lon="-1.66806">
        <ele>86</ele>
        <time>2026-03-06T20:25:59.000Z</time>
      </trkpt>
      <trkpt lat="43.34996" lon="-1.66803">
        <ele>86</ele>
        <time>2026-03-06T20:26:00.000Z</time>
      </trkpt>
      <trkpt lat="43.35002" lon="-1.668">
        <ele>86</ele>
        <time>2026-03-06T20:26:01.000Z</time>
      </trkpt>
      <trkpt lat="43.35012" lon="-1.66799">
        <ele>86</ele>
        <time>2026-03-06T20:26:03.000Z</time>
      </trkpt>
      <trkpt lat="43.35019" lon="-1.668">
        <ele>86</ele>
        <time>2026-03-06T20:26:04.000Z</time>
      </trkpt>
      <trkpt lat="43.35025" lon="-1.66804">
        <ele>86</ele>
        <time>2026-03-06T20:26:05.000Z</time>
      </trkpt>
      <trkpt lat="43.35031" lon="-1.66809">
        <ele>87</ele>
        <time>2026-03-06T20:26:06.000Z</time>
      </trkpt>
      <trkpt lat="43.35043" lon="-1.6682">
        <ele>89</ele>
        <time>2026-03-06T20:26:09.000Z</time>
      </trkpt>
      <trkpt lat="43.35053" lon="-1.66831">
        <ele>90</ele>
        <time>2026-03-06T20:26:11.000Z</time>
      </trkpt>
      <trkpt lat="43.35065" lon="-1.66843">
        <ele>91</ele>
        <time>2026-03-06T20:26:14.000Z</time>
      </trkpt>
      <trkpt lat="43.35072" lon="-1.6685">
        <ele>92</ele>
        <time>2026-03-06T20:26:15.000Z</time>
      </trkpt>
      <trkpt lat="43.35081" lon="-1.66856">
        <ele>92</ele>
        <time>2026-03-06T20:26:17.000Z</time>
      </trkpt>
      <trkpt lat="43.3509" lon="-1.66858">
        <ele>92</ele>
        <time>2026-03-06T20:26:19.000Z</time>
      </trkpt>
      <trkpt lat="43.35099" lon="-1.66858">
        <ele>93</ele>
        <time>2026-03-06T20:26:20.000Z</time>
      </trkpt>
      <trkpt lat="43.35104" lon="-1.66858">
        <ele>93</ele>
        <time>2026-03-06T20:26:21.000Z</time>
      </trkpt>
      <trkpt lat="43.35109" lon="-1.66856">
        <ele>93</ele>
        <time>2026-03-06T20:26:22.000Z</time>
      </trkpt>
      <trkpt lat="43.35116" lon="-1.66853">
        <ele>93</ele>
        <time>2026-03-06T20:26:24.000Z</time>
      </trkpt>
      <trkpt lat="43.35118" lon="-1.66851">
        <ele>93</ele>
        <time>2026-03-06T20:26:24.000Z</time>
      </trkpt>
      <trkpt lat="43.35124" lon="-1.66845">
        <ele>93</ele>
        <time>2026-03-06T20:26:25.000Z</time>
      </trkpt>
      <trkpt lat="43.35127" lon="-1.6684">
        <ele>94</ele>
        <time>2026-03-06T20:26:26.000Z</time>
      </trkpt>
      <trkpt lat="43.3513" lon="-1.66836">
        <ele>94</ele>
        <time>2026-03-06T20:26:27.000Z</time>
      </trkpt>
      <trkpt lat="43.35142" lon="-1.66817">
        <ele>93</ele>
        <time>2026-03-06T20:26:30.000Z</time>
      </trkpt>
      <trkpt lat="43.3515" lon="-1.66803">
        <ele>93</ele>
        <time>2026-03-06T20:26:32.000Z</time>
      </trkpt>
      <trkpt lat="43.35157" lon="-1.66791">
        <ele>92</ele>
        <time>2026-03-06T20:26:34.000Z</time>
      </trkpt>
      <trkpt lat="43.35166" lon="-1.66774">
        <ele>92</ele>
        <time>2026-03-06T20:26:37.000Z</time>
      </trkpt>
      <trkpt lat="43.35179" lon="-1.66751">
        <ele>91</ele>
        <time>2026-03-06T20:26:41.000Z</time>
      </trkpt>
      <trkpt lat="43.35187" lon="-1.6674">
        <ele>91</ele>
        <time>2026-03-06T20:26:43.000Z</time>
      </trkpt>
      <trkpt lat="43.35191" lon="-1.66737">
        <ele>91</ele>
        <time>2026-03-06T20:26:44.000Z</time>
      </trkpt>
      <trkpt lat="43.35194" lon="-1.66734">
        <ele>91</ele>
        <time>2026-03-06T20:26:44.000Z</time>
      </trkpt>
      <trkpt lat="43.35197" lon="-1.66731">
        <ele>91</ele>
        <time>2026-03-06T20:26:45.000Z</time>
      </trkpt>
      <trkpt lat="43.35201" lon="-1.6673">
        <ele>91</ele>
        <time>2026-03-06T20:26:46.000Z</time>
      </trkpt>
      <trkpt lat="43.35205" lon="-1.66729">
        <ele>91</ele>
        <time>2026-03-06T20:26:47.000Z</time>
      </trkpt>
      <trkpt lat="43.3521" lon="-1.6673">
        <ele>91</ele>
        <time>2026-03-06T20:26:47.000Z</time>
      </trkpt>
      <trkpt lat="43.35214" lon="-1.6673">
        <ele>91</ele>
        <time>2026-03-06T20:26:48.000Z</time>
      </trkpt>
      <trkpt lat="43.35218" lon="-1.6673">
        <ele>92</ele>
        <time>2026-03-06T20:26:49.000Z</time>
      </trkpt>
      <trkpt lat="43.35227" lon="-1.66732">
        <ele>92</ele>
        <time>2026-03-06T20:26:50.000Z</time>
      </trkpt>
      <trkpt lat="43.3524" lon="-1.66734">
        <ele>93</ele>
        <time>2026-03-06T20:26:53.000Z</time>
      </trkpt>
      <trkpt lat="43.35249" lon="-1.66735">
        <ele>93</ele>
        <time>2026-03-06T20:26:54.000Z</time>
      </trkpt>
      <trkpt lat="43.35254" lon="-1.66734">
        <ele>93</ele>
        <time>2026-03-06T20:26:55.000Z</time>
      </trkpt>
      <trkpt lat="43.35258" lon="-1.66733">
        <ele>93</ele>
        <time>2026-03-06T20:26:56.000Z</time>
      </trkpt>
      <trkpt lat="43.35264" lon="-1.66731">
        <ele>92</ele>
        <time>2026-03-06T20:26:57.000Z</time>
      </trkpt>
      <trkpt lat="43.35274" lon="-1.66724">
        <ele>92</ele>
        <time>2026-03-06T20:26:59.000Z</time>
      </trkpt>
      <trkpt lat="43.35286" lon="-1.66717">
        <ele>91</ele>
        <time>2026-03-06T20:27:01.000Z</time>
      </trkpt>
      <trkpt lat="43.35295" lon="-1.66711">
        <ele>91</ele>
        <time>2026-03-06T20:27:03.000Z</time>
      </trkpt>
      <trkpt lat="43.353" lon="-1.66708">
        <ele>91</ele>
        <time>2026-03-06T20:27:04.000Z</time>
      </trkpt>
      <trkpt lat="43.35339" lon="-1.66687">
        <ele>93</ele>
        <time>2026-03-06T20:27:12.000Z</time>
      </trkpt>
      <trkpt lat="43.35352" lon="-1.6668">
        <ele>94</ele>
        <time>2026-03-06T20:27:14.000Z</time>
      </trkpt>
      <trkpt lat="43.35385" lon="-1.66664">
        <ele>97</ele>
        <time>2026-03-06T20:27:20.000Z</time>
      </trkpt>
      <trkpt lat="43.3539" lon="-1.66662">
        <ele>97</ele>
        <time>2026-03-06T20:27:21.000Z</time>
      </trkpt>
      <trkpt lat="43.35401" lon="-1.66656">
        <ele>97</ele>
        <time>2026-03-06T20:27:23.000Z</time>
      </trkpt>
      <trkpt lat="43.35409" lon="-1.66651">
        <ele>97</ele>
        <time>2026-03-06T20:27:25.000Z</time>
      </trkpt>
      <trkpt lat="43.35412" lon="-1.66648">
        <ele>97</ele>
        <time>2026-03-06T20:27:26.000Z</time>
      </trkpt>
      <trkpt lat="43.35419" lon="-1.66644">
        <ele>97</ele>
        <time>2026-03-06T20:27:27.000Z</time>
      </trkpt>
      <trkpt lat="43.35425" lon="-1.6664">
        <ele>96</ele>
        <time>2026-03-06T20:27:28.000Z</time>
      </trkpt>
      <trkpt lat="43.35432" lon="-1.66634">
        <ele>96</ele>
        <time>2026-03-06T20:27:30.000Z</time>
      </trkpt>
      <trkpt lat="43.35436" lon="-1.6663">
        <ele>95</ele>
        <time>2026-03-06T20:27:31.000Z</time>
      </trkpt>
      <trkpt lat="43.3544" lon="-1.66626">
        <ele>95</ele>
        <time>2026-03-06T20:27:31.000Z</time>
      </trkpt>
      <trkpt lat="43.35448" lon="-1.66619">
        <ele>95</ele>
        <time>2026-03-06T20:27:33.000Z</time>
      </trkpt>
      <trkpt lat="43.35457" lon="-1.66611">
        <ele>94</ele>
        <time>2026-03-06T20:27:35.000Z</time>
      </trkpt>
      <trkpt lat="43.35464" lon="-1.66608">
        <ele>94</ele>
        <time>2026-03-06T20:27:36.000Z</time>
      </trkpt>
      <trkpt lat="43.35469" lon="-1.66605">
        <ele>94</ele>
        <time>2026-03-06T20:27:37.000Z</time>
      </trkpt>
      <trkpt lat="43.35475" lon="-1.66603">
        <ele>94</ele>
        <time>2026-03-06T20:27:38.000Z</time>
      </trkpt>
      <trkpt lat="43.35498" lon="-1.66596">
        <ele>95</ele>
        <time>2026-03-06T20:27:43.000Z</time>
      </trkpt>
      <trkpt lat="43.35511" lon="-1.66594">
        <ele>94</ele>
        <time>2026-03-06T20:27:45.000Z</time>
      </trkpt>
      <trkpt lat="43.35521" lon="-1.66592">
        <ele>93</ele>
        <time>2026-03-06T20:27:47.000Z</time>
      </trkpt>
      <trkpt lat="43.3555" lon="-1.66591">
        <ele>91</ele>
        <time>2026-03-06T20:27:52.000Z</time>
      </trkpt>
      <trkpt lat="43.35588" lon="-1.66588">
        <ele>88</ele>
        <time>2026-03-06T20:27:59.000Z</time>
      </trkpt>
      <trkpt lat="43.35603" lon="-1.66587">
        <ele>87</ele>
        <time>2026-03-06T20:28:01.000Z</time>
      </trkpt>
      <trkpt lat="43.35613" lon="-1.66586">
        <ele>87</ele>
        <time>2026-03-06T20:28:03.000Z</time>
      </trkpt>
      <trkpt lat="43.3563" lon="-1.66582">
        <ele>86</ele>
        <time>2026-03-06T20:28:06.000Z</time>
      </trkpt>
      <trkpt lat="43.3564" lon="-1.66577">
        <ele>85</ele>
        <time>2026-03-06T20:28:08.000Z</time>
      </trkpt>
      <trkpt lat="43.35647" lon="-1.66575">
        <ele>85</ele>
        <time>2026-03-06T20:28:09.000Z</time>
      </trkpt>
      <trkpt lat="43.35649" lon="-1.66574">
        <ele>84</ele>
        <time>2026-03-06T20:28:10.000Z</time>
      </trkpt>
      <trkpt lat="43.35666" lon="-1.66562">
        <ele>82</ele>
        <time>2026-03-06T20:28:13.000Z</time>
      </trkpt>
      <trkpt lat="43.35677" lon="-1.66551">
        <ele>81</ele>
        <time>2026-03-06T20:28:15.000Z</time>
      </trkpt>
      <trkpt lat="43.35683" lon="-1.66545">
        <ele>80</ele>
        <time>2026-03-06T20:28:17.000Z</time>
      </trkpt>
      <trkpt lat="43.35697" lon="-1.66526">
        <ele>78</ele>
        <time>2026-03-06T20:28:20.000Z</time>
      </trkpt>
      <trkpt lat="43.35717" lon="-1.66501">
        <ele>77</ele>
        <time>2026-03-06T20:28:25.000Z</time>
      </trkpt>
      <trkpt lat="43.35735" lon="-1.66483">
        <ele>76</ele>
        <time>2026-03-06T20:28:29.000Z</time>
      </trkpt>
      <trkpt lat="43.3575" lon="-1.66472">
        <ele>76</ele>
        <time>2026-03-06T20:28:32.000Z</time>
      </trkpt>
      <trkpt lat="43.35767" lon="-1.66464">
        <ele>75</ele>
        <time>2026-03-06T20:28:35.000Z</time>
      </trkpt>
      <trkpt lat="43.35789" lon="-1.66457">
        <ele>75</ele>
        <time>2026-03-06T20:28:39.000Z</time>
      </trkpt>
      <trkpt lat="43.35813" lon="-1.6645">
        <ele>75</ele>
        <time>2026-03-06T20:28:44.000Z</time>
      </trkpt>
      <trkpt lat="43.35823" lon="-1.66448">
        <ele>75</ele>
        <time>2026-03-06T20:28:45.000Z</time>
      </trkpt>
      <trkpt lat="43.35841" lon="-1.66443">
        <ele>76</ele>
        <time>2026-03-06T20:28:49.000Z</time>
      </trkpt>
      <trkpt lat="43.35848" lon="-1.66441">
        <ele>76</ele>
        <time>2026-03-06T20:28:50.000Z</time>
      </trkpt>
      <trkpt lat="43.35865" lon="-1.66437">
        <ele>77</ele>
        <time>2026-03-06T20:28:53.000Z</time>
      </trkpt>
      <trkpt lat="43.35878" lon="-1.66431">
        <ele>78</ele>
        <time>2026-03-06T20:28:56.000Z</time>
      </trkpt>
      <trkpt lat="43.35881" lon="-1.66429">
        <ele>78</ele>
        <time>2026-03-06T20:28:56.000Z</time>
      </trkpt>
      <trkpt lat="43.35883" lon="-1.66427">
        <ele>78</ele>
        <time>2026-03-06T20:28:57.000Z</time>
      </trkpt>
      <trkpt lat="43.35886" lon="-1.66424">
        <ele>78</ele>
        <time>2026-03-06T20:28:57.000Z</time>
      </trkpt>
      <trkpt lat="43.35888" lon="-1.6642">
        <ele>78</ele>
        <time>2026-03-06T20:28:58.000Z</time>
      </trkpt>
      <trkpt lat="43.3589" lon="-1.66414">
        <ele>78</ele>
        <time>2026-03-06T20:28:59.000Z</time>
      </trkpt>
      <trkpt lat="43.35892" lon="-1.66408">
        <ele>78</ele>
        <time>2026-03-06T20:29:00.000Z</time>
      </trkpt>
      <trkpt lat="43.35893" lon="-1.66402">
        <ele>77</ele>
        <time>2026-03-06T20:29:00.000Z</time>
      </trkpt>
      <trkpt lat="43.35895" lon="-1.66377">
        <ele>76</ele>
        <time>2026-03-06T20:29:04.000Z</time>
      </trkpt>
      <trkpt lat="43.35896" lon="-1.66368">
        <ele>76</ele>
        <time>2026-03-06T20:29:05.000Z</time>
      </trkpt>
      <trkpt lat="43.35896" lon="-1.66364">
        <ele>76</ele>
        <time>2026-03-06T20:29:05.000Z</time>
      </trkpt>
      <trkpt lat="43.35897" lon="-1.6636">
        <ele>75</ele>
        <time>2026-03-06T20:29:06.000Z</time>
      </trkpt>
      <trkpt lat="43.35899" lon="-1.66355">
        <ele>75</ele>
        <time>2026-03-06T20:29:07.000Z</time>
      </trkpt>
      <trkpt lat="43.359" lon="-1.66353">
        <ele>75</ele>
        <time>2026-03-06T20:29:07.000Z</time>
      </trkpt>
      <trkpt lat="43.35903" lon="-1.66349">
        <ele>75</ele>
        <time>2026-03-06T20:29:08.000Z</time>
      </trkpt>
      <trkpt lat="43.35906" lon="-1.66345">
        <ele>75</ele>
        <time>2026-03-06T20:29:08.000Z</time>
      </trkpt>
      <trkpt lat="43.35908" lon="-1.66343">
        <ele>76</ele>
        <time>2026-03-06T20:29:09.000Z</time>
      </trkpt>
      <trkpt lat="43.3591" lon="-1.66341">
        <ele>76</ele>
        <time>2026-03-06T20:29:09.000Z</time>
      </trkpt>
      <trkpt lat="43.35915" lon="-1.66338">
        <ele>76</ele>
        <time>2026-03-06T20:29:10.000Z</time>
      </trkpt>
      <trkpt lat="43.35934" lon="-1.66331">
        <ele>76</ele>
        <time>2026-03-06T20:29:14.000Z</time>
      </trkpt>
      <trkpt lat="43.35939" lon="-1.66329">
        <ele>76</ele>
        <time>2026-03-06T20:29:15.000Z</time>
      </trkpt>
      <trkpt lat="43.35947" lon="-1.66326">
        <ele>76</ele>
        <time>2026-03-06T20:29:16.000Z</time>
      </trkpt>
      <trkpt lat="43.35957" lon="-1.6632">
        <ele>76</ele>
        <time>2026-03-06T20:29:18.000Z</time>
      </trkpt>
      <trkpt lat="43.35961" lon="-1.66316">
        <ele>76</ele>
        <time>2026-03-06T20:29:19.000Z</time>
      </trkpt>
      <trkpt lat="43.35965" lon="-1.66312">
        <ele>76</ele>
        <time>2026-03-06T20:29:20.000Z</time>
      </trkpt>
      <trkpt lat="43.35972" lon="-1.66303">
        <ele>77</ele>
        <time>2026-03-06T20:29:22.000Z</time>
      </trkpt>
      <trkpt lat="43.3601" lon="-1.66253">
        <ele>80</ele>
        <time>2026-03-06T20:29:31.000Z</time>
      </trkpt>
      <trkpt lat="43.36013" lon="-1.66248">
        <ele>80</ele>
        <time>2026-03-06T20:29:32.000Z</time>
      </trkpt>
      <trkpt lat="43.36024" lon="-1.66234">
        <ele>81</ele>
        <time>2026-03-06T20:29:34.000Z</time>
      </trkpt>
      <trkpt lat="43.36038" lon="-1.66216">
        <ele>81</ele>
        <time>2026-03-06T20:29:38.000Z</time>
      </trkpt>
      <trkpt lat="43.36045" lon="-1.66205">
        <ele>81</ele>
        <time>2026-03-06T20:29:40.000Z</time>
      </trkpt>
      <trkpt lat="43.3608" lon="-1.66149">
        <ele>83</ele>
        <time>2026-03-06T20:29:49.000Z</time>
      </trkpt>
      <trkpt lat="43.36088" lon="-1.66136">
        <ele>83</ele>
        <time>2026-03-06T20:29:51.000Z</time>
      </trkpt>
      <trkpt lat="43.36092" lon="-1.66131">
        <ele>83</ele>
        <time>2026-03-06T20:29:52.000Z</time>
      </trkpt>
      <trkpt lat="43.36102" lon="-1.66116">
        <ele>83</ele>
        <time>2026-03-06T20:29:55.000Z</time>
      </trkpt>
      <trkpt lat="43.36109" lon="-1.66106">
        <ele>83</ele>
        <time>2026-03-06T20:29:57.000Z</time>
      </trkpt>
      <trkpt lat="43.36118" lon="-1.66096">
        <ele>84</ele>
        <time>2026-03-06T20:29:59.000Z</time>
      </trkpt>
      <trkpt lat="43.36125" lon="-1.66088">
        <ele>84</ele>
        <time>2026-03-06T20:30:01.000Z</time>
      </trkpt>
      <trkpt lat="43.36134" lon="-1.66083">
        <ele>85</ele>
        <time>2026-03-06T20:30:02.000Z</time>
      </trkpt>
      <trkpt lat="43.36141" lon="-1.6608">
        <ele>85</ele>
        <time>2026-03-06T20:30:04.000Z</time>
      </trkpt>
      <trkpt lat="43.36151" lon="-1.66076">
        <ele>86</ele>
        <time>2026-03-06T20:30:05.000Z</time>
      </trkpt>
      <trkpt lat="43.36174" lon="-1.66067">
        <ele>87</ele>
        <time>2026-03-06T20:30:10.000Z</time>
      </trkpt>
      <trkpt lat="43.36201" lon="-1.66062">
        <ele>84</ele>
        <time>2026-03-06T20:30:15.000Z</time>
      </trkpt>
      <trkpt lat="43.36211" lon="-1.66062">
        <ele>84</ele>
        <time>2026-03-06T20:30:16.000Z</time>
      </trkpt>
      <trkpt lat="43.36224" lon="-1.66065">
        <ele>82</ele>
        <time>2026-03-06T20:30:19.000Z</time>
      </trkpt>
      <trkpt lat="43.36238" lon="-1.66073">
        <ele>81</ele>
        <time>2026-03-06T20:30:21.000Z</time>
      </trkpt>
      <trkpt lat="43.36257" lon="-1.66085">
        <ele>79</ele>
        <time>2026-03-06T20:30:25.000Z</time>
      </trkpt>
      <trkpt lat="43.36268" lon="-1.66089">
        <ele>78</ele>
        <time>2026-03-06T20:30:27.000Z</time>
      </trkpt>
      <trkpt lat="43.36278" lon="-1.6609">
        <ele>77</ele>
        <time>2026-03-06T20:30:29.000Z</time>
      </trkpt>
      <trkpt lat="43.36295" lon="-1.66089">
        <ele>77</ele>
        <time>2026-03-06T20:30:32.000Z</time>
      </trkpt>
      <trkpt lat="43.36312" lon="-1.66085">
        <ele>77</ele>
        <time>2026-03-06T20:30:35.000Z</time>
      </trkpt>
      <trkpt lat="43.36332" lon="-1.66079">
        <ele>76</ele>
        <time>2026-03-06T20:30:39.000Z</time>
      </trkpt>
      <trkpt lat="43.36338" lon="-1.66076">
        <ele>76</ele>
        <time>2026-03-06T20:30:40.000Z</time>
      </trkpt>
      <trkpt lat="43.3635" lon="-1.6607">
        <ele>75</ele>
        <time>2026-03-06T20:30:42.000Z</time>
      </trkpt>
      <trkpt lat="43.36354" lon="-1.66067">
        <ele>75</ele>
        <time>2026-03-06T20:30:43.000Z</time>
      </trkpt>
      <trkpt lat="43.36364" lon="-1.6606">
        <ele>75</ele>
        <time>2026-03-06T20:30:45.000Z</time>
      </trkpt>
      <trkpt lat="43.36368" lon="-1.66056">
        <ele>75</ele>
        <time>2026-03-06T20:30:46.000Z</time>
      </trkpt>
      <trkpt lat="43.36385" lon="-1.66037">
        <ele>74</ele>
        <time>2026-03-06T20:30:50.000Z</time>
      </trkpt>
      <trkpt lat="43.36406" lon="-1.66004">
        <ele>75</ele>
        <time>2026-03-06T20:30:55.000Z</time>
      </trkpt>
      <trkpt lat="43.36416" lon="-1.65985">
        <ele>74</ele>
        <time>2026-03-06T20:30:58.000Z</time>
      </trkpt>
      <trkpt lat="43.36457" lon="-1.65913">
        <ele>70</ele>
        <time>2026-03-06T20:31:10.000Z</time>
      </trkpt>
      <trkpt lat="43.36462" lon="-1.65905">
        <ele>69</ele>
        <time>2026-03-06T20:31:12.000Z</time>
      </trkpt>
      <trkpt lat="43.36481" lon="-1.65873">
        <ele>69</ele>
        <time>2026-03-06T20:31:17.000Z</time>
      </trkpt>
      <trkpt lat="43.36515" lon="-1.65811">
        <ele>68</ele>
        <time>2026-03-06T20:31:27.000Z</time>
      </trkpt>
      <trkpt lat="43.3652" lon="-1.65801">
        <ele>68</ele>
        <time>2026-03-06T20:31:28.000Z</time>
      </trkpt>
      <trkpt lat="43.3653" lon="-1.65781">
        <ele>68</ele>
        <time>2026-03-06T20:31:32.000Z</time>
      </trkpt>
      <trkpt lat="43.36541" lon="-1.65752">
        <ele>68</ele>
        <time>2026-03-06T20:31:36.000Z</time>
      </trkpt>
      <trkpt lat="43.36547" lon="-1.6573">
        <ele>70</ele>
        <time>2026-03-06T20:31:39.000Z</time>
      </trkpt>
      <trkpt lat="43.36549" lon="-1.6571">
        <ele>71</ele>
        <time>2026-03-06T20:31:41.000Z</time>
      </trkpt>
      <trkpt lat="43.36555" lon="-1.65695">
        <ele>72</ele>
        <time>2026-03-06T20:31:44.000Z</time>
      </trkpt>
      <trkpt lat="43.36559" lon="-1.65685">
        <ele>73</ele>
        <time>2026-03-06T20:31:45.000Z</time>
      </trkpt>
      <trkpt lat="43.3657" lon="-1.65666">
        <ele>75</ele>
        <time>2026-03-06T20:31:48.000Z</time>
      </trkpt>
      <trkpt lat="43.3658" lon="-1.65655">
        <ele>75</ele>
        <time>2026-03-06T20:31:51.000Z</time>
      </trkpt>
      <trkpt lat="43.36597" lon="-1.65643">
        <ele>73</ele>
        <time>2026-03-06T20:31:54.000Z</time>
      </trkpt>
      <trkpt lat="43.3661" lon="-1.65634">
        <ele>72</ele>
        <time>2026-03-06T20:31:57.000Z</time>
      </trkpt>
      <trkpt lat="43.36618" lon="-1.65631">
        <ele>72</ele>
        <time>2026-03-06T20:31:58.000Z</time>
      </trkpt>
      <trkpt lat="43.36637" lon="-1.65627">
        <ele>71</ele>
        <time>2026-03-06T20:32:01.000Z</time>
      </trkpt>
      <trkpt lat="43.36645" lon="-1.65626">
        <ele>71</ele>
        <time>2026-03-06T20:32:03.000Z</time>
      </trkpt>
      <trkpt lat="43.36654" lon="-1.65627">
        <ele>70</ele>
        <time>2026-03-06T20:32:05.000Z</time>
      </trkpt>
      <trkpt lat="43.3666" lon="-1.65628">
        <ele>70</ele>
        <time>2026-03-06T20:32:06.000Z</time>
      </trkpt>
      <trkpt lat="43.36669" lon="-1.65631">
        <ele>70</ele>
        <time>2026-03-06T20:32:07.000Z</time>
      </trkpt>
      <trkpt lat="43.36699" lon="-1.65639">
        <ele>68</ele>
        <time>2026-03-06T20:32:13.000Z</time>
      </trkpt>
      <trkpt lat="43.36717" lon="-1.65645">
        <ele>67</ele>
        <time>2026-03-06T20:32:16.000Z</time>
      </trkpt>
      <trkpt lat="43.36729" lon="-1.65649">
        <ele>66</ele>
        <time>2026-03-06T20:32:18.000Z</time>
      </trkpt>
      <trkpt lat="43.36759" lon="-1.65676">
        <ele>65</ele>
        <time>2026-03-06T20:32:25.000Z</time>
      </trkpt>
      <trkpt lat="43.36768" lon="-1.65681">
        <ele>65</ele>
        <time>2026-03-06T20:32:26.000Z</time>
      </trkpt>
      <trkpt lat="43.36777" lon="-1.65686">
        <ele>64</ele>
        <time>2026-03-06T20:32:28.000Z</time>
      </trkpt>
      <trkpt lat="43.36797" lon="-1.65696">
        <ele>64</ele>
        <time>2026-03-06T20:32:32.000Z</time>
      </trkpt>
      <trkpt lat="43.36826" lon="-1.65709">
        <ele>64</ele>
        <time>2026-03-06T20:32:37.000Z</time>
      </trkpt>
      <trkpt lat="43.36855" lon="-1.65724">
        <ele>63</ele>
        <time>2026-03-06T20:32:43.000Z</time>
      </trkpt>
      <trkpt lat="43.36902" lon="-1.65742">
        <ele>60</ele>
        <time>2026-03-06T20:32:51.000Z</time>
      </trkpt>
      <trkpt lat="43.36904" lon="-1.65744">
        <ele>60</ele>
        <time>2026-03-06T20:32:52.000Z</time>
      </trkpt>
      <trkpt lat="43.36907" lon="-1.65745">
        <ele>60</ele>
        <time>2026-03-06T20:32:52.000Z</time>
      </trkpt>
      <trkpt lat="43.36948" lon="-1.6576">
        <ele>59</ele>
        <time>2026-03-06T20:33:00.000Z</time>
      </trkpt>
      <trkpt lat="43.36983" lon="-1.65772">
        <ele>57</ele>
        <time>2026-03-06T20:33:06.000Z</time>
      </trkpt>
      <trkpt lat="43.3699" lon="-1.65775">
        <ele>57</ele>
        <time>2026-03-06T20:33:08.000Z</time>
      </trkpt>
      <trkpt lat="43.36991" lon="-1.65776">
        <ele>57</ele>
        <time>2026-03-06T20:33:08.000Z</time>
      </trkpt>
      <trkpt lat="43.36992" lon="-1.65777">
        <ele>56</ele>
        <time>2026-03-06T20:33:08.000Z</time>
      </trkpt>
      <trkpt lat="43.3701" lon="-1.65786">
        <ele>56</ele>
        <time>2026-03-06T20:33:12.000Z</time>
      </trkpt>
      <trkpt lat="43.37016" lon="-1.65789">
        <ele>57</ele>
        <time>2026-03-06T20:33:13.000Z</time>
      </trkpt>
      <trkpt lat="43.37032" lon="-1.65798">
        <ele>57</ele>
        <time>2026-03-06T20:33:16.000Z</time>
      </trkpt>
      <trkpt lat="43.37061" lon="-1.65815">
        <ele>59</ele>
        <time>2026-03-06T20:33:21.000Z</time>
      </trkpt>
      <trkpt lat="43.37078" lon="-1.65826">
        <ele>60</ele>
        <time>2026-03-06T20:33:25.000Z</time>
      </trkpt>
      <trkpt lat="43.37088" lon="-1.65834">
        <ele>60</ele>
        <time>2026-03-06T20:33:27.000Z</time>
      </trkpt>
      <trkpt lat="43.37092" lon="-1.65837">
        <ele>59</ele>
        <time>2026-03-06T20:33:28.000Z</time>
      </trkpt>
      <trkpt lat="43.37096" lon="-1.65843">
        <ele>58</ele>
        <time>2026-03-06T20:33:29.000Z</time>
      </trkpt>
      <trkpt lat="43.371" lon="-1.6585">
        <ele>56</ele>
        <time>2026-03-06T20:33:30.000Z</time>
      </trkpt>
      <trkpt lat="43.37101" lon="-1.65853">
        <ele>56</ele>
        <time>2026-03-06T20:33:30.000Z</time>
      </trkpt>
      <trkpt lat="43.37104" lon="-1.65863">
        <ele>55</ele>
        <time>2026-03-06T20:33:32.000Z</time>
      </trkpt>
      <trkpt lat="43.37108" lon="-1.65876">
        <ele>53</ele>
        <time>2026-03-06T20:33:33.000Z</time>
      </trkpt>
      <trkpt lat="43.37109" lon="-1.65877">
        <ele>53</ele>
        <time>2026-03-06T20:33:34.000Z</time>
      </trkpt>
      <trkpt lat="43.37109" lon="-1.65879">
        <ele>53</ele>
        <time>2026-03-06T20:33:34.000Z</time>
      </trkpt>
      <trkpt lat="43.37115" lon="-1.65887">
        <ele>52</ele>
        <time>2026-03-06T20:33:35.000Z</time>
      </trkpt>
      <trkpt lat="43.37121" lon="-1.65892">
        <ele>52</ele>
        <time>2026-03-06T20:33:37.000Z</time>
      </trkpt>
      <trkpt lat="43.3713" lon="-1.65894">
        <ele>52</ele>
        <time>2026-03-06T20:33:38.000Z</time>
      </trkpt>
      <trkpt lat="43.37139" lon="-1.65895">
        <ele>52</ele>
        <time>2026-03-06T20:33:40.000Z</time>
      </trkpt>
      <trkpt lat="43.37157" lon="-1.65894">
        <ele>53</ele>
        <time>2026-03-06T20:33:43.000Z</time>
      </trkpt>
      <trkpt lat="43.37188" lon="-1.65896">
        <ele>51</ele>
        <time>2026-03-06T20:33:49.000Z</time>
      </trkpt>
      <trkpt lat="43.37249" lon="-1.65902">
        <ele>43</ele>
        <time>2026-03-06T20:33:59.000Z</time>
      </trkpt>
      <trkpt lat="43.37256" lon="-1.65902">
        <ele>42</ele>
        <time>2026-03-06T20:34:01.000Z</time>
      </trkpt>
      <trkpt lat="43.37291" lon="-1.65905">
        <ele>40</ele>
        <time>2026-03-06T20:34:07.000Z</time>
      </trkpt>
      <trkpt lat="43.37311" lon="-1.65907">
        <ele>39</ele>
        <time>2026-03-06T20:34:11.000Z</time>
      </trkpt>
      <trkpt lat="43.37329" lon="-1.65907">
        <ele>38</ele>
        <time>2026-03-06T20:34:14.000Z</time>
      </trkpt>
      <trkpt lat="43.37336" lon="-1.65906">
        <ele>38</ele>
        <time>2026-03-06T20:34:15.000Z</time>
      </trkpt>
      <trkpt lat="43.37341" lon="-1.65906">
        <ele>38</ele>
        <time>2026-03-06T20:34:16.000Z</time>
      </trkpt>
      <trkpt lat="43.37349" lon="-1.65904">
        <ele>38</ele>
        <time>2026-03-06T20:34:17.000Z</time>
      </trkpt>
      <trkpt lat="43.37355" lon="-1.65903">
        <ele>38</ele>
        <time>2026-03-06T20:34:18.000Z</time>
      </trkpt>
      <trkpt lat="43.37369" lon="-1.65897">
        <ele>37</ele>
        <time>2026-03-06T20:34:21.000Z</time>
      </trkpt>
      <trkpt lat="43.37371" lon="-1.65896">
        <ele>37</ele>
        <time>2026-03-06T20:34:21.000Z</time>
      </trkpt>
      <trkpt lat="43.37374" lon="-1.65895">
        <ele>37</ele>
        <time>2026-03-06T20:34:22.000Z</time>
      </trkpt>
      <trkpt lat="43.37376" lon="-1.65895">
        <ele>37</ele>
        <time>2026-03-06T20:34:22.000Z</time>
      </trkpt>
      <trkpt lat="43.37382" lon="-1.65892">
        <ele>37</ele>
        <time>2026-03-06T20:34:23.000Z</time>
      </trkpt>
      <trkpt lat="43.37388" lon="-1.6589">
        <ele>37</ele>
        <time>2026-03-06T20:34:25.000Z</time>
      </trkpt>
      <trkpt lat="43.37402" lon="-1.65884">
        <ele>37</ele>
        <time>2026-03-06T20:34:27.000Z</time>
      </trkpt>
      <trkpt lat="43.37436" lon="-1.6587">
        <ele>38</ele>
        <time>2026-03-06T20:34:33.000Z</time>
      </trkpt>
      <trkpt lat="43.3745" lon="-1.65866">
        <ele>39</ele>
        <time>2026-03-06T20:34:36.000Z</time>
      </trkpt>
      <trkpt lat="43.3746" lon="-1.65865">
        <ele>40</ele>
        <time>2026-03-06T20:34:38.000Z</time>
      </trkpt>
      <trkpt lat="43.37463" lon="-1.65865">
        <ele>40</ele>
        <time>2026-03-06T20:34:38.000Z</time>
      </trkpt>
      <trkpt lat="43.37469" lon="-1.65867">
        <ele>40</ele>
        <time>2026-03-06T20:34:39.000Z</time>
      </trkpt>
      <trkpt lat="43.37484" lon="-1.65874">
        <ele>41</ele>
        <time>2026-03-06T20:34:42.000Z</time>
      </trkpt>
      <trkpt lat="43.37487" lon="-1.65876">
        <ele>41</ele>
        <time>2026-03-06T20:34:43.000Z</time>
      </trkpt>
      <trkpt lat="43.37491" lon="-1.6588">
        <ele>41</ele>
        <time>2026-03-06T20:34:44.000Z</time>
      </trkpt>
      <trkpt lat="43.37496" lon="-1.65884">
        <ele>41</ele>
        <time>2026-03-06T20:34:45.000Z</time>
      </trkpt>
      <trkpt lat="43.37514" lon="-1.65905">
        <ele>41</ele>
        <time>2026-03-06T20:34:49.000Z</time>
      </trkpt>
      <trkpt lat="43.37522" lon="-1.65916">
        <ele>41</ele>
        <time>2026-03-06T20:34:51.000Z</time>
      </trkpt>
      <trkpt lat="43.37533" lon="-1.65934">
        <ele>41</ele>
        <time>2026-03-06T20:34:54.000Z</time>
      </trkpt>
      <trkpt lat="43.37546" lon="-1.65954">
        <ele>40</ele>
        <time>2026-03-06T20:34:57.000Z</time>
      </trkpt>
      <trkpt lat="43.37558" lon="-1.65977">
        <ele>39</ele>
        <time>2026-03-06T20:35:01.000Z</time>
      </trkpt>
      <trkpt lat="43.37565" lon="-1.65991">
        <ele>38</ele>
        <time>2026-03-06T20:35:03.000Z</time>
      </trkpt>
      <trkpt lat="43.37572" lon="-1.66002">
        <ele>37</ele>
        <time>2026-03-06T20:35:05.000Z</time>
      </trkpt>
      <trkpt lat="43.37585" lon="-1.66025">
        <ele>34</ele>
        <time>2026-03-06T20:35:09.000Z</time>
      </trkpt>
      <trkpt lat="43.37597" lon="-1.66043">
        <ele>31</ele>
        <time>2026-03-06T20:35:12.000Z</time>
      </trkpt>
      <trkpt lat="43.37607" lon="-1.66054">
        <ele>30</ele>
        <time>2026-03-06T20:35:14.000Z</time>
      </trkpt>
      <trkpt lat="43.37617" lon="-1.66064">
        <ele>28</ele>
        <time>2026-03-06T20:35:17.000Z</time>
      </trkpt>
      <trkpt lat="43.37626" lon="-1.66073">
        <ele>27</ele>
        <time>2026-03-06T20:35:19.000Z</time>
      </trkpt>
      <trkpt lat="43.37628" lon="-1.66074">
        <ele>27</ele>
        <time>2026-03-06T20:35:19.000Z</time>
      </trkpt>
      <trkpt lat="43.37631" lon="-1.66075">
        <ele>27</ele>
        <time>2026-03-06T20:35:20.000Z</time>
      </trkpt>
      <trkpt lat="43.37634" lon="-1.66077">
        <ele>26</ele>
        <time>2026-03-06T20:35:20.000Z</time>
      </trkpt>
      <trkpt lat="43.37638" lon="-1.66078">
        <ele>26</ele>
        <time>2026-03-06T20:35:21.000Z</time>
      </trkpt>
      <trkpt lat="43.37643" lon="-1.66079">
        <ele>26</ele>
        <time>2026-03-06T20:35:22.000Z</time>
      </trkpt>
      <trkpt lat="43.37646" lon="-1.6608">
        <ele>26</ele>
        <time>2026-03-06T20:35:22.000Z</time>
      </trkpt>
      <trkpt lat="43.3765" lon="-1.66079">
        <ele>26</ele>
        <time>2026-03-06T20:35:23.000Z</time>
      </trkpt>
      <trkpt lat="43.37653" lon="-1.66079">
        <ele>26</ele>
        <time>2026-03-06T20:35:24.000Z</time>
      </trkpt>
      <trkpt lat="43.37656" lon="-1.66078">
        <ele>26</ele>
        <time>2026-03-06T20:35:24.000Z</time>
      </trkpt>
      <trkpt lat="43.37661" lon="-1.66076">
        <ele>26</ele>
        <time>2026-03-06T20:35:25.000Z</time>
      </trkpt>
      <trkpt lat="43.37666" lon="-1.66074">
        <ele>26</ele>
        <time>2026-03-06T20:35:26.000Z</time>
      </trkpt>
      <trkpt lat="43.37676" lon="-1.66068">
        <ele>25</ele>
        <time>2026-03-06T20:35:28.000Z</time>
      </trkpt>
      <trkpt lat="43.3768" lon="-1.66064">
        <ele>25</ele>
        <time>2026-03-06T20:35:29.000Z</time>
      </trkpt>
      <trkpt lat="43.37686" lon="-1.66058">
        <ele>25</ele>
        <time>2026-03-06T20:35:30.000Z</time>
      </trkpt>
      <trkpt lat="43.37704" lon="-1.66037">
        <ele>25</ele>
        <time>2026-03-06T20:35:34.000Z</time>
      </trkpt>
      <trkpt lat="43.37713" lon="-1.66026">
        <ele>24</ele>
        <time>2026-03-06T20:35:36.000Z</time>
      </trkpt>
      <trkpt lat="43.37715" lon="-1.66022">
        <ele>24</ele>
        <time>2026-03-06T20:35:37.000Z</time>
      </trkpt>
      <trkpt lat="43.37722" lon="-1.66005">
        <ele>24</ele>
        <time>2026-03-06T20:35:40.000Z</time>
      </trkpt>
      <trkpt lat="43.37727" lon="-1.65989">
        <ele>24</ele>
        <time>2026-03-06T20:35:42.000Z</time>
      </trkpt>
      <trkpt lat="43.37729" lon="-1.65978">
        <ele>24</ele>
        <time>2026-03-06T20:35:43.000Z</time>
      </trkpt>
      <trkpt lat="43.37734" lon="-1.65947">
        <ele>24</ele>
        <time>2026-03-06T20:35:47.000Z</time>
      </trkpt>
      <trkpt lat="43.37742" lon="-1.65903">
        <ele>23</ele>
        <time>2026-03-06T20:35:53.000Z</time>
      </trkpt>
      <trkpt lat="43.37747" lon="-1.65886">
        <ele>23</ele>
        <time>2026-03-06T20:35:56.000Z</time>
      </trkpt>
      <trkpt lat="43.37753" lon="-1.65876">
        <ele>22</ele>
        <time>2026-03-06T20:35:57.000Z</time>
      </trkpt>
      <trkpt lat="43.37758" lon="-1.65874">
        <ele>22</ele>
        <time>2026-03-06T20:35:58.000Z</time>
      </trkpt>
      <trkpt lat="43.37763" lon="-1.65874">
        <ele>22</ele>
        <time>2026-03-06T20:35:59.000Z</time>
      </trkpt>
      <trkpt lat="43.37766" lon="-1.65875">
        <ele>22</ele>
        <time>2026-03-06T20:36:00.000Z</time>
      </trkpt>
      <trkpt lat="43.37772" lon="-1.65879">
        <ele>21</ele>
        <time>2026-03-06T20:36:01.000Z</time>
      </trkpt>
      <trkpt lat="43.37805" lon="-1.65905">
        <ele>19</ele>
        <time>2026-03-06T20:36:08.000Z</time>
      </trkpt>
      <trkpt lat="43.37831" lon="-1.65928">
        <ele>16</ele>
        <time>2026-03-06T20:36:13.000Z</time>
      </trkpt>
      <trkpt lat="43.37841" lon="-1.65939">
        <ele>15</ele>
        <time>2026-03-06T20:36:15.000Z</time>
      </trkpt>
      <trkpt lat="43.37846" lon="-1.65948">
        <ele>14</ele>
        <time>2026-03-06T20:36:17.000Z</time>
      </trkpt>
      <trkpt lat="43.37862" lon="-1.65978">
        <ele>12</ele>
        <time>2026-03-06T20:36:22.000Z</time>
      </trkpt>
      <trkpt lat="43.37865" lon="-1.65985">
        <ele>12</ele>
        <time>2026-03-06T20:36:23.000Z</time>
      </trkpt>
      <trkpt lat="43.37868" lon="-1.6599">
        <ele>11</ele>
        <time>2026-03-06T20:36:24.000Z</time>
      </trkpt>
      <trkpt lat="43.37874" lon="-1.66">
        <ele>11</ele>
        <time>2026-03-06T20:36:25.000Z</time>
      </trkpt>
      <trkpt lat="43.37881" lon="-1.66008">
        <ele>10</ele>
        <time>2026-03-06T20:36:27.000Z</time>
      </trkpt>
      <trkpt lat="43.37886" lon="-1.66014">
        <ele>10</ele>
        <time>2026-03-06T20:36:28.000Z</time>
      </trkpt>
      <trkpt lat="43.37898" lon="-1.66022">
        <ele>9</ele>
        <time>2026-03-06T20:36:30.000Z</time>
      </trkpt>
      <trkpt lat="43.37918" lon="-1.66035">
        <ele>9</ele>
        <time>2026-03-06T20:36:34.000Z</time>
      </trkpt>
      <trkpt lat="43.37968" lon="-1.66071">
        <ele>6</ele>
        <time>2026-03-06T20:36:44.000Z</time>
      </trkpt>
      <trkpt lat="43.37969" lon="-1.66072">
        <ele>6</ele>
        <time>2026-03-06T20:36:45.000Z</time>
      </trkpt>
      <trkpt lat="43.37986" lon="-1.66086">
        <ele>6</ele>
        <time>2026-03-06T20:36:48.000Z</time>
      </trkpt>
      <trkpt lat="43.37989" lon="-1.66089">
        <ele>5</ele>
        <time>2026-03-06T20:36:49.000Z</time>
      </trkpt>
      <trkpt lat="43.37998" lon="-1.661">
        <ele>5</ele>
        <time>2026-03-06T20:36:51.000Z</time>
      </trkpt>
      <trkpt lat="43.38007" lon="-1.66111">
        <ele>5</ele>
        <time>2026-03-06T20:36:53.000Z</time>
      </trkpt>
      <trkpt lat="43.38015" lon="-1.66118">
        <ele>5</ele>
        <time>2026-03-06T20:36:55.000Z</time>
      </trkpt>
      <trkpt lat="43.38036" lon="-1.66138">
        <ele>6</ele>
        <time>2026-03-06T20:36:59.000Z</time>
      </trkpt>
      <trkpt lat="43.38036" lon="-1.66138">
        <ele>6</ele>
        <time>2026-03-06T20:36:59.000Z</time>
      </trkpt>
      <trkpt lat="43.38027" lon="-1.66148">
        <ele>6</ele>
        <time>2026-03-06T20:37:01.000Z</time>
      </trkpt>
      <trkpt lat="43.38026" lon="-1.66149">
        <ele>6</ele>
        <time>2026-03-06T20:37:02.000Z</time>
      </trkpt>
      <trkpt lat="43.38017" lon="-1.66161">
        <ele>6</ele>
        <time>2026-03-06T20:37:04.000Z</time>
      </trkpt>
      <trkpt lat="43.38009" lon="-1.66175">
        <ele>5</ele>
        <time>2026-03-06T20:37:06.000Z</time>
      </trkpt>
      <trkpt lat="43.38003" lon="-1.66188">
        <ele>5</ele>
        <time>2026-03-06T20:37:08.000Z</time>
      </trkpt>
      <trkpt lat="43.38003" lon="-1.66188">
        <ele>5</ele>
        <time>2026-03-06T20:37:08.000Z</time>
      </trkpt>
      <trkpt lat="43.38008" lon="-1.66199">
        <ele>5</ele>
        <time>2026-03-06T20:37:10.000Z</time>
      </trkpt>
      <trkpt lat="43.38013" lon="-1.66209">
        <ele>5</ele>
        <time>2026-03-06T20:37:11.000Z</time>
      </trkpt>
      <trkpt lat="43.38019" lon="-1.66223">
        <ele>5</ele>
        <time>2026-03-06T20:37:13.000Z</time>
      </trkpt>
      <trkpt lat="43.38022" lon="-1.6623">
        <ele>5</ele>
        <time>2026-03-06T20:37:15.000Z</time>
      </trkpt>
      <trkpt lat="43.38026" lon="-1.66237">
        <ele>5</ele>
        <time>2026-03-06T20:37:16.000Z</time>
      </trkpt>
      <trkpt lat="43.38031" lon="-1.66242">
        <ele>5</ele>
        <time>2026-03-06T20:37:17.000Z</time>
      </trkpt>
      <trkpt lat="43.38036" lon="-1.66248">
        <ele>4</ele>
        <time>2026-03-06T20:37:18.000Z</time>
      </trkpt>
      <trkpt lat="43.38044" lon="-1.66253">
        <ele>5</ele>
        <time>2026-03-06T20:37:20.000Z</time>
      </trkpt>
      <trkpt lat="43.38055" lon="-1.66258">
        <ele>5</ele>
        <time>2026-03-06T20:37:22.000Z</time>
      </trkpt>
      <trkpt lat="43.38065" lon="-1.66262">
        <ele>5</ele>
        <time>2026-03-06T20:37:23.000Z</time>
      </trkpt>
      <trkpt lat="43.38074" lon="-1.66266">
        <ele>5</ele>
        <time>2026-03-06T20:37:25.000Z</time>
      </trkpt>
      <trkpt lat="43.38081" lon="-1.66271">
        <ele>5</ele>
        <time>2026-03-06T20:37:27.000Z</time>
      </trkpt>
      <trkpt lat="43.38086" lon="-1.66275">
        <ele>5</ele>
        <time>2026-03-06T20:37:28.000Z</time>
      </trkpt>
      <trkpt lat="43.38091" lon="-1.66281">
        <ele>5</ele>
        <time>2026-03-06T20:37:29.000Z</time>
      </trkpt>
      <trkpt lat="43.38095" lon="-1.66289">
        <ele>5</ele>
        <time>2026-03-06T20:37:30.000Z</time>
      </trkpt>
      <trkpt lat="43.38098" lon="-1.66296">
        <ele>5</ele>
        <time>2026-03-06T20:37:31.000Z</time>
      </trkpt>
      <trkpt lat="43.381" lon="-1.66305">
        <ele>5</ele>
        <time>2026-03-06T20:37:32.000Z</time>
      </trkpt>
      <trkpt lat="43.38102" lon="-1.66317">
        <ele>5</ele>
        <time>2026-03-06T20:37:34.000Z</time>
      </trkpt>
      <trkpt lat="43.38105" lon="-1.66348">
        <ele>6</ele>
        <time>2026-03-06T20:37:38.000Z</time>
      </trkpt>
      <trkpt lat="43.38108" lon="-1.66377">
        <ele>6</ele>
        <time>2026-03-06T20:37:42.000Z</time>
      </trkpt>
      <trkpt lat="43.3811" lon="-1.66393">
        <ele>6</ele>
        <time>2026-03-06T20:37:44.000Z</time>
      </trkpt>
      <trkpt lat="43.38113" lon="-1.66402">
        <ele>6</ele>
        <time>2026-03-06T20:37:45.000Z</time>
      </trkpt>
      <trkpt lat="43.38116" lon="-1.66412">
        <ele>6</ele>
        <time>2026-03-06T20:37:46.000Z</time>
      </trkpt>
      <trkpt lat="43.38118" lon="-1.6642">
        <ele>6</ele>
        <time>2026-03-06T20:37:48.000Z</time>
      </trkpt>
      <trkpt lat="43.38122" lon="-1.66431">
        <ele>5</ele>
        <time>2026-03-06T20:37:49.000Z</time>
      </trkpt>
      <trkpt lat="43.38128" lon="-1.6644">
        <ele>5</ele>
        <time>2026-03-06T20:37:51.000Z</time>
      </trkpt>
      <trkpt lat="43.38135" lon="-1.66449">
        <ele>5</ele>
        <time>2026-03-06T20:37:52.000Z</time>
      </trkpt>
      <trkpt lat="43.38139" lon="-1.66453">
        <ele>4</ele>
        <time>2026-03-06T20:37:53.000Z</time>
      </trkpt>
      <trkpt lat="43.38144" lon="-1.66458">
        <ele>4</ele>
        <time>2026-03-06T20:37:54.000Z</time>
      </trkpt>
      <trkpt lat="43.38176" lon="-1.66494">
        <ele>2</ele>
        <time>2026-03-06T20:38:02.000Z</time>
      </trkpt>
      <trkpt lat="43.38216" lon="-1.66537">
        <ele>3</ele>
        <time>2026-03-06T20:38:11.000Z</time>
      </trkpt>
      <trkpt lat="43.38223" lon="-1.66545">
        <ele>3</ele>
        <time>2026-03-06T20:38:12.000Z</time>
      </trkpt>
      <trkpt lat="43.38229" lon="-1.66554">
        <ele>3</ele>
        <time>2026-03-06T20:38:14.000Z</time>
      </trkpt>
      <trkpt lat="43.38232" lon="-1.6656">
        <ele>4</ele>
        <time>2026-03-06T20:38:15.000Z</time>
      </trkpt>
      <trkpt lat="43.38236" lon="-1.66569">
        <ele>4</ele>
        <time>2026-03-06T20:38:16.000Z</time>
      </trkpt>
      <trkpt lat="43.38241" lon="-1.66583">
        <ele>4</ele>
        <time>2026-03-06T20:38:18.000Z</time>
      </trkpt>
      <trkpt lat="43.38249" lon="-1.66605">
        <ele>4</ele>
        <time>2026-03-06T20:38:21.000Z</time>
      </trkpt>
      <trkpt lat="43.38252" lon="-1.66615">
        <ele>4</ele>
        <time>2026-03-06T20:38:23.000Z</time>
      </trkpt>
      <trkpt lat="43.38262" lon="-1.66642">
        <ele>5</ele>
        <time>2026-03-06T20:38:27.000Z</time>
      </trkpt>
      <trkpt lat="43.38264" lon="-1.66646">
        <ele>5</ele>
        <time>2026-03-06T20:38:27.000Z</time>
      </trkpt>
      <trkpt lat="43.38278" lon="-1.6668">
        <ele>5</ele>
        <time>2026-03-06T20:38:32.000Z</time>
      </trkpt>
      <trkpt lat="43.38285" lon="-1.66695">
        <ele>6</ele>
        <time>2026-03-06T20:38:35.000Z</time>
      </trkpt>
      <trkpt lat="43.38285" lon="-1.66696">
        <ele>6</ele>
        <time>2026-03-06T20:38:35.000Z</time>
      </trkpt>
      <trkpt lat="43.38288" lon="-1.66702">
        <ele>6</ele>
        <time>2026-03-06T20:38:36.000Z</time>
      </trkpt>
      <trkpt lat="43.3829" lon="-1.66708">
        <ele>6</ele>
        <time>2026-03-06T20:38:37.000Z</time>
      </trkpt>
      <trkpt lat="43.38292" lon="-1.66712">
        <ele>6</ele>
        <time>2026-03-06T20:38:37.000Z</time>
      </trkpt>
      <trkpt lat="43.38299" lon="-1.66728">
        <ele>6</ele>
        <time>2026-03-06T20:38:40.000Z</time>
      </trkpt>
      <trkpt lat="43.38312" lon="-1.66759">
        <ele>7</ele>
        <time>2026-03-06T20:38:44.000Z</time>
      </trkpt>
      <trkpt lat="43.38312" lon="-1.66759">
        <ele>7</ele>
        <time>2026-03-06T20:38:44.000Z</time>
      </trkpt>
      <trkpt lat="43.38334" lon="-1.66758">
        <ele>7</ele>
        <time>2026-03-06T20:38:48.000Z</time>
      </trkpt>
      <trkpt lat="43.38347" lon="-1.66756">
        <ele>6</ele>
        <time>2026-03-06T20:38:51.000Z</time>
      </trkpt>
      <trkpt lat="43.38362" lon="-1.66754">
        <ele>6</ele>
        <time>2026-03-06T20:38:53.000Z</time>
      </trkpt>
      <trkpt lat="43.38374" lon="-1.6675">
        <ele>6</ele>
        <time>2026-03-06T20:38:56.000Z</time>
      </trkpt>
      <trkpt lat="43.38382" lon="-1.66744">
        <ele>5</ele>
        <time>2026-03-06T20:38:57.000Z</time>
      </trkpt>
      <trkpt lat="43.38389" lon="-1.66735">
        <ele>5</ele>
        <time>2026-03-06T20:38:59.000Z</time>
      </trkpt>
      <trkpt lat="43.38401" lon="-1.66719">
        <ele>5</ele>
        <time>2026-03-06T20:39:02.000Z</time>
      </trkpt>
      <trkpt lat="43.38428" lon="-1.66678">
        <ele>5</ele>
        <time>2026-03-06T20:39:09.000Z</time>
      </trkpt>
      <trkpt lat="43.38431" lon="-1.66675">
        <ele>5</ele>
        <time>2026-03-06T20:39:10.000Z</time>
      </trkpt>
      <trkpt lat="43.3844" lon="-1.66661">
        <ele>5</ele>
        <time>2026-03-06T20:39:12.000Z</time>
      </trkpt>
      <trkpt lat="43.38445" lon="-1.66655">
        <ele>5</ele>
        <time>2026-03-06T20:39:13.000Z</time>
      </trkpt>
      <trkpt lat="43.38453" lon="-1.66643">
        <ele>4</ele>
        <time>2026-03-06T20:39:15.000Z</time>
      </trkpt>
      <trkpt lat="43.38453" lon="-1.66643">
        <ele>4</ele>
        <time>2026-03-06T20:39:15.000Z</time>
      </trkpt>
      <trkpt lat="43.38452" lon="-1.66642">
        <ele>4</ele>
        <time>2026-03-06T20:39:16.000Z</time>
      </trkpt>
      <trkpt lat="43.38451" lon="-1.6664">
        <ele>4</ele>
        <time>2026-03-06T20:39:16.000Z</time>
      </trkpt>
      <trkpt lat="43.38451" lon="-1.66639">
        <ele>4</ele>
        <time>2026-03-06T20:39:16.000Z</time>
      </trkpt>
      <trkpt lat="43.3845" lon="-1.66638">
        <ele>4</ele>
        <time>2026-03-06T20:39:16.000Z</time>
      </trkpt>
      <trkpt lat="43.3845" lon="-1.66636">
        <ele>4</ele>
        <time>2026-03-06T20:39:16.000Z</time>
      </trkpt>
      <trkpt lat="43.3845" lon="-1.66634">
        <ele>4</ele>
        <time>2026-03-06T20:39:17.000Z</time>
      </trkpt>
      <trkpt lat="43.3845" lon="-1.66631">
        <ele>4</ele>
        <time>2026-03-06T20:39:17.000Z</time>
      </trkpt>
      <trkpt lat="43.3845" lon="-1.66628">
        <ele>4</ele>
        <time>2026-03-06T20:39:17.000Z</time>
      </trkpt>
      <trkpt lat="43.38432" lon="-1.66608">
        <ele>4</ele>
        <time>2026-03-06T20:39:22.000Z</time>
      </trkpt>
      <trkpt lat="43.38432" lon="-1.66608">
        <ele>4</ele>
        <time>2026-03-06T20:39:22.000Z</time>
      </trkpt>
      <trkpt lat="43.38425" lon="-1.66599">
        <ele>4</ele>
        <time>2026-03-06T20:39:23.000Z</time>
      </trkpt>
      <trkpt lat="43.3842" lon="-1.66592">
        <ele>4</ele>
        <time>2026-03-06T20:39:25.000Z</time>
      </trkpt>
      <trkpt lat="43.38416" lon="-1.66586">
        <ele>4</ele>
        <time>2026-03-06T20:39:26.000Z</time>
      </trkpt>
      <trkpt lat="43.38415" lon="-1.66584">
        <ele>4</ele>
        <time>2026-03-06T20:39:26.000Z</time>
      </trkpt>
      <trkpt lat="43.38414" lon="-1.66583">
        <ele>4</ele>
        <time>2026-03-06T20:39:26.000Z</time>
      </trkpt>
      <trkpt lat="43.38414" lon="-1.66581">
        <ele>4</ele>
        <time>2026-03-06T20:39:26.000Z</time>
      </trkpt>
      <trkpt lat="43.38413" lon="-1.66579">
        <ele>4</ele>
        <time>2026-03-06T20:39:27.000Z</time>
      </trkpt>
      <trkpt lat="43.38413" lon="-1.66576">
        <ele>4</ele>
        <time>2026-03-06T20:39:27.000Z</time>
      </trkpt>
      <trkpt lat="43.38412" lon="-1.66573">
        <ele>4</ele>
        <time>2026-03-06T20:39:28.000Z</time>
      </trkpt>
      <trkpt lat="43.38412" lon="-1.66571">
        <ele>4</ele>
        <time>2026-03-06T20:39:28.000Z</time>
      </trkpt>
      <trkpt lat="43.38412" lon="-1.66568">
        <ele>4</ele>
        <time>2026-03-06T20:39:28.000Z</time>
      </trkpt>
      <trkpt lat="43.38412" lon="-1.66565">
        <ele>4</ele>
        <time>2026-03-06T20:39:29.000Z</time>
      </trkpt>
      <trkpt lat="43.38413" lon="-1.66562">
        <ele>4</ele>
        <time>2026-03-06T20:39:29.000Z</time>
      </trkpt>
      <trkpt lat="43.38413" lon="-1.66558">
        <ele>4</ele>
        <time>2026-03-06T20:39:30.000Z</time>
      </trkpt>
      <trkpt lat="43.38414" lon="-1.66555">
        <ele>4</ele>
        <time>2026-03-06T20:39:30.000Z</time>
      </trkpt>
      <trkpt lat="43.38415" lon="-1.66552">
        <ele>4</ele>
        <time>2026-03-06T20:39:30.000Z</time>
      </trkpt>
      <trkpt lat="43.38416" lon="-1.66549">
        <ele>4</ele>
        <time>2026-03-06T20:39:31.000Z</time>
      </trkpt>
      <trkpt lat="43.38418" lon="-1.66546">
        <ele>4</ele>
        <time>2026-03-06T20:39:31.000Z</time>
      </trkpt>
      <trkpt lat="43.38434" lon="-1.66514">
        <ele>5</ele>
        <time>2026-03-06T20:39:36.000Z</time>
      </trkpt>
      <trkpt lat="43.3846" lon="-1.66462">
        <ele>6</ele>
        <time>2026-03-06T20:39:45.000Z</time>
      </trkpt>
      <trkpt lat="43.38471" lon="-1.66444">
        <ele>6</ele>
        <time>2026-03-06T20:39:48.000Z</time>
      </trkpt>
      <trkpt lat="43.38473" lon="-1.6644">
        <ele>6</ele>
        <time>2026-03-06T20:39:48.000Z</time>
      </trkpt>
      <trkpt lat="43.38482" lon="-1.66433">
        <ele>6</ele>
        <time>2026-03-06T20:39:50.000Z</time>
      </trkpt>
      <trkpt lat="43.38482" lon="-1.66433">
        <ele>6</ele>
        <time>2026-03-06T20:39:50.000Z</time>
      </trkpt>
      <trkpt lat="43.3849" lon="-1.66415">
        <ele>5</ele>
        <time>2026-03-06T20:39:53.000Z</time>
      </trkpt>
      <trkpt lat="43.38498" lon="-1.66399">
        <ele>5</ele>
        <time>2026-03-06T20:39:55.000Z</time>
      </trkpt>
      <trkpt lat="43.38504" lon="-1.66385">
        <ele>4</ele>
        <time>2026-03-06T20:39:57.000Z</time>
      </trkpt>
      <trkpt lat="43.38507" lon="-1.66376">
        <ele>4</ele>
        <time>2026-03-06T20:39:59.000Z</time>
      </trkpt>
      <trkpt lat="43.3851" lon="-1.6637">
        <ele>3</ele>
        <time>2026-03-06T20:40:00.000Z</time>
      </trkpt>
      <trkpt lat="43.38515" lon="-1.66356">
        <ele>3</ele>
        <time>2026-03-06T20:40:02.000Z</time>
      </trkpt>
      <trkpt lat="43.38522" lon="-1.6634">
        <ele>2</ele>
        <time>2026-03-06T20:40:04.000Z</time>
      </trkpt>
      <trkpt lat="43.38524" lon="-1.66336">
        <ele>2</ele>
        <time>2026-03-06T20:40:05.000Z</time>
      </trkpt>
      <trkpt lat="43.38549" lon="-1.66275">
        <ele>3</ele>
        <time>2026-03-06T20:40:14.000Z</time>
      </trkpt>
      <trkpt lat="43.38551" lon="-1.66269">
        <ele>3</ele>
        <time>2026-03-06T20:40:15.000Z</time>
      </trkpt>
      <trkpt lat="43.38553" lon="-1.66264">
        <ele>3</ele>
        <time>2026-03-06T20:40:15.000Z</time>
      </trkpt>
      <trkpt lat="43.38554" lon="-1.66263">
        <ele>3</ele>
        <time>2026-03-06T20:40:16.000Z</time>
      </trkpt>
      <trkpt lat="43.38556" lon="-1.66259">
        <ele>3</ele>
        <time>2026-03-06T20:40:16.000Z</time>
      </trkpt>
      <trkpt lat="43.38557" lon="-1.66251">
        <ele>3</ele>
        <time>2026-03-06T20:40:17.000Z</time>
      </trkpt>
      <trkpt lat="43.38559" lon="-1.66243">
        <ele>3</ele>
        <time>2026-03-06T20:40:18.000Z</time>
      </trkpt>
      <trkpt lat="43.38561" lon="-1.66237">
        <ele>3</ele>
        <time>2026-03-06T20:40:19.000Z</time>
      </trkpt>
      <trkpt lat="43.38563" lon="-1.66232">
        <ele>3</ele>
        <time>2026-03-06T20:40:20.000Z</time>
      </trkpt>
      <trkpt lat="43.38566" lon="-1.66227">
        <ele>3</ele>
        <time>2026-03-06T20:40:21.000Z</time>
      </trkpt>
      <trkpt lat="43.38569" lon="-1.66221">
        <ele>4</ele>
        <time>2026-03-06T20:40:22.000Z</time>
      </trkpt>
      <trkpt lat="43.38573" lon="-1.66214">
        <ele>4</ele>
        <time>2026-03-06T20:40:23.000Z</time>
      </trkpt>
      <trkpt lat="43.38579" lon="-1.66206">
        <ele>4</ele>
        <time>2026-03-06T20:40:24.000Z</time>
      </trkpt>
      <trkpt lat="43.38591" lon="-1.66192">
        <ele>4</ele>
        <time>2026-03-06T20:40:27.000Z</time>
      </trkpt>
      <trkpt lat="43.38591" lon="-1.66192">
        <ele>4</ele>
        <time>2026-03-06T20:40:27.000Z</time>
      </trkpt>
      <trkpt lat="43.38591" lon="-1.66189">
        <ele>4</ele>
        <time>2026-03-06T20:40:28.000Z</time>
      </trkpt>
      <trkpt lat="43.38592" lon="-1.66187">
        <ele>4</ele>
        <time>2026-03-06T20:40:28.000Z</time>
      </trkpt>
      <trkpt lat="43.38592" lon="-1.66185">
        <ele>4</ele>
        <time>2026-03-06T20:40:28.000Z</time>
      </trkpt>
      <trkpt lat="43.38592" lon="-1.66183">
        <ele>4</ele>
        <time>2026-03-06T20:40:28.000Z</time>
      </trkpt>
      <trkpt lat="43.38593" lon="-1.66181">
        <ele>4</ele>
        <time>2026-03-06T20:40:29.000Z</time>
      </trkpt>
      <trkpt lat="43.38593" lon="-1.66179">
        <ele>4</ele>
        <time>2026-03-06T20:40:29.000Z</time>
      </trkpt>
      <trkpt lat="43.38594" lon="-1.66177">
        <ele>4</ele>
        <time>2026-03-06T20:40:29.000Z</time>
      </trkpt>
      <trkpt lat="43.38595" lon="-1.66176">
        <ele>5</ele>
        <time>2026-03-06T20:40:29.000Z</time>
      </trkpt>
      <trkpt lat="43.38596" lon="-1.66174">
        <ele>5</ele>
        <time>2026-03-06T20:40:30.000Z</time>
      </trkpt>
      <trkpt lat="43.38597" lon="-1.66173">
        <ele>5</ele>
        <time>2026-03-06T20:40:30.000Z</time>
      </trkpt>
      <trkpt lat="43.38598" lon="-1.66172">
        <ele>5</ele>
        <time>2026-03-06T20:40:30.000Z</time>
      </trkpt>
      <trkpt lat="43.38599" lon="-1.6617">
        <ele>5</ele>
        <time>2026-03-06T20:40:31.000Z</time>
      </trkpt>
      <trkpt lat="43.386" lon="-1.66169">
        <ele>5</ele>
        <time>2026-03-06T20:40:31.000Z</time>
      </trkpt>
      <trkpt lat="43.38601" lon="-1.66168">
        <ele>5</ele>
        <time>2026-03-06T20:40:31.000Z</time>
      </trkpt>
      <trkpt lat="43.38603" lon="-1.66168">
        <ele>5</ele>
        <time>2026-03-06T20:40:31.000Z</time>
      </trkpt>
      <trkpt lat="43.38604" lon="-1.66167">
        <ele>5</ele>
        <time>2026-03-06T20:40:32.000Z</time>
      </trkpt>
      <trkpt lat="43.38605" lon="-1.66166">
        <ele>5</ele>
        <time>2026-03-06T20:40:32.000Z</time>
      </trkpt>
      <trkpt lat="43.38607" lon="-1.66166">
        <ele>5</ele>
        <time>2026-03-06T20:40:32.000Z</time>
      </trkpt>
      <trkpt lat="43.38608" lon="-1.66166">
        <ele>5</ele>
        <time>2026-03-06T20:40:32.000Z</time>
      </trkpt>
      <trkpt lat="43.38609" lon="-1.66166">
        <ele>6</ele>
        <time>2026-03-06T20:40:32.000Z</time>
      </trkpt>
      <trkpt lat="43.38611" lon="-1.66166">
        <ele>6</ele>
        <time>2026-03-06T20:40:33.000Z</time>
      </trkpt>
      <trkpt lat="43.38612" lon="-1.66166">
        <ele>6</ele>
        <time>2026-03-06T20:40:33.000Z</time>
      </trkpt>
      <trkpt lat="43.38614" lon="-1.66166">
        <ele>6</ele>
        <time>2026-03-06T20:40:33.000Z</time>
      </trkpt>
      <trkpt lat="43.38615" lon="-1.66167">
        <ele>6</ele>
        <time>2026-03-06T20:40:34.000Z</time>
      </trkpt>
      <trkpt lat="43.38616" lon="-1.66167">
        <ele>6</ele>
        <time>2026-03-06T20:40:34.000Z</time>
      </trkpt>
      <trkpt lat="43.38618" lon="-1.66168">
        <ele>6</ele>
        <time>2026-03-06T20:40:34.000Z</time>
      </trkpt>
      <trkpt lat="43.38619" lon="-1.66169">
        <ele>6</ele>
        <time>2026-03-06T20:40:34.000Z</time>
      </trkpt>
      <trkpt lat="43.3862" lon="-1.6617">
        <ele>6</ele>
        <time>2026-03-06T20:40:35.000Z</time>
      </trkpt>
      <trkpt lat="43.38622" lon="-1.66172">
        <ele>6</ele>
        <time>2026-03-06T20:40:35.000Z</time>
      </trkpt>
      <trkpt lat="43.38623" lon="-1.66173">
        <ele>6</ele>
        <time>2026-03-06T20:40:35.000Z</time>
      </trkpt>
      <trkpt lat="43.38624" lon="-1.66174">
        <ele>6</ele>
        <time>2026-03-06T20:40:35.000Z</time>
      </trkpt>
      <trkpt lat="43.38625" lon="-1.66176">
        <ele>6</ele>
        <time>2026-03-06T20:40:36.000Z</time>
      </trkpt>
      <trkpt lat="43.38625" lon="-1.66178">
        <ele>6</ele>
        <time>2026-03-06T20:40:36.000Z</time>
      </trkpt>
      <trkpt lat="43.38626" lon="-1.6618">
        <ele>6</ele>
        <time>2026-03-06T20:40:36.000Z</time>
      </trkpt>
      <trkpt lat="43.38627" lon="-1.66181">
        <ele>6</ele>
        <time>2026-03-06T20:40:37.000Z</time>
      </trkpt>
      <trkpt lat="43.38627" lon="-1.66183">
        <ele>6</ele>
        <time>2026-03-06T20:40:37.000Z</time>
      </trkpt>
      <trkpt lat="43.38628" lon="-1.66185">
        <ele>6</ele>
        <time>2026-03-06T20:40:37.000Z</time>
      </trkpt>
      <trkpt lat="43.38628" lon="-1.66187">
        <ele>6</ele>
        <time>2026-03-06T20:40:37.000Z</time>
      </trkpt>
      <trkpt lat="43.38628" lon="-1.66189">
        <ele>6</ele>
        <time>2026-03-06T20:40:38.000Z</time>
      </trkpt>
      <trkpt lat="43.38628" lon="-1.6619">
        <ele>6</ele>
        <time>2026-03-06T20:40:38.000Z</time>
      </trkpt>
      <trkpt lat="43.38628" lon="-1.66191">
        <ele>6</ele>
        <time>2026-03-06T20:40:38.000Z</time>
      </trkpt>
      <trkpt lat="43.38628" lon="-1.66192">
        <ele>6</ele>
        <time>2026-03-06T20:40:38.000Z</time>
      </trkpt>
      <trkpt lat="43.38628" lon="-1.66193">
        <ele>6</ele>
        <time>2026-03-06T20:40:38.000Z</time>
      </trkpt>
      <trkpt lat="43.38628" lon="-1.66194">
        <ele>6</ele>
        <time>2026-03-06T20:40:38.000Z</time>
      </trkpt>
      <trkpt lat="43.38628" lon="-1.66195">
        <ele>6</ele>
        <time>2026-03-06T20:40:38.000Z</time>
      </trkpt>
      <trkpt lat="43.38633" lon="-1.66201">
        <ele>6</ele>
        <time>2026-03-06T20:40:40.000Z</time>
      </trkpt>
      <trkpt lat="43.38635" lon="-1.66204">
        <ele>6</ele>
        <time>2026-03-06T20:40:40.000Z</time>
      </trkpt>
      <trkpt lat="43.38637" lon="-1.66209">
        <ele>5</ele>
        <time>2026-03-06T20:40:41.000Z</time>
      </trkpt>
      <trkpt lat="43.38641" lon="-1.6622">
        <ele>5</ele>
        <time>2026-03-06T20:40:42.000Z</time>
      </trkpt>
      <trkpt lat="43.38646" lon="-1.66236">
        <ele>4</ele>
        <time>2026-03-06T20:40:45.000Z</time>
      </trkpt>
      <trkpt lat="43.3865" lon="-1.66255">
        <ele>4</ele>
        <time>2026-03-06T20:40:47.000Z</time>
      </trkpt>
      <trkpt lat="43.3866" lon="-1.66287">
        <ele>2</ele>
        <time>2026-03-06T20:40:52.000Z</time>
      </trkpt>
      <trkpt lat="43.38669" lon="-1.66299">
        <ele>2</ele>
        <time>2026-03-06T20:40:54.000Z</time>
      </trkpt>
      <trkpt lat="43.38674" lon="-1.66306">
        <ele>2</ele>
        <time>2026-03-06T20:40:55.000Z</time>
      </trkpt>
      <trkpt lat="43.38674" lon="-1.66306">
        <ele>2</ele>
        <time>2026-03-06T20:40:55.000Z</time>
      </trkpt>
      <trkpt lat="43.38675" lon="-1.66305">
        <ele>2</ele>
        <time>2026-03-06T20:40:55.000Z</time>
      </trkpt>
      <trkpt lat="43.38676" lon="-1.66305">
        <ele>2</ele>
        <time>2026-03-06T20:40:56.000Z</time>
      </trkpt>
      <trkpt lat="43.38677" lon="-1.66304">
        <ele>2</ele>
        <time>2026-03-06T20:40:56.000Z</time>
      </trkpt>
      <trkpt lat="43.38678" lon="-1.66304">
        <ele>2</ele>
        <time>2026-03-06T20:40:56.000Z</time>
      </trkpt>
      <trkpt lat="43.38679" lon="-1.66304">
        <ele>2</ele>
        <time>2026-03-06T20:40:56.000Z</time>
      </trkpt>
      <trkpt lat="43.3868" lon="-1.66304">
        <ele>2</ele>
        <time>2026-03-06T20:40:56.000Z</time>
      </trkpt>
      <trkpt lat="43.38681" lon="-1.66304">
        <ele>2</ele>
        <time>2026-03-06T20:40:57.000Z</time>
      </trkpt>
      <trkpt lat="43.38682" lon="-1.66305">
        <ele>2</ele>
        <time>2026-03-06T20:40:57.000Z</time>
      </trkpt>
      <trkpt lat="43.38683" lon="-1.66305">
        <ele>2</ele>
        <time>2026-03-06T20:40:57.000Z</time>
      </trkpt>
      <trkpt lat="43.38684" lon="-1.66305">
        <ele>2</ele>
        <time>2026-03-06T20:40:57.000Z</time>
      </trkpt>
      <trkpt lat="43.38685" lon="-1.66305">
        <ele>2</ele>
        <time>2026-03-06T20:40:57.000Z</time>
      </trkpt>
      <trkpt lat="43.38685" lon="-1.66306">
        <ele>2</ele>
        <time>2026-03-06T20:40:57.000Z</time>
      </trkpt>
      <trkpt lat="43.38686" lon="-1.66306">
        <ele>2</ele>
        <time>2026-03-06T20:40:58.000Z</time>
      </trkpt>
      <trkpt lat="43.38686" lon="-1.66307">
        <ele>2</ele>
        <time>2026-03-06T20:40:58.000Z</time>
      </trkpt>
      <trkpt lat="43.38687" lon="-1.66307">
        <ele>2</ele>
        <time>2026-03-06T20:40:58.000Z</time>
      </trkpt>
      <trkpt lat="43.38687" lon="-1.66308">
        <ele>2</ele>
        <time>2026-03-06T20:40:58.000Z</time>
      </trkpt>
      <trkpt lat="43.38688" lon="-1.66308">
        <ele>2</ele>
        <time>2026-03-06T20:40:58.000Z</time>
      </trkpt>
      <trkpt lat="43.38688" lon="-1.66309">
        <ele>2</ele>
        <time>2026-03-06T20:40:58.000Z</time>
      </trkpt>
      <trkpt lat="43.38689" lon="-1.6631">
        <ele>2</ele>
        <time>2026-03-06T20:40:59.000Z</time>
      </trkpt>
      <trkpt lat="43.38689" lon="-1.66311">
        <ele>2</ele>
        <time>2026-03-06T20:40:59.000Z</time>
      </trkpt>
      <trkpt lat="43.3869" lon="-1.66311">
        <ele>2</ele>
        <time>2026-03-06T20:40:59.000Z</time>
      </trkpt>
      <trkpt lat="43.3869" lon="-1.66312">
        <ele>2</ele>
        <time>2026-03-06T20:40:59.000Z</time>
      </trkpt>
      <trkpt lat="43.3869" lon="-1.66313">
        <ele>2</ele>
        <time>2026-03-06T20:40:59.000Z</time>
      </trkpt>
      <trkpt lat="43.3869" lon="-1.66314">
        <ele>2</ele>
        <time>2026-03-06T20:40:59.000Z</time>
      </trkpt>
      <trkpt lat="43.38691" lon="-1.66314">
        <ele>2</ele>
        <time>2026-03-06T20:40:59.000Z</time>
      </trkpt>
      <trkpt lat="43.38691" lon="-1.66315">
        <ele>2</ele>
        <time>2026-03-06T20:41:00.000Z</time>
      </trkpt>
      <trkpt lat="43.38691" lon="-1.66316">
        <ele>2</ele>
        <time>2026-03-06T20:41:00.000Z</time>
      </trkpt>
      <trkpt lat="43.38691" lon="-1.66317">
        <ele>2</ele>
        <time>2026-03-06T20:41:00.000Z</time>
      </trkpt>
      <trkpt lat="43.38691" lon="-1.66318">
        <ele>2</ele>
        <time>2026-03-06T20:41:00.000Z</time>
      </trkpt>
      <trkpt lat="43.38691" lon="-1.66319">
        <ele>2</ele>
        <time>2026-03-06T20:41:00.000Z</time>
      </trkpt>
      <trkpt lat="43.38691" lon="-1.6632">
        <ele>2</ele>
        <time>2026-03-06T20:41:00.000Z</time>
      </trkpt>
      <trkpt lat="43.38691" lon="-1.66321">
        <ele>2</ele>
        <time>2026-03-06T20:41:00.000Z</time>
      </trkpt>
      <trkpt lat="43.38691" lon="-1.66322">
        <ele>2</ele>
        <time>2026-03-06T20:41:01.000Z</time>
      </trkpt>
      <trkpt lat="43.3869" lon="-1.66323">
        <ele>2</ele>
        <time>2026-03-06T20:41:01.000Z</time>
      </trkpt>
      <trkpt lat="43.3869" lon="-1.66325">
        <ele>2</ele>
        <time>2026-03-06T20:41:01.000Z</time>
      </trkpt>
      <trkpt lat="43.3869" lon="-1.66326">
        <ele>2</ele>
        <time>2026-03-06T20:41:01.000Z</time>
      </trkpt>
      <trkpt lat="43.38689" lon="-1.66327">
        <ele>2</ele>
        <time>2026-03-06T20:41:01.000Z</time>
      </trkpt>
    </trkseg>
  </trk>
</gpx>